<?xml version='1.0' encoding='UTF-8'?><gpx version="1.1" creator="JPX - https://github.com/jenetics/jpx" xmlns="http://www.topografix.com/GPX/1/1"><trk><trkseg><trkpt lat="42.5223167" lon="14.1525683"><ele>1.9999999999999998</ele><time>2026-05-02T05:59:19.287Z</time></trkpt><trkpt lat="42.5222683" lon="14.1526467"><ele>2.0</ele><time>2026-05-02T05:59:23.286Z</time></trkpt><trkpt lat="42.5221917" lon="14.15262"><ele>2.0</ele><time>2026-05-02T05:59:27.286Z</time></trkpt><trkpt lat="42.5221467" lon="14.1525367"><ele>2.0</ele><time>2026-05-02T05:59:30.286Z</time></trkpt><trkpt lat="42.5221133" lon="14.15243"><ele>1.9999999999999998</ele><time>2026-05-02T05:59:33.287Z</time></trkpt><trkpt lat="42.5220667" lon="14.1523233"><ele>2.0</ele><time>2026-05-02T05:59:36.286Z</time></trkpt><trkpt lat="42.5220317" lon="14.152245"><ele>1.6666666666666665</ele><time>2026-05-02T05:59:38.287Z</time></trkpt><trkpt lat="42.5219833" lon="14.1521483"><ele>1.3333333333333333</ele><time>2026-05-02T05:59:40.286Z</time></trkpt><trkpt lat="42.521925" lon="14.1520433"><ele>1.0</ele><time>2026-05-02T05:59:42.286Z</time></trkpt><trkpt lat="42.521845" lon="14.1519817"><ele>0.6666666666666666</ele><time>2026-05-02T05:59:44.287Z</time></trkpt><trkpt lat="42.5217783" lon="14.1520083"><ele>0.3333333333333333</ele><time>2026-05-02T05:59:46.286Z</time></trkpt><trkpt lat="42.5217683" lon="14.1520983"><ele>0.0</ele><time>2026-05-02T05:59:48.286Z</time></trkpt><trkpt lat="42.5218033" lon="14.15219"><ele>0.0</ele><time>2026-05-02T05:59:50.286Z</time></trkpt><trkpt lat="42.5218433" lon="14.152275"><ele>0.0</ele><time>2026-05-02T05:59:53.286Z</time></trkpt><trkpt lat="42.5218783" lon="14.1523567"><ele>0.0</ele><time>2026-05-02T05:59:56.286Z</time></trkpt><trkpt lat="42.5219233" lon="14.1524467"><ele>0.0</ele><time>2026-05-02T05:59:59.286Z</time></trkpt><trkpt lat="42.52196" lon="14.1525367"><ele>0.0</ele><time>2026-05-02T06:00:02.286Z</time></trkpt><trkpt lat="42.5220167" lon="14.15265"><ele>0.0</ele><time>2026-05-02T06:00:20.286Z</time></trkpt><trkpt lat="42.52205" lon="14.1527283"><ele>0.3333333333333333</ele><time>2026-05-02T06:00:21.286Z</time></trkpt><trkpt lat="42.52209" lon="14.1528183"><ele>0.6666666666666666</ele><time>2026-05-02T06:00:22.286Z</time></trkpt><trkpt lat="42.522125" lon="14.1529"><ele>1.0</ele><time>2026-05-02T06:00:23.286Z</time></trkpt><trkpt lat="42.5221617" lon="14.1529733"><ele>1.3333333333333333</ele><time>2026-05-02T06:00:24.287Z</time></trkpt><trkpt lat="42.5222" lon="14.1530467"><ele>1.6666666666666665</ele><time>2026-05-02T06:00:25.286Z</time></trkpt><trkpt lat="42.52226" lon="14.1531633"><ele>2.0</ele><time>2026-05-02T06:00:27.286Z</time></trkpt><trkpt lat="42.5222933" lon="14.1532483"><ele>2.0</ele><time>2026-05-02T06:00:29.286Z</time></trkpt><trkpt lat="42.5222583" lon="14.15338"><ele>2.0</ele><time>2026-05-02T06:00:32.286Z</time></trkpt><trkpt lat="42.522165" lon="14.15347"><ele>2.0</ele><time>2026-05-02T06:00:34.286Z</time></trkpt><trkpt lat="42.52211" lon="14.15352"><ele>2.0</ele><time>2026-05-02T06:00:35.286Z</time></trkpt><trkpt lat="42.5220133" lon="14.1535883"><ele>2.0</ele><time>2026-05-02T06:00:37.286Z</time></trkpt><trkpt lat="42.5219283" lon="14.1536017"><ele>1.6666666666666665</ele><time>2026-05-02T06:00:39.286Z</time></trkpt><trkpt lat="42.5218583" lon="14.15354"><ele>1.3333333333333333</ele><time>2026-05-02T06:00:41.286Z</time></trkpt><trkpt lat="42.5218" lon="14.1534067"><ele>1.0</ele><time>2026-05-02T06:00:43.286Z</time></trkpt><trkpt lat="42.521775" lon="14.1533167"><ele>0.6666666666666666</ele><time>2026-05-02T06:00:44.287Z</time></trkpt><trkpt lat="42.52175" lon="14.15323"><ele>0.3333333333333333</ele><time>2026-05-02T06:00:45.287Z</time></trkpt><trkpt lat="42.5217183" lon="14.153135"><ele>0.0</ele><time>2026-05-02T06:00:46.286Z</time></trkpt><trkpt lat="42.5216767" lon="14.1530267"><ele>-0.2</ele><time>2026-05-02T06:00:47.286Z</time></trkpt><trkpt lat="42.5216417" lon="14.1529267"><ele>-0.4</ele><time>2026-05-02T06:00:48.287Z</time></trkpt><trkpt lat="42.521605" lon="14.152815"><ele>-0.6000000000000001</ele><time>2026-05-02T06:00:49.286Z</time></trkpt><trkpt lat="42.5215667" lon="14.1526983"><ele>-0.8</ele><time>2026-05-02T06:00:50.286Z</time></trkpt><trkpt lat="42.5215217" lon="14.1525867"><ele>-1.0</ele><time>2026-05-02T06:00:51.286Z</time></trkpt><trkpt lat="42.5214817" lon="14.1524733"><ele>-0.9999999999999999</ele><time>2026-05-02T06:00:52.287Z</time></trkpt><trkpt lat="42.521435" lon="14.1523867"><ele>-1.0</ele><time>2026-05-02T06:00:53.286Z</time></trkpt><trkpt lat="42.5214033" lon="14.152265"><ele>-1.0</ele><time>2026-05-02T06:00:54.286Z</time></trkpt><trkpt lat="42.5213733" lon="14.1521483"><ele>-1.0</ele><time>2026-05-02T06:00:55.286Z</time></trkpt><trkpt lat="42.5213367" lon="14.1520417"><ele>-0.9999999999999999</ele><time>2026-05-02T06:00:56.286Z</time></trkpt><trkpt lat="42.5213017" lon="14.1519383"><ele>-1.0</ele><time>2026-05-02T06:00:57.287Z</time></trkpt><trkpt lat="42.5212633" lon="14.15183"><ele>-0.4</ele><time>2026-05-02T06:00:58.286Z</time></trkpt><trkpt lat="42.521225" lon="14.1517183"><ele>0.19999999999999996</ele><time>2026-05-02T06:00:59.286Z</time></trkpt><trkpt lat="42.5211833" lon="14.1515917"><ele>0.8000000000000002</ele><time>2026-05-02T06:01:00.286Z</time></trkpt><trkpt lat="42.52113" lon="14.151455"><ele>1.4000000000000001</ele><time>2026-05-02T06:01:01.286Z</time></trkpt><trkpt lat="42.5210833" lon="14.15132"><ele>2.0</ele><time>2026-05-02T06:01:02.286Z</time></trkpt><trkpt lat="42.5210433" lon="14.1512033"><ele>2.0</ele><time>2026-05-02T06:01:03.286Z</time></trkpt><trkpt lat="42.5210017" lon="14.1510933"><ele>2.0</ele><time>2026-05-02T06:01:04.286Z</time></trkpt><trkpt lat="42.5209683" lon="14.150985"><ele>2.0</ele><time>2026-05-02T06:01:05.286Z</time></trkpt><trkpt lat="42.520935" lon="14.1508733"><ele>2.0</ele><time>2026-05-02T06:01:06.286Z</time></trkpt><trkpt lat="42.5208983" lon="14.15075"><ele>2.0</ele><time>2026-05-02T06:01:07.286Z</time></trkpt><trkpt lat="42.520845" lon="14.150615"><ele>2.2</ele><time>2026-05-02T06:01:08.287Z</time></trkpt><trkpt lat="42.5207983" lon="14.1504817"><ele>2.4000000000000004</ele><time>2026-05-02T06:01:09.286Z</time></trkpt><trkpt lat="42.5207483" lon="14.150345"><ele>2.5999999999999996</ele><time>2026-05-02T06:01:10.286Z</time></trkpt><trkpt lat="42.5206983" lon="14.150215"><ele>2.8</ele><time>2026-05-02T06:01:11.286Z</time></trkpt><trkpt lat="42.52066" lon="14.1500867"><ele>3.0</ele><time>2026-05-02T06:01:12.286Z</time></trkpt><trkpt lat="42.5206133" lon="14.149965"><ele>2.8</ele><time>2026-05-02T06:01:13.286Z</time></trkpt><trkpt lat="42.5205633" lon="14.149845"><ele>2.5999999999999996</ele><time>2026-05-02T06:01:14.286Z</time></trkpt><trkpt lat="42.5205183" lon="14.1497217"><ele>2.4000000000000004</ele><time>2026-05-02T06:01:15.287Z</time></trkpt><trkpt lat="42.52048" lon="14.1495883"><ele>2.2</ele><time>2026-05-02T06:01:16.286Z</time></trkpt><trkpt lat="42.5204383" lon="14.1494533"><ele>2.0</ele><time>2026-05-02T06:01:17.286Z</time></trkpt><trkpt lat="42.5204" lon="14.1493183"><ele>2.0</ele><time>2026-05-02T06:01:18.286Z</time></trkpt><trkpt lat="42.5203483" lon="14.1491917"><ele>2.0</ele><time>2026-05-02T06:01:19.286Z</time></trkpt><trkpt lat="42.5203017" lon="14.1490583"><ele>2.0</ele><time>2026-05-02T06:01:20.286Z</time></trkpt><trkpt lat="42.520255" lon="14.1489267"><ele>2.0</ele><time>2026-05-02T06:01:21.286Z</time></trkpt><trkpt lat="42.5202083" lon="14.1488033"><ele>2.0</ele><time>2026-05-02T06:01:22.286Z</time></trkpt><trkpt lat="42.520165" lon="14.1486883"><ele>2.0</ele><time>2026-05-02T06:01:23.286Z</time></trkpt><trkpt lat="42.5201167" lon="14.1485767"><ele>2.0</ele><time>2026-05-02T06:01:24.286Z</time></trkpt><trkpt lat="42.5200683" lon="14.1484567"><ele>2.0</ele><time>2026-05-02T06:01:25.286Z</time></trkpt><trkpt lat="42.5200283" lon="14.1483333"><ele>2.0</ele><time>2026-05-02T06:01:26.286Z</time></trkpt><trkpt lat="42.519975" lon="14.1482"><ele>2.0</ele><time>2026-05-02T06:01:27.286Z</time></trkpt><trkpt lat="42.5199117" lon="14.14807"><ele>1.6</ele><time>2026-05-02T06:01:28.286Z</time></trkpt><trkpt lat="42.5198467" lon="14.1479483"><ele>1.2000000000000002</ele><time>2026-05-02T06:01:29.286Z</time></trkpt><trkpt lat="42.5197817" lon="14.1478317"><ele>0.8</ele><time>2026-05-02T06:01:30.286Z</time></trkpt><trkpt lat="42.5197183" lon="14.1477183"><ele>0.4</ele><time>2026-05-02T06:01:31.286Z</time></trkpt><trkpt lat="42.519665" lon="14.1476233"><ele>0.0</ele><time>2026-05-02T06:01:32.286Z</time></trkpt><trkpt lat="42.5196133" lon="14.1475317"><ele>0.5</ele><time>2026-05-02T06:01:33.286Z</time></trkpt><trkpt lat="42.51956" lon="14.147435"><ele>1.0</ele><time>2026-05-02T06:01:34.286Z</time></trkpt><trkpt lat="42.5195117" lon="14.1473317"><ele>1.5</ele><time>2026-05-02T06:01:35.286Z</time></trkpt><trkpt lat="42.5194833" lon="14.14722"><ele>2.0</ele><time>2026-05-02T06:01:36.286Z</time></trkpt><trkpt lat="42.5194633" lon="14.1471117"><ele>2.5</ele><time>2026-05-02T06:01:37.286Z</time></trkpt><trkpt lat="42.519455" lon="14.1470067"><ele>3.0</ele><time>2026-05-02T06:01:38.286Z</time></trkpt><trkpt lat="42.5194383" lon="14.14689"><ele>3.0</ele><time>2026-05-02T06:01:39.286Z</time></trkpt><trkpt lat="42.5194417" lon="14.14676"><ele>3.0</ele><time>2026-05-02T06:01:40.286Z</time></trkpt><trkpt lat="42.5194633" lon="14.1466383"><ele>3.0</ele><time>2026-05-02T06:01:41.286Z</time></trkpt><trkpt lat="42.519485" lon="14.1465483"><ele>3.0</ele><time>2026-05-02T06:01:42.286Z</time></trkpt><trkpt lat="42.519525" lon="14.1463883"><ele>3.0</ele><time>2026-05-02T06:01:44.286Z</time></trkpt><trkpt lat="42.5195867" lon="14.146255"><ele>3.0</ele><time>2026-05-02T06:01:46.286Z</time></trkpt><trkpt lat="42.5196433" lon="14.1461633"><ele>3.0</ele><time>2026-05-02T06:01:48.286Z</time></trkpt><trkpt lat="42.5197083" lon="14.14606"><ele>3.0</ele><time>2026-05-02T06:01:50.286Z</time></trkpt><trkpt lat="42.51979" lon="14.1459383"><ele>3.0</ele><time>2026-05-02T06:01:52.286Z</time></trkpt><trkpt lat="42.51984" lon="14.1458783"><ele>3.0</ele><time>2026-05-02T06:01:53.286Z</time></trkpt><trkpt lat="42.519915" lon="14.1457917"><ele>3.0</ele><time>2026-05-02T06:01:55.286Z</time></trkpt><trkpt lat="42.5199583" lon="14.1457067"><ele>3.0</ele><time>2026-05-02T06:01:58.286Z</time></trkpt><trkpt lat="42.5199117" lon="14.1456333"><ele>3.0</ele><time>2026-05-02T06:02:01.286Z</time></trkpt><trkpt lat="42.5198617" lon="14.1458033"><ele>3.0</ele><time>2026-05-02T06:04:54.286Z</time></trkpt><trkpt lat="42.5198017" lon="14.14585"><ele>3.0</ele><time>2026-05-02T06:04:56.285Z</time></trkpt><trkpt lat="42.51972" lon="14.14586"><ele>3.0</ele><time>2026-05-02T06:04:58.285Z</time></trkpt><trkpt lat="42.519595" lon="14.1458517"><ele>3.0</ele><time>2026-05-02T06:05:00.285Z</time></trkpt><trkpt lat="42.5195083" lon="14.1458283"><ele>3.0</ele><time>2026-05-02T06:05:01.285Z</time></trkpt><trkpt lat="42.519425" lon="14.1457933"><ele>3.0</ele><time>2026-05-02T06:05:02.285Z</time></trkpt><trkpt lat="42.51934" lon="14.1457333"><ele>3.0</ele><time>2026-05-02T06:05:03.286Z</time></trkpt><trkpt lat="42.5192667" lon="14.1456667"><ele>3.0</ele><time>2026-05-02T06:05:04.285Z</time></trkpt><trkpt lat="42.5191867" lon="14.145605"><ele>3.0</ele><time>2026-05-02T06:05:05.286Z</time></trkpt><trkpt lat="42.5191067" lon="14.1455433"><ele>3.0</ele><time>2026-05-02T06:05:06.285Z</time></trkpt><trkpt lat="42.5190267" lon="14.14548"><ele>3.0</ele><time>2026-05-02T06:05:07.285Z</time></trkpt><trkpt lat="42.5189367" lon="14.1454067"><ele>3.0</ele><time>2026-05-02T06:05:08.285Z</time></trkpt><trkpt lat="42.5188383" lon="14.1453267"><ele>3.0</ele><time>2026-05-02T06:05:09.285Z</time></trkpt><trkpt lat="42.5187367" lon="14.145255"><ele>3.0</ele><time>2026-05-02T06:05:10.285Z</time></trkpt><trkpt lat="42.5186333" lon="14.1451867"><ele>3.0</ele><time>2026-05-02T06:05:11.285Z</time></trkpt><trkpt lat="42.518535" lon="14.145115"><ele>3.0</ele><time>2026-05-02T06:05:12.285Z</time></trkpt><trkpt lat="42.518435" lon="14.1450467"><ele>3.0</ele><time>2026-05-02T06:05:13.285Z</time></trkpt><trkpt lat="42.5183367" lon="14.1449867"><ele>3.0</ele><time>2026-05-02T06:05:14.285Z</time></trkpt><trkpt lat="42.5182433" lon="14.14492"><ele>3.0</ele><time>2026-05-02T06:05:15.285Z</time></trkpt><trkpt lat="42.51815" lon="14.1448517"><ele>3.0</ele><time>2026-05-02T06:05:16.285Z</time></trkpt><trkpt lat="42.5180567" lon="14.1447833"><ele>3.0</ele><time>2026-05-02T06:05:17.286Z</time></trkpt><trkpt lat="42.517965" lon="14.1447183"><ele>3.0</ele><time>2026-05-02T06:05:18.286Z</time></trkpt><trkpt lat="42.5178667" lon="14.1446483"><ele>3.0</ele><time>2026-05-02T06:05:19.285Z</time></trkpt><trkpt lat="42.517775" lon="14.1445883"><ele>3.0</ele><time>2026-05-02T06:05:20.285Z</time></trkpt><trkpt lat="42.5176783" lon="14.144525"><ele>3.0</ele><time>2026-05-02T06:05:21.285Z</time></trkpt><trkpt lat="42.5175833" lon="14.1444533"><ele>3.0</ele><time>2026-05-02T06:05:22.285Z</time></trkpt><trkpt lat="42.51748" lon="14.1443717"><ele>3.0</ele><time>2026-05-02T06:05:23.286Z</time></trkpt><trkpt lat="42.517375" lon="14.1442933"><ele>3.0</ele><time>2026-05-02T06:05:24.285Z</time></trkpt><trkpt lat="42.5172767" lon="14.1442183"><ele>3.0</ele><time>2026-05-02T06:05:25.285Z</time></trkpt><trkpt lat="42.517185" lon="14.1441483"><ele>3.0</ele><time>2026-05-02T06:05:26.285Z</time></trkpt><trkpt lat="42.5170867" lon="14.1440833"><ele>3.0</ele><time>2026-05-02T06:05:27.285Z</time></trkpt><trkpt lat="42.5169883" lon="14.1440133"><ele>3.0</ele><time>2026-05-02T06:05:28.286Z</time></trkpt><trkpt lat="42.5168833" lon="14.1439417"><ele>3.75</ele><time>2026-05-02T06:05:29.285Z</time></trkpt><trkpt lat="42.5167783" lon="14.1438717"><ele>4.5</ele><time>2026-05-02T06:05:30.285Z</time></trkpt><trkpt lat="42.5166733" lon="14.1437983"><ele>5.25</ele><time>2026-05-02T06:05:31.285Z</time></trkpt><trkpt lat="42.516565" lon="14.14372"><ele>6.0</ele><time>2026-05-02T06:05:32.285Z</time></trkpt><trkpt lat="42.516465" lon="14.1436433"><ele>6.0</ele><time>2026-05-02T06:05:33.285Z</time></trkpt><trkpt lat="42.5163583" lon="14.1435717"><ele>6.0</ele><time>2026-05-02T06:05:34.285Z</time></trkpt><trkpt lat="42.516255" lon="14.1434917"><ele>6.0</ele><time>2026-05-02T06:05:35.285Z</time></trkpt><trkpt lat="42.516155" lon="14.1434183"><ele>6.0</ele><time>2026-05-02T06:05:36.286Z</time></trkpt><trkpt lat="42.5160533" lon="14.1433533"><ele>5.6</ele><time>2026-05-02T06:05:37.285Z</time></trkpt><trkpt lat="42.5159583" lon="14.1432867"><ele>5.199999999999999</ele><time>2026-05-02T06:05:38.285Z</time></trkpt><trkpt lat="42.5158686" lon="14.1432183"><ele>4.800000000000001</ele><time>2026-05-02T06:05:39.285Z</time></trkpt><trkpt lat="42.5157738" lon="14.1431498"><ele>4.4</ele><time>2026-05-02T06:05:40.285Z</time></trkpt><trkpt lat="42.5156785" lon="14.1430874"><ele>4.0</ele><time>2026-05-02T06:05:41.285Z</time></trkpt><trkpt lat="42.515579" lon="14.1430179"><ele>3.75</ele><time>2026-05-02T06:05:42.285Z</time></trkpt><trkpt lat="42.5154719" lon="14.1429486"><ele>3.5</ele><time>2026-05-02T06:05:43.285Z</time></trkpt><trkpt lat="42.5153667" lon="14.1428795"><ele>3.25</ele><time>2026-05-02T06:05:44.285Z</time></trkpt><trkpt lat="42.515266" lon="14.1428108"><ele>3.0</ele><time>2026-05-02T06:05:45.285Z</time></trkpt><trkpt lat="42.5151629" lon="14.1427394"><ele>2.8</ele><time>2026-05-02T06:05:46.285Z</time></trkpt><trkpt lat="42.5150627" lon="14.1426611"><ele>2.5999999999999996</ele><time>2026-05-02T06:05:47.285Z</time></trkpt><trkpt lat="42.514965" lon="14.1425856"><ele>2.4000000000000004</ele><time>2026-05-02T06:05:48.285Z</time></trkpt><trkpt lat="42.5148772" lon="14.1425112"><ele>2.2</ele><time>2026-05-02T06:05:49.285Z</time></trkpt><trkpt lat="42.5147962" lon="14.1424441"><ele>2.0</ele><time>2026-05-02T06:05:50.285Z</time></trkpt><trkpt lat="42.514717" lon="14.1423846"><ele>1.8</ele><time>2026-05-02T06:05:51.285Z</time></trkpt><trkpt lat="42.5146484" lon="14.1423338"><ele>1.6</ele><time>2026-05-02T06:05:52.285Z</time></trkpt><trkpt lat="42.5145652" lon="14.1422738"><ele>1.4000000000000001</ele><time>2026-05-02T06:05:54.286Z</time></trkpt><trkpt lat="42.5144987" lon="14.1422204"><ele>1.2000000000000002</ele><time>2026-05-02T06:05:56.285Z</time></trkpt><trkpt lat="42.5143837" lon="14.1421345"><ele>1.0</ele><time>2026-05-02T06:05:58.285Z</time></trkpt><trkpt lat="42.5143123" lon="14.1420807"><ele>1.4</ele><time>2026-05-02T06:05:59.285Z</time></trkpt><trkpt lat="42.5142293" lon="14.1420176"><ele>1.8</ele><time>2026-05-02T06:06:00.285Z</time></trkpt><trkpt lat="42.5141387" lon="14.141951"><ele>2.1999999999999997</ele><time>2026-05-02T06:06:01.285Z</time></trkpt><trkpt lat="42.5140449" lon="14.1418815"><ele>2.6</ele><time>2026-05-02T06:06:02.285Z</time></trkpt><trkpt lat="42.5139497" lon="14.1418115"><ele>3.0</ele><time>2026-05-02T06:06:03.285Z</time></trkpt><trkpt lat="42.5138551" lon="14.1417395"><ele>3.0</ele><time>2026-05-02T06:06:04.285Z</time></trkpt><trkpt lat="42.513765" lon="14.1416659"><ele>3.0</ele><time>2026-05-02T06:06:05.285Z</time></trkpt><trkpt lat="42.513682" lon="14.1416021"><ele>3.0</ele><time>2026-05-02T06:06:06.285Z</time></trkpt><trkpt lat="42.513596" lon="14.1415423"><ele>3.0</ele><time>2026-05-02T06:06:07.285Z</time></trkpt><trkpt lat="42.5135086" lon="14.1414814"><ele>3.0</ele><time>2026-05-02T06:06:08.286Z</time></trkpt><trkpt lat="42.5134208" lon="14.1414196"><ele>3.5999999999999996</ele><time>2026-05-02T06:06:09.285Z</time></trkpt><trkpt lat="42.5133361" lon="14.1413607"><ele>4.199999999999999</ele><time>2026-05-02T06:06:10.285Z</time></trkpt><trkpt lat="42.5132547" lon="14.1413057"><ele>4.8</ele><time>2026-05-02T06:06:11.285Z</time></trkpt><trkpt lat="42.5131762" lon="14.1412456"><ele>5.3999999999999995</ele><time>2026-05-02T06:06:12.285Z</time></trkpt><trkpt lat="42.513099" lon="14.1411793"><ele>6.0</ele><time>2026-05-02T06:06:13.285Z</time></trkpt><trkpt lat="42.5130266" lon="14.1410983"><ele>6.0</ele><time>2026-05-02T06:06:14.285Z</time></trkpt><trkpt lat="42.5129652" lon="14.1410028"><ele>6.0</ele><time>2026-05-02T06:06:15.285Z</time></trkpt><trkpt lat="42.5129165" lon="14.1408933"><ele>6.0</ele><time>2026-05-02T06:06:16.285Z</time></trkpt><trkpt lat="42.5128791" lon="14.1407692"><ele>6.0</ele><time>2026-05-02T06:06:17.285Z</time></trkpt><trkpt lat="42.512854" lon="14.1406357"><ele>6.0</ele><time>2026-05-02T06:06:18.285Z</time></trkpt><trkpt lat="42.5128432" lon="14.1404939"><ele>6.0</ele><time>2026-05-02T06:06:19.285Z</time></trkpt><trkpt lat="42.5128484" lon="14.1403478"><ele>6.0</ele><time>2026-05-02T06:06:20.285Z</time></trkpt><trkpt lat="42.5128713" lon="14.1401993"><ele>6.0</ele><time>2026-05-02T06:06:21.285Z</time></trkpt><trkpt lat="42.5129118" lon="14.1400496"><ele>6.0</ele><time>2026-05-02T06:06:22.285Z</time></trkpt><trkpt lat="42.5129685" lon="14.1398905"><ele>6.25</ele><time>2026-05-02T06:06:23.285Z</time></trkpt><trkpt lat="42.5130361" lon="14.1397227"><ele>6.5</ele><time>2026-05-02T06:06:24.285Z</time></trkpt><trkpt lat="42.5131069" lon="14.139547"><ele>6.75</ele><time>2026-05-02T06:06:25.285Z</time></trkpt><trkpt lat="42.5131781" lon="14.1393691"><ele>7.0</ele><time>2026-05-02T06:06:26.285Z</time></trkpt><trkpt lat="42.513248" lon="14.1392004"><ele>6.5</ele><time>2026-05-02T06:06:27.286Z</time></trkpt><trkpt lat="42.5133126" lon="14.139042"><ele>6.0</ele><time>2026-05-02T06:06:28.285Z</time></trkpt><trkpt lat="42.5133717" lon="14.138895"><ele>5.5</ele><time>2026-05-02T06:06:29.285Z</time></trkpt><trkpt lat="42.5134317" lon="14.1387367"><ele>5.0</ele><time>2026-05-02T06:06:30.286Z</time></trkpt><trkpt lat="42.51349" lon="14.1385767"><ele>5.0</ele><time>2026-05-02T06:06:31.285Z</time></trkpt><trkpt lat="42.5135467" lon="14.138425"><ele>5.0</ele><time>2026-05-02T06:06:32.285Z</time></trkpt><trkpt lat="42.5135983" lon="14.1382817"><ele>5.0</ele><time>2026-05-02T06:06:33.286Z</time></trkpt><trkpt lat="42.513645" lon="14.13815"><ele>5.0</ele><time>2026-05-02T06:06:34.285Z</time></trkpt><trkpt lat="42.5136983" lon="14.1380333"><ele>5.166666666666667</ele><time>2026-05-02T06:06:35.285Z</time></trkpt><trkpt lat="42.5137417" lon="14.137925"><ele>5.333333333333334</ele><time>2026-05-02T06:06:36.285Z</time></trkpt><trkpt lat="42.5137817" lon="14.1378383"><ele>5.5</ele><time>2026-05-02T06:06:37.285Z</time></trkpt><trkpt lat="42.51385" lon="14.1377067"><ele>5.666666666666667</ele><time>2026-05-02T06:06:39.285Z</time></trkpt><trkpt lat="42.513885" lon="14.137635"><ele>5.833333333333333</ele><time>2026-05-02T06:06:40.285Z</time></trkpt><trkpt lat="42.51391" lon="14.1375517"><ele>6.0</ele><time>2026-05-02T06:06:41.285Z</time></trkpt><trkpt lat="42.5138783" lon="14.13741"><ele>5.6</ele><time>2026-05-02T06:06:43.285Z</time></trkpt><trkpt lat="42.5137633" lon="14.1372983"><ele>5.199999999999999</ele><time>2026-05-02T06:06:45.285Z</time></trkpt><trkpt lat="42.5136967" lon="14.1372233"><ele>4.800000000000001</ele><time>2026-05-02T06:06:46.285Z</time></trkpt><trkpt lat="42.51364" lon="14.1371167"><ele>4.4</ele><time>2026-05-02T06:06:47.285Z</time></trkpt><trkpt lat="42.51359" lon="14.1369917"><ele>4.0</ele><time>2026-05-02T06:06:48.285Z</time></trkpt><trkpt lat="42.51354" lon="14.1368483"><ele>4.0</ele><time>2026-05-02T06:06:49.286Z</time></trkpt><trkpt lat="42.5134983" lon="14.136695"><ele>4.0</ele><time>2026-05-02T06:06:50.285Z</time></trkpt><trkpt lat="42.513465" lon="14.1365433"><ele>4.0</ele><time>2026-05-02T06:06:51.285Z</time></trkpt><trkpt lat="42.5134317" lon="14.1363867"><ele>4.0</ele><time>2026-05-02T06:06:52.286Z</time></trkpt><trkpt lat="42.5133967" lon="14.1362433"><ele>3.75</ele><time>2026-05-02T06:06:53.285Z</time></trkpt><trkpt lat="42.5133633" lon="14.136095"><ele>3.5</ele><time>2026-05-02T06:06:54.285Z</time></trkpt><trkpt lat="42.5133183" lon="14.1359383"><ele>3.25</ele><time>2026-05-02T06:06:55.285Z</time></trkpt><trkpt lat="42.5132617" lon="14.1357867"><ele>3.0</ele><time>2026-05-02T06:06:56.285Z</time></trkpt><trkpt lat="42.513195" lon="14.1356383"><ele>3.0</ele><time>2026-05-02T06:06:57.285Z</time></trkpt><trkpt lat="42.5131183" lon="14.1354983"><ele>3.0</ele><time>2026-05-02T06:06:58.285Z</time></trkpt><trkpt lat="42.51304" lon="14.13537"><ele>3.0</ele><time>2026-05-02T06:06:59.285Z</time></trkpt><trkpt lat="42.51295" lon="14.1352533"><ele>3.0</ele><time>2026-05-02T06:07:00.285Z</time></trkpt><trkpt lat="42.5128583" lon="14.1351483"><ele>3.0</ele><time>2026-05-02T06:07:01.285Z</time></trkpt><trkpt lat="42.5127617" lon="14.1350617"><ele>3.0</ele><time>2026-05-02T06:07:02.285Z</time></trkpt><trkpt lat="42.5126617" lon="14.1349833"><ele>3.0</ele><time>2026-05-02T06:07:03.286Z</time></trkpt><trkpt lat="42.5125517" lon="14.134905"><ele>3.0</ele><time>2026-05-02T06:07:04.285Z</time></trkpt><trkpt lat="42.51244" lon="14.1348233"><ele>2.5</ele><time>2026-05-02T06:07:05.285Z</time></trkpt><trkpt lat="42.5123267" lon="14.1347483"><ele>2.0</ele><time>2026-05-02T06:07:06.285Z</time></trkpt><trkpt lat="42.5122083" lon="14.1346733"><ele>1.5</ele><time>2026-05-02T06:07:07.286Z</time></trkpt><trkpt lat="42.5120917" lon="14.13459"><ele>1.0</ele><time>2026-05-02T06:07:08.285Z</time></trkpt><trkpt lat="42.5119733" lon="14.1344983"><ele>2.0</ele><time>2026-05-02T06:07:09.285Z</time></trkpt><trkpt lat="42.511865" lon="14.134405"><ele>3.0</ele><time>2026-05-02T06:07:10.285Z</time></trkpt><trkpt lat="42.51177" lon="14.1343"><ele>4.0</ele><time>2026-05-02T06:07:11.285Z</time></trkpt><trkpt lat="42.511685" lon="14.1341833"><ele>5.0</ele><time>2026-05-02T06:07:12.285Z</time></trkpt><trkpt lat="42.5116117" lon="14.1340467"><ele>5.0</ele><time>2026-05-02T06:07:13.285Z</time></trkpt><trkpt lat="42.5115367" lon="14.1338933"><ele>5.0</ele><time>2026-05-02T06:07:14.285Z</time></trkpt><trkpt lat="42.5114617" lon="14.1337317"><ele>5.0</ele><time>2026-05-02T06:07:15.285Z</time></trkpt><trkpt lat="42.51137" lon="14.13357"><ele>5.0</ele><time>2026-05-02T06:07:16.285Z</time></trkpt><trkpt lat="42.5112767" lon="14.1334133"><ele>5.333333333333334</ele><time>2026-05-02T06:07:17.285Z</time></trkpt><trkpt lat="42.51118" lon="14.13325"><ele>5.666666666666667</ele><time>2026-05-02T06:07:18.285Z</time></trkpt><trkpt lat="42.51108" lon="14.1330833"><ele>6.0</ele><time>2026-05-02T06:07:19.285Z</time></trkpt><trkpt lat="42.5109817" lon="14.1329183"><ele>6.0</ele><time>2026-05-02T06:07:20.285Z</time></trkpt><trkpt lat="42.510885" lon="14.13275"><ele>6.0</ele><time>2026-05-02T06:07:21.285Z</time></trkpt><trkpt lat="42.5107883" lon="14.1325683"><ele>6.0</ele><time>2026-05-02T06:07:22.285Z</time></trkpt><trkpt lat="42.5106917" lon="14.13238"><ele>6.0</ele><time>2026-05-02T06:07:23.285Z</time></trkpt><trkpt lat="42.510595" lon="14.1321967"><ele>6.0</ele><time>2026-05-02T06:07:24.285Z</time></trkpt><trkpt lat="42.5105017" lon="14.1320133"><ele>6.0</ele><time>2026-05-02T06:07:25.285Z</time></trkpt><trkpt lat="42.5104033" lon="14.131835"><ele>6.0</ele><time>2026-05-02T06:07:26.285Z</time></trkpt><trkpt lat="42.5103017" lon="14.1316583"><ele>6.0</ele><time>2026-05-02T06:07:27.285Z</time></trkpt><trkpt lat="42.510205" lon="14.1314767"><ele>6.0</ele><time>2026-05-02T06:07:28.285Z</time></trkpt><trkpt lat="42.5101083" lon="14.1312933"><ele>5.666666666666667</ele><time>2026-05-02T06:07:29.285Z</time></trkpt><trkpt lat="42.51" lon="14.131115"><ele>5.333333333333334</ele><time>2026-05-02T06:07:30.285Z</time></trkpt><trkpt lat="42.5098917" lon="14.13095"><ele>5.0</ele><time>2026-05-02T06:07:31.285Z</time></trkpt><trkpt lat="42.5097933" lon="14.1308017"><ele>5.5</ele><time>2026-05-02T06:07:32.285Z</time></trkpt><trkpt lat="42.5096983" lon="14.1306617"><ele>6.0</ele><time>2026-05-02T06:07:33.285Z</time></trkpt><trkpt lat="42.509605" lon="14.1305267"><ele>6.5</ele><time>2026-05-02T06:07:34.286Z</time></trkpt><trkpt lat="42.509515" lon="14.1304017"><ele>7.0</ele><time>2026-05-02T06:07:35.286Z</time></trkpt><trkpt lat="42.50944" lon="14.1302817"><ele>7.0</ele><time>2026-05-02T06:07:36.285Z</time></trkpt><trkpt lat="42.5093633" lon="14.1301767"><ele>6.999999999999999</ele><time>2026-05-02T06:07:37.285Z</time></trkpt><trkpt lat="42.5092967" lon="14.13007"><ele>6.999999999999999</ele><time>2026-05-02T06:07:38.285Z</time></trkpt><trkpt lat="42.5092317" lon="14.1299783"><ele>7.0</ele><time>2026-05-02T06:07:39.285Z</time></trkpt><trkpt lat="42.5091733" lon="14.1298917"><ele>7.0</ele><time>2026-05-02T06:07:40.285Z</time></trkpt><trkpt lat="42.5091233" lon="14.1298167"><ele>6.714285714285714</ele><time>2026-05-02T06:07:41.285Z</time></trkpt><trkpt lat="42.509085" lon="14.12973"><ele>6.428571428571429</ele><time>2026-05-02T06:07:42.285Z</time></trkpt><trkpt lat="42.5090717" lon="14.12964"><ele>6.142857142857142</ele><time>2026-05-02T06:07:43.285Z</time></trkpt><trkpt lat="42.50906" lon="14.1295483"><ele>5.857142857142858</ele><time>2026-05-02T06:07:44.285Z</time></trkpt><trkpt lat="42.509035" lon="14.12946"><ele>5.571428571428571</ele><time>2026-05-02T06:07:45.285Z</time></trkpt><trkpt lat="42.5089933" lon="14.1293817"><ele>5.285714285714286</ele><time>2026-05-02T06:07:46.285Z</time></trkpt><trkpt lat="42.5089333" lon="14.1293267"><ele>5.0</ele><time>2026-05-02T06:07:47.285Z</time></trkpt><trkpt lat="42.50885" lon="14.12927"><ele>5.0</ele><time>2026-05-02T06:07:48.285Z</time></trkpt><trkpt lat="42.508755" lon="14.1291867"><ele>5.0</ele><time>2026-05-02T06:07:49.285Z</time></trkpt><trkpt lat="42.508665" lon="14.1290683"><ele>5.0</ele><time>2026-05-02T06:07:50.285Z</time></trkpt><trkpt lat="42.508585" lon="14.128925"><ele>5.0</ele><time>2026-05-02T06:07:51.286Z</time></trkpt><trkpt lat="42.5084983" lon="14.1287683"><ele>5.333333333333334</ele><time>2026-05-02T06:07:52.285Z</time></trkpt><trkpt lat="42.5084067" lon="14.1286"><ele>5.666666666666667</ele><time>2026-05-02T06:07:53.285Z</time></trkpt><trkpt lat="42.5083183" lon="14.1284333"><ele>6.0</ele><time>2026-05-02T06:07:54.285Z</time></trkpt><trkpt lat="42.5082233" lon="14.1282667"><ele>5.666666666666667</ele><time>2026-05-02T06:07:55.285Z</time></trkpt><trkpt lat="42.5081317" lon="14.1280967"><ele>5.333333333333334</ele><time>2026-05-02T06:07:56.285Z</time></trkpt><trkpt lat="42.508035" lon="14.1279233"><ele>5.0</ele><time>2026-05-02T06:07:57.285Z</time></trkpt><trkpt lat="42.5079417" lon="14.12775"><ele>5.666666666666667</ele><time>2026-05-02T06:07:58.285Z</time></trkpt><trkpt lat="42.5078383" lon="14.1275683"><ele>6.333333333333334</ele><time>2026-05-02T06:07:59.285Z</time></trkpt><trkpt lat="42.5077333" lon="14.127385"><ele>7.0</ele><time>2026-05-02T06:08:00.285Z</time></trkpt><trkpt lat="42.5076233" lon="14.127195"><ele>7.333333333333334</ele><time>2026-05-02T06:08:01.285Z</time></trkpt><trkpt lat="42.5075167" lon="14.1270017"><ele>7.666666666666666</ele><time>2026-05-02T06:08:02.286Z</time></trkpt><trkpt lat="42.5074017" lon="14.1268033"><ele>8.0</ele><time>2026-05-02T06:08:03.286Z</time></trkpt><trkpt lat="42.5072917" lon="14.126615"><ele>7.666666666666666</ele><time>2026-05-02T06:08:04.285Z</time></trkpt><trkpt lat="42.5071917" lon="14.1264367"><ele>7.333333333333334</ele><time>2026-05-02T06:08:05.285Z</time></trkpt><trkpt lat="42.5070833" lon="14.1262533"><ele>7.0</ele><time>2026-05-02T06:08:06.285Z</time></trkpt><trkpt lat="42.5069683" lon="14.1260717"><ele>7.0</ele><time>2026-05-02T06:08:07.285Z</time></trkpt><trkpt lat="42.50685" lon="14.12588"><ele>7.0</ele><time>2026-05-02T06:08:08.285Z</time></trkpt><trkpt lat="42.5067233" lon="14.1256833"><ele>7.0</ele><time>2026-05-02T06:08:09.285Z</time></trkpt><trkpt lat="42.5065883" lon="14.1254917"><ele>7.333333333333334</ele><time>2026-05-02T06:08:10.285Z</time></trkpt><trkpt lat="42.50645" lon="14.1252967"><ele>7.666666666666666</ele><time>2026-05-02T06:08:11.285Z</time></trkpt><trkpt lat="42.5063117" lon="14.1251017"><ele>8.0</ele><time>2026-05-02T06:08:12.285Z</time></trkpt><trkpt lat="42.5061683" lon="14.12491"><ele>8.333333333333332</ele><time>2026-05-02T06:08:13.286Z</time></trkpt><trkpt lat="42.5060233" lon="14.1247267"><ele>8.666666666666666</ele><time>2026-05-02T06:08:14.286Z</time></trkpt><trkpt lat="42.505875" lon="14.12455"><ele>9.0</ele><time>2026-05-02T06:08:15.285Z</time></trkpt><trkpt lat="42.50572" lon="14.12438"><ele>9.0</ele><time>2026-05-02T06:08:16.285Z</time></trkpt><trkpt lat="42.50557" lon="14.1242267"><ele>9.0</ele><time>2026-05-02T06:08:17.285Z</time></trkpt><trkpt lat="42.505425" lon="14.12408"><ele>9.0</ele><time>2026-05-02T06:08:18.285Z</time></trkpt><trkpt lat="42.5052783" lon="14.1239417"><ele>8.333333333333334</ele><time>2026-05-02T06:08:19.285Z</time></trkpt><trkpt lat="42.5051317" lon="14.1237983"><ele>7.666666666666667</ele><time>2026-05-02T06:08:20.285Z</time></trkpt><trkpt lat="42.5049917" lon="14.1236633"><ele>7.0</ele><time>2026-05-02T06:08:21.285Z</time></trkpt><trkpt lat="42.5048567" lon="14.1235367"><ele>7.0</ele><time>2026-05-02T06:08:22.285Z</time></trkpt><trkpt lat="42.5047283" lon="14.1234133"><ele>7.0</ele><time>2026-05-02T06:08:23.285Z</time></trkpt><trkpt lat="42.5045983" lon="14.12329"><ele>7.0</ele><time>2026-05-02T06:08:24.285Z</time></trkpt><trkpt lat="42.5044667" lon="14.1231733"><ele>8.0</ele><time>2026-05-02T06:08:25.285Z</time></trkpt><trkpt lat="42.5043383" lon="14.1230567"><ele>9.0</ele><time>2026-05-02T06:08:26.285Z</time></trkpt><trkpt lat="42.5042083" lon="14.1229417"><ele>10.0</ele><time>2026-05-02T06:08:27.285Z</time></trkpt><trkpt lat="42.5040783" lon="14.1228167"><ele>10.0</ele><time>2026-05-02T06:08:28.285Z</time></trkpt><trkpt lat="42.5039483" lon="14.1226883"><ele>10.0</ele><time>2026-05-02T06:08:29.285Z</time></trkpt><trkpt lat="42.5038183" lon="14.1225683"><ele>10.0</ele><time>2026-05-02T06:08:30.285Z</time></trkpt><trkpt lat="42.5036833" lon="14.1224483"><ele>9.75</ele><time>2026-05-02T06:08:31.285Z</time></trkpt><trkpt lat="42.503555" lon="14.12234"><ele>9.5</ele><time>2026-05-02T06:08:32.285Z</time></trkpt><trkpt lat="42.50343" lon="14.122225"><ele>9.25</ele><time>2026-05-02T06:08:33.285Z</time></trkpt><trkpt lat="42.5033133" lon="14.1221233"><ele>9.0</ele><time>2026-05-02T06:08:34.285Z</time></trkpt><trkpt lat="42.5032117" lon="14.12202"><ele>9.0</ele><time>2026-05-02T06:08:35.285Z</time></trkpt><trkpt lat="42.5031183" lon="14.12193"><ele>9.0</ele><time>2026-05-02T06:08:36.285Z</time></trkpt><trkpt lat="42.5030333" lon="14.1218583"><ele>9.0</ele><time>2026-05-02T06:08:37.285Z</time></trkpt><trkpt lat="42.5029567" lon="14.1217867"><ele>9.0</ele><time>2026-05-02T06:08:38.285Z</time></trkpt><trkpt lat="42.5028967" lon="14.121715"><ele>9.0</ele><time>2026-05-02T06:08:39.285Z</time></trkpt><trkpt lat="42.5028517" lon="14.1216233"><ele>8.833333333333334</ele><time>2026-05-02T06:08:40.285Z</time></trkpt><trkpt lat="42.5028133" lon="14.1215183"><ele>8.666666666666666</ele><time>2026-05-02T06:08:41.285Z</time></trkpt><trkpt lat="42.50277" lon="14.1214233"><ele>8.5</ele><time>2026-05-02T06:08:42.285Z</time></trkpt><trkpt lat="42.5027083" lon="14.1213517"><ele>8.333333333333332</ele><time>2026-05-02T06:08:43.285Z</time></trkpt><trkpt lat="42.5026417" lon="14.1213083"><ele>8.166666666666666</ele><time>2026-05-02T06:08:44.285Z</time></trkpt><trkpt lat="42.5025633" lon="14.1212917"><ele>8.0</ele><time>2026-05-02T06:08:45.286Z</time></trkpt><trkpt lat="42.502475" lon="14.1212933"><ele>8.0</ele><time>2026-05-02T06:08:46.285Z</time></trkpt><trkpt lat="42.5023733" lon="14.1212933"><ele>8.0</ele><time>2026-05-02T06:08:47.285Z</time></trkpt><trkpt lat="42.5022633" lon="14.121255"><ele>8.0</ele><time>2026-05-02T06:08:48.285Z</time></trkpt><trkpt lat="42.5021483" lon="14.121195"><ele>8.0</ele><time>2026-05-02T06:08:49.285Z</time></trkpt><trkpt lat="42.5020217" lon="14.121115"><ele>8.5</ele><time>2026-05-02T06:08:50.285Z</time></trkpt><trkpt lat="42.5019" lon="14.1210433"><ele>9.0</ele><time>2026-05-02T06:08:51.285Z</time></trkpt><trkpt lat="42.50178" lon="14.1209867"><ele>9.5</ele><time>2026-05-02T06:08:52.286Z</time></trkpt><trkpt lat="42.5016533" lon="14.1209233"><ele>10.0</ele><time>2026-05-02T06:08:53.286Z</time></trkpt><trkpt lat="42.501525" lon="14.1208633"><ele>10.0</ele><time>2026-05-02T06:08:54.285Z</time></trkpt><trkpt lat="42.5013967" lon="14.120805"><ele>10.0</ele><time>2026-05-02T06:08:55.285Z</time></trkpt><trkpt lat="42.5012667" lon="14.1207617"><ele>10.0</ele><time>2026-05-02T06:08:56.285Z</time></trkpt><trkpt lat="42.5011417" lon="14.120725"><ele>10.0</ele><time>2026-05-02T06:08:57.285Z</time></trkpt><trkpt lat="42.5010167" lon="14.1206783"><ele>10.25</ele><time>2026-05-02T06:08:58.285Z</time></trkpt><trkpt lat="42.5008883" lon="14.1206167"><ele>10.5</ele><time>2026-05-02T06:08:59.285Z</time></trkpt><trkpt lat="42.50076" lon="14.120545"><ele>10.75</ele><time>2026-05-02T06:09:00.285Z</time></trkpt><trkpt lat="42.50064" lon="14.1204617"><ele>11.0</ele><time>2026-05-02T06:09:01.285Z</time></trkpt><trkpt lat="42.5005183" lon="14.1203817"><ele>11.75</ele><time>2026-05-02T06:09:02.285Z</time></trkpt><trkpt lat="42.5003883" lon="14.1203067"><ele>12.5</ele><time>2026-05-02T06:09:03.285Z</time></trkpt><trkpt lat="42.5002683" lon="14.1202167"><ele>13.25</ele><time>2026-05-02T06:09:04.286Z</time></trkpt><trkpt lat="42.5001433" lon="14.1201283"><ele>14.0</ele><time>2026-05-02T06:09:05.285Z</time></trkpt><trkpt lat="42.50004" lon="14.12004"><ele>14.0</ele><time>2026-05-02T06:09:06.285Z</time></trkpt><trkpt lat="42.499935" lon="14.1199733"><ele>13.999999999999998</ele><time>2026-05-02T06:09:07.285Z</time></trkpt><trkpt lat="42.49985" lon="14.1199133"><ele>13.999999999999998</ele><time>2026-05-02T06:09:08.285Z</time></trkpt><trkpt lat="42.4997583" lon="14.1198783"><ele>14.0</ele><time>2026-05-02T06:09:09.285Z</time></trkpt><trkpt lat="42.49968" lon="14.1198717"><ele>14.0</ele><time>2026-05-02T06:09:10.285Z</time></trkpt><trkpt lat="42.4996167" lon="14.1199083"><ele>14.2</ele><time>2026-05-02T06:09:11.286Z</time></trkpt><trkpt lat="42.4995583" lon="14.1199683"><ele>14.399999999999999</ele><time>2026-05-02T06:09:12.285Z</time></trkpt><trkpt lat="42.4994933" lon="14.1200583"><ele>14.6</ele><time>2026-05-02T06:09:13.285Z</time></trkpt><trkpt lat="42.49943" lon="14.1201683"><ele>14.8</ele><time>2026-05-02T06:09:14.285Z</time></trkpt><trkpt lat="42.4993567" lon="14.1202933"><ele>15.0</ele><time>2026-05-02T06:09:15.285Z</time></trkpt><trkpt lat="42.4992583" lon="14.1204133"><ele>15.0</ele><time>2026-05-02T06:09:16.286Z</time></trkpt><trkpt lat="42.4991583" lon="14.1205367"><ele>15.0</ele><time>2026-05-02T06:09:17.285Z</time></trkpt><trkpt lat="42.4990567" lon="14.12067"><ele>15.0</ele><time>2026-05-02T06:09:18.286Z</time></trkpt><trkpt lat="42.498955" lon="14.12079"><ele>15.0</ele><time>2026-05-02T06:09:19.285Z</time></trkpt><trkpt lat="42.4988533" lon="14.1209167"><ele>15.0</ele><time>2026-05-02T06:09:20.285Z</time></trkpt><trkpt lat="42.4987617" lon="14.1210467"><ele>15.0</ele><time>2026-05-02T06:09:21.285Z</time></trkpt><trkpt lat="42.4986633" lon="14.1211567"><ele>15.0</ele><time>2026-05-02T06:09:22.285Z</time></trkpt><trkpt lat="42.4985783" lon="14.1212633"><ele>15.0</ele><time>2026-05-02T06:09:23.285Z</time></trkpt><trkpt lat="42.4984983" lon="14.1213717"><ele>15.0</ele><time>2026-05-02T06:09:24.285Z</time></trkpt><trkpt lat="42.4983983" lon="14.1214733"><ele>15.0</ele><time>2026-05-02T06:09:25.285Z</time></trkpt><trkpt lat="42.4983267" lon="14.1215783"><ele>15.0</ele><time>2026-05-02T06:09:26.285Z</time></trkpt><trkpt lat="42.49821" lon="14.12164"><ele>15.0</ele><time>2026-05-02T06:09:27.285Z</time></trkpt><trkpt lat="42.4981083" lon="14.121715"><ele>15.0</ele><time>2026-05-02T06:09:28.285Z</time></trkpt><trkpt lat="42.498015" lon="14.121825"><ele>15.0</ele><time>2026-05-02T06:09:29.286Z</time></trkpt><trkpt lat="42.49793" lon="14.121965"><ele>15.0</ele><time>2026-05-02T06:09:30.285Z</time></trkpt><trkpt lat="42.4978333" lon="14.1221217"><ele>15.0</ele><time>2026-05-02T06:09:31.285Z</time></trkpt><trkpt lat="42.4977283" lon="14.1222867"><ele>14.666666666666668</ele><time>2026-05-02T06:09:32.285Z</time></trkpt><trkpt lat="42.49762" lon="14.1224467"><ele>14.333333333333334</ele><time>2026-05-02T06:09:33.285Z</time></trkpt><trkpt lat="42.49752" lon="14.122605"><ele>14.0</ele><time>2026-05-02T06:09:34.285Z</time></trkpt><trkpt lat="42.49742" lon="14.122765"><ele>14.0</ele><time>2026-05-02T06:09:35.285Z</time></trkpt><trkpt lat="42.4973217" lon="14.1229217"><ele>14.0</ele><time>2026-05-02T06:09:36.285Z</time></trkpt><trkpt lat="42.4972167" lon="14.1230683"><ele>14.0</ele><time>2026-05-02T06:09:37.285Z</time></trkpt><trkpt lat="42.4971183" lon="14.1232167"><ele>14.5</ele><time>2026-05-02T06:09:38.285Z</time></trkpt><trkpt lat="42.497015" lon="14.12336"><ele>15.0</ele><time>2026-05-02T06:09:39.286Z</time></trkpt><trkpt lat="42.4969367" lon="14.1234983"><ele>15.5</ele><time>2026-05-02T06:09:40.285Z</time></trkpt><trkpt lat="42.496845" lon="14.1236133"><ele>16.0</ele><time>2026-05-02T06:09:41.285Z</time></trkpt><trkpt lat="42.496755" lon="14.1237233"><ele>16.0</ele><time>2026-05-02T06:09:42.285Z</time></trkpt><trkpt lat="42.4966433" lon="14.1238167"><ele>16.0</ele><time>2026-05-02T06:09:43.285Z</time></trkpt><trkpt lat="42.4965367" lon="14.123915"><ele>16.0</ele><time>2026-05-02T06:09:44.285Z</time></trkpt><trkpt lat="42.496445" lon="14.1240067"><ele>16.0</ele><time>2026-05-02T06:09:45.286Z</time></trkpt><trkpt lat="42.49635" lon="14.124095"><ele>16.166666666666664</ele><time>2026-05-02T06:09:46.285Z</time></trkpt><trkpt lat="42.49628" lon="14.12418"><ele>16.333333333333332</ele><time>2026-05-02T06:09:47.285Z</time></trkpt><trkpt lat="42.496205" lon="14.1242567"><ele>16.5</ele><time>2026-05-02T06:09:48.285Z</time></trkpt><trkpt lat="42.49613" lon="14.124335"><ele>16.666666666666668</ele><time>2026-05-02T06:09:49.285Z</time></trkpt><trkpt lat="42.4960717" lon="14.1244017"><ele>16.833333333333336</ele><time>2026-05-02T06:09:50.285Z</time></trkpt><trkpt lat="42.4960067" lon="14.1244367"><ele>17.0</ele><time>2026-05-02T06:09:51.285Z</time></trkpt><trkpt lat="42.49593" lon="14.12447"><ele>16.6</ele><time>2026-05-02T06:09:52.285Z</time></trkpt><trkpt lat="42.4958583" lon="14.1245183"><ele>16.2</ele><time>2026-05-02T06:09:53.285Z</time></trkpt><trkpt lat="42.4957783" lon="14.1245717"><ele>15.8</ele><time>2026-05-02T06:09:54.285Z</time></trkpt><trkpt lat="42.4956817" lon="14.1245783"><ele>15.4</ele><time>2026-05-02T06:09:55.285Z</time></trkpt><trkpt lat="42.4955683" lon="14.1245767"><ele>15.0</ele><time>2026-05-02T06:09:56.285Z</time></trkpt><trkpt lat="42.4954467" lon="14.1245733"><ele>15.5</ele><time>2026-05-02T06:09:57.285Z</time></trkpt><trkpt lat="42.4953217" lon="14.1245667"><ele>16.0</ele><time>2026-05-02T06:09:58.285Z</time></trkpt><trkpt lat="42.495205" lon="14.1245683"><ele>16.5</ele><time>2026-05-02T06:09:59.285Z</time></trkpt><trkpt lat="42.49509" lon="14.124575"><ele>17.0</ele><time>2026-05-02T06:10:00.286Z</time></trkpt><trkpt lat="42.49498" lon="14.1245767"><ele>17.0</ele><time>2026-05-02T06:10:01.285Z</time></trkpt><trkpt lat="42.4948783" lon="14.1245867"><ele>17.0</ele><time>2026-05-02T06:10:02.286Z</time></trkpt><trkpt lat="42.494775" lon="14.124595"><ele>17.0</ele><time>2026-05-02T06:10:03.285Z</time></trkpt><trkpt lat="42.49468" lon="14.1245917"><ele>17.0</ele><time>2026-05-02T06:10:04.286Z</time></trkpt><trkpt lat="42.4945917" lon="14.12459"><ele>17.0</ele><time>2026-05-02T06:10:05.285Z</time></trkpt><trkpt lat="42.4944967" lon="14.12458"><ele>17.2</ele><time>2026-05-02T06:10:06.285Z</time></trkpt><trkpt lat="42.4944217" lon="14.1245983"><ele>17.4</ele><time>2026-05-02T06:10:07.285Z</time></trkpt><trkpt lat="42.49435" lon="14.12465"><ele>17.6</ele><time>2026-05-02T06:10:08.285Z</time></trkpt><trkpt lat="42.4942833" lon="14.1247317"><ele>17.8</ele><time>2026-05-02T06:10:09.285Z</time></trkpt><trkpt lat="42.494205" lon="14.1248367"><ele>18.0</ele><time>2026-05-02T06:10:10.285Z</time></trkpt><trkpt lat="42.49414" lon="14.1249567"><ele>18.0</ele><time>2026-05-02T06:10:11.285Z</time></trkpt><trkpt lat="42.494065" lon="14.125065"><ele>18.0</ele><time>2026-05-02T06:10:12.285Z</time></trkpt><trkpt lat="42.4940067" lon="14.12516"><ele>18.0</ele><time>2026-05-02T06:10:13.285Z</time></trkpt><trkpt lat="42.493965" lon="14.1252267"><ele>18.0</ele><time>2026-05-02T06:10:14.285Z</time></trkpt><trkpt lat="42.49393" lon="14.1253383"><ele>18.0</ele><time>2026-05-02T06:10:16.285Z</time></trkpt><trkpt lat="42.493855" lon="14.1253283"><ele>18.0</ele><time>2026-05-02T06:10:18.285Z</time></trkpt><trkpt lat="42.493795" lon="14.1252917"><ele>18.2</ele><time>2026-05-02T06:10:19.285Z</time></trkpt><trkpt lat="42.4937383" lon="14.1252417"><ele>18.4</ele><time>2026-05-02T06:10:20.285Z</time></trkpt><trkpt lat="42.4936683" lon="14.1251767"><ele>18.599999999999998</ele><time>2026-05-02T06:10:21.285Z</time></trkpt><trkpt lat="42.4935883" lon="14.1251067"><ele>18.8</ele><time>2026-05-02T06:10:22.285Z</time></trkpt><trkpt lat="42.4934967" lon="14.1250233"><ele>19.0</ele><time>2026-05-02T06:10:23.285Z</time></trkpt><trkpt lat="42.4934067" lon="14.124935"><ele>19.0</ele><time>2026-05-02T06:10:24.285Z</time></trkpt><trkpt lat="42.4933133" lon="14.1248617"><ele>19.0</ele><time>2026-05-02T06:10:25.285Z</time></trkpt><trkpt lat="42.49322" lon="14.1247933"><ele>19.0</ele><time>2026-05-02T06:10:26.285Z</time></trkpt><trkpt lat="42.49311" lon="14.12472"><ele>19.0</ele><time>2026-05-02T06:10:27.285Z</time></trkpt><trkpt lat="42.4930117" lon="14.1246417"><ele>19.0</ele><time>2026-05-02T06:10:28.285Z</time></trkpt><trkpt lat="42.49293" lon="14.1245683"><ele>19.0</ele><time>2026-05-02T06:10:29.285Z</time></trkpt><trkpt lat="42.4928567" lon="14.1245067"><ele>19.0</ele><time>2026-05-02T06:10:30.285Z</time></trkpt><trkpt lat="42.4927817" lon="14.1244467"><ele>19.0</ele><time>2026-05-02T06:10:31.285Z</time></trkpt><trkpt lat="42.4927083" lon="14.1243967"><ele>19.0</ele><time>2026-05-02T06:10:32.285Z</time></trkpt><trkpt lat="42.49264" lon="14.1243417"><ele>19.0</ele><time>2026-05-02T06:10:33.286Z</time></trkpt><trkpt lat="42.4925633" lon="14.12427"><ele>19.0</ele><time>2026-05-02T06:10:34.285Z</time></trkpt><trkpt lat="42.4924683" lon="14.1241983"><ele>19.0</ele><time>2026-05-02T06:10:35.285Z</time></trkpt><trkpt lat="42.49238" lon="14.1241167"><ele>19.0</ele><time>2026-05-02T06:10:36.285Z</time></trkpt><trkpt lat="42.4922817" lon="14.1240283"><ele>19.0</ele><time>2026-05-02T06:10:37.285Z</time></trkpt><trkpt lat="42.492175" lon="14.1239367"><ele>19.5</ele><time>2026-05-02T06:10:38.285Z</time></trkpt><trkpt lat="42.4920567" lon="14.123855"><ele>20.0</ele><time>2026-05-02T06:10:39.285Z</time></trkpt><trkpt lat="42.491955" lon="14.12377"><ele>20.5</ele><time>2026-05-02T06:10:40.285Z</time></trkpt><trkpt lat="42.4918467" lon="14.1236883"><ele>21.0</ele><time>2026-05-02T06:10:41.286Z</time></trkpt><trkpt lat="42.49174" lon="14.1236033"><ele>21.0</ele><time>2026-05-02T06:10:42.285Z</time></trkpt><trkpt lat="42.4916283" lon="14.123505"><ele>21.0</ele><time>2026-05-02T06:10:43.285Z</time></trkpt><trkpt lat="42.4915183" lon="14.12341"><ele>21.0</ele><time>2026-05-02T06:10:44.285Z</time></trkpt><trkpt lat="42.4914083" lon="14.123315"><ele>21.0</ele><time>2026-05-02T06:10:45.285Z</time></trkpt><trkpt lat="42.4912917" lon="14.1232183"><ele>21.5</ele><time>2026-05-02T06:10:46.285Z</time></trkpt><trkpt lat="42.4911783" lon="14.1231183"><ele>22.0</ele><time>2026-05-02T06:10:47.285Z</time></trkpt><trkpt lat="42.4910567" lon="14.123025"><ele>22.5</ele><time>2026-05-02T06:10:48.286Z</time></trkpt><trkpt lat="42.4909267" lon="14.1229317"><ele>23.0</ele><time>2026-05-02T06:10:49.286Z</time></trkpt><trkpt lat="42.4908017" lon="14.1228467"><ele>23.0</ele><time>2026-05-02T06:10:50.285Z</time></trkpt><trkpt lat="42.490685" lon="14.1227467"><ele>23.0</ele><time>2026-05-02T06:10:51.285Z</time></trkpt><trkpt lat="42.4905633" lon="14.1226467"><ele>23.0</ele><time>2026-05-02T06:10:52.285Z</time></trkpt><trkpt lat="42.4904533" lon="14.1225583"><ele>23.0</ele><time>2026-05-02T06:10:53.285Z</time></trkpt><trkpt lat="42.49035" lon="14.1224733"><ele>22.75</ele><time>2026-05-02T06:10:54.285Z</time></trkpt><trkpt lat="42.4902367" lon="14.1223833"><ele>22.5</ele><time>2026-05-02T06:10:55.285Z</time></trkpt><trkpt lat="42.4901167" lon="14.122285"><ele>22.25</ele><time>2026-05-02T06:10:56.285Z</time></trkpt><trkpt lat="42.4899833" lon="14.12218"><ele>22.0</ele><time>2026-05-02T06:10:57.286Z</time></trkpt><trkpt lat="42.4898433" lon="14.12207"><ele>22.0</ele><time>2026-05-02T06:10:58.285Z</time></trkpt><trkpt lat="42.4897033" lon="14.1219667"><ele>22.0</ele><time>2026-05-02T06:10:59.285Z</time></trkpt><trkpt lat="42.4895733" lon="14.121855"><ele>22.0</ele><time>2026-05-02T06:11:00.285Z</time></trkpt><trkpt lat="42.4894483" lon="14.1217567"><ele>22.25</ele><time>2026-05-02T06:11:01.285Z</time></trkpt><trkpt lat="42.4893317" lon="14.1216667"><ele>22.5</ele><time>2026-05-02T06:11:02.285Z</time></trkpt><trkpt lat="42.4892217" lon="14.1215683"><ele>22.75</ele><time>2026-05-02T06:11:03.285Z</time></trkpt><trkpt lat="42.4891033" lon="14.12148"><ele>23.0</ele><time>2026-05-02T06:11:04.285Z</time></trkpt><trkpt lat="42.488985" lon="14.1213833"><ele>23.0</ele><time>2026-05-02T06:11:05.285Z</time></trkpt><trkpt lat="42.4888717" lon="14.1212933"><ele>23.0</ele><time>2026-05-02T06:11:06.285Z</time></trkpt><trkpt lat="42.48876" lon="14.1212067"><ele>23.0</ele><time>2026-05-02T06:11:07.285Z</time></trkpt><trkpt lat="42.4886433" lon="14.121125"><ele>23.0</ele><time>2026-05-02T06:11:08.285Z</time></trkpt><trkpt lat="42.4885333" lon="14.1210333"><ele>23.25</ele><time>2026-05-02T06:11:09.285Z</time></trkpt><trkpt lat="42.4884283" lon="14.1209333"><ele>23.5</ele><time>2026-05-02T06:11:10.285Z</time></trkpt><trkpt lat="42.4883167" lon="14.1208467"><ele>23.75</ele><time>2026-05-02T06:11:11.286Z</time></trkpt><trkpt lat="42.4882" lon="14.1207533"><ele>24.0</ele><time>2026-05-02T06:11:12.285Z</time></trkpt><trkpt lat="42.4880767" lon="14.1206433"><ele>24.0</ele><time>2026-05-02T06:11:13.285Z</time></trkpt><trkpt lat="42.4879583" lon="14.1205417"><ele>24.0</ele><time>2026-05-02T06:11:14.286Z</time></trkpt><trkpt lat="42.4878167" lon="14.120435"><ele>24.0</ele><time>2026-05-02T06:11:15.285Z</time></trkpt><trkpt lat="42.4876883" lon="14.12033"><ele>24.5</ele><time>2026-05-02T06:11:16.286Z</time></trkpt><trkpt lat="42.48757" lon="14.12023"><ele>25.0</ele><time>2026-05-02T06:11:17.285Z</time></trkpt><trkpt lat="42.487465" lon="14.1201183"><ele>25.5</ele><time>2026-05-02T06:11:18.285Z</time></trkpt><trkpt lat="42.4873467" lon="14.120025"><ele>26.0</ele><time>2026-05-02T06:11:19.286Z</time></trkpt><trkpt lat="42.4872333" lon="14.11994"><ele>26.0</ele><time>2026-05-02T06:11:20.285Z</time></trkpt><trkpt lat="42.4871167" lon="14.1198517"><ele>26.0</ele><time>2026-05-02T06:11:21.285Z</time></trkpt><trkpt lat="42.4870033" lon="14.1197567"><ele>26.0</ele><time>2026-05-02T06:11:22.285Z</time></trkpt><trkpt lat="42.4868883" lon="14.1196733"><ele>26.0</ele><time>2026-05-02T06:11:23.285Z</time></trkpt><trkpt lat="42.48678" lon="14.11957"><ele>26.0</ele><time>2026-05-02T06:11:24.285Z</time></trkpt><trkpt lat="42.48667" lon="14.1194733"><ele>26.0</ele><time>2026-05-02T06:11:25.285Z</time></trkpt><trkpt lat="42.486555" lon="14.1193883"><ele>26.0</ele><time>2026-05-02T06:11:26.285Z</time></trkpt><trkpt lat="42.4864333" lon="14.1193033"><ele>26.0</ele><time>2026-05-02T06:11:27.286Z</time></trkpt><trkpt lat="42.4863167" lon="14.1192117"><ele>25.75</ele><time>2026-05-02T06:11:28.285Z</time></trkpt><trkpt lat="42.4862033" lon="14.1191233"><ele>25.5</ele><time>2026-05-02T06:11:29.285Z</time></trkpt><trkpt lat="42.4860933" lon="14.1190267"><ele>25.25</ele><time>2026-05-02T06:11:30.285Z</time></trkpt><trkpt lat="42.4859783" lon="14.1189317"><ele>25.0</ele><time>2026-05-02T06:11:31.286Z</time></trkpt><trkpt lat="42.4858617" lon="14.1188267"><ele>25.0</ele><time>2026-05-02T06:11:32.285Z</time></trkpt><trkpt lat="42.4857483" lon="14.1187283"><ele>25.0</ele><time>2026-05-02T06:11:33.285Z</time></trkpt><trkpt lat="42.4856333" lon="14.1186367"><ele>25.0</ele><time>2026-05-02T06:11:34.286Z</time></trkpt><trkpt lat="42.4855167" lon="14.1185517"><ele>25.0</ele><time>2026-05-02T06:11:35.285Z</time></trkpt><trkpt lat="42.4854017" lon="14.1184467"><ele>25.5</ele><time>2026-05-02T06:11:36.285Z</time></trkpt><trkpt lat="42.4852917" lon="14.1183567"><ele>26.0</ele><time>2026-05-02T06:11:37.285Z</time></trkpt><trkpt lat="42.4851883" lon="14.118285"><ele>26.5</ele><time>2026-05-02T06:11:38.285Z</time></trkpt><trkpt lat="42.4850983" lon="14.11821"><ele>27.0</ele><time>2026-05-02T06:11:39.285Z</time></trkpt><trkpt lat="42.4849983" lon="14.1181467"><ele>27.0</ele><time>2026-05-02T06:11:40.285Z</time></trkpt><trkpt lat="42.484905" lon="14.1180683"><ele>27.0</ele><time>2026-05-02T06:11:41.284Z</time></trkpt><trkpt lat="42.4848067" lon="14.1179983"><ele>27.0</ele><time>2026-05-02T06:11:42.285Z</time></trkpt><trkpt lat="42.4847067" lon="14.1179033"><ele>27.0</ele><time>2026-05-02T06:11:43.285Z</time></trkpt><trkpt lat="42.4846033" lon="14.1178217"><ele>27.25</ele><time>2026-05-02T06:11:44.285Z</time></trkpt><trkpt lat="42.484505" lon="14.1177267"><ele>27.5</ele><time>2026-05-02T06:11:45.286Z</time></trkpt><trkpt lat="42.4843867" lon="14.1176483"><ele>27.75</ele><time>2026-05-02T06:11:46.286Z</time></trkpt><trkpt lat="42.4842867" lon="14.1175667"><ele>28.0</ele><time>2026-05-02T06:11:47.285Z</time></trkpt><trkpt lat="42.4841767" lon="14.1174767"><ele>27.75</ele><time>2026-05-02T06:11:48.285Z</time></trkpt><trkpt lat="42.4840667" lon="14.1173717"><ele>27.5</ele><time>2026-05-02T06:11:49.285Z</time></trkpt><trkpt lat="42.483955" lon="14.1172917"><ele>27.25</ele><time>2026-05-02T06:11:50.285Z</time></trkpt><trkpt lat="42.483845" lon="14.117195"><ele>27.0</ele><time>2026-05-02T06:11:51.285Z</time></trkpt><trkpt lat="42.4837283" lon="14.117115"><ele>27.75</ele><time>2026-05-02T06:11:52.285Z</time></trkpt><trkpt lat="42.4836267" lon="14.11702"><ele>28.5</ele><time>2026-05-02T06:11:53.285Z</time></trkpt><trkpt lat="42.483515" lon="14.11694"><ele>29.25</ele><time>2026-05-02T06:11:54.285Z</time></trkpt><trkpt lat="42.483405" lon="14.1168517"><ele>30.0</ele><time>2026-05-02T06:11:55.286Z</time></trkpt><trkpt lat="42.4832917" lon="14.1167633"><ele>30.0</ele><time>2026-05-02T06:11:56.285Z</time></trkpt><trkpt lat="42.4831783" lon="14.11666"><ele>30.0</ele><time>2026-05-02T06:11:57.285Z</time></trkpt><trkpt lat="42.48305" lon="14.116575"><ele>30.0</ele><time>2026-05-02T06:11:58.285Z</time></trkpt><trkpt lat="42.4829417" lon="14.11648"><ele>30.0</ele><time>2026-05-02T06:11:59.285Z</time></trkpt><trkpt lat="42.4828367" lon="14.1163917"><ele>29.75</ele><time>2026-05-02T06:12:00.285Z</time></trkpt><trkpt lat="42.48273" lon="14.1162967"><ele>29.5</ele><time>2026-05-02T06:12:01.285Z</time></trkpt><trkpt lat="42.48262" lon="14.116205"><ele>29.25</ele><time>2026-05-02T06:12:02.285Z</time></trkpt><trkpt lat="42.4825033" lon="14.116125"><ele>29.0</ele><time>2026-05-02T06:12:03.285Z</time></trkpt><trkpt lat="42.482395" lon="14.1160317"><ele>29.0</ele><time>2026-05-02T06:12:04.285Z</time></trkpt><trkpt lat="42.4822833" lon="14.1159383"><ele>29.0</ele><time>2026-05-02T06:12:05.285Z</time></trkpt><trkpt lat="42.4821617" lon="14.11582"><ele>29.0</ele><time>2026-05-02T06:12:06.285Z</time></trkpt><trkpt lat="42.482045" lon="14.1157217"><ele>29.0</ele><time>2026-05-02T06:12:07.285Z</time></trkpt><trkpt lat="42.4819283" lon="14.1156333"><ele>30.0</ele><time>2026-05-02T06:12:08.285Z</time></trkpt><trkpt lat="42.48182" lon="14.1155467"><ele>31.0</ele><time>2026-05-02T06:12:09.285Z</time></trkpt><trkpt lat="42.4817117" lon="14.11545"><ele>32.0</ele><time>2026-05-02T06:12:10.285Z</time></trkpt><trkpt lat="42.481595" lon="14.1153567"><ele>33.0</ele><time>2026-05-02T06:12:11.285Z</time></trkpt><trkpt lat="42.4814817" lon="14.1152617"><ele>33.0</ele><time>2026-05-02T06:12:12.286Z</time></trkpt><trkpt lat="42.4813767" lon="14.1151767"><ele>33.0</ele><time>2026-05-02T06:12:13.285Z</time></trkpt><trkpt lat="42.4812717" lon="14.1150917"><ele>33.0</ele><time>2026-05-02T06:12:14.285Z</time></trkpt><trkpt lat="42.4811567" lon="14.1149983"><ele>33.0</ele><time>2026-05-02T06:12:15.285Z</time></trkpt><trkpt lat="42.4810433" lon="14.114905"><ele>32.25</ele><time>2026-05-02T06:12:16.285Z</time></trkpt><trkpt lat="42.4809283" lon="14.114805"><ele>31.5</ele><time>2026-05-02T06:12:17.285Z</time></trkpt><trkpt lat="42.4808083" lon="14.1147167"><ele>30.75</ele><time>2026-05-02T06:12:18.285Z</time></trkpt><trkpt lat="42.480695" lon="14.1146283"><ele>30.0</ele><time>2026-05-02T06:12:19.285Z</time></trkpt><trkpt lat="42.4805783" lon="14.1145433"><ele>30.0</ele><time>2026-05-02T06:12:20.285Z</time></trkpt><trkpt lat="42.480465" lon="14.1144433"><ele>30.0</ele><time>2026-05-02T06:12:21.286Z</time></trkpt><trkpt lat="42.4803533" lon="14.1143517"><ele>30.0</ele><time>2026-05-02T06:12:22.285Z</time></trkpt><trkpt lat="42.4802367" lon="14.1142567"><ele>30.0</ele><time>2026-05-02T06:12:23.285Z</time></trkpt><trkpt lat="42.4801233" lon="14.1141567"><ele>30.0</ele><time>2026-05-02T06:12:24.285Z</time></trkpt><trkpt lat="42.479995" lon="14.1140717"><ele>30.0</ele><time>2026-05-02T06:12:25.285Z</time></trkpt><trkpt lat="42.479885" lon="14.113975"><ele>30.0</ele><time>2026-05-02T06:12:26.285Z</time></trkpt><trkpt lat="42.47978" lon="14.1138917"><ele>30.0</ele><time>2026-05-02T06:12:27.286Z</time></trkpt><trkpt lat="42.4796817" lon="14.11381"><ele>30.5</ele><time>2026-05-02T06:12:28.285Z</time></trkpt><trkpt lat="42.4795767" lon="14.1137167"><ele>31.0</ele><time>2026-05-02T06:12:29.285Z</time></trkpt><trkpt lat="42.4794767" lon="14.11362"><ele>31.5</ele><time>2026-05-02T06:12:30.285Z</time></trkpt><trkpt lat="42.4793783" lon="14.1135367"><ele>32.0</ele><time>2026-05-02T06:12:31.285Z</time></trkpt><trkpt lat="42.4792767" lon="14.11346"><ele>32.0</ele><time>2026-05-02T06:12:32.285Z</time></trkpt><trkpt lat="42.4791867" lon="14.11338"><ele>32.0</ele><time>2026-05-02T06:12:33.285Z</time></trkpt><trkpt lat="42.479095" lon="14.113305"><ele>32.0</ele><time>2026-05-02T06:12:34.285Z</time></trkpt><trkpt lat="42.478995" lon="14.1132283"><ele>32.0</ele><time>2026-05-02T06:12:35.286Z</time></trkpt><trkpt lat="42.4789067" lon="14.1131517"><ele>32.0</ele><time>2026-05-02T06:12:36.285Z</time></trkpt><trkpt lat="42.4788117" lon="14.1130767"><ele>32.2</ele><time>2026-05-02T06:12:37.285Z</time></trkpt><trkpt lat="42.4787267" lon="14.1130167"><ele>32.400000000000006</ele><time>2026-05-02T06:12:38.285Z</time></trkpt><trkpt lat="42.4786333" lon="14.1129433"><ele>32.599999999999994</ele><time>2026-05-02T06:12:39.285Z</time></trkpt><trkpt lat="42.4785417" lon="14.11286"><ele>32.8</ele><time>2026-05-02T06:12:40.285Z</time></trkpt><trkpt lat="42.4784417" lon="14.1127867"><ele>33.0</ele><time>2026-05-02T06:12:41.286Z</time></trkpt><trkpt lat="42.478335" lon="14.1127017"><ele>33.0</ele><time>2026-05-02T06:12:42.285Z</time></trkpt><trkpt lat="42.4782167" lon="14.1126067"><ele>33.0</ele><time>2026-05-02T06:12:43.285Z</time></trkpt><trkpt lat="42.478095" lon="14.1125083"><ele>33.0</ele><time>2026-05-02T06:12:44.285Z</time></trkpt><trkpt lat="42.477985" lon="14.1124317"><ele>33.0</ele><time>2026-05-02T06:12:45.285Z</time></trkpt><trkpt lat="42.4778733" lon="14.1123483"><ele>33.5</ele><time>2026-05-02T06:12:46.285Z</time></trkpt><trkpt lat="42.4777667" lon="14.1122683"><ele>34.0</ele><time>2026-05-02T06:12:47.285Z</time></trkpt><trkpt lat="42.47765" lon="14.1121567"><ele>34.5</ele><time>2026-05-02T06:12:48.285Z</time></trkpt><trkpt lat="42.4775333" lon="14.1120783"><ele>35.0</ele><time>2026-05-02T06:12:49.285Z</time></trkpt><trkpt lat="42.4774217" lon="14.1119917"><ele>35.0</ele><time>2026-05-02T06:12:50.285Z</time></trkpt><trkpt lat="42.4772967" lon="14.1118933"><ele>35.0</ele><time>2026-05-02T06:12:51.285Z</time></trkpt><trkpt lat="42.4771833" lon="14.1117983"><ele>35.0</ele><time>2026-05-02T06:12:52.285Z</time></trkpt><trkpt lat="42.4770733" lon="14.1117083"><ele>35.0</ele><time>2026-05-02T06:12:53.285Z</time></trkpt><trkpt lat="42.4769633" lon="14.1116133"><ele>35.0</ele><time>2026-05-02T06:12:54.285Z</time></trkpt><trkpt lat="42.4768467" lon="14.111525"><ele>35.0</ele><time>2026-05-02T06:12:55.285Z</time></trkpt><trkpt lat="42.476735" lon="14.11143"><ele>35.0</ele><time>2026-05-02T06:12:56.285Z</time></trkpt><trkpt lat="42.4766317" lon="14.111335"><ele>35.0</ele><time>2026-05-02T06:12:57.285Z</time></trkpt><trkpt lat="42.47654" lon="14.111255"><ele>35.0</ele><time>2026-05-02T06:12:58.285Z</time></trkpt><trkpt lat="42.47646" lon="14.111185"><ele>35.0</ele><time>2026-05-02T06:12:59.285Z</time></trkpt><trkpt lat="42.4763983" lon="14.1111233"><ele>35.0</ele><time>2026-05-02T06:13:00.285Z</time></trkpt><trkpt lat="42.4763467" lon="14.1110667"><ele>35.0</ele><time>2026-05-02T06:13:01.285Z</time></trkpt><trkpt lat="42.476295" lon="14.1109267"><ele>35.0</ele><time>2026-05-02T06:13:03.285Z</time></trkpt><trkpt lat="42.4762833" lon="14.1108383"><ele>35.0</ele><time>2026-05-02T06:13:04.286Z</time></trkpt><trkpt lat="42.4762733" lon="14.1107533"><ele>35.4</ele><time>2026-05-02T06:13:05.285Z</time></trkpt><trkpt lat="42.47621" lon="14.1106367"><ele>35.8</ele><time>2026-05-02T06:13:07.285Z</time></trkpt><trkpt lat="42.4760967" lon="14.110625"><ele>36.2</ele><time>2026-05-02T06:13:09.285Z</time></trkpt><trkpt lat="42.4760283" lon="14.1106517"><ele>36.6</ele><time>2026-05-02T06:13:10.286Z</time></trkpt><trkpt lat="42.4759533" lon="14.1106933"><ele>37.0</ele><time>2026-05-02T06:13:11.286Z</time></trkpt><trkpt lat="42.4758583" lon="14.1106967"><ele>37.0</ele><time>2026-05-02T06:13:12.285Z</time></trkpt><trkpt lat="42.47577" lon="14.11066"><ele>37.0</ele><time>2026-05-02T06:13:13.285Z</time></trkpt><trkpt lat="42.475675" lon="14.1106"><ele>37.0</ele><time>2026-05-02T06:13:14.286Z</time></trkpt><trkpt lat="42.4755683" lon="14.1105367"><ele>37.0</ele><time>2026-05-02T06:13:15.285Z</time></trkpt><trkpt lat="42.47543" lon="14.1104833"><ele>38.75</ele><time>2026-05-02T06:13:16.285Z</time></trkpt><trkpt lat="42.475285" lon="14.1104733"><ele>40.5</ele><time>2026-05-02T06:13:17.285Z</time></trkpt><trkpt lat="42.47515" lon="14.1105"><ele>42.25</ele><time>2026-05-02T06:13:18.286Z</time></trkpt><trkpt lat="42.4750233" lon="14.110525"><ele>44.0</ele><time>2026-05-02T06:13:19.285Z</time></trkpt><trkpt lat="42.4748783" lon="14.110525"><ele>44.0</ele><time>2026-05-02T06:13:20.285Z</time></trkpt><trkpt lat="42.47475" lon="14.1105117"><ele>44.0</ele><time>2026-05-02T06:13:21.286Z</time></trkpt><trkpt lat="42.4746083" lon="14.1104883"><ele>44.0</ele><time>2026-05-02T06:13:22.285Z</time></trkpt><trkpt lat="42.4744583" lon="14.1104417"><ele>44.0</ele><time>2026-05-02T06:13:23.285Z</time></trkpt><trkpt lat="42.4743" lon="14.1103683"><ele>46.666666666666664</ele><time>2026-05-02T06:13:24.285Z</time></trkpt><trkpt lat="42.4741433" lon="14.11029"><ele>49.33333333333333</ele><time>2026-05-02T06:13:25.285Z</time></trkpt><trkpt lat="42.47398" lon="14.1102083"><ele>52.0</ele><time>2026-05-02T06:13:26.285Z</time></trkpt><trkpt lat="42.473815" lon="14.11014"><ele>53.33333333333333</ele><time>2026-05-02T06:13:27.285Z</time></trkpt><trkpt lat="42.4736467" lon="14.1100617"><ele>54.66666666666667</ele><time>2026-05-02T06:13:28.285Z</time></trkpt><trkpt lat="42.4734817" lon="14.109985"><ele>56.0</ele><time>2026-05-02T06:13:29.285Z</time></trkpt><trkpt lat="42.473325" lon="14.10991"><ele>59.66666666666667</ele><time>2026-05-02T06:13:30.285Z</time></trkpt><trkpt lat="42.47316" lon="14.1098333"><ele>63.33333333333333</ele><time>2026-05-02T06:13:31.285Z</time></trkpt><trkpt lat="42.473" lon="14.10975"><ele>67.0</ele><time>2026-05-02T06:13:32.285Z</time></trkpt><trkpt lat="42.4728433" lon="14.1096683"><ele>67.0</ele><time>2026-05-02T06:13:33.285Z</time></trkpt><trkpt lat="42.4726767" lon="14.1095967"><ele>67.0</ele><time>2026-05-02T06:13:34.285Z</time></trkpt><trkpt lat="42.472505" lon="14.109535"><ele>67.0</ele><time>2026-05-02T06:13:35.285Z</time></trkpt><trkpt lat="42.4723433" lon="14.109485"><ele>67.0</ele><time>2026-05-02T06:13:36.285Z</time></trkpt><trkpt lat="42.472185" lon="14.1094367"><ele>67.0</ele><time>2026-05-02T06:13:37.285Z</time></trkpt><trkpt lat="42.4720333" lon="14.1093617"><ele>67.0</ele><time>2026-05-02T06:13:38.285Z</time></trkpt><trkpt lat="42.471875" lon="14.1092867"><ele>65.66666666666666</ele><time>2026-05-02T06:13:39.285Z</time></trkpt><trkpt lat="42.4717283" lon="14.1091767"><ele>64.33333333333333</ele><time>2026-05-02T06:13:40.285Z</time></trkpt><trkpt lat="42.4715817" lon="14.1090533"><ele>63.0</ele><time>2026-05-02T06:13:41.285Z</time></trkpt><trkpt lat="42.4714567" lon="14.10892"><ele>64.0</ele><time>2026-05-02T06:13:42.285Z</time></trkpt><trkpt lat="42.4713317" lon="14.1087667"><ele>65.0</ele><time>2026-05-02T06:13:43.284Z</time></trkpt><trkpt lat="42.47122" lon="14.1086183"><ele>66.0</ele><time>2026-05-02T06:13:44.284Z</time></trkpt><trkpt lat="42.4711" lon="14.1084683"><ele>66.0</ele><time>2026-05-02T06:13:45.284Z</time></trkpt><trkpt lat="42.4709917" lon="14.1083083"><ele>66.0</ele><time>2026-05-02T06:13:46.284Z</time></trkpt><trkpt lat="42.4708767" lon="14.108145"><ele>66.0</ele><time>2026-05-02T06:13:47.284Z</time></trkpt><trkpt lat="42.470775" lon="14.1079633"><ele>70.0</ele><time>2026-05-02T06:13:48.284Z</time></trkpt><trkpt lat="42.470685" lon="14.1077567"><ele>74.0</ele><time>2026-05-02T06:13:49.285Z</time></trkpt><trkpt lat="42.470615" lon="14.1075567"><ele>78.0</ele><time>2026-05-02T06:13:50.284Z</time></trkpt><trkpt lat="42.4705467" lon="14.107355"><ele>76.5</ele><time>2026-05-02T06:13:51.284Z</time></trkpt><trkpt lat="42.470485" lon="14.1071583"><ele>75.0</ele><time>2026-05-02T06:13:52.284Z</time></trkpt><trkpt lat="42.47044" lon="14.10697"><ele>73.5</ele><time>2026-05-02T06:13:53.284Z</time></trkpt><trkpt lat="42.470385" lon="14.1068"><ele>72.0</ele><time>2026-05-02T06:13:54.285Z</time></trkpt><trkpt lat="42.4703183" lon="14.1066333"><ele>75.0</ele><time>2026-05-02T06:13:55.284Z</time></trkpt><trkpt lat="42.4702483" lon="14.1064767"><ele>78.0</ele><time>2026-05-02T06:13:56.284Z</time></trkpt><trkpt lat="42.4701583" lon="14.10633"><ele>81.0</ele><time>2026-05-02T06:13:57.284Z</time></trkpt><trkpt lat="42.4700533" lon="14.1062033"><ele>84.0</ele><time>2026-05-02T06:13:58.284Z</time></trkpt><trkpt lat="42.4699383" lon="14.1061017"><ele>84.0</ele><time>2026-05-02T06:13:59.284Z</time></trkpt><trkpt lat="42.469815" lon="14.1060183"><ele>84.0</ele><time>2026-05-02T06:14:00.284Z</time></trkpt><trkpt lat="42.4696933" lon="14.1059217"><ele>84.0</ele><time>2026-05-02T06:14:01.284Z</time></trkpt><trkpt lat="42.46957" lon="14.1058317"><ele>84.0</ele><time>2026-05-02T06:14:02.284Z</time></trkpt><trkpt lat="42.4694267" lon="14.1057383"><ele>87.33333333333333</ele><time>2026-05-02T06:14:03.284Z</time></trkpt><trkpt lat="42.4692783" lon="14.1056183"><ele>90.66666666666666</ele><time>2026-05-02T06:14:04.284Z</time></trkpt><trkpt lat="42.469115" lon="14.10551"><ele>94.0</ele><time>2026-05-02T06:14:05.284Z</time></trkpt><trkpt lat="42.468965" lon="14.105415"><ele>94.0</ele><time>2026-05-02T06:14:06.284Z</time></trkpt><trkpt lat="42.4688117" lon="14.1053117"><ele>94.0</ele><time>2026-05-02T06:14:07.284Z</time></trkpt><trkpt lat="42.4686617" lon="14.10523"><ele>94.0</ele><time>2026-05-02T06:14:08.284Z</time></trkpt><trkpt lat="42.4684933" lon="14.1051783"><ele>94.66666666666666</ele><time>2026-05-02T06:14:09.284Z</time></trkpt><trkpt lat="42.4683267" lon="14.1051333"><ele>95.33333333333333</ele><time>2026-05-02T06:14:10.284Z</time></trkpt><trkpt lat="42.4681667" lon="14.10511"><ele>96.0</ele><time>2026-05-02T06:14:11.284Z</time></trkpt><trkpt lat="42.468025" lon="14.1050717"><ele>94.5</ele><time>2026-05-02T06:14:12.284Z</time></trkpt><trkpt lat="42.4678817" lon="14.1050217"><ele>93.0</ele><time>2026-05-02T06:14:13.284Z</time></trkpt><trkpt lat="42.4677533" lon="14.1049483"><ele>91.5</ele><time>2026-05-02T06:14:14.284Z</time></trkpt><trkpt lat="42.467645" lon="14.104845"><ele>90.0</ele><time>2026-05-02T06:14:15.284Z</time></trkpt><trkpt lat="42.4675267" lon="14.1047267"><ele>94.66666666666666</ele><time>2026-05-02T06:14:16.284Z</time></trkpt><trkpt lat="42.46739" lon="14.104565"><ele>99.33333333333333</ele><time>2026-05-02T06:14:17.284Z</time></trkpt><trkpt lat="42.4672483" lon="14.10444"><ele>104.0</ele><time>2026-05-02T06:14:18.284Z</time></trkpt><trkpt lat="42.4671233" lon="14.1043217"><ele>102.66666666666666</ele><time>2026-05-02T06:14:19.284Z</time></trkpt><trkpt lat="42.4669883" lon="14.104215"><ele>101.33333333333334</ele><time>2026-05-02T06:14:20.284Z</time></trkpt><trkpt lat="42.46685" lon="14.104125"><ele>100.0</ele><time>2026-05-02T06:14:21.284Z</time></trkpt><trkpt lat="42.4667283" lon="14.1040183"><ele>99.75</ele><time>2026-05-02T06:14:22.284Z</time></trkpt><trkpt lat="42.4666267" lon="14.1039317"><ele>99.5</ele><time>2026-05-02T06:14:23.284Z</time></trkpt><trkpt lat="42.4665133" lon="14.10387"><ele>99.25</ele><time>2026-05-02T06:14:24.284Z</time></trkpt><trkpt lat="42.4663867" lon="14.1038067"><ele>99.0</ele><time>2026-05-02T06:14:25.284Z</time></trkpt><trkpt lat="42.4662383" lon="14.1037833"><ele>103.66666666666666</ele><time>2026-05-02T06:14:26.284Z</time></trkpt><trkpt lat="42.46608" lon="14.1037917"><ele>108.33333333333333</ele><time>2026-05-02T06:14:27.284Z</time></trkpt><trkpt lat="42.46593" lon="14.1038133"><ele>113.0</ele><time>2026-05-02T06:14:28.284Z</time></trkpt><trkpt lat="42.4657817" lon="14.1038333"><ele>113.0</ele><time>2026-05-02T06:14:29.284Z</time></trkpt><trkpt lat="42.46564" lon="14.10385"><ele>113.0</ele><time>2026-05-02T06:14:30.284Z</time></trkpt><trkpt lat="42.4654967" lon="14.1038417"><ele>113.0</ele><time>2026-05-02T06:14:31.284Z</time></trkpt><trkpt lat="42.465365" lon="14.10381"><ele>113.0</ele><time>2026-05-02T06:14:32.284Z</time></trkpt><trkpt lat="42.4652383" lon="14.1037583"><ele>114.25</ele><time>2026-05-02T06:14:33.284Z</time></trkpt><trkpt lat="42.4651217" lon="14.1036683"><ele>115.5</ele><time>2026-05-02T06:14:34.284Z</time></trkpt><trkpt lat="42.4650183" lon="14.1035983"><ele>116.75</ele><time>2026-05-02T06:14:35.284Z</time></trkpt><trkpt lat="42.4649283" lon="14.10352"><ele>118.0</ele><time>2026-05-02T06:14:36.284Z</time></trkpt><trkpt lat="42.4648233" lon="14.1033833"><ele>118.00000000000001</ele><time>2026-05-02T06:14:37.284Z</time></trkpt><trkpt lat="42.464755" lon="14.103265"><ele>118.0</ele><time>2026-05-02T06:14:38.284Z</time></trkpt><trkpt lat="42.464675" lon="14.1031633"><ele>118.0</ele><time>2026-05-02T06:14:39.284Z</time></trkpt><trkpt lat="42.46462" lon="14.1031"><ele>118.0</ele><time>2026-05-02T06:14:40.285Z</time></trkpt><trkpt lat="42.4645583" lon="14.10305"><ele>118.00000000000001</ele><time>2026-05-02T06:14:41.284Z</time></trkpt><trkpt lat="42.46448" lon="14.1030283"><ele>118.0</ele><time>2026-05-02T06:14:42.285Z</time></trkpt><trkpt lat="42.46441" lon="14.1030467"><ele>118.00000000000001</ele><time>2026-05-02T06:14:43.284Z</time></trkpt><trkpt lat="42.4643667" lon="14.10311"><ele>118.0</ele><time>2026-05-02T06:14:44.284Z</time></trkpt><trkpt lat="42.4643433" lon="14.103195"><ele>118.0</ele><time>2026-05-02T06:14:45.284Z</time></trkpt><trkpt lat="42.4643883" lon="14.1033467"><ele>118.0</ele><time>2026-05-02T06:14:47.284Z</time></trkpt><trkpt lat="42.4644617" lon="14.10341"><ele>118.00000000000001</ele><time>2026-05-02T06:14:48.284Z</time></trkpt><trkpt lat="42.4645633" lon="14.1034583"><ele>118.0</ele><time>2026-05-02T06:14:49.284Z</time></trkpt><trkpt lat="42.4646483" lon="14.103495"><ele>118.0</ele><time>2026-05-02T06:14:50.284Z</time></trkpt><trkpt lat="42.4647033" lon="14.1035467"><ele>118.00000000000001</ele><time>2026-05-02T06:14:51.284Z</time></trkpt><trkpt lat="42.4647383" lon="14.1036917"><ele>118.00000000000001</ele><time>2026-05-02T06:14:53.285Z</time></trkpt><trkpt lat="42.46465" lon="14.103805"><ele>118.0</ele><time>2026-05-02T06:14:55.284Z</time></trkpt><trkpt lat="42.4645733" lon="14.1038467"><ele>118.0</ele><time>2026-05-02T06:14:56.284Z</time></trkpt><trkpt lat="42.464475" lon="14.10389"><ele>118.4</ele><time>2026-05-02T06:14:57.284Z</time></trkpt><trkpt lat="42.4643583" lon="14.1039167"><ele>118.80000000000001</ele><time>2026-05-02T06:14:58.284Z</time></trkpt><trkpt lat="42.464245" lon="14.1039533"><ele>119.2</ele><time>2026-05-02T06:14:59.284Z</time></trkpt><trkpt lat="42.4641383" lon="14.1039733"><ele>119.6</ele><time>2026-05-02T06:15:00.285Z</time></trkpt><trkpt lat="42.464035" lon="14.1039933"><ele>120.0</ele><time>2026-05-02T06:15:01.284Z</time></trkpt><trkpt lat="42.4639267" lon="14.1040067"><ele>120.0</ele><time>2026-05-02T06:15:02.284Z</time></trkpt><trkpt lat="42.4638133" lon="14.104015"><ele>120.0</ele><time>2026-05-02T06:15:03.284Z</time></trkpt><trkpt lat="42.463705" lon="14.10404"><ele>120.0</ele><time>2026-05-02T06:15:04.284Z</time></trkpt><trkpt lat="42.4636067" lon="14.1040633"><ele>120.0</ele><time>2026-05-02T06:15:05.284Z</time></trkpt><trkpt lat="42.463515" lon="14.1040833"><ele>120.0</ele><time>2026-05-02T06:15:06.284Z</time></trkpt><trkpt lat="42.4634133" lon="14.104125"><ele>122.25</ele><time>2026-05-02T06:15:07.284Z</time></trkpt><trkpt lat="42.4633033" lon="14.104185"><ele>124.5</ele><time>2026-05-02T06:15:08.284Z</time></trkpt><trkpt lat="42.463205" lon="14.1042533"><ele>126.75</ele><time>2026-05-02T06:15:09.284Z</time></trkpt><trkpt lat="42.463115" lon="14.104345"><ele>129.0</ele><time>2026-05-02T06:15:10.284Z</time></trkpt><trkpt lat="42.4630317" lon="14.10444"><ele>129.0</ele><time>2026-05-02T06:15:11.284Z</time></trkpt><trkpt lat="42.4629567" lon="14.104535"><ele>129.0</ele><time>2026-05-02T06:15:12.284Z</time></trkpt><trkpt lat="42.46289" lon="14.1046167"><ele>129.0</ele><time>2026-05-02T06:15:13.285Z</time></trkpt><trkpt lat="42.4628183" lon="14.1046717"><ele>129.0</ele><time>2026-05-02T06:15:14.284Z</time></trkpt><trkpt lat="42.4627567" lon="14.10471"><ele>129.0</ele><time>2026-05-02T06:15:15.284Z</time></trkpt><trkpt lat="42.4626667" lon="14.104745"><ele>129.0</ele><time>2026-05-02T06:15:17.284Z</time></trkpt><trkpt lat="42.46256" lon="14.1046833"><ele>129.4</ele><time>2026-05-02T06:15:19.285Z</time></trkpt><trkpt lat="42.4624517" lon="14.1046883"><ele>129.8</ele><time>2026-05-02T06:15:21.284Z</time></trkpt><trkpt lat="42.462415" lon="14.1048033"><ele>130.2</ele><time>2026-05-02T06:15:23.284Z</time></trkpt><trkpt lat="42.46243" lon="14.104975"><ele>130.6</ele><time>2026-05-02T06:15:25.284Z</time></trkpt><trkpt lat="42.4624167" lon="14.1050767"><ele>131.0</ele><time>2026-05-02T06:15:26.284Z</time></trkpt><trkpt lat="42.4623667" lon="14.105165"><ele>131.5</ele><time>2026-05-02T06:15:27.284Z</time></trkpt><trkpt lat="42.4622767" lon="14.1052617"><ele>132.0</ele><time>2026-05-02T06:15:28.284Z</time></trkpt><trkpt lat="42.4621683" lon="14.1053533"><ele>132.5</ele><time>2026-05-02T06:15:29.284Z</time></trkpt><trkpt lat="42.4620517" lon="14.10544"><ele>133.0</ele><time>2026-05-02T06:15:30.285Z</time></trkpt><trkpt lat="42.4619617" lon="14.1055367"><ele>134.5</ele><time>2026-05-02T06:15:31.284Z</time></trkpt><trkpt lat="42.4618633" lon="14.1056383"><ele>136.0</ele><time>2026-05-02T06:15:32.284Z</time></trkpt><trkpt lat="42.4617617" lon="14.105735"><ele>137.5</ele><time>2026-05-02T06:15:33.284Z</time></trkpt><trkpt lat="42.4616583" lon="14.1058417"><ele>139.0</ele><time>2026-05-02T06:15:34.284Z</time></trkpt><trkpt lat="42.4615567" lon="14.1059517"><ele>139.0</ele><time>2026-05-02T06:15:35.284Z</time></trkpt><trkpt lat="42.4614417" lon="14.1060683"><ele>139.0</ele><time>2026-05-02T06:15:36.284Z</time></trkpt><trkpt lat="42.461335" lon="14.1061667"><ele>139.0</ele><time>2026-05-02T06:15:37.285Z</time></trkpt><trkpt lat="42.46123" lon="14.1062633"><ele>139.0</ele><time>2026-05-02T06:15:38.284Z</time></trkpt><trkpt lat="42.461115" lon="14.1063483"><ele>140.25</ele><time>2026-05-02T06:15:39.284Z</time></trkpt><trkpt lat="42.4609933" lon="14.1064017"><ele>141.5</ele><time>2026-05-02T06:15:40.284Z</time></trkpt><trkpt lat="42.4608833" lon="14.1064333"><ele>142.75</ele><time>2026-05-02T06:15:41.284Z</time></trkpt><trkpt lat="42.460775" lon="14.1064983"><ele>144.0</ele><time>2026-05-02T06:15:42.284Z</time></trkpt><trkpt lat="42.4606717" lon="14.1066067"><ele>144.0</ele><time>2026-05-02T06:15:43.285Z</time></trkpt><trkpt lat="42.460585" lon="14.1067317"><ele>144.0</ele><time>2026-05-02T06:15:44.285Z</time></trkpt><trkpt lat="42.4605067" lon="14.1068867"><ele>144.0</ele><time>2026-05-02T06:15:45.284Z</time></trkpt><trkpt lat="42.460445" lon="14.1070417"><ele>144.0</ele><time>2026-05-02T06:15:46.284Z</time></trkpt><trkpt lat="42.4603933" lon="14.10722"><ele>148.0</ele><time>2026-05-02T06:15:47.284Z</time></trkpt><trkpt lat="42.46035" lon="14.1074117"><ele>152.0</ele><time>2026-05-02T06:15:48.284Z</time></trkpt><trkpt lat="42.460325" lon="14.1076033"><ele>156.0</ele><time>2026-05-02T06:15:49.284Z</time></trkpt><trkpt lat="42.4602917" lon="14.1077983"><ele>160.0</ele><time>2026-05-02T06:15:50.284Z</time></trkpt><trkpt lat="42.4602417" lon="14.1079817"><ele>160.0</ele><time>2026-05-02T06:15:51.284Z</time></trkpt><trkpt lat="42.460175" lon="14.1081767"><ele>160.0</ele><time>2026-05-02T06:15:52.284Z</time></trkpt><trkpt lat="42.4600917" lon="14.10837"><ele>160.0</ele><time>2026-05-02T06:15:53.284Z</time></trkpt><trkpt lat="42.4600217" lon="14.108545"><ele>159.25</ele><time>2026-05-02T06:15:54.284Z</time></trkpt><trkpt lat="42.4599533" lon="14.10871"><ele>158.5</ele><time>2026-05-02T06:15:55.284Z</time></trkpt><trkpt lat="42.4598933" lon="14.10885"><ele>157.75</ele><time>2026-05-02T06:15:56.284Z</time></trkpt><trkpt lat="42.4598167" lon="14.108995"><ele>157.0</ele><time>2026-05-02T06:15:57.284Z</time></trkpt><trkpt lat="42.4597283" lon="14.1091317"><ele>155.75</ele><time>2026-05-02T06:15:58.284Z</time></trkpt><trkpt lat="42.459625" lon="14.109265"><ele>154.5</ele><time>2026-05-02T06:15:59.284Z</time></trkpt><trkpt lat="42.4595167" lon="14.10937"><ele>153.25</ele><time>2026-05-02T06:16:00.284Z</time></trkpt><trkpt lat="42.4594133" lon="14.109475"><ele>152.0</ele><time>2026-05-02T06:16:01.284Z</time></trkpt><trkpt lat="42.459305" lon="14.1095983"><ele>153.25</ele><time>2026-05-02T06:16:02.284Z</time></trkpt><trkpt lat="42.459195" lon="14.10972"><ele>154.5</ele><time>2026-05-02T06:16:03.284Z</time></trkpt><trkpt lat="42.45909" lon="14.109855"><ele>155.75</ele><time>2026-05-02T06:16:04.284Z</time></trkpt><trkpt lat="42.459005" lon="14.1100017"><ele>157.0</ele><time>2026-05-02T06:16:05.284Z</time></trkpt><trkpt lat="42.4589017" lon="14.1101717"><ele>157.0</ele><time>2026-05-02T06:16:06.284Z</time></trkpt><trkpt lat="42.4588033" lon="14.1103517"><ele>157.0</ele><time>2026-05-02T06:16:07.284Z</time></trkpt><trkpt lat="42.4586967" lon="14.1105283"><ele>157.0</ele><time>2026-05-02T06:16:08.284Z</time></trkpt><trkpt lat="42.4585933" lon="14.110695"><ele>158.25</ele><time>2026-05-02T06:16:09.284Z</time></trkpt><trkpt lat="42.4584883" lon="14.1108633"><ele>159.5</ele><time>2026-05-02T06:16:10.284Z</time></trkpt><trkpt lat="42.458405" lon="14.11102"><ele>160.75</ele><time>2026-05-02T06:16:11.284Z</time></trkpt><trkpt lat="42.4583083" lon="14.1111383"><ele>162.0</ele><time>2026-05-02T06:16:12.284Z</time></trkpt><trkpt lat="42.4582167" lon="14.1112267"><ele>162.0</ele><time>2026-05-02T06:16:13.284Z</time></trkpt><trkpt lat="42.4581517" lon="14.1112617"><ele>162.0</ele><time>2026-05-02T06:16:14.284Z</time></trkpt><trkpt lat="42.4580733" lon="14.1112417"><ele>162.0</ele><time>2026-05-02T06:16:15.284Z</time></trkpt><trkpt lat="42.4580033" lon="14.111185"><ele>162.0</ele><time>2026-05-02T06:16:16.284Z</time></trkpt><trkpt lat="42.45795" lon="14.111095"><ele>162.0</ele><time>2026-05-02T06:16:17.284Z</time></trkpt><trkpt lat="42.4579183" lon="14.1109883"><ele>162.0</ele><time>2026-05-02T06:16:18.284Z</time></trkpt><trkpt lat="42.457905" lon="14.1109017"><ele>164.6</ele><time>2026-05-02T06:16:19.285Z</time></trkpt><trkpt lat="42.4578333" lon="14.110785"><ele>167.2</ele><time>2026-05-02T06:16:21.284Z</time></trkpt><trkpt lat="42.457765" lon="14.1107717"><ele>169.8</ele><time>2026-05-02T06:16:22.284Z</time></trkpt><trkpt lat="42.4577067" lon="14.1108133"><ele>172.4</ele><time>2026-05-02T06:16:23.284Z</time></trkpt><trkpt lat="42.4576667" lon="14.111"><ele>175.0</ele><time>2026-05-02T06:16:25.284Z</time></trkpt><trkpt lat="42.4576867" lon="14.11113"><ele>175.0</ele><time>2026-05-02T06:16:26.284Z</time></trkpt><trkpt lat="42.45772" lon="14.111265"><ele>175.0</ele><time>2026-05-02T06:16:27.284Z</time></trkpt><trkpt lat="42.457765" lon="14.1114117"><ele>175.0</ele><time>2026-05-02T06:16:28.284Z</time></trkpt><trkpt lat="42.457815" lon="14.1115567"><ele>175.0</ele><time>2026-05-02T06:16:29.284Z</time></trkpt><trkpt lat="42.45785" lon="14.1116883"><ele>175.0</ele><time>2026-05-02T06:16:30.284Z</time></trkpt><trkpt lat="42.457895" lon="14.1118283"><ele>175.0</ele><time>2026-05-02T06:16:31.284Z</time></trkpt><trkpt lat="42.4579417" lon="14.1119717"><ele>175.0</ele><time>2026-05-02T06:16:32.285Z</time></trkpt><trkpt lat="42.4579767" lon="14.11211"><ele>175.0</ele><time>2026-05-02T06:16:33.285Z</time></trkpt><trkpt lat="42.4580133" lon="14.11225"><ele>175.0</ele><time>2026-05-02T06:16:34.284Z</time></trkpt><trkpt lat="42.458045" lon="14.1124017"><ele>175.0</ele><time>2026-05-02T06:16:35.285Z</time></trkpt><trkpt lat="42.4580733" lon="14.11255"><ele>175.0</ele><time>2026-05-02T06:16:36.284Z</time></trkpt><trkpt lat="42.458095" lon="14.1127"><ele>175.0</ele><time>2026-05-02T06:16:37.284Z</time></trkpt><trkpt lat="42.45811" lon="14.1128433"><ele>175.0</ele><time>2026-05-02T06:16:38.285Z</time></trkpt><trkpt lat="42.45811" lon="14.1129717"><ele>175.0</ele><time>2026-05-02T06:16:39.284Z</time></trkpt><trkpt lat="42.458085" lon="14.1131017"><ele>175.0</ele><time>2026-05-02T06:16:40.284Z</time></trkpt><trkpt lat="42.458045" lon="14.1132233"><ele>175.6</ele><time>2026-05-02T06:16:41.284Z</time></trkpt><trkpt lat="42.4579933" lon="14.113345"><ele>176.2</ele><time>2026-05-02T06:16:42.284Z</time></trkpt><trkpt lat="42.4579533" lon="14.113475"><ele>176.8</ele><time>2026-05-02T06:16:43.284Z</time></trkpt><trkpt lat="42.4579267" lon="14.113615"><ele>177.4</ele><time>2026-05-02T06:16:44.284Z</time></trkpt><trkpt lat="42.457905" lon="14.11375"><ele>178.0</ele><time>2026-05-02T06:16:45.285Z</time></trkpt><trkpt lat="42.457895" lon="14.1139067"><ele>175.5</ele><time>2026-05-02T06:16:46.284Z</time></trkpt><trkpt lat="42.4579033" lon="14.1140733"><ele>173.0</ele><time>2026-05-02T06:16:47.284Z</time></trkpt><trkpt lat="42.4579083" lon="14.114245"><ele>170.5</ele><time>2026-05-02T06:16:48.284Z</time></trkpt><trkpt lat="42.4579083" lon="14.1144083"><ele>168.0</ele><time>2026-05-02T06:16:49.284Z</time></trkpt><trkpt lat="42.4579017" lon="14.1145617"><ele>168.0</ele><time>2026-05-02T06:16:50.285Z</time></trkpt><trkpt lat="42.4578783" lon="14.1147"><ele>168.0</ele><time>2026-05-02T06:16:51.284Z</time></trkpt><trkpt lat="42.457845" lon="14.114835"><ele>168.0</ele><time>2026-05-02T06:16:52.284Z</time></trkpt><trkpt lat="42.4578067" lon="14.114975"><ele>168.0</ele><time>2026-05-02T06:16:53.284Z</time></trkpt><trkpt lat="42.4577833" lon="14.1151067"><ele>168.0</ele><time>2026-05-02T06:16:54.284Z</time></trkpt><trkpt lat="42.4577833" lon="14.115235"><ele>167.8</ele><time>2026-05-02T06:16:55.284Z</time></trkpt><trkpt lat="42.4577983" lon="14.1153483"><ele>167.60000000000002</ele><time>2026-05-02T06:16:56.284Z</time></trkpt><trkpt lat="42.45784" lon="14.1154583"><ele>167.39999999999998</ele><time>2026-05-02T06:16:57.284Z</time></trkpt><trkpt lat="42.457905" lon="14.1155633"><ele>167.2</ele><time>2026-05-02T06:16:58.284Z</time></trkpt><trkpt lat="42.457995" lon="14.11566"><ele>167.0</ele><time>2026-05-02T06:16:59.284Z</time></trkpt><trkpt lat="42.4580917" lon="14.1157617"><ele>167.0</ele><time>2026-05-02T06:17:00.284Z</time></trkpt><trkpt lat="42.4582" lon="14.1158733"><ele>167.0</ele><time>2026-05-02T06:17:01.285Z</time></trkpt><trkpt lat="42.4582983" lon="14.1159933"><ele>167.0</ele><time>2026-05-02T06:17:02.284Z</time></trkpt><trkpt lat="42.4584033" lon="14.1161133"><ele>167.0</ele><time>2026-05-02T06:17:03.285Z</time></trkpt><trkpt lat="42.4585067" lon="14.11623"><ele>167.0</ele><time>2026-05-02T06:17:04.284Z</time></trkpt><trkpt lat="42.4586083" lon="14.11635"><ele>167.0</ele><time>2026-05-02T06:17:05.284Z</time></trkpt><trkpt lat="42.4587117" lon="14.1164683"><ele>167.0</ele><time>2026-05-02T06:17:06.284Z</time></trkpt><trkpt lat="42.458815" lon="14.1165817"><ele>167.0</ele><time>2026-05-02T06:17:07.284Z</time></trkpt><trkpt lat="42.4589317" lon="14.1166967"><ele>166.0</ele><time>2026-05-02T06:17:08.284Z</time></trkpt><trkpt lat="42.45904" lon="14.116805"><ele>165.0</ele><time>2026-05-02T06:17:09.284Z</time></trkpt><trkpt lat="42.4591633" lon="14.1168983"><ele>164.0</ele><time>2026-05-02T06:17:10.284Z</time></trkpt><trkpt lat="42.4592817" lon="14.1169917"><ele>163.0</ele><time>2026-05-02T06:17:11.284Z</time></trkpt><trkpt lat="42.4593967" lon="14.11708"><ele>163.0</ele><time>2026-05-02T06:17:12.284Z</time></trkpt><trkpt lat="42.4595083" lon="14.1171733"><ele>163.0</ele><time>2026-05-02T06:17:13.284Z</time></trkpt><trkpt lat="42.4596083" lon="14.1172533"><ele>163.0</ele><time>2026-05-02T06:17:14.284Z</time></trkpt><trkpt lat="42.45969" lon="14.11733"><ele>163.0</ele><time>2026-05-02T06:17:15.284Z</time></trkpt><trkpt lat="42.459775" lon="14.1174"><ele>163.0</ele><time>2026-05-02T06:17:16.284Z</time></trkpt><trkpt lat="42.4598583" lon="14.11747"><ele>162.5</ele><time>2026-05-02T06:17:17.284Z</time></trkpt><trkpt lat="42.4599467" lon="14.1175333"><ele>162.0</ele><time>2026-05-02T06:17:18.284Z</time></trkpt><trkpt lat="42.4600133" lon="14.1175967"><ele>161.5</ele><time>2026-05-02T06:17:19.284Z</time></trkpt><trkpt lat="42.4600767" lon="14.1176567"><ele>161.0</ele><time>2026-05-02T06:17:20.285Z</time></trkpt><trkpt lat="42.4601317" lon="14.1177033"><ele>160.5</ele><time>2026-05-02T06:17:21.284Z</time></trkpt><trkpt lat="42.4601967" lon="14.117765"><ele>160.0</ele><time>2026-05-02T06:17:23.284Z</time></trkpt><trkpt lat="42.4603417" lon="14.1178667"><ele>160.0</ele><time>2026-05-02T06:17:39.284Z</time></trkpt><trkpt lat="42.460415" lon="14.1179683"><ele>160.0</ele><time>2026-05-02T06:17:41.284Z</time></trkpt><trkpt lat="42.4604767" lon="14.1181233"><ele>160.0</ele><time>2026-05-02T06:17:43.284Z</time></trkpt><trkpt lat="42.4604917" lon="14.1182217"><ele>160.0</ele><time>2026-05-02T06:17:44.285Z</time></trkpt><trkpt lat="42.4604983" lon="14.1183333"><ele>160.0</ele><time>2026-05-02T06:17:45.284Z</time></trkpt><trkpt lat="42.4604867" lon="14.1184617"><ele>160.0</ele><time>2026-05-02T06:17:46.284Z</time></trkpt><trkpt lat="42.4604717" lon="14.1185967"><ele>160.0</ele><time>2026-05-02T06:17:47.284Z</time></trkpt><trkpt lat="42.4604483" lon="14.118735"><ele>160.0</ele><time>2026-05-02T06:17:48.284Z</time></trkpt><trkpt lat="42.4604133" lon="14.1188667"><ele>160.0</ele><time>2026-05-02T06:17:49.284Z</time></trkpt><trkpt lat="42.4603733" lon="14.1189933"><ele>160.0</ele><time>2026-05-02T06:17:50.284Z</time></trkpt><trkpt lat="42.4603367" lon="14.1191067"><ele>160.0</ele><time>2026-05-02T06:17:51.284Z</time></trkpt><trkpt lat="42.460295" lon="14.1192117"><ele>160.0</ele><time>2026-05-02T06:17:52.284Z</time></trkpt><trkpt lat="42.460255" lon="14.1193067"><ele>160.0</ele><time>2026-05-02T06:17:53.285Z</time></trkpt><trkpt lat="42.4602117" lon="14.119405"><ele>160.0</ele><time>2026-05-02T06:17:54.284Z</time></trkpt><trkpt lat="42.4601683" lon="14.119495"><ele>160.0</ele><time>2026-05-02T06:17:55.284Z</time></trkpt><trkpt lat="42.4601217" lon="14.1195683"><ele>160.0</ele><time>2026-05-02T06:17:56.285Z</time></trkpt><trkpt lat="42.4600633" lon="14.1196233"><ele>160.0</ele><time>2026-05-02T06:17:57.284Z</time></trkpt><trkpt lat="42.4599933" lon="14.1196717"><ele>160.0</ele><time>2026-05-02T06:17:58.284Z</time></trkpt><trkpt lat="42.4599183" lon="14.1197283"><ele>160.0</ele><time>2026-05-02T06:17:59.284Z</time></trkpt><trkpt lat="42.4598633" lon="14.1198083"><ele>160.0</ele><time>2026-05-02T06:18:00.285Z</time></trkpt><trkpt lat="42.4598317" lon="14.11991"><ele>160.0</ele><time>2026-05-02T06:18:01.284Z</time></trkpt><trkpt lat="42.4597833" lon="14.1200367"><ele>160.0</ele><time>2026-05-02T06:18:02.284Z</time></trkpt><trkpt lat="42.4597133" lon="14.12015"><ele>160.0</ele><time>2026-05-02T06:18:03.284Z</time></trkpt><trkpt lat="42.45963" lon="14.1202617"><ele>160.0</ele><time>2026-05-02T06:18:04.284Z</time></trkpt><trkpt lat="42.459525" lon="14.1203667"><ele>160.0</ele><time>2026-05-02T06:18:05.284Z</time></trkpt><trkpt lat="42.4594133" lon="14.1204767"><ele>160.0</ele><time>2026-05-02T06:18:06.284Z</time></trkpt><trkpt lat="42.4593117" lon="14.1205933"><ele>160.0</ele><time>2026-05-02T06:18:07.284Z</time></trkpt><trkpt lat="42.4592" lon="14.1207083"><ele>160.0</ele><time>2026-05-02T06:18:08.284Z</time></trkpt><trkpt lat="42.4590983" lon="14.1208183"><ele>160.0</ele><time>2026-05-02T06:18:09.284Z</time></trkpt><trkpt lat="42.459005" lon="14.12091"><ele>160.0</ele><time>2026-05-02T06:18:10.284Z</time></trkpt><trkpt lat="42.4589367" lon="14.1209733"><ele>160.0</ele><time>2026-05-02T06:18:11.284Z</time></trkpt><trkpt lat="42.4588583" lon="14.121025"><ele>160.0</ele><time>2026-05-02T06:18:13.284Z</time></trkpt><trkpt lat="42.45878" lon="14.1209533"><ele>160.0</ele><time>2026-05-02T06:18:15.284Z</time></trkpt><trkpt lat="42.458705" lon="14.1208317"><ele>160.0</ele><time>2026-05-02T06:18:17.284Z</time></trkpt><trkpt lat="42.458655" lon="14.1207767"><ele>160.0</ele><time>2026-05-02T06:18:19.284Z</time></trkpt><trkpt lat="42.4585667" lon="14.1207167"><ele>158.85714285714286</ele><time>2026-05-02T06:18:32.284Z</time></trkpt><trkpt lat="42.4585117" lon="14.1206667"><ele>157.71428571428572</ele><time>2026-05-02T06:18:33.284Z</time></trkpt><trkpt lat="42.4584617" lon="14.1206083"><ele>156.57142857142856</ele><time>2026-05-02T06:18:34.284Z</time></trkpt><trkpt lat="42.458405" lon="14.1205433"><ele>155.42857142857144</ele><time>2026-05-02T06:18:35.284Z</time></trkpt><trkpt lat="42.4583483" lon="14.1204817"><ele>154.2857142857143</ele><time>2026-05-02T06:18:36.284Z</time></trkpt><trkpt lat="42.4582967" lon="14.1204283"><ele>153.14285714285714</ele><time>2026-05-02T06:18:37.284Z</time></trkpt><trkpt lat="42.4582317" lon="14.1203683"><ele>152.0</ele><time>2026-05-02T06:18:38.284Z</time></trkpt><trkpt lat="42.4581767" lon="14.12031"><ele>152.0</ele><time>2026-05-02T06:18:39.284Z</time></trkpt><trkpt lat="42.4581283" lon="14.120245"><ele>152.0</ele><time>2026-05-02T06:18:40.284Z</time></trkpt><trkpt lat="42.45808" lon="14.120185"><ele>152.0</ele><time>2026-05-02T06:18:41.284Z</time></trkpt><trkpt lat="42.4580283" lon="14.12013"><ele>152.0</ele><time>2026-05-02T06:18:42.284Z</time></trkpt><trkpt lat="42.4579833" lon="14.12006"><ele>152.0</ele><time>2026-05-02T06:18:43.284Z</time></trkpt><trkpt lat="42.4579333" lon="14.1199767"><ele>152.0</ele><time>2026-05-02T06:18:44.284Z</time></trkpt><trkpt lat="42.45788" lon="14.1199"><ele>152.0</ele><time>2026-05-02T06:18:45.285Z</time></trkpt><trkpt lat="42.4578333" lon="14.1198267"><ele>148.66666666666666</ele><time>2026-05-02T06:18:46.284Z</time></trkpt><trkpt lat="42.4577783" lon="14.11975"><ele>145.33333333333331</ele><time>2026-05-02T06:18:47.285Z</time></trkpt><trkpt lat="42.4576933" lon="14.1196367"><ele>142.0</ele><time>2026-05-02T06:18:49.284Z</time></trkpt><trkpt lat="42.4576533" lon="14.11957"><ele>138.66666666666666</ele><time>2026-05-02T06:18:51.284Z</time></trkpt><trkpt lat="42.45759" lon="14.1194767"><ele>135.33333333333334</ele><time>2026-05-02T06:18:54.285Z</time></trkpt><trkpt lat="42.4575217" lon="14.11939"><ele>132.0</ele><time>2026-05-02T06:18:57.285Z</time></trkpt><trkpt lat="42.4574717" lon="14.1193367"><ele>132.0</ele><time>2026-05-02T06:18:59.285Z</time></trkpt><trkpt lat="42.45741" lon="14.1192983"><ele>132.0</ele><time>2026-05-02T06:19:01.285Z</time></trkpt><trkpt lat="42.4573283" lon="14.1192767"><ele>132.0</ele><time>2026-05-02T06:19:03.285Z</time></trkpt><trkpt lat="42.457225" lon="14.119265"><ele>132.0</ele><time>2026-05-02T06:19:05.285Z</time></trkpt><trkpt lat="42.4571267" lon="14.11926"><ele>132.0</ele><time>2026-05-02T06:19:07.285Z</time></trkpt><trkpt lat="42.457035" lon="14.1192583"><ele>132.0</ele><time>2026-05-02T06:19:09.285Z</time></trkpt><trkpt lat="42.4569433" lon="14.1192667"><ele>130.4</ele><time>2026-05-02T06:19:11.285Z</time></trkpt><trkpt lat="42.4568517" lon="14.119265"><ele>128.79999999999998</ele><time>2026-05-02T06:19:13.285Z</time></trkpt><trkpt lat="42.45675" lon="14.119285"><ele>127.2</ele><time>2026-05-02T06:19:15.285Z</time></trkpt><trkpt lat="42.4566633" lon="14.1193117"><ele>125.6</ele><time>2026-05-02T06:19:17.285Z</time></trkpt><trkpt lat="42.4565783" lon="14.1193333"><ele>124.0</ele><time>2026-05-02T06:19:19.285Z</time></trkpt><trkpt lat="42.4564983" lon="14.119325"><ele>124.0</ele><time>2026-05-02T06:19:21.285Z</time></trkpt><trkpt lat="42.45641" lon="14.1193133"><ele>124.0</ele><time>2026-05-02T06:19:23.285Z</time></trkpt><trkpt lat="42.4563233" lon="14.1193117"><ele>124.0</ele><time>2026-05-02T06:19:25.286Z</time></trkpt><trkpt lat="42.4562267" lon="14.1193283"><ele>124.0</ele><time>2026-05-02T06:19:27.285Z</time></trkpt><trkpt lat="42.4561417" lon="14.1193417"><ele>124.0</ele><time>2026-05-02T06:19:29.285Z</time></trkpt><trkpt lat="42.45605" lon="14.1193217"><ele>123.16666666666667</ele><time>2026-05-02T06:19:32.285Z</time></trkpt><trkpt lat="42.4559833" lon="14.1193083"><ele>122.33333333333334</ele><time>2026-05-02T06:19:34.285Z</time></trkpt><trkpt lat="42.4559067" lon="14.1192783"><ele>121.5</ele><time>2026-05-02T06:19:37.285Z</time></trkpt><trkpt lat="42.4558383" lon="14.11924"><ele>120.66666666666666</ele><time>2026-05-02T06:19:40.285Z</time></trkpt><trkpt lat="42.45576" lon="14.119225"><ele>119.83333333333333</ele><time>2026-05-02T06:19:43.285Z</time></trkpt><trkpt lat="42.4556717" lon="14.1192083"><ele>119.0</ele><time>2026-05-02T06:19:46.285Z</time></trkpt><trkpt lat="42.4555833" lon="14.1192183"><ele>118.99999999999999</ele><time>2026-05-02T06:19:49.286Z</time></trkpt><trkpt lat="42.45551" lon="14.11922"><ele>119.0</ele><time>2026-05-02T06:19:52.285Z</time></trkpt><trkpt lat="42.4554283" lon="14.11921"><ele>119.0</ele><time>2026-05-02T06:19:55.285Z</time></trkpt><trkpt lat="42.455335" lon="14.1192117"><ele>119.0</ele><time>2026-05-02T06:19:58.285Z</time></trkpt><trkpt lat="42.455265" lon="14.1192283"><ele>118.99999999999999</ele><time>2026-05-02T06:20:00.285Z</time></trkpt><trkpt lat="42.4551883" lon="14.1192167"><ele>119.0</ele><time>2026-05-02T06:20:03.285Z</time></trkpt><trkpt lat="42.4551233" lon="14.1191983"><ele>118.28571428571428</ele><time>2026-05-02T06:20:09.285Z</time></trkpt><trkpt lat="42.455045" lon="14.1191933"><ele>117.57142857142857</ele><time>2026-05-02T06:20:12.285Z</time></trkpt><trkpt lat="42.4549683" lon="14.1191867"><ele>116.85714285714286</ele><time>2026-05-02T06:20:14.285Z</time></trkpt><trkpt lat="42.454895" lon="14.1191667"><ele>116.14285714285714</ele><time>2026-05-02T06:20:17.285Z</time></trkpt><trkpt lat="42.45484" lon="14.1191233"><ele>115.42857142857142</ele><time>2026-05-02T06:20:21.286Z</time></trkpt><trkpt lat="42.4547983" lon="14.1190533"><ele>114.71428571428571</ele><time>2026-05-02T06:20:25.285Z</time></trkpt><trkpt lat="42.4548067" lon="14.1189467"><ele>114.0</ele><time>2026-05-02T06:20:29.285Z</time></trkpt><trkpt lat="42.45483" lon="14.1188567"><ele>113.4</ele><time>2026-05-02T06:20:31.285Z</time></trkpt><trkpt lat="42.45487" lon="14.11876"><ele>112.80000000000001</ele><time>2026-05-02T06:20:33.285Z</time></trkpt><trkpt lat="42.4548667" lon="14.118615"><ele>112.19999999999999</ele><time>2026-05-02T06:20:35.285Z</time></trkpt><trkpt lat="42.4548667" lon="14.1184617"><ele>111.6</ele><time>2026-05-02T06:20:37.285Z</time></trkpt><trkpt lat="42.45487" lon="14.1183717"><ele>111.0</ele><time>2026-05-02T06:20:39.285Z</time></trkpt><trkpt lat="42.4548683" lon="14.1182533"><ele>112.0</ele><time>2026-05-02T06:20:41.285Z</time></trkpt><trkpt lat="42.4548783" lon="14.1181417"><ele>113.0</ele><time>2026-05-02T06:20:43.285Z</time></trkpt><trkpt lat="42.4549167" lon="14.1180217"><ele>114.0</ele><time>2026-05-02T06:20:45.285Z</time></trkpt><trkpt lat="42.4549483" lon="14.1178967"><ele>115.0</ele><time>2026-05-02T06:20:47.285Z</time></trkpt><trkpt lat="42.45497" lon="14.1177667"><ele>116.0</ele><time>2026-05-02T06:20:49.285Z</time></trkpt><trkpt lat="42.454975" lon="14.1176367"><ele>116.0</ele><time>2026-05-02T06:20:51.285Z</time></trkpt><trkpt lat="42.4549783" lon="14.1174983"><ele>116.0</ele><time>2026-05-02T06:20:53.285Z</time></trkpt><trkpt lat="42.4549917" lon="14.117355"><ele>116.0</ele><time>2026-05-02T06:20:55.285Z</time></trkpt><trkpt lat="42.4549867" lon="14.1172483"><ele>116.0</ele><time>2026-05-02T06:20:57.285Z</time></trkpt><trkpt lat="42.4549133" lon="14.1171883"><ele>116.0</ele><time>2026-05-02T06:21:00.285Z</time></trkpt><trkpt lat="42.4548283" lon="14.117165"><ele>117.4</ele><time>2026-05-02T06:21:02.285Z</time></trkpt><trkpt lat="42.4547167" lon="14.1171383"><ele>118.8</ele><time>2026-05-02T06:21:04.285Z</time></trkpt><trkpt lat="42.4545917" lon="14.1171017"><ele>120.20000000000002</ele><time>2026-05-02T06:21:06.285Z</time></trkpt><trkpt lat="42.4545217" lon="14.1170817"><ele>121.60000000000001</ele><time>2026-05-02T06:21:07.285Z</time></trkpt><trkpt lat="42.4544533" lon="14.1170633"><ele>123.0</ele><time>2026-05-02T06:21:08.285Z</time></trkpt><trkpt lat="42.4543833" lon="14.1170417"><ele>123.33333333333333</ele><time>2026-05-02T06:21:09.285Z</time></trkpt><trkpt lat="42.454305" lon="14.1170217"><ele>123.66666666666666</ele><time>2026-05-02T06:21:10.285Z</time></trkpt><trkpt lat="42.45423" lon="14.11701"><ele>124.0</ele><time>2026-05-02T06:21:11.285Z</time></trkpt><trkpt lat="42.454155" lon="14.1169983"><ele>124.33333333333333</ele><time>2026-05-02T06:21:12.286Z</time></trkpt><trkpt lat="42.4540817" lon="14.11699"><ele>124.66666666666666</ele><time>2026-05-02T06:21:13.285Z</time></trkpt><trkpt lat="42.4540117" lon="14.1169767"><ele>125.0</ele><time>2026-05-02T06:21:14.286Z</time></trkpt><trkpt lat="42.453935" lon="14.1169667"><ele>124.99999999999999</ele><time>2026-05-02T06:21:15.285Z</time></trkpt><trkpt lat="42.4538667" lon="14.1169567"><ele>125.0</ele><time>2026-05-02T06:21:16.285Z</time></trkpt><trkpt lat="42.4537983" lon="14.116955"><ele>125.0</ele><time>2026-05-02T06:21:17.285Z</time></trkpt><trkpt lat="42.453735" lon="14.116945"><ele>125.0</ele><time>2026-05-02T06:21:18.285Z</time></trkpt><trkpt lat="42.4536183" lon="14.1169683"><ele>124.99999999999999</ele><time>2026-05-02T06:21:20.285Z</time></trkpt><trkpt lat="42.45352" lon="14.1170367"><ele>125.0</ele><time>2026-05-02T06:21:22.285Z</time></trkpt><trkpt lat="42.453465" lon="14.117085"><ele>125.33333333333333</ele><time>2026-05-02T06:21:23.285Z</time></trkpt><trkpt lat="42.4534117" lon="14.1171367"><ele>125.66666666666666</ele><time>2026-05-02T06:21:24.286Z</time></trkpt><trkpt lat="42.4533467" lon="14.1172"><ele>126.0</ele><time>2026-05-02T06:21:25.286Z</time></trkpt><trkpt lat="42.453275" lon="14.1172517"><ele>126.33333333333334</ele><time>2026-05-02T06:21:26.285Z</time></trkpt><trkpt lat="42.453205" lon="14.117295"><ele>126.66666666666667</ele><time>2026-05-02T06:21:27.285Z</time></trkpt><trkpt lat="42.453145" lon="14.1173367"><ele>127.0</ele><time>2026-05-02T06:21:28.285Z</time></trkpt><trkpt lat="42.4530183" lon="14.1173717"><ele>127.50000000000001</ele><time>2026-05-02T06:21:30.285Z</time></trkpt><trkpt lat="42.45294" lon="14.1173733"><ele>128.0</ele><time>2026-05-02T06:21:31.285Z</time></trkpt><trkpt lat="42.45287" lon="14.11739"><ele>128.5</ele><time>2026-05-02T06:21:32.285Z</time></trkpt><trkpt lat="42.4528033" lon="14.1174"><ele>129.0</ele><time>2026-05-02T06:21:33.285Z</time></trkpt><trkpt lat="42.4526833" lon="14.117385"><ele>129.5</ele><time>2026-05-02T06:21:35.285Z</time></trkpt><trkpt lat="42.4525983" lon="14.1173483"><ele>130.0</ele><time>2026-05-02T06:21:37.285Z</time></trkpt><trkpt lat="42.4525367" lon="14.1172417"><ele>130.0</ele><time>2026-05-02T06:21:39.285Z</time></trkpt><trkpt lat="42.4524967" lon="14.1170917"><ele>130.0</ele><time>2026-05-02T06:21:41.285Z</time></trkpt><trkpt lat="42.4524633" lon="14.1170017"><ele>130.0</ele><time>2026-05-02T06:21:42.285Z</time></trkpt><trkpt lat="42.4524217" lon="14.11691"><ele>130.0</ele><time>2026-05-02T06:21:43.286Z</time></trkpt><trkpt lat="42.4523817" lon="14.116815"><ele>130.0</ele><time>2026-05-02T06:21:44.285Z</time></trkpt><trkpt lat="42.45234" lon="14.11671"><ele>130.0</ele><time>2026-05-02T06:21:45.285Z</time></trkpt><trkpt lat="42.4522883" lon="14.1166133"><ele>131.00000000000003</ele><time>2026-05-02T06:21:46.285Z</time></trkpt><trkpt lat="42.4522317" lon="14.1165383"><ele>132.0</ele><time>2026-05-02T06:21:47.285Z</time></trkpt><trkpt lat="42.45217" lon="14.1164767"><ele>133.0</ele><time>2026-05-02T06:21:48.286Z</time></trkpt><trkpt lat="42.4521117" lon="14.1164233"><ele>134.0</ele><time>2026-05-02T06:21:49.285Z</time></trkpt><trkpt lat="42.4520483" lon="14.11639"><ele>135.0</ele><time>2026-05-02T06:21:50.285Z</time></trkpt><trkpt lat="42.45198" lon="14.1163583"><ele>136.00000000000003</ele><time>2026-05-02T06:21:51.285Z</time></trkpt><trkpt lat="42.4519133" lon="14.1163433"><ele>137.0</ele><time>2026-05-02T06:21:52.285Z</time></trkpt><trkpt lat="42.4518483" lon="14.1163367"><ele>137.0</ele><time>2026-05-02T06:21:53.285Z</time></trkpt><trkpt lat="42.4517817" lon="14.1163383"><ele>137.0</ele><time>2026-05-02T06:21:54.285Z</time></trkpt><trkpt lat="42.4516617" lon="14.116345"><ele>137.0</ele><time>2026-05-02T06:21:56.285Z</time></trkpt><trkpt lat="42.4515433" lon="14.116355"><ele>137.0</ele><time>2026-05-02T06:21:58.286Z</time></trkpt><trkpt lat="42.45148" lon="14.1163583"><ele>137.0</ele><time>2026-05-02T06:21:59.285Z</time></trkpt><trkpt lat="42.4513717" lon="14.1163383"><ele>133.2</ele><time>2026-05-02T06:22:01.286Z</time></trkpt><trkpt lat="42.4512783" lon="14.1162917"><ele>129.39999999999998</ele><time>2026-05-02T06:22:03.285Z</time></trkpt><trkpt lat="42.4512133" lon="14.1162383"><ele>125.60000000000001</ele><time>2026-05-02T06:22:05.285Z</time></trkpt><trkpt lat="42.451155" lon="14.1161567"><ele>121.80000000000001</ele><time>2026-05-02T06:22:08.285Z</time></trkpt><trkpt lat="42.4510286" lon="14.116161"><ele>118.0</ele><time>2026-05-02T06:22:16.359Z</time></trkpt><trkpt lat="42.450949" lon="14.1162232"><ele>118.00000000000001</ele><time>2026-05-02T06:22:19.336Z</time></trkpt><trkpt lat="42.450877" lon="14.1162869"><ele>118.0</ele><time>2026-05-02T06:22:22.313Z</time></trkpt><trkpt lat="42.4507959" lon="14.1163303"><ele>118.0</ele><time>2026-05-02T06:22:25.397Z</time></trkpt><trkpt lat="42.450708" lon="14.1163629"><ele>118.0</ele><time>2026-05-02T06:22:28.409Z</time></trkpt><trkpt lat="42.4506432" lon="14.1163917"><ele>118.00000000000001</ele><time>2026-05-02T06:22:30.394Z</time></trkpt><trkpt lat="42.4505854" lon="14.1164317"><ele>118.0</ele><time>2026-05-02T06:22:32.307Z</time></trkpt><trkpt lat="42.4505202" lon="14.1164905"><ele>118.00000000000001</ele><time>2026-05-02T06:22:35.209Z</time></trkpt><trkpt lat="42.4504627" lon="14.1165381"><ele>118.0</ele><time>2026-05-02T06:22:37.248Z</time></trkpt><trkpt lat="42.4504073" lon="14.1165874"><ele>118.0</ele><time>2026-05-02T06:22:39.332Z</time></trkpt><trkpt lat="42.4503362" lon="14.116646"><ele>118.0</ele><time>2026-05-02T06:22:41.343Z</time></trkpt><trkpt lat="42.4502678" lon="14.1166891"><ele>118.00000000000001</ele><time>2026-05-02T06:22:43.363Z</time></trkpt><trkpt lat="42.4501937" lon="14.1167708"><ele>118.0</ele><time>2026-05-02T06:22:45.383Z</time></trkpt><trkpt lat="42.4501236" lon="14.1168329"><ele>115.80000000000001</ele><time>2026-05-02T06:22:47.298Z</time></trkpt><trkpt lat="42.450005" lon="14.1169767"><ele>113.60000000000001</ele><time>2026-05-02T06:22:48.285Z</time></trkpt><trkpt lat="42.4499267" lon="14.11704"><ele>111.39999999999999</ele><time>2026-05-02T06:22:51.286Z</time></trkpt><trkpt lat="42.4498517" lon="14.117095"><ele>109.19999999999999</ele><time>2026-05-02T06:22:54.285Z</time></trkpt><trkpt lat="42.44979" lon="14.11713"><ele>107.0</ele><time>2026-05-02T06:22:56.285Z</time></trkpt><trkpt lat="42.4497161" lon="14.1171548"><ele>104.5</ele><time>2026-05-02T06:22:59.417Z</time></trkpt><trkpt lat="42.4496077" lon="14.1172036"><ele>102.0</ele><time>2026-05-02T06:23:01.285Z</time></trkpt><trkpt lat="42.449475" lon="14.1172267"><ele>99.5</ele><time>2026-05-02T06:23:03.285Z</time></trkpt><trkpt lat="42.4493633" lon="14.1172083"><ele>97.0</ele><time>2026-05-02T06:23:05.285Z</time></trkpt><trkpt lat="42.4492417" lon="14.1171817"><ele>97.00000000000001</ele><time>2026-05-02T06:23:07.285Z</time></trkpt><trkpt lat="42.4491767" lon="14.1171667"><ele>97.0</ele><time>2026-05-02T06:23:08.285Z</time></trkpt><trkpt lat="42.449115" lon="14.1171483"><ele>97.0</ele><time>2026-05-02T06:23:09.285Z</time></trkpt><trkpt lat="42.4490017" lon="14.1171183"><ele>97.0</ele><time>2026-05-02T06:23:11.285Z</time></trkpt><trkpt lat="42.448905" lon="14.11709"><ele>97.00000000000001</ele><time>2026-05-02T06:23:13.285Z</time></trkpt><trkpt lat="42.448805" lon="14.1170683"><ele>97.0</ele><time>2026-05-02T06:23:15.285Z</time></trkpt><trkpt lat="42.448715" lon="14.1170633"><ele>96.71428571428571</ele><time>2026-05-02T06:23:17.285Z</time></trkpt><trkpt lat="42.4486367" lon="14.11707"><ele>96.42857142857143</ele><time>2026-05-02T06:23:19.285Z</time></trkpt><trkpt lat="42.44858" lon="14.1171133"><ele>96.14285714285714</ele><time>2026-05-02T06:23:22.285Z</time></trkpt><trkpt lat="42.4485383" lon="14.1171783"><ele>95.85714285714286</ele><time>2026-05-02T06:23:28.285Z</time></trkpt><trkpt lat="42.4485183" lon="14.1172683"><ele>95.57142857142858</ele><time>2026-05-02T06:23:31.285Z</time></trkpt><trkpt lat="42.4485167" lon="14.1173867"><ele>95.28571428571429</ele><time>2026-05-02T06:23:34.285Z</time></trkpt><trkpt lat="42.4484817" lon="14.1174633"><ele>95.0</ele><time>2026-05-02T06:23:36.285Z</time></trkpt><trkpt lat="42.4484983" lon="14.1176033"><ele>94.0</ele><time>2026-05-02T06:23:43.285Z</time></trkpt><trkpt lat="42.4485067" lon="14.117695"><ele>93.0</ele><time>2026-05-02T06:23:45.285Z</time></trkpt><trkpt lat="42.4485333" lon="14.11781"><ele>92.0</ele><time>2026-05-02T06:23:48.285Z</time></trkpt><trkpt lat="42.44855" lon="14.1178983"><ele>91.0</ele><time>2026-05-02T06:23:50.285Z</time></trkpt><trkpt lat="42.4485583" lon="14.1179867"><ele>90.0</ele><time>2026-05-02T06:23:52.285Z</time></trkpt><trkpt lat="42.4485059" lon="14.1180623"><ele>89.0</ele><time>2026-05-02T06:24:00.331Z</time></trkpt><trkpt lat="42.448535" lon="14.1181717"><ele>89.0</ele><time>2026-05-02T06:25:57.285Z</time></trkpt><trkpt lat="42.44854" lon="14.1182683"><ele>89.0</ele><time>2026-05-02T06:25:59.285Z</time></trkpt><trkpt lat="42.4485567" lon="14.1183783"><ele>89.0</ele><time>2026-05-02T06:26:01.285Z</time></trkpt><trkpt lat="42.4485717" lon="14.1184833"><ele>89.0</ele><time>2026-05-02T06:26:03.285Z</time></trkpt><trkpt lat="42.448585" lon="14.11859"><ele>89.0</ele><time>2026-05-02T06:26:05.285Z</time></trkpt><trkpt lat="42.448595" lon="14.1186767"><ele>89.0</ele><time>2026-05-02T06:26:07.285Z</time></trkpt><trkpt lat="42.4486083" lon="14.1187767"><ele>89.0</ele><time>2026-05-02T06:26:10.285Z</time></trkpt><trkpt lat="42.44862" lon="14.11897"><ele>89.0</ele><time>2026-05-02T06:26:51.286Z</time></trkpt><trkpt lat="42.4486367" lon="14.119135"><ele>89.0</ele><time>2026-05-02T06:26:53.285Z</time></trkpt><trkpt lat="42.44864" lon="14.1192467"><ele>89.0</ele><time>2026-05-02T06:26:55.285Z</time></trkpt><trkpt lat="42.44864" lon="14.11935"><ele>89.0</ele><time>2026-05-02T06:26:57.285Z</time></trkpt><trkpt lat="42.4486417" lon="14.11946"><ele>90.16666666666667</ele><time>2026-05-02T06:26:59.285Z</time></trkpt><trkpt lat="42.4486417" lon="14.1196033"><ele>91.33333333333334</ele><time>2026-05-02T06:27:05.286Z</time></trkpt><trkpt lat="42.448655" lon="14.1196983"><ele>92.5</ele><time>2026-05-02T06:27:08.285Z</time></trkpt><trkpt lat="42.448655" lon="14.1198233"><ele>93.66666666666667</ele><time>2026-05-02T06:27:11.286Z</time></trkpt><trkpt lat="42.4486633" lon="14.1199233"><ele>94.83333333333333</ele><time>2026-05-02T06:27:14.285Z</time></trkpt><trkpt lat="42.448665" lon="14.1200217"><ele>96.0</ele><time>2026-05-02T06:27:17.285Z</time></trkpt><trkpt lat="42.4486633" lon="14.1201317"><ele>97.66666666666667</ele><time>2026-05-02T06:27:20.285Z</time></trkpt><trkpt lat="42.4486667" lon="14.1202233"><ele>99.33333333333334</ele><time>2026-05-02T06:27:22.286Z</time></trkpt><trkpt lat="42.4486717" lon="14.1203167"><ele>101.0</ele><time>2026-05-02T06:27:25.285Z</time></trkpt><trkpt lat="42.4486717" lon="14.1204233"><ele>102.66666666666667</ele><time>2026-05-02T06:27:30.285Z</time></trkpt><trkpt lat="42.4486783" lon="14.12054"><ele>104.33333333333334</ele><time>2026-05-02T06:27:33.285Z</time></trkpt><trkpt lat="42.4486817" lon="14.1206517"><ele>106.0</ele><time>2026-05-02T06:27:36.285Z</time></trkpt><trkpt lat="42.4486817" lon="14.12076"><ele>107.71428571428572</ele><time>2026-05-02T06:27:40.285Z</time></trkpt><trkpt lat="42.4486783" lon="14.1208633"><ele>109.42857142857142</ele><time>2026-05-02T06:27:43.285Z</time></trkpt><trkpt lat="42.4486767" lon="14.1209717"><ele>111.14285714285714</ele><time>2026-05-02T06:27:46.285Z</time></trkpt><trkpt lat="42.4486767" lon="14.121065"><ele>112.85714285714286</ele><time>2026-05-02T06:27:48.285Z</time></trkpt><trkpt lat="42.44867" lon="14.121155"><ele>114.57142857142858</ele><time>2026-05-02T06:27:50.285Z</time></trkpt><trkpt lat="42.448685" lon="14.1212417"><ele>116.28571428571428</ele><time>2026-05-02T06:27:52.285Z</time></trkpt><trkpt lat="42.44869" lon="14.1213283"><ele>118.0</ele><time>2026-05-02T06:27:54.285Z</time></trkpt><trkpt lat="42.4486917" lon="14.121455"><ele>118.0</ele><time>2026-05-02T06:27:57.285Z</time></trkpt><trkpt lat="42.4486933" lon="14.1215533"><ele>118.00000000000001</ele><time>2026-05-02T06:27:59.285Z</time></trkpt><trkpt lat="42.4486967" lon="14.1216583"><ele>118.00000000000001</ele><time>2026-05-02T06:28:01.285Z</time></trkpt><trkpt lat="42.4487183" lon="14.1217683"><ele>118.0</ele><time>2026-05-02T06:28:03.286Z</time></trkpt><trkpt lat="42.4487383" lon="14.1219067"><ele>118.0</ele><time>2026-05-02T06:28:05.285Z</time></trkpt><trkpt lat="42.4487583" lon="14.1220633"><ele>119.60000000000001</ele><time>2026-05-02T06:28:07.285Z</time></trkpt><trkpt lat="42.448795" lon="14.1222067"><ele>121.20000000000002</ele><time>2026-05-02T06:28:09.285Z</time></trkpt><trkpt lat="42.4488267" lon="14.1223217"><ele>122.8</ele><time>2026-05-02T06:28:11.285Z</time></trkpt><trkpt lat="42.4488733" lon="14.1224483"><ele>124.4</ele><time>2026-05-02T06:28:13.285Z</time></trkpt><trkpt lat="42.448905" lon="14.1225467"><ele>126.0</ele><time>2026-05-02T06:28:15.285Z</time></trkpt><trkpt lat="42.4488317" lon="14.12261"><ele>126.19999999999999</ele><time>2026-05-02T06:28:19.285Z</time></trkpt><trkpt lat="42.4487267" lon="14.1225933"><ele>126.39999999999999</ele><time>2026-05-02T06:31:57.284Z</time></trkpt><trkpt lat="42.4486233" lon="14.12256"><ele>126.6</ele><time>2026-05-02T06:31:59.284Z</time></trkpt><trkpt lat="42.4485333" lon="14.12251"><ele>126.8</ele><time>2026-05-02T06:32:00.284Z</time></trkpt><trkpt lat="42.44844" lon="14.1224533"><ele>127.0</ele><time>2026-05-02T06:32:01.284Z</time></trkpt><trkpt lat="42.4483517" lon="14.1223917"><ele>127.0</ele><time>2026-05-02T06:32:02.284Z</time></trkpt><trkpt lat="42.4482633" lon="14.1223383"><ele>126.99999999999999</ele><time>2026-05-02T06:32:03.284Z</time></trkpt><trkpt lat="42.4481683" lon="14.1222733"><ele>126.99999999999999</ele><time>2026-05-02T06:32:04.284Z</time></trkpt><trkpt lat="42.448075" lon="14.1222117"><ele>127.0</ele><time>2026-05-02T06:32:05.284Z</time></trkpt><trkpt lat="42.447975" lon="14.122145"><ele>127.0</ele><time>2026-05-02T06:32:06.285Z</time></trkpt><trkpt lat="42.4478783" lon="14.1220733"><ele>128.6</ele><time>2026-05-02T06:32:07.284Z</time></trkpt><trkpt lat="42.4477867" lon="14.122005"><ele>130.2</ele><time>2026-05-02T06:32:08.284Z</time></trkpt><trkpt lat="42.447705" lon="14.121935"><ele>131.8</ele><time>2026-05-02T06:32:09.284Z</time></trkpt><trkpt lat="42.44762" lon="14.1218717"><ele>133.4</ele><time>2026-05-02T06:32:10.284Z</time></trkpt><trkpt lat="42.447545" lon="14.1218283"><ele>135.0</ele><time>2026-05-02T06:32:11.284Z</time></trkpt><trkpt lat="42.4474583" lon="14.1217867"><ele>135.0</ele><time>2026-05-02T06:32:12.284Z</time></trkpt><trkpt lat="42.4473633" lon="14.1217633"><ele>135.0</ele><time>2026-05-02T06:32:13.284Z</time></trkpt><trkpt lat="42.4472667" lon="14.12176"><ele>135.0</ele><time>2026-05-02T06:32:14.284Z</time></trkpt><trkpt lat="42.4471767" lon="14.121745"><ele>135.0</ele><time>2026-05-02T06:32:15.284Z</time></trkpt><trkpt lat="42.4470967" lon="14.12173"><ele>135.0</ele><time>2026-05-02T06:32:16.284Z</time></trkpt><trkpt lat="42.447005" lon="14.1217233"><ele>134.4</ele><time>2026-05-02T06:32:17.284Z</time></trkpt><trkpt lat="42.4469117" lon="14.1217133"><ele>133.8</ele><time>2026-05-02T06:32:18.284Z</time></trkpt><trkpt lat="42.44681" lon="14.12171"><ele>133.2</ele><time>2026-05-02T06:32:19.284Z</time></trkpt><trkpt lat="42.446695" lon="14.12171"><ele>132.6</ele><time>2026-05-02T06:32:20.284Z</time></trkpt><trkpt lat="42.446585" lon="14.1217267"><ele>132.0</ele><time>2026-05-02T06:32:21.284Z</time></trkpt><trkpt lat="42.4464783" lon="14.121755"><ele>132.0</ele><time>2026-05-02T06:32:22.284Z</time></trkpt><trkpt lat="42.44637" lon="14.1217867"><ele>132.0</ele><time>2026-05-02T06:32:23.284Z</time></trkpt><trkpt lat="42.4462683" lon="14.1218117"><ele>132.0</ele><time>2026-05-02T06:32:24.284Z</time></trkpt><trkpt lat="42.4461633" lon="14.1218267"><ele>132.0</ele><time>2026-05-02T06:32:25.284Z</time></trkpt><trkpt lat="42.4460517" lon="14.12185"><ele>132.0</ele><time>2026-05-02T06:32:26.284Z</time></trkpt><trkpt lat="42.44595" lon="14.1218767"><ele>131.2</ele><time>2026-05-02T06:32:27.284Z</time></trkpt><trkpt lat="42.4458517" lon="14.121915"><ele>130.39999999999998</ele><time>2026-05-02T06:32:28.284Z</time></trkpt><trkpt lat="42.4457617" lon="14.1219583"><ele>129.60000000000002</ele><time>2026-05-02T06:32:29.284Z</time></trkpt><trkpt lat="42.445675" lon="14.1220283"><ele>128.8</ele><time>2026-05-02T06:32:30.284Z</time></trkpt><trkpt lat="42.4455983" lon="14.1221183"><ele>128.0</ele><time>2026-05-02T06:32:31.284Z</time></trkpt><trkpt lat="42.4455167" lon="14.1222233"><ele>127.5</ele><time>2026-05-02T06:32:32.284Z</time></trkpt><trkpt lat="42.4454283" lon="14.122335"><ele>127.0</ele><time>2026-05-02T06:32:33.284Z</time></trkpt><trkpt lat="42.4453383" lon="14.12244"><ele>126.5</ele><time>2026-05-02T06:32:34.284Z</time></trkpt><trkpt lat="42.4452467" lon="14.1225267"><ele>126.0</ele><time>2026-05-02T06:32:35.284Z</time></trkpt><trkpt lat="42.4451533" lon="14.122595"><ele>126.0</ele><time>2026-05-02T06:32:36.284Z</time></trkpt><trkpt lat="42.445045" lon="14.122655"><ele>126.0</ele><time>2026-05-02T06:32:37.284Z</time></trkpt><trkpt lat="42.4449333" lon="14.1227133"><ele>126.0</ele><time>2026-05-02T06:32:38.284Z</time></trkpt><trkpt lat="42.4448283" lon="14.1227833"><ele>126.0</ele><time>2026-05-02T06:32:39.284Z</time></trkpt><trkpt lat="42.4447317" lon="14.1228683"><ele>126.0</ele><time>2026-05-02T06:32:40.284Z</time></trkpt><trkpt lat="42.4446417" lon="14.1229667"><ele>126.0</ele><time>2026-05-02T06:32:41.284Z</time></trkpt><trkpt lat="42.4445517" lon="14.1230883"><ele>126.0</ele><time>2026-05-02T06:32:42.284Z</time></trkpt><trkpt lat="42.44446" lon="14.1232"><ele>126.0</ele><time>2026-05-02T06:32:43.285Z</time></trkpt><trkpt lat="42.44437" lon="14.1232983"><ele>124.6</ele><time>2026-05-02T06:32:44.284Z</time></trkpt><trkpt lat="42.44428" lon="14.123365"><ele>123.19999999999999</ele><time>2026-05-02T06:32:45.284Z</time></trkpt><trkpt lat="42.4441967" lon="14.1234117"><ele>121.80000000000001</ele><time>2026-05-02T06:32:46.284Z</time></trkpt><trkpt lat="42.4441033" lon="14.1234233"><ele>120.4</ele><time>2026-05-02T06:32:47.284Z</time></trkpt><trkpt lat="42.44399" lon="14.123415"><ele>119.0</ele><time>2026-05-02T06:32:48.284Z</time></trkpt><trkpt lat="42.443865" lon="14.1234117"><ele>116.33333333333333</ele><time>2026-05-02T06:32:49.284Z</time></trkpt><trkpt lat="42.4437283" lon="14.1234333"><ele>113.66666666666666</ele><time>2026-05-02T06:32:50.284Z</time></trkpt><trkpt lat="42.4435783" lon="14.123485"><ele>111.0</ele><time>2026-05-02T06:32:51.284Z</time></trkpt><trkpt lat="42.4434167" lon="14.1235417"><ele>111.0</ele><time>2026-05-02T06:32:52.284Z</time></trkpt><trkpt lat="42.4432583" lon="14.1235983"><ele>111.0</ele><time>2026-05-02T06:32:53.284Z</time></trkpt><trkpt lat="42.4431083" lon="14.1236417"><ele>111.0</ele><time>2026-05-02T06:32:54.284Z</time></trkpt><trkpt lat="42.4429533" lon="14.1236983"><ele>109.0</ele><time>2026-05-02T06:32:55.284Z</time></trkpt><trkpt lat="42.4427917" lon="14.1237533"><ele>107.0</ele><time>2026-05-02T06:32:56.284Z</time></trkpt><trkpt lat="42.4426267" lon="14.1237983"><ele>105.0</ele><time>2026-05-02T06:32:57.284Z</time></trkpt><trkpt lat="42.4424767" lon="14.1238367"><ele>105.0</ele><time>2026-05-02T06:32:58.284Z</time></trkpt><trkpt lat="42.4423283" lon="14.12387"><ele>105.0</ele><time>2026-05-02T06:32:59.284Z</time></trkpt><trkpt lat="42.4421933" lon="14.1238917"><ele>105.0</ele><time>2026-05-02T06:33:00.284Z</time></trkpt><trkpt lat="42.44205" lon="14.1239033"><ele>105.0</ele><time>2026-05-02T06:33:01.284Z</time></trkpt><trkpt lat="42.441905" lon="14.1238967"><ele>107.0</ele><time>2026-05-02T06:33:02.284Z</time></trkpt><trkpt lat="42.4417617" lon="14.1238867"><ele>109.0</ele><time>2026-05-02T06:33:03.284Z</time></trkpt><trkpt lat="42.4416233" lon="14.12386"><ele>111.0</ele><time>2026-05-02T06:33:04.284Z</time></trkpt><trkpt lat="42.4415017" lon="14.1238317"><ele>113.0</ele><time>2026-05-02T06:33:05.284Z</time></trkpt><trkpt lat="42.44139" lon="14.1237917"><ele>111.25</ele><time>2026-05-02T06:33:06.284Z</time></trkpt><trkpt lat="42.4412783" lon="14.1237333"><ele>109.5</ele><time>2026-05-02T06:33:07.284Z</time></trkpt><trkpt lat="42.44116" lon="14.1236467"><ele>107.75</ele><time>2026-05-02T06:33:08.284Z</time></trkpt><trkpt lat="42.4410267" lon="14.1235717"><ele>106.0</ele><time>2026-05-02T06:33:09.284Z</time></trkpt><trkpt lat="42.4408967" lon="14.123495"><ele>106.0</ele><time>2026-05-02T06:33:10.284Z</time></trkpt><trkpt lat="42.4407633" lon="14.1234267"><ele>106.0</ele><time>2026-05-02T06:33:11.284Z</time></trkpt><trkpt lat="42.4406367" lon="14.1233617"><ele>106.0</ele><time>2026-05-02T06:33:12.284Z</time></trkpt><trkpt lat="42.44052" lon="14.1232983"><ele>106.0</ele><time>2026-05-02T06:33:13.284Z</time></trkpt><trkpt lat="42.4403967" lon="14.1232567"><ele>106.25</ele><time>2026-05-02T06:33:14.284Z</time></trkpt><trkpt lat="42.440275" lon="14.1232183"><ele>106.5</ele><time>2026-05-02T06:33:15.284Z</time></trkpt><trkpt lat="42.4401483" lon="14.1231983"><ele>106.75</ele><time>2026-05-02T06:33:16.284Z</time></trkpt><trkpt lat="42.4400167" lon="14.123195"><ele>107.0</ele><time>2026-05-02T06:33:17.284Z</time></trkpt><trkpt lat="42.4398867" lon="14.1231917"><ele>107.0</ele><time>2026-05-02T06:33:18.284Z</time></trkpt><trkpt lat="42.43976" lon="14.1232017"><ele>107.0</ele><time>2026-05-02T06:33:19.284Z</time></trkpt><trkpt lat="42.4396333" lon="14.1232317"><ele>107.0</ele><time>2026-05-02T06:33:20.284Z</time></trkpt><trkpt lat="42.4395133" lon="14.12327"><ele>107.0</ele><time>2026-05-02T06:33:21.284Z</time></trkpt><trkpt lat="42.4394033" lon="14.12332"><ele>100.25</ele><time>2026-05-02T06:33:22.284Z</time></trkpt><trkpt lat="42.4392867" lon="14.1233683"><ele>93.5</ele><time>2026-05-02T06:33:23.284Z</time></trkpt><trkpt lat="42.4391617" lon="14.12341"><ele>86.75</ele><time>2026-05-02T06:33:24.284Z</time></trkpt><trkpt lat="42.4390317" lon="14.1234517"><ele>80.0</ele><time>2026-05-02T06:33:25.284Z</time></trkpt><trkpt lat="42.4388917" lon="14.1234783"><ele>77.25</ele><time>2026-05-02T06:33:26.284Z</time></trkpt><trkpt lat="42.4387533" lon="14.123495"><ele>74.5</ele><time>2026-05-02T06:33:27.285Z</time></trkpt><trkpt lat="42.4386133" lon="14.12351"><ele>71.75</ele><time>2026-05-02T06:33:28.284Z</time></trkpt><trkpt lat="42.4384733" lon="14.1235483"><ele>69.0</ele><time>2026-05-02T06:33:29.284Z</time></trkpt><trkpt lat="42.4383267" lon="14.123585"><ele>69.0</ele><time>2026-05-02T06:33:30.284Z</time></trkpt><trkpt lat="42.4381917" lon="14.1236233"><ele>69.0</ele><time>2026-05-02T06:33:31.284Z</time></trkpt><trkpt lat="42.4380667" lon="14.12367"><ele>69.0</ele><time>2026-05-02T06:33:32.284Z</time></trkpt><trkpt lat="42.43795" lon="14.1237133"><ele>69.0</ele><time>2026-05-02T06:33:33.284Z</time></trkpt><trkpt lat="42.4378417" lon="14.1237367"><ele>68.83333333333333</ele><time>2026-05-02T06:33:34.284Z</time></trkpt><trkpt lat="42.437745" lon="14.1237517"><ele>68.66666666666667</ele><time>2026-05-02T06:33:35.284Z</time></trkpt><trkpt lat="42.4376567" lon="14.123745"><ele>68.5</ele><time>2026-05-02T06:33:36.285Z</time></trkpt><trkpt lat="42.4375767" lon="14.1237133"><ele>68.33333333333334</ele><time>2026-05-02T06:33:37.284Z</time></trkpt><trkpt lat="42.4374867" lon="14.12367"><ele>68.16666666666667</ele><time>2026-05-02T06:33:38.284Z</time></trkpt><trkpt lat="42.437405" lon="14.1236533"><ele>68.0</ele><time>2026-05-02T06:33:39.284Z</time></trkpt><trkpt lat="42.43733" lon="14.1236383"><ele>68.0</ele><time>2026-05-02T06:33:40.284Z</time></trkpt><trkpt lat="42.4372633" lon="14.1236067"><ele>68.0</ele><time>2026-05-02T06:33:41.284Z</time></trkpt><trkpt lat="42.4371883" lon="14.1235567"><ele>68.0</ele><time>2026-05-02T06:33:42.284Z</time></trkpt><trkpt lat="42.4371033" lon="14.1234983"><ele>68.0</ele><time>2026-05-02T06:33:43.284Z</time></trkpt><trkpt lat="42.43701" lon="14.123435"><ele>68.0</ele><time>2026-05-02T06:33:44.284Z</time></trkpt><trkpt lat="42.4369017" lon="14.12338"><ele>66.0</ele><time>2026-05-02T06:33:45.284Z</time></trkpt><trkpt lat="42.436795" lon="14.1233317"><ele>64.0</ele><time>2026-05-02T06:33:46.284Z</time></trkpt><trkpt lat="42.4366883" lon="14.1232917"><ele>62.0</ele><time>2026-05-02T06:33:47.284Z</time></trkpt><trkpt lat="42.43658" lon="14.1232533"><ele>60.0</ele><time>2026-05-02T06:33:48.283Z</time></trkpt><trkpt lat="42.436465" lon="14.1232183"><ele>60.0</ele><time>2026-05-02T06:33:49.285Z</time></trkpt><trkpt lat="42.4363433" lon="14.1231833"><ele>60.0</ele><time>2026-05-02T06:33:50.284Z</time></trkpt><trkpt lat="42.4362133" lon="14.12315"><ele>60.0</ele><time>2026-05-02T06:33:51.284Z</time></trkpt><trkpt lat="42.4360867" lon="14.1231167"><ele>60.0</ele><time>2026-05-02T06:33:52.284Z</time></trkpt><trkpt lat="42.4359817" lon="14.1230833"><ele>60.8</ele><time>2026-05-02T06:33:53.284Z</time></trkpt><trkpt lat="42.4358767" lon="14.1230483"><ele>61.6</ele><time>2026-05-02T06:33:54.284Z</time></trkpt><trkpt lat="42.4357717" lon="14.1230383"><ele>62.400000000000006</ele><time>2026-05-02T06:33:55.284Z</time></trkpt><trkpt lat="42.4356683" lon="14.1230533"><ele>63.2</ele><time>2026-05-02T06:33:56.284Z</time></trkpt><trkpt lat="42.4355667" lon="14.1231"><ele>64.0</ele><time>2026-05-02T06:33:57.284Z</time></trkpt><trkpt lat="42.435465" lon="14.1231733"><ele>64.66666666666666</ele><time>2026-05-02T06:33:58.284Z</time></trkpt><trkpt lat="42.4353567" lon="14.12328"><ele>65.33333333333333</ele><time>2026-05-02T06:33:59.284Z</time></trkpt><trkpt lat="42.4352283" lon="14.12341"><ele>66.0</ele><time>2026-05-02T06:34:00.284Z</time></trkpt><trkpt lat="42.4351083" lon="14.1235567"><ele>66.0</ele><time>2026-05-02T06:34:01.285Z</time></trkpt><trkpt lat="42.4349783" lon="14.1237133"><ele>66.0</ele><time>2026-05-02T06:34:02.284Z</time></trkpt><trkpt lat="42.4348517" lon="14.1238717"><ele>66.0</ele><time>2026-05-02T06:34:03.284Z</time></trkpt><trkpt lat="42.4347183" lon="14.1240467"><ele>65.33333333333333</ele><time>2026-05-02T06:34:04.284Z</time></trkpt><trkpt lat="42.434595" lon="14.1242283"><ele>64.66666666666666</ele><time>2026-05-02T06:34:05.284Z</time></trkpt><trkpt lat="42.43447" lon="14.1244083"><ele>64.0</ele><time>2026-05-02T06:34:06.284Z</time></trkpt><trkpt lat="42.4343467" lon="14.1245867"><ele>64.0</ele><time>2026-05-02T06:34:07.284Z</time></trkpt><trkpt lat="42.4342167" lon="14.1247633"><ele>64.0</ele><time>2026-05-02T06:34:08.284Z</time></trkpt><trkpt lat="42.4341067" lon="14.12492"><ele>64.0</ele><time>2026-05-02T06:34:09.284Z</time></trkpt><trkpt lat="42.4340033" lon="14.1250617"><ele>63.400000000000006</ele><time>2026-05-02T06:34:10.284Z</time></trkpt><trkpt lat="42.4339167" lon="14.12517"><ele>62.800000000000004</ele><time>2026-05-02T06:34:11.284Z</time></trkpt><trkpt lat="42.4338517" lon="14.1252667"><ele>62.199999999999996</ele><time>2026-05-02T06:34:12.284Z</time></trkpt><trkpt lat="42.4337983" lon="14.1253383"><ele>61.599999999999994</ele><time>2026-05-02T06:34:13.284Z</time></trkpt><trkpt lat="42.43371" lon="14.125405"><ele>61.0</ele><time>2026-05-02T06:34:15.284Z</time></trkpt><trkpt lat="42.433625" lon="14.12536"><ele>61.0</ele><time>2026-05-02T06:34:17.284Z</time></trkpt><trkpt lat="42.4335267" lon="14.125265"><ele>60.99999999999999</ele><time>2026-05-02T06:34:19.284Z</time></trkpt><trkpt lat="42.4334517" lon="14.125205"><ele>60.99999999999999</ele><time>2026-05-02T06:34:21.284Z</time></trkpt><trkpt lat="42.4333667" lon="14.1251817"><ele>61.0</ele><time>2026-05-02T06:34:23.284Z</time></trkpt><trkpt lat="42.4333217" lon="14.125105"><ele>61.0</ele><time>2026-05-02T06:34:25.285Z</time></trkpt><trkpt lat="42.4332233" lon="14.1251767"><ele>60.99999999999999</ele><time>2026-05-02T06:34:28.284Z</time></trkpt><trkpt lat="42.433165" lon="14.1252367"><ele>61.0</ele><time>2026-05-02T06:34:29.284Z</time></trkpt><trkpt lat="42.433105" lon="14.1252983"><ele>61.0</ele><time>2026-05-02T06:34:30.284Z</time></trkpt><trkpt lat="42.4330417" lon="14.12535"><ele>61.0</ele><time>2026-05-02T06:34:31.284Z</time></trkpt><trkpt lat="42.4329733" lon="14.1254067"><ele>60.99999999999999</ele><time>2026-05-02T06:34:32.284Z</time></trkpt><trkpt lat="42.432905" lon="14.1254667"><ele>61.0</ele><time>2026-05-02T06:34:33.284Z</time></trkpt><trkpt lat="42.432835" lon="14.1255183"><ele>61.28571428571428</ele><time>2026-05-02T06:34:34.284Z</time></trkpt><trkpt lat="42.43277" lon="14.1255733"><ele>61.57142857142857</ele><time>2026-05-02T06:34:35.284Z</time></trkpt><trkpt lat="42.4327067" lon="14.1256317"><ele>61.857142857142854</ele><time>2026-05-02T06:34:36.284Z</time></trkpt><trkpt lat="42.4326533" lon="14.1257017"><ele>62.14285714285714</ele><time>2026-05-02T06:34:37.284Z</time></trkpt><trkpt lat="42.432605" lon="14.1257617"><ele>62.42857142857143</ele><time>2026-05-02T06:34:38.284Z</time></trkpt><trkpt lat="42.4325467" lon="14.12582"><ele>62.714285714285715</ele><time>2026-05-02T06:34:39.284Z</time></trkpt><trkpt lat="42.4324767" lon="14.12587"><ele>63.0</ele><time>2026-05-02T06:34:40.284Z</time></trkpt><trkpt lat="42.4324067" lon="14.125895"><ele>63.0</ele><time>2026-05-02T06:34:41.284Z</time></trkpt><trkpt lat="42.432335" lon="14.1259383"><ele>63.0</ele><time>2026-05-02T06:34:42.284Z</time></trkpt><trkpt lat="42.4322467" lon="14.125985"><ele>63.0</ele><time>2026-05-02T06:34:43.285Z</time></trkpt><trkpt lat="42.4321567" lon="14.1260283"><ele>63.0</ele><time>2026-05-02T06:34:44.284Z</time></trkpt><trkpt lat="42.43207" lon="14.1260733"><ele>63.0</ele><time>2026-05-02T06:34:45.284Z</time></trkpt><trkpt lat="42.43199" lon="14.1261317"><ele>64.5</ele><time>2026-05-02T06:34:46.284Z</time></trkpt><trkpt lat="42.431915" lon="14.1261733"><ele>66.0</ele><time>2026-05-02T06:34:47.284Z</time></trkpt><trkpt lat="42.43185" lon="14.1262067"><ele>67.5</ele><time>2026-05-02T06:34:48.285Z</time></trkpt><trkpt lat="42.4317833" lon="14.1262317"><ele>69.0</ele><time>2026-05-02T06:34:49.284Z</time></trkpt><trkpt lat="42.4317117" lon="14.1262583"><ele>70.5</ele><time>2026-05-02T06:34:50.284Z</time></trkpt><trkpt lat="42.4316333" lon="14.126275"><ele>72.0</ele><time>2026-05-02T06:34:51.284Z</time></trkpt><trkpt lat="42.4315533" lon="14.126275"><ele>72.0</ele><time>2026-05-02T06:34:52.284Z</time></trkpt><trkpt lat="42.4314583" lon="14.1262967"><ele>72.0</ele><time>2026-05-02T06:34:53.285Z</time></trkpt><trkpt lat="42.431365" lon="14.1263217"><ele>72.0</ele><time>2026-05-02T06:34:54.284Z</time></trkpt><trkpt lat="42.4312567" lon="14.1263567"><ele>72.0</ele><time>2026-05-02T06:34:55.284Z</time></trkpt><trkpt lat="42.4311483" lon="14.1264"><ele>72.0</ele><time>2026-05-02T06:34:56.284Z</time></trkpt><trkpt lat="42.4310483" lon="14.1264383"><ele>72.8</ele><time>2026-05-02T06:34:57.284Z</time></trkpt><trkpt lat="42.4309533" lon="14.1264833"><ele>73.6</ele><time>2026-05-02T06:34:58.285Z</time></trkpt><trkpt lat="42.4308583" lon="14.12654"><ele>74.39999999999999</ele><time>2026-05-02T06:34:59.284Z</time></trkpt><trkpt lat="42.43078" lon="14.1266217"><ele>75.2</ele><time>2026-05-02T06:35:00.284Z</time></trkpt><trkpt lat="42.4307067" lon="14.1266933"><ele>76.0</ele><time>2026-05-02T06:35:01.285Z</time></trkpt><trkpt lat="42.430645" lon="14.1267583"><ele>76.0</ele><time>2026-05-02T06:35:02.284Z</time></trkpt><trkpt lat="42.4305833" lon="14.1268117"><ele>76.0</ele><time>2026-05-02T06:35:03.284Z</time></trkpt><trkpt lat="42.4304733" lon="14.1268567"><ele>76.0</ele><time>2026-05-02T06:35:05.284Z</time></trkpt><trkpt lat="42.430365" lon="14.1268683"><ele>76.0</ele><time>2026-05-02T06:35:07.284Z</time></trkpt><trkpt lat="42.4302867" lon="14.1268233"><ele>76.0</ele><time>2026-05-02T06:35:09.284Z</time></trkpt><trkpt lat="42.43024" lon="14.1267617"><ele>76.0</ele><time>2026-05-02T06:35:11.284Z</time></trkpt><trkpt lat="42.4301783" lon="14.1266983"><ele>76.83333333333333</ele><time>2026-05-02T06:35:14.284Z</time></trkpt><trkpt lat="42.4301033" lon="14.12672"><ele>77.66666666666666</ele><time>2026-05-02T06:35:17.284Z</time></trkpt><trkpt lat="42.43001" lon="14.1267317"><ele>78.5</ele><time>2026-05-02T06:35:20.284Z</time></trkpt><trkpt lat="42.4299367" lon="14.1267567"><ele>79.33333333333333</ele><time>2026-05-02T06:35:22.285Z</time></trkpt><trkpt lat="42.429875" lon="14.1268"><ele>80.16666666666667</ele><time>2026-05-02T06:35:24.284Z</time></trkpt><trkpt lat="42.4298033" lon="14.1268333"><ele>81.0</ele><time>2026-05-02T06:35:26.284Z</time></trkpt><trkpt lat="42.4297283" lon="14.1268733"><ele>81.0</ele><time>2026-05-02T06:35:28.284Z</time></trkpt><trkpt lat="42.4296667" lon="14.1268983"><ele>81.0</ele><time>2026-05-02T06:35:30.284Z</time></trkpt><trkpt lat="42.4295917" lon="14.12691"><ele>81.0</ele><time>2026-05-02T06:35:32.284Z</time></trkpt><trkpt lat="42.4295117" lon="14.1269233"><ele>81.0</ele><time>2026-05-02T06:35:34.284Z</time></trkpt><trkpt lat="42.42944" lon="14.1269217"><ele>81.0</ele><time>2026-05-02T06:35:36.284Z</time></trkpt><trkpt lat="42.4293575" lon="14.1269107"><ele>81.0</ele><time>2026-05-02T06:35:38.352Z</time></trkpt><trkpt lat="42.4292727" lon="14.1269092"><ele>78.66666666666667</ele><time>2026-05-02T06:35:40.235Z</time></trkpt><trkpt lat="42.4291909" lon="14.1269055"><ele>76.33333333333333</ele><time>2026-05-02T06:35:42.393Z</time></trkpt><trkpt lat="42.4291118" lon="14.1268925"><ele>74.0</ele><time>2026-05-02T06:35:44.415Z</time></trkpt><trkpt lat="42.4290216" lon="14.1268653"><ele>71.66666666666666</ele><time>2026-05-02T06:35:46.327Z</time></trkpt><trkpt lat="42.4289283" lon="14.126835"><ele>69.33333333333333</ele><time>2026-05-02T06:35:48.284Z</time></trkpt><trkpt lat="42.4288517" lon="14.126775"><ele>67.0</ele><time>2026-05-02T06:35:50.284Z</time></trkpt><trkpt lat="42.4287833" lon="14.1266883"><ele>65.4</ele><time>2026-05-02T06:35:52.284Z</time></trkpt><trkpt lat="42.4287333" lon="14.1265967"><ele>63.800000000000004</ele><time>2026-05-02T06:35:54.284Z</time></trkpt><trkpt lat="42.4286833" lon="14.1264917"><ele>62.2</ele><time>2026-05-02T06:35:56.285Z</time></trkpt><trkpt lat="42.428635" lon="14.1263917"><ele>60.6</ele><time>2026-05-02T06:35:58.284Z</time></trkpt><trkpt lat="42.428565" lon="14.1262883"><ele>59.0</ele><time>2026-05-02T06:36:00.284Z</time></trkpt><trkpt lat="42.42849" lon="14.126195"><ele>57.833333333333336</ele><time>2026-05-02T06:36:02.284Z</time></trkpt><trkpt lat="42.4283967" lon="14.126115"><ele>56.66666666666667</ele><time>2026-05-02T06:36:04.284Z</time></trkpt><trkpt lat="42.4282783" lon="14.1260633"><ele>55.5</ele><time>2026-05-02T06:36:06.284Z</time></trkpt><trkpt lat="42.428215" lon="14.1260467"><ele>54.33333333333333</ele><time>2026-05-02T06:36:07.284Z</time></trkpt><trkpt lat="42.42815" lon="14.12605"><ele>53.166666666666664</ele><time>2026-05-02T06:36:08.284Z</time></trkpt><trkpt lat="42.4280867" lon="14.126055"><ele>52.0</ele><time>2026-05-02T06:36:09.284Z</time></trkpt><trkpt lat="42.4279667" lon="14.126065"><ele>50.83333333333333</ele><time>2026-05-02T06:36:11.284Z</time></trkpt><trkpt lat="42.4278467" lon="14.1260467"><ele>49.666666666666664</ele><time>2026-05-02T06:36:13.284Z</time></trkpt><trkpt lat="42.4277733" lon="14.1260233"><ele>48.5</ele><time>2026-05-02T06:36:14.284Z</time></trkpt><trkpt lat="42.4276983" lon="14.1259983"><ele>47.33333333333333</ele><time>2026-05-02T06:36:15.284Z</time></trkpt><trkpt lat="42.42763" lon="14.1259683"><ele>46.166666666666664</ele><time>2026-05-02T06:36:16.284Z</time></trkpt><trkpt lat="42.42757" lon="14.1259333"><ele>45.0</ele><time>2026-05-02T06:36:17.284Z</time></trkpt><trkpt lat="42.4275117" lon="14.125895"><ele>45.0</ele><time>2026-05-02T06:36:18.284Z</time></trkpt><trkpt lat="42.4274517" lon="14.1258517"><ele>45.0</ele><time>2026-05-02T06:36:19.284Z</time></trkpt><trkpt lat="42.427385" lon="14.1258117"><ele>45.0</ele><time>2026-05-02T06:36:20.284Z</time></trkpt><trkpt lat="42.42732" lon="14.12578"><ele>45.0</ele><time>2026-05-02T06:36:21.284Z</time></trkpt><trkpt lat="42.4272033" lon="14.1257433"><ele>45.0</ele><time>2026-05-02T06:36:23.284Z</time></trkpt><trkpt lat="42.4271017" lon="14.1257283"><ele>45.0</ele><time>2026-05-02T06:36:25.284Z</time></trkpt><trkpt lat="42.4270117" lon="14.1257133"><ele>43.5</ele><time>2026-05-02T06:36:27.284Z</time></trkpt><trkpt lat="42.4269283" lon="14.1256783"><ele>42.0</ele><time>2026-05-02T06:36:29.284Z</time></trkpt><trkpt lat="42.4268667" lon="14.1256167"><ele>40.5</ele><time>2026-05-02T06:36:31.285Z</time></trkpt><trkpt lat="42.4267917" lon="14.12553"><ele>39.0</ele><time>2026-05-02T06:36:39.284Z</time></trkpt><trkpt lat="42.426805" lon="14.1253983"><ele>37.5</ele><time>2026-05-02T06:36:41.284Z</time></trkpt><trkpt lat="42.426825" lon="14.1253017"><ele>36.0</ele><time>2026-05-02T06:36:42.285Z</time></trkpt><trkpt lat="42.426845" lon="14.1251883"><ele>36.0</ele><time>2026-05-02T06:36:43.284Z</time></trkpt><trkpt lat="42.42687" lon="14.1250617"><ele>36.0</ele><time>2026-05-02T06:36:44.284Z</time></trkpt><trkpt lat="42.4268917" lon="14.1249217"><ele>36.0</ele><time>2026-05-02T06:36:45.284Z</time></trkpt><trkpt lat="42.42692" lon="14.124775"><ele>36.0</ele><time>2026-05-02T06:36:46.284Z</time></trkpt><trkpt lat="42.4269467" lon="14.1246417"><ele>36.0</ele><time>2026-05-02T06:36:47.284Z</time></trkpt><trkpt lat="42.42697" lon="14.1245333"><ele>36.5</ele><time>2026-05-02T06:36:48.284Z</time></trkpt><trkpt lat="42.426985" lon="14.12445"><ele>37.0</ele><time>2026-05-02T06:36:49.284Z</time></trkpt><trkpt lat="42.4269833" lon="14.1243233"><ele>37.5</ele><time>2026-05-02T06:36:51.284Z</time></trkpt><trkpt lat="42.4269117" lon="14.1242917"><ele>38.0</ele><time>2026-05-02T06:36:53.284Z</time></trkpt><trkpt lat="42.4268" lon="14.1243167"><ele>38.5</ele><time>2026-05-02T06:36:55.284Z</time></trkpt><trkpt lat="42.4267283" lon="14.1242817"><ele>39.0</ele><time>2026-05-02T06:36:56.284Z</time></trkpt><trkpt lat="42.4266517" lon="14.12423"><ele>39.0</ele><time>2026-05-02T06:36:57.284Z</time></trkpt><trkpt lat="42.4265767" lon="14.124155"><ele>39.0</ele><time>2026-05-02T06:36:58.284Z</time></trkpt><trkpt lat="42.4265067" lon="14.1240633"><ele>39.0</ele><time>2026-05-02T06:36:59.284Z</time></trkpt><trkpt lat="42.4264483" lon="14.1239467"><ele>39.0</ele><time>2026-05-02T06:37:00.284Z</time></trkpt><trkpt lat="42.426395" lon="14.1238017"><ele>39.0</ele><time>2026-05-02T06:37:01.284Z</time></trkpt><trkpt lat="42.426355" lon="14.1236433"><ele>38.75</ele><time>2026-05-02T06:37:02.284Z</time></trkpt><trkpt lat="42.426325" lon="14.1234667"><ele>38.5</ele><time>2026-05-02T06:37:03.284Z</time></trkpt><trkpt lat="42.4263" lon="14.1232917"><ele>38.25</ele><time>2026-05-02T06:37:04.284Z</time></trkpt><trkpt lat="42.42627" lon="14.1231"><ele>38.0</ele><time>2026-05-02T06:37:05.284Z</time></trkpt><trkpt lat="42.4262433" lon="14.1229"><ele>38.0</ele><time>2026-05-02T06:37:06.284Z</time></trkpt><trkpt lat="42.426215" lon="14.1226783"><ele>38.0</ele><time>2026-05-02T06:37:07.284Z</time></trkpt><trkpt lat="42.4261817" lon="14.1224667"><ele>38.0</ele><time>2026-05-02T06:37:08.284Z</time></trkpt><trkpt lat="42.4261517" lon="14.1222583"><ele>38.25</ele><time>2026-05-02T06:37:09.284Z</time></trkpt><trkpt lat="42.426125" lon="14.1220567"><ele>38.5</ele><time>2026-05-02T06:37:10.284Z</time></trkpt><trkpt lat="42.4261017" lon="14.1218567"><ele>38.75</ele><time>2026-05-02T06:37:11.284Z</time></trkpt><trkpt lat="42.42608" lon="14.12166"><ele>39.0</ele><time>2026-05-02T06:37:12.284Z</time></trkpt><trkpt lat="42.42605" lon="14.12146"><ele>39.5</ele><time>2026-05-02T06:37:13.284Z</time></trkpt><trkpt lat="42.4260167" lon="14.12127"><ele>40.0</ele><time>2026-05-02T06:37:14.284Z</time></trkpt><trkpt lat="42.42598" lon="14.121075"><ele>40.5</ele><time>2026-05-02T06:37:15.284Z</time></trkpt><trkpt lat="42.425935" lon="14.1208917"><ele>41.0</ele><time>2026-05-02T06:37:16.284Z</time></trkpt><trkpt lat="42.42588" lon="14.1207067"><ele>42.0</ele><time>2026-05-02T06:37:17.284Z</time></trkpt><trkpt lat="42.42582" lon="14.1205167"><ele>43.0</ele><time>2026-05-02T06:37:18.284Z</time></trkpt><trkpt lat="42.42575" lon="14.1203433"><ele>44.0</ele><time>2026-05-02T06:37:19.284Z</time></trkpt><trkpt lat="42.4256867" lon="14.12017"><ele>45.0</ele><time>2026-05-02T06:37:20.285Z</time></trkpt><trkpt lat="42.4256267" lon="14.12"><ele>46.5</ele><time>2026-05-02T06:37:21.284Z</time></trkpt><trkpt lat="42.4255733" lon="14.1198367"><ele>48.0</ele><time>2026-05-02T06:37:22.284Z</time></trkpt><trkpt lat="42.4255283" lon="14.1196633"><ele>49.5</ele><time>2026-05-02T06:37:23.284Z</time></trkpt><trkpt lat="42.4254867" lon="14.1194817"><ele>51.0</ele><time>2026-05-02T06:37:24.284Z</time></trkpt><trkpt lat="42.4254483" lon="14.1192833"><ele>47.0</ele><time>2026-05-02T06:37:25.284Z</time></trkpt><trkpt lat="42.4254083" lon="14.119075"><ele>43.0</ele><time>2026-05-02T06:37:26.284Z</time></trkpt><trkpt lat="42.4253667" lon="14.1188467"><ele>39.0</ele><time>2026-05-02T06:37:27.284Z</time></trkpt><trkpt lat="42.4253367" lon="14.1185933"><ele>39.0</ele><time>2026-05-02T06:37:28.284Z</time></trkpt><trkpt lat="42.4253017" lon="14.11833"><ele>39.0</ele><time>2026-05-02T06:37:29.284Z</time></trkpt><trkpt lat="42.4252583" lon="14.1180633"><ele>39.0</ele><time>2026-05-02T06:37:30.284Z</time></trkpt><trkpt lat="42.425205" lon="14.1177817"><ele>39.5</ele><time>2026-05-02T06:37:31.284Z</time></trkpt><trkpt lat="42.4251583" lon="14.1174883"><ele>40.0</ele><time>2026-05-02T06:37:32.284Z</time></trkpt><trkpt lat="42.4251117" lon="14.1171767"><ele>42.0</ele><time>2026-05-02T06:37:33.284Z</time></trkpt><trkpt lat="42.4250783" lon="14.1168533"><ele>44.0</ele><time>2026-05-02T06:37:34.284Z</time></trkpt><trkpt lat="42.4250467" lon="14.1165167"><ele>44.0</ele><time>2026-05-02T06:37:35.285Z</time></trkpt><trkpt lat="42.425035" lon="14.1161633"><ele>44.0</ele><time>2026-05-02T06:37:36.284Z</time></trkpt><trkpt lat="42.4250267" lon="14.1157967"><ele>44.5</ele><time>2026-05-02T06:37:37.284Z</time></trkpt><trkpt lat="42.4250017" lon="14.11545"><ele>45.0</ele><time>2026-05-02T06:37:38.284Z</time></trkpt><trkpt lat="42.4249867" lon="14.115125"><ele>46.5</ele><time>2026-05-02T06:37:39.284Z</time></trkpt><trkpt lat="42.4249667" lon="14.1148067"><ele>48.0</ele><time>2026-05-02T06:37:40.284Z</time></trkpt><trkpt lat="42.4249417" lon="14.1144967"><ele>48.0</ele><time>2026-05-02T06:37:41.284Z</time></trkpt><trkpt lat="42.4249183" lon="14.1142083"><ele>48.0</ele><time>2026-05-02T06:37:42.284Z</time></trkpt><trkpt lat="42.424895" lon="14.1139217"><ele>48.0</ele><time>2026-05-02T06:37:43.284Z</time></trkpt><trkpt lat="42.42488" lon="14.1136517"><ele>48.66666666666667</ele><time>2026-05-02T06:37:44.284Z</time></trkpt><trkpt lat="42.424865" lon="14.1134083"><ele>49.333333333333336</ele><time>2026-05-02T06:37:45.284Z</time></trkpt><trkpt lat="42.42484" lon="14.1131817"><ele>50.0</ele><time>2026-05-02T06:37:46.284Z</time></trkpt><trkpt lat="42.4248367" lon="14.11298"><ele>50.5</ele><time>2026-05-02T06:37:47.284Z</time></trkpt><trkpt lat="42.424855" lon="14.1127767"><ele>51.0</ele><time>2026-05-02T06:37:48.285Z</time></trkpt><trkpt lat="42.4248933" lon="14.1125933"><ele>51.5</ele><time>2026-05-02T06:37:49.284Z</time></trkpt><trkpt lat="42.42494" lon="14.112415"><ele>52.0</ele><time>2026-05-02T06:37:50.284Z</time></trkpt><trkpt lat="42.4249833" lon="14.112245"><ele>51.2</ele><time>2026-05-02T06:37:51.284Z</time></trkpt><trkpt lat="42.425025" lon="14.1120817"><ele>50.400000000000006</ele><time>2026-05-02T06:37:52.284Z</time></trkpt><trkpt lat="42.4250517" lon="14.1119267"><ele>49.599999999999994</ele><time>2026-05-02T06:37:53.284Z</time></trkpt><trkpt lat="42.4250783" lon="14.1118083"><ele>48.8</ele><time>2026-05-02T06:37:54.284Z</time></trkpt><trkpt lat="42.425105" lon="14.1117083"><ele>48.0</ele><time>2026-05-02T06:37:55.284Z</time></trkpt><trkpt lat="42.4251383" lon="14.1116183"><ele>48.0</ele><time>2026-05-02T06:37:56.284Z</time></trkpt><trkpt lat="42.4251717" lon="14.1115383"><ele>48.0</ele><time>2026-05-02T06:37:57.284Z</time></trkpt><trkpt lat="42.4252133" lon="14.1114167"><ele>48.0</ele><time>2026-05-02T06:37:59.284Z</time></trkpt><trkpt lat="42.425145" lon="14.1113883"><ele>48.0</ele><time>2026-05-02T06:38:02.284Z</time></trkpt><trkpt lat="42.4250483" lon="14.1114667"><ele>48.0</ele><time>2026-05-02T06:38:04.284Z</time></trkpt><trkpt lat="42.424965" lon="14.111535"><ele>48.0</ele><time>2026-05-02T06:38:05.285Z</time></trkpt><trkpt lat="42.4248683" lon="14.1116133"><ele>48.0</ele><time>2026-05-02T06:38:06.285Z</time></trkpt><trkpt lat="42.424755" lon="14.1116967"><ele>48.0</ele><time>2026-05-02T06:38:07.284Z</time></trkpt><trkpt lat="42.4246283" lon="14.1117617"><ele>48.0</ele><time>2026-05-02T06:38:08.285Z</time></trkpt><trkpt lat="42.4245033" lon="14.111815"><ele>48.0</ele><time>2026-05-02T06:38:09.284Z</time></trkpt><trkpt lat="42.4243733" lon="14.111845"><ele>46.5</ele><time>2026-05-02T06:38:10.284Z</time></trkpt><trkpt lat="42.424255" lon="14.11186"><ele>45.0</ele><time>2026-05-02T06:38:11.284Z</time></trkpt><trkpt lat="42.4241417" lon="14.1118917"><ele>43.5</ele><time>2026-05-02T06:38:12.284Z</time></trkpt><trkpt lat="42.424035" lon="14.1119283"><ele>42.0</ele><time>2026-05-02T06:38:13.285Z</time></trkpt><trkpt lat="42.4239267" lon="14.1119667"><ele>42.0</ele><time>2026-05-02T06:38:14.284Z</time></trkpt><trkpt lat="42.4238283" lon="14.1120033"><ele>42.0</ele><time>2026-05-02T06:38:15.284Z</time></trkpt><trkpt lat="42.423735" lon="14.1120283"><ele>42.0</ele><time>2026-05-02T06:38:16.284Z</time></trkpt><trkpt lat="42.42364" lon="14.1120233"><ele>42.0</ele><time>2026-05-02T06:38:17.284Z</time></trkpt><trkpt lat="42.4235417" lon="14.1120117"><ele>42.0</ele><time>2026-05-02T06:38:18.284Z</time></trkpt><trkpt lat="42.42344" lon="14.1120017"><ele>40.75</ele><time>2026-05-02T06:38:19.284Z</time></trkpt><trkpt lat="42.4233417" lon="14.112015"><ele>39.5</ele><time>2026-05-02T06:38:20.285Z</time></trkpt><trkpt lat="42.4232367" lon="14.1120567"><ele>38.25</ele><time>2026-05-02T06:38:21.284Z</time></trkpt><trkpt lat="42.4231417" lon="14.112145"><ele>37.0</ele><time>2026-05-02T06:38:22.284Z</time></trkpt><trkpt lat="42.423045" lon="14.112255"><ele>39.333333333333336</ele><time>2026-05-02T06:38:23.284Z</time></trkpt><trkpt lat="42.4229367" lon="14.1124017"><ele>41.666666666666664</ele><time>2026-05-02T06:38:24.284Z</time></trkpt><trkpt lat="42.4228117" lon="14.1125567"><ele>44.0</ele><time>2026-05-02T06:38:25.284Z</time></trkpt><trkpt lat="42.422675" lon="14.112705"><ele>44.0</ele><time>2026-05-02T06:38:26.284Z</time></trkpt><trkpt lat="42.4225383" lon="14.112845"><ele>44.0</ele><time>2026-05-02T06:38:27.285Z</time></trkpt><trkpt lat="42.4224017" lon="14.1129583"><ele>44.0</ele><time>2026-05-02T06:38:28.284Z</time></trkpt><trkpt lat="42.4222717" lon="14.11307"><ele>44.0</ele><time>2026-05-02T06:38:29.284Z</time></trkpt><trkpt lat="42.4221517" lon="14.113195"><ele>44.0</ele><time>2026-05-02T06:38:30.284Z</time></trkpt><trkpt lat="42.4220417" lon="14.1133083"><ele>44.0</ele><time>2026-05-02T06:38:31.284Z</time></trkpt><trkpt lat="42.421935" lon="14.1134017"><ele>44.0</ele><time>2026-05-02T06:38:32.284Z</time></trkpt><trkpt lat="42.4218233" lon="14.113465"><ele>45.25</ele><time>2026-05-02T06:38:33.284Z</time></trkpt><trkpt lat="42.421705" lon="14.1135167"><ele>46.5</ele><time>2026-05-02T06:38:34.284Z</time></trkpt><trkpt lat="42.4215867" lon="14.1135717"><ele>47.75</ele><time>2026-05-02T06:38:35.284Z</time></trkpt><trkpt lat="42.42147" lon="14.1136133"><ele>49.0</ele><time>2026-05-02T06:38:36.284Z</time></trkpt><trkpt lat="42.4213583" lon="14.1136567"><ele>50.0</ele><time>2026-05-02T06:38:37.284Z</time></trkpt><trkpt lat="42.42125" lon="14.1137117"><ele>51.0</ele><time>2026-05-02T06:38:38.284Z</time></trkpt><trkpt lat="42.4211517" lon="14.1137733"><ele>52.0</ele><time>2026-05-02T06:38:39.284Z</time></trkpt><trkpt lat="42.4210533" lon="14.1138517"><ele>53.0</ele><time>2026-05-02T06:38:40.284Z</time></trkpt><trkpt lat="42.4209533" lon="14.1139367"><ele>53.0</ele><time>2026-05-02T06:38:41.284Z</time></trkpt><trkpt lat="42.4208567" lon="14.1140133"><ele>53.0</ele><time>2026-05-02T06:38:42.284Z</time></trkpt><trkpt lat="42.4207517" lon="14.1140767"><ele>53.0</ele><time>2026-05-02T06:38:43.284Z</time></trkpt><trkpt lat="42.42065" lon="14.1141667"><ele>53.0</ele><time>2026-05-02T06:38:44.284Z</time></trkpt><trkpt lat="42.4205633" lon="14.1142617"><ele>55.5</ele><time>2026-05-02T06:38:45.284Z</time></trkpt><trkpt lat="42.4204817" lon="14.1143817"><ele>58.0</ele><time>2026-05-02T06:38:46.284Z</time></trkpt><trkpt lat="42.420405" lon="14.1145067"><ele>60.5</ele><time>2026-05-02T06:38:47.284Z</time></trkpt><trkpt lat="42.4203267" lon="14.1146317"><ele>63.0</ele><time>2026-05-02T06:38:48.285Z</time></trkpt><trkpt lat="42.4202267" lon="14.1147267"><ele>63.0</ele><time>2026-05-02T06:38:49.284Z</time></trkpt><trkpt lat="42.420105" lon="14.114795"><ele>63.0</ele><time>2026-05-02T06:38:50.285Z</time></trkpt><trkpt lat="42.419975" lon="14.1148567"><ele>63.0</ele><time>2026-05-02T06:38:51.284Z</time></trkpt><trkpt lat="42.4198517" lon="14.1149233"><ele>63.0</ele><time>2026-05-02T06:38:52.284Z</time></trkpt><trkpt lat="42.4197333" lon="14.1150083"><ele>67.25</ele><time>2026-05-02T06:38:53.284Z</time></trkpt><trkpt lat="42.4196167" lon="14.1151217"><ele>71.5</ele><time>2026-05-02T06:38:54.285Z</time></trkpt><trkpt lat="42.4195017" lon="14.11525"><ele>75.75</ele><time>2026-05-02T06:38:55.284Z</time></trkpt><trkpt lat="42.4193967" lon="14.1153733"><ele>80.0</ele><time>2026-05-02T06:38:56.284Z</time></trkpt><trkpt lat="42.41929" lon="14.11548"><ele>80.0</ele><time>2026-05-02T06:38:57.284Z</time></trkpt><trkpt lat="42.4191833" lon="14.1155733"><ele>80.0</ele><time>2026-05-02T06:38:58.284Z</time></trkpt><trkpt lat="42.4190883" lon="14.1156617"><ele>80.0</ele><time>2026-05-02T06:38:59.284Z</time></trkpt><trkpt lat="42.419015" lon="14.11574"><ele>80.0</ele><time>2026-05-02T06:39:00.284Z</time></trkpt><trkpt lat="42.4189567" lon="14.1158083"><ele>80.0</ele><time>2026-05-02T06:39:01.284Z</time></trkpt><trkpt lat="42.4188833" lon="14.1158933"><ele>81.83333333333334</ele><time>2026-05-02T06:39:03.284Z</time></trkpt><trkpt lat="42.4187917" lon="14.1158867"><ele>83.66666666666667</ele><time>2026-05-02T06:39:06.284Z</time></trkpt><trkpt lat="42.418735" lon="14.1158367"><ele>85.5</ele><time>2026-05-02T06:39:07.285Z</time></trkpt><trkpt lat="42.4186683" lon="14.115775"><ele>87.33333333333333</ele><time>2026-05-02T06:39:08.284Z</time></trkpt><trkpt lat="42.4185867" lon="14.11571"><ele>89.16666666666666</ele><time>2026-05-02T06:39:09.285Z</time></trkpt><trkpt lat="42.4184917" lon="14.11563"><ele>91.0</ele><time>2026-05-02T06:39:10.284Z</time></trkpt><trkpt lat="42.4183783" lon="14.1155467"><ele>92.75</ele><time>2026-05-02T06:39:11.284Z</time></trkpt><trkpt lat="42.4182633" lon="14.1154817"><ele>94.5</ele><time>2026-05-02T06:39:12.284Z</time></trkpt><trkpt lat="42.4181517" lon="14.1154117"><ele>96.25</ele><time>2026-05-02T06:39:13.284Z</time></trkpt><trkpt lat="42.418035" lon="14.1153583"><ele>98.0</ele><time>2026-05-02T06:39:14.284Z</time></trkpt><trkpt lat="42.4179183" lon="14.115305"><ele>99.60000000000001</ele><time>2026-05-02T06:39:15.284Z</time></trkpt><trkpt lat="42.41781" lon="14.115265"><ele>101.2</ele><time>2026-05-02T06:39:16.284Z</time></trkpt><trkpt lat="42.4176983" lon="14.1152233"><ele>102.8</ele><time>2026-05-02T06:39:17.285Z</time></trkpt><trkpt lat="42.4175917" lon="14.115185"><ele>104.4</ele><time>2026-05-02T06:39:18.284Z</time></trkpt><trkpt lat="42.4174867" lon="14.1151533"><ele>106.0</ele><time>2026-05-02T06:39:19.284Z</time></trkpt><trkpt lat="42.4173733" lon="14.11515"><ele>106.0</ele><time>2026-05-02T06:39:20.284Z</time></trkpt><trkpt lat="42.417255" lon="14.1151433"><ele>106.0</ele><time>2026-05-02T06:39:21.284Z</time></trkpt><trkpt lat="42.4171317" lon="14.1151333"><ele>106.0</ele><time>2026-05-02T06:39:22.284Z</time></trkpt><trkpt lat="42.4170267" lon="14.1151283"><ele>106.0</ele><time>2026-05-02T06:39:23.284Z</time></trkpt><trkpt lat="42.416935" lon="14.1151217"><ele>106.0</ele><time>2026-05-02T06:39:24.284Z</time></trkpt><trkpt lat="42.41687" lon="14.115115"><ele>107.0</ele><time>2026-05-02T06:39:25.284Z</time></trkpt><trkpt lat="42.4167783" lon="14.1151217"><ele>108.0</ele><time>2026-05-02T06:39:27.284Z</time></trkpt><trkpt lat="42.41665" lon="14.1151567"><ele>109.0</ele><time>2026-05-02T06:39:29.284Z</time></trkpt><trkpt lat="42.4165633" lon="14.1151783"><ele>110.0</ele><time>2026-05-02T06:39:30.284Z</time></trkpt><trkpt lat="42.4164533" lon="14.1152033"><ele>111.0</ele><time>2026-05-02T06:39:31.284Z</time></trkpt><trkpt lat="42.4163483" lon="14.1152233"><ele>112.25</ele><time>2026-05-02T06:39:32.284Z</time></trkpt><trkpt lat="42.4162367" lon="14.1152283"><ele>113.5</ele><time>2026-05-02T06:39:33.284Z</time></trkpt><trkpt lat="42.41612" lon="14.1152317"><ele>114.75</ele><time>2026-05-02T06:39:34.284Z</time></trkpt><trkpt lat="42.4159983" lon="14.1152317"><ele>116.0</ele><time>2026-05-02T06:39:35.284Z</time></trkpt><trkpt lat="42.415875" lon="14.115235"><ele>116.0</ele><time>2026-05-02T06:39:36.285Z</time></trkpt><trkpt lat="42.415755" lon="14.1152467"><ele>116.0</ele><time>2026-05-02T06:39:37.284Z</time></trkpt><trkpt lat="42.4156383" lon="14.1152717"><ele>116.0</ele><time>2026-05-02T06:39:38.284Z</time></trkpt><trkpt lat="42.4155383" lon="14.1153083"><ele>116.0</ele><time>2026-05-02T06:39:39.284Z</time></trkpt><trkpt lat="42.41546" lon="14.1153367"><ele>116.0</ele><time>2026-05-02T06:39:40.284Z</time></trkpt><trkpt lat="42.4153933" lon="14.1153567"><ele>116.19999999999999</ele><time>2026-05-02T06:39:41.284Z</time></trkpt><trkpt lat="42.4153267" lon="14.1153917"><ele>116.39999999999999</ele><time>2026-05-02T06:39:43.284Z</time></trkpt><trkpt lat="42.4152717" lon="14.115435"><ele>116.6</ele><time>2026-05-02T06:39:45.284Z</time></trkpt><trkpt lat="42.4151783" lon="14.11555"><ele>116.8</ele><time>2026-05-02T06:39:47.284Z</time></trkpt><trkpt lat="42.4151117" lon="14.1156317"><ele>117.0</ele><time>2026-05-02T06:39:48.284Z</time></trkpt><trkpt lat="42.4150317" lon="14.1157333"><ele>116.75</ele><time>2026-05-02T06:39:49.284Z</time></trkpt><trkpt lat="42.4149417" lon="14.1158533"><ele>116.5</ele><time>2026-05-02T06:39:50.284Z</time></trkpt><trkpt lat="42.4148567" lon="14.1159567"><ele>116.25</ele><time>2026-05-02T06:39:51.284Z</time></trkpt><trkpt lat="42.4147667" lon="14.1160533"><ele>116.0</ele><time>2026-05-02T06:39:52.285Z</time></trkpt><trkpt lat="42.4146633" lon="14.1161583"><ele>114.75</ele><time>2026-05-02T06:39:53.284Z</time></trkpt><trkpt lat="42.4145533" lon="14.1162567"><ele>113.5</ele><time>2026-05-02T06:39:54.284Z</time></trkpt><trkpt lat="42.4144333" lon="14.1163533"><ele>112.25</ele><time>2026-05-02T06:39:55.285Z</time></trkpt><trkpt lat="42.4143117" lon="14.1164383"><ele>111.0</ele><time>2026-05-02T06:39:56.284Z</time></trkpt><trkpt lat="42.4141967" lon="14.1165167"><ele>110.75</ele><time>2026-05-02T06:39:57.284Z</time></trkpt><trkpt lat="42.41409" lon="14.1165867"><ele>110.5</ele><time>2026-05-02T06:39:58.285Z</time></trkpt><trkpt lat="42.4139817" lon="14.1166467"><ele>110.25</ele><time>2026-05-02T06:39:59.284Z</time></trkpt><trkpt lat="42.4138817" lon="14.1167067"><ele>110.0</ele><time>2026-05-02T06:40:00.285Z</time></trkpt><trkpt lat="42.413785" lon="14.11677"><ele>109.4</ele><time>2026-05-02T06:40:01.284Z</time></trkpt><trkpt lat="42.413705" lon="14.1168467"><ele>108.8</ele><time>2026-05-02T06:40:02.285Z</time></trkpt><trkpt lat="42.4136267" lon="14.11695"><ele>108.19999999999999</ele><time>2026-05-02T06:40:03.284Z</time></trkpt><trkpt lat="42.4135633" lon="14.117065"><ele>107.6</ele><time>2026-05-02T06:40:04.284Z</time></trkpt><trkpt lat="42.4134883" lon="14.1171983"><ele>107.0</ele><time>2026-05-02T06:40:05.284Z</time></trkpt><trkpt lat="42.4134067" lon="14.1173367"><ele>107.39999999999999</ele><time>2026-05-02T06:40:06.284Z</time></trkpt><trkpt lat="42.41333" lon="14.1174717"><ele>107.79999999999998</ele><time>2026-05-02T06:40:07.284Z</time></trkpt><trkpt lat="42.41326" lon="14.11759"><ele>108.2</ele><time>2026-05-02T06:40:08.284Z</time></trkpt><trkpt lat="42.413195" lon="14.11771"><ele>108.6</ele><time>2026-05-02T06:40:09.284Z</time></trkpt><trkpt lat="42.4131333" lon="14.1178117"><ele>109.0</ele><time>2026-05-02T06:40:10.284Z</time></trkpt><trkpt lat="42.413075" lon="14.1179117"><ele>109.0</ele><time>2026-05-02T06:40:11.285Z</time></trkpt><trkpt lat="42.4130133" lon="14.1180133"><ele>109.0</ele><time>2026-05-02T06:40:12.284Z</time></trkpt><trkpt lat="42.41295" lon="14.118115"><ele>109.0</ele><time>2026-05-02T06:40:13.284Z</time></trkpt><trkpt lat="42.412885" lon="14.11822"><ele>109.0</ele><time>2026-05-02T06:40:14.284Z</time></trkpt><trkpt lat="42.41281" lon="14.1183267"><ele>109.0</ele><time>2026-05-02T06:40:15.284Z</time></trkpt><trkpt lat="42.412725" lon="14.118435"><ele>108.5</ele><time>2026-05-02T06:40:16.284Z</time></trkpt><trkpt lat="42.4126333" lon="14.11853"><ele>108.0</ele><time>2026-05-02T06:40:17.284Z</time></trkpt><trkpt lat="42.4125317" lon="14.118615"><ele>107.5</ele><time>2026-05-02T06:40:18.284Z</time></trkpt><trkpt lat="42.412425" lon="14.1187"><ele>107.0</ele><time>2026-05-02T06:40:19.284Z</time></trkpt><trkpt lat="42.41232" lon="14.11877"><ele>107.0</ele><time>2026-05-02T06:40:20.284Z</time></trkpt><trkpt lat="42.41222" lon="14.1188433"><ele>106.99999999999999</ele><time>2026-05-02T06:40:21.284Z</time></trkpt><trkpt lat="42.4121167" lon="14.1189083"><ele>106.99999999999999</ele><time>2026-05-02T06:40:22.285Z</time></trkpt><trkpt lat="42.41202" lon="14.11898"><ele>107.0</ele><time>2026-05-02T06:40:23.284Z</time></trkpt><trkpt lat="42.4119217" lon="14.11905"><ele>107.0</ele><time>2026-05-02T06:40:24.284Z</time></trkpt><trkpt lat="42.41182" lon="14.1191183"><ele>105.75</ele><time>2026-05-02T06:40:25.284Z</time></trkpt><trkpt lat="42.4117117" lon="14.1191883"><ele>104.5</ele><time>2026-05-02T06:40:26.284Z</time></trkpt><trkpt lat="42.4116033" lon="14.1192517"><ele>103.25</ele><time>2026-05-02T06:40:27.285Z</time></trkpt><trkpt lat="42.411495" lon="14.119325"><ele>102.0</ele><time>2026-05-02T06:40:28.284Z</time></trkpt><trkpt lat="42.4113833" lon="14.119385"><ele>102.25</ele><time>2026-05-02T06:40:29.284Z</time></trkpt><trkpt lat="42.41128" lon="14.1194483"><ele>102.5</ele><time>2026-05-02T06:40:30.284Z</time></trkpt><trkpt lat="42.4111783" lon="14.1195233"><ele>102.75</ele><time>2026-05-02T06:40:31.284Z</time></trkpt><trkpt lat="42.4110783" lon="14.1196017"><ele>103.0</ele><time>2026-05-02T06:40:32.284Z</time></trkpt><trkpt lat="42.4109883" lon="14.119685"><ele>103.00000000000001</ele><time>2026-05-02T06:40:33.284Z</time></trkpt><trkpt lat="42.410915" lon="14.119755"><ele>103.0</ele><time>2026-05-02T06:40:34.284Z</time></trkpt><trkpt lat="42.410845" lon="14.1198233"><ele>103.0</ele><time>2026-05-02T06:40:35.284Z</time></trkpt><trkpt lat="42.4107933" lon="14.119875"><ele>103.0</ele><time>2026-05-02T06:40:36.284Z</time></trkpt><trkpt lat="42.410715" lon="14.11994"><ele>103.00000000000001</ele><time>2026-05-02T06:40:38.284Z</time></trkpt><trkpt lat="42.410655" lon="14.1199817"><ele>103.0</ele><time>2026-05-02T06:40:40.285Z</time></trkpt><trkpt lat="42.4105883" lon="14.1199933"><ele>102.0</ele><time>2026-05-02T06:40:43.284Z</time></trkpt><trkpt lat="42.4105167" lon="14.11995"><ele>101.0</ele><time>2026-05-02T06:40:45.284Z</time></trkpt><trkpt lat="42.4104283" lon="14.119865"><ele>100.0</ele><time>2026-05-02T06:40:47.284Z</time></trkpt><trkpt lat="42.4103517" lon="14.11979"><ele>99.0</ele><time>2026-05-02T06:40:49.284Z</time></trkpt><trkpt lat="42.410305" lon="14.11971"><ele>98.0</ele><time>2026-05-02T06:40:51.285Z</time></trkpt><trkpt lat="42.410265" lon="14.11959"><ele>97.66666666666666</ele><time>2026-05-02T06:40:53.284Z</time></trkpt><trkpt lat="42.4102217" lon="14.11948"><ele>97.33333333333333</ele><time>2026-05-02T06:40:55.284Z</time></trkpt><trkpt lat="42.4101783" lon="14.1194017"><ele>97.0</ele><time>2026-05-02T06:40:57.284Z</time></trkpt><trkpt lat="42.4101267" lon="14.1193183"><ele>96.66666666666666</ele><time>2026-05-02T06:40:59.284Z</time></trkpt><trkpt lat="42.4100717" lon="14.1192183"><ele>96.33333333333333</ele><time>2026-05-02T06:41:01.284Z</time></trkpt><trkpt lat="42.4099983" lon="14.1191233"><ele>96.0</ele><time>2026-05-02T06:41:03.284Z</time></trkpt><trkpt lat="42.409935" lon="14.1190433"><ele>96.0</ele><time>2026-05-02T06:41:05.284Z</time></trkpt><trkpt lat="42.4098533" lon="14.118975"><ele>96.0</ele><time>2026-05-02T06:41:07.284Z</time></trkpt><trkpt lat="42.40977" lon="14.11892"><ele>96.0</ele><time>2026-05-02T06:41:09.284Z</time></trkpt><trkpt lat="42.4096967" lon="14.118855"><ele>96.0</ele><time>2026-05-02T06:41:11.284Z</time></trkpt><trkpt lat="42.40962" lon="14.1187917"><ele>96.0</ele><time>2026-05-02T06:41:13.284Z</time></trkpt><trkpt lat="42.409545" lon="14.1187367"><ele>93.6</ele><time>2026-05-02T06:41:15.284Z</time></trkpt><trkpt lat="42.40946" lon="14.118685"><ele>91.19999999999999</ele><time>2026-05-02T06:41:17.284Z</time></trkpt><trkpt lat="42.4093683" lon="14.1186233"><ele>88.80000000000001</ele><time>2026-05-02T06:41:19.284Z</time></trkpt><trkpt lat="42.4092817" lon="14.1185567"><ele>86.4</ele><time>2026-05-02T06:41:21.284Z</time></trkpt><trkpt lat="42.4092167" lon="14.118495"><ele>84.0</ele><time>2026-05-02T06:41:23.284Z</time></trkpt><trkpt lat="42.409155" lon="14.1184367"><ele>84.0</ele><time>2026-05-02T06:41:25.284Z</time></trkpt><trkpt lat="42.4091033" lon="14.1183583"><ele>84.0</ele><time>2026-05-02T06:41:27.284Z</time></trkpt><trkpt lat="42.409045" lon="14.1182717"><ele>84.0</ele><time>2026-05-02T06:41:29.284Z</time></trkpt><trkpt lat="42.4089833" lon="14.11817"><ele>84.0</ele><time>2026-05-02T06:41:31.284Z</time></trkpt><trkpt lat="42.4089083" lon="14.11804"><ele>84.0</ele><time>2026-05-02T06:41:33.284Z</time></trkpt><trkpt lat="42.4088733" lon="14.11796"><ele>83.5</ele><time>2026-05-02T06:41:34.284Z</time></trkpt><trkpt lat="42.408845" lon="14.1178717"><ele>83.0</ele><time>2026-05-02T06:41:35.284Z</time></trkpt><trkpt lat="42.4088133" lon="14.11778"><ele>82.5</ele><time>2026-05-02T06:41:36.284Z</time></trkpt><trkpt lat="42.4087833" lon="14.117705"><ele>82.0</ele><time>2026-05-02T06:41:37.284Z</time></trkpt><trkpt lat="42.4087417" lon="14.1175767"><ele>81.5</ele><time>2026-05-02T06:41:39.284Z</time></trkpt><trkpt lat="42.4086933" lon="14.117475"><ele>81.0</ele><time>2026-05-02T06:41:41.285Z</time></trkpt><trkpt lat="42.4086533" lon="14.1173717"><ele>81.0</ele><time>2026-05-02T06:41:43.284Z</time></trkpt><trkpt lat="42.4086067" lon="14.1172767"><ele>81.0</ele><time>2026-05-02T06:41:45.284Z</time></trkpt><trkpt lat="42.4085067" lon="14.117175"><ele>81.0</ele><time>2026-05-02T06:41:47.284Z</time></trkpt><trkpt lat="42.40844" lon="14.1171217"><ele>81.0</ele><time>2026-05-02T06:41:48.285Z</time></trkpt><trkpt lat="42.4083733" lon="14.1170533"><ele>81.0</ele><time>2026-05-02T06:41:49.284Z</time></trkpt><trkpt lat="42.40831" lon="14.1169867"><ele>81.0</ele><time>2026-05-02T06:41:50.284Z</time></trkpt><trkpt lat="42.408255" lon="14.1169233"><ele>81.0</ele><time>2026-05-02T06:41:51.284Z</time></trkpt><trkpt lat="42.4082017" lon="14.1168633"><ele>81.0</ele><time>2026-05-02T06:41:52.284Z</time></trkpt><trkpt lat="42.4081154" lon="14.1167651"><ele>81.0</ele><time>2026-05-02T06:41:54.284Z</time></trkpt><trkpt lat="42.4080137" lon="14.1166956"><ele>81.0</ele><time>2026-05-02T06:41:56.284Z</time></trkpt><trkpt lat="42.4078983" lon="14.116645"><ele>82.57142857142857</ele><time>2026-05-02T06:41:58.284Z</time></trkpt><trkpt lat="42.40784" lon="14.1166117"><ele>84.14285714285714</ele><time>2026-05-02T06:41:59.284Z</time></trkpt><trkpt lat="42.4077783" lon="14.1165767"><ele>85.71428571428572</ele><time>2026-05-02T06:42:00.284Z</time></trkpt><trkpt lat="42.4077117" lon="14.116535"><ele>87.28571428571428</ele><time>2026-05-02T06:42:01.284Z</time></trkpt><trkpt lat="42.407645" lon="14.1164983"><ele>88.85714285714285</ele><time>2026-05-02T06:42:02.284Z</time></trkpt><trkpt lat="42.4075717" lon="14.11646"><ele>90.42857142857143</ele><time>2026-05-02T06:42:03.284Z</time></trkpt><trkpt lat="42.407485" lon="14.11643"><ele>92.0</ele><time>2026-05-02T06:42:04.284Z</time></trkpt><trkpt lat="42.4074017" lon="14.1164017"><ele>92.5</ele><time>2026-05-02T06:42:05.284Z</time></trkpt><trkpt lat="42.4073083" lon="14.116375"><ele>93.0</ele><time>2026-05-02T06:42:06.284Z</time></trkpt><trkpt lat="42.4072217" lon="14.116355"><ele>93.5</ele><time>2026-05-02T06:42:07.285Z</time></trkpt><trkpt lat="42.40714" lon="14.11634"><ele>94.0</ele><time>2026-05-02T06:42:08.284Z</time></trkpt><trkpt lat="42.40707" lon="14.116325"><ele>94.5</ele><time>2026-05-02T06:42:09.284Z</time></trkpt><trkpt lat="42.407005" lon="14.1163067"><ele>95.0</ele><time>2026-05-02T06:42:10.284Z</time></trkpt><trkpt lat="42.4068733" lon="14.11622"><ele>97.0</ele><time>2026-05-02T06:42:12.284Z</time></trkpt><trkpt lat="42.4067683" lon="14.11613"><ele>99.0</ele><time>2026-05-02T06:42:13.284Z</time></trkpt><trkpt lat="42.4066533" lon="14.1160333"><ele>101.0</ele><time>2026-05-02T06:42:14.285Z</time></trkpt><trkpt lat="42.4065367" lon="14.1159433"><ele>103.0</ele><time>2026-05-02T06:42:15.285Z</time></trkpt><trkpt lat="42.4064217" lon="14.1158583"><ele>103.60000000000001</ele><time>2026-05-02T06:42:16.285Z</time></trkpt><trkpt lat="42.4063167" lon="14.1157917"><ele>104.2</ele><time>2026-05-02T06:42:17.284Z</time></trkpt><trkpt lat="42.40622" lon="14.115725"><ele>104.8</ele><time>2026-05-02T06:42:18.284Z</time></trkpt><trkpt lat="42.4061283" lon="14.1156667"><ele>105.4</ele><time>2026-05-02T06:42:19.284Z</time></trkpt><trkpt lat="42.4060467" lon="14.115605"><ele>106.0</ele><time>2026-05-02T06:42:20.284Z</time></trkpt><trkpt lat="42.4059767" lon="14.11555"><ele>106.50000000000001</ele><time>2026-05-02T06:42:21.285Z</time></trkpt><trkpt lat="42.4059183" lon="14.115495"><ele>107.0</ele><time>2026-05-02T06:42:22.284Z</time></trkpt><trkpt lat="42.4058417" lon="14.1154333"><ele>107.5</ele><time>2026-05-02T06:42:24.284Z</time></trkpt><trkpt lat="42.405745" lon="14.115415"><ele>108.0</ele><time>2026-05-02T06:42:26.284Z</time></trkpt><trkpt lat="42.4056717" lon="14.1154367"><ele>108.50000000000001</ele><time>2026-05-02T06:42:27.285Z</time></trkpt><trkpt lat="42.405605" lon="14.1154617"><ele>109.0</ele><time>2026-05-02T06:42:28.284Z</time></trkpt><trkpt lat="42.4054967" lon="14.1155167"><ele>107.83333333333334</ele><time>2026-05-02T06:42:30.284Z</time></trkpt><trkpt lat="42.4054533" lon="14.1155817"><ele>106.66666666666667</ele><time>2026-05-02T06:42:31.284Z</time></trkpt><trkpt lat="42.4054183" lon="14.1156683"><ele>105.5</ele><time>2026-05-02T06:42:32.284Z</time></trkpt><trkpt lat="42.40538" lon="14.1157667"><ele>104.33333333333334</ele><time>2026-05-02T06:42:33.284Z</time></trkpt><trkpt lat="42.40534" lon="14.1158633"><ele>103.16666666666667</ele><time>2026-05-02T06:42:34.284Z</time></trkpt><trkpt lat="42.4052917" lon="14.1159517"><ele>102.0</ele><time>2026-05-02T06:42:35.284Z</time></trkpt><trkpt lat="42.405235" lon="14.1160317"><ele>102.0</ele><time>2026-05-02T06:42:36.284Z</time></trkpt><trkpt lat="42.405175" lon="14.1161133"><ele>102.0</ele><time>2026-05-02T06:42:37.284Z</time></trkpt><trkpt lat="42.40511" lon="14.1161983"><ele>102.0</ele><time>2026-05-02T06:42:38.284Z</time></trkpt><trkpt lat="42.40504" lon="14.1162833"><ele>102.0</ele><time>2026-05-02T06:42:39.284Z</time></trkpt><trkpt lat="42.40497" lon="14.1163683"><ele>102.0</ele><time>2026-05-02T06:42:40.284Z</time></trkpt><trkpt lat="42.40489" lon="14.116465"><ele>100.0</ele><time>2026-05-02T06:42:41.284Z</time></trkpt><trkpt lat="42.4047967" lon="14.1165767"><ele>98.0</ele><time>2026-05-02T06:42:42.284Z</time></trkpt><trkpt lat="42.4047017" lon="14.1167067"><ele>96.0</ele><time>2026-05-02T06:42:43.285Z</time></trkpt><trkpt lat="42.4046" lon="14.11683"><ele>94.0</ele><time>2026-05-02T06:42:44.284Z</time></trkpt><trkpt lat="42.4045033" lon="14.1169483"><ele>93.0</ele><time>2026-05-02T06:42:45.284Z</time></trkpt><trkpt lat="42.4044183" lon="14.1170533"><ele>92.0</ele><time>2026-05-02T06:42:46.284Z</time></trkpt><trkpt lat="42.404335" lon="14.11716"><ele>91.0</ele><time>2026-05-02T06:42:47.284Z</time></trkpt><trkpt lat="42.40425" lon="14.11726"><ele>90.0</ele><time>2026-05-02T06:42:48.284Z</time></trkpt><trkpt lat="42.4041633" lon="14.1173717"><ele>89.0</ele><time>2026-05-02T06:42:49.285Z</time></trkpt><trkpt lat="42.4040817" lon="14.1174633"><ele>88.0</ele><time>2026-05-02T06:42:50.284Z</time></trkpt><trkpt lat="42.4040033" lon="14.1175517"><ele>87.0</ele><time>2026-05-02T06:42:51.284Z</time></trkpt><trkpt lat="42.40393" lon="14.117645"><ele>86.0</ele><time>2026-05-02T06:42:52.284Z</time></trkpt><trkpt lat="42.40385" lon="14.1177417"><ele>85.0</ele><time>2026-05-02T06:42:53.284Z</time></trkpt><trkpt lat="42.4037783" lon="14.117835"><ele>84.25</ele><time>2026-05-02T06:42:54.284Z</time></trkpt><trkpt lat="42.4037033" lon="14.117935"><ele>83.5</ele><time>2026-05-02T06:42:55.285Z</time></trkpt><trkpt lat="42.4036217" lon="14.11804"><ele>82.75</ele><time>2026-05-02T06:42:56.285Z</time></trkpt><trkpt lat="42.40353" lon="14.1181433"><ele>82.0</ele><time>2026-05-02T06:42:57.284Z</time></trkpt><trkpt lat="42.4034283" lon="14.1182483"><ele>81.5</ele><time>2026-05-02T06:42:58.284Z</time></trkpt><trkpt lat="42.4033333" lon="14.11836"><ele>81.0</ele><time>2026-05-02T06:42:59.284Z</time></trkpt><trkpt lat="42.4032383" lon="14.1184683"><ele>80.5</ele><time>2026-05-02T06:43:00.284Z</time></trkpt><trkpt lat="42.4031483" lon="14.1185833"><ele>80.0</ele><time>2026-05-02T06:43:01.284Z</time></trkpt><trkpt lat="42.40306" lon="14.1187033"><ele>79.8</ele><time>2026-05-02T06:43:02.285Z</time></trkpt><trkpt lat="42.4029783" lon="14.118815"><ele>79.6</ele><time>2026-05-02T06:43:03.284Z</time></trkpt><trkpt lat="42.402905" lon="14.1189167"><ele>79.4</ele><time>2026-05-02T06:43:04.285Z</time></trkpt><trkpt lat="42.4028267" lon="14.1190167"><ele>79.2</ele><time>2026-05-02T06:43:05.284Z</time></trkpt><trkpt lat="42.4027483" lon="14.1191183"><ele>79.0</ele><time>2026-05-02T06:43:06.285Z</time></trkpt><trkpt lat="42.40266" lon="14.11922"><ele>78.2</ele><time>2026-05-02T06:43:07.284Z</time></trkpt><trkpt lat="42.4025817" lon="14.119315"><ele>77.4</ele><time>2026-05-02T06:43:08.284Z</time></trkpt><trkpt lat="42.4025017" lon="14.1193967"><ele>76.6</ele><time>2026-05-02T06:43:09.284Z</time></trkpt><trkpt lat="42.4024217" lon="14.1194683"><ele>75.8</ele><time>2026-05-02T06:43:10.284Z</time></trkpt><trkpt lat="42.4023383" lon="14.11954"><ele>75.0</ele><time>2026-05-02T06:43:11.284Z</time></trkpt><trkpt lat="42.4022683" lon="14.11961"><ele>75.0</ele><time>2026-05-02T06:43:12.284Z</time></trkpt><trkpt lat="42.4022033" lon="14.11966"><ele>75.0</ele><time>2026-05-02T06:43:13.284Z</time></trkpt><trkpt lat="42.4021383" lon="14.1197167"><ele>75.0</ele><time>2026-05-02T06:43:14.285Z</time></trkpt><trkpt lat="42.4020683" lon="14.1197717"><ele>75.0</ele><time>2026-05-02T06:43:15.284Z</time></trkpt><trkpt lat="42.401985" lon="14.1198417"><ele>75.0</ele><time>2026-05-02T06:43:16.284Z</time></trkpt><trkpt lat="42.4018983" lon="14.1199283"><ele>75.0</ele><time>2026-05-02T06:43:17.285Z</time></trkpt><trkpt lat="42.4018017" lon="14.120025"><ele>73.0</ele><time>2026-05-02T06:43:18.284Z</time></trkpt><trkpt lat="42.4017083" lon="14.1201233"><ele>71.0</ele><time>2026-05-02T06:43:19.284Z</time></trkpt><trkpt lat="42.4016033" lon="14.1202183"><ele>69.0</ele><time>2026-05-02T06:43:20.284Z</time></trkpt><trkpt lat="42.4015083" lon="14.1203017"><ele>67.0</ele><time>2026-05-02T06:43:21.284Z</time></trkpt><trkpt lat="42.401415" lon="14.120385"><ele>66.6</ele><time>2026-05-02T06:43:22.284Z</time></trkpt><trkpt lat="42.4013283" lon="14.1204667"><ele>66.2</ele><time>2026-05-02T06:43:23.284Z</time></trkpt><trkpt lat="42.4012467" lon="14.1205367"><ele>65.8</ele><time>2026-05-02T06:43:24.284Z</time></trkpt><trkpt lat="42.401165" lon="14.120605"><ele>65.4</ele><time>2026-05-02T06:43:25.284Z</time></trkpt><trkpt lat="42.4010917" lon="14.1206617"><ele>65.0</ele><time>2026-05-02T06:43:26.284Z</time></trkpt><trkpt lat="42.4010233" lon="14.1207283"><ele>64.83333333333334</ele><time>2026-05-02T06:43:27.284Z</time></trkpt><trkpt lat="42.4009533" lon="14.1208"><ele>64.66666666666667</ele><time>2026-05-02T06:43:28.284Z</time></trkpt><trkpt lat="42.400885" lon="14.1208683"><ele>64.5</ele><time>2026-05-02T06:43:29.284Z</time></trkpt><trkpt lat="42.4008183" lon="14.12094"><ele>64.33333333333333</ele><time>2026-05-02T06:43:30.284Z</time></trkpt><trkpt lat="42.4007483" lon="14.1210183"><ele>64.16666666666666</ele><time>2026-05-02T06:43:31.284Z</time></trkpt><trkpt lat="42.4006717" lon="14.121095"><ele>64.0</ele><time>2026-05-02T06:43:32.284Z</time></trkpt><trkpt lat="42.4005933" lon="14.1211667"><ele>64.0</ele><time>2026-05-02T06:43:33.284Z</time></trkpt><trkpt lat="42.400525" lon="14.121235"><ele>64.0</ele><time>2026-05-02T06:43:34.284Z</time></trkpt><trkpt lat="42.4004617" lon="14.121295"><ele>64.0</ele><time>2026-05-02T06:43:35.285Z</time></trkpt><trkpt lat="42.4003817" lon="14.1213717"><ele>64.0</ele><time>2026-05-02T06:43:36.284Z</time></trkpt><trkpt lat="42.400295" lon="14.121445"><ele>64.0</ele><time>2026-05-02T06:43:37.284Z</time></trkpt><trkpt lat="42.400205" lon="14.1215217"><ele>63.25</ele><time>2026-05-02T06:43:38.284Z</time></trkpt><trkpt lat="42.4001283" lon="14.121615"><ele>62.5</ele><time>2026-05-02T06:43:39.284Z</time></trkpt><trkpt lat="42.40006" lon="14.1217333"><ele>61.75</ele><time>2026-05-02T06:43:40.284Z</time></trkpt><trkpt lat="42.39999" lon="14.12187"><ele>61.0</ele><time>2026-05-02T06:43:41.284Z</time></trkpt><trkpt lat="42.3999283" lon="14.1220283"><ele>61.0</ele><time>2026-05-02T06:43:42.284Z</time></trkpt><trkpt lat="42.399875" lon="14.1221733"><ele>60.99999999999999</ele><time>2026-05-02T06:43:43.284Z</time></trkpt><trkpt lat="42.3998283" lon="14.1223083"><ele>60.99999999999999</ele><time>2026-05-02T06:43:44.284Z</time></trkpt><trkpt lat="42.3997817" lon="14.1224383"><ele>61.0</ele><time>2026-05-02T06:43:45.285Z</time></trkpt><trkpt lat="42.399745" lon="14.1225683"><ele>61.0</ele><time>2026-05-02T06:43:46.284Z</time></trkpt><trkpt lat="42.3997217" lon="14.1227017"><ele>61.0</ele><time>2026-05-02T06:43:47.284Z</time></trkpt><trkpt lat="42.3997183" lon="14.1228567"><ele>60.99999999999999</ele><time>2026-05-02T06:43:48.284Z</time></trkpt><trkpt lat="42.3997333" lon="14.1230133"><ele>60.99999999999999</ele><time>2026-05-02T06:43:49.284Z</time></trkpt><trkpt lat="42.3997517" lon="14.1231467"><ele>61.0</ele><time>2026-05-02T06:43:50.284Z</time></trkpt><trkpt lat="42.3997533" lon="14.1232667"><ele>61.0</ele><time>2026-05-02T06:43:51.284Z</time></trkpt><trkpt lat="42.3997317" lon="14.1233917"><ele>61.0</ele><time>2026-05-02T06:43:52.284Z</time></trkpt><trkpt lat="42.399695" lon="14.123535"><ele>61.0</ele><time>2026-05-02T06:43:53.284Z</time></trkpt><trkpt lat="42.3996333" lon="14.12369"><ele>61.0</ele><time>2026-05-02T06:43:54.284Z</time></trkpt><trkpt lat="42.3995633" lon="14.12386"><ele>61.0</ele><time>2026-05-02T06:43:55.284Z</time></trkpt><trkpt lat="42.39949" lon="14.1240267"><ele>58.75</ele><time>2026-05-02T06:43:56.284Z</time></trkpt><trkpt lat="42.399415" lon="14.1242033"><ele>56.5</ele><time>2026-05-02T06:43:57.284Z</time></trkpt><trkpt lat="42.39934" lon="14.124375"><ele>54.25</ele><time>2026-05-02T06:43:58.284Z</time></trkpt><trkpt lat="42.3992617" lon="14.1245333"><ele>52.0</ele><time>2026-05-02T06:43:59.285Z</time></trkpt><trkpt lat="42.39918" lon="14.1246883"><ele>52.0</ele><time>2026-05-02T06:44:00.284Z</time></trkpt><trkpt lat="42.3991017" lon="14.1248283"><ele>52.0</ele><time>2026-05-02T06:44:01.284Z</time></trkpt><trkpt lat="42.399025" lon="14.124965"><ele>52.0</ele><time>2026-05-02T06:44:02.284Z</time></trkpt><trkpt lat="42.39894" lon="14.1250883"><ele>52.0</ele><time>2026-05-02T06:44:03.284Z</time></trkpt><trkpt lat="42.3988583" lon="14.1251817"><ele>50.25</ele><time>2026-05-02T06:44:04.285Z</time></trkpt><trkpt lat="42.3987683" lon="14.1252583"><ele>48.5</ele><time>2026-05-02T06:44:05.285Z</time></trkpt><trkpt lat="42.39867" lon="14.1253067"><ele>46.75</ele><time>2026-05-02T06:44:06.284Z</time></trkpt><trkpt lat="42.39855" lon="14.1253233"><ele>45.0</ele><time>2026-05-02T06:44:07.284Z</time></trkpt><trkpt lat="42.398425" lon="14.12533"><ele>45.0</ele><time>2026-05-02T06:44:08.284Z</time></trkpt><trkpt lat="42.3983033" lon="14.1253067"><ele>45.0</ele><time>2026-05-02T06:44:09.284Z</time></trkpt><trkpt lat="42.3981817" lon="14.125275"><ele>45.0</ele><time>2026-05-02T06:44:10.284Z</time></trkpt><trkpt lat="42.3980583" lon="14.1252617"><ele>45.0</ele><time>2026-05-02T06:44:11.284Z</time></trkpt><trkpt lat="42.39795" lon="14.1252733"><ele>45.25</ele><time>2026-05-02T06:44:12.284Z</time></trkpt><trkpt lat="42.3978567" lon="14.1253333"><ele>45.5</ele><time>2026-05-02T06:44:13.284Z</time></trkpt><trkpt lat="42.3977767" lon="14.125435"><ele>45.75</ele><time>2026-05-02T06:44:14.284Z</time></trkpt><trkpt lat="42.39771" lon="14.12557"><ele>46.0</ele><time>2026-05-02T06:44:15.284Z</time></trkpt><trkpt lat="42.397645" lon="14.125715"><ele>46.8</ele><time>2026-05-02T06:44:16.284Z</time></trkpt><trkpt lat="42.3975817" lon="14.1258417"><ele>47.599999999999994</ele><time>2026-05-02T06:44:17.284Z</time></trkpt><trkpt lat="42.3975067" lon="14.125945"><ele>48.4</ele><time>2026-05-02T06:44:18.284Z</time></trkpt><trkpt lat="42.39742" lon="14.1260267"><ele>49.2</ele><time>2026-05-02T06:44:19.284Z</time></trkpt><trkpt lat="42.3973233" lon="14.12609"><ele>50.0</ele><time>2026-05-02T06:44:20.285Z</time></trkpt><trkpt lat="42.3972183" lon="14.12614"><ele>51.0</ele><time>2026-05-02T06:44:21.284Z</time></trkpt><trkpt lat="42.397095" lon="14.126195"><ele>52.0</ele><time>2026-05-02T06:44:22.284Z</time></trkpt><trkpt lat="42.3969667" lon="14.1262533"><ele>53.0</ele><time>2026-05-02T06:44:23.284Z</time></trkpt><trkpt lat="42.39683" lon="14.1263117"><ele>54.0</ele><time>2026-05-02T06:44:24.284Z</time></trkpt><trkpt lat="42.39669" lon="14.1263667"><ele>54.0</ele><time>2026-05-02T06:44:25.284Z</time></trkpt><trkpt lat="42.3965567" lon="14.12642"><ele>54.0</ele><time>2026-05-02T06:44:26.285Z</time></trkpt><trkpt lat="42.3964383" lon="14.1264717"><ele>54.0</ele><time>2026-05-02T06:44:27.284Z</time></trkpt><trkpt lat="42.3963267" lon="14.12651"><ele>54.0</ele><time>2026-05-02T06:44:28.284Z</time></trkpt><trkpt lat="42.396205" lon="14.12654"><ele>54.0</ele><time>2026-05-02T06:44:29.284Z</time></trkpt><trkpt lat="42.3960633" lon="14.126565"><ele>54.0</ele><time>2026-05-02T06:44:30.284Z</time></trkpt><trkpt lat="42.3959067" lon="14.1265983"><ele>54.0</ele><time>2026-05-02T06:44:31.284Z</time></trkpt><trkpt lat="42.39574" lon="14.126635"><ele>54.0</ele><time>2026-05-02T06:44:32.284Z</time></trkpt><trkpt lat="42.3955733" lon="14.1266717"><ele>54.0</ele><time>2026-05-02T06:44:33.284Z</time></trkpt><trkpt lat="42.39541" lon="14.1267117"><ele>54.0</ele><time>2026-05-02T06:44:34.284Z</time></trkpt><trkpt lat="42.39526" lon="14.12674"><ele>54.0</ele><time>2026-05-02T06:44:35.284Z</time></trkpt><trkpt lat="42.3951083" lon="14.12677"><ele>54.0</ele><time>2026-05-02T06:44:36.284Z</time></trkpt><trkpt lat="42.3949583" lon="14.126795"><ele>54.0</ele><time>2026-05-02T06:44:37.284Z</time></trkpt><trkpt lat="42.394815" lon="14.1268217"><ele>54.0</ele><time>2026-05-02T06:44:38.284Z</time></trkpt><trkpt lat="42.3946667" lon="14.1268467"><ele>54.75</ele><time>2026-05-02T06:44:39.284Z</time></trkpt><trkpt lat="42.3945233" lon="14.1268717"><ele>55.5</ele><time>2026-05-02T06:44:40.284Z</time></trkpt><trkpt lat="42.394375" lon="14.1269033"><ele>56.25</ele><time>2026-05-02T06:44:41.285Z</time></trkpt><trkpt lat="42.3942283" lon="14.1269317"><ele>57.0</ele><time>2026-05-02T06:44:42.284Z</time></trkpt><trkpt lat="42.394085" lon="14.1269633"><ele>57.0</ele><time>2026-05-02T06:44:43.284Z</time></trkpt><trkpt lat="42.3939433" lon="14.127"><ele>57.0</ele><time>2026-05-02T06:44:44.284Z</time></trkpt><trkpt lat="42.39379" lon="14.1270483"><ele>57.0</ele><time>2026-05-02T06:44:45.285Z</time></trkpt><trkpt lat="42.3936417" lon="14.1271217"><ele>56.33333333333333</ele><time>2026-05-02T06:44:46.284Z</time></trkpt><trkpt lat="42.3935083" lon="14.127225"><ele>55.666666666666664</ele><time>2026-05-02T06:44:47.284Z</time></trkpt><trkpt lat="42.393375" lon="14.1273533"><ele>55.0</ele><time>2026-05-02T06:44:48.284Z</time></trkpt><trkpt lat="42.39325" lon="14.1274933"><ele>54.666666666666664</ele><time>2026-05-02T06:44:49.285Z</time></trkpt><trkpt lat="42.3931283" lon="14.1276433"><ele>54.33333333333333</ele><time>2026-05-02T06:44:50.284Z</time></trkpt><trkpt lat="42.393" lon="14.1278"><ele>54.0</ele><time>2026-05-02T06:44:51.284Z</time></trkpt><trkpt lat="42.392855" lon="14.1279633"><ele>54.0</ele><time>2026-05-02T06:44:52.284Z</time></trkpt><trkpt lat="42.392735" lon="14.1281267"><ele>54.0</ele><time>2026-05-02T06:44:53.284Z</time></trkpt><trkpt lat="42.3926117" lon="14.1283017"><ele>54.0</ele><time>2026-05-02T06:44:54.284Z</time></trkpt><trkpt lat="42.3925067" lon="14.128465"><ele>54.0</ele><time>2026-05-02T06:44:55.284Z</time></trkpt><trkpt lat="42.3924" lon="14.128625"><ele>54.0</ele><time>2026-05-02T06:44:56.284Z</time></trkpt><trkpt lat="42.3923067" lon="14.128765"><ele>54.0</ele><time>2026-05-02T06:44:57.284Z</time></trkpt><trkpt lat="42.3922167" lon="14.1288983"><ele>54.0</ele><time>2026-05-02T06:44:58.284Z</time></trkpt><trkpt lat="42.39212" lon="14.1290317"><ele>54.25</ele><time>2026-05-02T06:44:59.285Z</time></trkpt><trkpt lat="42.3920267" lon="14.1291633"><ele>54.5</ele><time>2026-05-02T06:45:00.284Z</time></trkpt><trkpt lat="42.3919417" lon="14.1292767"><ele>54.75</ele><time>2026-05-02T06:45:01.285Z</time></trkpt><trkpt lat="42.3918617" lon="14.129375"><ele>55.0</ele><time>2026-05-02T06:45:02.284Z</time></trkpt><trkpt lat="42.3917767" lon="14.1294583"><ele>55.0</ele><time>2026-05-02T06:45:03.284Z</time></trkpt><trkpt lat="42.39169" lon="14.1295117"><ele>55.0</ele><time>2026-05-02T06:45:04.284Z</time></trkpt><trkpt lat="42.3915883" lon="14.1295333"><ele>55.0</ele><time>2026-05-02T06:45:05.284Z</time></trkpt><trkpt lat="42.3914933" lon="14.1295317"><ele>55.0</ele><time>2026-05-02T06:45:06.284Z</time></trkpt><trkpt lat="42.391395" lon="14.129495"><ele>55.0</ele><time>2026-05-02T06:45:07.285Z</time></trkpt><trkpt lat="42.3912917" lon="14.1294583"><ele>51.75</ele><time>2026-05-02T06:45:08.284Z</time></trkpt><trkpt lat="42.3911783" lon="14.129425"><ele>48.5</ele><time>2026-05-02T06:45:09.284Z</time></trkpt><trkpt lat="42.3910567" lon="14.1294"><ele>45.25</ele><time>2026-05-02T06:45:10.285Z</time></trkpt><trkpt lat="42.390915" lon="14.129415"><ele>42.0</ele><time>2026-05-02T06:45:11.284Z</time></trkpt><trkpt lat="42.3907733" lon="14.1294533"><ele>42.0</ele><time>2026-05-02T06:45:12.284Z</time></trkpt><trkpt lat="42.3906333" lon="14.1295017"><ele>42.0</ele><time>2026-05-02T06:45:13.285Z</time></trkpt><trkpt lat="42.3905" lon="14.12956"><ele>42.0</ele><time>2026-05-02T06:45:14.285Z</time></trkpt><trkpt lat="42.3903717" lon="14.1296083"><ele>42.0</ele><time>2026-05-02T06:45:15.284Z</time></trkpt><trkpt lat="42.3902467" lon="14.1296567"><ele>39.6</ele><time>2026-05-02T06:45:16.284Z</time></trkpt><trkpt lat="42.3901283" lon="14.1297133"><ele>37.2</ele><time>2026-05-02T06:45:17.285Z</time></trkpt><trkpt lat="42.3900183" lon="14.129755"><ele>34.8</ele><time>2026-05-02T06:45:18.284Z</time></trkpt><trkpt lat="42.3899233" lon="14.1297883"><ele>32.4</ele><time>2026-05-02T06:45:19.284Z</time></trkpt><trkpt lat="42.38984" lon="14.1298117"><ele>30.0</ele><time>2026-05-02T06:45:20.284Z</time></trkpt><trkpt lat="42.3897667" lon="14.129835"><ele>30.0</ele><time>2026-05-02T06:45:21.284Z</time></trkpt><trkpt lat="42.3897033" lon="14.1298467"><ele>30.0</ele><time>2026-05-02T06:45:22.284Z</time></trkpt><trkpt lat="42.389615" lon="14.1298483"><ele>30.0</ele><time>2026-05-02T06:45:24.284Z</time></trkpt><trkpt lat="42.3895467" lon="14.1298733"><ele>30.0</ele><time>2026-05-02T06:45:29.284Z</time></trkpt><trkpt lat="42.3894417" lon="14.1299717"><ele>30.0</ele><time>2026-05-02T06:45:31.284Z</time></trkpt><trkpt lat="42.3893733" lon="14.1300367"><ele>30.0</ele><time>2026-05-02T06:45:32.284Z</time></trkpt><trkpt lat="42.3892933" lon="14.1301083"><ele>30.0</ele><time>2026-05-02T06:45:33.284Z</time></trkpt><trkpt lat="42.38921" lon="14.13018"><ele>30.0</ele><time>2026-05-02T06:45:34.284Z</time></trkpt><trkpt lat="42.3891283" lon="14.1302533"><ele>30.0</ele><time>2026-05-02T06:45:35.284Z</time></trkpt><trkpt lat="42.3890567" lon="14.1303083"><ele>30.0</ele><time>2026-05-02T06:45:36.284Z</time></trkpt><trkpt lat="42.388995" lon="14.1303617"><ele>30.0</ele><time>2026-05-02T06:45:37.284Z</time></trkpt><trkpt lat="42.388935" lon="14.1304067"><ele>30.0</ele><time>2026-05-02T06:45:38.284Z</time></trkpt><trkpt lat="42.3888333" lon="14.13048"><ele>30.0</ele><time>2026-05-02T06:45:40.284Z</time></trkpt><trkpt lat="42.3887233" lon="14.1305617"><ele>30.0</ele><time>2026-05-02T06:45:42.284Z</time></trkpt><trkpt lat="42.3886217" lon="14.1306233"><ele>30.0</ele><time>2026-05-02T06:45:44.284Z</time></trkpt><trkpt lat="42.38853" lon="14.1306517"><ele>30.0</ele><time>2026-05-02T06:45:46.284Z</time></trkpt><trkpt lat="42.3884067" lon="14.1306117"><ele>30.0</ele><time>2026-05-02T06:45:48.285Z</time></trkpt><trkpt lat="42.3883333" lon="14.1305817"><ele>30.0</ele><time>2026-05-02T06:45:49.284Z</time></trkpt><trkpt lat="42.3882633" lon="14.1305383"><ele>30.0</ele><time>2026-05-02T06:45:50.284Z</time></trkpt><trkpt lat="42.3881983" lon="14.1304917"><ele>30.0</ele><time>2026-05-02T06:45:51.284Z</time></trkpt><trkpt lat="42.3881" lon="14.130415"><ele>30.0</ele><time>2026-05-02T06:45:53.284Z</time></trkpt><trkpt lat="42.388" lon="14.130355"><ele>30.4</ele><time>2026-05-02T06:45:55.284Z</time></trkpt><trkpt lat="42.3879333" lon="14.130335"><ele>30.8</ele><time>2026-05-02T06:45:56.284Z</time></trkpt><trkpt lat="42.3878567" lon="14.1303017"><ele>31.200000000000003</ele><time>2026-05-02T06:45:57.284Z</time></trkpt><trkpt lat="42.3877767" lon="14.130245"><ele>31.6</ele><time>2026-05-02T06:45:58.284Z</time></trkpt><trkpt lat="42.38769" lon="14.1301617"><ele>32.0</ele><time>2026-05-02T06:45:59.284Z</time></trkpt><trkpt lat="42.38759" lon="14.1300817"><ele>32.0</ele><time>2026-05-02T06:46:00.284Z</time></trkpt><trkpt lat="42.387495" lon="14.1300017"><ele>32.0</ele><time>2026-05-02T06:46:01.285Z</time></trkpt><trkpt lat="42.3874067" lon="14.1299317"><ele>32.0</ele><time>2026-05-02T06:46:02.284Z</time></trkpt><trkpt lat="42.3873267" lon="14.129855"><ele>32.0</ele><time>2026-05-02T06:46:03.284Z</time></trkpt><trkpt lat="42.387255" lon="14.1297817"><ele>32.0</ele><time>2026-05-02T06:46:04.284Z</time></trkpt><trkpt lat="42.38719" lon="14.1297233"><ele>32.166666666666664</ele><time>2026-05-02T06:46:05.284Z</time></trkpt><trkpt lat="42.387135" lon="14.129665"><ele>32.33333333333333</ele><time>2026-05-02T06:46:06.285Z</time></trkpt><trkpt lat="42.3870783" lon="14.129605"><ele>32.5</ele><time>2026-05-02T06:46:07.284Z</time></trkpt><trkpt lat="42.3870183" lon="14.1295433"><ele>32.666666666666664</ele><time>2026-05-02T06:46:08.284Z</time></trkpt><trkpt lat="42.38695" lon="14.1294717"><ele>32.833333333333336</ele><time>2026-05-02T06:46:09.284Z</time></trkpt><trkpt lat="42.3868883" lon="14.1293867"><ele>33.0</ele><time>2026-05-02T06:46:10.284Z</time></trkpt><trkpt lat="42.3868117" lon="14.129275"><ele>33.0</ele><time>2026-05-02T06:46:11.284Z</time></trkpt><trkpt lat="42.3867267" lon="14.1291383"><ele>33.0</ele><time>2026-05-02T06:46:12.284Z</time></trkpt><trkpt lat="42.38664" lon="14.1289783"><ele>33.0</ele><time>2026-05-02T06:46:13.284Z</time></trkpt><trkpt lat="42.3865433" lon="14.1288183"><ele>33.0</ele><time>2026-05-02T06:46:14.284Z</time></trkpt><trkpt lat="42.3864483" lon="14.1286667"><ele>33.666666666666664</ele><time>2026-05-02T06:46:15.284Z</time></trkpt><trkpt lat="42.3863483" lon="14.12852"><ele>34.33333333333333</ele><time>2026-05-02T06:46:16.284Z</time></trkpt><trkpt lat="42.38623" lon="14.12836"><ele>35.0</ele><time>2026-05-02T06:46:17.284Z</time></trkpt><trkpt lat="42.3860917" lon="14.1282067"><ele>35.33333333333333</ele><time>2026-05-02T06:46:18.284Z</time></trkpt><trkpt lat="42.3859317" lon="14.128065"><ele>35.666666666666664</ele><time>2026-05-02T06:46:19.284Z</time></trkpt><trkpt lat="42.385765" lon="14.1279117"><ele>36.0</ele><time>2026-05-02T06:46:20.284Z</time></trkpt><trkpt lat="42.3856067" lon="14.1277567"><ele>36.0</ele><time>2026-05-02T06:46:21.284Z</time></trkpt><trkpt lat="42.3854483" lon="14.12759"><ele>36.0</ele><time>2026-05-02T06:46:22.285Z</time></trkpt><trkpt lat="42.385305" lon="14.12743"><ele>36.0</ele><time>2026-05-02T06:46:23.284Z</time></trkpt><trkpt lat="42.3851683" lon="14.1272867"><ele>39.0</ele><time>2026-05-02T06:46:24.284Z</time></trkpt><trkpt lat="42.3850333" lon="14.1271783"><ele>42.0</ele><time>2026-05-02T06:46:25.284Z</time></trkpt><trkpt lat="42.384895" lon="14.1271"><ele>45.0</ele><time>2026-05-02T06:46:26.284Z</time></trkpt><trkpt lat="42.384745" lon="14.1270267"><ele>44.0</ele><time>2026-05-02T06:46:27.284Z</time></trkpt><trkpt lat="42.38459" lon="14.1269433"><ele>43.0</ele><time>2026-05-02T06:46:28.284Z</time></trkpt><trkpt lat="42.3844217" lon="14.1268783"><ele>42.0</ele><time>2026-05-02T06:46:29.284Z</time></trkpt><trkpt lat="42.384245" lon="14.1267983"><ele>42.0</ele><time>2026-05-02T06:46:30.284Z</time></trkpt><trkpt lat="42.3840733" lon="14.12672"><ele>42.0</ele><time>2026-05-02T06:46:31.284Z</time></trkpt><trkpt lat="42.38392" lon="14.12664"><ele>42.0</ele><time>2026-05-02T06:46:32.284Z</time></trkpt><trkpt lat="42.3837817" lon="14.1265683"><ele>44.75</ele><time>2026-05-02T06:46:33.284Z</time></trkpt><trkpt lat="42.38366" lon="14.1264917"><ele>47.5</ele><time>2026-05-02T06:46:34.284Z</time></trkpt><trkpt lat="42.3835367" lon="14.12643"><ele>50.25</ele><time>2026-05-02T06:46:35.284Z</time></trkpt><trkpt lat="42.383425" lon="14.1263933"><ele>53.0</ele><time>2026-05-02T06:46:36.284Z</time></trkpt><trkpt lat="42.383315" lon="14.1263683"><ele>53.0</ele><time>2026-05-02T06:46:37.284Z</time></trkpt><trkpt lat="42.3831983" lon="14.1263583"><ele>53.0</ele><time>2026-05-02T06:46:38.284Z</time></trkpt><trkpt lat="42.38308" lon="14.1263583"><ele>53.0</ele><time>2026-05-02T06:46:39.284Z</time></trkpt><trkpt lat="42.382955" lon="14.12635"><ele>53.0</ele><time>2026-05-02T06:46:40.284Z</time></trkpt><trkpt lat="42.3828267" lon="14.1263367"><ele>53.0</ele><time>2026-05-02T06:46:41.284Z</time></trkpt><trkpt lat="42.3826967" lon="14.1263017"><ele>53.0</ele><time>2026-05-02T06:46:42.284Z</time></trkpt><trkpt lat="42.38258" lon="14.1262417"><ele>53.0</ele><time>2026-05-02T06:46:43.284Z</time></trkpt><trkpt lat="42.382455" lon="14.1261667"><ele>53.0</ele><time>2026-05-02T06:46:44.284Z</time></trkpt><trkpt lat="42.3823333" lon="14.12606"><ele>53.0</ele><time>2026-05-02T06:46:45.284Z</time></trkpt><trkpt lat="42.382205" lon="14.1259383"><ele>53.0</ele><time>2026-05-02T06:46:46.284Z</time></trkpt><trkpt lat="42.3820717" lon="14.1258117"><ele>53.0</ele><time>2026-05-02T06:46:47.285Z</time></trkpt><trkpt lat="42.3819217" lon="14.1256767"><ele>53.0</ele><time>2026-05-02T06:46:48.284Z</time></trkpt><trkpt lat="42.3817533" lon="14.1255433"><ele>53.0</ele><time>2026-05-02T06:46:49.284Z</time></trkpt><trkpt lat="42.3815883" lon="14.1254217"><ele>53.0</ele><time>2026-05-02T06:46:50.284Z</time></trkpt><trkpt lat="42.38142" lon="14.1253167"><ele>51.333333333333336</ele><time>2026-05-02T06:46:51.284Z</time></trkpt><trkpt lat="42.3812517" lon="14.1252083"><ele>49.66666666666667</ele><time>2026-05-02T06:46:52.285Z</time></trkpt><trkpt lat="42.381095" lon="14.1250983"><ele>48.0</ele><time>2026-05-02T06:46:53.285Z</time></trkpt><trkpt lat="42.3809467" lon="14.1249917"><ele>49.33333333333333</ele><time>2026-05-02T06:46:54.284Z</time></trkpt><trkpt lat="42.3808017" lon="14.1248833"><ele>50.666666666666664</ele><time>2026-05-02T06:46:55.284Z</time></trkpt><trkpt lat="42.3806533" lon="14.12477"><ele>52.0</ele><time>2026-05-02T06:46:56.284Z</time></trkpt><trkpt lat="42.3805017" lon="14.1246583"><ele>52.0</ele><time>2026-05-02T06:46:57.284Z</time></trkpt><trkpt lat="42.38035" lon="14.1245517"><ele>52.0</ele><time>2026-05-02T06:46:58.284Z</time></trkpt><trkpt lat="42.3802183" lon="14.1244583"><ele>52.0</ele><time>2026-05-02T06:46:59.285Z</time></trkpt><trkpt lat="42.380105" lon="14.1243767"><ele>52.0</ele><time>2026-05-02T06:47:00.284Z</time></trkpt><trkpt lat="42.380005" lon="14.1243033"><ele>51.99999999999999</ele><time>2026-05-02T06:47:01.284Z</time></trkpt><trkpt lat="42.37992" lon="14.124225"><ele>52.0</ele><time>2026-05-02T06:47:02.284Z</time></trkpt><trkpt lat="42.3798567" lon="14.1241233"><ele>52.0</ele><time>2026-05-02T06:47:03.284Z</time></trkpt><trkpt lat="42.379815" lon="14.1240117"><ele>52.0</ele><time>2026-05-02T06:47:04.284Z</time></trkpt><trkpt lat="42.3797917" lon="14.1239083"><ele>51.99999999999999</ele><time>2026-05-02T06:47:05.284Z</time></trkpt><trkpt lat="42.379765" lon="14.12382"><ele>52.0</ele><time>2026-05-02T06:47:06.284Z</time></trkpt><trkpt lat="42.3797183" lon="14.12376"><ele>53.400000000000006</ele><time>2026-05-02T06:47:07.284Z</time></trkpt><trkpt lat="42.3796567" lon="14.123725"><ele>54.800000000000004</ele><time>2026-05-02T06:47:08.284Z</time></trkpt><trkpt lat="42.3795717" lon="14.1237"><ele>56.2</ele><time>2026-05-02T06:47:09.284Z</time></trkpt><trkpt lat="42.3794583" lon="14.1236767"><ele>57.6</ele><time>2026-05-02T06:47:10.284Z</time></trkpt><trkpt lat="42.37934" lon="14.1236517"><ele>59.0</ele><time>2026-05-02T06:47:11.284Z</time></trkpt><trkpt lat="42.379215" lon="14.1236317"><ele>59.0</ele><time>2026-05-02T06:47:12.284Z</time></trkpt><trkpt lat="42.379085" lon="14.123595"><ele>59.0</ele><time>2026-05-02T06:47:13.284Z</time></trkpt><trkpt lat="42.3789417" lon="14.1235683"><ele>59.0</ele><time>2026-05-02T06:47:14.284Z</time></trkpt><trkpt lat="42.3787817" lon="14.12355"><ele>59.0</ele><time>2026-05-02T06:47:15.284Z</time></trkpt><trkpt lat="42.37862" lon="14.1235283"><ele>57.66666666666667</ele><time>2026-05-02T06:47:16.284Z</time></trkpt><trkpt lat="42.378465" lon="14.123505"><ele>56.33333333333333</ele><time>2026-05-02T06:47:17.284Z</time></trkpt><trkpt lat="42.3783126" lon="14.1234788"><ele>55.0</ele><time>2026-05-02T06:47:18.284Z</time></trkpt><trkpt lat="42.3781656" lon="14.1234457"><ele>55.0</ele><time>2026-05-02T06:47:19.284Z</time></trkpt><trkpt lat="42.3780273" lon="14.123424"><ele>55.0</ele><time>2026-05-02T06:47:20.284Z</time></trkpt><trkpt lat="42.377894" lon="14.1234014"><ele>55.0</ele><time>2026-05-02T06:47:21.284Z</time></trkpt><trkpt lat="42.3777628" lon="14.1233808"><ele>55.0</ele><time>2026-05-02T06:47:22.284Z</time></trkpt><trkpt lat="42.3776382" lon="14.1233611"><ele>53.2</ele><time>2026-05-02T06:47:23.284Z</time></trkpt><trkpt lat="42.3775236" lon="14.1233425"><ele>51.4</ele><time>2026-05-02T06:47:24.284Z</time></trkpt><trkpt lat="42.37742" lon="14.123335"><ele>49.599999999999994</ele><time>2026-05-02T06:47:25.284Z</time></trkpt><trkpt lat="42.3773185" lon="14.123356"><ele>47.8</ele><time>2026-05-02T06:47:26.284Z</time></trkpt><trkpt lat="42.3772214" lon="14.1234146"><ele>46.0</ele><time>2026-05-02T06:47:27.284Z</time></trkpt><trkpt lat="42.3771385" lon="14.123513"><ele>45.599999999999994</ele><time>2026-05-02T06:47:28.284Z</time></trkpt><trkpt lat="42.3770668" lon="14.1236338"><ele>45.2</ele><time>2026-05-02T06:47:29.284Z</time></trkpt><trkpt lat="42.3770008" lon="14.1237574"><ele>44.8</ele><time>2026-05-02T06:47:30.284Z</time></trkpt><trkpt lat="42.3769378" lon="14.1238714"><ele>44.400000000000006</ele><time>2026-05-02T06:47:31.284Z</time></trkpt><trkpt lat="42.376871" lon="14.1239723"><ele>44.0</ele><time>2026-05-02T06:47:32.284Z</time></trkpt><trkpt lat="42.3767988" lon="14.1240546"><ele>42.800000000000004</ele><time>2026-05-02T06:47:33.284Z</time></trkpt><trkpt lat="42.3767214" lon="14.1241194"><ele>41.6</ele><time>2026-05-02T06:47:34.285Z</time></trkpt><trkpt lat="42.376635" lon="14.12417"><ele>40.4</ele><time>2026-05-02T06:47:35.284Z</time></trkpt><trkpt lat="42.3765396" lon="14.1241926"><ele>39.2</ele><time>2026-05-02T06:47:36.284Z</time></trkpt><trkpt lat="42.37642" lon="14.1241802"><ele>38.0</ele><time>2026-05-02T06:47:37.284Z</time></trkpt><trkpt lat="42.3762791" lon="14.1241344"><ele>39.666666666666664</ele><time>2026-05-02T06:47:38.284Z</time></trkpt><trkpt lat="42.3761262" lon="14.1240572"><ele>41.333333333333336</ele><time>2026-05-02T06:47:39.284Z</time></trkpt><trkpt lat="42.3759454" lon="14.1239738"><ele>43.0</ele><time>2026-05-02T06:47:40.284Z</time></trkpt><trkpt lat="42.3757645" lon="14.1238998"><ele>43.0</ele><time>2026-05-02T06:47:41.284Z</time></trkpt><trkpt lat="42.3756087" lon="14.12382"><ele>43.0</ele><time>2026-05-02T06:47:42.284Z</time></trkpt><trkpt lat="42.3754642" lon="14.1237258"><ele>43.0</ele><time>2026-05-02T06:47:43.284Z</time></trkpt><trkpt lat="42.3753281" lon="14.1236224"><ele>42.0</ele><time>2026-05-02T06:47:44.284Z</time></trkpt><trkpt lat="42.375198" lon="14.1235196"><ele>41.0</ele><time>2026-05-02T06:47:45.285Z</time></trkpt><trkpt lat="42.3750805" lon="14.1234293"><ele>40.0</ele><time>2026-05-02T06:47:46.284Z</time></trkpt><trkpt lat="42.3749697" lon="14.1233431"><ele>39.0</ele><time>2026-05-02T06:47:47.284Z</time></trkpt><trkpt lat="42.3748659" lon="14.123262"><ele>39.4</ele><time>2026-05-02T06:47:48.285Z</time></trkpt><trkpt lat="42.3747637" lon="14.123182"><ele>39.8</ele><time>2026-05-02T06:47:49.285Z</time></trkpt><trkpt lat="42.3746683" lon="14.1231046"><ele>40.199999999999996</ele><time>2026-05-02T06:47:50.284Z</time></trkpt><trkpt lat="42.374575" lon="14.123025"><ele>40.599999999999994</ele><time>2026-05-02T06:47:51.284Z</time></trkpt><trkpt lat="42.3744817" lon="14.12295"><ele>41.0</ele><time>2026-05-02T06:47:52.284Z</time></trkpt><trkpt lat="42.3743917" lon="14.1228717"><ele>41.0</ele><time>2026-05-02T06:47:53.284Z</time></trkpt><trkpt lat="42.37432" lon="14.122795"><ele>41.0</ele><time>2026-05-02T06:47:54.284Z</time></trkpt><trkpt lat="42.3742483" lon="14.1227017"><ele>41.0</ele><time>2026-05-02T06:47:56.284Z</time></trkpt><trkpt lat="42.3741967" lon="14.1226283"><ele>41.0</ele><time>2026-05-02T06:47:59.284Z</time></trkpt><trkpt lat="42.3741167" lon="14.1225817"><ele>41.0</ele><time>2026-05-02T06:48:01.284Z</time></trkpt><trkpt lat="42.3740517" lon="14.12255"><ele>41.0</ele><time>2026-05-02T06:48:02.284Z</time></trkpt><trkpt lat="42.373975" lon="14.1225183"><ele>41.0</ele><time>2026-05-02T06:48:03.284Z</time></trkpt><trkpt lat="42.3738833" lon="14.12247"><ele>41.0</ele><time>2026-05-02T06:48:04.284Z</time></trkpt><trkpt lat="42.3737783" lon="14.12239"><ele>41.0</ele><time>2026-05-02T06:48:05.284Z</time></trkpt><trkpt lat="42.3736583" lon="14.1223033"><ele>41.0</ele><time>2026-05-02T06:48:06.284Z</time></trkpt><trkpt lat="42.37353" lon="14.1222083"><ele>41.0</ele><time>2026-05-02T06:48:07.285Z</time></trkpt><trkpt lat="42.3734" lon="14.1221017"><ele>41.0</ele><time>2026-05-02T06:48:08.284Z</time></trkpt><trkpt lat="42.3732583" lon="14.12198"><ele>41.0</ele><time>2026-05-02T06:48:09.284Z</time></trkpt><trkpt lat="42.3731083" lon="14.1218733"><ele>41.666666666666664</ele><time>2026-05-02T06:48:10.284Z</time></trkpt><trkpt lat="42.3729733" lon="14.1217567"><ele>42.333333333333336</ele><time>2026-05-02T06:48:11.285Z</time></trkpt><trkpt lat="42.3728283" lon="14.1216383"><ele>43.0</ele><time>2026-05-02T06:48:12.284Z</time></trkpt><trkpt lat="42.3726783" lon="14.1215333"><ele>43.0</ele><time>2026-05-02T06:48:13.285Z</time></trkpt><trkpt lat="42.3725317" lon="14.1214167"><ele>43.0</ele><time>2026-05-02T06:48:14.284Z</time></trkpt><trkpt lat="42.3723817" lon="14.1212917"><ele>43.0</ele><time>2026-05-02T06:48:15.285Z</time></trkpt><trkpt lat="42.3722167" lon="14.12117"><ele>39.66666666666667</ele><time>2026-05-02T06:48:16.284Z</time></trkpt><trkpt lat="42.37205" lon="14.12106"><ele>36.333333333333336</ele><time>2026-05-02T06:48:17.284Z</time></trkpt><trkpt lat="42.37189" lon="14.1209717"><ele>33.0</ele><time>2026-05-02T06:48:18.284Z</time></trkpt><trkpt lat="42.3717433" lon="14.1209017"><ele>33.0</ele><time>2026-05-02T06:48:19.284Z</time></trkpt><trkpt lat="42.371605" lon="14.120845"><ele>33.0</ele><time>2026-05-02T06:48:20.284Z</time></trkpt><trkpt lat="42.371465" lon="14.1207833"><ele>33.0</ele><time>2026-05-02T06:48:21.284Z</time></trkpt><trkpt lat="42.3713233" lon="14.1207133"><ele>33.0</ele><time>2026-05-02T06:48:22.284Z</time></trkpt><trkpt lat="42.3711833" lon="14.120655"><ele>34.666666666666664</ele><time>2026-05-02T06:48:23.284Z</time></trkpt><trkpt lat="42.371035" lon="14.1205967"><ele>36.33333333333333</ele><time>2026-05-02T06:48:24.284Z</time></trkpt><trkpt lat="42.3708617" lon="14.12054"><ele>38.0</ele><time>2026-05-02T06:48:25.284Z</time></trkpt><trkpt lat="42.37066" lon="14.1204983"><ele>37.666666666666664</ele><time>2026-05-02T06:48:26.284Z</time></trkpt><trkpt lat="42.3704667" lon="14.1204633"><ele>37.333333333333336</ele><time>2026-05-02T06:48:27.284Z</time></trkpt><trkpt lat="42.3702617" lon="14.1204383"><ele>37.0</ele><time>2026-05-02T06:48:28.284Z</time></trkpt><trkpt lat="42.3700633" lon="14.1204033"><ele>37.0</ele><time>2026-05-02T06:48:29.285Z</time></trkpt><trkpt lat="42.3698767" lon="14.120375"><ele>37.0</ele><time>2026-05-02T06:48:30.284Z</time></trkpt><trkpt lat="42.3697017" lon="14.120345"><ele>37.0</ele><time>2026-05-02T06:48:31.284Z</time></trkpt><trkpt lat="42.3695167" lon="14.1203233"><ele>37.0</ele><time>2026-05-02T06:48:32.284Z</time></trkpt><trkpt lat="42.36934" lon="14.1203033"><ele>37.0</ele><time>2026-05-02T06:48:33.284Z</time></trkpt><trkpt lat="42.3691583" lon="14.120285"><ele>37.0</ele><time>2026-05-02T06:48:34.284Z</time></trkpt><trkpt lat="42.368965" lon="14.1202683"><ele>34.333333333333336</ele><time>2026-05-02T06:48:35.284Z</time></trkpt><trkpt lat="42.3687783" lon="14.120245"><ele>31.666666666666664</ele><time>2026-05-02T06:48:36.284Z</time></trkpt><trkpt lat="42.3686017" lon="14.1202117"><ele>29.0</ele><time>2026-05-02T06:48:37.284Z</time></trkpt><trkpt lat="42.3684317" lon="14.12017"><ele>29.0</ele><time>2026-05-02T06:48:38.284Z</time></trkpt><trkpt lat="42.3682683" lon="14.1200817"><ele>29.0</ele><time>2026-05-02T06:48:39.284Z</time></trkpt><trkpt lat="42.3681017" lon="14.1199783"><ele>29.0</ele><time>2026-05-02T06:48:40.284Z</time></trkpt><trkpt lat="42.3679283" lon="14.119875"><ele>28.666666666666664</ele><time>2026-05-02T06:48:41.284Z</time></trkpt><trkpt lat="42.3677517" lon="14.1197567"><ele>28.333333333333336</ele><time>2026-05-02T06:48:42.284Z</time></trkpt><trkpt lat="42.3675817" lon="14.11964"><ele>28.0</ele><time>2026-05-02T06:48:43.284Z</time></trkpt><trkpt lat="42.3674167" lon="14.1195283"><ele>28.0</ele><time>2026-05-02T06:48:44.284Z</time></trkpt><trkpt lat="42.3672533" lon="14.1194117"><ele>28.0</ele><time>2026-05-02T06:48:45.284Z</time></trkpt><trkpt lat="42.3670967" lon="14.1193067"><ele>28.0</ele><time>2026-05-02T06:48:46.284Z</time></trkpt><trkpt lat="42.366935" lon="14.1192017"><ele>28.0</ele><time>2026-05-02T06:48:47.284Z</time></trkpt><trkpt lat="42.3667767" lon="14.1190867"><ele>28.0</ele><time>2026-05-02T06:48:48.284Z</time></trkpt><trkpt lat="42.3666233" lon="14.1189817"><ele>28.0</ele><time>2026-05-02T06:48:49.284Z</time></trkpt><trkpt lat="42.3664817" lon="14.1188883"><ele>28.0</ele><time>2026-05-02T06:48:50.285Z</time></trkpt><trkpt lat="42.3663383" lon="14.11879"><ele>28.0</ele><time>2026-05-02T06:48:51.284Z</time></trkpt><trkpt lat="42.3662083" lon="14.1187"><ele>28.0</ele><time>2026-05-02T06:48:52.284Z</time></trkpt><trkpt lat="42.36608" lon="14.1186033"><ele>28.0</ele><time>2026-05-02T06:48:53.284Z</time></trkpt><trkpt lat="42.36595" lon="14.1185017"><ele>28.0</ele><time>2026-05-02T06:48:54.284Z</time></trkpt><trkpt lat="42.3658117" lon="14.1184067"><ele>28.0</ele><time>2026-05-02T06:48:55.284Z</time></trkpt><trkpt lat="42.3656733" lon="14.11831"><ele>29.333333333333336</ele><time>2026-05-02T06:48:56.285Z</time></trkpt><trkpt lat="42.3655283" lon="14.1182283"><ele>30.666666666666664</ele><time>2026-05-02T06:48:57.284Z</time></trkpt><trkpt lat="42.3653817" lon="14.1181383"><ele>32.0</ele><time>2026-05-02T06:48:58.284Z</time></trkpt><trkpt lat="42.365235" lon="14.1180467"><ele>32.0</ele><time>2026-05-02T06:48:59.284Z</time></trkpt><trkpt lat="42.3650933" lon="14.1179367"><ele>32.0</ele><time>2026-05-02T06:49:00.284Z</time></trkpt><trkpt lat="42.3649583" lon="14.1178133"><ele>32.0</ele><time>2026-05-02T06:49:01.284Z</time></trkpt><trkpt lat="42.3648183" lon="14.1177233"><ele>32.33333333333333</ele><time>2026-05-02T06:49:02.285Z</time></trkpt><trkpt lat="42.36468" lon="14.1176383"><ele>32.666666666666664</ele><time>2026-05-02T06:49:03.284Z</time></trkpt><trkpt lat="42.3645367" lon="14.1175617"><ele>33.0</ele><time>2026-05-02T06:49:04.284Z</time></trkpt><trkpt lat="42.3643867" lon="14.117495"><ele>33.0</ele><time>2026-05-02T06:49:05.284Z</time></trkpt><trkpt lat="42.36423" lon="14.1174467"><ele>33.0</ele><time>2026-05-02T06:49:06.285Z</time></trkpt><trkpt lat="42.364065" lon="14.11742"><ele>33.0</ele><time>2026-05-02T06:49:07.284Z</time></trkpt><trkpt lat="42.3639" lon="14.1174117"><ele>32.333333333333336</ele><time>2026-05-02T06:49:08.284Z</time></trkpt><trkpt lat="42.3637333" lon="14.1174067"><ele>31.666666666666668</ele><time>2026-05-02T06:49:09.284Z</time></trkpt><trkpt lat="42.3635683" lon="14.1174133"><ele>31.0</ele><time>2026-05-02T06:49:10.284Z</time></trkpt><trkpt lat="42.3634017" lon="14.11741"><ele>31.0</ele><time>2026-05-02T06:49:11.285Z</time></trkpt><trkpt lat="42.36324" lon="14.117405"><ele>31.0</ele><time>2026-05-02T06:49:12.284Z</time></trkpt><trkpt lat="42.363075" lon="14.117395"><ele>31.0</ele><time>2026-05-02T06:49:13.284Z</time></trkpt><trkpt lat="42.3629083" lon="14.1173783"><ele>35.66666666666667</ele><time>2026-05-02T06:49:14.284Z</time></trkpt><trkpt lat="42.3627383" lon="14.1173467"><ele>40.333333333333336</ele><time>2026-05-02T06:49:15.284Z</time></trkpt><trkpt lat="42.3625717" lon="14.1172967"><ele>45.0</ele><time>2026-05-02T06:49:16.284Z</time></trkpt><trkpt lat="42.362415" lon="14.11722"><ele>45.0</ele><time>2026-05-02T06:49:17.284Z</time></trkpt><trkpt lat="42.36225" lon="14.117145"><ele>45.0</ele><time>2026-05-02T06:49:18.284Z</time></trkpt><trkpt lat="42.3620867" lon="14.11707"><ele>45.0</ele><time>2026-05-02T06:49:19.284Z</time></trkpt><trkpt lat="42.3619217" lon="14.1169983"><ele>42.0</ele><time>2026-05-02T06:49:20.284Z</time></trkpt><trkpt lat="42.36176" lon="14.1169233"><ele>39.0</ele><time>2026-05-02T06:49:21.284Z</time></trkpt><trkpt lat="42.3615983" lon="14.1168433"><ele>36.0</ele><time>2026-05-02T06:49:22.284Z</time></trkpt><trkpt lat="42.3614283" lon="14.1167633"><ele>34.0</ele><time>2026-05-02T06:49:23.284Z</time></trkpt><trkpt lat="42.36124" lon="14.11667"><ele>32.0</ele><time>2026-05-02T06:49:24.284Z</time></trkpt><trkpt lat="42.361045" lon="14.11659"><ele>30.0</ele><time>2026-05-02T06:49:25.284Z</time></trkpt><trkpt lat="42.3608383" lon="14.1165017"><ele>32.333333333333336</ele><time>2026-05-02T06:49:26.284Z</time></trkpt><trkpt lat="42.3606417" lon="14.1164067"><ele>34.66666666666667</ele><time>2026-05-02T06:49:27.285Z</time></trkpt><trkpt lat="42.36045" lon="14.1163183"><ele>37.0</ele><time>2026-05-02T06:49:28.284Z</time></trkpt><trkpt lat="42.36026" lon="14.1162383"><ele>37.0</ele><time>2026-05-02T06:49:29.284Z</time></trkpt><trkpt lat="42.3600767" lon="14.1161533"><ele>37.0</ele><time>2026-05-02T06:49:30.284Z</time></trkpt><trkpt lat="42.3598933" lon="14.1160767"><ele>37.0</ele><time>2026-05-02T06:49:31.284Z</time></trkpt><trkpt lat="42.35971" lon="14.116"><ele>36.66666666666667</ele><time>2026-05-02T06:49:32.284Z</time></trkpt><trkpt lat="42.3595317" lon="14.11592"><ele>36.333333333333336</ele><time>2026-05-02T06:49:33.284Z</time></trkpt><trkpt lat="42.359355" lon="14.11584"><ele>36.0</ele><time>2026-05-02T06:49:34.284Z</time></trkpt><trkpt lat="42.35918" lon="14.1157683"><ele>37.666666666666664</ele><time>2026-05-02T06:49:35.284Z</time></trkpt><trkpt lat="42.35901" lon="14.115705"><ele>39.33333333333333</ele><time>2026-05-02T06:49:36.284Z</time></trkpt><trkpt lat="42.3588367" lon="14.1156467"><ele>41.0</ele><time>2026-05-02T06:49:37.284Z</time></trkpt><trkpt lat="42.3586617" lon="14.11558"><ele>41.0</ele><time>2026-05-02T06:49:38.284Z</time></trkpt><trkpt lat="42.3584983" lon="14.1155117"><ele>41.0</ele><time>2026-05-02T06:49:39.284Z</time></trkpt><trkpt lat="42.3583317" lon="14.1154617"><ele>41.0</ele><time>2026-05-02T06:49:40.284Z</time></trkpt><trkpt lat="42.3581683" lon="14.11541"><ele>41.0</ele><time>2026-05-02T06:49:41.285Z</time></trkpt><trkpt lat="42.357995" lon="14.1153383"><ele>41.0</ele><time>2026-05-02T06:49:42.284Z</time></trkpt><trkpt lat="42.3578183" lon="14.1152633"><ele>41.0</ele><time>2026-05-02T06:49:43.284Z</time></trkpt><trkpt lat="42.357635" lon="14.1151883"><ele>41.0</ele><time>2026-05-02T06:49:44.285Z</time></trkpt><trkpt lat="42.35745" lon="14.1151167"><ele>41.0</ele><time>2026-05-02T06:49:45.284Z</time></trkpt><trkpt lat="42.35726" lon="14.1150383"><ele>41.0</ele><time>2026-05-02T06:49:46.284Z</time></trkpt><trkpt lat="42.3570767" lon="14.1149517"><ele>43.666666666666664</ele><time>2026-05-02T06:49:47.284Z</time></trkpt><trkpt lat="42.3568933" lon="14.1148717"><ele>46.33333333333333</ele><time>2026-05-02T06:49:48.284Z</time></trkpt><trkpt lat="42.3567133" lon="14.1148017"><ele>49.0</ele><time>2026-05-02T06:49:49.284Z</time></trkpt><trkpt lat="42.3565317" lon="14.1147317"><ele>48.33333333333333</ele><time>2026-05-02T06:49:50.284Z</time></trkpt><trkpt lat="42.356355" lon="14.1146633"><ele>47.666666666666664</ele><time>2026-05-02T06:49:51.285Z</time></trkpt><trkpt lat="42.356185" lon="14.1145933"><ele>47.0</ele><time>2026-05-02T06:49:52.284Z</time></trkpt><trkpt lat="42.356015" lon="14.114535"><ele>47.0</ele><time>2026-05-02T06:49:53.284Z</time></trkpt><trkpt lat="42.35585" lon="14.1144767"><ele>47.0</ele><time>2026-05-02T06:49:54.284Z</time></trkpt><trkpt lat="42.3556883" lon="14.1143933"><ele>47.0</ele><time>2026-05-02T06:49:55.285Z</time></trkpt><trkpt lat="42.35553" lon="14.1143317"><ele>43.666666666666664</ele><time>2026-05-02T06:49:56.284Z</time></trkpt><trkpt lat="42.3553733" lon="14.114265"><ele>40.333333333333336</ele><time>2026-05-02T06:49:57.284Z</time></trkpt><trkpt lat="42.355215" lon="14.1142067"><ele>37.0</ele><time>2026-05-02T06:49:58.284Z</time></trkpt><trkpt lat="42.3550467" lon="14.114145"><ele>37.0</ele><time>2026-05-02T06:49:59.284Z</time></trkpt><trkpt lat="42.354885" lon="14.1140817"><ele>37.0</ele><time>2026-05-02T06:50:00.284Z</time></trkpt><trkpt lat="42.354715" lon="14.114015"><ele>37.0</ele><time>2026-05-02T06:50:01.284Z</time></trkpt><trkpt lat="42.3545433" lon="14.1139533"><ele>36.66666666666667</ele><time>2026-05-02T06:50:02.284Z</time></trkpt><trkpt lat="42.35437" lon="14.113885"><ele>36.333333333333336</ele><time>2026-05-02T06:50:03.284Z</time></trkpt><trkpt lat="42.354195" lon="14.1138083"><ele>36.0</ele><time>2026-05-02T06:50:04.284Z</time></trkpt><trkpt lat="42.3540183" lon="14.1137317"><ele>35.666666666666664</ele><time>2026-05-02T06:50:05.284Z</time></trkpt><trkpt lat="42.3538383" lon="14.1136667"><ele>35.33333333333333</ele><time>2026-05-02T06:50:06.284Z</time></trkpt><trkpt lat="42.3536583" lon="14.1136033"><ele>35.0</ele><time>2026-05-02T06:50:07.284Z</time></trkpt><trkpt lat="42.3534833" lon="14.1135317"><ele>35.0</ele><time>2026-05-02T06:50:08.284Z</time></trkpt><trkpt lat="42.353315" lon="14.1134583"><ele>35.0</ele><time>2026-05-02T06:50:09.284Z</time></trkpt><trkpt lat="42.3531433" lon="14.1133833"><ele>35.0</ele><time>2026-05-02T06:50:10.284Z</time></trkpt><trkpt lat="42.35297" lon="14.113315"><ele>35.0</ele><time>2026-05-02T06:50:11.284Z</time></trkpt><trkpt lat="42.35279" lon="14.113245"><ele>35.0</ele><time>2026-05-02T06:50:12.284Z</time></trkpt><trkpt lat="42.3526117" lon="14.113175"><ele>35.0</ele><time>2026-05-02T06:50:13.284Z</time></trkpt><trkpt lat="42.3524383" lon="14.113105"><ele>35.0</ele><time>2026-05-02T06:50:14.284Z</time></trkpt><trkpt lat="42.3522683" lon="14.1130383"><ele>35.0</ele><time>2026-05-02T06:50:15.284Z</time></trkpt><trkpt lat="42.35209" lon="14.11297"><ele>35.0</ele><time>2026-05-02T06:50:16.284Z</time></trkpt><trkpt lat="42.3519267" lon="14.1129"><ele>36.666666666666664</ele><time>2026-05-02T06:50:17.284Z</time></trkpt><trkpt lat="42.351775" lon="14.1128333"><ele>38.333333333333336</ele><time>2026-05-02T06:50:18.284Z</time></trkpt><trkpt lat="42.3516267" lon="14.1127683"><ele>40.0</ele><time>2026-05-02T06:50:19.284Z</time></trkpt><trkpt lat="42.3514917" lon="14.1127067"><ele>41.0</ele><time>2026-05-02T06:50:20.284Z</time></trkpt><trkpt lat="42.3513583" lon="14.1126517"><ele>42.0</ele><time>2026-05-02T06:50:21.285Z</time></trkpt><trkpt lat="42.3512233" lon="14.11259"><ele>43.0</ele><time>2026-05-02T06:50:22.284Z</time></trkpt><trkpt lat="42.3510883" lon="14.11254"><ele>44.0</ele><time>2026-05-02T06:50:23.284Z</time></trkpt><trkpt lat="42.3509533" lon="14.1125033"><ele>44.0</ele><time>2026-05-02T06:50:24.284Z</time></trkpt><trkpt lat="42.3508183" lon="14.112475"><ele>44.0</ele><time>2026-05-02T06:50:25.285Z</time></trkpt><trkpt lat="42.3506867" lon="14.112455"><ele>44.0</ele><time>2026-05-02T06:50:26.284Z</time></trkpt><trkpt lat="42.35056" lon="14.1124267"><ele>44.0</ele><time>2026-05-02T06:50:27.284Z</time></trkpt><trkpt lat="42.35043" lon="14.1124167"><ele>44.0</ele><time>2026-05-02T06:50:28.285Z</time></trkpt><trkpt lat="42.3503133" lon="14.1124067"><ele>44.0</ele><time>2026-05-02T06:50:29.284Z</time></trkpt><trkpt lat="42.35021" lon="14.1123733"><ele>44.0</ele><time>2026-05-02T06:50:30.284Z</time></trkpt><trkpt lat="42.3501167" lon="14.1123483"><ele>44.0</ele><time>2026-05-02T06:50:31.284Z</time></trkpt><trkpt lat="42.3500233" lon="14.1123433"><ele>44.0</ele><time>2026-05-02T06:50:32.284Z</time></trkpt><trkpt lat="42.3499383" lon="14.11236"><ele>44.0</ele><time>2026-05-02T06:50:33.284Z</time></trkpt><trkpt lat="42.349865" lon="14.1124267"><ele>44.0</ele><time>2026-05-02T06:50:34.284Z</time></trkpt><trkpt lat="42.349795" lon="14.1125417"><ele>44.0</ele><time>2026-05-02T06:50:35.284Z</time></trkpt><trkpt lat="42.34971" lon="14.1126817"><ele>44.0</ele><time>2026-05-02T06:50:36.284Z</time></trkpt><trkpt lat="42.3496283" lon="14.1128083"><ele>43.25</ele><time>2026-05-02T06:50:37.284Z</time></trkpt><trkpt lat="42.349525" lon="14.1129033"><ele>42.5</ele><time>2026-05-02T06:50:38.285Z</time></trkpt><trkpt lat="42.3494183" lon="14.1129683"><ele>41.75</ele><time>2026-05-02T06:50:39.284Z</time></trkpt><trkpt lat="42.34931" lon="14.1130417"><ele>41.0</ele><time>2026-05-02T06:50:40.284Z</time></trkpt><trkpt lat="42.3492133" lon="14.113105"><ele>41.0</ele><time>2026-05-02T06:50:41.284Z</time></trkpt><trkpt lat="42.3491133" lon="14.11317"><ele>41.0</ele><time>2026-05-02T06:50:42.284Z</time></trkpt><trkpt lat="42.3490083" lon="14.11324"><ele>41.0</ele><time>2026-05-02T06:50:43.284Z</time></trkpt><trkpt lat="42.3489" lon="14.11331"><ele>41.0</ele><time>2026-05-02T06:50:44.284Z</time></trkpt><trkpt lat="42.3488017" lon="14.1133817"><ele>41.8</ele><time>2026-05-02T06:50:45.285Z</time></trkpt><trkpt lat="42.3487033" lon="14.113445"><ele>42.599999999999994</ele><time>2026-05-02T06:50:46.284Z</time></trkpt><trkpt lat="42.3486167" lon="14.113495"><ele>43.4</ele><time>2026-05-02T06:50:47.284Z</time></trkpt><trkpt lat="42.3485367" lon="14.1135417"><ele>44.2</ele><time>2026-05-02T06:50:48.284Z</time></trkpt><trkpt lat="42.348465" lon="14.11358"><ele>45.0</ele><time>2026-05-02T06:50:49.284Z</time></trkpt><trkpt lat="42.3483783" lon="14.113625"><ele>45.0</ele><time>2026-05-02T06:50:51.285Z</time></trkpt><trkpt lat="42.3483483" lon="14.11371"><ele>45.0</ele><time>2026-05-02T06:50:53.285Z</time></trkpt><trkpt lat="42.348415" lon="14.1137267"><ele>45.0</ele><time>2026-05-02T06:50:56.285Z</time></trkpt><trkpt lat="42.3484717" lon="14.113645"><ele>45.0</ele><time>2026-05-02T06:51:02.285Z</time></trkpt><trkpt lat="42.3485317" lon="14.1136033"><ele>45.0</ele><time>2026-05-02T06:51:03.285Z</time></trkpt><trkpt lat="42.3486133" lon="14.1135533"><ele>45.0</ele><time>2026-05-02T06:51:04.285Z</time></trkpt><trkpt lat="42.3487183" lon="14.1135"><ele>45.0</ele><time>2026-05-02T06:51:05.285Z</time></trkpt><trkpt lat="42.34884" lon="14.1134367"><ele>45.0</ele><time>2026-05-02T06:51:06.285Z</time></trkpt><trkpt lat="42.34896" lon="14.11335"><ele>45.0</ele><time>2026-05-02T06:51:07.285Z</time></trkpt><trkpt lat="42.349085" lon="14.1132633"><ele>45.0</ele><time>2026-05-02T06:51:08.285Z</time></trkpt><trkpt lat="42.3492117" lon="14.1131733"><ele>44.0</ele><time>2026-05-02T06:51:09.285Z</time></trkpt><trkpt lat="42.3493283" lon="14.113095"><ele>43.0</ele><time>2026-05-02T06:51:10.285Z</time></trkpt><trkpt lat="42.3494333" lon="14.11302"><ele>42.0</ele><time>2026-05-02T06:51:11.285Z</time></trkpt><trkpt lat="42.349535" lon="14.1129533"><ele>41.0</ele><time>2026-05-02T06:51:12.285Z</time></trkpt><trkpt lat="42.34963" lon="14.1128967"><ele>41.0</ele><time>2026-05-02T06:51:13.285Z</time></trkpt><trkpt lat="42.3497067" lon="14.11284"><ele>41.0</ele><time>2026-05-02T06:51:14.285Z</time></trkpt><trkpt lat="42.3497767" lon="14.1127833"><ele>41.0</ele><time>2026-05-02T06:51:15.285Z</time></trkpt><trkpt lat="42.3498417" lon="14.112735"><ele>41.0</ele><time>2026-05-02T06:51:16.285Z</time></trkpt><trkpt lat="42.3499033" lon="14.1126917"><ele>41.0</ele><time>2026-05-02T06:51:17.285Z</time></trkpt><trkpt lat="42.3499583" lon="14.11265"><ele>41.0</ele><time>2026-05-02T06:51:18.285Z</time></trkpt><trkpt lat="42.350055" lon="14.1125683"><ele>41.5</ele><time>2026-05-02T06:51:20.285Z</time></trkpt><trkpt lat="42.3500833" lon="14.1124283"><ele>42.0</ele><time>2026-05-02T06:51:22.285Z</time></trkpt><trkpt lat="42.3500217" lon="14.1123383"><ele>42.5</ele><time>2026-05-02T06:51:24.285Z</time></trkpt><trkpt lat="42.349925" lon="14.1123833"><ele>43.0</ele><time>2026-05-02T06:51:26.286Z</time></trkpt><trkpt lat="42.3498783" lon="14.1124417"><ele>43.5</ele><time>2026-05-02T06:51:27.285Z</time></trkpt><trkpt lat="42.3498233" lon="14.1125033"><ele>44.0</ele><time>2026-05-02T06:51:28.285Z</time></trkpt><trkpt lat="42.349775" lon="14.11256"><ele>43.400000000000006</ele><time>2026-05-02T06:51:29.285Z</time></trkpt><trkpt lat="42.3496767" lon="14.1126383"><ele>42.8</ele><time>2026-05-02T06:51:31.285Z</time></trkpt><trkpt lat="42.34959" lon="14.1127217"><ele>42.2</ele><time>2026-05-02T06:51:33.285Z</time></trkpt><trkpt lat="42.349495" lon="14.1126967"><ele>41.599999999999994</ele><time>2026-05-02T06:51:35.285Z</time></trkpt><trkpt lat="42.3494433" lon="14.1125667"><ele>41.0</ele><time>2026-05-02T06:51:37.285Z</time></trkpt><trkpt lat="42.3494217" lon="14.1124833"><ele>41.4</ele><time>2026-05-02T06:51:38.285Z</time></trkpt><trkpt lat="42.3493917" lon="14.112405"><ele>41.8</ele><time>2026-05-02T06:51:39.285Z</time></trkpt><trkpt lat="42.3493067" lon="14.1123017"><ele>42.199999999999996</ele><time>2026-05-02T06:51:41.285Z</time></trkpt><trkpt lat="42.3492167" lon="14.1122467"><ele>42.599999999999994</ele><time>2026-05-02T06:51:43.285Z</time></trkpt><trkpt lat="42.3491167" lon="14.1122117"><ele>43.0</ele><time>2026-05-02T06:51:54.285Z</time></trkpt><trkpt lat="42.349055" lon="14.1121533"><ele>43.00000000000001</ele><time>2026-05-02T06:51:56.286Z</time></trkpt><trkpt lat="42.3490217" lon="14.1120433"><ele>43.0</ele><time>2026-05-02T06:51:58.285Z</time></trkpt><trkpt lat="42.3490067" lon="14.11196"><ele>43.0</ele><time>2026-05-02T06:51:59.285Z</time></trkpt><trkpt lat="42.3489933" lon="14.1118633"><ele>43.0</ele><time>2026-05-02T06:52:00.285Z</time></trkpt><trkpt lat="42.3489833" lon="14.1117617"><ele>43.0</ele><time>2026-05-02T06:52:01.285Z</time></trkpt><trkpt lat="42.3489733" lon="14.1116667"><ele>43.00000000000001</ele><time>2026-05-02T06:52:02.285Z</time></trkpt><trkpt lat="42.3489683" lon="14.1115767"><ele>43.0</ele><time>2026-05-02T06:52:03.285Z</time></trkpt><trkpt lat="42.3489533" lon="14.1114017"><ele>43.0</ele><time>2026-05-02T06:52:05.285Z</time></trkpt><trkpt lat="42.348945" lon="14.11131"><ele>43.0</ele><time>2026-05-02T06:52:06.285Z</time></trkpt><trkpt lat="42.34894" lon="14.111215"><ele>43.0</ele><time>2026-05-02T06:52:07.285Z</time></trkpt><trkpt lat="42.3489317" lon="14.1111183"><ele>43.0</ele><time>2026-05-02T06:52:08.285Z</time></trkpt><trkpt lat="42.34892" lon="14.1110317"><ele>43.0</ele><time>2026-05-02T06:52:09.285Z</time></trkpt><trkpt lat="42.3489167" lon="14.110945"><ele>43.0</ele><time>2026-05-02T06:52:10.285Z</time></trkpt><trkpt lat="42.3489233" lon="14.1107633"><ele>43.333333333333336</ele><time>2026-05-02T06:52:12.285Z</time></trkpt><trkpt lat="42.3489317" lon="14.1106783"><ele>43.66666666666667</ele><time>2026-05-02T06:52:13.285Z</time></trkpt><trkpt lat="42.3489233" lon="14.1105283"><ele>44.0</ele><time>2026-05-02T06:52:15.285Z</time></trkpt><trkpt lat="42.348885" lon="14.1103667"><ele>44.333333333333336</ele><time>2026-05-02T06:52:17.285Z</time></trkpt><trkpt lat="42.3488683" lon="14.1102767"><ele>44.666666666666664</ele><time>2026-05-02T06:52:18.285Z</time></trkpt><trkpt lat="42.3488533" lon="14.110185"><ele>45.0</ele><time>2026-05-02T06:52:19.285Z</time></trkpt><trkpt lat="42.348815" lon="14.11005"><ele>45.333333333333336</ele><time>2026-05-02T06:52:21.285Z</time></trkpt><trkpt lat="42.3487417" lon="14.1099617"><ele>45.666666666666664</ele><time>2026-05-02T06:52:23.285Z</time></trkpt><trkpt lat="42.34865" lon="14.1098733"><ele>46.0</ele><time>2026-05-02T06:52:25.285Z</time></trkpt><trkpt lat="42.3485783" lon="14.1098367"><ele>46.33333333333333</ele><time>2026-05-02T06:52:27.285Z</time></trkpt><trkpt lat="42.348515" lon="14.10977"><ele>46.666666666666664</ele><time>2026-05-02T06:52:31.285Z</time></trkpt><trkpt lat="42.3484567" lon="14.1097217"><ele>47.0</ele><time>2026-05-02T06:52:33.285Z</time></trkpt><trkpt lat="42.3483883" lon="14.1096583"><ele>47.0</ele><time>2026-05-02T06:52:35.285Z</time></trkpt><trkpt lat="42.3483133" lon="14.1095817"><ele>47.0</ele><time>2026-05-02T06:52:37.285Z</time></trkpt><trkpt lat="42.348225" lon="14.1094483"><ele>47.0</ele><time>2026-05-02T06:52:39.286Z</time></trkpt><trkpt lat="42.3481833" lon="14.1093783"><ele>47.0</ele><time>2026-05-02T06:52:40.285Z</time></trkpt><trkpt lat="42.3481217" lon="14.1092567"><ele>47.0</ele><time>2026-05-02T06:52:42.285Z</time></trkpt><trkpt lat="42.3480567" lon="14.109165"><ele>46.400000000000006</ele><time>2026-05-02T06:52:44.285Z</time></trkpt><trkpt lat="42.347975" lon="14.1090467"><ele>45.800000000000004</ele><time>2026-05-02T06:52:46.285Z</time></trkpt><trkpt lat="42.3479083" lon="14.1089"><ele>45.2</ele><time>2026-05-02T06:52:48.285Z</time></trkpt><trkpt lat="42.3478783" lon="14.108815"><ele>44.6</ele><time>2026-05-02T06:52:49.285Z</time></trkpt><trkpt lat="42.3478483" lon="14.108715"><ele>44.0</ele><time>2026-05-02T06:52:50.285Z</time></trkpt><trkpt lat="42.3478117" lon="14.108615"><ele>44.0</ele><time>2026-05-02T06:52:51.286Z</time></trkpt><trkpt lat="42.347765" lon="14.108525"><ele>44.0</ele><time>2026-05-02T06:52:52.285Z</time></trkpt><trkpt lat="42.3477217" lon="14.10844"><ele>44.0</ele><time>2026-05-02T06:52:53.285Z</time></trkpt><trkpt lat="42.3476817" lon="14.108355"><ele>44.0</ele><time>2026-05-02T06:52:54.286Z</time></trkpt><trkpt lat="42.3476383" lon="14.108275"><ele>44.0</ele><time>2026-05-02T06:52:55.285Z</time></trkpt><trkpt lat="42.3475917" lon="14.108195"><ele>44.0</ele><time>2026-05-02T06:52:56.285Z</time></trkpt><trkpt lat="42.3475467" lon="14.1081133"><ele>44.33333333333333</ele><time>2026-05-02T06:52:57.285Z</time></trkpt><trkpt lat="42.3475067" lon="14.108025"><ele>44.666666666666664</ele><time>2026-05-02T06:52:58.286Z</time></trkpt><trkpt lat="42.3474733" lon="14.1079417"><ele>45.0</ele><time>2026-05-02T06:52:59.285Z</time></trkpt><trkpt lat="42.3474483" lon="14.1078533"><ele>45.333333333333336</ele><time>2026-05-02T06:53:00.285Z</time></trkpt><trkpt lat="42.3474283" lon="14.1077617"><ele>45.66666666666667</ele><time>2026-05-02T06:53:01.285Z</time></trkpt><trkpt lat="42.347405" lon="14.1076583"><ele>46.0</ele><time>2026-05-02T06:53:02.285Z</time></trkpt><trkpt lat="42.3473733" lon="14.10755"><ele>46.0</ele><time>2026-05-02T06:53:03.285Z</time></trkpt><trkpt lat="42.3473467" lon="14.1074567"><ele>46.0</ele><time>2026-05-02T06:53:04.285Z</time></trkpt><trkpt lat="42.3473183" lon="14.1073583"><ele>46.0</ele><time>2026-05-02T06:53:05.285Z</time></trkpt><trkpt lat="42.3472843" lon="14.1072633"><ele>46.0</ele><time>2026-05-02T06:53:06.285Z</time></trkpt><trkpt lat="42.3472547" lon="14.1071721"><ele>46.0</ele><time>2026-05-02T06:53:07.285Z</time></trkpt><trkpt lat="42.3472238" lon="14.107088"><ele>46.0</ele><time>2026-05-02T06:53:08.285Z</time></trkpt><trkpt lat="42.3471913" lon="14.1069333"><ele>46.0</ele><time>2026-05-02T06:53:10.285Z</time></trkpt><trkpt lat="42.3472107" lon="14.106787"><ele>46.0</ele><time>2026-05-02T06:53:12.285Z</time></trkpt><trkpt lat="42.3472423" lon="14.1066977"><ele>46.0</ele><time>2026-05-02T06:53:13.285Z</time></trkpt><trkpt lat="42.3472783" lon="14.1066041"><ele>46.0</ele><time>2026-05-02T06:53:14.285Z</time></trkpt><trkpt lat="42.3473109" lon="14.1065067"><ele>46.0</ele><time>2026-05-02T06:53:15.284Z</time></trkpt><trkpt lat="42.3473343" lon="14.1064109"><ele>46.0</ele><time>2026-05-02T06:53:16.285Z</time></trkpt><trkpt lat="42.3473635" lon="14.1063092"><ele>46.0</ele><time>2026-05-02T06:53:17.285Z</time></trkpt><trkpt lat="42.3473978" lon="14.1062079"><ele>46.0</ele><time>2026-05-02T06:53:18.285Z</time></trkpt><trkpt lat="42.3474294" lon="14.1061089"><ele>46.0</ele><time>2026-05-02T06:53:19.285Z</time></trkpt><trkpt lat="42.3474516" lon="14.1059972"><ele>46.0</ele><time>2026-05-02T06:53:20.285Z</time></trkpt><trkpt lat="42.3474734" lon="14.1058893"><ele>46.0</ele><time>2026-05-02T06:53:21.285Z</time></trkpt><trkpt lat="42.3475158" lon="14.1058035"><ele>46.0</ele><time>2026-05-02T06:53:22.285Z</time></trkpt><trkpt lat="42.3475781" lon="14.1057166"><ele>45.8</ele><time>2026-05-02T06:53:23.285Z</time></trkpt><trkpt lat="42.3476426" lon="14.1056135"><ele>45.599999999999994</ele><time>2026-05-02T06:53:24.285Z</time></trkpt><trkpt lat="42.3477056" lon="14.1054963"><ele>45.4</ele><time>2026-05-02T06:53:25.285Z</time></trkpt><trkpt lat="42.3477708" lon="14.1053794"><ele>45.2</ele><time>2026-05-02T06:53:26.285Z</time></trkpt><trkpt lat="42.3478303" lon="14.1052704"><ele>45.0</ele><time>2026-05-02T06:53:27.285Z</time></trkpt><trkpt lat="42.3478848" lon="14.1051753"><ele>45.0</ele><time>2026-05-02T06:53:28.286Z</time></trkpt><trkpt lat="42.3479401" lon="14.1050763"><ele>45.0</ele><time>2026-05-02T06:53:29.285Z</time></trkpt><trkpt lat="42.3479942" lon="14.1049809"><ele>45.0</ele><time>2026-05-02T06:53:30.285Z</time></trkpt><trkpt lat="42.3480469" lon="14.1048913"><ele>45.0</ele><time>2026-05-02T06:53:31.285Z</time></trkpt><trkpt lat="42.3481048" lon="14.1048084"><ele>45.0</ele><time>2026-05-02T06:53:32.285Z</time></trkpt><trkpt lat="42.3481642" lon="14.1047222"><ele>45.0</ele><time>2026-05-02T06:53:33.285Z</time></trkpt><trkpt lat="42.3482132" lon="14.1046407"><ele>45.333333333333336</ele><time>2026-05-02T06:53:34.285Z</time></trkpt><trkpt lat="42.3482512" lon="14.1045563"><ele>45.666666666666664</ele><time>2026-05-02T06:53:35.285Z</time></trkpt><trkpt lat="42.3482801" lon="14.1044724"><ele>46.0</ele><time>2026-05-02T06:53:36.285Z</time></trkpt><trkpt lat="42.3483057" lon="14.1043776"><ele>46.33333333333333</ele><time>2026-05-02T06:53:37.286Z</time></trkpt><trkpt lat="42.3483327" lon="14.1042663"><ele>46.666666666666664</ele><time>2026-05-02T06:53:38.285Z</time></trkpt><trkpt lat="42.3483667" lon="14.10414"><ele>47.0</ele><time>2026-05-02T06:53:39.285Z</time></trkpt><trkpt lat="42.348405" lon="14.1040183"><ele>47.0</ele><time>2026-05-02T06:53:40.285Z</time></trkpt><trkpt lat="42.3484367" lon="14.1039033"><ele>47.0</ele><time>2026-05-02T06:53:41.285Z</time></trkpt><trkpt lat="42.34846" lon="14.1037833"><ele>47.0</ele><time>2026-05-02T06:53:42.285Z</time></trkpt><trkpt lat="42.34848" lon="14.103655"><ele>47.0</ele><time>2026-05-02T06:53:43.286Z</time></trkpt><trkpt lat="42.34849" lon="14.1035217"><ele>47.0</ele><time>2026-05-02T06:53:44.285Z</time></trkpt><trkpt lat="42.3485017" lon="14.1033883"><ele>47.0</ele><time>2026-05-02T06:53:45.285Z</time></trkpt><trkpt lat="42.3485117" lon="14.1032667"><ele>47.0</ele><time>2026-05-02T06:53:46.285Z</time></trkpt><trkpt lat="42.3485167" lon="14.1031433"><ele>47.0</ele><time>2026-05-02T06:53:47.285Z</time></trkpt><trkpt lat="42.3485217" lon="14.1030233"><ele>47.0</ele><time>2026-05-02T06:53:48.285Z</time></trkpt><trkpt lat="42.3485267" lon="14.1029"><ele>47.0</ele><time>2026-05-02T06:53:49.285Z</time></trkpt><trkpt lat="42.3485383" lon="14.1027683"><ele>47.166666666666664</ele><time>2026-05-02T06:53:50.285Z</time></trkpt><trkpt lat="42.3485567" lon="14.10263"><ele>47.33333333333333</ele><time>2026-05-02T06:53:51.285Z</time></trkpt><trkpt lat="42.3485817" lon="14.1025083"><ele>47.5</ele><time>2026-05-02T06:53:52.285Z</time></trkpt><trkpt lat="42.3486067" lon="14.1023967"><ele>47.666666666666664</ele><time>2026-05-02T06:53:53.285Z</time></trkpt><trkpt lat="42.34863" lon="14.1022917"><ele>47.833333333333336</ele><time>2026-05-02T06:53:54.285Z</time></trkpt><trkpt lat="42.34865" lon="14.1021867"><ele>48.0</ele><time>2026-05-02T06:53:55.285Z</time></trkpt><trkpt lat="42.3486733" lon="14.102075"><ele>48.0</ele><time>2026-05-02T06:53:56.286Z</time></trkpt><trkpt lat="42.3487" lon="14.101955"><ele>48.0</ele><time>2026-05-02T06:53:57.285Z</time></trkpt><trkpt lat="42.34872" lon="14.1018267"><ele>48.0</ele><time>2026-05-02T06:53:58.286Z</time></trkpt><trkpt lat="42.3487467" lon="14.1017067"><ele>48.0</ele><time>2026-05-02T06:53:59.285Z</time></trkpt><trkpt lat="42.3487733" lon="14.1015933"><ele>48.0</ele><time>2026-05-02T06:54:00.285Z</time></trkpt><trkpt lat="42.3487983" lon="14.1014867"><ele>48.4</ele><time>2026-05-02T06:54:01.285Z</time></trkpt><trkpt lat="42.3488183" lon="14.1013933"><ele>48.8</ele><time>2026-05-02T06:54:02.286Z</time></trkpt><trkpt lat="42.3488433" lon="14.101305"><ele>49.2</ele><time>2026-05-02T06:54:03.286Z</time></trkpt><trkpt lat="42.3488833" lon="14.1011633"><ele>49.6</ele><time>2026-05-02T06:54:05.285Z</time></trkpt><trkpt lat="42.34895" lon="14.101065"><ele>50.0</ele><time>2026-05-02T06:54:07.285Z</time></trkpt><trkpt lat="42.3490517" lon="14.1009767"><ele>50.4</ele><time>2026-05-02T06:54:09.285Z</time></trkpt><trkpt lat="42.3491283" lon="14.1008617"><ele>50.8</ele><time>2026-05-02T06:54:11.285Z</time></trkpt><trkpt lat="42.3491633" lon="14.1007717"><ele>51.2</ele><time>2026-05-02T06:54:13.285Z</time></trkpt><trkpt lat="42.34921" lon="14.100695"><ele>51.6</ele><time>2026-05-02T06:54:15.285Z</time></trkpt><trkpt lat="42.349255" lon="14.1006167"><ele>52.0</ele><time>2026-05-02T06:54:17.285Z</time></trkpt><trkpt lat="42.349325" lon="14.10049"><ele>51.99999999999999</ele><time>2026-05-02T06:54:19.285Z</time></trkpt><trkpt lat="42.3493667" lon="14.100405"><ele>52.0</ele><time>2026-05-02T06:54:20.285Z</time></trkpt><trkpt lat="42.349405" lon="14.10031"><ele>52.0</ele><time>2026-05-02T06:54:21.285Z</time></trkpt><trkpt lat="42.3494333" lon="14.1002183"><ele>52.0</ele><time>2026-05-02T06:54:22.285Z</time></trkpt><trkpt lat="42.3494667" lon="14.1001217"><ele>51.99999999999999</ele><time>2026-05-02T06:54:23.285Z</time></trkpt><trkpt lat="42.3494917" lon="14.1000383"><ele>52.0</ele><time>2026-05-02T06:54:24.285Z</time></trkpt><trkpt lat="42.34953" lon="14.09992"><ele>51.33333333333333</ele><time>2026-05-02T06:54:26.285Z</time></trkpt><trkpt lat="42.3495467" lon="14.0998333"><ele>50.666666666666664</ele><time>2026-05-02T06:54:28.285Z</time></trkpt><trkpt lat="42.3495433" lon="14.0997233"><ele>50.0</ele><time>2026-05-02T06:54:32.285Z</time></trkpt><trkpt lat="42.3495283" lon="14.0996033"><ele>49.33333333333333</ele><time>2026-05-02T06:54:35.285Z</time></trkpt><trkpt lat="42.3495017" lon="14.0994767"><ele>48.666666666666664</ele><time>2026-05-02T06:54:42.285Z</time></trkpt><trkpt lat="42.3494633" lon="14.0993417"><ele>48.0</ele><time>2026-05-02T06:54:44.285Z</time></trkpt><trkpt lat="42.3494367" lon="14.0992"><ele>48.4</ele><time>2026-05-02T06:54:46.285Z</time></trkpt><trkpt lat="42.349435" lon="14.099075"><ele>48.8</ele><time>2026-05-02T06:54:48.285Z</time></trkpt><trkpt lat="42.349455" lon="14.0989467"><ele>49.2</ele><time>2026-05-02T06:54:50.285Z</time></trkpt><trkpt lat="42.3494933" lon="14.0987783"><ele>49.6</ele><time>2026-05-02T06:54:52.286Z</time></trkpt><trkpt lat="42.34952" lon="14.098675"><ele>50.0</ele><time>2026-05-02T06:54:53.285Z</time></trkpt><trkpt lat="42.3495517" lon="14.0985617"><ele>50.0</ele><time>2026-05-02T06:54:54.285Z</time></trkpt><trkpt lat="42.34958" lon="14.0984417"><ele>50.0</ele><time>2026-05-02T06:54:55.285Z</time></trkpt><trkpt lat="42.349605" lon="14.098325"><ele>50.0</ele><time>2026-05-02T06:54:56.285Z</time></trkpt><trkpt lat="42.3496267" lon="14.0982067"><ele>50.0</ele><time>2026-05-02T06:54:57.285Z</time></trkpt><trkpt lat="42.3496483" lon="14.098085"><ele>50.0</ele><time>2026-05-02T06:54:58.285Z</time></trkpt><trkpt lat="42.349675" lon="14.0979667"><ele>50.2</ele><time>2026-05-02T06:54:59.285Z</time></trkpt><trkpt lat="42.3497" lon="14.0978533"><ele>50.4</ele><time>2026-05-02T06:55:00.285Z</time></trkpt><trkpt lat="42.3497283" lon="14.0977233"><ele>50.599999999999994</ele><time>2026-05-02T06:55:01.285Z</time></trkpt><trkpt lat="42.349765" lon="14.09758"><ele>50.8</ele><time>2026-05-02T06:55:02.285Z</time></trkpt><trkpt lat="42.3498117" lon="14.0974167"><ele>51.0</ele><time>2026-05-02T06:55:03.286Z</time></trkpt><trkpt lat="42.349845" lon="14.0972333"><ele>51.0</ele><time>2026-05-02T06:55:04.286Z</time></trkpt><trkpt lat="42.3498783" lon="14.097055"><ele>51.0</ele><time>2026-05-02T06:55:05.285Z</time></trkpt><trkpt lat="42.3499033" lon="14.0968933"><ele>51.0</ele><time>2026-05-02T06:55:06.285Z</time></trkpt><trkpt lat="42.3499233" lon="14.0967283"><ele>51.0</ele><time>2026-05-02T06:55:07.285Z</time></trkpt><trkpt lat="42.34994" lon="14.0965767"><ele>51.25</ele><time>2026-05-02T06:55:08.285Z</time></trkpt><trkpt lat="42.34995" lon="14.0964017"><ele>51.5</ele><time>2026-05-02T06:55:09.285Z</time></trkpt><trkpt lat="42.34996" lon="14.09621"><ele>51.75</ele><time>2026-05-02T06:55:10.285Z</time></trkpt><trkpt lat="42.349975" lon="14.0960083"><ele>52.0</ele><time>2026-05-02T06:55:11.286Z</time></trkpt><trkpt lat="42.3499867" lon="14.0958167"><ele>52.0</ele><time>2026-05-02T06:55:12.285Z</time></trkpt><trkpt lat="42.35" lon="14.0956333"><ele>52.0</ele><time>2026-05-02T06:55:13.285Z</time></trkpt><trkpt lat="42.3500117" lon="14.0954717"><ele>52.0</ele><time>2026-05-02T06:55:14.285Z</time></trkpt><trkpt lat="42.3500183" lon="14.0953183"><ele>52.0</ele><time>2026-05-02T06:55:15.285Z</time></trkpt><trkpt lat="42.35002" lon="14.0951567"><ele>52.0</ele><time>2026-05-02T06:55:16.285Z</time></trkpt><trkpt lat="42.35001" lon="14.09498"><ele>52.0</ele><time>2026-05-02T06:55:17.285Z</time></trkpt><trkpt lat="42.3499967" lon="14.0947967"><ele>52.0</ele><time>2026-05-02T06:55:18.285Z</time></trkpt><trkpt lat="42.34997" lon="14.0946167"><ele>52.0</ele><time>2026-05-02T06:55:19.285Z</time></trkpt><trkpt lat="42.3499417" lon="14.0944383"><ele>52.0</ele><time>2026-05-02T06:55:20.285Z</time></trkpt><trkpt lat="42.3499" lon="14.094265"><ele>52.0</ele><time>2026-05-02T06:55:21.285Z</time></trkpt><trkpt lat="42.3498683" lon="14.0941083"><ele>52.0</ele><time>2026-05-02T06:55:22.285Z</time></trkpt><trkpt lat="42.3498317" lon="14.0939583"><ele>52.0</ele><time>2026-05-02T06:55:23.285Z</time></trkpt><trkpt lat="42.3498083" lon="14.093815"><ele>51.8</ele><time>2026-05-02T06:55:24.285Z</time></trkpt><trkpt lat="42.34978" lon="14.0936883"><ele>51.6</ele><time>2026-05-02T06:55:25.285Z</time></trkpt><trkpt lat="42.34974" lon="14.09358"><ele>51.4</ele><time>2026-05-02T06:55:26.285Z</time></trkpt><trkpt lat="42.3497017" lon="14.0934817"><ele>51.199999999999996</ele><time>2026-05-02T06:55:27.285Z</time></trkpt><trkpt lat="42.3496667" lon="14.0933967"><ele>51.0</ele><time>2026-05-02T06:55:28.286Z</time></trkpt><trkpt lat="42.349635" lon="14.0932333"><ele>52.0</ele><time>2026-05-02T06:55:30.285Z</time></trkpt><trkpt lat="42.34963" lon="14.0931217"><ele>53.0</ele><time>2026-05-02T06:55:31.285Z</time></trkpt><trkpt lat="42.3496133" lon="14.0929983"><ele>53.99999999999999</ele><time>2026-05-02T06:55:32.285Z</time></trkpt><trkpt lat="42.3495917" lon="14.092875"><ele>55.0</ele><time>2026-05-02T06:55:33.285Z</time></trkpt><trkpt lat="42.349555" lon="14.0927733"><ele>56.0</ele><time>2026-05-02T06:55:34.285Z</time></trkpt><trkpt lat="42.3495" lon="14.0926633"><ele>56.00000000000001</ele><time>2026-05-02T06:55:35.285Z</time></trkpt><trkpt lat="42.34944" lon="14.0925683"><ele>56.0</ele><time>2026-05-02T06:55:36.285Z</time></trkpt><trkpt lat="42.3493933" lon="14.0924917"><ele>56.0</ele><time>2026-05-02T06:55:37.285Z</time></trkpt><trkpt lat="42.34936" lon="14.0923967"><ele>56.0</ele><time>2026-05-02T06:55:38.285Z</time></trkpt><trkpt lat="42.349335" lon="14.0923033"><ele>56.00000000000001</ele><time>2026-05-02T06:55:39.285Z</time></trkpt><trkpt lat="42.3493167" lon="14.0921983"><ele>56.0</ele><time>2026-05-02T06:55:40.285Z</time></trkpt><trkpt lat="42.3492933" lon="14.0920717"><ele>56.25</ele><time>2026-05-02T06:55:41.285Z</time></trkpt><trkpt lat="42.3492583" lon="14.0919333"><ele>56.5</ele><time>2026-05-02T06:55:42.285Z</time></trkpt><trkpt lat="42.349225" lon="14.0917817"><ele>56.75</ele><time>2026-05-02T06:55:43.285Z</time></trkpt><trkpt lat="42.3491983" lon="14.091625"><ele>57.0</ele><time>2026-05-02T06:55:44.285Z</time></trkpt><trkpt lat="42.3491633" lon="14.0914683"><ele>57.0</ele><time>2026-05-02T06:55:45.285Z</time></trkpt><trkpt lat="42.3491483" lon="14.0913233"><ele>57.0</ele><time>2026-05-02T06:55:46.285Z</time></trkpt><trkpt lat="42.3491433" lon="14.0911767"><ele>57.0</ele><time>2026-05-02T06:55:47.285Z</time></trkpt><trkpt lat="42.3491367" lon="14.0910467"><ele>57.0</ele><time>2026-05-02T06:55:48.285Z</time></trkpt><trkpt lat="42.3491267" lon="14.090925"><ele>57.0</ele><time>2026-05-02T06:55:49.286Z</time></trkpt><trkpt lat="42.3491167" lon="14.0908033"><ele>56.75</ele><time>2026-05-02T06:55:50.285Z</time></trkpt><trkpt lat="42.3490917" lon="14.0906767"><ele>56.5</ele><time>2026-05-02T06:55:51.285Z</time></trkpt><trkpt lat="42.349055" lon="14.090525"><ele>56.25</ele><time>2026-05-02T06:55:52.285Z</time></trkpt><trkpt lat="42.3490167" lon="14.0903667"><ele>56.0</ele><time>2026-05-02T06:55:53.285Z</time></trkpt><trkpt lat="42.3489817" lon="14.0901933"><ele>56.0</ele><time>2026-05-02T06:55:54.285Z</time></trkpt><trkpt lat="42.3489533" lon="14.0900283"><ele>56.0</ele><time>2026-05-02T06:55:55.285Z</time></trkpt><trkpt lat="42.3489283" lon="14.0898567"><ele>56.0</ele><time>2026-05-02T06:55:56.286Z</time></trkpt><trkpt lat="42.3489067" lon="14.089685"><ele>56.0</ele><time>2026-05-02T06:55:57.285Z</time></trkpt><trkpt lat="42.3488867" lon="14.0895367"><ele>58.25</ele><time>2026-05-02T06:55:58.285Z</time></trkpt><trkpt lat="42.34887" lon="14.0893933"><ele>60.5</ele><time>2026-05-02T06:55:59.285Z</time></trkpt><trkpt lat="42.3488433" lon="14.0892533"><ele>62.75</ele><time>2026-05-02T06:56:00.285Z</time></trkpt><trkpt lat="42.3488217" lon="14.0891017"><ele>65.0</ele><time>2026-05-02T06:56:01.285Z</time></trkpt><trkpt lat="42.348805" lon="14.0889383"><ele>65.0</ele><time>2026-05-02T06:56:02.286Z</time></trkpt><trkpt lat="42.3488033" lon="14.0887683"><ele>65.0</ele><time>2026-05-02T06:56:03.285Z</time></trkpt><trkpt lat="42.3488033" lon="14.0885983"><ele>65.0</ele><time>2026-05-02T06:56:04.286Z</time></trkpt><trkpt lat="42.3487983" lon="14.0884417"><ele>65.0</ele><time>2026-05-02T06:56:05.285Z</time></trkpt><trkpt lat="42.3487867" lon="14.0883033"><ele>64.5</ele><time>2026-05-02T06:56:06.285Z</time></trkpt><trkpt lat="42.3487767" lon="14.0881767"><ele>64.0</ele><time>2026-05-02T06:56:07.285Z</time></trkpt><trkpt lat="42.3487583" lon="14.0880667"><ele>63.5</ele><time>2026-05-02T06:56:08.285Z</time></trkpt><trkpt lat="42.348735" lon="14.08796"><ele>63.0</ele><time>2026-05-02T06:56:09.285Z</time></trkpt><trkpt lat="42.3487083" lon="14.0878633"><ele>62.50000000000001</ele><time>2026-05-02T06:56:10.285Z</time></trkpt><trkpt lat="42.3486783" lon="14.0877667"><ele>62.0</ele><time>2026-05-02T06:56:11.285Z</time></trkpt><trkpt lat="42.3486667" lon="14.0876717"><ele>62.0</ele><time>2026-05-02T06:56:12.285Z</time></trkpt><trkpt lat="42.3486617" lon="14.0875767"><ele>62.00000000000001</ele><time>2026-05-02T06:56:13.285Z</time></trkpt><trkpt lat="42.3486567" lon="14.0874783"><ele>62.0</ele><time>2026-05-02T06:56:14.285Z</time></trkpt><trkpt lat="42.3486533" lon="14.0873867"><ele>62.0</ele><time>2026-05-02T06:56:15.285Z</time></trkpt><trkpt lat="42.3486367" lon="14.0872917"><ele>62.00000000000001</ele><time>2026-05-02T06:56:16.285Z</time></trkpt><trkpt lat="42.3486167" lon="14.0872033"><ele>62.0</ele><time>2026-05-02T06:56:17.285Z</time></trkpt><trkpt lat="42.3485817" lon="14.0871167"><ele>62.0</ele><time>2026-05-02T06:56:18.285Z</time></trkpt><trkpt lat="42.3485167" lon="14.0870317"><ele>62.16666666666667</ele><time>2026-05-02T06:56:19.285Z</time></trkpt><trkpt lat="42.34845" lon="14.0869567"><ele>62.333333333333336</ele><time>2026-05-02T06:56:20.285Z</time></trkpt><trkpt lat="42.348385" lon="14.0868917"><ele>62.5</ele><time>2026-05-02T06:56:21.285Z</time></trkpt><trkpt lat="42.3483267" lon="14.0868417"><ele>62.66666666666667</ele><time>2026-05-02T06:56:22.286Z</time></trkpt><trkpt lat="42.3482467" lon="14.0867733"><ele>62.833333333333336</ele><time>2026-05-02T06:56:24.285Z</time></trkpt><trkpt lat="42.3482083" lon="14.0867017"><ele>63.0</ele><time>2026-05-02T06:56:26.285Z</time></trkpt><trkpt lat="42.348175" lon="14.0865833"><ele>63.0</ele><time>2026-05-02T06:56:28.285Z</time></trkpt><trkpt lat="42.3481467" lon="14.0864417"><ele>63.0</ele><time>2026-05-02T06:56:30.285Z</time></trkpt><trkpt lat="42.3481383" lon="14.0863567"><ele>63.0</ele><time>2026-05-02T06:56:31.286Z</time></trkpt><trkpt lat="42.3481183" lon="14.0862"><ele>63.0</ele><time>2026-05-02T06:56:33.285Z</time></trkpt><trkpt lat="42.348105" lon="14.08605"><ele>63.0</ele><time>2026-05-02T06:56:35.285Z</time></trkpt><trkpt lat="42.3480883" lon="14.085945"><ele>63.0</ele><time>2026-05-02T06:56:37.285Z</time></trkpt><trkpt lat="42.3480617" lon="14.0858267"><ele>63.0</ele><time>2026-05-02T06:56:39.285Z</time></trkpt><trkpt lat="42.3480417" lon="14.0857167"><ele>63.0</ele><time>2026-05-02T06:56:41.285Z</time></trkpt><trkpt lat="42.34804" lon="14.08561"><ele>63.0</ele><time>2026-05-02T06:56:43.286Z</time></trkpt><trkpt lat="42.3480267" lon="14.08547"><ele>63.0</ele><time>2026-05-02T06:56:45.285Z</time></trkpt><trkpt lat="42.3479617" lon="14.0853167"><ele>63.833333333333336</ele><time>2026-05-02T06:56:47.285Z</time></trkpt><trkpt lat="42.3479217" lon="14.0852317"><ele>64.66666666666667</ele><time>2026-05-02T06:56:48.285Z</time></trkpt><trkpt lat="42.3478867" lon="14.0851367"><ele>65.5</ele><time>2026-05-02T06:56:49.285Z</time></trkpt><trkpt lat="42.3478633" lon="14.0850383"><ele>66.33333333333334</ele><time>2026-05-02T06:56:50.285Z</time></trkpt><trkpt lat="42.34785" lon="14.0849317"><ele>67.16666666666667</ele><time>2026-05-02T06:56:51.285Z</time></trkpt><trkpt lat="42.34784" lon="14.08481"><ele>68.0</ele><time>2026-05-02T06:56:52.285Z</time></trkpt><trkpt lat="42.3478233" lon="14.0846883"><ele>68.0</ele><time>2026-05-02T06:56:53.285Z</time></trkpt><trkpt lat="42.3477983" lon="14.0845567"><ele>68.0</ele><time>2026-05-02T06:56:54.285Z</time></trkpt><trkpt lat="42.3477717" lon="14.084425"><ele>68.0</ele><time>2026-05-02T06:56:55.285Z</time></trkpt><trkpt lat="42.3477467" lon="14.08431"><ele>68.0</ele><time>2026-05-02T06:56:56.285Z</time></trkpt><trkpt lat="42.3477183" lon="14.0841883"><ele>68.0</ele><time>2026-05-02T06:56:57.286Z</time></trkpt><trkpt lat="42.3476967" lon="14.0840567"><ele>67.8</ele><time>2026-05-02T06:56:58.285Z</time></trkpt><trkpt lat="42.3476783" lon="14.0839167"><ele>67.6</ele><time>2026-05-02T06:56:59.285Z</time></trkpt><trkpt lat="42.3476633" lon="14.0837833"><ele>67.4</ele><time>2026-05-02T06:57:00.285Z</time></trkpt><trkpt lat="42.3476517" lon="14.0836517"><ele>67.2</ele><time>2026-05-02T06:57:01.285Z</time></trkpt><trkpt lat="42.3476467" lon="14.08352"><ele>67.0</ele><time>2026-05-02T06:57:02.285Z</time></trkpt><trkpt lat="42.34765" lon="14.0833867"><ele>67.16666666666666</ele><time>2026-05-02T06:57:03.285Z</time></trkpt><trkpt lat="42.347665" lon="14.0832517"><ele>67.33333333333333</ele><time>2026-05-02T06:57:04.286Z</time></trkpt><trkpt lat="42.3476883" lon="14.0831333"><ele>67.5</ele><time>2026-05-02T06:57:05.285Z</time></trkpt><trkpt lat="42.3477117" lon="14.08304"><ele>67.66666666666667</ele><time>2026-05-02T06:57:06.285Z</time></trkpt><trkpt lat="42.3477433" lon="14.0829633"><ele>67.83333333333334</ele><time>2026-05-02T06:57:07.285Z</time></trkpt><trkpt lat="42.3477983" lon="14.0829067"><ele>68.0</ele><time>2026-05-02T06:57:08.285Z</time></trkpt><trkpt lat="42.347865" lon="14.0828167"><ele>68.0</ele><time>2026-05-02T06:57:09.285Z</time></trkpt><trkpt lat="42.3479417" lon="14.08271"><ele>68.0</ele><time>2026-05-02T06:57:10.285Z</time></trkpt><trkpt lat="42.34801" lon="14.0825717"><ele>68.0</ele><time>2026-05-02T06:57:11.285Z</time></trkpt><trkpt lat="42.3480867" lon="14.0824067"><ele>68.0</ele><time>2026-05-02T06:57:12.285Z</time></trkpt><trkpt lat="42.3481533" lon="14.0822567"><ele>67.5</ele><time>2026-05-02T06:57:13.285Z</time></trkpt><trkpt lat="42.3482117" lon="14.0821483"><ele>67.0</ele><time>2026-05-02T06:57:14.286Z</time></trkpt><trkpt lat="42.3482517" lon="14.0820617"><ele>66.5</ele><time>2026-05-02T06:57:15.285Z</time></trkpt><trkpt lat="42.34831" lon="14.0819533"><ele>66.0</ele><time>2026-05-02T06:57:17.285Z</time></trkpt><trkpt lat="42.3483717" lon="14.081935"><ele>65.5</ele><time>2026-05-02T06:57:19.285Z</time></trkpt><trkpt lat="42.3484333" lon="14.0819917"><ele>65.0</ele><time>2026-05-02T06:57:21.285Z</time></trkpt><trkpt lat="42.34852" lon="14.0819617"><ele>65.0</ele><time>2026-05-02T06:57:24.285Z</time></trkpt><trkpt lat="42.348575" lon="14.0818217"><ele>65.0</ele><time>2026-05-02T06:57:26.285Z</time></trkpt><trkpt lat="42.3486017" lon="14.08168"><ele>65.0</ele><time>2026-05-02T06:57:28.285Z</time></trkpt><trkpt lat="42.348645" lon="14.0815633"><ele>65.0</ele><time>2026-05-02T06:57:30.285Z</time></trkpt><trkpt lat="42.3487667" lon="14.0814567"><ele>65.33333333333334</ele><time>2026-05-02T06:57:32.286Z</time></trkpt><trkpt lat="42.3488367" lon="14.081405"><ele>65.66666666666667</ele><time>2026-05-02T06:57:33.285Z</time></trkpt><trkpt lat="42.3488967" lon="14.0813617"><ele>66.0</ele><time>2026-05-02T06:57:34.285Z</time></trkpt><trkpt lat="42.3489617" lon="14.0813167"><ele>66.33333333333333</ele><time>2026-05-02T06:57:35.285Z</time></trkpt><trkpt lat="42.3490267" lon="14.081275"><ele>66.66666666666666</ele><time>2026-05-02T06:57:36.285Z</time></trkpt><trkpt lat="42.3491367" lon="14.08123"><ele>67.0</ele><time>2026-05-02T06:57:38.285Z</time></trkpt><trkpt lat="42.3492017" lon="14.0812333"><ele>67.0</ele><time>2026-05-02T06:57:39.285Z</time></trkpt><trkpt lat="42.3492717" lon="14.081245"><ele>67.0</ele><time>2026-05-02T06:57:40.286Z</time></trkpt><trkpt lat="42.3493433" lon="14.081265"><ele>67.0</ele><time>2026-05-02T06:57:41.286Z</time></trkpt><trkpt lat="42.34941" lon="14.0812883"><ele>67.0</ele><time>2026-05-02T06:57:42.286Z</time></trkpt><trkpt lat="42.3495117" lon="14.0813017"><ele>67.0</ele><time>2026-05-02T06:57:44.285Z</time></trkpt><trkpt lat="42.3495867" lon="14.0812683"><ele>67.0</ele><time>2026-05-02T06:57:46.285Z</time></trkpt><trkpt lat="42.3496517" lon="14.0811933"><ele>67.0</ele><time>2026-05-02T06:57:48.285Z</time></trkpt><trkpt lat="42.3496867" lon="14.0811017"><ele>67.0</ele><time>2026-05-02T06:57:50.286Z</time></trkpt><trkpt lat="42.349685" lon="14.08098"><ele>67.0</ele><time>2026-05-02T06:57:52.285Z</time></trkpt><trkpt lat="42.349655" lon="14.0809017"><ele>67.0</ele><time>2026-05-02T06:57:53.285Z</time></trkpt><trkpt lat="42.349595" lon="14.0807767"><ele>67.0</ele><time>2026-05-02T06:57:55.285Z</time></trkpt><trkpt lat="42.3495667" lon="14.0806867"><ele>67.0</ele><time>2026-05-02T06:57:57.285Z</time></trkpt><trkpt lat="42.3496117" lon="14.08056"><ele>66.83333333333333</ele><time>2026-05-02T06:58:00.285Z</time></trkpt><trkpt lat="42.3496667" lon="14.0805033"><ele>66.66666666666666</ele><time>2026-05-02T06:58:01.285Z</time></trkpt><trkpt lat="42.349725" lon="14.0804467"><ele>66.5</ele><time>2026-05-02T06:58:02.285Z</time></trkpt><trkpt lat="42.3497867" lon="14.0803733"><ele>66.33333333333333</ele><time>2026-05-02T06:58:03.285Z</time></trkpt><trkpt lat="42.3498633" lon="14.0802867"><ele>66.16666666666667</ele><time>2026-05-02T06:58:04.286Z</time></trkpt><trkpt lat="42.3499483" lon="14.0802083"><ele>66.0</ele><time>2026-05-02T06:58:05.285Z</time></trkpt><trkpt lat="42.3500367" lon="14.080125"><ele>66.0</ele><time>2026-05-02T06:58:06.285Z</time></trkpt><trkpt lat="42.3501117" lon="14.0800483"><ele>66.0</ele><time>2026-05-02T06:58:07.286Z</time></trkpt><trkpt lat="42.350175" lon="14.0799767"><ele>66.0</ele><time>2026-05-02T06:58:08.285Z</time></trkpt><trkpt lat="42.3502383" lon="14.07988"><ele>66.0</ele><time>2026-05-02T06:58:09.285Z</time></trkpt><trkpt lat="42.3502933" lon="14.079755"><ele>66.0</ele><time>2026-05-02T06:58:10.285Z</time></trkpt><trkpt lat="42.3503417" lon="14.0796017"><ele>66.0</ele><time>2026-05-02T06:58:11.285Z</time></trkpt><trkpt lat="42.3503767" lon="14.07945"><ele>66.0</ele><time>2026-05-02T06:58:12.285Z</time></trkpt><trkpt lat="42.3504" lon="14.07932"><ele>66.0</ele><time>2026-05-02T06:58:13.285Z</time></trkpt><trkpt lat="42.3504217" lon="14.0792117"><ele>66.0</ele><time>2026-05-02T06:58:14.285Z</time></trkpt><trkpt lat="42.350445" lon="14.0790867"><ele>66.0</ele><time>2026-05-02T06:58:15.285Z</time></trkpt><trkpt lat="42.3504717" lon="14.078955"><ele>66.0</ele><time>2026-05-02T06:58:16.285Z</time></trkpt><trkpt lat="42.3505109" lon="14.0788208"><ele>66.0</ele><time>2026-05-02T06:58:17.285Z</time></trkpt><trkpt lat="42.3505502" lon="14.0787103"><ele>66.0</ele><time>2026-05-02T06:58:18.285Z</time></trkpt><trkpt lat="42.3505756" lon="14.0786117"><ele>66.0</ele><time>2026-05-02T06:58:19.285Z</time></trkpt><trkpt lat="42.3505894" lon="14.0785026"><ele>66.0</ele><time>2026-05-02T06:58:20.285Z</time></trkpt><trkpt lat="42.3505881" lon="14.0783854"><ele>66.0</ele><time>2026-05-02T06:58:21.285Z</time></trkpt><trkpt lat="42.3505723" lon="14.0782623"><ele>66.16666666666667</ele><time>2026-05-02T06:58:22.285Z</time></trkpt><trkpt lat="42.3505492" lon="14.0781433"><ele>66.33333333333333</ele><time>2026-05-02T06:58:23.285Z</time></trkpt><trkpt lat="42.3505254" lon="14.078031"><ele>66.5</ele><time>2026-05-02T06:58:24.285Z</time></trkpt><trkpt lat="42.3505076" lon="14.0779201"><ele>66.66666666666666</ele><time>2026-05-02T06:58:25.285Z</time></trkpt><trkpt lat="42.3504954" lon="14.0778207"><ele>66.83333333333333</ele><time>2026-05-02T06:58:26.285Z</time></trkpt><trkpt lat="42.3504856" lon="14.0777175"><ele>67.0</ele><time>2026-05-02T06:58:27.285Z</time></trkpt><trkpt lat="42.3504757" lon="14.0776099"><ele>67.0</ele><time>2026-05-02T06:58:28.286Z</time></trkpt><trkpt lat="42.3504687" lon="14.0774975"><ele>67.0</ele><time>2026-05-02T06:58:29.285Z</time></trkpt><trkpt lat="42.3504704" lon="14.0773831"><ele>67.0</ele><time>2026-05-02T06:58:30.285Z</time></trkpt><trkpt lat="42.3504743" lon="14.077261"><ele>67.0</ele><time>2026-05-02T06:58:31.285Z</time></trkpt><trkpt lat="42.3504798" lon="14.0771325"><ele>67.0</ele><time>2026-05-02T06:58:32.285Z</time></trkpt><trkpt lat="42.3504807" lon="14.0770029"><ele>67.0</ele><time>2026-05-02T06:58:33.285Z</time></trkpt><trkpt lat="42.350478" lon="14.0768925"><ele>67.16666666666666</ele><time>2026-05-02T06:58:34.285Z</time></trkpt><trkpt lat="42.3504763" lon="14.0767758"><ele>67.33333333333333</ele><time>2026-05-02T06:58:35.286Z</time></trkpt><trkpt lat="42.3504769" lon="14.0766625"><ele>67.5</ele><time>2026-05-02T06:58:36.286Z</time></trkpt><trkpt lat="42.350486" lon="14.0765466"><ele>67.66666666666667</ele><time>2026-05-02T06:58:37.285Z</time></trkpt><trkpt lat="42.3504967" lon="14.0764266"><ele>67.83333333333334</ele><time>2026-05-02T06:58:38.285Z</time></trkpt><trkpt lat="42.3505028" lon="14.0763123"><ele>68.0</ele><time>2026-05-02T06:58:39.285Z</time></trkpt><trkpt lat="42.3504989" lon="14.0761945"><ele>68.33333333333334</ele><time>2026-05-02T06:58:40.285Z</time></trkpt><trkpt lat="42.3504806" lon="14.0760746"><ele>68.66666666666667</ele><time>2026-05-02T06:58:41.285Z</time></trkpt><trkpt lat="42.3504582" lon="14.075952"><ele>69.0</ele><time>2026-05-02T06:58:42.285Z</time></trkpt><trkpt lat="42.3504405" lon="14.0758259"><ele>69.33333333333333</ele><time>2026-05-02T06:58:43.286Z</time></trkpt><trkpt lat="42.3504326" lon="14.075711"><ele>69.66666666666666</ele><time>2026-05-02T06:58:44.285Z</time></trkpt><trkpt lat="42.3504233" lon="14.0756121"><ele>70.0</ele><time>2026-05-02T06:58:45.285Z</time></trkpt><trkpt lat="42.3504176" lon="14.0754754"><ele>70.16666666666666</ele><time>2026-05-02T06:58:47.285Z</time></trkpt><trkpt lat="42.3504783" lon="14.075395"><ele>70.33333333333333</ele><time>2026-05-02T06:58:49.286Z</time></trkpt><trkpt lat="42.3505483" lon="14.07536"><ele>70.5</ele><time>2026-05-02T06:58:50.285Z</time></trkpt><trkpt lat="42.3506333" lon="14.0753283"><ele>70.66666666666667</ele><time>2026-05-02T06:58:51.285Z</time></trkpt><trkpt lat="42.3507267" lon="14.0753017"><ele>70.83333333333334</ele><time>2026-05-02T06:58:52.285Z</time></trkpt><trkpt lat="42.35083" lon="14.075275"><ele>71.0</ele><time>2026-05-02T06:58:53.285Z</time></trkpt><trkpt lat="42.3509367" lon="14.0752367"><ele>71.0</ele><time>2026-05-02T06:58:54.285Z</time></trkpt><trkpt lat="42.35105" lon="14.0751967"><ele>71.0</ele><time>2026-05-02T06:58:55.285Z</time></trkpt><trkpt lat="42.3511583" lon="14.0751633"><ele>71.0</ele><time>2026-05-02T06:58:56.285Z</time></trkpt><trkpt lat="42.3512583" lon="14.07513"><ele>71.0</ele><time>2026-05-02T06:58:57.285Z</time></trkpt><trkpt lat="42.3513583" lon="14.0750967"><ele>71.0</ele><time>2026-05-02T06:58:58.285Z</time></trkpt><trkpt lat="42.3514567" lon="14.0750683"><ele>71.5</ele><time>2026-05-02T06:58:59.285Z</time></trkpt><trkpt lat="42.351555" lon="14.0750633"><ele>72.0</ele><time>2026-05-02T06:59:00.285Z</time></trkpt><trkpt lat="42.3516683" lon="14.0750667"><ele>72.5</ele><time>2026-05-02T06:59:01.285Z</time></trkpt><trkpt lat="42.3517967" lon="14.0750833"><ele>73.0</ele><time>2026-05-02T06:59:02.286Z</time></trkpt><trkpt lat="42.35192" lon="14.0751"><ele>73.0</ele><time>2026-05-02T06:59:03.285Z</time></trkpt><trkpt lat="42.3520433" lon="14.0751183"><ele>73.0</ele><time>2026-05-02T06:59:04.285Z</time></trkpt><trkpt lat="42.3521717" lon="14.0751367"><ele>73.0</ele><time>2026-05-02T06:59:05.285Z</time></trkpt><trkpt lat="42.3523033" lon="14.075155"><ele>73.0</ele><time>2026-05-02T06:59:06.286Z</time></trkpt><trkpt lat="42.352435" lon="14.0751717"><ele>74.0</ele><time>2026-05-02T06:59:07.285Z</time></trkpt><trkpt lat="42.3525583" lon="14.0751867"><ele>75.0</ele><time>2026-05-02T06:59:08.285Z</time></trkpt><trkpt lat="42.3526733" lon="14.075205"><ele>76.0</ele><time>2026-05-02T06:59:09.285Z</time></trkpt><trkpt lat="42.352785" lon="14.0752283"><ele>77.0</ele><time>2026-05-02T06:59:10.285Z</time></trkpt><trkpt lat="42.3528867" lon="14.0752483"><ele>77.0</ele><time>2026-05-02T06:59:11.285Z</time></trkpt><trkpt lat="42.3529883" lon="14.07528"><ele>77.0</ele><time>2026-05-02T06:59:12.285Z</time></trkpt><trkpt lat="42.35309" lon="14.0753167"><ele>77.0</ele><time>2026-05-02T06:59:13.285Z</time></trkpt><trkpt lat="42.3531967" lon="14.07535"><ele>77.0</ele><time>2026-05-02T06:59:14.285Z</time></trkpt><trkpt lat="42.35331" lon="14.0753683"><ele>77.0</ele><time>2026-05-02T06:59:15.285Z</time></trkpt><trkpt lat="42.3534217" lon="14.0753667"><ele>80.5</ele><time>2026-05-02T06:59:16.285Z</time></trkpt><trkpt lat="42.3535317" lon="14.0753483"><ele>84.0</ele><time>2026-05-02T06:59:17.285Z</time></trkpt><trkpt lat="42.353645" lon="14.0753233"><ele>87.5</ele><time>2026-05-02T06:59:18.285Z</time></trkpt><trkpt lat="42.3537617" lon="14.0752967"><ele>91.0</ele><time>2026-05-02T06:59:19.285Z</time></trkpt><trkpt lat="42.3538783" lon="14.075265"><ele>92.5</ele><time>2026-05-02T06:59:20.285Z</time></trkpt><trkpt lat="42.353995" lon="14.07523"><ele>94.0</ele><time>2026-05-02T06:59:21.285Z</time></trkpt><trkpt lat="42.3541117" lon="14.075205"><ele>95.5</ele><time>2026-05-02T06:59:22.285Z</time></trkpt><trkpt lat="42.3542233" lon="14.075175"><ele>97.0</ele><time>2026-05-02T06:59:23.285Z</time></trkpt><trkpt lat="42.35434" lon="14.0751467"><ele>97.0</ele><time>2026-05-02T06:59:24.286Z</time></trkpt><trkpt lat="42.35445" lon="14.0751133"><ele>97.0</ele><time>2026-05-02T06:59:25.285Z</time></trkpt><trkpt lat="42.35456" lon="14.0750817"><ele>97.0</ele><time>2026-05-02T06:59:26.285Z</time></trkpt><trkpt lat="42.3546717" lon="14.0750467"><ele>97.0</ele><time>2026-05-02T06:59:27.286Z</time></trkpt><trkpt lat="42.35479" lon="14.0750183"><ele>99.6</ele><time>2026-05-02T06:59:28.285Z</time></trkpt><trkpt lat="42.3549033" lon="14.074995"><ele>102.19999999999999</ele><time>2026-05-02T06:59:29.285Z</time></trkpt><trkpt lat="42.3550183" lon="14.0749733"><ele>104.8</ele><time>2026-05-02T06:59:30.285Z</time></trkpt><trkpt lat="42.35512" lon="14.0749567"><ele>107.4</ele><time>2026-05-02T06:59:31.285Z</time></trkpt><trkpt lat="42.3552117" lon="14.07494"><ele>110.0</ele><time>2026-05-02T06:59:32.285Z</time></trkpt><trkpt lat="42.3552933" lon="14.074935"><ele>110.49999999999999</ele><time>2026-05-02T06:59:33.286Z</time></trkpt><trkpt lat="42.3553783" lon="14.074925"><ele>111.0</ele><time>2026-05-02T06:59:34.285Z</time></trkpt><trkpt lat="42.35545" lon="14.074905"><ele>111.5</ele><time>2026-05-02T06:59:35.285Z</time></trkpt><trkpt lat="42.355555" lon="14.0748783"><ele>112.0</ele><time>2026-05-02T06:59:37.285Z</time></trkpt><trkpt lat="42.3556417" lon="14.0748633"><ele>112.49999999999999</ele><time>2026-05-02T06:59:39.285Z</time></trkpt><trkpt lat="42.3557383" lon="14.07486"><ele>113.0</ele><time>2026-05-02T06:59:41.285Z</time></trkpt><trkpt lat="42.3558633" lon="14.0748633"><ele>114.4</ele><time>2026-05-02T06:59:43.285Z</time></trkpt><trkpt lat="42.3559383" lon="14.0748667"><ele>115.80000000000001</ele><time>2026-05-02T06:59:44.286Z</time></trkpt><trkpt lat="42.3560167" lon="14.0748667"><ele>117.2</ele><time>2026-05-02T06:59:45.285Z</time></trkpt><trkpt lat="42.3561067" lon="14.0748683"><ele>118.6</ele><time>2026-05-02T06:59:46.285Z</time></trkpt><trkpt lat="42.35621" lon="14.0748717"><ele>120.0</ele><time>2026-05-02T06:59:47.285Z</time></trkpt><trkpt lat="42.3563217" lon="14.0748883"><ele>120.75</ele><time>2026-05-02T06:59:48.285Z</time></trkpt><trkpt lat="42.35644" lon="14.07491"><ele>121.5</ele><time>2026-05-02T06:59:49.285Z</time></trkpt><trkpt lat="42.35656" lon="14.0749317"><ele>122.25</ele><time>2026-05-02T06:59:50.286Z</time></trkpt><trkpt lat="42.3566817" lon="14.0749517"><ele>123.0</ele><time>2026-05-02T06:59:51.285Z</time></trkpt><trkpt lat="42.3568133" lon="14.0749767"><ele>123.0</ele><time>2026-05-02T06:59:52.285Z</time></trkpt><trkpt lat="42.3569517" lon="14.075"><ele>123.0</ele><time>2026-05-02T06:59:53.285Z</time></trkpt><trkpt lat="42.3570883" lon="14.075025"><ele>123.0</ele><time>2026-05-02T06:59:54.285Z</time></trkpt><trkpt lat="42.357225" lon="14.075055"><ele>123.0</ele><time>2026-05-02T06:59:55.286Z</time></trkpt><trkpt lat="42.35736" lon="14.0750883"><ele>122.75</ele><time>2026-05-02T06:59:56.285Z</time></trkpt><trkpt lat="42.357505" lon="14.0751167"><ele>122.5</ele><time>2026-05-02T06:59:57.285Z</time></trkpt><trkpt lat="42.357635" lon="14.075145"><ele>122.25</ele><time>2026-05-02T06:59:58.285Z</time></trkpt><trkpt lat="42.3577533" lon="14.0751783"><ele>122.0</ele><time>2026-05-02T06:59:59.285Z</time></trkpt><trkpt lat="42.35788" lon="14.0752217"><ele>122.0</ele><time>2026-05-02T07:00:00.285Z</time></trkpt><trkpt lat="42.358015" lon="14.0752717"><ele>122.0</ele><time>2026-05-02T07:00:01.285Z</time></trkpt><trkpt lat="42.3581417" lon="14.075315"><ele>122.0</ele><time>2026-05-02T07:00:02.285Z</time></trkpt><trkpt lat="42.35826" lon="14.075355"><ele>122.0</ele><time>2026-05-02T07:00:03.285Z</time></trkpt><trkpt lat="42.3583617" lon="14.075395"><ele>121.8</ele><time>2026-05-02T07:00:04.285Z</time></trkpt><trkpt lat="42.3584633" lon="14.0754367"><ele>121.6</ele><time>2026-05-02T07:00:05.286Z</time></trkpt><trkpt lat="42.35855" lon="14.0754567"><ele>121.39999999999999</ele><time>2026-05-02T07:00:06.285Z</time></trkpt><trkpt lat="42.3586167" lon="14.07549"><ele>121.19999999999999</ele><time>2026-05-02T07:00:07.285Z</time></trkpt><trkpt lat="42.3587133" lon="14.0755333"><ele>121.0</ele><time>2026-05-02T07:00:09.285Z</time></trkpt><trkpt lat="42.358835" lon="14.0755067"><ele>121.8</ele><time>2026-05-02T07:00:11.285Z</time></trkpt><trkpt lat="42.358925" lon="14.0754567"><ele>122.6</ele><time>2026-05-02T07:00:12.285Z</time></trkpt><trkpt lat="42.3590267" lon="14.0753867"><ele>123.4</ele><time>2026-05-02T07:00:13.285Z</time></trkpt><trkpt lat="42.359125" lon="14.0753133"><ele>124.2</ele><time>2026-05-02T07:00:14.285Z</time></trkpt><trkpt lat="42.3592233" lon="14.0752483"><ele>125.0</ele><time>2026-05-02T07:00:15.285Z</time></trkpt><trkpt lat="42.3593267" lon="14.0751783"><ele>125.0</ele><time>2026-05-02T07:00:16.285Z</time></trkpt><trkpt lat="42.3594283" lon="14.075105"><ele>125.0</ele><time>2026-05-02T07:00:17.285Z</time></trkpt><trkpt lat="42.3595367" lon="14.0750383"><ele>125.0</ele><time>2026-05-02T07:00:18.285Z</time></trkpt><trkpt lat="42.3596467" lon="14.0749633"><ele>125.0</ele><time>2026-05-02T07:00:19.285Z</time></trkpt><trkpt lat="42.359755" lon="14.07488"><ele>125.75</ele><time>2026-05-02T07:00:20.286Z</time></trkpt><trkpt lat="42.359865" lon="14.074785"><ele>126.5</ele><time>2026-05-02T07:00:21.286Z</time></trkpt><trkpt lat="42.3599683" lon="14.0747017"><ele>127.25</ele><time>2026-05-02T07:00:22.286Z</time></trkpt><trkpt lat="42.3600683" lon="14.074635"><ele>128.0</ele><time>2026-05-02T07:00:23.285Z</time></trkpt><trkpt lat="42.360155" lon="14.0745817"><ele>128.0</ele><time>2026-05-02T07:00:24.285Z</time></trkpt><trkpt lat="42.3602467" lon="14.0745383"><ele>128.0</ele><time>2026-05-02T07:00:25.286Z</time></trkpt><trkpt lat="42.3603317" lon="14.0744817"><ele>128.0</ele><time>2026-05-02T07:00:26.285Z</time></trkpt><trkpt lat="42.360425" lon="14.074415"><ele>128.0</ele><time>2026-05-02T07:00:27.285Z</time></trkpt><trkpt lat="42.3605233" lon="14.0743433"><ele>128.0</ele><time>2026-05-02T07:00:28.285Z</time></trkpt><trkpt lat="42.3606317" lon="14.0742717"><ele>128.75</ele><time>2026-05-02T07:00:29.286Z</time></trkpt><trkpt lat="42.36075" lon="14.07419"><ele>129.5</ele><time>2026-05-02T07:00:30.286Z</time></trkpt><trkpt lat="42.3608633" lon="14.07411"><ele>130.25</ele><time>2026-05-02T07:00:31.285Z</time></trkpt><trkpt lat="42.3609683" lon="14.074035"><ele>131.0</ele><time>2026-05-02T07:00:32.285Z</time></trkpt><trkpt lat="42.361065" lon="14.0739717"><ele>131.6</ele><time>2026-05-02T07:00:33.285Z</time></trkpt><trkpt lat="42.3611517" lon="14.0739167"><ele>132.2</ele><time>2026-05-02T07:00:34.285Z</time></trkpt><trkpt lat="42.3612333" lon="14.0738567"><ele>132.8</ele><time>2026-05-02T07:00:35.285Z</time></trkpt><trkpt lat="42.3613167" lon="14.0737933"><ele>133.4</ele><time>2026-05-02T07:00:36.285Z</time></trkpt><trkpt lat="42.3614" lon="14.07374"><ele>134.0</ele><time>2026-05-02T07:00:37.285Z</time></trkpt><trkpt lat="42.3614817" lon="14.0736817"><ele>134.5</ele><time>2026-05-02T07:00:38.285Z</time></trkpt><trkpt lat="42.361555" lon="14.073625"><ele>135.0</ele><time>2026-05-02T07:00:39.285Z</time></trkpt><trkpt lat="42.3616217" lon="14.073575"><ele>135.5</ele><time>2026-05-02T07:00:40.285Z</time></trkpt><trkpt lat="42.361705" lon="14.0735133"><ele>136.0</ele><time>2026-05-02T07:00:42.285Z</time></trkpt><trkpt lat="42.3617533" lon="14.073455"><ele>136.5</ele><time>2026-05-02T07:00:45.285Z</time></trkpt><trkpt lat="42.3617183" lon="14.0733233"><ele>137.0</ele><time>2026-05-02T07:00:47.285Z</time></trkpt><trkpt lat="42.361675" lon="14.073245"><ele>137.0</ele><time>2026-05-02T07:00:48.285Z</time></trkpt><trkpt lat="42.36162" lon="14.0731583"><ele>137.0</ele><time>2026-05-02T07:00:49.285Z</time></trkpt><trkpt lat="42.3615583" lon="14.073065"><ele>137.0</ele><time>2026-05-02T07:00:50.285Z</time></trkpt><trkpt lat="42.3615017" lon="14.0729867"><ele>137.0</ele><time>2026-05-02T07:00:51.285Z</time></trkpt><trkpt lat="42.361455" lon="14.0729083"><ele>137.0</ele><time>2026-05-02T07:00:52.285Z</time></trkpt><trkpt lat="42.3614083" lon="14.07284"><ele>137.0</ele><time>2026-05-02T07:00:53.285Z</time></trkpt><trkpt lat="42.3613583" lon="14.0727767"><ele>136.33333333333331</ele><time>2026-05-02T07:00:54.285Z</time></trkpt><trkpt lat="42.3613117" lon="14.0727067"><ele>135.66666666666666</ele><time>2026-05-02T07:00:55.285Z</time></trkpt><trkpt lat="42.36127" lon="14.0726317"><ele>135.0</ele><time>2026-05-02T07:00:56.285Z</time></trkpt><trkpt lat="42.3612183" lon="14.072555"><ele>134.33333333333334</ele><time>2026-05-02T07:00:57.285Z</time></trkpt><trkpt lat="42.3611567" lon="14.0724667"><ele>133.66666666666669</ele><time>2026-05-02T07:00:58.285Z</time></trkpt><trkpt lat="42.361095" lon="14.0723733"><ele>133.0</ele><time>2026-05-02T07:00:59.285Z</time></trkpt><trkpt lat="42.3610283" lon="14.07228"><ele>133.0</ele><time>2026-05-02T07:01:00.285Z</time></trkpt><trkpt lat="42.3609667" lon="14.07218"><ele>133.0</ele><time>2026-05-02T07:01:01.285Z</time></trkpt><trkpt lat="42.3609017" lon="14.0720867"><ele>133.0</ele><time>2026-05-02T07:01:02.286Z</time></trkpt><trkpt lat="42.360845" lon="14.07199"><ele>133.0</ele><time>2026-05-02T07:01:03.285Z</time></trkpt><trkpt lat="42.3607867" lon="14.0718933"><ele>133.0</ele><time>2026-05-02T07:01:04.285Z</time></trkpt><trkpt lat="42.360735" lon="14.0717833"><ele>133.0</ele><time>2026-05-02T07:01:05.285Z</time></trkpt><trkpt lat="42.3606817" lon="14.07166"><ele>133.0</ele><time>2026-05-02T07:01:06.285Z</time></trkpt><trkpt lat="42.36064" lon="14.0715133"><ele>133.0</ele><time>2026-05-02T07:01:07.285Z</time></trkpt><trkpt lat="42.3605917" lon="14.07134"><ele>133.0</ele><time>2026-05-02T07:01:08.285Z</time></trkpt><trkpt lat="42.3605417" lon="14.07113"><ele>133.0</ele><time>2026-05-02T07:01:09.285Z</time></trkpt><trkpt lat="42.3604783" lon="14.0708933"><ele>133.0</ele><time>2026-05-02T07:01:10.285Z</time></trkpt><trkpt lat="42.36042" lon="14.0706533"><ele>133.0</ele><time>2026-05-02T07:01:11.285Z</time></trkpt><trkpt lat="42.360375" lon="14.0704267"><ele>133.66666666666669</ele><time>2026-05-02T07:01:12.285Z</time></trkpt><trkpt lat="42.3603317" lon="14.0702133"><ele>134.33333333333334</ele><time>2026-05-02T07:01:13.285Z</time></trkpt><trkpt lat="42.360295" lon="14.0700217"><ele>135.0</ele><time>2026-05-02T07:01:14.285Z</time></trkpt><trkpt lat="42.3602667" lon="14.0698283"><ele>135.75</ele><time>2026-05-02T07:01:15.285Z</time></trkpt><trkpt lat="42.3602367" lon="14.0696383"><ele>136.5</ele><time>2026-05-02T07:01:16.285Z</time></trkpt><trkpt lat="42.3602183" lon="14.0694433"><ele>137.25</ele><time>2026-05-02T07:01:17.285Z</time></trkpt><trkpt lat="42.3602167" lon="14.0692533"><ele>138.0</ele><time>2026-05-02T07:01:18.285Z</time></trkpt><trkpt lat="42.360235" lon="14.0690833"><ele>138.5</ele><time>2026-05-02T07:01:19.285Z</time></trkpt><trkpt lat="42.3602667" lon="14.0689183"><ele>139.0</ele><time>2026-05-02T07:01:20.285Z</time></trkpt><trkpt lat="42.36031" lon="14.0687683"><ele>139.5</ele><time>2026-05-02T07:01:21.285Z</time></trkpt><trkpt lat="42.360365" lon="14.0686267"><ele>140.0</ele><time>2026-05-02T07:01:22.285Z</time></trkpt><trkpt lat="42.3604317" lon="14.0684983"><ele>140.0</ele><time>2026-05-02T07:01:23.286Z</time></trkpt><trkpt lat="42.3604983" lon="14.0683833"><ele>140.0</ele><time>2026-05-02T07:01:24.285Z</time></trkpt><trkpt lat="42.3605583" lon="14.0682867"><ele>140.0</ele><time>2026-05-02T07:01:25.285Z</time></trkpt><trkpt lat="42.360615" lon="14.068195"><ele>140.0</ele><time>2026-05-02T07:01:26.285Z</time></trkpt><trkpt lat="42.36066" lon="14.06809"><ele>140.0</ele><time>2026-05-02T07:01:27.286Z</time></trkpt><trkpt lat="42.3606933" lon="14.06798"><ele>140.0</ele><time>2026-05-02T07:01:28.285Z</time></trkpt><trkpt lat="42.3607183" lon="14.067855"><ele>140.0</ele><time>2026-05-02T07:01:29.286Z</time></trkpt><trkpt lat="42.3607267" lon="14.067725"><ele>140.0</ele><time>2026-05-02T07:01:30.285Z</time></trkpt><trkpt lat="42.3607033" lon="14.0675867"><ele>140.0</ele><time>2026-05-02T07:01:31.285Z</time></trkpt><trkpt lat="42.3606583" lon="14.06746"><ele>140.0</ele><time>2026-05-02T07:01:32.285Z</time></trkpt><trkpt lat="42.3606083" lon="14.067345"><ele>139.33333333333331</ele><time>2026-05-02T07:01:33.285Z</time></trkpt><trkpt lat="42.3605533" lon="14.0672383"><ele>138.66666666666666</ele><time>2026-05-02T07:01:34.285Z</time></trkpt><trkpt lat="42.3604967" lon="14.067135"><ele>138.0</ele><time>2026-05-02T07:01:35.285Z</time></trkpt><trkpt lat="42.3604517" lon="14.0670317"><ele>137.33333333333334</ele><time>2026-05-02T07:01:36.285Z</time></trkpt><trkpt lat="42.3604183" lon="14.0669267"><ele>136.66666666666669</ele><time>2026-05-02T07:01:37.286Z</time></trkpt><trkpt lat="42.36039" lon="14.0668283"><ele>136.0</ele><time>2026-05-02T07:01:38.285Z</time></trkpt><trkpt lat="42.36037" lon="14.06674"><ele>134.75</ele><time>2026-05-02T07:01:39.285Z</time></trkpt><trkpt lat="42.360325" lon="14.0666033"><ele>133.5</ele><time>2026-05-02T07:01:41.285Z</time></trkpt><trkpt lat="42.3601933" lon="14.0665333"><ele>132.25</ele><time>2026-05-02T07:01:43.285Z</time></trkpt><trkpt lat="42.360095" lon="14.0665017"><ele>131.0</ele><time>2026-05-02T07:01:44.285Z</time></trkpt><trkpt lat="42.3600017" lon="14.0664283"><ele>131.0</ele><time>2026-05-02T07:01:45.285Z</time></trkpt><trkpt lat="42.3599183" lon="14.0663233"><ele>131.0</ele><time>2026-05-02T07:01:46.285Z</time></trkpt><trkpt lat="42.3598333" lon="14.0662"><ele>131.0</ele><time>2026-05-02T07:01:47.285Z</time></trkpt><trkpt lat="42.35976" lon="14.0660483"><ele>131.0</ele><time>2026-05-02T07:01:48.285Z</time></trkpt><trkpt lat="42.35968" lon="14.06589"><ele>129.25</ele><time>2026-05-02T07:01:49.285Z</time></trkpt><trkpt lat="42.3596017" lon="14.0657283"><ele>127.5</ele><time>2026-05-02T07:01:50.285Z</time></trkpt><trkpt lat="42.3595217" lon="14.0655717"><ele>125.75</ele><time>2026-05-02T07:01:51.285Z</time></trkpt><trkpt lat="42.3594483" lon="14.0654333"><ele>124.0</ele><time>2026-05-02T07:01:52.285Z</time></trkpt><trkpt lat="42.359365" lon="14.0653183"><ele>124.0</ele><time>2026-05-02T07:01:53.285Z</time></trkpt><trkpt lat="42.3592817" lon="14.065215"><ele>124.0</ele><time>2026-05-02T07:01:54.285Z</time></trkpt><trkpt lat="42.3591883" lon="14.065115"><ele>124.0</ele><time>2026-05-02T07:01:55.285Z</time></trkpt><trkpt lat="42.359095" lon="14.0649967"><ele>124.0</ele><time>2026-05-02T07:01:56.285Z</time></trkpt><trkpt lat="42.358995" lon="14.0648617"><ele>123.5</ele><time>2026-05-02T07:01:57.285Z</time></trkpt><trkpt lat="42.3589033" lon="14.0647117"><ele>123.0</ele><time>2026-05-02T07:01:58.285Z</time></trkpt><trkpt lat="42.3588133" lon="14.0645617"><ele>122.5</ele><time>2026-05-02T07:01:59.285Z</time></trkpt><trkpt lat="42.35873" lon="14.06441"><ele>122.0</ele><time>2026-05-02T07:02:00.285Z</time></trkpt><trkpt lat="42.3586483" lon="14.0642767"><ele>121.6</ele><time>2026-05-02T07:02:01.285Z</time></trkpt><trkpt lat="42.3585733" lon="14.06416"><ele>121.19999999999999</ele><time>2026-05-02T07:02:02.285Z</time></trkpt><trkpt lat="42.3584883" lon="14.0640633"><ele>120.8</ele><time>2026-05-02T07:02:03.285Z</time></trkpt><trkpt lat="42.358385" lon="14.0640067"><ele>120.4</ele><time>2026-05-02T07:02:04.285Z</time></trkpt><trkpt lat="42.3582767" lon="14.0639717"><ele>120.0</ele><time>2026-05-02T07:02:05.285Z</time></trkpt><trkpt lat="42.3581517" lon="14.0639617"><ele>116.25</ele><time>2026-05-02T07:02:06.285Z</time></trkpt><trkpt lat="42.3580267" lon="14.0639767"><ele>112.5</ele><time>2026-05-02T07:02:07.285Z</time></trkpt><trkpt lat="42.35791" lon="14.064"><ele>108.75</ele><time>2026-05-02T07:02:08.285Z</time></trkpt><trkpt lat="42.3577883" lon="14.0639867"><ele>105.0</ele><time>2026-05-02T07:02:09.285Z</time></trkpt><trkpt lat="42.3576733" lon="14.0639417"><ele>105.0</ele><time>2026-05-02T07:02:10.285Z</time></trkpt><trkpt lat="42.3575583" lon="14.063875"><ele>105.0</ele><time>2026-05-02T07:02:11.285Z</time></trkpt><trkpt lat="42.3574383" lon="14.0637867"><ele>105.0</ele><time>2026-05-02T07:02:12.285Z</time></trkpt><trkpt lat="42.357315" lon="14.063705"><ele>105.0</ele><time>2026-05-02T07:02:13.285Z</time></trkpt><trkpt lat="42.3571883" lon="14.06364"><ele>103.75</ele><time>2026-05-02T07:02:14.285Z</time></trkpt><trkpt lat="42.3570617" lon="14.06359"><ele>102.5</ele><time>2026-05-02T07:02:15.285Z</time></trkpt><trkpt lat="42.3569317" lon="14.063565"><ele>101.25</ele><time>2026-05-02T07:02:16.285Z</time></trkpt><trkpt lat="42.3567833" lon="14.0635583"><ele>100.0</ele><time>2026-05-02T07:02:17.285Z</time></trkpt><trkpt lat="42.3566417" lon="14.0635817"><ele>100.0</ele><time>2026-05-02T07:02:18.285Z</time></trkpt><trkpt lat="42.3565" lon="14.0636317"><ele>100.0</ele><time>2026-05-02T07:02:19.285Z</time></trkpt><trkpt lat="42.3563683" lon="14.063695"><ele>100.0</ele><time>2026-05-02T07:02:20.285Z</time></trkpt><trkpt lat="42.3562567" lon="14.06376"><ele>100.0</ele><time>2026-05-02T07:02:21.285Z</time></trkpt><trkpt lat="42.3561417" lon="14.0638233"><ele>98.4</ele><time>2026-05-02T07:02:22.285Z</time></trkpt><trkpt lat="42.3560333" lon="14.063865"><ele>96.8</ele><time>2026-05-02T07:02:23.285Z</time></trkpt><trkpt lat="42.355925" lon="14.0638767"><ele>95.19999999999999</ele><time>2026-05-02T07:02:24.285Z</time></trkpt><trkpt lat="42.35582" lon="14.06384"><ele>93.6</ele><time>2026-05-02T07:02:25.285Z</time></trkpt><trkpt lat="42.3557233" lon="14.0637467"><ele>92.0</ele><time>2026-05-02T07:02:26.286Z</time></trkpt><trkpt lat="42.355645" lon="14.06361"><ele>92.0</ele><time>2026-05-02T07:02:27.285Z</time></trkpt><trkpt lat="42.3555833" lon="14.0634517"><ele>92.0</ele><time>2026-05-02T07:02:28.285Z</time></trkpt><trkpt lat="42.35554" lon="14.06327"><ele>92.0</ele><time>2026-05-02T07:02:29.285Z</time></trkpt><trkpt lat="42.3554933" lon="14.0630767"><ele>92.0</ele><time>2026-05-02T07:02:30.285Z</time></trkpt><trkpt lat="42.3554267" lon="14.0628617"><ele>91.33333333333334</ele><time>2026-05-02T07:02:31.285Z</time></trkpt><trkpt lat="42.3553367" lon="14.062655"><ele>90.66666666666667</ele><time>2026-05-02T07:02:32.285Z</time></trkpt><trkpt lat="42.3552317" lon="14.0624817"><ele>90.0</ele><time>2026-05-02T07:02:33.285Z</time></trkpt><trkpt lat="42.3551283" lon="14.0623267"><ele>90.0</ele><time>2026-05-02T07:02:34.285Z</time></trkpt><trkpt lat="42.3550333" lon="14.06217"><ele>90.0</ele><time>2026-05-02T07:02:35.285Z</time></trkpt><trkpt lat="42.3549383" lon="14.06202"><ele>90.0</ele><time>2026-05-02T07:02:36.285Z</time></trkpt><trkpt lat="42.3548317" lon="14.0618633"><ele>90.0</ele><time>2026-05-02T07:02:37.285Z</time></trkpt><trkpt lat="42.3547283" lon="14.06172"><ele>90.0</ele><time>2026-05-02T07:02:38.285Z</time></trkpt><trkpt lat="42.3546317" lon="14.0615733"><ele>90.0</ele><time>2026-05-02T07:02:39.285Z</time></trkpt><trkpt lat="42.354545" lon="14.061405"><ele>90.0</ele><time>2026-05-02T07:02:40.285Z</time></trkpt><trkpt lat="42.3544533" lon="14.06124"><ele>91.33333333333333</ele><time>2026-05-02T07:02:41.285Z</time></trkpt><trkpt lat="42.3543517" lon="14.061055"><ele>92.66666666666666</ele><time>2026-05-02T07:02:42.285Z</time></trkpt><trkpt lat="42.354245" lon="14.060865"><ele>94.0</ele><time>2026-05-02T07:02:43.285Z</time></trkpt><trkpt lat="42.3541383" lon="14.0606683"><ele>93.33333333333333</ele><time>2026-05-02T07:02:44.285Z</time></trkpt><trkpt lat="42.3540233" lon="14.06048"><ele>92.66666666666667</ele><time>2026-05-02T07:02:45.285Z</time></trkpt><trkpt lat="42.353905" lon="14.060285"><ele>92.0</ele><time>2026-05-02T07:02:46.285Z</time></trkpt><trkpt lat="42.3537933" lon="14.060105"><ele>92.66666666666667</ele><time>2026-05-02T07:02:47.285Z</time></trkpt><trkpt lat="42.35369" lon="14.0599267"><ele>93.33333333333333</ele><time>2026-05-02T07:02:48.285Z</time></trkpt><trkpt lat="42.353595" lon="14.0597517"><ele>94.0</ele><time>2026-05-02T07:02:49.285Z</time></trkpt><trkpt lat="42.353525" lon="14.0595683"><ele>94.0</ele><time>2026-05-02T07:02:50.285Z</time></trkpt><trkpt lat="42.3534717" lon="14.0593783"><ele>94.0</ele><time>2026-05-02T07:02:51.286Z</time></trkpt><trkpt lat="42.3534383" lon="14.0591733"><ele>94.0</ele><time>2026-05-02T07:02:52.285Z</time></trkpt><trkpt lat="42.3534217" lon="14.05895"><ele>93.66666666666666</ele><time>2026-05-02T07:02:53.285Z</time></trkpt><trkpt lat="42.3534033" lon="14.0587083"><ele>93.33333333333333</ele><time>2026-05-02T07:02:54.285Z</time></trkpt><trkpt lat="42.35338" lon="14.05846"><ele>93.0</ele><time>2026-05-02T07:02:55.285Z</time></trkpt><trkpt lat="42.3533533" lon="14.0582167"><ele>92.66666666666667</ele><time>2026-05-02T07:02:56.285Z</time></trkpt><trkpt lat="42.35333" lon="14.0579767"><ele>92.33333333333334</ele><time>2026-05-02T07:02:57.285Z</time></trkpt><trkpt lat="42.3533033" lon="14.0577367"><ele>92.0</ele><time>2026-05-02T07:02:58.285Z</time></trkpt><trkpt lat="42.3532767" lon="14.0574933"><ele>91.33333333333334</ele><time>2026-05-02T07:02:59.285Z</time></trkpt><trkpt lat="42.3532383" lon="14.0572467"><ele>90.66666666666667</ele><time>2026-05-02T07:03:00.285Z</time></trkpt><trkpt lat="42.35321" lon="14.057"><ele>90.0</ele><time>2026-05-02T07:03:01.285Z</time></trkpt><trkpt lat="42.3531867" lon="14.05676"><ele>89.66666666666667</ele><time>2026-05-02T07:03:02.285Z</time></trkpt><trkpt lat="42.3531617" lon="14.0565167"><ele>89.33333333333334</ele><time>2026-05-02T07:03:03.285Z</time></trkpt><trkpt lat="42.3531333" lon="14.056295"><ele>89.0</ele><time>2026-05-02T07:03:04.285Z</time></trkpt><trkpt lat="42.3531083" lon="14.05607"><ele>89.0</ele><time>2026-05-02T07:03:05.285Z</time></trkpt><trkpt lat="42.3530933" lon="14.0558533"><ele>89.0</ele><time>2026-05-02T07:03:06.285Z</time></trkpt><trkpt lat="42.3530733" lon="14.055625"><ele>89.0</ele><time>2026-05-02T07:03:07.285Z</time></trkpt><trkpt lat="42.3530533" lon="14.055395"><ele>89.66666666666667</ele><time>2026-05-02T07:03:08.285Z</time></trkpt><trkpt lat="42.3530283" lon="14.0551817"><ele>90.33333333333333</ele><time>2026-05-02T07:03:09.285Z</time></trkpt><trkpt lat="42.353015" lon="14.054955"><ele>91.0</ele><time>2026-05-02T07:03:10.285Z</time></trkpt><trkpt lat="42.35302" lon="14.0547283"><ele>92.0</ele><time>2026-05-02T07:03:11.285Z</time></trkpt><trkpt lat="42.3530433" lon="14.0545083"><ele>93.0</ele><time>2026-05-02T07:03:12.285Z</time></trkpt><trkpt lat="42.3530783" lon="14.054275"><ele>94.0</ele><time>2026-05-02T07:03:13.285Z</time></trkpt><trkpt lat="42.3531133" lon="14.0540567"><ele>96.0</ele><time>2026-05-02T07:03:14.285Z</time></trkpt><trkpt lat="42.3531467" lon="14.0538483"><ele>98.0</ele><time>2026-05-02T07:03:15.285Z</time></trkpt><trkpt lat="42.35317" lon="14.053665"><ele>100.0</ele><time>2026-05-02T07:03:16.285Z</time></trkpt><trkpt lat="42.3531683" lon="14.053485"><ele>102.0</ele><time>2026-05-02T07:03:17.285Z</time></trkpt><trkpt lat="42.3531317" lon="14.053305"><ele>102.0</ele><time>2026-05-02T07:03:18.285Z</time></trkpt><trkpt lat="42.3530583" lon="14.0531267"><ele>102.0</ele><time>2026-05-02T07:03:19.285Z</time></trkpt><trkpt lat="42.3529733" lon="14.0529733"><ele>102.0</ele><time>2026-05-02T07:03:20.285Z</time></trkpt><trkpt lat="42.3529117" lon="14.0528067"><ele>102.0</ele><time>2026-05-02T07:03:21.286Z</time></trkpt><trkpt lat="42.3528767" lon="14.0526217"><ele>103.25</ele><time>2026-05-02T07:03:22.285Z</time></trkpt><trkpt lat="42.3528783" lon="14.0524333"><ele>104.5</ele><time>2026-05-02T07:03:23.285Z</time></trkpt><trkpt lat="42.3529083" lon="14.0522533"><ele>105.75</ele><time>2026-05-02T07:03:24.285Z</time></trkpt><trkpt lat="42.3529483" lon="14.0520567"><ele>107.0</ele><time>2026-05-02T07:03:25.285Z</time></trkpt><trkpt lat="42.3530033" lon="14.0518567"><ele>108.33333333333333</ele><time>2026-05-02T07:03:26.286Z</time></trkpt><trkpt lat="42.353045" lon="14.05163"><ele>109.66666666666666</ele><time>2026-05-02T07:03:27.285Z</time></trkpt><trkpt lat="42.35308" lon="14.0513917"><ele>111.0</ele><time>2026-05-02T07:03:28.285Z</time></trkpt><trkpt lat="42.3531033" lon="14.0511483"><ele>111.0</ele><time>2026-05-02T07:03:29.285Z</time></trkpt><trkpt lat="42.3531267" lon="14.05091"><ele>111.0</ele><time>2026-05-02T07:03:30.285Z</time></trkpt><trkpt lat="42.3531667" lon="14.0506667"><ele>111.0</ele><time>2026-05-02T07:03:31.285Z</time></trkpt><trkpt lat="42.3532083" lon="14.0504483"><ele>111.5</ele><time>2026-05-02T07:03:32.285Z</time></trkpt><trkpt lat="42.353235" lon="14.0502433"><ele>112.0</ele><time>2026-05-02T07:03:33.285Z</time></trkpt><trkpt lat="42.353235" lon="14.05006"><ele>112.5</ele><time>2026-05-02T07:03:34.286Z</time></trkpt><trkpt lat="42.3532217" lon="14.0498783"><ele>113.0</ele><time>2026-05-02T07:03:35.285Z</time></trkpt><trkpt lat="42.3531883" lon="14.0497033"><ele>114.25</ele><time>2026-05-02T07:03:36.285Z</time></trkpt><trkpt lat="42.3531517" lon="14.0495333"><ele>115.5</ele><time>2026-05-02T07:03:37.285Z</time></trkpt><trkpt lat="42.3531233" lon="14.04935"><ele>116.75</ele><time>2026-05-02T07:03:38.285Z</time></trkpt><trkpt lat="42.3531133" lon="14.0491783"><ele>118.0</ele><time>2026-05-02T07:03:39.286Z</time></trkpt><trkpt lat="42.35311" lon="14.049005"><ele>118.25</ele><time>2026-05-02T07:03:40.285Z</time></trkpt><trkpt lat="42.353115" lon="14.0488317"><ele>118.5</ele><time>2026-05-02T07:03:41.286Z</time></trkpt><trkpt lat="42.353105" lon="14.0486633"><ele>118.75</ele><time>2026-05-02T07:03:42.285Z</time></trkpt><trkpt lat="42.35308" lon="14.048485"><ele>119.0</ele><time>2026-05-02T07:03:43.285Z</time></trkpt><trkpt lat="42.35305" lon="14.0483183"><ele>119.0</ele><time>2026-05-02T07:03:44.285Z</time></trkpt><trkpt lat="42.3530117" lon="14.0481533"><ele>119.0</ele><time>2026-05-02T07:03:45.285Z</time></trkpt><trkpt lat="42.3529833" lon="14.04799"><ele>119.0</ele><time>2026-05-02T07:03:46.285Z</time></trkpt><trkpt lat="42.3530033" lon="14.0478283"><ele>119.0</ele><time>2026-05-02T07:03:47.285Z</time></trkpt><trkpt lat="42.3530517" lon="14.0476933"><ele>119.0</ele><time>2026-05-02T07:03:48.285Z</time></trkpt><trkpt lat="42.35312" lon="14.047555"><ele>119.0</ele><time>2026-05-02T07:03:49.285Z</time></trkpt><trkpt lat="42.3531967" lon="14.0474117"><ele>119.0</ele><time>2026-05-02T07:03:50.285Z</time></trkpt><trkpt lat="42.3532817" lon="14.0472667"><ele>119.0</ele><time>2026-05-02T07:03:51.285Z</time></trkpt><trkpt lat="42.3533483" lon="14.0471"><ele>119.0</ele><time>2026-05-02T07:03:52.285Z</time></trkpt><trkpt lat="42.3534083" lon="14.0469233"><ele>119.0</ele><time>2026-05-02T07:03:53.285Z</time></trkpt><trkpt lat="42.3534633" lon="14.0467433"><ele>119.0</ele><time>2026-05-02T07:03:54.285Z</time></trkpt><trkpt lat="42.35351" lon="14.046565"><ele>119.0</ele><time>2026-05-02T07:03:55.286Z</time></trkpt><trkpt lat="42.35354" lon="14.0464017"><ele>119.25</ele><time>2026-05-02T07:03:56.285Z</time></trkpt><trkpt lat="42.3535717" lon="14.0462283"><ele>119.5</ele><time>2026-05-02T07:03:57.285Z</time></trkpt><trkpt lat="42.3535917" lon="14.0460517"><ele>119.75</ele><time>2026-05-02T07:03:58.286Z</time></trkpt><trkpt lat="42.35362" lon="14.045875"><ele>120.0</ele><time>2026-05-02T07:03:59.286Z</time></trkpt><trkpt lat="42.3536367" lon="14.0457067"><ele>120.0</ele><time>2026-05-02T07:04:00.285Z</time></trkpt><trkpt lat="42.3536433" lon="14.0455283"><ele>120.0</ele><time>2026-05-02T07:04:01.285Z</time></trkpt><trkpt lat="42.3536467" lon="14.0453483"><ele>120.0</ele><time>2026-05-02T07:04:02.285Z</time></trkpt><trkpt lat="42.3536467" lon="14.0451633"><ele>120.0</ele><time>2026-05-02T07:04:03.286Z</time></trkpt><trkpt lat="42.3536333" lon="14.0449883"><ele>121.25</ele><time>2026-05-02T07:04:04.285Z</time></trkpt><trkpt lat="42.353625" lon="14.0448117"><ele>122.5</ele><time>2026-05-02T07:04:05.285Z</time></trkpt><trkpt lat="42.35362" lon="14.04463"><ele>123.75</ele><time>2026-05-02T07:04:06.285Z</time></trkpt><trkpt lat="42.3536117" lon="14.044455"><ele>125.0</ele><time>2026-05-02T07:04:07.285Z</time></trkpt><trkpt lat="42.3536167" lon="14.0442867"><ele>126.0</ele><time>2026-05-02T07:04:08.285Z</time></trkpt><trkpt lat="42.3536417" lon="14.044125"><ele>127.0</ele><time>2026-05-02T07:04:09.285Z</time></trkpt><trkpt lat="42.3536817" lon="14.04397"><ele>128.0</ele><time>2026-05-02T07:04:10.285Z</time></trkpt><trkpt lat="42.3537267" lon="14.0438283"><ele>129.0</ele><time>2026-05-02T07:04:11.285Z</time></trkpt><trkpt lat="42.35376" lon="14.0436817"><ele>129.0</ele><time>2026-05-02T07:04:12.285Z</time></trkpt><trkpt lat="42.3537933" lon="14.0435367"><ele>129.0</ele><time>2026-05-02T07:04:13.285Z</time></trkpt><trkpt lat="42.3538317" lon="14.0433833"><ele>129.0</ele><time>2026-05-02T07:04:14.285Z</time></trkpt><trkpt lat="42.3538667" lon="14.0432283"><ele>129.0</ele><time>2026-05-02T07:04:15.285Z</time></trkpt><trkpt lat="42.3539033" lon="14.0430767"><ele>129.75</ele><time>2026-05-02T07:04:16.285Z</time></trkpt><trkpt lat="42.35394" lon="14.0429217"><ele>130.5</ele><time>2026-05-02T07:04:17.285Z</time></trkpt><trkpt lat="42.35397" lon="14.04277"><ele>131.25</ele><time>2026-05-02T07:04:18.285Z</time></trkpt><trkpt lat="42.3539967" lon="14.0426183"><ele>132.0</ele><time>2026-05-02T07:04:19.285Z</time></trkpt><trkpt lat="42.3540267" lon="14.0424633"><ele>132.0</ele><time>2026-05-02T07:04:20.285Z</time></trkpt><trkpt lat="42.354045" lon="14.0423083"><ele>132.0</ele><time>2026-05-02T07:04:21.285Z</time></trkpt><trkpt lat="42.3540683" lon="14.0421483"><ele>132.0</ele><time>2026-05-02T07:04:22.285Z</time></trkpt><trkpt lat="42.3540917" lon="14.0419917"><ele>132.0</ele><time>2026-05-02T07:04:23.285Z</time></trkpt><trkpt lat="42.3541117" lon="14.0418333"><ele>132.0</ele><time>2026-05-02T07:04:24.285Z</time></trkpt><trkpt lat="42.3541333" lon="14.0416767"><ele>132.0</ele><time>2026-05-02T07:04:25.285Z</time></trkpt><trkpt lat="42.3541617" lon="14.04152"><ele>132.0</ele><time>2026-05-02T07:04:26.285Z</time></trkpt><trkpt lat="42.3541983" lon="14.0413433"><ele>132.0</ele><time>2026-05-02T07:04:27.285Z</time></trkpt><trkpt lat="42.354225" lon="14.0411433"><ele>133.0</ele><time>2026-05-02T07:04:28.285Z</time></trkpt><trkpt lat="42.3542517" lon="14.0409283"><ele>134.0</ele><time>2026-05-02T07:04:29.285Z</time></trkpt><trkpt lat="42.3542883" lon="14.0407083"><ele>135.0</ele><time>2026-05-02T07:04:30.285Z</time></trkpt><trkpt lat="42.354335" lon="14.040495"><ele>136.25</ele><time>2026-05-02T07:04:31.285Z</time></trkpt><trkpt lat="42.35437" lon="14.0402867"><ele>137.5</ele><time>2026-05-02T07:04:32.285Z</time></trkpt><trkpt lat="42.3544017" lon="14.0400917"><ele>138.75</ele><time>2026-05-02T07:04:33.285Z</time></trkpt><trkpt lat="42.3544317" lon="14.0399067"><ele>140.0</ele><time>2026-05-02T07:04:34.285Z</time></trkpt><trkpt lat="42.35446" lon="14.0397383"><ele>140.25</ele><time>2026-05-02T07:04:35.285Z</time></trkpt><trkpt lat="42.3544883" lon="14.0395617"><ele>140.5</ele><time>2026-05-02T07:04:36.285Z</time></trkpt><trkpt lat="42.3545133" lon="14.03938"><ele>140.75</ele><time>2026-05-02T07:04:37.285Z</time></trkpt><trkpt lat="42.354545" lon="14.0391917"><ele>141.0</ele><time>2026-05-02T07:04:38.286Z</time></trkpt><trkpt lat="42.354575" lon="14.03901"><ele>140.25</ele><time>2026-05-02T07:04:39.285Z</time></trkpt><trkpt lat="42.3546" lon="14.0388333"><ele>139.5</ele><time>2026-05-02T07:04:40.285Z</time></trkpt><trkpt lat="42.3546267" lon="14.0386733"><ele>138.75</ele><time>2026-05-02T07:04:41.285Z</time></trkpt><trkpt lat="42.354655" lon="14.0385"><ele>138.0</ele><time>2026-05-02T07:04:42.285Z</time></trkpt><trkpt lat="42.354685" lon="14.03833"><ele>136.5</ele><time>2026-05-02T07:04:43.286Z</time></trkpt><trkpt lat="42.3547183" lon="14.0381567"><ele>135.0</ele><time>2026-05-02T07:04:44.285Z</time></trkpt><trkpt lat="42.354745" lon="14.03798"><ele>133.5</ele><time>2026-05-02T07:04:45.285Z</time></trkpt><trkpt lat="42.3547733" lon="14.037805"><ele>132.0</ele><time>2026-05-02T07:04:46.285Z</time></trkpt><trkpt lat="42.3548033" lon="14.0376367"><ele>132.0</ele><time>2026-05-02T07:04:47.285Z</time></trkpt><trkpt lat="42.3548267" lon="14.0374833"><ele>132.0</ele><time>2026-05-02T07:04:48.285Z</time></trkpt><trkpt lat="42.3548483" lon="14.037335"><ele>132.0</ele><time>2026-05-02T07:04:49.285Z</time></trkpt><trkpt lat="42.3548667" lon="14.0371833"><ele>132.0</ele><time>2026-05-02T07:04:50.285Z</time></trkpt><trkpt lat="42.3548767" lon="14.037035"><ele>132.25</ele><time>2026-05-02T07:04:51.285Z</time></trkpt><trkpt lat="42.3548867" lon="14.0368817"><ele>132.5</ele><time>2026-05-02T07:04:52.285Z</time></trkpt><trkpt lat="42.3548933" lon="14.0367133"><ele>132.75</ele><time>2026-05-02T07:04:53.285Z</time></trkpt><trkpt lat="42.354895" lon="14.03653"><ele>133.0</ele><time>2026-05-02T07:04:54.285Z</time></trkpt><trkpt lat="42.35489" lon="14.0363383"><ele>133.25</ele><time>2026-05-02T07:04:55.285Z</time></trkpt><trkpt lat="42.35488" lon="14.03617"><ele>133.5</ele><time>2026-05-02T07:04:56.285Z</time></trkpt><trkpt lat="42.3548767" lon="14.0360017"><ele>133.75</ele><time>2026-05-02T07:04:57.285Z</time></trkpt><trkpt lat="42.3548767" lon="14.0358283"><ele>134.0</ele><time>2026-05-02T07:04:58.285Z</time></trkpt><trkpt lat="42.354885" lon="14.0356633"><ele>134.75</ele><time>2026-05-02T07:04:59.285Z</time></trkpt><trkpt lat="42.3548883" lon="14.0355083"><ele>135.5</ele><time>2026-05-02T07:05:00.286Z</time></trkpt><trkpt lat="42.35489" lon="14.035355"><ele>136.25</ele><time>2026-05-02T07:05:01.285Z</time></trkpt><trkpt lat="42.3548817" lon="14.0351967"><ele>137.0</ele><time>2026-05-02T07:05:02.285Z</time></trkpt><trkpt lat="42.3548767" lon="14.035045"><ele>137.25</ele><time>2026-05-02T07:05:03.285Z</time></trkpt><trkpt lat="42.3548717" lon="14.0348933"><ele>137.5</ele><time>2026-05-02T07:05:04.285Z</time></trkpt><trkpt lat="42.3548717" lon="14.034725"><ele>137.75</ele><time>2026-05-02T07:05:05.285Z</time></trkpt><trkpt lat="42.3548683" lon="14.0345617"><ele>138.0</ele><time>2026-05-02T07:05:06.285Z</time></trkpt><trkpt lat="42.3548683" lon="14.0343883"><ele>138.0</ele><time>2026-05-02T07:05:07.285Z</time></trkpt><trkpt lat="42.3548733" lon="14.034215"><ele>138.0</ele><time>2026-05-02T07:05:08.285Z</time></trkpt><trkpt lat="42.35487" lon="14.0340417"><ele>138.0</ele><time>2026-05-02T07:05:09.285Z</time></trkpt><trkpt lat="42.3548717" lon="14.03387"><ele>138.0</ele><time>2026-05-02T07:05:10.285Z</time></trkpt><trkpt lat="42.354865" lon="14.0337033"><ele>138.0</ele><time>2026-05-02T07:05:11.285Z</time></trkpt><trkpt lat="42.3548583" lon="14.033535"><ele>138.0</ele><time>2026-05-02T07:05:12.285Z</time></trkpt><trkpt lat="42.3548567" lon="14.0333617"><ele>138.0</ele><time>2026-05-02T07:05:13.285Z</time></trkpt><trkpt lat="42.3548567" lon="14.0331767"><ele>138.0</ele><time>2026-05-02T07:05:14.285Z</time></trkpt><trkpt lat="42.3548567" lon="14.0329833"><ele>138.33333333333334</ele><time>2026-05-02T07:05:15.285Z</time></trkpt><trkpt lat="42.3548483" lon="14.032755"><ele>138.66666666666669</ele><time>2026-05-02T07:05:16.285Z</time></trkpt><trkpt lat="42.35484" lon="14.0325067"><ele>139.0</ele><time>2026-05-02T07:05:17.285Z</time></trkpt><trkpt lat="42.3548317" lon="14.0322617"><ele>139.0</ele><time>2026-05-02T07:05:18.285Z</time></trkpt><trkpt lat="42.3548283" lon="14.032015"><ele>139.0</ele><time>2026-05-02T07:05:19.285Z</time></trkpt><trkpt lat="42.3548333" lon="14.0317633"><ele>139.0</ele><time>2026-05-02T07:05:20.285Z</time></trkpt><trkpt lat="42.354835" lon="14.0315183"><ele>139.0</ele><time>2026-05-02T07:05:21.286Z</time></trkpt><trkpt lat="42.35483" lon="14.031285"><ele>139.0</ele><time>2026-05-02T07:05:22.285Z</time></trkpt><trkpt lat="42.354835" lon="14.031055"><ele>139.0</ele><time>2026-05-02T07:05:23.285Z</time></trkpt><trkpt lat="42.35483" lon="14.0308333"><ele>139.66666666666669</ele><time>2026-05-02T07:05:24.285Z</time></trkpt><trkpt lat="42.3548317" lon="14.0306033"><ele>140.33333333333334</ele><time>2026-05-02T07:05:25.285Z</time></trkpt><trkpt lat="42.3548283" lon="14.0303717"><ele>141.0</ele><time>2026-05-02T07:05:26.285Z</time></trkpt><trkpt lat="42.3548267" lon="14.0301433"><ele>142.33333333333334</ele><time>2026-05-02T07:05:27.285Z</time></trkpt><trkpt lat="42.354825" lon="14.0299117"><ele>143.66666666666669</ele><time>2026-05-02T07:05:28.285Z</time></trkpt><trkpt lat="42.3548267" lon="14.0296833"><ele>145.0</ele><time>2026-05-02T07:05:29.285Z</time></trkpt><trkpt lat="42.3548233" lon="14.02946"><ele>145.0</ele><time>2026-05-02T07:05:30.285Z</time></trkpt><trkpt lat="42.3548183" lon="14.0292317"><ele>145.0</ele><time>2026-05-02T07:05:31.285Z</time></trkpt><trkpt lat="42.35482" lon="14.0290033"><ele>145.0</ele><time>2026-05-02T07:05:32.285Z</time></trkpt><trkpt lat="42.3548183" lon="14.0287617"><ele>145.0</ele><time>2026-05-02T07:05:33.285Z</time></trkpt><trkpt lat="42.3548183" lon="14.0285233"><ele>145.0</ele><time>2026-05-02T07:05:34.285Z</time></trkpt><trkpt lat="42.354815" lon="14.028285"><ele>145.0</ele><time>2026-05-02T07:05:35.285Z</time></trkpt><trkpt lat="42.3548117" lon="14.02805"><ele>145.0</ele><time>2026-05-02T07:05:36.285Z</time></trkpt><trkpt lat="42.3548117" lon="14.02782"><ele>145.0</ele><time>2026-05-02T07:05:37.285Z</time></trkpt><trkpt lat="42.35481" lon="14.027595"><ele>145.0</ele><time>2026-05-02T07:05:38.285Z</time></trkpt><trkpt lat="42.3548083" lon="14.0273633"><ele>145.66666666666669</ele><time>2026-05-02T07:05:39.285Z</time></trkpt><trkpt lat="42.3548083" lon="14.0271367"><ele>146.33333333333334</ele><time>2026-05-02T07:05:40.285Z</time></trkpt><trkpt lat="42.3548067" lon="14.02692"><ele>147.0</ele><time>2026-05-02T07:05:41.285Z</time></trkpt><trkpt lat="42.354805" lon="14.0267017"><ele>147.0</ele><time>2026-05-02T07:05:42.285Z</time></trkpt><trkpt lat="42.3548033" lon="14.0264867"><ele>147.0</ele><time>2026-05-02T07:05:43.286Z</time></trkpt><trkpt lat="42.3548" lon="14.02627"><ele>147.0</ele><time>2026-05-02T07:05:44.285Z</time></trkpt><trkpt lat="42.3547933" lon="14.0260583"><ele>147.0</ele><time>2026-05-02T07:05:45.285Z</time></trkpt><trkpt lat="42.3547867" lon="14.02585"><ele>147.0</ele><time>2026-05-02T07:05:46.285Z</time></trkpt><trkpt lat="42.3547817" lon="14.025645"><ele>147.0</ele><time>2026-05-02T07:05:47.285Z</time></trkpt><trkpt lat="42.3547833" lon="14.025435"><ele>147.5</ele><time>2026-05-02T07:05:48.285Z</time></trkpt><trkpt lat="42.3547867" lon="14.0252283"><ele>148.0</ele><time>2026-05-02T07:05:49.285Z</time></trkpt><trkpt lat="42.3547933" lon="14.0250267"><ele>148.5</ele><time>2026-05-02T07:05:50.285Z</time></trkpt><trkpt lat="42.3548017" lon="14.02483"><ele>149.0</ele><time>2026-05-02T07:05:51.285Z</time></trkpt><trkpt lat="42.3548167" lon="14.0246367"><ele>149.25</ele><time>2026-05-02T07:05:52.285Z</time></trkpt><trkpt lat="42.3548333" lon="14.0244433"><ele>149.5</ele><time>2026-05-02T07:05:53.285Z</time></trkpt><trkpt lat="42.3548483" lon="14.0242483"><ele>149.75</ele><time>2026-05-02T07:05:54.285Z</time></trkpt><trkpt lat="42.354865" lon="14.024045"><ele>150.0</ele><time>2026-05-02T07:05:55.285Z</time></trkpt><trkpt lat="42.3548817" lon="14.0238533"><ele>150.5</ele><time>2026-05-02T07:05:56.285Z</time></trkpt><trkpt lat="42.354895" lon="14.0236617"><ele>151.0</ele><time>2026-05-02T07:05:57.285Z</time></trkpt><trkpt lat="42.3549067" lon="14.0234783"><ele>151.5</ele><time>2026-05-02T07:05:58.285Z</time></trkpt><trkpt lat="42.3549217" lon="14.0232933"><ele>152.0</ele><time>2026-05-02T07:05:59.285Z</time></trkpt><trkpt lat="42.3549333" lon="14.0231133"><ele>152.2</ele><time>2026-05-02T07:06:00.285Z</time></trkpt><trkpt lat="42.3549433" lon="14.0229517"><ele>152.39999999999998</ele><time>2026-05-02T07:06:01.285Z</time></trkpt><trkpt lat="42.3549467" lon="14.02281"><ele>152.60000000000002</ele><time>2026-05-02T07:06:02.286Z</time></trkpt><trkpt lat="42.3549567" lon="14.0226667"><ele>152.8</ele><time>2026-05-02T07:06:03.285Z</time></trkpt><trkpt lat="42.3549667" lon="14.0225433"><ele>153.0</ele><time>2026-05-02T07:06:04.285Z</time></trkpt><trkpt lat="42.3549733" lon="14.0224217"><ele>153.16666666666666</ele><time>2026-05-02T07:06:05.285Z</time></trkpt><trkpt lat="42.35497" lon="14.02231"><ele>153.33333333333334</ele><time>2026-05-02T07:06:06.285Z</time></trkpt><trkpt lat="42.354955" lon="14.022225"><ele>153.5</ele><time>2026-05-02T07:06:07.285Z</time></trkpt><trkpt lat="42.3549183" lon="14.022105"><ele>153.66666666666669</ele><time>2026-05-02T07:06:09.285Z</time></trkpt><trkpt lat="42.3549017" lon="14.0219967"><ele>153.83333333333334</ele><time>2026-05-02T07:06:11.285Z</time></trkpt><trkpt lat="42.35488" lon="14.0218933"><ele>154.0</ele><time>2026-05-02T07:06:13.285Z</time></trkpt><trkpt lat="42.3548167" lon="14.0218417"><ele>154.0</ele><time>2026-05-02T07:06:15.285Z</time></trkpt><trkpt lat="42.3547367" lon="14.0218967"><ele>154.0</ele><time>2026-05-02T07:07:29.285Z</time></trkpt><trkpt lat="42.3546867" lon="14.021955"><ele>154.0</ele><time>2026-05-02T07:07:40.285Z</time></trkpt><trkpt lat="42.3547633" lon="14.0219617"><ele>154.0</ele><time>2026-05-02T07:07:41.285Z</time></trkpt><trkpt lat="42.3547991" lon="14.0218905"><ele>154.0</ele><time>2026-05-02T07:10:19.285Z</time></trkpt><trkpt lat="42.3547683" lon="14.0219733"><ele>154.0</ele><time>2026-05-02T07:14:05.285Z</time></trkpt><trkpt lat="42.3547883" lon="14.022095"><ele>154.0</ele><time>2026-05-02T07:14:07.285Z</time></trkpt><trkpt lat="42.3548367" lon="14.0221883"><ele>154.0</ele><time>2026-05-02T07:14:09.285Z</time></trkpt><trkpt lat="42.3548867" lon="14.0222533"><ele>154.0</ele><time>2026-05-02T07:14:11.285Z</time></trkpt><trkpt lat="42.3549467" lon="14.022345"><ele>154.0</ele><time>2026-05-02T07:14:14.285Z</time></trkpt><trkpt lat="42.3549567" lon="14.0224933"><ele>154.0</ele><time>2026-05-02T07:14:16.285Z</time></trkpt><trkpt lat="42.354945" lon="14.0226183"><ele>154.0</ele><time>2026-05-02T07:14:17.285Z</time></trkpt><trkpt lat="42.3549317" lon="14.0227517"><ele>153.8</ele><time>2026-05-02T07:14:18.285Z</time></trkpt><trkpt lat="42.3549267" lon="14.0228917"><ele>153.60000000000002</ele><time>2026-05-02T07:14:19.285Z</time></trkpt><trkpt lat="42.35491" lon="14.0230367"><ele>153.4</ele><time>2026-05-02T07:14:20.285Z</time></trkpt><trkpt lat="42.3549067" lon="14.0231617"><ele>153.20000000000002</ele><time>2026-05-02T07:14:21.285Z</time></trkpt><trkpt lat="42.3549033" lon="14.0232717"><ele>153.0</ele><time>2026-05-02T07:14:22.285Z</time></trkpt><trkpt lat="42.3549" lon="14.0233667"><ele>152.83333333333334</ele><time>2026-05-02T07:14:23.285Z</time></trkpt><trkpt lat="42.354885" lon="14.023455"><ele>152.66666666666666</ele><time>2026-05-02T07:14:24.285Z</time></trkpt><trkpt lat="42.35485" lon="14.02354"><ele>152.5</ele><time>2026-05-02T07:14:25.285Z</time></trkpt><trkpt lat="42.354795" lon="14.0236217"><ele>152.33333333333331</ele><time>2026-05-02T07:14:26.285Z</time></trkpt><trkpt lat="42.3547333" lon="14.023685"><ele>152.16666666666666</ele><time>2026-05-02T07:14:27.285Z</time></trkpt><trkpt lat="42.354675" lon="14.0237483"><ele>152.0</ele><time>2026-05-02T07:14:28.285Z</time></trkpt><trkpt lat="42.3546133" lon="14.0238167"><ele>152.33333333333331</ele><time>2026-05-02T07:14:29.285Z</time></trkpt><trkpt lat="42.35456" lon="14.0238833"><ele>152.66666666666666</ele><time>2026-05-02T07:14:30.285Z</time></trkpt><trkpt lat="42.3544783" lon="14.023995"><ele>153.0</ele><time>2026-05-02T07:14:32.285Z</time></trkpt><trkpt lat="42.3544267" lon="14.0240533"><ele>153.33333333333334</ele><time>2026-05-02T07:14:33.285Z</time></trkpt><trkpt lat="42.3543733" lon="14.0241167"><ele>153.66666666666669</ele><time>2026-05-02T07:14:34.285Z</time></trkpt><trkpt lat="42.3542833" lon="14.0242117"><ele>154.0</ele><time>2026-05-02T07:14:36.286Z</time></trkpt><trkpt lat="42.3542" lon="14.0242833"><ele>154.0</ele><time>2026-05-02T07:14:38.286Z</time></trkpt><trkpt lat="42.3541167" lon="14.02432"><ele>154.0</ele><time>2026-05-02T07:14:40.285Z</time></trkpt><trkpt lat="42.3540233" lon="14.02428"><ele>154.0</ele><time>2026-05-02T07:14:42.285Z</time></trkpt><trkpt lat="42.3539617" lon="14.0242333"><ele>154.0</ele><time>2026-05-02T07:14:43.285Z</time></trkpt><trkpt lat="42.3538967" lon="14.024185"><ele>154.0</ele><time>2026-05-02T07:14:44.285Z</time></trkpt><trkpt lat="42.3538267" lon="14.0241383"><ele>154.0</ele><time>2026-05-02T07:14:45.286Z</time></trkpt><trkpt lat="42.35376" lon="14.0240983"><ele>154.8</ele><time>2026-05-02T07:14:46.285Z</time></trkpt><trkpt lat="42.3536917" lon="14.0240783"><ele>155.60000000000002</ele><time>2026-05-02T07:14:47.285Z</time></trkpt><trkpt lat="42.35362" lon="14.0240667"><ele>156.4</ele><time>2026-05-02T07:14:48.285Z</time></trkpt><trkpt lat="42.3535367" lon="14.024055"><ele>157.20000000000002</ele><time>2026-05-02T07:14:49.285Z</time></trkpt><trkpt lat="42.35343" lon="14.0240483"><ele>158.0</ele><time>2026-05-02T07:14:50.285Z</time></trkpt><trkpt lat="42.3533133" lon="14.0240317"><ele>158.0</ele><time>2026-05-02T07:14:51.285Z</time></trkpt><trkpt lat="42.3531883" lon="14.0240117"><ele>158.0</ele><time>2026-05-02T07:14:52.285Z</time></trkpt><trkpt lat="42.35307" lon="14.0239867"><ele>158.0</ele><time>2026-05-02T07:14:53.285Z</time></trkpt><trkpt lat="42.3529633" lon="14.02397"><ele>158.0</ele><time>2026-05-02T07:14:54.285Z</time></trkpt><trkpt lat="42.3528583" lon="14.0239533"><ele>159.60000000000002</ele><time>2026-05-02T07:14:55.285Z</time></trkpt><trkpt lat="42.35275" lon="14.023935"><ele>161.20000000000002</ele><time>2026-05-02T07:14:56.285Z</time></trkpt><trkpt lat="42.3526467" lon="14.0239183"><ele>162.8</ele><time>2026-05-02T07:14:57.285Z</time></trkpt><trkpt lat="42.3525417" lon="14.0239033"><ele>164.4</ele><time>2026-05-02T07:14:58.285Z</time></trkpt><trkpt lat="42.3524367" lon="14.0238917"><ele>166.0</ele><time>2026-05-02T07:14:59.285Z</time></trkpt><trkpt lat="42.3523317" lon="14.0238783"><ele>166.0</ele><time>2026-05-02T07:15:00.285Z</time></trkpt><trkpt lat="42.35223" lon="14.0238733"><ele>166.0</ele><time>2026-05-02T07:15:01.286Z</time></trkpt><trkpt lat="42.352145" lon="14.0238767"><ele>166.0</ele><time>2026-05-02T07:15:02.285Z</time></trkpt><trkpt lat="42.35206" lon="14.02389"><ele>166.0</ele><time>2026-05-02T07:15:03.286Z</time></trkpt><trkpt lat="42.3519833" lon="14.0239117"><ele>166.0</ele><time>2026-05-02T07:15:04.286Z</time></trkpt><trkpt lat="42.35191" lon="14.0239367"><ele>166.0</ele><time>2026-05-02T07:15:05.285Z</time></trkpt><trkpt lat="42.3518383" lon="14.0239667"><ele>167.0</ele><time>2026-05-02T07:15:06.285Z</time></trkpt><trkpt lat="42.351765" lon="14.0239967"><ele>168.0</ele><time>2026-05-02T07:15:07.285Z</time></trkpt><trkpt lat="42.35169" lon="14.0240217"><ele>169.0</ele><time>2026-05-02T07:15:08.285Z</time></trkpt><trkpt lat="42.351625" lon="14.024045"><ele>170.0</ele><time>2026-05-02T07:15:09.285Z</time></trkpt><trkpt lat="42.35156" lon="14.0240567"><ele>171.0</ele><time>2026-05-02T07:15:10.285Z</time></trkpt><trkpt lat="42.35149" lon="14.02406"><ele>172.0</ele><time>2026-05-02T07:15:11.285Z</time></trkpt><trkpt lat="42.3514217" lon="14.0240467"><ele>173.0</ele><time>2026-05-02T07:15:12.285Z</time></trkpt><trkpt lat="42.35136" lon="14.0240133"><ele>174.33333333333331</ele><time>2026-05-02T07:15:13.285Z</time></trkpt><trkpt lat="42.351305" lon="14.0239683"><ele>175.66666666666666</ele><time>2026-05-02T07:15:14.285Z</time></trkpt><trkpt lat="42.3512367" lon="14.023845"><ele>177.0</ele><time>2026-05-02T07:15:16.286Z</time></trkpt><trkpt lat="42.351205" lon="14.0237517"><ele>178.33333333333334</ele><time>2026-05-02T07:15:17.285Z</time></trkpt><trkpt lat="42.3511767" lon="14.0236483"><ele>179.66666666666669</ele><time>2026-05-02T07:15:18.285Z</time></trkpt><trkpt lat="42.3511433" lon="14.023545"><ele>181.0</ele><time>2026-05-02T07:15:19.285Z</time></trkpt><trkpt lat="42.35111" lon="14.02344"><ele>181.0</ele><time>2026-05-02T07:15:20.285Z</time></trkpt><trkpt lat="42.351065" lon="14.023345"><ele>181.0</ele><time>2026-05-02T07:15:21.285Z</time></trkpt><trkpt lat="42.3510133" lon="14.02325"><ele>181.0</ele><time>2026-05-02T07:15:22.285Z</time></trkpt><trkpt lat="42.3509517" lon="14.0231633"><ele>181.0</ele><time>2026-05-02T07:15:23.285Z</time></trkpt><trkpt lat="42.3508833" lon="14.0230767"><ele>181.0</ele><time>2026-05-02T07:15:24.286Z</time></trkpt><trkpt lat="42.3508183" lon="14.0229867"><ele>181.0</ele><time>2026-05-02T07:15:25.286Z</time></trkpt><trkpt lat="42.350745" lon="14.0228917"><ele>182.0</ele><time>2026-05-02T07:15:26.285Z</time></trkpt><trkpt lat="42.35067" lon="14.02279"><ele>183.0</ele><time>2026-05-02T07:15:27.285Z</time></trkpt><trkpt lat="42.3506067" lon="14.0226933"><ele>184.0</ele><time>2026-05-02T07:15:28.285Z</time></trkpt><trkpt lat="42.3505417" lon="14.0225983"><ele>185.0</ele><time>2026-05-02T07:15:29.285Z</time></trkpt><trkpt lat="42.3504817" lon="14.0225017"><ele>186.0</ele><time>2026-05-02T07:15:30.285Z</time></trkpt><trkpt lat="42.3504283" lon="14.02242"><ele>186.66666666666666</ele><time>2026-05-02T07:15:31.285Z</time></trkpt><trkpt lat="42.3503733" lon="14.0223383"><ele>187.33333333333334</ele><time>2026-05-02T07:15:32.285Z</time></trkpt><trkpt lat="42.3503167" lon="14.022275"><ele>188.0</ele><time>2026-05-02T07:15:33.285Z</time></trkpt><trkpt lat="42.3502567" lon="14.022235"><ele>188.66666666666669</ele><time>2026-05-02T07:15:34.285Z</time></trkpt><trkpt lat="42.3501317" lon="14.0222533"><ele>189.33333333333334</ele><time>2026-05-02T07:15:36.286Z</time></trkpt><trkpt lat="42.3500633" lon="14.0223117"><ele>190.0</ele><time>2026-05-02T07:15:37.285Z</time></trkpt><trkpt lat="42.3499767" lon="14.0224033"><ele>190.0</ele><time>2026-05-02T07:15:38.285Z</time></trkpt><trkpt lat="42.3498717" lon="14.0225033"><ele>190.0</ele><time>2026-05-02T07:15:39.285Z</time></trkpt><trkpt lat="42.3497617" lon="14.0226067"><ele>190.0</ele><time>2026-05-02T07:15:40.285Z</time></trkpt><trkpt lat="42.3496517" lon="14.022705"><ele>190.0</ele><time>2026-05-02T07:15:41.285Z</time></trkpt><trkpt lat="42.3495417" lon="14.022805"><ele>190.0</ele><time>2026-05-02T07:15:42.285Z</time></trkpt><trkpt lat="42.3494383" lon="14.0228933"><ele>190.0</ele><time>2026-05-02T07:15:43.285Z</time></trkpt><trkpt lat="42.3493417" lon="14.022985"><ele>190.0</ele><time>2026-05-02T07:15:44.285Z</time></trkpt><trkpt lat="42.3492533" lon="14.02308"><ele>190.0</ele><time>2026-05-02T07:15:45.285Z</time></trkpt><trkpt lat="42.34917" lon="14.0231617"><ele>190.0</ele><time>2026-05-02T07:15:46.285Z</time></trkpt><trkpt lat="42.3491" lon="14.023225"><ele>190.0</ele><time>2026-05-02T07:15:47.285Z</time></trkpt><trkpt lat="42.349045" lon="14.0232733"><ele>190.0</ele><time>2026-05-02T07:15:48.285Z</time></trkpt><trkpt lat="42.348945" lon="14.0233267"><ele>190.0</ele><time>2026-05-02T07:15:50.285Z</time></trkpt><trkpt lat="42.3488533" lon="14.02329"><ele>190.0</ele><time>2026-05-02T07:15:52.285Z</time></trkpt><trkpt lat="42.3487617" lon="14.0231617"><ele>191.0</ele><time>2026-05-02T07:15:54.286Z</time></trkpt><trkpt lat="42.3487183" lon="14.0230617"><ele>192.0</ele><time>2026-05-02T07:15:55.286Z</time></trkpt><trkpt lat="42.3486633" lon="14.0229633"><ele>193.0</ele><time>2026-05-02T07:15:56.285Z</time></trkpt><trkpt lat="42.3486167" lon="14.02285"><ele>194.0</ele><time>2026-05-02T07:15:57.285Z</time></trkpt><trkpt lat="42.3485567" lon="14.022725"><ele>195.0</ele><time>2026-05-02T07:15:58.285Z</time></trkpt><trkpt lat="42.3484967" lon="14.0225967"><ele>195.0</ele><time>2026-05-02T07:15:59.285Z</time></trkpt><trkpt lat="42.3484217" lon="14.02247"><ele>195.0</ele><time>2026-05-02T07:16:00.285Z</time></trkpt><trkpt lat="42.3483317" lon="14.0223083"><ele>195.0</ele><time>2026-05-02T07:16:01.285Z</time></trkpt><trkpt lat="42.3482267" lon="14.0221383"><ele>195.0</ele><time>2026-05-02T07:16:02.286Z</time></trkpt><trkpt lat="42.3481167" lon="14.0219817"><ele>195.33333333333331</ele><time>2026-05-02T07:16:03.285Z</time></trkpt><trkpt lat="42.348015" lon="14.0218317"><ele>195.66666666666666</ele><time>2026-05-02T07:16:04.285Z</time></trkpt><trkpt lat="42.3479117" lon="14.021685"><ele>196.0</ele><time>2026-05-02T07:16:05.285Z</time></trkpt><trkpt lat="42.3478033" lon="14.0215367"><ele>196.0</ele><time>2026-05-02T07:16:06.285Z</time></trkpt><trkpt lat="42.34769" lon="14.02139"><ele>196.0</ele><time>2026-05-02T07:16:07.285Z</time></trkpt><trkpt lat="42.3475783" lon="14.0212417"><ele>196.0</ele><time>2026-05-02T07:16:08.285Z</time></trkpt><trkpt lat="42.3474833" lon="14.0211"><ele>196.0</ele><time>2026-05-02T07:16:09.285Z</time></trkpt><trkpt lat="42.347385" lon="14.020945"><ele>196.0</ele><time>2026-05-02T07:16:10.285Z</time></trkpt><trkpt lat="42.347285" lon="14.02079"><ele>196.0</ele><time>2026-05-02T07:16:11.285Z</time></trkpt><trkpt lat="42.347195" lon="14.0206367"><ele>196.0</ele><time>2026-05-02T07:16:12.285Z</time></trkpt><trkpt lat="42.3471133" lon="14.0204917"><ele>196.25</ele><time>2026-05-02T07:16:13.286Z</time></trkpt><trkpt lat="42.347045" lon="14.0203633"><ele>196.5</ele><time>2026-05-02T07:16:14.285Z</time></trkpt><trkpt lat="42.3469817" lon="14.0202333"><ele>196.75</ele><time>2026-05-02T07:16:15.285Z</time></trkpt><trkpt lat="42.3469167" lon="14.0201033"><ele>197.0</ele><time>2026-05-02T07:16:16.285Z</time></trkpt><trkpt lat="42.34685" lon="14.0199783"><ele>197.0</ele><time>2026-05-02T07:16:17.285Z</time></trkpt><trkpt lat="42.34678" lon="14.019845"><ele>197.0</ele><time>2026-05-02T07:16:18.285Z</time></trkpt><trkpt lat="42.3467167" lon="14.0197067"><ele>197.0</ele><time>2026-05-02T07:16:19.285Z</time></trkpt><trkpt lat="42.3466517" lon="14.01956"><ele>197.0</ele><time>2026-05-02T07:16:20.285Z</time></trkpt><trkpt lat="42.3465817" lon="14.0194033"><ele>197.0</ele><time>2026-05-02T07:16:21.285Z</time></trkpt><trkpt lat="42.34651" lon="14.019245"><ele>197.0</ele><time>2026-05-02T07:16:22.285Z</time></trkpt><trkpt lat="42.34644" lon="14.0191"><ele>197.0</ele><time>2026-05-02T07:16:23.285Z</time></trkpt><trkpt lat="42.346375" lon="14.0189533"><ele>197.0</ele><time>2026-05-02T07:16:24.285Z</time></trkpt><trkpt lat="42.3463033" lon="14.0188067"><ele>198.0</ele><time>2026-05-02T07:16:25.285Z</time></trkpt><trkpt lat="42.34624" lon="14.0186667"><ele>199.0</ele><time>2026-05-02T07:16:26.285Z</time></trkpt><trkpt lat="42.3461733" lon="14.0185167"><ele>200.0</ele><time>2026-05-02T07:16:27.285Z</time></trkpt><trkpt lat="42.3461033" lon="14.0183717"><ele>201.0</ele><time>2026-05-02T07:16:28.285Z</time></trkpt><trkpt lat="42.346035" lon="14.0182367"><ele>201.5</ele><time>2026-05-02T07:16:29.285Z</time></trkpt><trkpt lat="42.3459717" lon="14.01811"><ele>202.0</ele><time>2026-05-02T07:16:30.285Z</time></trkpt><trkpt lat="42.3458967" lon="14.0179767"><ele>202.5</ele><time>2026-05-02T07:16:31.285Z</time></trkpt><trkpt lat="42.3458283" lon="14.01786"><ele>203.0</ele><time>2026-05-02T07:16:32.285Z</time></trkpt><trkpt lat="42.3457667" lon="14.0177333"><ele>203.0</ele><time>2026-05-02T07:16:33.285Z</time></trkpt><trkpt lat="42.3457" lon="14.017595"><ele>203.0</ele><time>2026-05-02T07:16:34.285Z</time></trkpt><trkpt lat="42.3456233" lon="14.01746"><ele>203.0</ele><time>2026-05-02T07:16:35.285Z</time></trkpt><trkpt lat="42.3455467" lon="14.0173233"><ele>203.0</ele><time>2026-05-02T07:16:36.286Z</time></trkpt><trkpt lat="42.3454733" lon="14.0171717"><ele>203.5</ele><time>2026-05-02T07:16:37.285Z</time></trkpt><trkpt lat="42.3453933" lon="14.0170233"><ele>204.0</ele><time>2026-05-02T07:16:38.285Z</time></trkpt><trkpt lat="42.3453033" lon="14.0168717"><ele>204.5</ele><time>2026-05-02T07:16:39.285Z</time></trkpt><trkpt lat="42.3452267" lon="14.016735"><ele>205.0</ele><time>2026-05-02T07:16:40.286Z</time></trkpt><trkpt lat="42.3451717" lon="14.0166"><ele>205.33333333333331</ele><time>2026-05-02T07:16:41.285Z</time></trkpt><trkpt lat="42.3451267" lon="14.01648"><ele>205.66666666666666</ele><time>2026-05-02T07:16:42.285Z</time></trkpt><trkpt lat="42.345095" lon="14.0163617"><ele>206.0</ele><time>2026-05-02T07:16:43.285Z</time></trkpt><trkpt lat="42.34506" lon="14.016275"><ele>206.33333333333331</ele><time>2026-05-02T07:16:44.285Z</time></trkpt><trkpt lat="42.34502" lon="14.0162017"><ele>206.66666666666666</ele><time>2026-05-02T07:16:45.285Z</time></trkpt><trkpt lat="42.3449167" lon="14.016135"><ele>207.0</ele><time>2026-05-02T07:16:47.285Z</time></trkpt><trkpt lat="42.34482" lon="14.016155"><ele>207.0</ele><time>2026-05-02T07:16:48.285Z</time></trkpt><trkpt lat="42.3447083" lon="14.01619"><ele>207.0</ele><time>2026-05-02T07:16:49.285Z</time></trkpt><trkpt lat="42.3446017" lon="14.0162183"><ele>207.0</ele><time>2026-05-02T07:16:50.285Z</time></trkpt><trkpt lat="42.3444983" lon="14.0162433"><ele>207.0</ele><time>2026-05-02T07:16:51.285Z</time></trkpt><trkpt lat="42.344395" lon="14.0162617"><ele>207.0</ele><time>2026-05-02T07:16:52.285Z</time></trkpt><trkpt lat="42.3442967" lon="14.0162783"><ele>207.0</ele><time>2026-05-02T07:16:53.285Z</time></trkpt><trkpt lat="42.3442" lon="14.01629"><ele>207.0</ele><time>2026-05-02T07:16:54.285Z</time></trkpt><trkpt lat="42.3440917" lon="14.0163167"><ele>207.0</ele><time>2026-05-02T07:16:55.285Z</time></trkpt><trkpt lat="42.3439917" lon="14.0163367"><ele>207.0</ele><time>2026-05-02T07:16:56.285Z</time></trkpt><trkpt lat="42.343895" lon="14.0163433"><ele>207.0</ele><time>2026-05-02T07:16:57.285Z</time></trkpt><trkpt lat="42.3437917" lon="14.016335"><ele>206.25</ele><time>2026-05-02T07:16:58.285Z</time></trkpt><trkpt lat="42.3436783" lon="14.0163167"><ele>205.5</ele><time>2026-05-02T07:16:59.285Z</time></trkpt><trkpt lat="42.3435633" lon="14.0162933"><ele>204.75</ele><time>2026-05-02T07:17:00.285Z</time></trkpt><trkpt lat="42.3434533" lon="14.0162567"><ele>204.0</ele><time>2026-05-02T07:17:01.285Z</time></trkpt><trkpt lat="42.3433483" lon="14.0162233"><ele>204.0</ele><time>2026-05-02T07:17:02.285Z</time></trkpt><trkpt lat="42.3432383" lon="14.0161933"><ele>204.0</ele><time>2026-05-02T07:17:03.286Z</time></trkpt><trkpt lat="42.3431433" lon="14.01616"><ele>204.0</ele><time>2026-05-02T07:17:04.285Z</time></trkpt><trkpt lat="42.34306" lon="14.0161333"><ele>204.0</ele><time>2026-05-02T07:17:05.285Z</time></trkpt><trkpt lat="42.342985" lon="14.0161133"><ele>204.0</ele><time>2026-05-02T07:17:06.285Z</time></trkpt><trkpt lat="42.34292" lon="14.01609"><ele>204.0</ele><time>2026-05-02T07:17:07.285Z</time></trkpt><trkpt lat="42.3428017" lon="14.0160817"><ele>201.25</ele><time>2026-05-02T07:17:09.285Z</time></trkpt><trkpt lat="42.3427033" lon="14.01621"><ele>198.5</ele><time>2026-05-02T07:17:11.285Z</time></trkpt><trkpt lat="42.3426583" lon="14.0163317"><ele>195.75</ele><time>2026-05-02T07:17:12.285Z</time></trkpt><trkpt lat="42.3426133" lon="14.0164767"><ele>193.0</ele><time>2026-05-02T07:17:13.286Z</time></trkpt><trkpt lat="42.3425683" lon="14.0166117"><ele>192.66666666666666</ele><time>2026-05-02T07:17:14.285Z</time></trkpt><trkpt lat="42.34254" lon="14.016735"><ele>192.33333333333331</ele><time>2026-05-02T07:17:15.285Z</time></trkpt><trkpt lat="42.3425267" lon="14.0168317"><ele>192.0</ele><time>2026-05-02T07:17:16.285Z</time></trkpt><trkpt lat="42.3424967" lon="14.0169583"><ele>191.66666666666666</ele><time>2026-05-02T07:17:18.285Z</time></trkpt><trkpt lat="42.3424217" lon="14.0170033"><ele>191.33333333333331</ele><time>2026-05-02T07:17:20.285Z</time></trkpt><trkpt lat="42.342345" lon="14.0170333"><ele>191.0</ele><time>2026-05-02T07:17:22.285Z</time></trkpt><trkpt lat="42.3422683" lon="14.017035"><ele>188.8</ele><time>2026-05-02T07:17:24.286Z</time></trkpt><trkpt lat="42.34215" lon="14.0169633"><ele>186.60000000000002</ele><time>2026-05-02T07:17:26.285Z</time></trkpt><trkpt lat="42.3420733" lon="14.016905"><ele>184.4</ele><time>2026-05-02T07:17:27.285Z</time></trkpt><trkpt lat="42.3419983" lon="14.0168417"><ele>182.2</ele><time>2026-05-02T07:17:28.285Z</time></trkpt><trkpt lat="42.341925" lon="14.0167883"><ele>180.0</ele><time>2026-05-02T07:17:29.285Z</time></trkpt><trkpt lat="42.34185" lon="14.0167267"><ele>180.0</ele><time>2026-05-02T07:17:30.286Z</time></trkpt><trkpt lat="42.3417733" lon="14.0166667"><ele>180.0</ele><time>2026-05-02T07:17:31.285Z</time></trkpt><trkpt lat="42.3416983" lon="14.01661"><ele>180.0</ele><time>2026-05-02T07:17:32.286Z</time></trkpt><trkpt lat="42.3416217" lon="14.0165517"><ele>180.0</ele><time>2026-05-02T07:17:33.285Z</time></trkpt><trkpt lat="42.34155" lon="14.0164967"><ele>180.0</ele><time>2026-05-02T07:17:34.285Z</time></trkpt><trkpt lat="42.3414783" lon="14.0164483"><ele>180.0</ele><time>2026-05-02T07:17:35.285Z</time></trkpt><trkpt lat="42.3414083" lon="14.0163983"><ele>179.16666666666666</ele><time>2026-05-02T07:17:36.285Z</time></trkpt><trkpt lat="42.3413383" lon="14.0163483"><ele>178.33333333333334</ele><time>2026-05-02T07:17:37.285Z</time></trkpt><trkpt lat="42.3412733" lon="14.0162917"><ele>177.5</ele><time>2026-05-02T07:17:38.285Z</time></trkpt><trkpt lat="42.3412083" lon="14.0162417"><ele>176.66666666666669</ele><time>2026-05-02T07:17:39.285Z</time></trkpt><trkpt lat="42.3411017" lon="14.0161483"><ele>175.83333333333334</ele><time>2026-05-02T07:17:41.286Z</time></trkpt><trkpt lat="42.3410467" lon="14.01609"><ele>175.0</ele><time>2026-05-02T07:17:42.285Z</time></trkpt><trkpt lat="42.3409883" lon="14.0160217"><ele>175.0</ele><time>2026-05-02T07:17:43.285Z</time></trkpt><trkpt lat="42.3409317" lon="14.0159467"><ele>175.0</ele><time>2026-05-02T07:17:44.285Z</time></trkpt><trkpt lat="42.3408767" lon="14.01587"><ele>175.0</ele><time>2026-05-02T07:17:45.286Z</time></trkpt><trkpt lat="42.3408283" lon="14.015785"><ele>175.0</ele><time>2026-05-02T07:17:46.286Z</time></trkpt><trkpt lat="42.34078" lon="14.0156983"><ele>175.0</ele><time>2026-05-02T07:17:47.285Z</time></trkpt><trkpt lat="42.3407367" lon="14.0156017"><ele>175.0</ele><time>2026-05-02T07:17:48.285Z</time></trkpt><trkpt lat="42.340695" lon="14.0154967"><ele>176.0</ele><time>2026-05-02T07:17:49.285Z</time></trkpt><trkpt lat="42.3406583" lon="14.0153933"><ele>177.0</ele><time>2026-05-02T07:17:50.285Z</time></trkpt><trkpt lat="42.34063" lon="14.0153117"><ele>178.0</ele><time>2026-05-02T07:17:51.285Z</time></trkpt><trkpt lat="42.3405633" lon="14.0151967"><ele>179.0</ele><time>2026-05-02T07:17:53.285Z</time></trkpt><trkpt lat="42.34047" lon="14.0151533"><ele>180.0</ele><time>2026-05-02T07:17:55.285Z</time></trkpt><trkpt lat="42.3403583" lon="14.0152"><ele>180.66666666666666</ele><time>2026-05-02T07:17:57.285Z</time></trkpt><trkpt lat="42.3402917" lon="14.0152433"><ele>181.33333333333334</ele><time>2026-05-02T07:17:58.285Z</time></trkpt><trkpt lat="42.34021" lon="14.0153017"><ele>182.0</ele><time>2026-05-02T07:17:59.285Z</time></trkpt><trkpt lat="42.3401383" lon="14.0153567"><ele>182.66666666666669</ele><time>2026-05-02T07:18:00.285Z</time></trkpt><trkpt lat="42.3400767" lon="14.015405"><ele>183.33333333333334</ele><time>2026-05-02T07:18:01.285Z</time></trkpt><trkpt lat="42.3399717" lon="14.01549"><ele>184.0</ele><time>2026-05-02T07:18:03.286Z</time></trkpt><trkpt lat="42.33988" lon="14.0155767"><ele>184.0</ele><time>2026-05-02T07:18:05.285Z</time></trkpt><trkpt lat="42.3397817" lon="14.01564"><ele>184.0</ele><time>2026-05-02T07:18:07.285Z</time></trkpt><trkpt lat="42.3396717" lon="14.0156283"><ele>184.0</ele><time>2026-05-02T07:18:09.286Z</time></trkpt><trkpt lat="42.33961" lon="14.0155933"><ele>184.0</ele><time>2026-05-02T07:18:10.285Z</time></trkpt><trkpt lat="42.3395433" lon="14.01555"><ele>184.0</ele><time>2026-05-02T07:18:11.285Z</time></trkpt><trkpt lat="42.339475" lon="14.0154983"><ele>184.0</ele><time>2026-05-02T07:18:12.285Z</time></trkpt><trkpt lat="42.3394083" lon="14.0154567"><ele>184.5</ele><time>2026-05-02T07:18:13.285Z</time></trkpt><trkpt lat="42.339345" lon="14.0154133"><ele>185.0</ele><time>2026-05-02T07:18:14.285Z</time></trkpt><trkpt lat="42.3392767" lon="14.015275"><ele>185.5</ele><time>2026-05-02T07:18:16.285Z</time></trkpt><trkpt lat="42.3392517" lon="14.0151833"><ele>186.0</ele><time>2026-05-02T07:18:17.285Z</time></trkpt><trkpt lat="42.3392183" lon="14.01508"><ele>186.5</ele><time>2026-05-02T07:18:18.285Z</time></trkpt><trkpt lat="42.3391833" lon="14.0149683"><ele>187.0</ele><time>2026-05-02T07:18:19.285Z</time></trkpt><trkpt lat="42.3391383" lon="14.0148633"><ele>187.0</ele><time>2026-05-02T07:18:20.285Z</time></trkpt><trkpt lat="42.3390917" lon="14.01474"><ele>187.0</ele><time>2026-05-02T07:18:21.285Z</time></trkpt><trkpt lat="42.3390433" lon="14.0146183"><ele>187.0</ele><time>2026-05-02T07:18:22.285Z</time></trkpt><trkpt lat="42.3389883" lon="14.0144967"><ele>187.0</ele><time>2026-05-02T07:18:23.285Z</time></trkpt><trkpt lat="42.338925" lon="14.0143617"><ele>187.0</ele><time>2026-05-02T07:18:24.285Z</time></trkpt><trkpt lat="42.3388617" lon="14.014225"><ele>186.39999999999998</ele><time>2026-05-02T07:18:25.285Z</time></trkpt><trkpt lat="42.338805" lon="14.0141"><ele>185.79999999999998</ele><time>2026-05-02T07:18:26.285Z</time></trkpt><trkpt lat="42.3387533" lon="14.0139767"><ele>185.2</ele><time>2026-05-02T07:18:27.285Z</time></trkpt><trkpt lat="42.3387067" lon="14.0138433"><ele>184.6</ele><time>2026-05-02T07:18:28.285Z</time></trkpt><trkpt lat="42.3386633" lon="14.0137"><ele>184.0</ele><time>2026-05-02T07:18:29.285Z</time></trkpt><trkpt lat="42.3386183" lon="14.0135617"><ele>184.0</ele><time>2026-05-02T07:18:30.285Z</time></trkpt><trkpt lat="42.3385733" lon="14.0134333"><ele>184.0</ele><time>2026-05-02T07:18:31.285Z</time></trkpt><trkpt lat="42.3385283" lon="14.01331"><ele>184.0</ele><time>2026-05-02T07:18:32.285Z</time></trkpt><trkpt lat="42.338485" lon="14.01318"><ele>184.0</ele><time>2026-05-02T07:18:33.285Z</time></trkpt><trkpt lat="42.3384483" lon="14.0130583"><ele>184.0</ele><time>2026-05-02T07:18:34.285Z</time></trkpt><trkpt lat="42.338415" lon="14.0129617"><ele>185.16666666666669</ele><time>2026-05-02T07:18:35.285Z</time></trkpt><trkpt lat="42.3383733" lon="14.0128317"><ele>186.33333333333334</ele><time>2026-05-02T07:18:37.285Z</time></trkpt><trkpt lat="42.33838" lon="14.0127417"><ele>187.5</ele><time>2026-05-02T07:18:39.285Z</time></trkpt><trkpt lat="42.33844" lon="14.0126867"><ele>188.66666666666666</ele><time>2026-05-02T07:18:41.285Z</time></trkpt><trkpt lat="42.338535" lon="14.0126317"><ele>189.83333333333331</ele><time>2026-05-02T07:18:43.285Z</time></trkpt><trkpt lat="42.3385917" lon="14.0125933"><ele>191.0</ele><time>2026-05-02T07:18:44.285Z</time></trkpt><trkpt lat="42.33865" lon="14.012555"><ele>192.16666666666666</ele><time>2026-05-02T07:18:45.286Z</time></trkpt><trkpt lat="42.3387583" lon="14.0124867"><ele>193.33333333333331</ele><time>2026-05-02T07:18:47.285Z</time></trkpt><trkpt lat="42.3388567" lon="14.0124067"><ele>194.5</ele><time>2026-05-02T07:18:49.285Z</time></trkpt><trkpt lat="42.3388883" lon="14.0123117"><ele>195.66666666666666</ele><time>2026-05-02T07:18:57.285Z</time></trkpt><trkpt lat="42.3388217" lon="14.0123133"><ele>196.83333333333334</ele><time>2026-05-02T07:18:59.285Z</time></trkpt><trkpt lat="42.338755" lon="14.0123167"><ele>198.0</ele><time>2026-05-02T07:19:00.285Z</time></trkpt><trkpt lat="42.3386767" lon="14.012285"><ele>198.0</ele><time>2026-05-02T07:19:01.286Z</time></trkpt><trkpt lat="42.338575" lon="14.0122217"><ele>198.0</ele><time>2026-05-02T07:19:02.285Z</time></trkpt><trkpt lat="42.3384517" lon="14.01216"><ele>198.0</ele><time>2026-05-02T07:19:03.285Z</time></trkpt><trkpt lat="42.3383283" lon="14.0121033"><ele>198.0</ele><time>2026-05-02T07:19:04.285Z</time></trkpt><trkpt lat="42.3382083" lon="14.0120567"><ele>198.0</ele><time>2026-05-02T07:19:05.285Z</time></trkpt><trkpt lat="42.33809" lon="14.0120167"><ele>198.0</ele><time>2026-05-02T07:19:06.285Z</time></trkpt><trkpt lat="42.3379733" lon="14.0119683"><ele>198.0</ele><time>2026-05-02T07:19:07.286Z</time></trkpt><trkpt lat="42.3378567" lon="14.0118983"><ele>198.0</ele><time>2026-05-02T07:19:08.285Z</time></trkpt><trkpt lat="42.33774" lon="14.0118133"><ele>197.25</ele><time>2026-05-02T07:19:09.285Z</time></trkpt><trkpt lat="42.337625" lon="14.0117217"><ele>196.5</ele><time>2026-05-02T07:19:10.285Z</time></trkpt><trkpt lat="42.3375267" lon="14.0116267"><ele>195.75</ele><time>2026-05-02T07:19:11.285Z</time></trkpt><trkpt lat="42.3374367" lon="14.011525"><ele>195.0</ele><time>2026-05-02T07:19:12.285Z</time></trkpt><trkpt lat="42.3373483" lon="14.0113933"><ele>195.0</ele><time>2026-05-02T07:19:13.285Z</time></trkpt><trkpt lat="42.3372717" lon="14.0112583"><ele>195.0</ele><time>2026-05-02T07:19:14.285Z</time></trkpt><trkpt lat="42.33721" lon="14.0111333"><ele>195.0</ele><time>2026-05-02T07:19:15.285Z</time></trkpt><trkpt lat="42.337155" lon="14.0110317"><ele>195.0</ele><time>2026-05-02T07:19:16.285Z</time></trkpt><trkpt lat="42.3370983" lon="14.0109533"><ele>195.0</ele><time>2026-05-02T07:19:17.285Z</time></trkpt><trkpt lat="42.3370233" lon="14.0109017"><ele>192.2</ele><time>2026-05-02T07:19:18.285Z</time></trkpt><trkpt lat="42.336935" lon="14.010885"><ele>189.4</ele><time>2026-05-02T07:19:19.285Z</time></trkpt><trkpt lat="42.3368367" lon="14.01092"><ele>186.60000000000002</ele><time>2026-05-02T07:19:20.285Z</time></trkpt><trkpt lat="42.3367317" lon="14.0109783"><ele>183.8</ele><time>2026-05-02T07:19:21.285Z</time></trkpt><trkpt lat="42.3366233" lon="14.0110467"><ele>181.0</ele><time>2026-05-02T07:19:22.285Z</time></trkpt><trkpt lat="42.33652" lon="14.0111167"><ele>181.0</ele><time>2026-05-02T07:19:23.285Z</time></trkpt><trkpt lat="42.336425" lon="14.01121"><ele>181.0</ele><time>2026-05-02T07:19:24.285Z</time></trkpt><trkpt lat="42.3363567" lon="14.0113383"><ele>181.0</ele><time>2026-05-02T07:19:25.285Z</time></trkpt><trkpt lat="42.3362917" lon="14.0114933"><ele>181.0</ele><time>2026-05-02T07:19:26.285Z</time></trkpt><trkpt lat="42.3362233" lon="14.0116667"><ele>184.25</ele><time>2026-05-02T07:19:27.286Z</time></trkpt><trkpt lat="42.336155" lon="14.0118417"><ele>187.5</ele><time>2026-05-02T07:19:28.286Z</time></trkpt><trkpt lat="42.3361" lon="14.0120133"><ele>190.75</ele><time>2026-05-02T07:19:29.285Z</time></trkpt><trkpt lat="42.336055" lon="14.012195"><ele>194.0</ele><time>2026-05-02T07:19:30.286Z</time></trkpt><trkpt lat="42.3360333" lon="14.012385"><ele>195.66666666666669</ele><time>2026-05-02T07:19:31.285Z</time></trkpt><trkpt lat="42.33603" lon="14.01258"><ele>197.33333333333331</ele><time>2026-05-02T07:19:32.285Z</time></trkpt><trkpt lat="42.3360383" lon="14.012805"><ele>199.0</ele><time>2026-05-02T07:19:33.285Z</time></trkpt><trkpt lat="42.336055" lon="14.0130667"><ele>200.33333333333331</ele><time>2026-05-02T07:19:34.286Z</time></trkpt><trkpt lat="42.33606" lon="14.0133433"><ele>201.66666666666669</ele><time>2026-05-02T07:19:35.285Z</time></trkpt><trkpt lat="42.33606" lon="14.0136167"><ele>203.0</ele><time>2026-05-02T07:19:36.285Z</time></trkpt><trkpt lat="42.336065" lon="14.0138733"><ele>203.0</ele><time>2026-05-02T07:19:37.285Z</time></trkpt><trkpt lat="42.3360667" lon="14.0140933"><ele>203.0</ele><time>2026-05-02T07:19:38.286Z</time></trkpt><trkpt lat="42.3360717" lon="14.0142917"><ele>203.0</ele><time>2026-05-02T07:19:39.286Z</time></trkpt><trkpt lat="42.33607" lon="14.01446"><ele>203.0</ele><time>2026-05-02T07:19:40.285Z</time></trkpt><trkpt lat="42.3360883" lon="14.0146167"><ele>203.2</ele><time>2026-05-02T07:19:41.285Z</time></trkpt><trkpt lat="42.336125" lon="14.01476"><ele>203.4</ele><time>2026-05-02T07:19:42.285Z</time></trkpt><trkpt lat="42.3361667" lon="14.0148733"><ele>203.6</ele><time>2026-05-02T07:19:43.285Z</time></trkpt><trkpt lat="42.336195" lon="14.0149667"><ele>203.79999999999998</ele><time>2026-05-02T07:19:44.285Z</time></trkpt><trkpt lat="42.33617" lon="14.0151183"><ele>204.0</ele><time>2026-05-02T07:19:46.285Z</time></trkpt><trkpt lat="42.3360567" lon="14.0151367"><ele>204.0</ele><time>2026-05-02T07:19:48.285Z</time></trkpt><trkpt lat="42.3359883" lon="14.01508"><ele>204.0</ele><time>2026-05-02T07:19:49.285Z</time></trkpt><trkpt lat="42.3359133" lon="14.0149983"><ele>204.0</ele><time>2026-05-02T07:19:50.285Z</time></trkpt><trkpt lat="42.3358483" lon="14.0149367"><ele>204.0</ele><time>2026-05-02T07:19:51.285Z</time></trkpt><trkpt lat="42.3357767" lon="14.0148717"><ele>204.0</ele><time>2026-05-02T07:19:53.285Z</time></trkpt><trkpt lat="42.3357283" lon="14.0147767"><ele>204.0</ele><time>2026-05-02T07:19:56.285Z</time></trkpt><trkpt lat="42.3356967" lon="14.0147"><ele>204.0</ele><time>2026-05-02T07:19:57.285Z</time></trkpt><trkpt lat="42.335645" lon="14.014625"><ele>204.0</ele><time>2026-05-02T07:19:58.285Z</time></trkpt><trkpt lat="42.335575" lon="14.0145683"><ele>204.0</ele><time>2026-05-02T07:19:59.285Z</time></trkpt><trkpt lat="42.3354833" lon="14.0145467"><ele>204.0</ele><time>2026-05-02T07:20:00.286Z</time></trkpt><trkpt lat="42.33538" lon="14.0145417"><ele>204.0</ele><time>2026-05-02T07:20:01.285Z</time></trkpt><trkpt lat="42.3352667" lon="14.0145417"><ele>204.75</ele><time>2026-05-02T07:20:02.286Z</time></trkpt><trkpt lat="42.3351517" lon="14.01453"><ele>205.5</ele><time>2026-05-02T07:20:03.285Z</time></trkpt><trkpt lat="42.33503" lon="14.014515"><ele>206.25</ele><time>2026-05-02T07:20:04.285Z</time></trkpt><trkpt lat="42.3348933" lon="14.0145"><ele>207.0</ele><time>2026-05-02T07:20:05.285Z</time></trkpt><trkpt lat="42.3347517" lon="14.0144833"><ele>205.25</ele><time>2026-05-02T07:20:06.285Z</time></trkpt><trkpt lat="42.3346083" lon="14.0144633"><ele>203.5</ele><time>2026-05-02T07:20:07.285Z</time></trkpt><trkpt lat="42.33447" lon="14.01444"><ele>201.75</ele><time>2026-05-02T07:20:08.285Z</time></trkpt><trkpt lat="42.3343383" lon="14.01443"><ele>200.0</ele><time>2026-05-02T07:20:09.286Z</time></trkpt><trkpt lat="42.33421" lon="14.0144133"><ele>200.0</ele><time>2026-05-02T07:20:10.285Z</time></trkpt><trkpt lat="42.33409" lon="14.0144"><ele>200.0</ele><time>2026-05-02T07:20:11.285Z</time></trkpt><trkpt lat="42.3339717" lon="14.0143867"><ele>200.0</ele><time>2026-05-02T07:20:12.285Z</time></trkpt><trkpt lat="42.3338583" lon="14.01437"><ele>200.0</ele><time>2026-05-02T07:20:13.285Z</time></trkpt><trkpt lat="42.3337517" lon="14.01436"><ele>199.2</ele><time>2026-05-02T07:20:14.286Z</time></trkpt><trkpt lat="42.3336483" lon="14.0143467"><ele>198.4</ele><time>2026-05-02T07:20:15.285Z</time></trkpt><trkpt lat="42.3335517" lon="14.0143333"><ele>197.60000000000002</ele><time>2026-05-02T07:20:16.286Z</time></trkpt><trkpt lat="42.3334583" lon="14.0143133"><ele>196.8</ele><time>2026-05-02T07:20:17.285Z</time></trkpt><trkpt lat="42.3333633" lon="14.0143"><ele>196.0</ele><time>2026-05-02T07:20:18.285Z</time></trkpt><trkpt lat="42.3332717" lon="14.0142917"><ele>195.99999999999997</ele><time>2026-05-02T07:20:19.285Z</time></trkpt><trkpt lat="42.3331767" lon="14.014285"><ele>196.0</ele><time>2026-05-02T07:20:20.285Z</time></trkpt><trkpt lat="42.3330867" lon="14.0142733"><ele>196.0</ele><time>2026-05-02T07:20:21.285Z</time></trkpt><trkpt lat="42.3329967" lon="14.0142583"><ele>196.0</ele><time>2026-05-02T07:20:22.285Z</time></trkpt><trkpt lat="42.3329133" lon="14.0142483"><ele>195.99999999999997</ele><time>2026-05-02T07:20:23.285Z</time></trkpt><trkpt lat="42.33283" lon="14.0142417"><ele>196.0</ele><time>2026-05-02T07:20:24.285Z</time></trkpt><trkpt lat="42.3327483" lon="14.01423"><ele>195.57142857142858</ele><time>2026-05-02T07:20:25.285Z</time></trkpt><trkpt lat="42.3326767" lon="14.0142067"><ele>195.14285714285714</ele><time>2026-05-02T07:20:26.285Z</time></trkpt><trkpt lat="42.3326" lon="14.01419"><ele>194.71428571428572</ele><time>2026-05-02T07:20:27.285Z</time></trkpt><trkpt lat="42.3325267" lon="14.0141833"><ele>194.28571428571428</ele><time>2026-05-02T07:20:28.285Z</time></trkpt><trkpt lat="42.3324567" lon="14.0141767"><ele>193.85714285714286</ele><time>2026-05-02T07:20:29.285Z</time></trkpt><trkpt lat="42.3323883" lon="14.0141717"><ele>193.42857142857144</ele><time>2026-05-02T07:20:30.285Z</time></trkpt><trkpt lat="42.33232" lon="14.0141717"><ele>193.0</ele><time>2026-05-02T07:20:31.285Z</time></trkpt><trkpt lat="42.3322517" lon="14.01417"><ele>191.49999999999997</ele><time>2026-05-02T07:20:32.285Z</time></trkpt><trkpt lat="42.33218" lon="14.0141767"><ele>190.0</ele><time>2026-05-02T07:20:33.285Z</time></trkpt><trkpt lat="42.332105" lon="14.014195"><ele>188.5</ele><time>2026-05-02T07:20:34.285Z</time></trkpt><trkpt lat="42.33202" lon="14.014215"><ele>187.0</ele><time>2026-05-02T07:20:35.285Z</time></trkpt><trkpt lat="42.3319283" lon="14.0142633"><ele>185.5</ele><time>2026-05-02T07:20:36.285Z</time></trkpt><trkpt lat="42.33183" lon="14.014345"><ele>184.0</ele><time>2026-05-02T07:20:37.285Z</time></trkpt><trkpt lat="42.331725" lon="14.0144467"><ele>184.0</ele><time>2026-05-02T07:20:38.285Z</time></trkpt><trkpt lat="42.3316033" lon="14.014545"><ele>184.0</ele><time>2026-05-02T07:20:39.286Z</time></trkpt><trkpt lat="42.3314817" lon="14.0146433"><ele>184.0</ele><time>2026-05-02T07:20:40.285Z</time></trkpt><trkpt lat="42.3313667" lon="14.0147233"><ele>184.0</ele><time>2026-05-02T07:20:41.285Z</time></trkpt><trkpt lat="42.3312533" lon="14.0147967"><ele>182.25</ele><time>2026-05-02T07:20:42.285Z</time></trkpt><trkpt lat="42.3311433" lon="14.014865"><ele>180.5</ele><time>2026-05-02T07:20:43.285Z</time></trkpt><trkpt lat="42.3310333" lon="14.0149267"><ele>178.75</ele><time>2026-05-02T07:20:44.285Z</time></trkpt><trkpt lat="42.33093" lon="14.0149717"><ele>177.0</ele><time>2026-05-02T07:20:45.285Z</time></trkpt><trkpt lat="42.330825" lon="14.015005"><ele>177.0</ele><time>2026-05-02T07:20:46.285Z</time></trkpt><trkpt lat="42.3307167" lon="14.0150133"><ele>177.0</ele><time>2026-05-02T07:20:47.285Z</time></trkpt><trkpt lat="42.330605" lon="14.014995"><ele>177.0</ele><time>2026-05-02T07:20:48.285Z</time></trkpt><trkpt lat="42.3304983" lon="14.01496"><ele>177.0</ele><time>2026-05-02T07:20:49.285Z</time></trkpt><trkpt lat="42.330395" lon="14.0149083"><ele>177.0</ele><time>2026-05-02T07:20:50.285Z</time></trkpt><trkpt lat="42.330295" lon="14.0148183"><ele>175.25</ele><time>2026-05-02T07:20:51.285Z</time></trkpt><trkpt lat="42.3301967" lon="14.0147083"><ele>173.5</ele><time>2026-05-02T07:20:52.285Z</time></trkpt><trkpt lat="42.3300983" lon="14.0145767"><ele>171.75</ele><time>2026-05-02T07:20:53.285Z</time></trkpt><trkpt lat="42.3299967" lon="14.0144333"><ele>170.0</ele><time>2026-05-02T07:20:54.285Z</time></trkpt><trkpt lat="42.3299033" lon="14.0143"><ele>170.0</ele><time>2026-05-02T07:20:55.285Z</time></trkpt><trkpt lat="42.3298067" lon="14.014155"><ele>170.0</ele><time>2026-05-02T07:20:56.285Z</time></trkpt><trkpt lat="42.329715" lon="14.014015"><ele>170.0</ele><time>2026-05-02T07:20:57.285Z</time></trkpt><trkpt lat="42.329625" lon="14.0138833"><ele>170.0</ele><time>2026-05-02T07:20:58.285Z</time></trkpt><trkpt lat="42.3295417" lon="14.0137483"><ele>168.25</ele><time>2026-05-02T07:20:59.285Z</time></trkpt><trkpt lat="42.329455" lon="14.0136167"><ele>166.5</ele><time>2026-05-02T07:21:00.285Z</time></trkpt><trkpt lat="42.32937" lon="14.0134833"><ele>164.75</ele><time>2026-05-02T07:21:01.285Z</time></trkpt><trkpt lat="42.329285" lon="14.013345"><ele>163.0</ele><time>2026-05-02T07:21:02.285Z</time></trkpt><trkpt lat="42.3292067" lon="14.0132"><ele>161.75</ele><time>2026-05-02T07:21:03.285Z</time></trkpt><trkpt lat="42.3291283" lon="14.013055"><ele>160.5</ele><time>2026-05-02T07:21:04.285Z</time></trkpt><trkpt lat="42.3290517" lon="14.0129167"><ele>159.25</ele><time>2026-05-02T07:21:05.285Z</time></trkpt><trkpt lat="42.328975" lon="14.0127817"><ele>158.0</ele><time>2026-05-02T07:21:06.285Z</time></trkpt><trkpt lat="42.32889" lon="14.0126467"><ele>158.0</ele><time>2026-05-02T07:21:07.285Z</time></trkpt><trkpt lat="42.32879" lon="14.0125283"><ele>158.0</ele><time>2026-05-02T07:21:08.285Z</time></trkpt><trkpt lat="42.328675" lon="14.0124217"><ele>158.0</ele><time>2026-05-02T07:21:09.285Z</time></trkpt><trkpt lat="42.3285483" lon="14.0123317"><ele>158.0</ele><time>2026-05-02T07:21:10.285Z</time></trkpt><trkpt lat="42.3284117" lon="14.012255"><ele>158.0</ele><time>2026-05-02T07:21:11.285Z</time></trkpt><trkpt lat="42.3282633" lon="14.01219"><ele>158.0</ele><time>2026-05-02T07:21:12.285Z</time></trkpt><trkpt lat="42.3281167" lon="14.01213"><ele>158.0</ele><time>2026-05-02T07:21:13.285Z</time></trkpt><trkpt lat="42.3279783" lon="14.0120683"><ele>157.0</ele><time>2026-05-02T07:21:14.286Z</time></trkpt><trkpt lat="42.3278433" lon="14.0120117"><ele>156.0</ele><time>2026-05-02T07:21:15.285Z</time></trkpt><trkpt lat="42.3277083" lon="14.011965"><ele>155.0</ele><time>2026-05-02T07:21:16.285Z</time></trkpt><trkpt lat="42.327575" lon="14.0119133"><ele>154.0</ele><time>2026-05-02T07:21:17.285Z</time></trkpt><trkpt lat="42.327445" lon="14.0118567"><ele>154.0</ele><time>2026-05-02T07:21:18.286Z</time></trkpt><trkpt lat="42.3273167" lon="14.0118117"><ele>154.0</ele><time>2026-05-02T07:21:19.285Z</time></trkpt><trkpt lat="42.32719" lon="14.011775"><ele>154.0</ele><time>2026-05-02T07:21:20.285Z</time></trkpt><trkpt lat="42.32708" lon="14.0117433"><ele>154.0</ele><time>2026-05-02T07:21:21.285Z</time></trkpt><trkpt lat="42.3269833" lon="14.0117017"><ele>153.2</ele><time>2026-05-02T07:21:22.285Z</time></trkpt><trkpt lat="42.3268883" lon="14.011655"><ele>152.4</ele><time>2026-05-02T07:21:23.285Z</time></trkpt><trkpt lat="42.326815" lon="14.0115817"><ele>151.6</ele><time>2026-05-02T07:21:24.285Z</time></trkpt><trkpt lat="42.3267517" lon="14.0114833"><ele>150.8</ele><time>2026-05-02T07:21:25.285Z</time></trkpt><trkpt lat="42.3266917" lon="14.0113567"><ele>150.0</ele><time>2026-05-02T07:21:26.285Z</time></trkpt><trkpt lat="42.3266367" lon="14.01121"><ele>150.0</ele><time>2026-05-02T07:21:27.285Z</time></trkpt><trkpt lat="42.3265817" lon="14.0110433"><ele>150.0</ele><time>2026-05-02T07:21:28.285Z</time></trkpt><trkpt lat="42.32652" lon="14.0108633"><ele>150.0</ele><time>2026-05-02T07:21:29.285Z</time></trkpt><trkpt lat="42.32645" lon="14.01067"><ele>150.0</ele><time>2026-05-02T07:21:30.285Z</time></trkpt><trkpt lat="42.3263833" lon="14.010475"><ele>148.33333333333334</ele><time>2026-05-02T07:21:31.285Z</time></trkpt><trkpt lat="42.3263217" lon="14.010265"><ele>146.66666666666669</ele><time>2026-05-02T07:21:32.285Z</time></trkpt><trkpt lat="42.326255" lon="14.0100567"><ele>145.0</ele><time>2026-05-02T07:21:33.285Z</time></trkpt><trkpt lat="42.3261917" lon="14.0098483"><ele>145.0</ele><time>2026-05-02T07:21:34.285Z</time></trkpt><trkpt lat="42.3261267" lon="14.00966"><ele>145.0</ele><time>2026-05-02T07:21:35.285Z</time></trkpt><trkpt lat="42.3260667" lon="14.0094783"><ele>145.0</ele><time>2026-05-02T07:21:36.285Z</time></trkpt><trkpt lat="42.3260083" lon="14.0092983"><ele>145.0</ele><time>2026-05-02T07:21:37.285Z</time></trkpt><trkpt lat="42.3259533" lon="14.0091167"><ele>144.5</ele><time>2026-05-02T07:21:38.285Z</time></trkpt><trkpt lat="42.3258967" lon="14.0089417"><ele>144.0</ele><time>2026-05-02T07:21:39.285Z</time></trkpt><trkpt lat="42.3258383" lon="14.008765"><ele>143.5</ele><time>2026-05-02T07:21:40.285Z</time></trkpt><trkpt lat="42.3257783" lon="14.00859"><ele>143.0</ele><time>2026-05-02T07:21:41.285Z</time></trkpt><trkpt lat="42.3257133" lon="14.00841"><ele>141.66666666666666</ele><time>2026-05-02T07:21:42.285Z</time></trkpt><trkpt lat="42.3256433" lon="14.0082267"><ele>140.33333333333334</ele><time>2026-05-02T07:21:43.285Z</time></trkpt><trkpt lat="42.325565" lon="14.008035"><ele>139.0</ele><time>2026-05-02T07:21:44.285Z</time></trkpt><trkpt lat="42.3254817" lon="14.0078467"><ele>139.0</ele><time>2026-05-02T07:21:45.285Z</time></trkpt><trkpt lat="42.3253933" lon="14.0076517"><ele>139.0</ele><time>2026-05-02T07:21:46.285Z</time></trkpt><trkpt lat="42.3253017" lon="14.0074567"><ele>139.0</ele><time>2026-05-02T07:21:47.285Z</time></trkpt><trkpt lat="42.325215" lon="14.00724"><ele>138.0</ele><time>2026-05-02T07:21:48.285Z</time></trkpt><trkpt lat="42.3251383" lon="14.0070133"><ele>137.0</ele><time>2026-05-02T07:21:49.286Z</time></trkpt><trkpt lat="42.32507" lon="14.0067717"><ele>136.0</ele><time>2026-05-02T07:21:50.285Z</time></trkpt><trkpt lat="42.325005" lon="14.0065167"><ele>135.66666666666669</ele><time>2026-05-02T07:21:51.285Z</time></trkpt><trkpt lat="42.3249383" lon="14.00626"><ele>135.33333333333334</ele><time>2026-05-02T07:21:52.285Z</time></trkpt><trkpt lat="42.3248783" lon="14.0059933"><ele>135.0</ele><time>2026-05-02T07:21:53.286Z</time></trkpt><trkpt lat="42.32482" lon="14.0057283"><ele>135.0</ele><time>2026-05-02T07:21:54.285Z</time></trkpt><trkpt lat="42.324755" lon="14.0054633"><ele>135.0</ele><time>2026-05-02T07:21:55.286Z</time></trkpt><trkpt lat="42.3246833" lon="14.0052067"><ele>135.0</ele><time>2026-05-02T07:21:56.286Z</time></trkpt><trkpt lat="42.324605" lon="14.0049567"><ele>135.0</ele><time>2026-05-02T07:21:57.285Z</time></trkpt><trkpt lat="42.3245233" lon="14.00471"><ele>135.0</ele><time>2026-05-02T07:21:58.285Z</time></trkpt><trkpt lat="42.3244333" lon="14.004455"><ele>135.0</ele><time>2026-05-02T07:21:59.285Z</time></trkpt><trkpt lat="42.324335" lon="14.0041933"><ele>136.33333333333334</ele><time>2026-05-02T07:22:00.285Z</time></trkpt><trkpt lat="42.324235" lon="14.0039217"><ele>137.66666666666669</ele><time>2026-05-02T07:22:01.285Z</time></trkpt><trkpt lat="42.324135" lon="14.00365"><ele>139.0</ele><time>2026-05-02T07:22:02.286Z</time></trkpt><trkpt lat="42.3240283" lon="14.0033767"><ele>138.0</ele><time>2026-05-02T07:22:03.285Z</time></trkpt><trkpt lat="42.3239267" lon="14.0031117"><ele>137.0</ele><time>2026-05-02T07:22:04.285Z</time></trkpt><trkpt lat="42.3238333" lon="14.00286"><ele>136.0</ele><time>2026-05-02T07:22:05.285Z</time></trkpt><trkpt lat="42.3237483" lon="14.00262"><ele>136.66666666666669</ele><time>2026-05-02T07:22:06.285Z</time></trkpt><trkpt lat="42.3236583" lon="14.00238"><ele>137.33333333333334</ele><time>2026-05-02T07:22:07.285Z</time></trkpt><trkpt lat="42.3235767" lon="14.0021417"><ele>138.0</ele><time>2026-05-02T07:22:08.285Z</time></trkpt><trkpt lat="42.3234967" lon="14.0018967"><ele>138.66666666666666</ele><time>2026-05-02T07:22:09.285Z</time></trkpt><trkpt lat="42.323415" lon="14.0016567"><ele>139.33333333333331</ele><time>2026-05-02T07:22:10.285Z</time></trkpt><trkpt lat="42.323335" lon="14.0014133"><ele>140.0</ele><time>2026-05-02T07:22:11.285Z</time></trkpt><trkpt lat="42.323255" lon="14.0011683"><ele>140.0</ele><time>2026-05-02T07:22:12.285Z</time></trkpt><trkpt lat="42.3231717" lon="14.00092"><ele>140.0</ele><time>2026-05-02T07:22:13.285Z</time></trkpt><trkpt lat="42.3230883" lon="14.0006717"><ele>140.0</ele><time>2026-05-02T07:22:14.285Z</time></trkpt><trkpt lat="42.3230033" lon="14.0004167"><ele>138.33333333333331</ele><time>2026-05-02T07:22:15.285Z</time></trkpt><trkpt lat="42.3229217" lon="14.00017"><ele>136.66666666666666</ele><time>2026-05-02T07:22:16.285Z</time></trkpt><trkpt lat="42.3228367" lon="13.9999167"><ele>135.0</ele><time>2026-05-02T07:22:17.285Z</time></trkpt><trkpt lat="42.322755" lon="13.9996617"><ele>135.0</ele><time>2026-05-02T07:22:18.285Z</time></trkpt><trkpt lat="42.322675" lon="13.9994083"><ele>135.0</ele><time>2026-05-02T07:22:19.285Z</time></trkpt><trkpt lat="42.3225933" lon="13.9991533"><ele>135.0</ele><time>2026-05-02T07:22:20.285Z</time></trkpt><trkpt lat="42.3225083" lon="13.9988933"><ele>136.33333333333334</ele><time>2026-05-02T07:22:21.285Z</time></trkpt><trkpt lat="42.3224283" lon="13.9986417"><ele>137.66666666666669</ele><time>2026-05-02T07:22:22.285Z</time></trkpt><trkpt lat="42.3223467" lon="13.998385"><ele>139.0</ele><time>2026-05-02T07:22:23.285Z</time></trkpt><trkpt lat="42.322265" lon="13.9981267"><ele>137.33333333333334</ele><time>2026-05-02T07:22:24.285Z</time></trkpt><trkpt lat="42.322185" lon="13.997865"><ele>135.66666666666666</ele><time>2026-05-02T07:22:25.285Z</time></trkpt><trkpt lat="42.32211" lon="13.9976017"><ele>134.0</ele><time>2026-05-02T07:22:26.286Z</time></trkpt><trkpt lat="42.3220217" lon="13.9973317"><ele>134.0</ele><time>2026-05-02T07:22:27.285Z</time></trkpt><trkpt lat="42.3219383" lon="13.9970667"><ele>134.0</ele><time>2026-05-02T07:22:28.285Z</time></trkpt><trkpt lat="42.3218533" lon="13.9967917"><ele>134.0</ele><time>2026-05-02T07:22:29.285Z</time></trkpt><trkpt lat="42.3217667" lon="13.996515"><ele>134.0</ele><time>2026-05-02T07:22:30.285Z</time></trkpt><trkpt lat="42.32168" lon="13.99624"><ele>134.0</ele><time>2026-05-02T07:22:31.285Z</time></trkpt><trkpt lat="42.3215933" lon="13.9959667"><ele>134.0</ele><time>2026-05-02T07:22:32.285Z</time></trkpt><trkpt lat="42.3215033" lon="13.995695"><ele>134.0</ele><time>2026-05-02T07:22:33.285Z</time></trkpt><trkpt lat="42.3214033" lon="13.9954267"><ele>134.0</ele><time>2026-05-02T07:22:34.285Z</time></trkpt><trkpt lat="42.3213083" lon="13.9951717"><ele>134.0</ele><time>2026-05-02T07:22:35.285Z</time></trkpt><trkpt lat="42.3212167" lon="13.9949183"><ele>133.66666666666666</ele><time>2026-05-02T07:22:36.285Z</time></trkpt><trkpt lat="42.3211267" lon="13.9946717"><ele>133.33333333333334</ele><time>2026-05-02T07:22:37.285Z</time></trkpt><trkpt lat="42.3210417" lon="13.9944483"><ele>133.0</ele><time>2026-05-02T07:22:38.285Z</time></trkpt><trkpt lat="42.3209633" lon="13.9942483"><ele>133.25</ele><time>2026-05-02T07:22:39.285Z</time></trkpt><trkpt lat="42.32089" lon="13.994075"><ele>133.5</ele><time>2026-05-02T07:22:40.285Z</time></trkpt><trkpt lat="42.32082" lon="13.9939217"><ele>133.75</ele><time>2026-05-02T07:22:41.285Z</time></trkpt><trkpt lat="42.3207567" lon="13.9937983"><ele>134.0</ele><time>2026-05-02T07:22:42.285Z</time></trkpt><trkpt lat="42.3207033" lon="13.9936983"><ele>134.0</ele><time>2026-05-02T07:22:43.285Z</time></trkpt><trkpt lat="42.3206533" lon="13.99363"><ele>134.0</ele><time>2026-05-02T07:22:44.285Z</time></trkpt><trkpt lat="42.3205583" lon="13.9935933"><ele>134.0</ele><time>2026-05-02T07:22:46.285Z</time></trkpt><trkpt lat="42.3204417" lon="13.9937"><ele>134.0</ele><time>2026-05-02T07:22:48.285Z</time></trkpt><trkpt lat="42.3203617" lon="13.9937683"><ele>134.0</ele><time>2026-05-02T07:22:49.286Z</time></trkpt><trkpt lat="42.32027" lon="13.9938467"><ele>134.8</ele><time>2026-05-02T07:22:50.285Z</time></trkpt><trkpt lat="42.3201883" lon="13.993935"><ele>135.60000000000002</ele><time>2026-05-02T07:22:51.285Z</time></trkpt><trkpt lat="42.3201133" lon="13.9940317"><ele>136.4</ele><time>2026-05-02T07:22:52.285Z</time></trkpt><trkpt lat="42.3200483" lon="13.9941517"><ele>137.20000000000002</ele><time>2026-05-02T07:22:53.285Z</time></trkpt><trkpt lat="42.3199783" lon="13.99428"><ele>138.0</ele><time>2026-05-02T07:22:54.285Z</time></trkpt><trkpt lat="42.3199" lon="13.9944117"><ele>138.0</ele><time>2026-05-02T07:22:55.285Z</time></trkpt><trkpt lat="42.3198117" lon="13.99455"><ele>138.0</ele><time>2026-05-02T07:22:56.285Z</time></trkpt><trkpt lat="42.3197183" lon="13.9946933"><ele>138.0</ele><time>2026-05-02T07:22:57.285Z</time></trkpt><trkpt lat="42.3196283" lon="13.9948467"><ele>138.0</ele><time>2026-05-02T07:22:58.285Z</time></trkpt><trkpt lat="42.3195467" lon="13.995"><ele>138.75</ele><time>2026-05-02T07:22:59.285Z</time></trkpt><trkpt lat="42.3194767" lon="13.9951483"><ele>139.5</ele><time>2026-05-02T07:23:00.285Z</time></trkpt><trkpt lat="42.3194083" lon="13.9952917"><ele>140.25</ele><time>2026-05-02T07:23:01.285Z</time></trkpt><trkpt lat="42.3193383" lon="13.9954333"><ele>141.0</ele><time>2026-05-02T07:23:02.285Z</time></trkpt><trkpt lat="42.3192683" lon="13.9955733"><ele>141.0</ele><time>2026-05-02T07:23:03.285Z</time></trkpt><trkpt lat="42.3192033" lon="13.9957233"><ele>141.0</ele><time>2026-05-02T07:23:04.285Z</time></trkpt><trkpt lat="42.3191383" lon="13.9958717"><ele>141.0</ele><time>2026-05-02T07:23:05.285Z</time></trkpt><trkpt lat="42.3190733" lon="13.9960267"><ele>141.0</ele><time>2026-05-02T07:23:06.285Z</time></trkpt><trkpt lat="42.319005" lon="13.9961867"><ele>140.8</ele><time>2026-05-02T07:23:07.285Z</time></trkpt><trkpt lat="42.318945" lon="13.9963233"><ele>140.6</ele><time>2026-05-02T07:23:08.285Z</time></trkpt><trkpt lat="42.3188883" lon="13.9964483"><ele>140.4</ele><time>2026-05-02T07:23:09.285Z</time></trkpt><trkpt lat="42.3188333" lon="13.9965733"><ele>140.2</ele><time>2026-05-02T07:23:10.285Z</time></trkpt><trkpt lat="42.3187767" lon="13.9966933"><ele>140.0</ele><time>2026-05-02T07:23:11.285Z</time></trkpt><trkpt lat="42.318725" lon="13.9968117"><ele>142.0</ele><time>2026-05-02T07:23:12.285Z</time></trkpt><trkpt lat="42.3186817" lon="13.9969383"><ele>144.0</ele><time>2026-05-02T07:23:13.285Z</time></trkpt><trkpt lat="42.3186517" lon="13.9970917"><ele>146.0</ele><time>2026-05-02T07:23:14.285Z</time></trkpt><trkpt lat="42.3186233" lon="13.997255"><ele>148.0</ele><time>2026-05-02T07:23:15.285Z</time></trkpt><trkpt lat="42.318605" lon="13.9974283"><ele>147.75</ele><time>2026-05-02T07:23:16.285Z</time></trkpt><trkpt lat="42.3185783" lon="13.9976083"><ele>147.5</ele><time>2026-05-02T07:23:17.285Z</time></trkpt><trkpt lat="42.3185567" lon="13.9977783"><ele>147.25</ele><time>2026-05-02T07:23:18.285Z</time></trkpt><trkpt lat="42.318535" lon="13.9979283"><ele>147.0</ele><time>2026-05-02T07:23:19.285Z</time></trkpt><trkpt lat="42.3185183" lon="13.9980783"><ele>147.0</ele><time>2026-05-02T07:23:20.285Z</time></trkpt><trkpt lat="42.3185033" lon="13.9982383"><ele>147.0</ele><time>2026-05-02T07:23:21.286Z</time></trkpt><trkpt lat="42.3184833" lon="13.9983917"><ele>147.0</ele><time>2026-05-02T07:23:22.285Z</time></trkpt><trkpt lat="42.31847" lon="13.9985517"><ele>147.0</ele><time>2026-05-02T07:23:23.285Z</time></trkpt><trkpt lat="42.31845" lon="13.99871"><ele>146.5</ele><time>2026-05-02T07:23:24.285Z</time></trkpt><trkpt lat="42.3184383" lon="13.9988833"><ele>146.0</ele><time>2026-05-02T07:23:25.285Z</time></trkpt><trkpt lat="42.31843" lon="13.9990433"><ele>145.5</ele><time>2026-05-02T07:23:26.285Z</time></trkpt><trkpt lat="42.31842" lon="13.9992033"><ele>145.0</ele><time>2026-05-02T07:23:27.285Z</time></trkpt><trkpt lat="42.318405" lon="13.99937"><ele>143.5</ele><time>2026-05-02T07:23:28.285Z</time></trkpt><trkpt lat="42.3184" lon="13.9995283"><ele>142.0</ele><time>2026-05-02T07:23:29.285Z</time></trkpt><trkpt lat="42.3183917" lon="13.9996833"><ele>140.5</ele><time>2026-05-02T07:23:30.285Z</time></trkpt><trkpt lat="42.3183833" lon="13.9998367"><ele>139.0</ele><time>2026-05-02T07:23:31.285Z</time></trkpt><trkpt lat="42.3183783" lon="13.9999967"><ele>139.0</ele><time>2026-05-02T07:23:32.285Z</time></trkpt><trkpt lat="42.3183717" lon="14.00015"><ele>139.0</ele><time>2026-05-02T07:23:33.285Z</time></trkpt><trkpt lat="42.318365" lon="14.0003033"><ele>139.0</ele><time>2026-05-02T07:23:34.285Z</time></trkpt><trkpt lat="42.318355" lon="14.0004533"><ele>139.0</ele><time>2026-05-02T07:23:35.285Z</time></trkpt><trkpt lat="42.3183467" lon="14.0006017"><ele>139.0</ele><time>2026-05-02T07:23:36.285Z</time></trkpt><trkpt lat="42.3183417" lon="14.0007533"><ele>138.2</ele><time>2026-05-02T07:23:37.285Z</time></trkpt><trkpt lat="42.318335" lon="14.0008967"><ele>137.4</ele><time>2026-05-02T07:23:38.285Z</time></trkpt><trkpt lat="42.318325" lon="14.0010233"><ele>136.6</ele><time>2026-05-02T07:23:39.285Z</time></trkpt><trkpt lat="42.3183133" lon="14.001145"><ele>135.8</ele><time>2026-05-02T07:23:40.285Z</time></trkpt><trkpt lat="42.3182967" lon="14.0012617"><ele>135.0</ele><time>2026-05-02T07:23:41.285Z</time></trkpt><trkpt lat="42.31827" lon="14.0013767"><ele>135.0</ele><time>2026-05-02T07:23:42.285Z</time></trkpt><trkpt lat="42.3182417" lon="14.001475"><ele>135.0</ele><time>2026-05-02T07:23:43.285Z</time></trkpt><trkpt lat="42.318215" lon="14.0015767"><ele>135.0</ele><time>2026-05-02T07:23:44.285Z</time></trkpt><trkpt lat="42.318205" lon="14.0016667"><ele>135.0</ele><time>2026-05-02T07:23:45.285Z</time></trkpt><trkpt lat="42.3182083" lon="14.0017783"><ele>135.0</ele><time>2026-05-02T07:23:46.285Z</time></trkpt><trkpt lat="42.3182283" lon="14.0018933"><ele>135.0</ele><time>2026-05-02T07:23:47.285Z</time></trkpt><trkpt lat="42.3182633" lon="14.0020183"><ele>134.2</ele><time>2026-05-02T07:23:48.285Z</time></trkpt><trkpt lat="42.3182983" lon="14.0021417"><ele>133.4</ele><time>2026-05-02T07:23:49.285Z</time></trkpt><trkpt lat="42.3183283" lon="14.00227"><ele>132.6</ele><time>2026-05-02T07:23:50.285Z</time></trkpt><trkpt lat="42.318355" lon="14.0024017"><ele>131.8</ele><time>2026-05-02T07:23:51.285Z</time></trkpt><trkpt lat="42.3183733" lon="14.0025383"><ele>131.0</ele><time>2026-05-02T07:23:52.285Z</time></trkpt><trkpt lat="42.3183933" lon="14.0026833"><ele>129.6</ele><time>2026-05-02T07:23:53.285Z</time></trkpt><trkpt lat="42.3184117" lon="14.0028267"><ele>128.2</ele><time>2026-05-02T07:23:54.285Z</time></trkpt><trkpt lat="42.31842" lon="14.0029617"><ele>126.80000000000001</ele><time>2026-05-02T07:23:55.286Z</time></trkpt><trkpt lat="42.31843" lon="14.0030967"><ele>125.4</ele><time>2026-05-02T07:23:56.285Z</time></trkpt><trkpt lat="42.3184383" lon="14.00323"><ele>124.0</ele><time>2026-05-02T07:23:57.285Z</time></trkpt><trkpt lat="42.31844" lon="14.0033717"><ele>123.2</ele><time>2026-05-02T07:23:58.285Z</time></trkpt><trkpt lat="42.3184433" lon="14.0035117"><ele>122.4</ele><time>2026-05-02T07:23:59.285Z</time></trkpt><trkpt lat="42.3184267" lon="14.0036467"><ele>121.6</ele><time>2026-05-02T07:24:00.285Z</time></trkpt><trkpt lat="42.318395" lon="14.0037783"><ele>120.8</ele><time>2026-05-02T07:24:01.285Z</time></trkpt><trkpt lat="42.3183533" lon="14.003905"><ele>120.0</ele><time>2026-05-02T07:24:02.285Z</time></trkpt><trkpt lat="42.3183117" lon="14.0040217"><ele>120.0</ele><time>2026-05-02T07:24:03.285Z</time></trkpt><trkpt lat="42.31827" lon="14.0041317"><ele>120.0</ele><time>2026-05-02T07:24:04.285Z</time></trkpt><trkpt lat="42.31823" lon="14.0042433"><ele>120.0</ele><time>2026-05-02T07:24:05.285Z</time></trkpt><trkpt lat="42.318195" lon="14.004355"><ele>120.0</ele><time>2026-05-02T07:24:06.285Z</time></trkpt><trkpt lat="42.3181567" lon="14.0044683"><ele>120.0</ele><time>2026-05-02T07:24:07.285Z</time></trkpt><trkpt lat="42.318115" lon="14.0045917"><ele>119.4</ele><time>2026-05-02T07:24:08.285Z</time></trkpt><trkpt lat="42.3180683" lon="14.0047217"><ele>118.8</ele><time>2026-05-02T07:24:09.286Z</time></trkpt><trkpt lat="42.31802" lon="14.0048517"><ele>118.19999999999999</ele><time>2026-05-02T07:24:10.285Z</time></trkpt><trkpt lat="42.317975" lon="14.00499"><ele>117.6</ele><time>2026-05-02T07:24:11.285Z</time></trkpt><trkpt lat="42.3179317" lon="14.005135"><ele>117.0</ele><time>2026-05-02T07:24:12.286Z</time></trkpt><trkpt lat="42.317885" lon="14.005275"><ele>117.0</ele><time>2026-05-02T07:24:13.285Z</time></trkpt><trkpt lat="42.3178283" lon="14.0054167"><ele>116.99999999999999</ele><time>2026-05-02T07:24:14.286Z</time></trkpt><trkpt lat="42.3177733" lon="14.0055533"><ele>116.99999999999999</ele><time>2026-05-02T07:24:15.285Z</time></trkpt><trkpt lat="42.3177333" lon="14.0056833"><ele>117.0</ele><time>2026-05-02T07:24:16.285Z</time></trkpt><trkpt lat="42.3176883" lon="14.00581"><ele>117.0</ele><time>2026-05-02T07:24:17.286Z</time></trkpt><trkpt lat="42.3176383" lon="14.0059467"><ele>117.6</ele><time>2026-05-02T07:24:18.285Z</time></trkpt><trkpt lat="42.3175883" lon="14.0060783"><ele>118.19999999999999</ele><time>2026-05-02T07:24:19.285Z</time></trkpt><trkpt lat="42.31755" lon="14.00621"><ele>118.8</ele><time>2026-05-02T07:24:20.285Z</time></trkpt><trkpt lat="42.3175133" lon="14.00635"><ele>119.4</ele><time>2026-05-02T07:24:21.285Z</time></trkpt><trkpt lat="42.3174717" lon="14.0064983"><ele>120.0</ele><time>2026-05-02T07:24:22.285Z</time></trkpt><trkpt lat="42.317425" lon="14.0066617"><ele>120.0</ele><time>2026-05-02T07:24:23.285Z</time></trkpt><trkpt lat="42.3173767" lon="14.0068167"><ele>120.0</ele><time>2026-05-02T07:24:24.285Z</time></trkpt><trkpt lat="42.3173283" lon="14.0069567"><ele>120.0</ele><time>2026-05-02T07:24:25.285Z</time></trkpt><trkpt lat="42.3172783" lon="14.0070833"><ele>120.0</ele><time>2026-05-02T07:24:26.285Z</time></trkpt><trkpt lat="42.3172367" lon="14.0072017"><ele>120.0</ele><time>2026-05-02T07:24:27.285Z</time></trkpt><trkpt lat="42.3171967" lon="14.0073017"><ele>120.0</ele><time>2026-05-02T07:24:28.285Z</time></trkpt><trkpt lat="42.317165" lon="14.0074133"><ele>120.0</ele><time>2026-05-02T07:24:29.285Z</time></trkpt><trkpt lat="42.3171383" lon="14.007525"><ele>120.0</ele><time>2026-05-02T07:24:30.286Z</time></trkpt><trkpt lat="42.31711" lon="14.0076383"><ele>120.0</ele><time>2026-05-02T07:24:31.285Z</time></trkpt><trkpt lat="42.31707" lon="14.00774"><ele>120.0</ele><time>2026-05-02T07:24:32.285Z</time></trkpt><trkpt lat="42.3170133" lon="14.00784"><ele>120.0</ele><time>2026-05-02T07:24:33.285Z</time></trkpt><trkpt lat="42.316935" lon="14.0079433"><ele>120.0</ele><time>2026-05-02T07:24:34.285Z</time></trkpt><trkpt lat="42.3168333" lon="14.0080533"><ele>120.0</ele><time>2026-05-02T07:24:35.285Z</time></trkpt><trkpt lat="42.3167333" lon="14.0081617"><ele>120.0</ele><time>2026-05-02T07:24:36.285Z</time></trkpt><trkpt lat="42.31663" lon="14.0082667"><ele>120.0</ele><time>2026-05-02T07:24:37.285Z</time></trkpt><trkpt lat="42.3165333" lon="14.0083667"><ele>118.83333333333333</ele><time>2026-05-02T07:24:38.285Z</time></trkpt><trkpt lat="42.3164483" lon="14.0084533"><ele>117.66666666666666</ele><time>2026-05-02T07:24:39.285Z</time></trkpt><trkpt lat="42.3163717" lon="14.00853"><ele>116.5</ele><time>2026-05-02T07:24:40.285Z</time></trkpt><trkpt lat="42.3163117" lon="14.0085983"><ele>115.33333333333333</ele><time>2026-05-02T07:24:41.285Z</time></trkpt><trkpt lat="42.31627" lon="14.008665"><ele>114.16666666666666</ele><time>2026-05-02T07:24:42.285Z</time></trkpt><trkpt lat="42.3162267" lon="14.00873"><ele>113.0</ele><time>2026-05-02T07:24:43.285Z</time></trkpt><trkpt lat="42.3161667" lon="14.0087883"><ele>112.5</ele><time>2026-05-02T07:24:44.285Z</time></trkpt><trkpt lat="42.3160883" lon="14.008845"><ele>112.0</ele><time>2026-05-02T07:24:45.285Z</time></trkpt><trkpt lat="42.31599" lon="14.00891"><ele>111.5</ele><time>2026-05-02T07:24:46.285Z</time></trkpt><trkpt lat="42.31588" lon="14.0089833"><ele>111.0</ele><time>2026-05-02T07:24:47.285Z</time></trkpt><trkpt lat="42.315765" lon="14.00907"><ele>109.66666666666666</ele><time>2026-05-02T07:24:48.285Z</time></trkpt><trkpt lat="42.31564" lon="14.0091717"><ele>108.33333333333333</ele><time>2026-05-02T07:24:49.285Z</time></trkpt><trkpt lat="42.3154967" lon="14.0092767"><ele>107.0</ele><time>2026-05-02T07:24:50.285Z</time></trkpt><trkpt lat="42.3153533" lon="14.0093867"><ele>107.0</ele><time>2026-05-02T07:24:51.285Z</time></trkpt><trkpt lat="42.3152167" lon="14.009505"><ele>107.0</ele><time>2026-05-02T07:24:52.285Z</time></trkpt><trkpt lat="42.315075" lon="14.0096283"><ele>107.0</ele><time>2026-05-02T07:24:53.285Z</time></trkpt><trkpt lat="42.3149267" lon="14.0097533"><ele>107.0</ele><time>2026-05-02T07:24:54.285Z</time></trkpt><trkpt lat="42.3147817" lon="14.009875"><ele>107.0</ele><time>2026-05-02T07:24:55.285Z</time></trkpt><trkpt lat="42.314635" lon="14.009995"><ele>107.0</ele><time>2026-05-02T07:24:56.285Z</time></trkpt><trkpt lat="42.3144867" lon="14.0101167"><ele>106.0</ele><time>2026-05-02T07:24:57.285Z</time></trkpt><trkpt lat="42.3143417" lon="14.0102367"><ele>105.0</ele><time>2026-05-02T07:24:58.285Z</time></trkpt><trkpt lat="42.3142067" lon="14.0103567"><ele>104.0</ele><time>2026-05-02T07:24:59.285Z</time></trkpt><trkpt lat="42.3140683" lon="14.0104617"><ele>104.0</ele><time>2026-05-02T07:25:00.285Z</time></trkpt><trkpt lat="42.3139383" lon="14.01056"><ele>104.0</ele><time>2026-05-02T07:25:01.285Z</time></trkpt><trkpt lat="42.3138083" lon="14.0106667"><ele>104.0</ele><time>2026-05-02T07:25:02.285Z</time></trkpt><trkpt lat="42.3136767" lon="14.0107667"><ele>103.33333333333333</ele><time>2026-05-02T07:25:03.285Z</time></trkpt><trkpt lat="42.31353" lon="14.0108633"><ele>102.66666666666666</ele><time>2026-05-02T07:25:04.285Z</time></trkpt><trkpt lat="42.3133783" lon="14.0109367"><ele>102.0</ele><time>2026-05-02T07:25:05.285Z</time></trkpt><trkpt lat="42.31323" lon="14.0109933"><ele>102.0</ele><time>2026-05-02T07:25:06.285Z</time></trkpt><trkpt lat="42.313075" lon="14.0110367"><ele>102.0</ele><time>2026-05-02T07:25:07.285Z</time></trkpt><trkpt lat="42.312915" lon="14.0110667"><ele>102.0</ele><time>2026-05-02T07:25:08.285Z</time></trkpt><trkpt lat="42.312755" lon="14.01109"><ele>102.0</ele><time>2026-05-02T07:25:09.285Z</time></trkpt><trkpt lat="42.3125967" lon="14.01111"><ele>102.0</ele><time>2026-05-02T07:25:10.285Z</time></trkpt><trkpt lat="42.312435" lon="14.0111267"><ele>102.0</ele><time>2026-05-02T07:25:11.285Z</time></trkpt><trkpt lat="42.31227" lon="14.011135"><ele>102.33333333333334</ele><time>2026-05-02T07:25:12.285Z</time></trkpt><trkpt lat="42.3121017" lon="14.0111233"><ele>102.66666666666667</ele><time>2026-05-02T07:25:13.285Z</time></trkpt><trkpt lat="42.311915" lon="14.011105"><ele>103.0</ele><time>2026-05-02T07:25:14.285Z</time></trkpt><trkpt lat="42.3117217" lon="14.0110667"><ele>103.0</ele><time>2026-05-02T07:25:15.285Z</time></trkpt><trkpt lat="42.3115233" lon="14.0110267"><ele>103.0</ele><time>2026-05-02T07:25:16.285Z</time></trkpt><trkpt lat="42.3113217" lon="14.0109883"><ele>103.0</ele><time>2026-05-02T07:25:17.285Z</time></trkpt><trkpt lat="42.31112" lon="14.010955"><ele>102.33333333333334</ele><time>2026-05-02T07:25:18.285Z</time></trkpt><trkpt lat="42.310915" lon="14.010915"><ele>101.66666666666666</ele><time>2026-05-02T07:25:19.285Z</time></trkpt><trkpt lat="42.3107167" lon="14.0108817"><ele>101.0</ele><time>2026-05-02T07:25:20.285Z</time></trkpt><trkpt lat="42.3105217" lon="14.01084"><ele>101.33333333333333</ele><time>2026-05-02T07:25:21.285Z</time></trkpt><trkpt lat="42.3103283" lon="14.0108067"><ele>101.66666666666666</ele><time>2026-05-02T07:25:22.285Z</time></trkpt><trkpt lat="42.3101367" lon="14.0107667"><ele>102.0</ele><time>2026-05-02T07:25:23.285Z</time></trkpt><trkpt lat="42.309945" lon="14.010725"><ele>102.0</ele><time>2026-05-02T07:25:24.285Z</time></trkpt><trkpt lat="42.3097483" lon="14.010695"><ele>102.0</ele><time>2026-05-02T07:25:25.285Z</time></trkpt><trkpt lat="42.3095633" lon="14.01066"><ele>102.0</ele><time>2026-05-02T07:25:26.285Z</time></trkpt><trkpt lat="42.3093817" lon="14.0106233"><ele>102.33333333333334</ele><time>2026-05-02T07:25:27.285Z</time></trkpt><trkpt lat="42.3092033" lon="14.0105883"><ele>102.66666666666667</ele><time>2026-05-02T07:25:28.285Z</time></trkpt><trkpt lat="42.309025" lon="14.01055"><ele>103.0</ele><time>2026-05-02T07:25:29.285Z</time></trkpt><trkpt lat="42.308855" lon="14.0105183"><ele>104.75</ele><time>2026-05-02T07:25:30.286Z</time></trkpt><trkpt lat="42.3086983" lon="14.0104883"><ele>106.5</ele><time>2026-05-02T07:25:31.285Z</time></trkpt><trkpt lat="42.3085583" lon="14.0104717"><ele>108.25</ele><time>2026-05-02T07:25:32.285Z</time></trkpt><trkpt lat="42.30844" lon="14.0104767"><ele>110.0</ele><time>2026-05-02T07:25:33.285Z</time></trkpt><trkpt lat="42.308335" lon="14.010505"><ele>110.0</ele><time>2026-05-02T07:25:34.285Z</time></trkpt><trkpt lat="42.3082433" lon="14.0105617"><ele>110.0</ele><time>2026-05-02T07:25:35.285Z</time></trkpt><trkpt lat="42.3081633" lon="14.010625"><ele>110.0</ele><time>2026-05-02T07:25:36.285Z</time></trkpt><trkpt lat="42.3081017" lon="14.0106867"><ele>110.0</ele><time>2026-05-02T07:25:37.285Z</time></trkpt><trkpt lat="42.30802" lon="14.0107667"><ele>110.0</ele><time>2026-05-02T07:25:39.285Z</time></trkpt><trkpt lat="42.3079533" lon="14.010825"><ele>110.66666666666666</ele><time>2026-05-02T07:25:41.285Z</time></trkpt><trkpt lat="42.3078817" lon="14.01088"><ele>111.33333333333333</ele><time>2026-05-02T07:25:43.285Z</time></trkpt><trkpt lat="42.3078083" lon="14.0109167"><ele>112.0</ele><time>2026-05-02T07:25:45.285Z</time></trkpt><trkpt lat="42.3077117" lon="14.0109317"><ele>112.66666666666666</ele><time>2026-05-02T07:25:47.285Z</time></trkpt><trkpt lat="42.3076367" lon="14.0109183"><ele>113.33333333333333</ele><time>2026-05-02T07:25:48.285Z</time></trkpt><trkpt lat="42.30755" lon="14.0108983"><ele>114.0</ele><time>2026-05-02T07:25:49.285Z</time></trkpt><trkpt lat="42.3074517" lon="14.0108633"><ele>115.25</ele><time>2026-05-02T07:25:50.285Z</time></trkpt><trkpt lat="42.30735" lon="14.010795"><ele>116.5</ele><time>2026-05-02T07:25:51.286Z</time></trkpt><trkpt lat="42.307245" lon="14.010735"><ele>117.75</ele><time>2026-05-02T07:25:52.285Z</time></trkpt><trkpt lat="42.3071367" lon="14.0106667"><ele>119.0</ele><time>2026-05-02T07:25:53.286Z</time></trkpt><trkpt lat="42.3070367" lon="14.0105833"><ele>120.5</ele><time>2026-05-02T07:25:54.286Z</time></trkpt><trkpt lat="42.3069583" lon="14.0104817"><ele>122.0</ele><time>2026-05-02T07:25:55.285Z</time></trkpt><trkpt lat="42.3069033" lon="14.0103533"><ele>123.5</ele><time>2026-05-02T07:25:56.285Z</time></trkpt><trkpt lat="42.3068533" lon="14.010205"><ele>125.0</ele><time>2026-05-02T07:25:57.285Z</time></trkpt><trkpt lat="42.306805" lon="14.01004"><ele>126.0</ele><time>2026-05-02T07:25:58.286Z</time></trkpt><trkpt lat="42.3067533" lon="14.009855"><ele>127.0</ele><time>2026-05-02T07:25:59.285Z</time></trkpt><trkpt lat="42.3067017" lon="14.0096433"><ele>128.0</ele><time>2026-05-02T07:26:00.285Z</time></trkpt><trkpt lat="42.3066467" lon="14.00943"><ele>128.0</ele><time>2026-05-02T07:26:01.285Z</time></trkpt><trkpt lat="42.3065883" lon="14.0092183"><ele>128.0</ele><time>2026-05-02T07:26:02.285Z</time></trkpt><trkpt lat="42.30653" lon="14.0090033"><ele>128.0</ele><time>2026-05-02T07:26:03.285Z</time></trkpt><trkpt lat="42.3064733" lon="14.008785"><ele>129.66666666666666</ele><time>2026-05-02T07:26:04.285Z</time></trkpt><trkpt lat="42.3064167" lon="14.0085717"><ele>131.33333333333334</ele><time>2026-05-02T07:26:05.285Z</time></trkpt><trkpt lat="42.30636" lon="14.0083567"><ele>133.0</ele><time>2026-05-02T07:26:06.285Z</time></trkpt><trkpt lat="42.3063017" lon="14.008145"><ele>137.33333333333334</ele><time>2026-05-02T07:26:07.285Z</time></trkpt><trkpt lat="42.3062517" lon="14.007935"><ele>141.66666666666666</ele><time>2026-05-02T07:26:08.285Z</time></trkpt><trkpt lat="42.3061967" lon="14.00773"><ele>146.0</ele><time>2026-05-02T07:26:09.285Z</time></trkpt><trkpt lat="42.306135" lon="14.0075167"><ele>147.0</ele><time>2026-05-02T07:26:10.285Z</time></trkpt><trkpt lat="42.3060767" lon="14.0073117"><ele>148.0</ele><time>2026-05-02T07:26:11.285Z</time></trkpt><trkpt lat="42.3060133" lon="14.0071183"><ele>149.0</ele><time>2026-05-02T07:26:12.286Z</time></trkpt><trkpt lat="42.3059467" lon="14.0069417"><ele>149.0</ele><time>2026-05-02T07:26:13.285Z</time></trkpt><trkpt lat="42.305875" lon="14.0067733"><ele>149.0</ele><time>2026-05-02T07:26:14.286Z</time></trkpt><trkpt lat="42.3058" lon="14.0066233"><ele>149.0</ele><time>2026-05-02T07:26:15.285Z</time></trkpt><trkpt lat="42.3057267" lon="14.0064667"><ele>149.0</ele><time>2026-05-02T07:26:16.285Z</time></trkpt><trkpt lat="42.30565" lon="14.00631"><ele>153.66666666666666</ele><time>2026-05-02T07:26:17.286Z</time></trkpt><trkpt lat="42.305565" lon="14.006155"><ele>158.33333333333334</ele><time>2026-05-02T07:26:18.285Z</time></trkpt><trkpt lat="42.3054683" lon="14.0059867"><ele>163.0</ele><time>2026-05-02T07:26:19.285Z</time></trkpt><trkpt lat="42.3053633" lon="14.0058117"><ele>163.0</ele><time>2026-05-02T07:26:20.286Z</time></trkpt><trkpt lat="42.305255" lon="14.0056233"><ele>163.0</ele><time>2026-05-02T07:26:21.285Z</time></trkpt><trkpt lat="42.3051517" lon="14.005425"><ele>163.0</ele><time>2026-05-02T07:26:22.286Z</time></trkpt><trkpt lat="42.3050633" lon="14.0052283"><ele>163.0</ele><time>2026-05-02T07:26:23.285Z</time></trkpt><trkpt lat="42.3049783" lon="14.0050283"><ele>163.0</ele><time>2026-05-02T07:26:24.286Z</time></trkpt><trkpt lat="42.3048967" lon="14.0048333"><ele>163.0</ele><time>2026-05-02T07:26:25.285Z</time></trkpt><trkpt lat="42.3048117" lon="14.004645"><ele>164.75</ele><time>2026-05-02T07:26:26.285Z</time></trkpt><trkpt lat="42.3047333" lon="14.00447"><ele>166.5</ele><time>2026-05-02T07:26:27.285Z</time></trkpt><trkpt lat="42.30466" lon="14.0043067"><ele>168.25</ele><time>2026-05-02T07:26:28.285Z</time></trkpt><trkpt lat="42.3045783" lon="14.0041483"><ele>170.0</ele><time>2026-05-02T07:26:29.285Z</time></trkpt><trkpt lat="42.3045017" lon="14.00401"><ele>170.0</ele><time>2026-05-02T07:26:30.285Z</time></trkpt><trkpt lat="42.304415" lon="14.0039067"><ele>170.0</ele><time>2026-05-02T07:26:31.285Z</time></trkpt><trkpt lat="42.3043133" lon="14.003845"><ele>170.0</ele><time>2026-05-02T07:26:32.285Z</time></trkpt><trkpt lat="42.3041983" lon="14.0037983"><ele>170.0</ele><time>2026-05-02T07:26:33.285Z</time></trkpt><trkpt lat="42.3040717" lon="14.0037567"><ele>170.0</ele><time>2026-05-02T07:26:34.285Z</time></trkpt><trkpt lat="42.3039417" lon="14.0037067"><ele>170.0</ele><time>2026-05-02T07:26:35.285Z</time></trkpt><trkpt lat="42.3037983" lon="14.003645"><ele>170.0</ele><time>2026-05-02T07:26:36.285Z</time></trkpt><trkpt lat="42.3036617" lon="14.00355"><ele>170.0</ele><time>2026-05-02T07:26:37.285Z</time></trkpt><trkpt lat="42.3035233" lon="14.00345"><ele>169.75</ele><time>2026-05-02T07:26:38.285Z</time></trkpt><trkpt lat="42.303395" lon="14.0033483"><ele>169.5</ele><time>2026-05-02T07:26:39.285Z</time></trkpt><trkpt lat="42.3032617" lon="14.00326"><ele>169.25</ele><time>2026-05-02T07:26:40.285Z</time></trkpt><trkpt lat="42.3031233" lon="14.003185"><ele>169.0</ele><time>2026-05-02T07:26:41.285Z</time></trkpt><trkpt lat="42.3029867" lon="14.0031233"><ele>169.0</ele><time>2026-05-02T07:26:42.286Z</time></trkpt><trkpt lat="42.30284" lon="14.0030917"><ele>169.0</ele><time>2026-05-02T07:26:43.285Z</time></trkpt><trkpt lat="42.3026933" lon="14.0030717"><ele>169.0</ele><time>2026-05-02T07:26:44.285Z</time></trkpt><trkpt lat="42.302535" lon="14.0030633"><ele>169.0</ele><time>2026-05-02T07:26:45.285Z</time></trkpt><trkpt lat="42.3023817" lon="14.0030617"><ele>169.0</ele><time>2026-05-02T07:26:46.285Z</time></trkpt><trkpt lat="42.3022417" lon="14.0030617"><ele>169.0</ele><time>2026-05-02T07:26:47.285Z</time></trkpt><trkpt lat="42.30211" lon="14.0030483"><ele>169.0</ele><time>2026-05-02T07:26:48.285Z</time></trkpt><trkpt lat="42.30199" lon="14.0030267"><ele>167.0</ele><time>2026-05-02T07:26:49.285Z</time></trkpt><trkpt lat="42.3018783" lon="14.002985"><ele>165.0</ele><time>2026-05-02T07:26:50.285Z</time></trkpt><trkpt lat="42.3017817" lon="14.0029317"><ele>163.0</ele><time>2026-05-02T07:26:51.285Z</time></trkpt><trkpt lat="42.3017017" lon="14.00287"><ele>161.0</ele><time>2026-05-02T07:26:52.285Z</time></trkpt><trkpt lat="42.3016317" lon="14.0027983"><ele>159.0</ele><time>2026-05-02T07:26:53.285Z</time></trkpt><trkpt lat="42.3015717" lon="14.0027167"><ele>159.0</ele><time>2026-05-02T07:26:54.285Z</time></trkpt><trkpt lat="42.3015233" lon="14.0026283"><ele>159.0</ele><time>2026-05-02T07:26:55.285Z</time></trkpt><trkpt lat="42.301485" lon="14.0025217"><ele>159.0</ele><time>2026-05-02T07:26:56.285Z</time></trkpt><trkpt lat="42.3014533" lon="14.0023933"><ele>159.0</ele><time>2026-05-02T07:26:57.285Z</time></trkpt><trkpt lat="42.3014267" lon="14.0022467"><ele>159.0</ele><time>2026-05-02T07:26:58.285Z</time></trkpt><trkpt lat="42.3014" lon="14.0020883"><ele>159.5</ele><time>2026-05-02T07:26:59.285Z</time></trkpt><trkpt lat="42.3013633" lon="14.001915"><ele>160.0</ele><time>2026-05-02T07:27:00.285Z</time></trkpt><trkpt lat="42.301315" lon="14.001735"><ele>160.5</ele><time>2026-05-02T07:27:01.285Z</time></trkpt><trkpt lat="42.3012567" lon="14.0015567"><ele>161.0</ele><time>2026-05-02T07:27:02.285Z</time></trkpt><trkpt lat="42.3011883" lon="14.0013733"><ele>161.0</ele><time>2026-05-02T07:27:03.285Z</time></trkpt><trkpt lat="42.3011217" lon="14.0012033"><ele>161.0</ele><time>2026-05-02T07:27:04.285Z</time></trkpt><trkpt lat="42.3010483" lon="14.0010367"><ele>161.0</ele><time>2026-05-02T07:27:05.286Z</time></trkpt><trkpt lat="42.300975" lon="14.0008683"><ele>161.0</ele><time>2026-05-02T07:27:06.285Z</time></trkpt><trkpt lat="42.3009017" lon="14.00071"><ele>160.25</ele><time>2026-05-02T07:27:07.285Z</time></trkpt><trkpt lat="42.3008183" lon="14.0005533"><ele>159.5</ele><time>2026-05-02T07:27:08.285Z</time></trkpt><trkpt lat="42.3007217" lon="14.0004133"><ele>158.75</ele><time>2026-05-02T07:27:09.285Z</time></trkpt><trkpt lat="42.3006167" lon="14.0002783"><ele>158.0</ele><time>2026-05-02T07:27:10.285Z</time></trkpt><trkpt lat="42.3005167" lon="14.000155"><ele>158.0</ele><time>2026-05-02T07:27:11.285Z</time></trkpt><trkpt lat="42.3004267" lon="14.000035"><ele>158.0</ele><time>2026-05-02T07:27:12.285Z</time></trkpt><trkpt lat="42.300345" lon="13.9999067"><ele>158.0</ele><time>2026-05-02T07:27:13.285Z</time></trkpt><trkpt lat="42.3002717" lon="13.999765"><ele>158.0</ele><time>2026-05-02T07:27:14.285Z</time></trkpt><trkpt lat="42.3002067" lon="13.9996183"><ele>158.0</ele><time>2026-05-02T07:27:15.285Z</time></trkpt><trkpt lat="42.30014" lon="13.9994717"><ele>158.0</ele><time>2026-05-02T07:27:16.285Z</time></trkpt><trkpt lat="42.300075" lon="13.999325"><ele>158.0</ele><time>2026-05-02T07:27:17.285Z</time></trkpt><trkpt lat="42.3000033" lon="13.99918"><ele>158.0</ele><time>2026-05-02T07:27:18.285Z</time></trkpt><trkpt lat="42.2999217" lon="13.999025"><ele>158.5</ele><time>2026-05-02T07:27:19.285Z</time></trkpt><trkpt lat="42.2998383" lon="13.998865"><ele>159.0</ele><time>2026-05-02T07:27:20.285Z</time></trkpt><trkpt lat="42.2997583" lon="13.99871"><ele>159.5</ele><time>2026-05-02T07:27:21.286Z</time></trkpt><trkpt lat="42.2996867" lon="13.9985617"><ele>160.0</ele><time>2026-05-02T07:27:22.285Z</time></trkpt><trkpt lat="42.29961" lon="13.998415"><ele>159.5</ele><time>2026-05-02T07:27:23.285Z</time></trkpt><trkpt lat="42.29953" lon="13.9982733"><ele>159.0</ele><time>2026-05-02T07:27:24.286Z</time></trkpt><trkpt lat="42.2994533" lon="13.9981483"><ele>158.5</ele><time>2026-05-02T07:27:25.285Z</time></trkpt><trkpt lat="42.2993867" lon="13.9980233"><ele>158.0</ele><time>2026-05-02T07:27:26.285Z</time></trkpt><trkpt lat="42.2993283" lon="13.99791"><ele>158.0</ele><time>2026-05-02T07:27:27.285Z</time></trkpt><trkpt lat="42.29928" lon="13.9977767"><ele>158.0</ele><time>2026-05-02T07:27:28.285Z</time></trkpt><trkpt lat="42.2992417" lon="13.9976217"><ele>158.0</ele><time>2026-05-02T07:27:29.285Z</time></trkpt><trkpt lat="42.29921" lon="13.9974433"><ele>158.0</ele><time>2026-05-02T07:27:30.285Z</time></trkpt><trkpt lat="42.2991917" lon="13.9972617"><ele>158.0</ele><time>2026-05-02T07:27:31.285Z</time></trkpt><trkpt lat="42.29919" lon="13.997095"><ele>158.0</ele><time>2026-05-02T07:27:32.285Z</time></trkpt><trkpt lat="42.2991883" lon="13.99693"><ele>158.0</ele><time>2026-05-02T07:27:33.285Z</time></trkpt><trkpt lat="42.2991733" lon="13.9967717"><ele>158.0</ele><time>2026-05-02T07:27:34.286Z</time></trkpt><trkpt lat="42.2991383" lon="13.9966267"><ele>157.6</ele><time>2026-05-02T07:27:35.285Z</time></trkpt><trkpt lat="42.29909" lon="13.9964983"><ele>157.20000000000002</ele><time>2026-05-02T07:27:36.285Z</time></trkpt><trkpt lat="42.2990233" lon="13.9963783"><ele>156.8</ele><time>2026-05-02T07:27:37.285Z</time></trkpt><trkpt lat="42.2989517" lon="13.9962733"><ele>156.4</ele><time>2026-05-02T07:27:38.285Z</time></trkpt><trkpt lat="42.2988767" lon="13.996175"><ele>156.0</ele><time>2026-05-02T07:27:39.285Z</time></trkpt><trkpt lat="42.2988017" lon="13.9960883"><ele>155.0</ele><time>2026-05-02T07:27:40.285Z</time></trkpt><trkpt lat="42.29874" lon="13.995995"><ele>154.0</ele><time>2026-05-02T07:27:41.285Z</time></trkpt><trkpt lat="42.2986917" lon="13.9959067"><ele>153.0</ele><time>2026-05-02T07:27:42.285Z</time></trkpt><trkpt lat="42.2986483" lon="13.995805"><ele>152.0</ele><time>2026-05-02T07:27:43.285Z</time></trkpt><trkpt lat="42.298615" lon="13.995705"><ele>151.0</ele><time>2026-05-02T07:27:44.285Z</time></trkpt><trkpt lat="42.2985717" lon="13.9956"><ele>150.0</ele><time>2026-05-02T07:27:45.285Z</time></trkpt><trkpt lat="42.2985217" lon="13.9954983"><ele>150.0</ele><time>2026-05-02T07:27:46.285Z</time></trkpt><trkpt lat="42.2984617" lon="13.9953883"><ele>150.0</ele><time>2026-05-02T07:27:47.285Z</time></trkpt><trkpt lat="42.2983933" lon="13.9952567"><ele>150.0</ele><time>2026-05-02T07:27:48.285Z</time></trkpt><trkpt lat="42.2983217" lon="13.9951267"><ele>150.0</ele><time>2026-05-02T07:27:49.285Z</time></trkpt><trkpt lat="42.2982617" lon="13.9949983"><ele>151.0</ele><time>2026-05-02T07:27:50.285Z</time></trkpt><trkpt lat="42.2981967" lon="13.9948783"><ele>152.0</ele><time>2026-05-02T07:27:51.286Z</time></trkpt><trkpt lat="42.2981233" lon="13.99477"><ele>153.0</ele><time>2026-05-02T07:27:52.285Z</time></trkpt><trkpt lat="42.2980467" lon="13.9946617"><ele>154.0</ele><time>2026-05-02T07:27:53.285Z</time></trkpt><trkpt lat="42.2979783" lon="13.9945467"><ele>155.0</ele><time>2026-05-02T07:27:54.285Z</time></trkpt><trkpt lat="42.2979217" lon="13.99442"><ele>151.5</ele><time>2026-05-02T07:27:55.285Z</time></trkpt><trkpt lat="42.29786" lon="13.9942883"><ele>148.0</ele><time>2026-05-02T07:27:56.285Z</time></trkpt><trkpt lat="42.2978017" lon="13.9941483"><ele>144.5</ele><time>2026-05-02T07:27:57.285Z</time></trkpt><trkpt lat="42.2977417" lon="13.9940067"><ele>141.0</ele><time>2026-05-02T07:27:58.285Z</time></trkpt><trkpt lat="42.2976833" lon="13.99386"><ele>141.0</ele><time>2026-05-02T07:27:59.285Z</time></trkpt><trkpt lat="42.2976133" lon="13.99371"><ele>141.0</ele><time>2026-05-02T07:28:00.285Z</time></trkpt><trkpt lat="42.2975417" lon="13.9935567"><ele>141.0</ele><time>2026-05-02T07:28:01.285Z</time></trkpt><trkpt lat="42.2974633" lon="13.99341"><ele>141.0</ele><time>2026-05-02T07:28:02.285Z</time></trkpt><trkpt lat="42.2973917" lon="13.99327"><ele>142.75</ele><time>2026-05-02T07:28:03.285Z</time></trkpt><trkpt lat="42.2973217" lon="13.9931383"><ele>144.5</ele><time>2026-05-02T07:28:04.285Z</time></trkpt><trkpt lat="42.297255" lon="13.9930067"><ele>146.25</ele><time>2026-05-02T07:28:05.285Z</time></trkpt><trkpt lat="42.2971917" lon="13.9928733"><ele>148.0</ele><time>2026-05-02T07:28:06.285Z</time></trkpt><trkpt lat="42.2971233" lon="13.992735"><ele>145.25</ele><time>2026-05-02T07:28:07.285Z</time></trkpt><trkpt lat="42.297055" lon="13.9925983"><ele>142.5</ele><time>2026-05-02T07:28:08.285Z</time></trkpt><trkpt lat="42.296995" lon="13.9924633"><ele>139.75</ele><time>2026-05-02T07:28:09.285Z</time></trkpt><trkpt lat="42.2969417" lon="13.992305"><ele>137.0</ele><time>2026-05-02T07:28:10.285Z</time></trkpt><trkpt lat="42.29689" lon="13.9921333"><ele>137.0</ele><time>2026-05-02T07:28:11.285Z</time></trkpt><trkpt lat="42.296835" lon="13.991955"><ele>137.0</ele><time>2026-05-02T07:28:12.285Z</time></trkpt><trkpt lat="42.2967867" lon="13.9917767"><ele>137.0</ele><time>2026-05-02T07:28:13.285Z</time></trkpt><trkpt lat="42.2967483" lon="13.9915933"><ele>137.0</ele><time>2026-05-02T07:28:14.285Z</time></trkpt><trkpt lat="42.2967183" lon="13.9914033"><ele>137.25</ele><time>2026-05-02T07:28:15.285Z</time></trkpt><trkpt lat="42.2966983" lon="13.9912117"><ele>137.5</ele><time>2026-05-02T07:28:16.285Z</time></trkpt><trkpt lat="42.2966817" lon="13.9910217"><ele>137.75</ele><time>2026-05-02T07:28:17.285Z</time></trkpt><trkpt lat="42.2966683" lon="13.9908433"><ele>138.0</ele><time>2026-05-02T07:28:18.285Z</time></trkpt><trkpt lat="42.2966533" lon="13.9906783"><ele>138.0</ele><time>2026-05-02T07:28:19.285Z</time></trkpt><trkpt lat="42.2966417" lon="13.9905233"><ele>138.0</ele><time>2026-05-02T07:28:20.285Z</time></trkpt><trkpt lat="42.296615" lon="13.9903717"><ele>138.0</ele><time>2026-05-02T07:28:21.285Z</time></trkpt><trkpt lat="42.2965683" lon="13.9902317"><ele>138.0</ele><time>2026-05-02T07:28:22.285Z</time></trkpt><trkpt lat="42.29651" lon="13.9900983"><ele>137.4</ele><time>2026-05-02T07:28:23.285Z</time></trkpt><trkpt lat="42.296435" lon="13.98999"><ele>136.8</ele><time>2026-05-02T07:28:24.285Z</time></trkpt><trkpt lat="42.2963433" lon="13.9899083"><ele>136.2</ele><time>2026-05-02T07:28:25.285Z</time></trkpt><trkpt lat="42.2962383" lon="13.989865"><ele>135.6</ele><time>2026-05-02T07:28:26.285Z</time></trkpt><trkpt lat="42.2961367" lon="13.9898383"><ele>135.0</ele><time>2026-05-02T07:28:27.285Z</time></trkpt><trkpt lat="42.296035" lon="13.9898017"><ele>133.6</ele><time>2026-05-02T07:28:28.285Z</time></trkpt><trkpt lat="42.29594" lon="13.9897517"><ele>132.2</ele><time>2026-05-02T07:28:29.285Z</time></trkpt><trkpt lat="42.2958483" lon="13.9896883"><ele>130.8</ele><time>2026-05-02T07:28:30.285Z</time></trkpt><trkpt lat="42.2957433" lon="13.98962"><ele>129.4</ele><time>2026-05-02T07:28:31.285Z</time></trkpt><trkpt lat="42.2956417" lon="13.9895333"><ele>128.0</ele><time>2026-05-02T07:28:32.285Z</time></trkpt><trkpt lat="42.29554" lon="13.9894533"><ele>127.66666666666666</ele><time>2026-05-02T07:28:33.285Z</time></trkpt><trkpt lat="42.2954533" lon="13.9893883"><ele>127.33333333333333</ele><time>2026-05-02T07:28:34.285Z</time></trkpt><trkpt lat="42.2953783" lon="13.989345"><ele>127.0</ele><time>2026-05-02T07:28:35.285Z</time></trkpt><trkpt lat="42.2953183" lon="13.989305"><ele>126.66666666666666</ele><time>2026-05-02T07:28:36.285Z</time></trkpt><trkpt lat="42.2952617" lon="13.989255"><ele>126.33333333333333</ele><time>2026-05-02T07:28:38.285Z</time></trkpt><trkpt lat="42.295155" lon="13.9892817"><ele>126.0</ele><time>2026-05-02T07:28:41.285Z</time></trkpt><trkpt lat="42.2950567" lon="13.9893183"><ele>126.0</ele><time>2026-05-02T07:28:43.285Z</time></trkpt><trkpt lat="42.294995" lon="13.98924"><ele>126.0</ele><time>2026-05-02T07:28:45.285Z</time></trkpt><trkpt lat="42.2949767" lon="13.989065"><ele>126.0</ele><time>2026-05-02T07:28:47.285Z</time></trkpt><trkpt lat="42.2949567" lon="13.988935"><ele>126.0</ele><time>2026-05-02T07:28:48.285Z</time></trkpt><trkpt lat="42.294915" lon="13.98877"><ele>126.0</ele><time>2026-05-02T07:28:49.285Z</time></trkpt><trkpt lat="42.2948633" lon="13.988585"><ele>127.33333333333334</ele><time>2026-05-02T07:28:50.285Z</time></trkpt><trkpt lat="42.294815" lon="13.9883983"><ele>128.66666666666669</ele><time>2026-05-02T07:28:51.285Z</time></trkpt><trkpt lat="42.294765" lon="13.9881883"><ele>130.0</ele><time>2026-05-02T07:28:52.285Z</time></trkpt><trkpt lat="42.2947067" lon="13.9879583"><ele>131.0</ele><time>2026-05-02T07:28:53.285Z</time></trkpt><trkpt lat="42.294645" lon="13.9877317"><ele>132.0</ele><time>2026-05-02T07:28:54.286Z</time></trkpt><trkpt lat="42.2945883" lon="13.98754"><ele>133.0</ele><time>2026-05-02T07:28:55.285Z</time></trkpt><trkpt lat="42.2945317" lon="13.9873633"><ele>133.4</ele><time>2026-05-02T07:28:56.285Z</time></trkpt><trkpt lat="42.2944833" lon="13.987205"><ele>133.8</ele><time>2026-05-02T07:28:57.285Z</time></trkpt><trkpt lat="42.2944433" lon="13.9870733"><ele>134.2</ele><time>2026-05-02T07:28:58.285Z</time></trkpt><trkpt lat="42.294415" lon="13.9869617"><ele>134.6</ele><time>2026-05-02T07:28:59.286Z</time></trkpt><trkpt lat="42.2944033" lon="13.9868767"><ele>135.0</ele><time>2026-05-02T07:29:00.285Z</time></trkpt><trkpt lat="42.2944117" lon="13.9867483"><ele>135.5</ele><time>2026-05-02T07:29:02.285Z</time></trkpt><trkpt lat="42.2944133" lon="13.9866433"><ele>136.0</ele><time>2026-05-02T07:29:04.285Z</time></trkpt><trkpt lat="42.2943617" lon="13.9865133"><ele>136.5</ele><time>2026-05-02T07:29:06.285Z</time></trkpt><trkpt lat="42.29433" lon="13.9864283"><ele>137.0</ele><time>2026-05-02T07:29:07.285Z</time></trkpt><trkpt lat="42.294295" lon="13.986325"><ele>137.5</ele><time>2026-05-02T07:29:08.285Z</time></trkpt><trkpt lat="42.29426" lon="13.9862017"><ele>138.0</ele><time>2026-05-02T07:29:09.285Z</time></trkpt><trkpt lat="42.2942217" lon="13.98606"><ele>138.0</ele><time>2026-05-02T07:29:10.285Z</time></trkpt><trkpt lat="42.2941833" lon="13.98592"><ele>138.0</ele><time>2026-05-02T07:29:11.285Z</time></trkpt><trkpt lat="42.2941483" lon="13.98578"><ele>138.0</ele><time>2026-05-02T07:29:12.285Z</time></trkpt><trkpt lat="42.294105" lon="13.9856233"><ele>138.0</ele><time>2026-05-02T07:29:13.285Z</time></trkpt><trkpt lat="42.2940583" lon="13.9854717"><ele>138.6</ele><time>2026-05-02T07:29:14.285Z</time></trkpt><trkpt lat="42.294015" lon="13.9853233"><ele>139.20000000000002</ele><time>2026-05-02T07:29:15.285Z</time></trkpt><trkpt lat="42.2939767" lon="13.9851817"><ele>139.8</ele><time>2026-05-02T07:29:16.285Z</time></trkpt><trkpt lat="42.2939317" lon="13.985055"><ele>140.4</ele><time>2026-05-02T07:29:17.286Z</time></trkpt><trkpt lat="42.2938983" lon="13.9849383"><ele>141.0</ele><time>2026-05-02T07:29:18.285Z</time></trkpt><trkpt lat="42.2938683" lon="13.984845"><ele>142.16666666666666</ele><time>2026-05-02T07:29:19.285Z</time></trkpt><trkpt lat="42.2938383" lon="13.9847617"><ele>143.33333333333334</ele><time>2026-05-02T07:29:20.285Z</time></trkpt><trkpt lat="42.2938067" lon="13.984685"><ele>144.5</ele><time>2026-05-02T07:29:21.285Z</time></trkpt><trkpt lat="42.2937617" lon="13.9845967"><ele>145.66666666666669</ele><time>2026-05-02T07:29:22.285Z</time></trkpt><trkpt lat="42.2937167" lon="13.984515"><ele>146.83333333333334</ele><time>2026-05-02T07:29:23.285Z</time></trkpt><trkpt lat="42.29366" lon="13.98443"><ele>148.0</ele><time>2026-05-02T07:29:24.285Z</time></trkpt><trkpt lat="42.2936033" lon="13.9843433"><ele>148.0</ele><time>2026-05-02T07:29:25.285Z</time></trkpt><trkpt lat="42.2935433" lon="13.9842517"><ele>148.0</ele><time>2026-05-02T07:29:26.285Z</time></trkpt><trkpt lat="42.2934917" lon="13.98416"><ele>148.0</ele><time>2026-05-02T07:29:27.285Z</time></trkpt><trkpt lat="42.2934383" lon="13.9840817"><ele>148.0</ele><time>2026-05-02T07:29:28.285Z</time></trkpt><trkpt lat="42.2933767" lon="13.984"><ele>148.0</ele><time>2026-05-02T07:29:29.285Z</time></trkpt><trkpt lat="42.2933" lon="13.9839183"><ele>148.0</ele><time>2026-05-02T07:29:30.285Z</time></trkpt><trkpt lat="42.293215" lon="13.9838433"><ele>148.4</ele><time>2026-05-02T07:29:31.285Z</time></trkpt><trkpt lat="42.2931367" lon="13.9837767"><ele>148.8</ele><time>2026-05-02T07:29:32.285Z</time></trkpt><trkpt lat="42.293065" lon="13.9836983"><ele>149.2</ele><time>2026-05-02T07:29:33.285Z</time></trkpt><trkpt lat="42.2929967" lon="13.9836167"><ele>149.6</ele><time>2026-05-02T07:29:34.285Z</time></trkpt><trkpt lat="42.2929317" lon="13.98352"><ele>150.0</ele><time>2026-05-02T07:29:35.285Z</time></trkpt><trkpt lat="42.2928767" lon="13.9834183"><ele>152.0</ele><time>2026-05-02T07:29:36.285Z</time></trkpt><trkpt lat="42.2928283" lon="13.983315"><ele>154.0</ele><time>2026-05-02T07:29:37.285Z</time></trkpt><trkpt lat="42.29277" lon="13.9832017"><ele>156.0</ele><time>2026-05-02T07:29:38.285Z</time></trkpt><trkpt lat="42.2927083" lon="13.9830867"><ele>158.0</ele><time>2026-05-02T07:29:39.285Z</time></trkpt><trkpt lat="42.29265" lon="13.98298"><ele>160.0</ele><time>2026-05-02T07:29:40.285Z</time></trkpt><trkpt lat="42.292585" lon="13.9828617"><ele>160.0</ele><time>2026-05-02T07:29:41.285Z</time></trkpt><trkpt lat="42.292525" lon="13.9827533"><ele>160.0</ele><time>2026-05-02T07:29:42.285Z</time></trkpt><trkpt lat="42.2924683" lon="13.98265"><ele>160.0</ele><time>2026-05-02T07:29:43.286Z</time></trkpt><trkpt lat="42.2924117" lon="13.9825467"><ele>160.0</ele><time>2026-05-02T07:29:44.285Z</time></trkpt><trkpt lat="42.2923567" lon="13.9824517"><ele>160.0</ele><time>2026-05-02T07:29:45.285Z</time></trkpt><trkpt lat="42.2923067" lon="13.9823667"><ele>161.5</ele><time>2026-05-02T07:29:46.285Z</time></trkpt><trkpt lat="42.292255" lon="13.9822817"><ele>163.0</ele><time>2026-05-02T07:29:47.285Z</time></trkpt><trkpt lat="42.2922033" lon="13.9821983"><ele>164.5</ele><time>2026-05-02T07:29:48.285Z</time></trkpt><trkpt lat="42.2921567" lon="13.98212"><ele>166.0</ele><time>2026-05-02T07:29:49.285Z</time></trkpt><trkpt lat="42.2921133" lon="13.9820483"><ele>167.5</ele><time>2026-05-02T07:29:50.286Z</time></trkpt><trkpt lat="42.2920683" lon="13.9819733"><ele>169.0</ele><time>2026-05-02T07:29:51.285Z</time></trkpt><trkpt lat="42.2920183" lon="13.981895"><ele>169.0</ele><time>2026-05-02T07:29:52.285Z</time></trkpt><trkpt lat="42.2919667" lon="13.9818133"><ele>169.0</ele><time>2026-05-02T07:29:53.286Z</time></trkpt><trkpt lat="42.2919017" lon="13.9817183"><ele>169.0</ele><time>2026-05-02T07:29:54.285Z</time></trkpt><trkpt lat="42.29183" lon="13.98162"><ele>169.0</ele><time>2026-05-02T07:29:55.285Z</time></trkpt><trkpt lat="42.2917567" lon="13.9815233"><ele>169.0</ele><time>2026-05-02T07:29:56.285Z</time></trkpt><trkpt lat="42.2916917" lon="13.981435"><ele>168.6</ele><time>2026-05-02T07:29:57.285Z</time></trkpt><trkpt lat="42.2916367" lon="13.98135"><ele>168.2</ele><time>2026-05-02T07:29:58.285Z</time></trkpt><trkpt lat="42.2915883" lon="13.98128"><ele>167.79999999999998</ele><time>2026-05-02T07:29:59.286Z</time></trkpt><trkpt lat="42.2915433" lon="13.98121"><ele>167.39999999999998</ele><time>2026-05-02T07:30:00.285Z</time></trkpt><trkpt lat="42.291445" lon="13.9811167"><ele>167.0</ele><time>2026-05-02T07:30:02.285Z</time></trkpt><trkpt lat="42.2913383" lon="13.9810933"><ele>168.8</ele><time>2026-05-02T07:30:04.285Z</time></trkpt><trkpt lat="42.29123" lon="13.9810967"><ele>170.6</ele><time>2026-05-02T07:30:06.285Z</time></trkpt><trkpt lat="42.2910983" lon="13.9810667"><ele>172.4</ele><time>2026-05-02T07:30:08.285Z</time></trkpt><trkpt lat="42.2910333" lon="13.981025"><ele>174.20000000000002</ele><time>2026-05-02T07:30:09.285Z</time></trkpt><trkpt lat="42.2909783" lon="13.980965"><ele>176.0</ele><time>2026-05-02T07:30:10.285Z</time></trkpt><trkpt lat="42.290945" lon="13.9808833"><ele>174.83333333333331</ele><time>2026-05-02T07:30:11.285Z</time></trkpt><trkpt lat="42.2909267" lon="13.9807783"><ele>173.66666666666666</ele><time>2026-05-02T07:30:12.285Z</time></trkpt><trkpt lat="42.2909133" lon="13.9806617"><ele>172.5</ele><time>2026-05-02T07:30:13.285Z</time></trkpt><trkpt lat="42.290905" lon="13.9805367"><ele>171.33333333333334</ele><time>2026-05-02T07:30:14.285Z</time></trkpt><trkpt lat="42.2909017" lon="13.9804133"><ele>170.16666666666669</ele><time>2026-05-02T07:30:15.285Z</time></trkpt><trkpt lat="42.2908833" lon="13.980285"><ele>169.0</ele><time>2026-05-02T07:30:16.285Z</time></trkpt><trkpt lat="42.2908617" lon="13.9801617"><ele>169.0</ele><time>2026-05-02T07:30:17.285Z</time></trkpt><trkpt lat="42.2908183" lon="13.980025"><ele>169.0</ele><time>2026-05-02T07:30:18.285Z</time></trkpt><trkpt lat="42.290755" lon="13.9798967"><ele>169.0</ele><time>2026-05-02T07:30:19.285Z</time></trkpt><trkpt lat="42.2906767" lon="13.97978"><ele>169.0</ele><time>2026-05-02T07:30:20.286Z</time></trkpt><trkpt lat="42.290595" lon="13.9796883"><ele>169.0</ele><time>2026-05-02T07:30:21.286Z</time></trkpt><trkpt lat="42.2905117" lon="13.9796217"><ele>171.66666666666669</ele><time>2026-05-02T07:30:22.285Z</time></trkpt><trkpt lat="42.290435" lon="13.979555"><ele>174.33333333333334</ele><time>2026-05-02T07:30:23.285Z</time></trkpt><trkpt lat="42.2903733" lon="13.9794933"><ele>177.0</ele><time>2026-05-02T07:30:24.286Z</time></trkpt><trkpt lat="42.290335" lon="13.9794233"><ele>179.66666666666666</ele><time>2026-05-02T07:30:25.285Z</time></trkpt><trkpt lat="42.2903167" lon="13.9792583"><ele>182.33333333333331</ele><time>2026-05-02T07:30:27.285Z</time></trkpt><trkpt lat="42.2903383" lon="13.9791517"><ele>185.0</ele><time>2026-05-02T07:30:28.285Z</time></trkpt><trkpt lat="42.2903767" lon="13.9790333"><ele>185.0</ele><time>2026-05-02T07:30:29.285Z</time></trkpt><trkpt lat="42.290415" lon="13.97892"><ele>185.0</ele><time>2026-05-02T07:30:30.285Z</time></trkpt><trkpt lat="42.2904417" lon="13.9788183"><ele>185.0</ele><time>2026-05-02T07:30:31.285Z</time></trkpt><trkpt lat="42.290445" lon="13.978725"><ele>185.0</ele><time>2026-05-02T07:30:32.285Z</time></trkpt><trkpt lat="42.2904217" lon="13.9786433"><ele>185.0</ele><time>2026-05-02T07:30:33.285Z</time></trkpt><trkpt lat="42.2903317" lon="13.9785633"><ele>185.0</ele><time>2026-05-02T07:30:35.286Z</time></trkpt><trkpt lat="42.2902683" lon="13.9785917"><ele>185.0</ele><time>2026-05-02T07:30:36.285Z</time></trkpt><trkpt lat="42.2901933" lon="13.9786483"><ele>185.0</ele><time>2026-05-02T07:30:37.286Z</time></trkpt><trkpt lat="42.2901183" lon="13.978705"><ele>185.0</ele><time>2026-05-02T07:30:38.285Z</time></trkpt><trkpt lat="42.29003" lon="13.978765"><ele>185.0</ele><time>2026-05-02T07:30:39.285Z</time></trkpt><trkpt lat="42.2899367" lon="13.9788183"><ele>185.0</ele><time>2026-05-02T07:30:40.285Z</time></trkpt><trkpt lat="42.2898517" lon="13.9788633"><ele>185.0</ele><time>2026-05-02T07:30:41.285Z</time></trkpt><trkpt lat="42.28978" lon="13.9788883"><ele>185.0</ele><time>2026-05-02T07:30:42.285Z</time></trkpt><trkpt lat="42.289665" lon="13.9788567"><ele>185.0</ele><time>2026-05-02T07:30:44.285Z</time></trkpt><trkpt lat="42.2896133" lon="13.9787967"><ele>185.0</ele><time>2026-05-02T07:30:45.285Z</time></trkpt><trkpt lat="42.2895717" lon="13.9787067"><ele>185.0</ele><time>2026-05-02T07:30:46.285Z</time></trkpt><trkpt lat="42.2895467" lon="13.978585"><ele>185.0</ele><time>2026-05-02T07:30:47.285Z</time></trkpt><trkpt lat="42.2895283" lon="13.9784467"><ele>187.66666666666666</ele><time>2026-05-02T07:30:48.285Z</time></trkpt><trkpt lat="42.28952" lon="13.9783417"><ele>190.33333333333331</ele><time>2026-05-02T07:30:49.285Z</time></trkpt><trkpt lat="42.289515" lon="13.978235"><ele>193.0</ele><time>2026-05-02T07:30:50.285Z</time></trkpt><trkpt lat="42.2895017" lon="13.978135"><ele>195.66666666666666</ele><time>2026-05-02T07:30:51.285Z</time></trkpt><trkpt lat="42.28948" lon="13.97805"><ele>198.33333333333334</ele><time>2026-05-02T07:30:52.285Z</time></trkpt><trkpt lat="42.2894217" lon="13.9779317"><ele>201.0</ele><time>2026-05-02T07:30:54.285Z</time></trkpt><trkpt lat="42.28935" lon="13.9778717"><ele>201.0</ele><time>2026-05-02T07:30:56.285Z</time></trkpt><trkpt lat="42.289265" lon="13.9778533"><ele>201.0</ele><time>2026-05-02T07:30:58.285Z</time></trkpt><trkpt lat="42.2891683" lon="13.977885"><ele>201.0</ele><time>2026-05-02T07:31:00.286Z</time></trkpt><trkpt lat="42.289065" lon="13.9779483"><ele>201.0</ele><time>2026-05-02T07:31:02.285Z</time></trkpt><trkpt lat="42.2889567" lon="13.9780233"><ele>201.0</ele><time>2026-05-02T07:31:04.285Z</time></trkpt><trkpt lat="42.2889083" lon="13.97808"><ele>204.25</ele><time>2026-05-02T07:31:05.285Z</time></trkpt><trkpt lat="42.288825" lon="13.9782017"><ele>207.5</ele><time>2026-05-02T07:31:07.285Z</time></trkpt><trkpt lat="42.2887617" lon="13.9783233"><ele>210.75</ele><time>2026-05-02T07:31:09.285Z</time></trkpt><trkpt lat="42.2887267" lon="13.9784567"><ele>214.0</ele><time>2026-05-02T07:31:11.285Z</time></trkpt><trkpt lat="42.288655" lon="13.97861"><ele>213.99999999999997</ele><time>2026-05-02T07:31:13.286Z</time></trkpt><trkpt lat="42.2886067" lon="13.9786983"><ele>214.0</ele><time>2026-05-02T07:31:14.285Z</time></trkpt><trkpt lat="42.28856" lon="13.9787867"><ele>214.0</ele><time>2026-05-02T07:31:15.285Z</time></trkpt><trkpt lat="42.2885167" lon="13.9788567"><ele>214.0</ele><time>2026-05-02T07:31:16.285Z</time></trkpt><trkpt lat="42.28846" lon="13.9789817"><ele>213.99999999999997</ele><time>2026-05-02T07:31:18.285Z</time></trkpt><trkpt lat="42.2884367" lon="13.979115"><ele>214.0</ele><time>2026-05-02T07:31:20.285Z</time></trkpt><trkpt lat="42.288415" lon="13.9792867"><ele>214.57142857142858</ele><time>2026-05-02T07:31:22.285Z</time></trkpt><trkpt lat="42.2884033" lon="13.9793767"><ele>215.14285714285714</ele><time>2026-05-02T07:31:23.285Z</time></trkpt><trkpt lat="42.2883983" lon="13.97947"><ele>215.71428571428572</ele><time>2026-05-02T07:31:24.285Z</time></trkpt><trkpt lat="42.2883933" lon="13.97957"><ele>216.28571428571428</ele><time>2026-05-02T07:31:25.285Z</time></trkpt><trkpt lat="42.2883867" lon="13.97966"><ele>216.85714285714286</ele><time>2026-05-02T07:31:26.285Z</time></trkpt><trkpt lat="42.28838" lon="13.9797467"><ele>217.42857142857144</ele><time>2026-05-02T07:31:27.285Z</time></trkpt><trkpt lat="42.2883717" lon="13.9798367"><ele>218.0</ele><time>2026-05-02T07:31:28.285Z</time></trkpt><trkpt lat="42.2883683" lon="13.9799267"><ele>218.0</ele><time>2026-05-02T07:31:29.285Z</time></trkpt><trkpt lat="42.288365" lon="13.980015"><ele>218.0</ele><time>2026-05-02T07:31:30.285Z</time></trkpt><trkpt lat="42.28837" lon="13.9801"><ele>218.0</ele><time>2026-05-02T07:31:31.285Z</time></trkpt><trkpt lat="42.2884133" lon="13.980255"><ele>218.0</ele><time>2026-05-02T07:31:33.285Z</time></trkpt><trkpt lat="42.28844" lon="13.9803333"><ele>218.0</ele><time>2026-05-02T07:31:34.285Z</time></trkpt><trkpt lat="42.288465" lon="13.980415"><ele>218.0</ele><time>2026-05-02T07:31:35.285Z</time></trkpt><trkpt lat="42.28849" lon="13.980495"><ele>218.0</ele><time>2026-05-02T07:31:36.285Z</time></trkpt><trkpt lat="42.2885033" lon="13.9806267"><ele>218.60000000000002</ele><time>2026-05-02T07:31:38.285Z</time></trkpt><trkpt lat="42.2884567" lon="13.9807517"><ele>219.20000000000002</ele><time>2026-05-02T07:31:40.285Z</time></trkpt><trkpt lat="42.2883567" lon="13.9808217"><ele>219.8</ele><time>2026-05-02T07:31:42.285Z</time></trkpt><trkpt lat="42.2882533" lon="13.9807783"><ele>220.4</ele><time>2026-05-02T07:31:44.285Z</time></trkpt><trkpt lat="42.2881883" lon="13.9806733"><ele>221.0</ele><time>2026-05-02T07:31:46.285Z</time></trkpt><trkpt lat="42.2881533" lon="13.9805667"><ele>225.8</ele><time>2026-05-02T07:31:48.285Z</time></trkpt><trkpt lat="42.2880867" lon="13.9805083"><ele>230.60000000000002</ele><time>2026-05-02T07:31:50.285Z</time></trkpt><trkpt lat="42.2879933" lon="13.9805333"><ele>235.4</ele><time>2026-05-02T07:31:52.285Z</time></trkpt><trkpt lat="42.2879433" lon="13.98063"><ele>240.2</ele><time>2026-05-02T07:31:54.285Z</time></trkpt><trkpt lat="42.287955" lon="13.980775"><ele>245.0</ele><time>2026-05-02T07:31:56.285Z</time></trkpt><trkpt lat="42.287975" lon="13.9809267"><ele>246.14285714285714</ele><time>2026-05-02T07:31:58.285Z</time></trkpt><trkpt lat="42.287985" lon="13.9810133"><ele>247.28571428571428</ele><time>2026-05-02T07:31:59.285Z</time></trkpt><trkpt lat="42.2879967" lon="13.9810983"><ele>248.42857142857144</ele><time>2026-05-02T07:32:00.285Z</time></trkpt><trkpt lat="42.288015" lon="13.9811817"><ele>249.57142857142858</ele><time>2026-05-02T07:32:01.285Z</time></trkpt><trkpt lat="42.2880383" lon="13.9813267"><ele>250.71428571428572</ele><time>2026-05-02T07:32:03.285Z</time></trkpt><trkpt lat="42.2880183" lon="13.9814217"><ele>251.8571428571429</ele><time>2026-05-02T07:32:05.285Z</time></trkpt><trkpt lat="42.2879617" lon="13.981465"><ele>253.00000000000003</ele><time>2026-05-02T07:32:07.285Z</time></trkpt><trkpt lat="42.2878867" lon="13.9814383"><ele>252.99999999999997</ele><time>2026-05-02T07:32:09.285Z</time></trkpt><trkpt lat="42.2878383" lon="13.9813367"><ele>253.0</ele><time>2026-05-02T07:32:11.285Z</time></trkpt><trkpt lat="42.287805" lon="13.9812267"><ele>253.0</ele><time>2026-05-02T07:32:13.285Z</time></trkpt><trkpt lat="42.2877683" lon="13.981145"><ele>253.0</ele><time>2026-05-02T07:32:15.285Z</time></trkpt><trkpt lat="42.2876967" lon="13.9810983"><ele>252.99999999999997</ele><time>2026-05-02T07:32:23.285Z</time></trkpt><trkpt lat="42.2876033" lon="13.9810567"><ele>253.0</ele><time>2026-05-02T07:32:25.285Z</time></trkpt><trkpt lat="42.287485" lon="13.9810283"><ele>253.0</ele><time>2026-05-02T07:32:27.285Z</time></trkpt><trkpt lat="42.2873667" lon="13.9809883"><ele>253.0</ele><time>2026-05-02T07:32:29.285Z</time></trkpt><trkpt lat="42.2872483" lon="13.9809383"><ele>253.0</ele><time>2026-05-02T07:32:31.285Z</time></trkpt><trkpt lat="42.2871333" lon="13.980895"><ele>253.0</ele><time>2026-05-02T07:32:33.285Z</time></trkpt><trkpt lat="42.2870467" lon="13.9808417"><ele>253.66666666666666</ele><time>2026-05-02T07:32:35.285Z</time></trkpt><trkpt lat="42.286995" lon="13.98074"><ele>254.33333333333331</ele><time>2026-05-02T07:32:37.285Z</time></trkpt><trkpt lat="42.286985" lon="13.9806"><ele>255.0</ele><time>2026-05-02T07:32:39.285Z</time></trkpt><trkpt lat="42.2869883" lon="13.980515"><ele>255.66666666666669</ele><time>2026-05-02T07:32:40.286Z</time></trkpt><trkpt lat="42.2869933" lon="13.98043"><ele>256.33333333333337</ele><time>2026-05-02T07:32:41.285Z</time></trkpt><trkpt lat="42.2870083" lon="13.9802717"><ele>257.0</ele><time>2026-05-02T07:32:43.285Z</time></trkpt><trkpt lat="42.2870117" lon="13.980185"><ele>257.0</ele><time>2026-05-02T07:32:44.285Z</time></trkpt><trkpt lat="42.2870083" lon="13.980085"><ele>257.0</ele><time>2026-05-02T07:32:45.285Z</time></trkpt><trkpt lat="42.2870033" lon="13.9799833"><ele>257.0</ele><time>2026-05-02T07:32:46.286Z</time></trkpt><trkpt lat="42.28699" lon="13.979895"><ele>257.0</ele><time>2026-05-02T07:32:47.285Z</time></trkpt><trkpt lat="42.286965" lon="13.9798067"><ele>257.0</ele><time>2026-05-02T07:32:48.285Z</time></trkpt><trkpt lat="42.2869383" lon="13.97972"><ele>257.0</ele><time>2026-05-02T07:32:49.285Z</time></trkpt><trkpt lat="42.2869117" lon="13.9796333"><ele>257.0</ele><time>2026-05-02T07:32:50.285Z</time></trkpt><trkpt lat="42.28689" lon="13.9795483"><ele>257.1666666666667</ele><time>2026-05-02T07:32:51.285Z</time></trkpt><trkpt lat="42.2868817" lon="13.9794533"><ele>257.33333333333337</ele><time>2026-05-02T07:32:52.285Z</time></trkpt><trkpt lat="42.2868717" lon="13.97935"><ele>257.5</ele><time>2026-05-02T07:32:53.285Z</time></trkpt><trkpt lat="42.28686" lon="13.9792417"><ele>257.6666666666667</ele><time>2026-05-02T07:32:54.285Z</time></trkpt><trkpt lat="42.2868517" lon="13.9791267"><ele>257.8333333333333</ele><time>2026-05-02T07:32:55.285Z</time></trkpt><trkpt lat="42.2868417" lon="13.9790117"><ele>258.0</ele><time>2026-05-02T07:32:56.285Z</time></trkpt><trkpt lat="42.2868217" lon="13.97889"><ele>257.8333333333333</ele><time>2026-05-02T07:32:57.285Z</time></trkpt><trkpt lat="42.2867967" lon="13.978785"><ele>257.6666666666667</ele><time>2026-05-02T07:32:58.285Z</time></trkpt><trkpt lat="42.286775" lon="13.9786933"><ele>257.5</ele><time>2026-05-02T07:32:59.285Z</time></trkpt><trkpt lat="42.2867483" lon="13.9785933"><ele>257.33333333333337</ele><time>2026-05-02T07:33:00.285Z</time></trkpt><trkpt lat="42.2867117" lon="13.978495"><ele>257.1666666666667</ele><time>2026-05-02T07:33:01.285Z</time></trkpt><trkpt lat="42.286665" lon="13.9783883"><ele>257.0</ele><time>2026-05-02T07:33:02.285Z</time></trkpt><trkpt lat="42.2866117" lon="13.9782917"><ele>257.0</ele><time>2026-05-02T07:33:03.285Z</time></trkpt><trkpt lat="42.286555" lon="13.9782017"><ele>257.0</ele><time>2026-05-02T07:33:04.285Z</time></trkpt><trkpt lat="42.2864817" lon="13.978115"><ele>257.0</ele><time>2026-05-02T07:33:05.285Z</time></trkpt><trkpt lat="42.28639" lon="13.978015"><ele>257.0</ele><time>2026-05-02T07:33:06.285Z</time></trkpt><trkpt lat="42.286305" lon="13.9779233"><ele>257.0</ele><time>2026-05-02T07:33:07.285Z</time></trkpt><trkpt lat="42.2862283" lon="13.977825"><ele>258.1666666666667</ele><time>2026-05-02T07:33:08.285Z</time></trkpt><trkpt lat="42.28617" lon="13.9777267"><ele>259.33333333333337</ele><time>2026-05-02T07:33:09.286Z</time></trkpt><trkpt lat="42.2861217" lon="13.9776183"><ele>260.5</ele><time>2026-05-02T07:33:10.286Z</time></trkpt><trkpt lat="42.2860733" lon="13.977515"><ele>261.6666666666667</ele><time>2026-05-02T07:33:11.285Z</time></trkpt><trkpt lat="42.286025" lon="13.9774233"><ele>262.8333333333333</ele><time>2026-05-02T07:33:12.285Z</time></trkpt><trkpt lat="42.2859717" lon="13.9773367"><ele>264.0</ele><time>2026-05-02T07:33:13.285Z</time></trkpt><trkpt lat="42.2859083" lon="13.9772533"><ele>264.0</ele><time>2026-05-02T07:33:14.286Z</time></trkpt><trkpt lat="42.2858383" lon="13.9771767"><ele>264.0</ele><time>2026-05-02T07:33:15.285Z</time></trkpt><trkpt lat="42.285755" lon="13.9770967"><ele>264.0</ele><time>2026-05-02T07:33:16.285Z</time></trkpt><trkpt lat="42.285675" lon="13.9770283"><ele>264.0</ele><time>2026-05-02T07:33:17.285Z</time></trkpt><trkpt lat="42.285595" lon="13.97697"><ele>264.0</ele><time>2026-05-02T07:33:18.285Z</time></trkpt><trkpt lat="42.2855267" lon="13.9769133"><ele>265.0</ele><time>2026-05-02T07:33:19.285Z</time></trkpt><trkpt lat="42.2854683" lon="13.9768533"><ele>266.0</ele><time>2026-05-02T07:33:20.285Z</time></trkpt><trkpt lat="42.28542" lon="13.9767867"><ele>267.0</ele><time>2026-05-02T07:33:21.285Z</time></trkpt><trkpt lat="42.2853733" lon="13.9766533"><ele>268.0</ele><time>2026-05-02T07:33:23.285Z</time></trkpt><trkpt lat="42.2853883" lon="13.9764767"><ele>269.0</ele><time>2026-05-02T07:33:25.285Z</time></trkpt><trkpt lat="42.2854067" lon="13.976325"><ele>269.0</ele><time>2026-05-02T07:33:26.285Z</time></trkpt><trkpt lat="42.2854267" lon="13.976185"><ele>269.0</ele><time>2026-05-02T07:33:27.285Z</time></trkpt><trkpt lat="42.28544" lon="13.9760367"><ele>269.0</ele><time>2026-05-02T07:33:28.285Z</time></trkpt><trkpt lat="42.28544" lon="13.975885"><ele>269.0</ele><time>2026-05-02T07:33:29.285Z</time></trkpt><trkpt lat="42.28543" lon="13.9757183"><ele>270.25</ele><time>2026-05-02T07:33:30.286Z</time></trkpt><trkpt lat="42.2854083" lon="13.9755667"><ele>271.5</ele><time>2026-05-02T07:33:31.285Z</time></trkpt><trkpt lat="42.2853883" lon="13.9754117"><ele>272.75</ele><time>2026-05-02T07:33:32.285Z</time></trkpt><trkpt lat="42.285365" lon="13.9752617"><ele>274.0</ele><time>2026-05-02T07:33:33.285Z</time></trkpt><trkpt lat="42.2853333" lon="13.9751083"><ele>274.5</ele><time>2026-05-02T07:33:34.285Z</time></trkpt><trkpt lat="42.2852833" lon="13.9749567"><ele>275.0</ele><time>2026-05-02T07:33:35.285Z</time></trkpt><trkpt lat="42.2852233" lon="13.9747917"><ele>275.5</ele><time>2026-05-02T07:33:36.285Z</time></trkpt><trkpt lat="42.2851433" lon="13.9746117"><ele>276.0</ele><time>2026-05-02T07:33:37.285Z</time></trkpt><trkpt lat="42.2850533" lon="13.97442"><ele>276.0</ele><time>2026-05-02T07:33:38.285Z</time></trkpt><trkpt lat="42.284955" lon="13.97421"><ele>276.0</ele><time>2026-05-02T07:33:39.285Z</time></trkpt><trkpt lat="42.2848617" lon="13.9740017"><ele>276.0</ele><time>2026-05-02T07:33:40.285Z</time></trkpt><trkpt lat="42.2847817" lon="13.9738067"><ele>279.0</ele><time>2026-05-02T07:33:41.286Z</time></trkpt><trkpt lat="42.2847183" lon="13.9736383"><ele>282.0</ele><time>2026-05-02T07:33:42.285Z</time></trkpt><trkpt lat="42.2846683" lon="13.97349"><ele>285.0</ele><time>2026-05-02T07:33:43.286Z</time></trkpt><trkpt lat="42.28461" lon="13.973345"><ele>288.0</ele><time>2026-05-02T07:33:44.285Z</time></trkpt><trkpt lat="42.2845417" lon="13.97322"><ele>288.75</ele><time>2026-05-02T07:33:45.285Z</time></trkpt><trkpt lat="42.2844583" lon="13.97312"><ele>289.5</ele><time>2026-05-02T07:33:46.285Z</time></trkpt><trkpt lat="42.28436" lon="13.973025"><ele>290.25</ele><time>2026-05-02T07:33:47.285Z</time></trkpt><trkpt lat="42.2842417" lon="13.9729317"><ele>291.0</ele><time>2026-05-02T07:33:48.285Z</time></trkpt><trkpt lat="42.2841" lon="13.972845"><ele>291.0</ele><time>2026-05-02T07:33:49.285Z</time></trkpt><trkpt lat="42.2839683" lon="13.9727583"><ele>291.0</ele><time>2026-05-02T07:33:50.285Z</time></trkpt><trkpt lat="42.28383" lon="13.972695"><ele>291.0</ele><time>2026-05-02T07:33:51.285Z</time></trkpt><trkpt lat="42.2836983" lon="13.97263"><ele>291.0</ele><time>2026-05-02T07:33:52.285Z</time></trkpt><trkpt lat="42.2835833" lon="13.972565"><ele>291.40000000000003</ele><time>2026-05-02T07:33:53.285Z</time></trkpt><trkpt lat="42.2834833" lon="13.97252"><ele>291.8</ele><time>2026-05-02T07:33:54.285Z</time></trkpt><trkpt lat="42.2833833" lon="13.9725067"><ele>292.20000000000005</ele><time>2026-05-02T07:33:55.285Z</time></trkpt><trkpt lat="42.283295" lon="13.9725067"><ele>292.6</ele><time>2026-05-02T07:33:56.286Z</time></trkpt><trkpt lat="42.2832167" lon="13.972485"><ele>293.0</ele><time>2026-05-02T07:33:57.285Z</time></trkpt><trkpt lat="42.2831467" lon="13.9724283"><ele>294.33333333333337</ele><time>2026-05-02T07:33:58.285Z</time></trkpt><trkpt lat="42.283085" lon="13.9723433"><ele>295.6666666666667</ele><time>2026-05-02T07:33:59.285Z</time></trkpt><trkpt lat="42.283035" lon="13.9722467"><ele>297.0</ele><time>2026-05-02T07:34:00.285Z</time></trkpt><trkpt lat="42.28299" lon="13.9721667"><ele>298.3333333333333</ele><time>2026-05-02T07:34:01.286Z</time></trkpt><trkpt lat="42.2829317" lon="13.97205"><ele>299.66666666666663</ele><time>2026-05-02T07:34:03.285Z</time></trkpt><trkpt lat="42.28293" lon="13.97196"><ele>301.0</ele><time>2026-05-02T07:34:05.286Z</time></trkpt><trkpt lat="42.2829883" lon="13.9718133"><ele>301.0</ele><time>2026-05-02T07:34:07.285Z</time></trkpt><trkpt lat="42.2830367" lon="13.9716967"><ele>301.0</ele><time>2026-05-02T07:34:08.285Z</time></trkpt><trkpt lat="42.2830917" lon="13.9715683"><ele>301.0</ele><time>2026-05-02T07:34:09.285Z</time></trkpt><trkpt lat="42.2831367" lon="13.9714383"><ele>301.0</ele><time>2026-05-02T07:34:10.285Z</time></trkpt><trkpt lat="42.2831717" lon="13.9713083"><ele>301.0</ele><time>2026-05-02T07:34:11.285Z</time></trkpt><trkpt lat="42.28322" lon="13.971185"><ele>299.0</ele><time>2026-05-02T07:34:12.285Z</time></trkpt><trkpt lat="42.2832867" lon="13.971075"><ele>297.0</ele><time>2026-05-02T07:34:13.285Z</time></trkpt><trkpt lat="42.2833783" lon="13.970975"><ele>295.0</ele><time>2026-05-02T07:34:14.285Z</time></trkpt><trkpt lat="42.2834733" lon="13.9708833"><ele>293.0</ele><time>2026-05-02T07:34:15.286Z</time></trkpt><trkpt lat="42.2835517" lon="13.9707883"><ele>291.0</ele><time>2026-05-02T07:34:16.285Z</time></trkpt><trkpt lat="42.283625" lon="13.9706967"><ele>290.8</ele><time>2026-05-02T07:34:17.286Z</time></trkpt><trkpt lat="42.2837" lon="13.9706133"><ele>290.6</ele><time>2026-05-02T07:34:18.285Z</time></trkpt><trkpt lat="42.283775" lon="13.970555"><ele>290.4</ele><time>2026-05-02T07:34:19.286Z</time></trkpt><trkpt lat="42.2838633" lon="13.9705217"><ele>290.2</ele><time>2026-05-02T07:34:20.285Z</time></trkpt><trkpt lat="42.2839667" lon="13.9705083"><ele>290.0</ele><time>2026-05-02T07:34:21.285Z</time></trkpt><trkpt lat="42.2840783" lon="13.9705067"><ele>289.25</ele><time>2026-05-02T07:34:22.285Z</time></trkpt><trkpt lat="42.2841983" lon="13.9704983"><ele>288.5</ele><time>2026-05-02T07:34:23.285Z</time></trkpt><trkpt lat="42.2843333" lon="13.9704783"><ele>287.75</ele><time>2026-05-02T07:34:24.285Z</time></trkpt><trkpt lat="42.284485" lon="13.9704517"><ele>287.0</ele><time>2026-05-02T07:34:25.285Z</time></trkpt><trkpt lat="42.2846433" lon="13.9704067"><ele>287.25</ele><time>2026-05-02T07:34:26.285Z</time></trkpt><trkpt lat="42.2847983" lon="13.9703667"><ele>287.5</ele><time>2026-05-02T07:34:27.285Z</time></trkpt><trkpt lat="42.2849367" lon="13.97032"><ele>287.75</ele><time>2026-05-02T07:34:28.285Z</time></trkpt><trkpt lat="42.2850517" lon="13.970275"><ele>288.0</ele><time>2026-05-02T07:34:29.285Z</time></trkpt><trkpt lat="42.2851483" lon="13.9702517"><ele>288.0</ele><time>2026-05-02T07:34:30.285Z</time></trkpt><trkpt lat="42.2852217" lon="13.97022"><ele>288.0</ele><time>2026-05-02T07:34:31.285Z</time></trkpt><trkpt lat="42.2852883" lon="13.9701717"><ele>288.0</ele><time>2026-05-02T07:34:32.285Z</time></trkpt><trkpt lat="42.2853467" lon="13.9701017"><ele>288.0</ele><time>2026-05-02T07:34:33.285Z</time></trkpt><trkpt lat="42.2853883" lon="13.9700267"><ele>288.0</ele><time>2026-05-02T07:34:34.285Z</time></trkpt><trkpt lat="42.2854333" lon="13.9699183"><ele>288.0</ele><time>2026-05-02T07:34:35.286Z</time></trkpt><trkpt lat="42.2854867" lon="13.969795"><ele>288.0</ele><time>2026-05-02T07:34:36.285Z</time></trkpt><trkpt lat="42.2855467" lon="13.969655"><ele>288.0</ele><time>2026-05-02T07:34:37.285Z</time></trkpt><trkpt lat="42.2856033" lon="13.9695133"><ele>288.0</ele><time>2026-05-02T07:34:38.285Z</time></trkpt><trkpt lat="42.2856617" lon="13.9693917"><ele>288.0</ele><time>2026-05-02T07:34:39.285Z</time></trkpt><trkpt lat="42.2857083" lon="13.9692783"><ele>288.0</ele><time>2026-05-02T07:34:40.285Z</time></trkpt><trkpt lat="42.2857517" lon="13.9691717"><ele>289.14285714285717</ele><time>2026-05-02T07:34:41.285Z</time></trkpt><trkpt lat="42.2857867" lon="13.9690733"><ele>290.2857142857143</ele><time>2026-05-02T07:34:42.286Z</time></trkpt><trkpt lat="42.285815" lon="13.9689833"><ele>291.42857142857144</ele><time>2026-05-02T07:34:43.285Z</time></trkpt><trkpt lat="42.28584" lon="13.9688867"><ele>292.57142857142856</ele><time>2026-05-02T07:34:44.285Z</time></trkpt><trkpt lat="42.285875" lon="13.9688033"><ele>293.7142857142857</ele><time>2026-05-02T07:34:45.285Z</time></trkpt><trkpt lat="42.28591" lon="13.9687233"><ele>294.8571428571429</ele><time>2026-05-02T07:34:46.286Z</time></trkpt><trkpt lat="42.2859533" lon="13.968655"><ele>296.0</ele><time>2026-05-02T07:34:47.286Z</time></trkpt><trkpt lat="42.2860083" lon="13.968595"><ele>296.0</ele><time>2026-05-02T07:34:48.285Z</time></trkpt><trkpt lat="42.2860617" lon="13.9685283"><ele>296.0</ele><time>2026-05-02T07:34:49.285Z</time></trkpt><trkpt lat="42.286125" lon="13.9684467"><ele>296.0</ele><time>2026-05-02T07:34:50.285Z</time></trkpt><trkpt lat="42.2861883" lon="13.968345"><ele>296.0</ele><time>2026-05-02T07:34:51.285Z</time></trkpt><trkpt lat="42.2862467" lon="13.96824"><ele>296.0</ele><time>2026-05-02T07:34:52.285Z</time></trkpt><trkpt lat="42.2862983" lon="13.9681467"><ele>296.0</ele><time>2026-05-02T07:34:53.285Z</time></trkpt><trkpt lat="42.28636" lon="13.968045"><ele>296.0</ele><time>2026-05-02T07:34:54.285Z</time></trkpt><trkpt lat="42.28642" lon="13.9679383"><ele>296.0</ele><time>2026-05-02T07:34:55.286Z</time></trkpt><trkpt lat="42.286475" lon="13.9678383"><ele>296.0</ele><time>2026-05-02T07:34:56.285Z</time></trkpt><trkpt lat="42.28652" lon="13.9677417"><ele>296.0</ele><time>2026-05-02T07:34:57.286Z</time></trkpt><trkpt lat="42.2865733" lon="13.9676317"><ele>296.0</ele><time>2026-05-02T07:34:58.285Z</time></trkpt><trkpt lat="42.28663" lon="13.9675267"><ele>296.0</ele><time>2026-05-02T07:34:59.285Z</time></trkpt><trkpt lat="42.2866833" lon="13.9674383"><ele>296.0</ele><time>2026-05-02T07:35:00.285Z</time></trkpt><trkpt lat="42.28673" lon="13.9673567"><ele>296.0</ele><time>2026-05-02T07:35:01.285Z</time></trkpt><trkpt lat="42.2867783" lon="13.96728"><ele>296.0</ele><time>2026-05-02T07:35:02.285Z</time></trkpt><trkpt lat="42.2868267" lon="13.96721"><ele>296.0</ele><time>2026-05-02T07:35:03.285Z</time></trkpt><trkpt lat="42.2868783" lon="13.9671333"><ele>296.0</ele><time>2026-05-02T07:35:04.285Z</time></trkpt><trkpt lat="42.2869283" lon="13.9670433"><ele>296.0</ele><time>2026-05-02T07:35:05.285Z</time></trkpt><trkpt lat="42.2869717" lon="13.96695"><ele>296.0</ele><time>2026-05-02T07:35:06.285Z</time></trkpt><trkpt lat="42.287005" lon="13.9668533"><ele>296.0</ele><time>2026-05-02T07:35:07.285Z</time></trkpt><trkpt lat="42.2870233" lon="13.9667483"><ele>296.0</ele><time>2026-05-02T07:35:08.285Z</time></trkpt><trkpt lat="42.2870117" lon="13.9666467"><ele>296.0</ele><time>2026-05-02T07:35:09.285Z</time></trkpt><trkpt lat="42.2869917" lon="13.9665333"><ele>296.0</ele><time>2026-05-02T07:35:10.285Z</time></trkpt><trkpt lat="42.2869567" lon="13.9664133"><ele>298.2</ele><time>2026-05-02T07:35:11.285Z</time></trkpt><trkpt lat="42.2869183" lon="13.966285"><ele>300.40000000000003</ele><time>2026-05-02T07:35:12.285Z</time></trkpt><trkpt lat="42.2868817" lon="13.9661533"><ele>302.6</ele><time>2026-05-02T07:35:13.285Z</time></trkpt><trkpt lat="42.2868417" lon="13.9660133"><ele>304.8</ele><time>2026-05-02T07:35:14.285Z</time></trkpt><trkpt lat="42.2867983" lon="13.9658733"><ele>307.0</ele><time>2026-05-02T07:35:15.285Z</time></trkpt><trkpt lat="42.2867567" lon="13.96574"><ele>308.0</ele><time>2026-05-02T07:35:16.285Z</time></trkpt><trkpt lat="42.286715" lon="13.9655933"><ele>309.0</ele><time>2026-05-02T07:35:17.285Z</time></trkpt><trkpt lat="42.2866733" lon="13.96545"><ele>310.0</ele><time>2026-05-02T07:35:18.285Z</time></trkpt><trkpt lat="42.2866333" lon="13.96532"><ele>311.0</ele><time>2026-05-02T07:35:19.285Z</time></trkpt><trkpt lat="42.286605" lon="13.965195"><ele>312.0</ele><time>2026-05-02T07:35:20.285Z</time></trkpt><trkpt lat="42.2865817" lon="13.9650583"><ele>312.2</ele><time>2026-05-02T07:35:21.285Z</time></trkpt><trkpt lat="42.286575" lon="13.9649133"><ele>312.4</ele><time>2026-05-02T07:35:22.285Z</time></trkpt><trkpt lat="42.2865733" lon="13.9647633"><ele>312.6</ele><time>2026-05-02T07:35:23.285Z</time></trkpt><trkpt lat="42.2865783" lon="13.9646283"><ele>312.8</ele><time>2026-05-02T07:35:24.285Z</time></trkpt><trkpt lat="42.2865883" lon="13.9645017"><ele>313.0</ele><time>2026-05-02T07:35:25.285Z</time></trkpt><trkpt lat="42.2866083" lon="13.9643917"><ele>313.0</ele><time>2026-05-02T07:35:26.285Z</time></trkpt><trkpt lat="42.2866383" lon="13.9642783"><ele>313.0</ele><time>2026-05-02T07:35:27.285Z</time></trkpt><trkpt lat="42.2866833" lon="13.9641667"><ele>313.0</ele><time>2026-05-02T07:35:28.285Z</time></trkpt><trkpt lat="42.28674" lon="13.96406"><ele>313.0</ele><time>2026-05-02T07:35:29.285Z</time></trkpt><trkpt lat="42.2868017" lon="13.9639683"><ele>313.0</ele><time>2026-05-02T07:35:30.285Z</time></trkpt><trkpt lat="42.2868617" lon="13.9638867"><ele>313.3333333333333</ele><time>2026-05-02T07:35:31.285Z</time></trkpt><trkpt lat="42.286905" lon="13.9638083"><ele>313.66666666666663</ele><time>2026-05-02T07:35:32.285Z</time></trkpt><trkpt lat="42.28694" lon="13.9637367"><ele>314.0</ele><time>2026-05-02T07:35:33.285Z</time></trkpt><trkpt lat="42.286955" lon="13.9636383"><ele>314.3333333333333</ele><time>2026-05-02T07:35:34.285Z</time></trkpt><trkpt lat="42.2869533" lon="13.9635367"><ele>314.6666666666667</ele><time>2026-05-02T07:35:35.285Z</time></trkpt><trkpt lat="42.2869267" lon="13.963435"><ele>315.0</ele><time>2026-05-02T07:35:36.285Z</time></trkpt><trkpt lat="42.2868833" lon="13.963325"><ele>313.75</ele><time>2026-05-02T07:35:37.285Z</time></trkpt><trkpt lat="42.2868283" lon="13.9631883"><ele>312.5</ele><time>2026-05-02T07:35:38.285Z</time></trkpt><trkpt lat="42.286765" lon="13.9630433"><ele>311.25</ele><time>2026-05-02T07:35:39.286Z</time></trkpt><trkpt lat="42.2867083" lon="13.9628783"><ele>310.0</ele><time>2026-05-02T07:35:40.285Z</time></trkpt><trkpt lat="42.2866367" lon="13.9626883"><ele>310.0</ele><time>2026-05-02T07:35:41.285Z</time></trkpt><trkpt lat="42.28657" lon="13.96251"><ele>310.0</ele><time>2026-05-02T07:35:42.285Z</time></trkpt><trkpt lat="42.28651" lon="13.9623433"><ele>310.0</ele><time>2026-05-02T07:35:43.285Z</time></trkpt><trkpt lat="42.2864583" lon="13.9621917"><ele>310.0</ele><time>2026-05-02T07:35:44.285Z</time></trkpt><trkpt lat="42.2864117" lon="13.96205"><ele>310.0</ele><time>2026-05-02T07:35:45.285Z</time></trkpt><trkpt lat="42.2863633" lon="13.9619083"><ele>310.0</ele><time>2026-05-02T07:35:46.285Z</time></trkpt><trkpt lat="42.2863183" lon="13.9617667"><ele>310.0</ele><time>2026-05-02T07:35:47.285Z</time></trkpt><trkpt lat="42.286275" lon="13.9616417"><ele>310.0</ele><time>2026-05-02T07:35:48.285Z</time></trkpt><trkpt lat="42.2862367" lon="13.9615183"><ele>310.0</ele><time>2026-05-02T07:35:49.285Z</time></trkpt><trkpt lat="42.2862" lon="13.9614067"><ele>309.2</ele><time>2026-05-02T07:35:50.285Z</time></trkpt><trkpt lat="42.286175" lon="13.9612883"><ele>308.4</ele><time>2026-05-02T07:35:51.285Z</time></trkpt><trkpt lat="42.2861567" lon="13.9611667"><ele>307.6</ele><time>2026-05-02T07:35:52.285Z</time></trkpt><trkpt lat="42.2861433" lon="13.961035"><ele>306.8</ele><time>2026-05-02T07:35:53.285Z</time></trkpt><trkpt lat="42.2861433" lon="13.9609033"><ele>306.0</ele><time>2026-05-02T07:35:54.285Z</time></trkpt><trkpt lat="42.28615" lon="13.9607633"><ele>305.5</ele><time>2026-05-02T07:35:55.285Z</time></trkpt><trkpt lat="42.286165" lon="13.9606133"><ele>305.0</ele><time>2026-05-02T07:35:56.285Z</time></trkpt><trkpt lat="42.2861867" lon="13.9604533"><ele>304.5</ele><time>2026-05-02T07:35:57.286Z</time></trkpt><trkpt lat="42.286215" lon="13.96028"><ele>304.0</ele><time>2026-05-02T07:35:58.285Z</time></trkpt><trkpt lat="42.286245" lon="13.9601217"><ele>304.0</ele><time>2026-05-02T07:35:59.285Z</time></trkpt><trkpt lat="42.28626" lon="13.9599867"><ele>304.0</ele><time>2026-05-02T07:36:00.285Z</time></trkpt><trkpt lat="42.28627" lon="13.9598733"><ele>304.0</ele><time>2026-05-02T07:36:01.285Z</time></trkpt><trkpt lat="42.28628" lon="13.9597783"><ele>304.0</ele><time>2026-05-02T07:36:02.285Z</time></trkpt><trkpt lat="42.2862867" lon="13.95969"><ele>304.0</ele><time>2026-05-02T07:36:03.285Z</time></trkpt><trkpt lat="42.286295" lon="13.9595983"><ele>304.0</ele><time>2026-05-02T07:36:04.285Z</time></trkpt><trkpt lat="42.2862933" lon="13.959505"><ele>304.0</ele><time>2026-05-02T07:36:05.285Z</time></trkpt><trkpt lat="42.286285" lon="13.9594033"><ele>304.0</ele><time>2026-05-02T07:36:06.285Z</time></trkpt><trkpt lat="42.28626" lon="13.9592933"><ele>304.0</ele><time>2026-05-02T07:36:07.285Z</time></trkpt><trkpt lat="42.28622" lon="13.9591833"><ele>304.0</ele><time>2026-05-02T07:36:08.285Z</time></trkpt><trkpt lat="42.2861617" lon="13.9590783"><ele>304.0</ele><time>2026-05-02T07:36:09.285Z</time></trkpt><trkpt lat="42.2860967" lon="13.9589783"><ele>304.0</ele><time>2026-05-02T07:36:10.285Z</time></trkpt><trkpt lat="42.2860317" lon="13.9588967"><ele>302.66666666666663</ele><time>2026-05-02T07:36:11.286Z</time></trkpt><trkpt lat="42.28597" lon="13.95882"><ele>301.3333333333333</ele><time>2026-05-02T07:36:12.285Z</time></trkpt><trkpt lat="42.2859083" lon="13.958745"><ele>300.0</ele><time>2026-05-02T07:36:13.285Z</time></trkpt><trkpt lat="42.2858483" lon="13.9586667"><ele>298.6666666666667</ele><time>2026-05-02T07:36:14.285Z</time></trkpt><trkpt lat="42.2857883" lon="13.9585967"><ele>297.33333333333337</ele><time>2026-05-02T07:36:15.285Z</time></trkpt><trkpt lat="42.2857417" lon="13.9585317"><ele>296.0</ele><time>2026-05-02T07:36:16.285Z</time></trkpt><trkpt lat="42.2856917" lon="13.9584233"><ele>295.5</ele><time>2026-05-02T07:36:18.285Z</time></trkpt><trkpt lat="42.2856633" lon="13.9582983"><ele>295.0</ele><time>2026-05-02T07:36:21.285Z</time></trkpt><trkpt lat="42.2855783" lon="13.95819"><ele>294.5</ele><time>2026-05-02T07:36:23.285Z</time></trkpt><trkpt lat="42.2855183" lon="13.9581467"><ele>294.0</ele><time>2026-05-02T07:36:24.285Z</time></trkpt><trkpt lat="42.28545" lon="13.9581117"><ele>293.5</ele><time>2026-05-02T07:36:25.285Z</time></trkpt><trkpt lat="42.28538" lon="13.9580817"><ele>293.0</ele><time>2026-05-02T07:36:26.285Z</time></trkpt><trkpt lat="42.2853117" lon="13.958045"><ele>293.0</ele><time>2026-05-02T07:36:27.285Z</time></trkpt><trkpt lat="42.2852433" lon="13.9580117"><ele>293.0</ele><time>2026-05-02T07:36:28.285Z</time></trkpt><trkpt lat="42.2851633" lon="13.9579617"><ele>293.0</ele><time>2026-05-02T07:36:29.285Z</time></trkpt><trkpt lat="42.28507" lon="13.9579083"><ele>293.0</ele><time>2026-05-02T07:36:30.285Z</time></trkpt><trkpt lat="42.2849667" lon="13.9578483"><ele>293.0</ele><time>2026-05-02T07:36:31.285Z</time></trkpt><trkpt lat="42.2848633" lon="13.9577867"><ele>291.75</ele><time>2026-05-02T07:36:32.285Z</time></trkpt><trkpt lat="42.2847567" lon="13.9577217"><ele>290.5</ele><time>2026-05-02T07:36:33.285Z</time></trkpt><trkpt lat="42.2846567" lon="13.9576683"><ele>289.25</ele><time>2026-05-02T07:36:34.285Z</time></trkpt><trkpt lat="42.2845517" lon="13.9575883"><ele>288.0</ele><time>2026-05-02T07:36:35.285Z</time></trkpt><trkpt lat="42.2844433" lon="13.9575117"><ele>287.25</ele><time>2026-05-02T07:36:36.285Z</time></trkpt><trkpt lat="42.284345" lon="13.9574417"><ele>286.5</ele><time>2026-05-02T07:36:37.285Z</time></trkpt><trkpt lat="42.2842483" lon="13.9573567"><ele>285.75</ele><time>2026-05-02T07:36:38.286Z</time></trkpt><trkpt lat="42.2841583" lon="13.9572517"><ele>285.0</ele><time>2026-05-02T07:36:39.285Z</time></trkpt><trkpt lat="42.2840783" lon="13.957145"><ele>285.0</ele><time>2026-05-02T07:36:40.285Z</time></trkpt><trkpt lat="42.2839933" lon="13.9570367"><ele>285.0</ele><time>2026-05-02T07:36:41.285Z</time></trkpt><trkpt lat="42.2839067" lon="13.956925"><ele>285.0</ele><time>2026-05-02T07:36:42.285Z</time></trkpt><trkpt lat="42.2838217" lon="13.9568083"><ele>285.0</ele><time>2026-05-02T07:36:43.285Z</time></trkpt><trkpt lat="42.2837367" lon="13.9566917"><ele>283.0</ele><time>2026-05-02T07:36:44.285Z</time></trkpt><trkpt lat="42.28366" lon="13.9565783"><ele>281.0</ele><time>2026-05-02T07:36:45.285Z</time></trkpt><trkpt lat="42.283585" lon="13.9564667"><ele>279.0</ele><time>2026-05-02T07:36:46.285Z</time></trkpt><trkpt lat="42.2835083" lon="13.956345"><ele>277.0</ele><time>2026-05-02T07:36:47.285Z</time></trkpt><trkpt lat="42.2834267" lon="13.9562183"><ele>277.0</ele><time>2026-05-02T07:36:48.285Z</time></trkpt><trkpt lat="42.2833367" lon="13.9560883"><ele>277.0</ele><time>2026-05-02T07:36:49.285Z</time></trkpt><trkpt lat="42.2832317" lon="13.9559617"><ele>277.0</ele><time>2026-05-02T07:36:50.285Z</time></trkpt><trkpt lat="42.2831283" lon="13.95583"><ele>277.0</ele><time>2026-05-02T07:36:51.285Z</time></trkpt><trkpt lat="42.2830183" lon="13.955715"><ele>275.0</ele><time>2026-05-02T07:36:52.285Z</time></trkpt><trkpt lat="42.2829183" lon="13.9555967"><ele>273.0</ele><time>2026-05-02T07:36:53.285Z</time></trkpt><trkpt lat="42.2828233" lon="13.955475"><ele>271.0</ele><time>2026-05-02T07:36:54.286Z</time></trkpt><trkpt lat="42.2827317" lon="13.95536"><ele>269.0</ele><time>2026-05-02T07:36:55.285Z</time></trkpt><trkpt lat="42.282645" lon="13.9552467"><ele>269.0</ele><time>2026-05-02T07:36:56.285Z</time></trkpt><trkpt lat="42.2825583" lon="13.955145"><ele>269.0</ele><time>2026-05-02T07:36:57.285Z</time></trkpt><trkpt lat="42.2824733" lon="13.9550533"><ele>269.0</ele><time>2026-05-02T07:36:58.286Z</time></trkpt><trkpt lat="42.282385" lon="13.9549817"><ele>269.0</ele><time>2026-05-02T07:36:59.285Z</time></trkpt><trkpt lat="42.2822833" lon="13.95493"><ele>269.0</ele><time>2026-05-02T07:37:00.285Z</time></trkpt><trkpt lat="42.2821667" lon="13.9548983"><ele>267.0</ele><time>2026-05-02T07:37:01.285Z</time></trkpt><trkpt lat="42.2820433" lon="13.9548967"><ele>265.0</ele><time>2026-05-02T07:37:02.285Z</time></trkpt><trkpt lat="42.28192" lon="13.95491"><ele>263.0</ele><time>2026-05-02T07:37:03.285Z</time></trkpt><trkpt lat="42.28181" lon="13.95492"><ele>261.0</ele><time>2026-05-02T07:37:04.286Z</time></trkpt><trkpt lat="42.281705" lon="13.95492"><ele>261.0</ele><time>2026-05-02T07:37:05.285Z</time></trkpt><trkpt lat="42.2816033" lon="13.9549083"><ele>261.0</ele><time>2026-05-02T07:37:06.285Z</time></trkpt><trkpt lat="42.2815083" lon="13.9548767"><ele>261.0</ele><time>2026-05-02T07:37:07.285Z</time></trkpt><trkpt lat="42.281405" lon="13.95481"><ele>261.0</ele><time>2026-05-02T07:37:08.285Z</time></trkpt><trkpt lat="42.2812883" lon="13.9547"><ele>260.0</ele><time>2026-05-02T07:37:09.285Z</time></trkpt><trkpt lat="42.2811717" lon="13.9545733"><ele>259.0</ele><time>2026-05-02T07:37:10.285Z</time></trkpt><trkpt lat="42.2810433" lon="13.954465"><ele>258.0</ele><time>2026-05-02T07:37:11.285Z</time></trkpt><trkpt lat="42.2808967" lon="13.95438"><ele>258.0</ele><time>2026-05-02T07:37:12.285Z</time></trkpt><trkpt lat="42.2807567" lon="13.954295"><ele>258.0</ele><time>2026-05-02T07:37:13.285Z</time></trkpt><trkpt lat="42.280625" lon="13.9542017"><ele>258.0</ele><time>2026-05-02T07:37:14.285Z</time></trkpt><trkpt lat="42.2805067" lon="13.9541083"><ele>258.0</ele><time>2026-05-02T07:37:15.286Z</time></trkpt><trkpt lat="42.2803933" lon="13.9540267"><ele>254.5</ele><time>2026-05-02T07:37:16.285Z</time></trkpt><trkpt lat="42.2802833" lon="13.95397"><ele>251.0</ele><time>2026-05-02T07:37:17.285Z</time></trkpt><trkpt lat="42.280175" lon="13.953925"><ele>247.5</ele><time>2026-05-02T07:37:18.285Z</time></trkpt><trkpt lat="42.2800633" lon="13.9539"><ele>244.0</ele><time>2026-05-02T07:37:19.285Z</time></trkpt><trkpt lat="42.2799483" lon="13.9538967"><ele>244.0</ele><time>2026-05-02T07:37:20.285Z</time></trkpt><trkpt lat="42.2798367" lon="13.9538933"><ele>244.0</ele><time>2026-05-02T07:37:21.285Z</time></trkpt><trkpt lat="42.2797283" lon="13.9538583"><ele>244.0</ele><time>2026-05-02T07:37:22.285Z</time></trkpt><trkpt lat="42.2796033" lon="13.9538083"><ele>244.0</ele><time>2026-05-02T07:37:23.285Z</time></trkpt><trkpt lat="42.279465" lon="13.9537533"><ele>243.75</ele><time>2026-05-02T07:37:24.285Z</time></trkpt><trkpt lat="42.2793217" lon="13.9536933"><ele>243.5</ele><time>2026-05-02T07:37:25.285Z</time></trkpt><trkpt lat="42.2791783" lon="13.95365"><ele>243.25</ele><time>2026-05-02T07:37:26.285Z</time></trkpt><trkpt lat="42.2790333" lon="13.9535983"><ele>243.0</ele><time>2026-05-02T07:37:27.285Z</time></trkpt><trkpt lat="42.27888" lon="13.9535583"><ele>244.25</ele><time>2026-05-02T07:37:28.285Z</time></trkpt><trkpt lat="42.2787333" lon="13.95351"><ele>245.5</ele><time>2026-05-02T07:37:29.285Z</time></trkpt><trkpt lat="42.2785917" lon="13.95346"><ele>246.75</ele><time>2026-05-02T07:37:30.285Z</time></trkpt><trkpt lat="42.2784467" lon="13.95341"><ele>248.0</ele><time>2026-05-02T07:37:31.285Z</time></trkpt><trkpt lat="42.2782883" lon="13.95336"><ele>244.33333333333334</ele><time>2026-05-02T07:37:32.285Z</time></trkpt><trkpt lat="42.278125" lon="13.9533117"><ele>240.66666666666669</ele><time>2026-05-02T07:37:33.285Z</time></trkpt><trkpt lat="42.2779667" lon="13.9532617"><ele>237.0</ele><time>2026-05-02T07:37:34.285Z</time></trkpt><trkpt lat="42.27781" lon="13.9532233"><ele>237.0</ele><time>2026-05-02T07:37:35.286Z</time></trkpt><trkpt lat="42.2776667" lon="13.9531833"><ele>237.0</ele><time>2026-05-02T07:37:36.285Z</time></trkpt><trkpt lat="42.277545" lon="13.95315"><ele>237.0</ele><time>2026-05-02T07:37:37.285Z</time></trkpt><trkpt lat="42.2774483" lon="13.953115"><ele>237.0</ele><time>2026-05-02T07:37:38.285Z</time></trkpt><trkpt lat="42.277375" lon="13.95309"><ele>237.0</ele><time>2026-05-02T07:37:39.285Z</time></trkpt><trkpt lat="42.2773133" lon="13.95307"><ele>237.0</ele><time>2026-05-02T07:37:40.285Z</time></trkpt><trkpt lat="42.2772367" lon="13.95302"><ele>237.0</ele><time>2026-05-02T07:37:42.285Z</time></trkpt><trkpt lat="42.2772317" lon="13.952935"><ele>237.0</ele><time>2026-05-02T07:37:45.285Z</time></trkpt><trkpt lat="42.277335" lon="13.952935"><ele>237.0</ele><time>2026-05-02T07:37:48.285Z</time></trkpt><trkpt lat="42.2774367" lon="13.9529817"><ele>237.0</ele><time>2026-05-02T07:37:50.285Z</time></trkpt><trkpt lat="42.2775417" lon="13.9529983"><ele>237.0</ele><time>2026-05-02T07:37:52.285Z</time></trkpt><trkpt lat="42.2776367" lon="13.9529883"><ele>237.0</ele><time>2026-05-02T07:37:54.285Z</time></trkpt><trkpt lat="42.2777133" lon="13.9529567"><ele>237.0</ele><time>2026-05-02T07:37:56.286Z</time></trkpt><trkpt lat="42.2777817" lon="13.952905"><ele>237.0</ele><time>2026-05-02T07:37:58.285Z</time></trkpt><trkpt lat="42.277835" lon="13.952825"><ele>237.0</ele><time>2026-05-02T07:38:00.285Z</time></trkpt><trkpt lat="42.2778533" lon="13.9527017"><ele>237.0</ele><time>2026-05-02T07:38:02.285Z</time></trkpt><trkpt lat="42.277845" lon="13.9525717"><ele>235.0</ele><time>2026-05-02T07:38:04.285Z</time></trkpt><trkpt lat="42.277805" lon="13.95246"><ele>233.0</ele><time>2026-05-02T07:38:06.285Z</time></trkpt><trkpt lat="42.277745" lon="13.9523617"><ele>231.0</ele><time>2026-05-02T07:38:08.285Z</time></trkpt><trkpt lat="42.277675" lon="13.9522967"><ele>229.0</ele><time>2026-05-02T07:38:10.285Z</time></trkpt><trkpt lat="42.2775983" lon="13.9522433"><ele>227.0</ele><time>2026-05-02T07:38:12.285Z</time></trkpt><trkpt lat="42.277535" lon="13.952205"><ele>225.0</ele><time>2026-05-02T07:38:14.285Z</time></trkpt><trkpt lat="42.2774467" lon="13.9521417"><ele>225.00000000000003</ele><time>2026-05-02T07:38:17.285Z</time></trkpt><trkpt lat="42.27739" lon="13.9520833"><ele>225.0</ele><time>2026-05-02T07:38:19.285Z</time></trkpt><trkpt lat="42.2773617" lon="13.9519933"><ele>225.00000000000003</ele><time>2026-05-02T07:38:21.285Z</time></trkpt><trkpt lat="42.2773517" lon="13.9519083"><ele>225.00000000000003</ele><time>2026-05-02T07:38:23.286Z</time></trkpt><trkpt lat="42.277355" lon="13.9518083"><ele>225.0</ele><time>2026-05-02T07:38:25.285Z</time></trkpt><trkpt lat="42.2773733" lon="13.95171"><ele>225.00000000000003</ele><time>2026-05-02T07:38:27.286Z</time></trkpt><trkpt lat="42.277395" lon="13.951625"><ele>225.00000000000003</ele><time>2026-05-02T07:38:29.285Z</time></trkpt><trkpt lat="42.277445" lon="13.9515233"><ele>223.0</ele><time>2026-05-02T07:38:32.285Z</time></trkpt><trkpt lat="42.2775417" lon="13.951485"><ele>221.0</ele><time>2026-05-02T07:38:35.285Z</time></trkpt><trkpt lat="42.2776217" lon="13.9515017"><ele>219.0</ele><time>2026-05-02T07:38:37.285Z</time></trkpt><trkpt lat="42.277695" lon="13.9515317"><ele>217.0</ele><time>2026-05-02T07:38:39.285Z</time></trkpt><trkpt lat="42.2777567" lon="13.9515083"><ele>215.0</ele><time>2026-05-02T07:38:41.286Z</time></trkpt><trkpt lat="42.2777817" lon="13.95143"><ele>213.0</ele><time>2026-05-02T07:38:43.285Z</time></trkpt><trkpt lat="42.2777383" lon="13.9513333"><ele>213.0</ele><time>2026-05-02T07:38:45.285Z</time></trkpt><trkpt lat="42.2776733" lon="13.9512017"><ele>213.0</ele><time>2026-05-02T07:38:47.285Z</time></trkpt><trkpt lat="42.2776417" lon="13.9511217"><ele>213.0</ele><time>2026-05-02T07:38:48.285Z</time></trkpt><trkpt lat="42.2776067" lon="13.9510283"><ele>213.0</ele><time>2026-05-02T07:38:49.285Z</time></trkpt><trkpt lat="42.27757" lon="13.9509317"><ele>213.0</ele><time>2026-05-02T07:38:50.285Z</time></trkpt><trkpt lat="42.27753" lon="13.9508483"><ele>213.0</ele><time>2026-05-02T07:38:51.285Z</time></trkpt><trkpt lat="42.27749" lon="13.95077"><ele>211.28571428571428</ele><time>2026-05-02T07:38:52.285Z</time></trkpt><trkpt lat="42.27745" lon="13.95069"><ele>209.57142857142856</ele><time>2026-05-02T07:38:53.285Z</time></trkpt><trkpt lat="42.2774117" lon="13.9506067"><ele>207.85714285714283</ele><time>2026-05-02T07:38:54.285Z</time></trkpt><trkpt lat="42.27737" lon="13.95053"><ele>206.14285714285714</ele><time>2026-05-02T07:38:55.286Z</time></trkpt><trkpt lat="42.2773267" lon="13.950445"><ele>204.42857142857144</ele><time>2026-05-02T07:38:56.285Z</time></trkpt><trkpt lat="42.277285" lon="13.9503683"><ele>202.7142857142857</ele><time>2026-05-02T07:38:57.285Z</time></trkpt><trkpt lat="42.2772417" lon="13.9502917"><ele>201.0</ele><time>2026-05-02T07:38:58.285Z</time></trkpt><trkpt lat="42.2771517" lon="13.9501833"><ele>201.0</ele><time>2026-05-02T07:39:00.285Z</time></trkpt><trkpt lat="42.277065" lon="13.950085"><ele>201.0</ele><time>2026-05-02T07:39:02.285Z</time></trkpt><trkpt lat="42.2769883" lon="13.9500267"><ele>201.0</ele><time>2026-05-02T07:39:04.285Z</time></trkpt><trkpt lat="42.276945" lon="13.9499583"><ele>201.0</ele><time>2026-05-02T07:39:06.285Z</time></trkpt><trkpt lat="42.2770133" lon="13.9498583"><ele>201.0</ele><time>2026-05-02T07:39:09.285Z</time></trkpt><trkpt lat="42.277135" lon="13.9498467"><ele>199.66666666666666</ele><time>2026-05-02T07:39:11.285Z</time></trkpt><trkpt lat="42.2772083" lon="13.9498533"><ele>198.33333333333331</ele><time>2026-05-02T07:39:12.285Z</time></trkpt><trkpt lat="42.2772767" lon="13.94985"><ele>197.0</ele><time>2026-05-02T07:39:13.285Z</time></trkpt><trkpt lat="42.2773833" lon="13.9497783"><ele>195.66666666666666</ele><time>2026-05-02T07:39:15.285Z</time></trkpt><trkpt lat="42.2774183" lon="13.9497017"><ele>194.33333333333331</ele><time>2026-05-02T07:39:16.285Z</time></trkpt><trkpt lat="42.277435" lon="13.9496133"><ele>193.0</ele><time>2026-05-02T07:39:17.285Z</time></trkpt><trkpt lat="42.2774183" lon="13.949455"><ele>193.0</ele><time>2026-05-02T07:39:19.285Z</time></trkpt><trkpt lat="42.277325" lon="13.9493367"><ele>193.0</ele><time>2026-05-02T07:39:21.285Z</time></trkpt><trkpt lat="42.27726" lon="13.9493017"><ele>193.0</ele><time>2026-05-02T07:39:22.285Z</time></trkpt><trkpt lat="42.2771867" lon="13.9492817"><ele>193.0</ele><time>2026-05-02T07:39:23.285Z</time></trkpt><trkpt lat="42.2771233" lon="13.9492667"><ele>193.0</ele><time>2026-05-02T07:39:24.285Z</time></trkpt><trkpt lat="42.2770117" lon="13.949185"><ele>191.83333333333331</ele><time>2026-05-02T07:39:26.285Z</time></trkpt><trkpt lat="42.2769467" lon="13.9491083"><ele>190.66666666666666</ele><time>2026-05-02T07:39:27.285Z</time></trkpt><trkpt lat="42.276875" lon="13.94903"><ele>189.5</ele><time>2026-05-02T07:39:28.285Z</time></trkpt><trkpt lat="42.2768067" lon="13.94896"><ele>188.33333333333331</ele><time>2026-05-02T07:39:29.285Z</time></trkpt><trkpt lat="42.27675" lon="13.948895"><ele>187.16666666666666</ele><time>2026-05-02T07:39:30.285Z</time></trkpt><trkpt lat="42.2767033" lon="13.94881"><ele>186.0</ele><time>2026-05-02T07:39:31.285Z</time></trkpt><trkpt lat="42.276665" lon="13.9487067"><ele>186.0</ele><time>2026-05-02T07:39:32.285Z</time></trkpt><trkpt lat="42.27663" lon="13.9485833"><ele>186.0</ele><time>2026-05-02T07:39:33.285Z</time></trkpt><trkpt lat="42.276595" lon="13.94845"><ele>186.0</ele><time>2026-05-02T07:39:34.285Z</time></trkpt><trkpt lat="42.27657" lon="13.9483117"><ele>186.0</ele><time>2026-05-02T07:39:35.286Z</time></trkpt><trkpt lat="42.2765533" lon="13.9481783"><ele>186.0</ele><time>2026-05-02T07:39:36.285Z</time></trkpt><trkpt lat="42.2765317" lon="13.9480367"><ele>187.0</ele><time>2026-05-02T07:39:37.285Z</time></trkpt><trkpt lat="42.2765067" lon="13.9478967"><ele>188.0</ele><time>2026-05-02T07:39:38.286Z</time></trkpt><trkpt lat="42.2764883" lon="13.94776"><ele>189.0</ele><time>2026-05-02T07:39:39.285Z</time></trkpt><trkpt lat="42.2764667" lon="13.947625"><ele>190.0</ele><time>2026-05-02T07:39:40.285Z</time></trkpt><trkpt lat="42.27645" lon="13.94749"><ele>191.0</ele><time>2026-05-02T07:39:41.285Z</time></trkpt><trkpt lat="42.2764333" lon="13.9473617"><ele>191.60000000000002</ele><time>2026-05-02T07:39:42.285Z</time></trkpt><trkpt lat="42.2764167" lon="13.9472233"><ele>192.2</ele><time>2026-05-02T07:39:43.285Z</time></trkpt><trkpt lat="42.2763983" lon="13.9470783"><ele>192.8</ele><time>2026-05-02T07:39:44.285Z</time></trkpt><trkpt lat="42.2763783" lon="13.94694"><ele>193.39999999999998</ele><time>2026-05-02T07:39:45.285Z</time></trkpt><trkpt lat="42.276355" lon="13.9468017"><ele>194.0</ele><time>2026-05-02T07:39:46.285Z</time></trkpt><trkpt lat="42.2763367" lon="13.9466783"><ele>194.00000000000003</ele><time>2026-05-02T07:39:47.285Z</time></trkpt><trkpt lat="42.276315" lon="13.946565"><ele>194.0</ele><time>2026-05-02T07:39:48.285Z</time></trkpt><trkpt lat="42.2762917" lon="13.9464483"><ele>194.0</ele><time>2026-05-02T07:39:49.285Z</time></trkpt><trkpt lat="42.27626" lon="13.946345"><ele>194.0</ele><time>2026-05-02T07:39:50.286Z</time></trkpt><trkpt lat="42.2762167" lon="13.9462583"><ele>194.00000000000003</ele><time>2026-05-02T07:39:51.285Z</time></trkpt><trkpt lat="42.2761583" lon="13.9461767"><ele>194.0</ele><time>2026-05-02T07:39:52.285Z</time></trkpt><trkpt lat="42.2760883" lon="13.9461167"><ele>194.0</ele><time>2026-05-02T07:39:53.285Z</time></trkpt><trkpt lat="42.2760083" lon="13.9460667"><ele>194.0</ele><time>2026-05-02T07:39:54.285Z</time></trkpt><trkpt lat="42.2759233" lon="13.946005"><ele>194.0</ele><time>2026-05-02T07:39:55.285Z</time></trkpt><trkpt lat="42.27583" lon="13.9459433"><ele>194.0</ele><time>2026-05-02T07:39:56.285Z</time></trkpt><trkpt lat="42.2757383" lon="13.945885"><ele>194.0</ele><time>2026-05-02T07:39:57.285Z</time></trkpt><trkpt lat="42.2756617" lon="13.9458283"><ele>193.79999999999998</ele><time>2026-05-02T07:39:58.285Z</time></trkpt><trkpt lat="42.275595" lon="13.9457717"><ele>193.6</ele><time>2026-05-02T07:39:59.285Z</time></trkpt><trkpt lat="42.2755417" lon="13.945715"><ele>193.4</ele><time>2026-05-02T07:40:00.285Z</time></trkpt><trkpt lat="42.2754883" lon="13.94559"><ele>193.2</ele><time>2026-05-02T07:40:02.285Z</time></trkpt><trkpt lat="42.2755067" lon="13.9454383"><ele>193.0</ele><time>2026-05-02T07:40:04.285Z</time></trkpt><trkpt lat="42.2756" lon="13.94536"><ele>196.2</ele><time>2026-05-02T07:40:06.285Z</time></trkpt><trkpt lat="42.2756833" lon="13.9453383"><ele>199.4</ele><time>2026-05-02T07:40:07.285Z</time></trkpt><trkpt lat="42.27579" lon="13.9453167"><ele>202.6</ele><time>2026-05-02T07:40:08.285Z</time></trkpt><trkpt lat="42.2759117" lon="13.945295"><ele>205.79999999999998</ele><time>2026-05-02T07:40:09.285Z</time></trkpt><trkpt lat="42.2760317" lon="13.9452633"><ele>209.0</ele><time>2026-05-02T07:40:10.285Z</time></trkpt><trkpt lat="42.27614" lon="13.9452383"><ele>209.0</ele><time>2026-05-02T07:40:11.285Z</time></trkpt><trkpt lat="42.2762483" lon="13.9452217"><ele>209.0</ele><time>2026-05-02T07:40:12.285Z</time></trkpt><trkpt lat="42.2763517" lon="13.945205"><ele>209.0</ele><time>2026-05-02T07:40:13.285Z</time></trkpt><trkpt lat="42.2764667" lon="13.9451767"><ele>209.0</ele><time>2026-05-02T07:40:14.285Z</time></trkpt><trkpt lat="42.27658" lon="13.9451533"><ele>209.0</ele><time>2026-05-02T07:40:15.285Z</time></trkpt><trkpt lat="42.2766767" lon="13.9451367"><ele>210.6</ele><time>2026-05-02T07:40:16.285Z</time></trkpt><trkpt lat="42.27677" lon="13.9451133"><ele>212.2</ele><time>2026-05-02T07:40:17.285Z</time></trkpt><trkpt lat="42.2768583" lon="13.9450833"><ele>213.79999999999998</ele><time>2026-05-02T07:40:18.285Z</time></trkpt><trkpt lat="42.2769283" lon="13.945045"><ele>215.39999999999998</ele><time>2026-05-02T07:40:19.285Z</time></trkpt><trkpt lat="42.277015" lon="13.944925"><ele>217.0</ele><time>2026-05-02T07:40:21.285Z</time></trkpt><trkpt lat="42.2770417" lon="13.9448367"><ele>218.0</ele><time>2026-05-02T07:40:22.285Z</time></trkpt><trkpt lat="42.2770617" lon="13.9447383"><ele>219.0</ele><time>2026-05-02T07:40:23.285Z</time></trkpt><trkpt lat="42.2770833" lon="13.944585"><ele>220.0</ele><time>2026-05-02T07:40:25.285Z</time></trkpt><trkpt lat="42.2771117" lon="13.9444417"><ele>221.0</ele><time>2026-05-02T07:40:27.285Z</time></trkpt><trkpt lat="42.2771417" lon="13.9443017"><ele>222.0</ele><time>2026-05-02T07:40:29.285Z</time></trkpt><trkpt lat="42.27717" lon="13.9441717"><ele>222.16666666666666</ele><time>2026-05-02T07:40:31.285Z</time></trkpt><trkpt lat="42.2771833" lon="13.94401"><ele>222.33333333333331</ele><time>2026-05-02T07:40:33.286Z</time></trkpt><trkpt lat="42.2771917" lon="13.94392"><ele>222.5</ele><time>2026-05-02T07:40:34.285Z</time></trkpt><trkpt lat="42.277195" lon="13.943825"><ele>222.66666666666666</ele><time>2026-05-02T07:40:35.286Z</time></trkpt><trkpt lat="42.2771933" lon="13.94372"><ele>222.83333333333331</ele><time>2026-05-02T07:40:36.285Z</time></trkpt><trkpt lat="42.277185" lon="13.9436133"><ele>223.0</ele><time>2026-05-02T07:40:37.285Z</time></trkpt><trkpt lat="42.2771717" lon="13.943515"><ele>223.0</ele><time>2026-05-02T07:40:38.285Z</time></trkpt><trkpt lat="42.277155" lon="13.9434217"><ele>223.0</ele><time>2026-05-02T07:40:39.285Z</time></trkpt><trkpt lat="42.2771017" lon="13.9432683"><ele>223.0</ele><time>2026-05-02T07:40:41.285Z</time></trkpt><trkpt lat="42.277025" lon="13.9431467"><ele>223.0</ele><time>2026-05-02T07:40:43.285Z</time></trkpt><trkpt lat="42.2769317" lon="13.9430533"><ele>223.0</ele><time>2026-05-02T07:40:45.285Z</time></trkpt><trkpt lat="42.2768267" lon="13.9429983"><ele>224.2</ele><time>2026-05-02T07:40:47.285Z</time></trkpt><trkpt lat="42.2767283" lon="13.9429583"><ele>225.4</ele><time>2026-05-02T07:40:49.285Z</time></trkpt><trkpt lat="42.2766317" lon="13.9429417"><ele>226.59999999999997</ele><time>2026-05-02T07:40:51.285Z</time></trkpt><trkpt lat="42.27655" lon="13.9429183"><ele>227.79999999999998</ele><time>2026-05-02T07:42:24.285Z</time></trkpt><trkpt lat="42.2764483" lon="13.9429017"><ele>229.0</ele><time>2026-05-02T07:42:26.285Z</time></trkpt><trkpt lat="42.2763283" lon="13.9428817"><ele>229.6</ele><time>2026-05-02T07:42:28.285Z</time></trkpt><trkpt lat="42.2762217" lon="13.9428283"><ele>230.2</ele><time>2026-05-02T07:42:30.285Z</time></trkpt><trkpt lat="42.27614" lon="13.9427333"><ele>230.79999999999998</ele><time>2026-05-02T07:42:32.285Z</time></trkpt><trkpt lat="42.2760817" lon="13.9425917"><ele>231.39999999999998</ele><time>2026-05-02T07:42:34.285Z</time></trkpt><trkpt lat="42.27606" lon="13.9425067"><ele>232.0</ele><time>2026-05-02T07:42:35.286Z</time></trkpt><trkpt lat="42.276035" lon="13.9424233"><ele>232.00000000000003</ele><time>2026-05-02T07:42:36.285Z</time></trkpt><trkpt lat="42.2760067" lon="13.9423367"><ele>232.0</ele><time>2026-05-02T07:42:37.285Z</time></trkpt><trkpt lat="42.275975" lon="13.9422483"><ele>232.00000000000003</ele><time>2026-05-02T07:42:38.286Z</time></trkpt><trkpt lat="42.2759433" lon="13.9421583"><ele>232.00000000000003</ele><time>2026-05-02T07:42:39.285Z</time></trkpt><trkpt lat="42.2759117" lon="13.94207"><ele>232.0</ele><time>2026-05-02T07:42:40.285Z</time></trkpt><trkpt lat="42.27588" lon="13.94198"><ele>232.00000000000003</ele><time>2026-05-02T07:42:41.285Z</time></trkpt><trkpt lat="42.2758517" lon="13.94189"><ele>232.00000000000003</ele><time>2026-05-02T07:42:42.285Z</time></trkpt><trkpt lat="42.2757967" lon="13.9417333"><ele>234.6</ele><time>2026-05-02T07:42:44.285Z</time></trkpt><trkpt lat="42.2757633" lon="13.94166"><ele>237.2</ele><time>2026-05-02T07:42:45.285Z</time></trkpt><trkpt lat="42.2757267" lon="13.9415167"><ele>239.8</ele><time>2026-05-02T07:42:47.285Z</time></trkpt><trkpt lat="42.2757083" lon="13.9413467"><ele>242.4</ele><time>2026-05-02T07:42:49.285Z</time></trkpt><trkpt lat="42.275685" lon="13.9412517"><ele>245.0</ele><time>2026-05-02T07:42:50.285Z</time></trkpt><trkpt lat="42.2756633" lon="13.9411467"><ele>245.00000000000003</ele><time>2026-05-02T07:42:51.285Z</time></trkpt><trkpt lat="42.2756433" lon="13.941045"><ele>245.0</ele><time>2026-05-02T07:42:52.285Z</time></trkpt><trkpt lat="42.2756267" lon="13.940945"><ele>245.0</ele><time>2026-05-02T07:42:53.285Z</time></trkpt><trkpt lat="42.275615" lon="13.94085"><ele>245.0</ele><time>2026-05-02T07:42:54.285Z</time></trkpt><trkpt lat="42.275605" lon="13.94076"><ele>245.00000000000003</ele><time>2026-05-02T07:42:55.285Z</time></trkpt><trkpt lat="42.2756017" lon="13.9405983"><ele>245.0</ele><time>2026-05-02T07:42:57.285Z</time></trkpt><trkpt lat="42.2756167" lon="13.9404267"><ele>245.50000000000003</ele><time>2026-05-02T07:42:59.285Z</time></trkpt><trkpt lat="42.2756267" lon="13.94034"><ele>246.0</ele><time>2026-05-02T07:43:00.285Z</time></trkpt><trkpt lat="42.2756367" lon="13.940255"><ele>246.5</ele><time>2026-05-02T07:43:01.285Z</time></trkpt><trkpt lat="42.2756617" lon="13.9401167"><ele>247.0</ele><time>2026-05-02T07:43:03.286Z</time></trkpt><trkpt lat="42.275605" lon="13.94006"><ele>247.50000000000003</ele><time>2026-05-02T07:43:06.285Z</time></trkpt><trkpt lat="42.27551" lon="13.9401"><ele>248.0</ele><time>2026-05-02T07:43:08.285Z</time></trkpt><trkpt lat="42.2754483" lon="13.9401317"><ele>245.33333333333334</ele><time>2026-05-02T07:43:09.285Z</time></trkpt><trkpt lat="42.275375" lon="13.9401667"><ele>242.66666666666669</ele><time>2026-05-02T07:43:10.285Z</time></trkpt><trkpt lat="42.275305" lon="13.940205"><ele>240.0</ele><time>2026-05-02T07:43:11.285Z</time></trkpt><trkpt lat="42.275245" lon="13.9402433"><ele>237.33333333333331</ele><time>2026-05-02T07:43:12.285Z</time></trkpt><trkpt lat="42.27518" lon="13.9402883"><ele>234.66666666666666</ele><time>2026-05-02T07:43:13.285Z</time></trkpt><trkpt lat="42.27511" lon="13.940335"><ele>232.0</ele><time>2026-05-02T07:43:14.286Z</time></trkpt><trkpt lat="42.275035" lon="13.9403867"><ele>232.0</ele><time>2026-05-02T07:43:15.285Z</time></trkpt><trkpt lat="42.2749533" lon="13.9404433"><ele>232.0</ele><time>2026-05-02T07:43:16.285Z</time></trkpt><trkpt lat="42.2748683" lon="13.9405017"><ele>232.0</ele><time>2026-05-02T07:43:17.285Z</time></trkpt><trkpt lat="42.2747817" lon="13.9405467"><ele>232.0</ele><time>2026-05-02T07:43:18.285Z</time></trkpt><trkpt lat="42.2746967" lon="13.9405983"><ele>232.0</ele><time>2026-05-02T07:43:19.285Z</time></trkpt><trkpt lat="42.2746083" lon="13.9406517"><ele>230.33333333333331</ele><time>2026-05-02T07:43:20.285Z</time></trkpt><trkpt lat="42.2745233" lon="13.9406917"><ele>228.66666666666666</ele><time>2026-05-02T07:43:21.285Z</time></trkpt><trkpt lat="42.2744367" lon="13.9407217"><ele>227.0</ele><time>2026-05-02T07:43:22.285Z</time></trkpt><trkpt lat="42.2743533" lon="13.9407533"><ele>225.33333333333331</ele><time>2026-05-02T07:43:23.285Z</time></trkpt><trkpt lat="42.2742717" lon="13.9407767"><ele>223.66666666666666</ele><time>2026-05-02T07:43:24.285Z</time></trkpt><trkpt lat="42.274195" lon="13.9407933"><ele>222.0</ele><time>2026-05-02T07:43:25.286Z</time></trkpt><trkpt lat="42.2741217" lon="13.9407983"><ele>222.0</ele><time>2026-05-02T07:43:26.285Z</time></trkpt><trkpt lat="42.274045" lon="13.9407917"><ele>222.0</ele><time>2026-05-02T07:43:27.285Z</time></trkpt><trkpt lat="42.2739717" lon="13.9407833"><ele>222.0</ele><time>2026-05-02T07:43:28.285Z</time></trkpt><trkpt lat="42.2738967" lon="13.9407633"><ele>222.0</ele><time>2026-05-02T07:43:29.285Z</time></trkpt><trkpt lat="42.2738117" lon="13.9407367"><ele>222.0</ele><time>2026-05-02T07:43:30.285Z</time></trkpt><trkpt lat="42.2737283" lon="13.9407117"><ele>222.0</ele><time>2026-05-02T07:43:31.285Z</time></trkpt><trkpt lat="42.2736467" lon="13.940685"><ele>219.2</ele><time>2026-05-02T07:43:32.285Z</time></trkpt><trkpt lat="42.2735583" lon="13.9406617"><ele>216.39999999999998</ele><time>2026-05-02T07:43:33.285Z</time></trkpt><trkpt lat="42.27347" lon="13.940635"><ele>213.60000000000002</ele><time>2026-05-02T07:43:34.285Z</time></trkpt><trkpt lat="42.27338" lon="13.9406167"><ele>210.8</ele><time>2026-05-02T07:43:35.285Z</time></trkpt><trkpt lat="42.273285" lon="13.9406"><ele>208.0</ele><time>2026-05-02T07:43:36.285Z</time></trkpt><trkpt lat="42.2731917" lon="13.9405817"><ele>205.8</ele><time>2026-05-02T07:43:37.285Z</time></trkpt><trkpt lat="42.2730917" lon="13.9405633"><ele>203.60000000000002</ele><time>2026-05-02T07:43:38.285Z</time></trkpt><trkpt lat="42.27299" lon="13.9405417"><ele>201.39999999999998</ele><time>2026-05-02T07:43:39.285Z</time></trkpt><trkpt lat="42.2728917" lon="13.9405183"><ele>199.2</ele><time>2026-05-02T07:43:40.286Z</time></trkpt><trkpt lat="42.2728" lon="13.9405"><ele>197.0</ele><time>2026-05-02T07:43:41.285Z</time></trkpt><trkpt lat="42.2727183" lon="13.94049"><ele>197.00000000000003</ele><time>2026-05-02T07:43:42.285Z</time></trkpt><trkpt lat="42.2726367" lon="13.9404783"><ele>197.0</ele><time>2026-05-02T07:43:43.285Z</time></trkpt><trkpt lat="42.27256" lon="13.9404667"><ele>197.0</ele><time>2026-05-02T07:43:44.286Z</time></trkpt><trkpt lat="42.2724933" lon="13.94045"><ele>197.0</ele><time>2026-05-02T07:43:45.285Z</time></trkpt><trkpt lat="42.2724117" lon="13.940395"><ele>197.00000000000003</ele><time>2026-05-02T07:43:47.286Z</time></trkpt><trkpt lat="42.2724117" lon="13.9402833"><ele>197.0</ele><time>2026-05-02T07:43:49.285Z</time></trkpt><trkpt lat="42.2724917" lon="13.940155"><ele>197.00000000000003</ele><time>2026-05-02T07:43:51.285Z</time></trkpt><trkpt lat="42.2725483" lon="13.9400867"><ele>197.0</ele><time>2026-05-02T07:43:52.285Z</time></trkpt><trkpt lat="42.2726117" lon="13.94001"><ele>197.0</ele><time>2026-05-02T07:43:53.285Z</time></trkpt><trkpt lat="42.2726767" lon="13.9399317"><ele>197.0</ele><time>2026-05-02T07:43:54.285Z</time></trkpt><trkpt lat="42.2727367" lon="13.93986"><ele>197.00000000000003</ele><time>2026-05-02T07:43:55.285Z</time></trkpt><trkpt lat="42.2727917" lon="13.9397933"><ele>197.0</ele><time>2026-05-02T07:43:56.285Z</time></trkpt><trkpt lat="42.2728433" lon="13.9397283"><ele>196.8</ele><time>2026-05-02T07:43:57.285Z</time></trkpt><trkpt lat="42.2728917" lon="13.9396633"><ele>196.6</ele><time>2026-05-02T07:43:58.285Z</time></trkpt><trkpt lat="42.2729533" lon="13.9395367"><ele>196.4</ele><time>2026-05-02T07:44:00.286Z</time></trkpt><trkpt lat="42.2729733" lon="13.9394167"><ele>196.20000000000002</ele><time>2026-05-02T07:44:02.285Z</time></trkpt><trkpt lat="42.2729567" lon="13.939285"><ele>196.0</ele><time>2026-05-02T07:44:04.285Z</time></trkpt><trkpt lat="42.272915" lon="13.9391667"><ele>194.25</ele><time>2026-05-02T07:44:06.285Z</time></trkpt><trkpt lat="42.2728533" lon="13.9390533"><ele>192.5</ele><time>2026-05-02T07:44:08.285Z</time></trkpt><trkpt lat="42.27277" lon="13.9389383"><ele>190.75</ele><time>2026-05-02T07:44:10.286Z</time></trkpt><trkpt lat="42.2726817" lon="13.9388133"><ele>189.0</ele><time>2026-05-02T07:44:12.285Z</time></trkpt><trkpt lat="42.272595" lon="13.9386983"><ele>189.0</ele><time>2026-05-02T07:44:14.285Z</time></trkpt><trkpt lat="42.272515" lon="13.93861"><ele>189.0</ele><time>2026-05-02T07:44:16.285Z</time></trkpt><trkpt lat="42.2724283" lon="13.9385467"><ele>189.0</ele><time>2026-05-02T07:44:18.285Z</time></trkpt><trkpt lat="42.2723117" lon="13.9384833"><ele>189.0</ele><time>2026-05-02T07:44:20.286Z</time></trkpt><trkpt lat="42.2722483" lon="13.9384567"><ele>189.0</ele><time>2026-05-02T07:44:21.286Z</time></trkpt><trkpt lat="42.272125" lon="13.93841"><ele>187.79999999999998</ele><time>2026-05-02T07:44:23.285Z</time></trkpt><trkpt lat="42.2720633" lon="13.93839"><ele>186.6</ele><time>2026-05-02T07:44:24.285Z</time></trkpt><trkpt lat="42.2719467" lon="13.9383717"><ele>185.4</ele><time>2026-05-02T07:44:26.285Z</time></trkpt><trkpt lat="42.2718683" lon="13.9383567"><ele>184.2</ele><time>2026-05-02T07:44:28.285Z</time></trkpt><trkpt lat="42.2717967" lon="13.938295"><ele>183.0</ele><time>2026-05-02T07:44:30.285Z</time></trkpt><trkpt lat="42.27175" lon="13.9381683"><ele>181.2</ele><time>2026-05-02T07:44:32.285Z</time></trkpt><trkpt lat="42.2717333" lon="13.9380817"><ele>179.4</ele><time>2026-05-02T07:44:33.285Z</time></trkpt><trkpt lat="42.27171" lon="13.9380017"><ele>177.6</ele><time>2026-05-02T07:44:34.285Z</time></trkpt><trkpt lat="42.27163" lon="13.9378733"><ele>175.79999999999998</ele><time>2026-05-02T07:44:36.285Z</time></trkpt><trkpt lat="42.2715183" lon="13.9378183"><ele>174.0</ele><time>2026-05-02T07:44:38.285Z</time></trkpt><trkpt lat="42.27139" lon="13.9378167"><ele>173.0</ele><time>2026-05-02T07:44:40.285Z</time></trkpt><trkpt lat="42.271265" lon="13.9378367"><ele>172.0</ele><time>2026-05-02T07:44:42.285Z</time></trkpt><trkpt lat="42.2711633" lon="13.9379017"><ele>171.0</ele><time>2026-05-02T07:44:44.285Z</time></trkpt><trkpt lat="42.2710717" lon="13.938015"><ele>170.0</ele><time>2026-05-02T07:44:46.285Z</time></trkpt><trkpt lat="42.2710267" lon="13.93809"><ele>169.0</ele><time>2026-05-02T07:44:47.285Z</time></trkpt><trkpt lat="42.27099" lon="13.9381717"><ele>169.0</ele><time>2026-05-02T07:44:48.285Z</time></trkpt><trkpt lat="42.2709517" lon="13.9382633"><ele>169.0</ele><time>2026-05-02T07:44:49.285Z</time></trkpt><trkpt lat="42.27092" lon="13.9383733"><ele>169.0</ele><time>2026-05-02T07:44:50.285Z</time></trkpt><trkpt lat="42.2708917" lon="13.9384783"><ele>169.0</ele><time>2026-05-02T07:44:51.285Z</time></trkpt><trkpt lat="42.270865" lon="13.9385867"><ele>169.0</ele><time>2026-05-02T07:44:52.285Z</time></trkpt><trkpt lat="42.2708417" lon="13.9386967"><ele>169.0</ele><time>2026-05-02T07:44:53.286Z</time></trkpt><trkpt lat="42.27081" lon="13.938815"><ele>169.39999999999998</ele><time>2026-05-02T07:44:54.285Z</time></trkpt><trkpt lat="42.27078" lon="13.93893"><ele>169.8</ele><time>2026-05-02T07:44:55.285Z</time></trkpt><trkpt lat="42.27075" lon="13.9390483"><ele>170.2</ele><time>2026-05-02T07:44:56.285Z</time></trkpt><trkpt lat="42.270725" lon="13.9391833"><ele>170.60000000000002</ele><time>2026-05-02T07:44:57.285Z</time></trkpt><trkpt lat="42.2707033" lon="13.9393217"><ele>171.0</ele><time>2026-05-02T07:44:58.285Z</time></trkpt><trkpt lat="42.2706817" lon="13.9394683"><ele>171.20000000000002</ele><time>2026-05-02T07:44:59.285Z</time></trkpt><trkpt lat="42.2706583" lon="13.939605"><ele>171.4</ele><time>2026-05-02T07:45:00.285Z</time></trkpt><trkpt lat="42.2706217" lon="13.9397433"><ele>171.6</ele><time>2026-05-02T07:45:01.285Z</time></trkpt><trkpt lat="42.27057" lon="13.939875"><ele>171.8</ele><time>2026-05-02T07:45:02.285Z</time></trkpt><trkpt lat="42.270525" lon="13.94"><ele>172.0</ele><time>2026-05-02T07:45:03.285Z</time></trkpt><trkpt lat="42.2704817" lon="13.9401267"><ele>169.0</ele><time>2026-05-02T07:45:04.285Z</time></trkpt><trkpt lat="42.2704367" lon="13.94025"><ele>166.0</ele><time>2026-05-02T07:45:05.285Z</time></trkpt><trkpt lat="42.2703867" lon="13.9403817"><ele>163.0</ele><time>2026-05-02T07:45:06.285Z</time></trkpt><trkpt lat="42.2703433" lon="13.9405133"><ele>160.0</ele><time>2026-05-02T07:45:07.285Z</time></trkpt><trkpt lat="42.2703" lon="13.9406433"><ele>157.0</ele><time>2026-05-02T07:45:08.285Z</time></trkpt><trkpt lat="42.2702517" lon="13.9407833"><ele>157.0</ele><time>2026-05-02T07:45:09.285Z</time></trkpt><trkpt lat="42.2702133" lon="13.9409133"><ele>157.0</ele><time>2026-05-02T07:45:10.285Z</time></trkpt><trkpt lat="42.27017" lon="13.9410317"><ele>157.0</ele><time>2026-05-02T07:45:11.285Z</time></trkpt><trkpt lat="42.270135" lon="13.9411183"><ele>157.0</ele><time>2026-05-02T07:45:12.285Z</time></trkpt><trkpt lat="42.2700883" lon="13.9412"><ele>157.0</ele><time>2026-05-02T07:45:13.285Z</time></trkpt><trkpt lat="42.2700383" lon="13.941275"><ele>157.0</ele><time>2026-05-02T07:45:14.285Z</time></trkpt><trkpt lat="42.26998" lon="13.94134"><ele>157.0</ele><time>2026-05-02T07:45:15.285Z</time></trkpt><trkpt lat="42.269935" lon="13.9414133"><ele>157.0</ele><time>2026-05-02T07:45:16.285Z</time></trkpt><trkpt lat="42.2699117" lon="13.9415017"><ele>157.0</ele><time>2026-05-02T07:45:17.285Z</time></trkpt><trkpt lat="42.269905" lon="13.9416083"><ele>157.0</ele><time>2026-05-02T07:45:18.285Z</time></trkpt><trkpt lat="42.2699117" lon="13.9417283"><ele>157.0</ele><time>2026-05-02T07:45:19.285Z</time></trkpt><trkpt lat="42.269915" lon="13.9418517"><ele>157.0</ele><time>2026-05-02T07:45:20.285Z</time></trkpt><trkpt lat="42.2699217" lon="13.9419633"><ele>156.33333333333334</ele><time>2026-05-02T07:45:21.285Z</time></trkpt><trkpt lat="42.26992" lon="13.94205"><ele>155.66666666666669</ele><time>2026-05-02T07:45:22.285Z</time></trkpt><trkpt lat="42.26987" lon="13.9422167"><ele>155.0</ele><time>2026-05-02T07:45:24.285Z</time></trkpt><trkpt lat="42.2698117" lon="13.9422767"><ele>154.33333333333334</ele><time>2026-05-02T07:45:25.285Z</time></trkpt><trkpt lat="42.2697483" lon="13.9423167"><ele>153.66666666666666</ele><time>2026-05-02T07:45:26.285Z</time></trkpt><trkpt lat="42.2696667" lon="13.94235"><ele>153.0</ele><time>2026-05-02T07:45:27.285Z</time></trkpt><trkpt lat="42.269575" lon="13.9423833"><ele>152.0</ele><time>2026-05-02T07:45:28.286Z</time></trkpt><trkpt lat="42.2694767" lon="13.9424217"><ele>151.0</ele><time>2026-05-02T07:45:29.285Z</time></trkpt><trkpt lat="42.2693767" lon="13.942455"><ele>150.0</ele><time>2026-05-02T07:45:30.285Z</time></trkpt><trkpt lat="42.26928" lon="13.942485"><ele>149.0</ele><time>2026-05-02T07:45:31.285Z</time></trkpt><trkpt lat="42.26919" lon="13.9425133"><ele>148.0</ele><time>2026-05-02T07:45:32.285Z</time></trkpt><trkpt lat="42.2690983" lon="13.9425433"><ele>148.16666666666669</ele><time>2026-05-02T07:45:33.285Z</time></trkpt><trkpt lat="42.269015" lon="13.9425683"><ele>148.33333333333334</ele><time>2026-05-02T07:45:34.285Z</time></trkpt><trkpt lat="42.26894" lon="13.9425917"><ele>148.5</ele><time>2026-05-02T07:45:35.285Z</time></trkpt><trkpt lat="42.268875" lon="13.9426133"><ele>148.66666666666666</ele><time>2026-05-02T07:45:36.285Z</time></trkpt><trkpt lat="42.2687783" lon="13.9426583"><ele>148.83333333333331</ele><time>2026-05-02T07:45:38.286Z</time></trkpt><trkpt lat="42.2686783" lon="13.9426783"><ele>149.0</ele><time>2026-05-02T07:45:40.285Z</time></trkpt><trkpt lat="42.2686133" lon="13.9426633"><ele>148.83333333333331</ele><time>2026-05-02T07:45:41.285Z</time></trkpt><trkpt lat="42.2685433" lon="13.94265"><ele>148.66666666666666</ele><time>2026-05-02T07:45:42.285Z</time></trkpt><trkpt lat="42.2684717" lon="13.9426167"><ele>148.5</ele><time>2026-05-02T07:45:43.285Z</time></trkpt><trkpt lat="42.2684017" lon="13.9425733"><ele>148.33333333333334</ele><time>2026-05-02T07:45:44.286Z</time></trkpt><trkpt lat="42.268325" lon="13.94252"><ele>148.16666666666669</ele><time>2026-05-02T07:45:45.285Z</time></trkpt><trkpt lat="42.2682617" lon="13.9424517"><ele>148.0</ele><time>2026-05-02T07:45:46.285Z</time></trkpt><trkpt lat="42.26821" lon="13.9423867"><ele>148.0</ele><time>2026-05-02T07:45:47.285Z</time></trkpt><trkpt lat="42.2681583" lon="13.942325"><ele>148.0</ele><time>2026-05-02T07:45:48.285Z</time></trkpt><trkpt lat="42.2680583" lon="13.942275"><ele>148.0</ele><time>2026-05-02T07:45:50.285Z</time></trkpt><trkpt lat="42.2679283" lon="13.9422933"><ele>148.0</ele><time>2026-05-02T07:45:52.285Z</time></trkpt><trkpt lat="42.2678567" lon="13.9423033"><ele>148.0</ele><time>2026-05-02T07:45:53.286Z</time></trkpt><trkpt lat="42.267765" lon="13.9422517"><ele>150.0</ele><time>2026-05-02T07:45:55.285Z</time></trkpt><trkpt lat="42.2677217" lon="13.9421383"><ele>152.0</ele><time>2026-05-02T07:45:57.285Z</time></trkpt><trkpt lat="42.2677133" lon="13.9420117"><ele>154.0</ele><time>2026-05-02T07:45:59.285Z</time></trkpt><trkpt lat="42.2676867" lon="13.94188"><ele>156.0</ele><time>2026-05-02T07:46:01.286Z</time></trkpt><trkpt lat="42.267655" lon="13.9417333"><ele>158.0</ele><time>2026-05-02T07:46:03.285Z</time></trkpt><trkpt lat="42.267615" lon="13.941595"><ele>158.00000000000003</ele><time>2026-05-02T07:46:05.285Z</time></trkpt><trkpt lat="42.2675733" lon="13.9414617"><ele>158.0</ele><time>2026-05-02T07:46:07.285Z</time></trkpt><trkpt lat="42.267535" lon="13.9413933"><ele>158.0</ele><time>2026-05-02T07:46:08.285Z</time></trkpt><trkpt lat="42.2674917" lon="13.94132"><ele>158.0</ele><time>2026-05-02T07:46:09.285Z</time></trkpt><trkpt lat="42.267445" lon="13.94125"><ele>158.0</ele><time>2026-05-02T07:46:10.285Z</time></trkpt><trkpt lat="42.267405" lon="13.9411783"><ele>158.00000000000003</ele><time>2026-05-02T07:46:11.285Z</time></trkpt><trkpt lat="42.2673583" lon="13.9411033"><ele>158.0</ele><time>2026-05-02T07:46:12.285Z</time></trkpt><trkpt lat="42.267315" lon="13.94103"><ele>160.14285714285717</ele><time>2026-05-02T07:46:13.285Z</time></trkpt><trkpt lat="42.2672733" lon="13.9409517"><ele>162.28571428571428</ele><time>2026-05-02T07:46:14.285Z</time></trkpt><trkpt lat="42.2672283" lon="13.940875"><ele>164.42857142857144</ele><time>2026-05-02T07:46:15.285Z</time></trkpt><trkpt lat="42.2671833" lon="13.9407933"><ele>166.57142857142858</ele><time>2026-05-02T07:46:16.285Z</time></trkpt><trkpt lat="42.2671483" lon="13.9407117"><ele>168.71428571428572</ele><time>2026-05-02T07:46:17.285Z</time></trkpt><trkpt lat="42.2671083" lon="13.9406267"><ele>170.85714285714286</ele><time>2026-05-02T07:46:18.285Z</time></trkpt><trkpt lat="42.2670683" lon="13.9405467"><ele>173.0</ele><time>2026-05-02T07:46:19.285Z</time></trkpt><trkpt lat="42.2670017" lon="13.94041"><ele>173.2</ele><time>2026-05-02T07:46:21.285Z</time></trkpt><trkpt lat="42.266955" lon="13.940255"><ele>173.4</ele><time>2026-05-02T07:46:23.285Z</time></trkpt><trkpt lat="42.2668917" lon="13.9401567"><ele>173.6</ele><time>2026-05-02T07:46:25.285Z</time></trkpt><trkpt lat="42.2668117" lon="13.9401333"><ele>173.79999999999998</ele><time>2026-05-02T07:46:27.285Z</time></trkpt><trkpt lat="42.2667483" lon="13.9402367"><ele>174.0</ele><time>2026-05-02T07:46:29.285Z</time></trkpt><trkpt lat="42.2667083" lon="13.940385"><ele>174.0</ele><time>2026-05-02T07:46:31.285Z</time></trkpt><trkpt lat="42.266685" lon="13.94047"><ele>174.0</ele><time>2026-05-02T07:46:32.285Z</time></trkpt><trkpt lat="42.2666533" lon="13.940555"><ele>174.0</ele><time>2026-05-02T07:46:33.285Z</time></trkpt><trkpt lat="42.26662" lon="13.9406433"><ele>174.0</ele><time>2026-05-02T07:46:34.286Z</time></trkpt><trkpt lat="42.2665833" lon="13.9407383"><ele>174.0</ele><time>2026-05-02T07:46:35.285Z</time></trkpt><trkpt lat="42.2665467" lon="13.9408367"><ele>174.0</ele><time>2026-05-02T07:46:36.285Z</time></trkpt><trkpt lat="42.2665167" lon="13.9409317"><ele>174.0</ele><time>2026-05-02T07:46:37.285Z</time></trkpt><trkpt lat="42.2664917" lon="13.9410217"><ele>173.83333333333334</ele><time>2026-05-02T07:46:38.285Z</time></trkpt><trkpt lat="42.26647" lon="13.9411117"><ele>173.66666666666666</ele><time>2026-05-02T07:46:39.285Z</time></trkpt><trkpt lat="42.2664367" lon="13.9412067"><ele>173.5</ele><time>2026-05-02T07:46:40.285Z</time></trkpt><trkpt lat="42.2664033" lon="13.9413083"><ele>173.33333333333331</ele><time>2026-05-02T07:46:41.285Z</time></trkpt><trkpt lat="42.2663783" lon="13.9414233"><ele>173.16666666666666</ele><time>2026-05-02T07:46:42.285Z</time></trkpt><trkpt lat="42.26636" lon="13.94152"><ele>173.0</ele><time>2026-05-02T07:46:43.285Z</time></trkpt><trkpt lat="42.2663567" lon="13.941615"><ele>176.33333333333331</ele><time>2026-05-02T07:46:44.285Z</time></trkpt><trkpt lat="42.2663683" lon="13.9417133"><ele>179.66666666666666</ele><time>2026-05-02T07:46:45.285Z</time></trkpt><trkpt lat="42.2663833" lon="13.9418167"><ele>183.0</ele><time>2026-05-02T07:46:46.285Z</time></trkpt><trkpt lat="42.2664017" lon="13.9419233"><ele>186.33333333333331</ele><time>2026-05-02T07:46:47.285Z</time></trkpt><trkpt lat="42.2664133" lon="13.9420283"><ele>189.66666666666666</ele><time>2026-05-02T07:46:48.285Z</time></trkpt><trkpt lat="42.2664233" lon="13.94214"><ele>193.0</ele><time>2026-05-02T07:46:49.285Z</time></trkpt><trkpt lat="42.266435" lon="13.9422517"><ele>190.66666666666666</ele><time>2026-05-02T07:46:50.286Z</time></trkpt><trkpt lat="42.266455" lon="13.94237"><ele>188.33333333333331</ele><time>2026-05-02T07:46:51.285Z</time></trkpt><trkpt lat="42.2664667" lon="13.9424917"><ele>186.0</ele><time>2026-05-02T07:46:52.285Z</time></trkpt><trkpt lat="42.2664833" lon="13.942615"><ele>183.66666666666666</ele><time>2026-05-02T07:46:53.285Z</time></trkpt><trkpt lat="42.2665" lon="13.9427317"><ele>181.33333333333331</ele><time>2026-05-02T07:46:54.285Z</time></trkpt><trkpt lat="42.266515" lon="13.9428433"><ele>179.0</ele><time>2026-05-02T07:46:55.285Z</time></trkpt><trkpt lat="42.266525" lon="13.9429433"><ele>179.0</ele><time>2026-05-02T07:46:56.285Z</time></trkpt><trkpt lat="42.26653" lon="13.9430317"><ele>179.0</ele><time>2026-05-02T07:46:57.285Z</time></trkpt><trkpt lat="42.26654" lon="13.94317"><ele>179.0</ele><time>2026-05-02T07:46:59.285Z</time></trkpt><trkpt lat="42.2664983" lon="13.9432667"><ele>179.0</ele><time>2026-05-02T07:47:02.285Z</time></trkpt><trkpt lat="42.266435" lon="13.9432767"><ele>179.0</ele><time>2026-05-02T07:47:04.285Z</time></trkpt><trkpt lat="42.2663117" lon="13.9432783"><ele>179.0</ele><time>2026-05-02T07:47:06.285Z</time></trkpt><trkpt lat="42.2662417" lon="13.94328"><ele>181.83333333333331</ele><time>2026-05-02T07:47:07.285Z</time></trkpt><trkpt lat="42.2661667" lon="13.94329"><ele>184.66666666666666</ele><time>2026-05-02T07:47:08.285Z</time></trkpt><trkpt lat="42.2661" lon="13.943305"><ele>187.5</ele><time>2026-05-02T07:47:09.285Z</time></trkpt><trkpt lat="42.2660317" lon="13.9433167"><ele>190.33333333333331</ele><time>2026-05-02T07:47:10.285Z</time></trkpt><trkpt lat="42.2659067" lon="13.943325"><ele>193.16666666666666</ele><time>2026-05-02T07:47:12.285Z</time></trkpt><trkpt lat="42.2658433" lon="13.9433283"><ele>196.0</ele><time>2026-05-02T07:47:13.286Z</time></trkpt><trkpt lat="42.26572" lon="13.9432867"><ele>196.0</ele><time>2026-05-02T07:47:15.285Z</time></trkpt><trkpt lat="42.265655" lon="13.9432467"><ele>196.0</ele><time>2026-05-02T07:47:16.285Z</time></trkpt><trkpt lat="42.265595" lon="13.9431883"><ele>196.0</ele><time>2026-05-02T07:47:17.285Z</time></trkpt><trkpt lat="42.2655283" lon="13.9431283"><ele>196.0</ele><time>2026-05-02T07:47:18.285Z</time></trkpt><trkpt lat="42.2654717" lon="13.9430617"><ele>196.0</ele><time>2026-05-02T07:47:19.285Z</time></trkpt><trkpt lat="42.26542" lon="13.9430017"><ele>196.0</ele><time>2026-05-02T07:47:20.286Z</time></trkpt><trkpt lat="42.2653783" lon="13.9429233"><ele>196.0</ele><time>2026-05-02T07:47:21.285Z</time></trkpt><trkpt lat="42.2653433" lon="13.9428333"><ele>195.42857142857142</ele><time>2026-05-02T07:47:22.285Z</time></trkpt><trkpt lat="42.2653117" lon="13.9427367"><ele>194.85714285714286</ele><time>2026-05-02T07:47:23.286Z</time></trkpt><trkpt lat="42.2652783" lon="13.9426517"><ele>194.28571428571428</ele><time>2026-05-02T07:47:24.285Z</time></trkpt><trkpt lat="42.2652433" lon="13.9425683"><ele>193.71428571428572</ele><time>2026-05-02T07:47:25.285Z</time></trkpt><trkpt lat="42.2652067" lon="13.9424767"><ele>193.14285714285714</ele><time>2026-05-02T07:47:26.285Z</time></trkpt><trkpt lat="42.2651717" lon="13.942395"><ele>192.57142857142856</ele><time>2026-05-02T07:47:27.285Z</time></trkpt><trkpt lat="42.2651383" lon="13.9423083"><ele>192.0</ele><time>2026-05-02T07:47:28.285Z</time></trkpt><trkpt lat="42.2651067" lon="13.9422333"><ele>194.5</ele><time>2026-05-02T07:47:29.285Z</time></trkpt><trkpt lat="42.2650583" lon="13.94212"><ele>197.0</ele><time>2026-05-02T07:47:31.285Z</time></trkpt><trkpt lat="42.2650367" lon="13.9420283"><ele>199.5</ele><time>2026-05-02T07:48:38.285Z</time></trkpt><trkpt lat="42.264995" lon="13.9419367"><ele>202.0</ele><time>2026-05-02T07:48:40.285Z</time></trkpt><trkpt lat="42.26495" lon="13.9418367"><ele>204.5</ele><time>2026-05-02T07:48:42.285Z</time></trkpt><trkpt lat="42.2649067" lon="13.9417467"><ele>207.0</ele><time>2026-05-02T07:48:44.285Z</time></trkpt><trkpt lat="42.2648583" lon="13.9416383"><ele>207.6</ele><time>2026-05-02T07:48:46.285Z</time></trkpt><trkpt lat="42.264815" lon="13.9415083"><ele>208.2</ele><time>2026-05-02T07:48:48.285Z</time></trkpt><trkpt lat="42.2647883" lon="13.9413733"><ele>208.8</ele><time>2026-05-02T07:48:50.285Z</time></trkpt><trkpt lat="42.2647767" lon="13.94124"><ele>209.4</ele><time>2026-05-02T07:48:52.285Z</time></trkpt><trkpt lat="42.2647683" lon="13.9411133"><ele>210.0</ele><time>2026-05-02T07:48:54.285Z</time></trkpt><trkpt lat="42.2647683" lon="13.9409917"><ele>212.4</ele><time>2026-05-02T07:48:56.285Z</time></trkpt><trkpt lat="42.2647583" lon="13.9408667"><ele>214.8</ele><time>2026-05-02T07:48:58.285Z</time></trkpt><trkpt lat="42.2647283" lon="13.940715"><ele>217.2</ele><time>2026-05-02T07:49:00.285Z</time></trkpt><trkpt lat="42.2646917" lon="13.94055"><ele>219.6</ele><time>2026-05-02T07:49:02.286Z</time></trkpt><trkpt lat="42.26468" lon="13.9404633"><ele>222.0</ele><time>2026-05-02T07:49:03.285Z</time></trkpt><trkpt lat="42.2646467" lon="13.94034"><ele>222.0</ele><time>2026-05-02T07:49:05.285Z</time></trkpt><trkpt lat="42.26463" lon="13.94025"><ele>222.0</ele><time>2026-05-02T07:49:07.285Z</time></trkpt><trkpt lat="42.2646183" lon="13.9401583"><ele>222.0</ele><time>2026-05-02T07:49:10.285Z</time></trkpt><trkpt lat="42.264575" lon="13.9400233"><ele>222.0</ele><time>2026-05-02T07:51:01.285Z</time></trkpt><trkpt lat="42.2645617" lon="13.939865"><ele>222.0</ele><time>2026-05-02T07:51:03.286Z</time></trkpt><trkpt lat="42.2645517" lon="13.9396917"><ele>223.0</ele><time>2026-05-02T07:51:05.285Z</time></trkpt><trkpt lat="42.2645417" lon="13.9396033"><ele>224.0</ele><time>2026-05-02T07:51:06.285Z</time></trkpt><trkpt lat="42.2645083" lon="13.9394583"><ele>225.0</ele><time>2026-05-02T07:51:08.285Z</time></trkpt><trkpt lat="42.2644633" lon="13.9393383"><ele>226.0</ele><time>2026-05-02T07:51:10.285Z</time></trkpt><trkpt lat="42.2644133" lon="13.939205"><ele>227.0</ele><time>2026-05-02T07:51:12.285Z</time></trkpt><trkpt lat="42.264365" lon="13.93908"><ele>228.66666666666669</ele><time>2026-05-02T07:51:14.285Z</time></trkpt><trkpt lat="42.2642817" lon="13.9389517"><ele>230.33333333333334</ele><time>2026-05-02T07:51:16.285Z</time></trkpt><trkpt lat="42.2642367" lon="13.9388917"><ele>232.0</ele><time>2026-05-02T07:51:17.285Z</time></trkpt><trkpt lat="42.2641933" lon="13.9388267"><ele>233.66666666666669</ele><time>2026-05-02T07:51:18.285Z</time></trkpt><trkpt lat="42.2641483" lon="13.93876"><ele>235.33333333333334</ele><time>2026-05-02T07:51:19.285Z</time></trkpt><trkpt lat="42.2641033" lon="13.9386917"><ele>237.0</ele><time>2026-05-02T07:51:20.286Z</time></trkpt><trkpt lat="42.2640533" lon="13.9386167"><ele>237.0</ele><time>2026-05-02T07:51:21.285Z</time></trkpt><trkpt lat="42.2640017" lon="13.9385333"><ele>237.0</ele><time>2026-05-02T07:51:22.285Z</time></trkpt><trkpt lat="42.2639467" lon="13.9384633"><ele>237.0</ele><time>2026-05-02T07:51:23.285Z</time></trkpt><trkpt lat="42.2638933" lon="13.9384"><ele>237.0</ele><time>2026-05-02T07:51:24.285Z</time></trkpt><trkpt lat="42.2638433" lon="13.9383283"><ele>237.0</ele><time>2026-05-02T07:51:25.285Z</time></trkpt><trkpt lat="42.26379" lon="13.9382533"><ele>237.0</ele><time>2026-05-02T07:51:26.285Z</time></trkpt><trkpt lat="42.26374" lon="13.9381817"><ele>237.33333333333334</ele><time>2026-05-02T07:51:27.286Z</time></trkpt><trkpt lat="42.2636917" lon="13.93811"><ele>237.66666666666669</ele><time>2026-05-02T07:51:28.285Z</time></trkpt><trkpt lat="42.2636467" lon="13.93803"><ele>238.0</ele><time>2026-05-02T07:51:29.285Z</time></trkpt><trkpt lat="42.2636033" lon="13.9379467"><ele>238.33333333333334</ele><time>2026-05-02T07:51:30.285Z</time></trkpt><trkpt lat="42.2635533" lon="13.9378467"><ele>238.66666666666669</ele><time>2026-05-02T07:51:31.285Z</time></trkpt><trkpt lat="42.2635083" lon="13.9377433"><ele>239.0</ele><time>2026-05-02T07:51:32.285Z</time></trkpt><trkpt lat="42.2634633" lon="13.9376267"><ele>242.16666666666669</ele><time>2026-05-02T07:51:33.285Z</time></trkpt><trkpt lat="42.2634233" lon="13.93751"><ele>245.33333333333334</ele><time>2026-05-02T07:51:34.285Z</time></trkpt><trkpt lat="42.26339" lon="13.9374067"><ele>248.5</ele><time>2026-05-02T07:51:35.285Z</time></trkpt><trkpt lat="42.2633617" lon="13.9373117"><ele>251.66666666666669</ele><time>2026-05-02T07:51:36.285Z</time></trkpt><trkpt lat="42.2633317" lon="13.937165"><ele>254.83333333333334</ele><time>2026-05-02T07:51:38.286Z</time></trkpt><trkpt lat="42.2633217" lon="13.9370567"><ele>258.0</ele><time>2026-05-02T07:51:40.285Z</time></trkpt><trkpt lat="42.2633167" lon="13.9369433"><ele>258.0</ele><time>2026-05-02T07:52:32.285Z</time></trkpt><trkpt lat="42.2632817" lon="13.9367933"><ele>258.0</ele><time>2026-05-02T07:52:34.285Z</time></trkpt><trkpt lat="42.2632283" lon="13.9366433"><ele>258.0</ele><time>2026-05-02T07:52:36.285Z</time></trkpt><trkpt lat="42.26319" lon="13.9365717"><ele>258.0</ele><time>2026-05-02T07:52:37.285Z</time></trkpt><trkpt lat="42.263145" lon="13.9365083"><ele>258.0</ele><time>2026-05-02T07:52:38.285Z</time></trkpt><trkpt lat="42.263055" lon="13.9364467"><ele>259.4</ele><time>2026-05-02T07:52:40.285Z</time></trkpt><trkpt lat="42.2629467" lon="13.9364233"><ele>260.8</ele><time>2026-05-02T07:52:42.285Z</time></trkpt><trkpt lat="42.2628783" lon="13.9364117"><ele>262.2</ele><time>2026-05-02T07:52:43.285Z</time></trkpt><trkpt lat="42.2628117" lon="13.9363917"><ele>263.6</ele><time>2026-05-02T07:52:44.285Z</time></trkpt><trkpt lat="42.26271" lon="13.9363267"><ele>265.0</ele><time>2026-05-02T07:52:46.285Z</time></trkpt><trkpt lat="42.2626167" lon="13.9362183"><ele>264.99999999999994</ele><time>2026-05-02T07:52:48.285Z</time></trkpt><trkpt lat="42.2625717" lon="13.936155"><ele>265.0</ele><time>2026-05-02T07:52:49.285Z</time></trkpt><trkpt lat="42.2625233" lon="13.93609"><ele>265.0</ele><time>2026-05-02T07:52:50.285Z</time></trkpt><trkpt lat="42.2624767" lon="13.93602"><ele>265.0</ele><time>2026-05-02T07:52:51.285Z</time></trkpt><trkpt lat="42.2624233" lon="13.9359517"><ele>265.0</ele><time>2026-05-02T07:52:52.285Z</time></trkpt><trkpt lat="42.26237" lon="13.9358917"><ele>264.99999999999994</ele><time>2026-05-02T07:52:53.285Z</time></trkpt><trkpt lat="42.262315" lon="13.9358267"><ele>265.0</ele><time>2026-05-02T07:52:54.285Z</time></trkpt><trkpt lat="42.2622633" lon="13.935765"><ele>267.0</ele><time>2026-05-02T07:52:55.286Z</time></trkpt><trkpt lat="42.2621817" lon="13.935665"><ele>269.0</ele><time>2026-05-02T07:52:57.286Z</time></trkpt><trkpt lat="42.262135" lon="13.9355417"><ele>271.0</ele><time>2026-05-02T07:52:59.285Z</time></trkpt><trkpt lat="42.2621283" lon="13.9353783"><ele>273.0</ele><time>2026-05-02T07:53:01.285Z</time></trkpt><trkpt lat="42.2621267" lon="13.9352833"><ele>275.0</ele><time>2026-05-02T07:53:02.285Z</time></trkpt><trkpt lat="42.2621283" lon="13.9351833"><ele>275.0</ele><time>2026-05-02T07:53:03.285Z</time></trkpt><trkpt lat="42.2621283" lon="13.93508"><ele>275.0</ele><time>2026-05-02T07:53:04.285Z</time></trkpt><trkpt lat="42.2621317" lon="13.93497"><ele>275.0</ele><time>2026-05-02T07:53:05.285Z</time></trkpt><trkpt lat="42.2621317" lon="13.9348567"><ele>275.0</ele><time>2026-05-02T07:53:06.285Z</time></trkpt><trkpt lat="42.2621317" lon="13.9347483"><ele>275.0</ele><time>2026-05-02T07:53:07.286Z</time></trkpt><trkpt lat="42.26213" lon="13.934625"><ele>275.0</ele><time>2026-05-02T07:53:08.285Z</time></trkpt><trkpt lat="42.2621283" lon="13.93453"><ele>276.1666666666667</ele><time>2026-05-02T07:53:09.285Z</time></trkpt><trkpt lat="42.2621333" lon="13.9344433"><ele>277.33333333333337</ele><time>2026-05-02T07:53:10.285Z</time></trkpt><trkpt lat="42.262135" lon="13.934285"><ele>278.5</ele><time>2026-05-02T07:53:12.285Z</time></trkpt><trkpt lat="42.2621167" lon="13.934155"><ele>279.6666666666667</ele><time>2026-05-02T07:53:14.285Z</time></trkpt><trkpt lat="42.2620733" lon="13.934075"><ele>280.8333333333333</ele><time>2026-05-02T07:53:16.285Z</time></trkpt><trkpt lat="42.2619983" lon="13.9340533"><ele>282.0</ele><time>2026-05-02T07:53:18.285Z</time></trkpt><trkpt lat="42.2619317" lon="13.9340633"><ele>282.0</ele><time>2026-05-02T07:53:19.286Z</time></trkpt><trkpt lat="42.2618617" lon="13.93407"><ele>282.0</ele><time>2026-05-02T07:53:20.285Z</time></trkpt><trkpt lat="42.2617883" lon="13.9340667"><ele>282.0</ele><time>2026-05-02T07:53:21.285Z</time></trkpt><trkpt lat="42.2617133" lon="13.93405"><ele>282.0</ele><time>2026-05-02T07:53:22.285Z</time></trkpt><trkpt lat="42.2616317" lon="13.93401"><ele>282.0</ele><time>2026-05-02T07:53:23.285Z</time></trkpt><trkpt lat="42.2615383" lon="13.933975"><ele>282.0</ele><time>2026-05-02T07:53:24.285Z</time></trkpt><trkpt lat="42.2614467" lon="13.9339333"><ele>282.0</ele><time>2026-05-02T07:53:25.285Z</time></trkpt><trkpt lat="42.26135" lon="13.9338917"><ele>282.0</ele><time>2026-05-02T07:53:26.285Z</time></trkpt><trkpt lat="42.26124" lon="13.9338467"><ele>282.0</ele><time>2026-05-02T07:53:27.285Z</time></trkpt><trkpt lat="42.2611367" lon="13.9337983"><ele>282.0</ele><time>2026-05-02T07:53:28.285Z</time></trkpt><trkpt lat="42.2610367" lon="13.9337517"><ele>282.0</ele><time>2026-05-02T07:53:29.286Z</time></trkpt><trkpt lat="42.260945" lon="13.9337033"><ele>282.0</ele><time>2026-05-02T07:53:30.285Z</time></trkpt><trkpt lat="42.260845" lon="13.9336517"><ele>282.0</ele><time>2026-05-02T07:53:31.285Z</time></trkpt><trkpt lat="42.26074" lon="13.9336033"><ele>282.0</ele><time>2026-05-02T07:53:32.285Z</time></trkpt><trkpt lat="42.260635" lon="13.933555"><ele>282.0</ele><time>2026-05-02T07:53:33.285Z</time></trkpt><trkpt lat="42.26054" lon="13.9335217"><ele>282.0</ele><time>2026-05-02T07:53:34.285Z</time></trkpt><trkpt lat="42.260445" lon="13.9335083"><ele>282.4</ele><time>2026-05-02T07:53:35.285Z</time></trkpt><trkpt lat="42.2603517" lon="13.9335033"><ele>282.79999999999995</ele><time>2026-05-02T07:53:36.285Z</time></trkpt><trkpt lat="42.2602617" lon="13.9335083"><ele>283.2</ele><time>2026-05-02T07:53:37.285Z</time></trkpt><trkpt lat="42.2601683" lon="13.9335183"><ele>283.59999999999997</ele><time>2026-05-02T07:53:38.285Z</time></trkpt><trkpt lat="42.2600667" lon="13.933535"><ele>284.0</ele><time>2026-05-02T07:53:39.285Z</time></trkpt><trkpt lat="42.25997" lon="13.9335417"><ele>284.0</ele><time>2026-05-02T07:53:40.286Z</time></trkpt><trkpt lat="42.2598683" lon="13.9335367"><ele>284.0</ele><time>2026-05-02T07:53:41.285Z</time></trkpt><trkpt lat="42.25977" lon="13.933545"><ele>284.0</ele><time>2026-05-02T07:53:42.286Z</time></trkpt><trkpt lat="42.2596783" lon="13.9335467"><ele>284.0</ele><time>2026-05-02T07:53:43.285Z</time></trkpt><trkpt lat="42.2595933" lon="13.933525"><ele>284.0</ele><time>2026-05-02T07:53:44.285Z</time></trkpt><trkpt lat="42.25951" lon="13.9334867"><ele>283.0</ele><time>2026-05-02T07:53:45.285Z</time></trkpt><trkpt lat="42.2594267" lon="13.9334333"><ele>282.0</ele><time>2026-05-02T07:53:46.285Z</time></trkpt><trkpt lat="42.2593417" lon="13.9333717"><ele>281.0</ele><time>2026-05-02T07:53:47.285Z</time></trkpt><trkpt lat="42.2592433" lon="13.9332983"><ele>280.0</ele><time>2026-05-02T07:53:48.285Z</time></trkpt><trkpt lat="42.259145" lon="13.93323"><ele>279.0</ele><time>2026-05-02T07:53:49.285Z</time></trkpt><trkpt lat="42.2590417" lon="13.9331683"><ele>281.5</ele><time>2026-05-02T07:53:50.285Z</time></trkpt><trkpt lat="42.2589467" lon="13.9331183"><ele>284.0</ele><time>2026-05-02T07:53:51.286Z</time></trkpt><trkpt lat="42.258855" lon="13.9330817"><ele>286.5</ele><time>2026-05-02T07:53:52.285Z</time></trkpt><trkpt lat="42.25877" lon="13.9330617"><ele>289.0</ele><time>2026-05-02T07:53:53.285Z</time></trkpt><trkpt lat="42.2586933" lon="13.93305"><ele>291.5</ele><time>2026-05-02T07:53:54.285Z</time></trkpt><trkpt lat="42.2586183" lon="13.933045"><ele>294.0</ele><time>2026-05-02T07:53:55.286Z</time></trkpt><trkpt lat="42.2585433" lon="13.9330517"><ele>294.0</ele><time>2026-05-02T07:53:56.285Z</time></trkpt><trkpt lat="42.2584717" lon="13.9330633"><ele>294.0</ele><time>2026-05-02T07:53:57.285Z</time></trkpt><trkpt lat="42.2584033" lon="13.9330733"><ele>294.0</ele><time>2026-05-02T07:53:58.285Z</time></trkpt><trkpt lat="42.25829" lon="13.9330917"><ele>294.0</ele><time>2026-05-02T07:54:00.285Z</time></trkpt><trkpt lat="42.258215" lon="13.9331033"><ele>294.0</ele><time>2026-05-02T07:54:15.285Z</time></trkpt><trkpt lat="42.25808" lon="13.933115"><ele>294.8333333333333</ele><time>2026-05-02T07:54:17.285Z</time></trkpt><trkpt lat="42.2579983" lon="13.9331017"><ele>295.6666666666667</ele><time>2026-05-02T07:54:18.285Z</time></trkpt><trkpt lat="42.257915" lon="13.933085"><ele>296.5</ele><time>2026-05-02T07:54:19.285Z</time></trkpt><trkpt lat="42.25783" lon="13.9330733"><ele>297.33333333333337</ele><time>2026-05-02T07:54:20.285Z</time></trkpt><trkpt lat="42.2577467" lon="13.93307"><ele>298.1666666666667</ele><time>2026-05-02T07:54:21.285Z</time></trkpt><trkpt lat="42.2576583" lon="13.933085"><ele>299.0</ele><time>2026-05-02T07:54:22.286Z</time></trkpt><trkpt lat="42.2575717" lon="13.93311"><ele>299.0</ele><time>2026-05-02T07:54:23.285Z</time></trkpt><trkpt lat="42.25748" lon="13.9331317"><ele>299.0</ele><time>2026-05-02T07:54:24.285Z</time></trkpt><trkpt lat="42.25738" lon="13.9331467"><ele>299.0</ele><time>2026-05-02T07:54:25.285Z</time></trkpt><trkpt lat="42.257275" lon="13.9331667"><ele>299.0</ele><time>2026-05-02T07:54:26.285Z</time></trkpt><trkpt lat="42.2571617" lon="13.933195"><ele>299.0</ele><time>2026-05-02T07:54:27.285Z</time></trkpt><trkpt lat="42.25705" lon="13.93324"><ele>300.0</ele><time>2026-05-02T07:54:28.285Z</time></trkpt><trkpt lat="42.25694" lon="13.9332867"><ele>301.0</ele><time>2026-05-02T07:54:29.286Z</time></trkpt><trkpt lat="42.2568317" lon="13.9333217"><ele>302.0</ele><time>2026-05-02T07:54:30.285Z</time></trkpt><trkpt lat="42.2567267" lon="13.9333333"><ele>303.0</ele><time>2026-05-02T07:54:31.285Z</time></trkpt><trkpt lat="42.2566267" lon="13.933325"><ele>304.0</ele><time>2026-05-02T07:54:32.285Z</time></trkpt><trkpt lat="42.2565283" lon="13.9333"><ele>303.8</ele><time>2026-05-02T07:54:33.285Z</time></trkpt><trkpt lat="42.2564317" lon="13.9332617"><ele>303.59999999999997</ele><time>2026-05-02T07:54:34.286Z</time></trkpt><trkpt lat="42.2563383" lon="13.9332283"><ele>303.4</ele><time>2026-05-02T07:54:35.286Z</time></trkpt><trkpt lat="42.25624" lon="13.9331917"><ele>303.2</ele><time>2026-05-02T07:54:36.286Z</time></trkpt><trkpt lat="42.2561467" lon="13.93315"><ele>303.0</ele><time>2026-05-02T07:54:37.287Z</time></trkpt><trkpt lat="42.25606" lon="13.9331183"><ele>303.0</ele><time>2026-05-02T07:54:38.286Z</time></trkpt><trkpt lat="42.2559767" lon="13.9330867"><ele>303.0</ele><time>2026-05-02T07:54:39.286Z</time></trkpt><trkpt lat="42.2558983" lon="13.93306"><ele>303.0</ele><time>2026-05-02T07:54:40.286Z</time></trkpt><trkpt lat="42.2558267" lon="13.93302"><ele>303.0</ele><time>2026-05-02T07:54:41.286Z</time></trkpt><trkpt lat="42.25576" lon="13.9329733"><ele>303.0</ele><time>2026-05-02T07:54:42.286Z</time></trkpt><trkpt lat="42.25569" lon="13.93281"><ele>303.0</ele><time>2026-05-02T07:54:44.286Z</time></trkpt><trkpt lat="42.2556767" lon="13.9326817"><ele>303.0</ele><time>2026-05-02T07:54:45.286Z</time></trkpt><trkpt lat="42.2556733" lon="13.9325483"><ele>303.0</ele><time>2026-05-02T07:54:46.286Z</time></trkpt><trkpt lat="42.2556583" lon="13.9324133"><ele>303.0</ele><time>2026-05-02T07:54:47.286Z</time></trkpt><trkpt lat="42.2556317" lon="13.9322933"><ele>303.0</ele><time>2026-05-02T07:54:48.287Z</time></trkpt><trkpt lat="42.25559" lon="13.93218"><ele>300.0</ele><time>2026-05-02T07:54:49.286Z</time></trkpt><trkpt lat="42.2555317" lon="13.932065"><ele>297.0</ele><time>2026-05-02T07:54:50.286Z</time></trkpt><trkpt lat="42.2554633" lon="13.931955"><ele>294.0</ele><time>2026-05-02T07:54:51.286Z</time></trkpt><trkpt lat="42.2553933" lon="13.9318617"><ele>291.0</ele><time>2026-05-02T07:54:52.286Z</time></trkpt><trkpt lat="42.2553233" lon="13.9317817"><ele>288.0</ele><time>2026-05-02T07:54:53.286Z</time></trkpt><trkpt lat="42.255245" lon="13.9317267"><ele>288.5</ele><time>2026-05-02T07:54:54.286Z</time></trkpt><trkpt lat="42.2551583" lon="13.9316917"><ele>289.0</ele><time>2026-05-02T07:54:55.286Z</time></trkpt><trkpt lat="42.2550683" lon="13.931675"><ele>289.5</ele><time>2026-05-02T07:54:56.286Z</time></trkpt><trkpt lat="42.2549783" lon="13.9316567"><ele>290.0</ele><time>2026-05-02T07:54:57.286Z</time></trkpt><trkpt lat="42.2549" lon="13.9316083"><ele>290.5</ele><time>2026-05-02T07:54:58.286Z</time></trkpt><trkpt lat="42.25483" lon="13.9315433"><ele>291.0</ele><time>2026-05-02T07:54:59.286Z</time></trkpt><trkpt lat="42.2547733" lon="13.9314783"><ele>291.0</ele><time>2026-05-02T07:55:00.286Z</time></trkpt><trkpt lat="42.2546583" lon="13.9314333"><ele>291.0</ele><time>2026-05-02T07:55:02.286Z</time></trkpt><trkpt lat="42.25458" lon="13.93145"><ele>291.0</ele><time>2026-05-02T07:55:03.286Z</time></trkpt><trkpt lat="42.25448" lon="13.9314817"><ele>291.0</ele><time>2026-05-02T07:55:04.286Z</time></trkpt><trkpt lat="42.2543733" lon="13.93152"><ele>291.0</ele><time>2026-05-02T07:55:05.286Z</time></trkpt><trkpt lat="42.2542667" lon="13.931555"><ele>291.0</ele><time>2026-05-02T07:55:06.286Z</time></trkpt><trkpt lat="42.254165" lon="13.9315817"><ele>291.0</ele><time>2026-05-02T07:55:07.286Z</time></trkpt><trkpt lat="42.2540667" lon="13.9316"><ele>291.0</ele><time>2026-05-02T07:55:08.286Z</time></trkpt><trkpt lat="42.253965" lon="13.9316067"><ele>291.0</ele><time>2026-05-02T07:55:09.286Z</time></trkpt><trkpt lat="42.2538617" lon="13.9316067"><ele>291.0</ele><time>2026-05-02T07:55:10.286Z</time></trkpt><trkpt lat="42.25377" lon="13.931595"><ele>290.5</ele><time>2026-05-02T07:55:11.286Z</time></trkpt><trkpt lat="42.2536883" lon="13.93157"><ele>290.0</ele><time>2026-05-02T07:55:12.286Z</time></trkpt><trkpt lat="42.2536133" lon="13.9315333"><ele>289.5</ele><time>2026-05-02T07:55:13.287Z</time></trkpt><trkpt lat="42.2535367" lon="13.9314867"><ele>289.0</ele><time>2026-05-02T07:55:14.287Z</time></trkpt><trkpt lat="42.25345" lon="13.9314233"><ele>288.5</ele><time>2026-05-02T07:55:15.286Z</time></trkpt><trkpt lat="42.2533633" lon="13.93135"><ele>288.0</ele><time>2026-05-02T07:55:16.286Z</time></trkpt><trkpt lat="42.25327" lon="13.931295"><ele>288.0</ele><time>2026-05-02T07:55:17.286Z</time></trkpt><trkpt lat="42.25317" lon="13.9312517"><ele>288.0</ele><time>2026-05-02T07:55:18.286Z</time></trkpt><trkpt lat="42.2530633" lon="13.931215"><ele>288.0</ele><time>2026-05-02T07:55:19.286Z</time></trkpt><trkpt lat="42.25296" lon="13.93118"><ele>288.0</ele><time>2026-05-02T07:55:20.286Z</time></trkpt><trkpt lat="42.2528567" lon="13.93115"><ele>288.0</ele><time>2026-05-02T07:55:21.286Z</time></trkpt><trkpt lat="42.252765" lon="13.9311283"><ele>287.0</ele><time>2026-05-02T07:55:22.286Z</time></trkpt><trkpt lat="42.25268" lon="13.93111"><ele>286.0</ele><time>2026-05-02T07:55:23.286Z</time></trkpt><trkpt lat="42.252605" lon="13.9310967"><ele>285.0</ele><time>2026-05-02T07:55:24.286Z</time></trkpt><trkpt lat="42.2525383" lon="13.931075"><ele>284.0</ele><time>2026-05-02T07:55:25.286Z</time></trkpt><trkpt lat="42.2524633" lon="13.9310383"><ele>283.0</ele><time>2026-05-02T07:55:26.286Z</time></trkpt><trkpt lat="42.2524017" lon="13.930985"><ele>282.0</ele><time>2026-05-02T07:55:27.286Z</time></trkpt><trkpt lat="42.2523633" lon="13.93091"><ele>280.8333333333333</ele><time>2026-05-02T07:55:28.286Z</time></trkpt><trkpt lat="42.2523367" lon="13.9308083"><ele>279.6666666666667</ele><time>2026-05-02T07:55:29.286Z</time></trkpt><trkpt lat="42.2523183" lon="13.9306783"><ele>278.5</ele><time>2026-05-02T07:55:30.286Z</time></trkpt><trkpt lat="42.2522967" lon="13.9305533"><ele>277.33333333333337</ele><time>2026-05-02T07:55:31.286Z</time></trkpt><trkpt lat="42.2522683" lon="13.9304383"><ele>276.1666666666667</ele><time>2026-05-02T07:55:32.286Z</time></trkpt><trkpt lat="42.2522317" lon="13.9303383"><ele>275.0</ele><time>2026-05-02T07:55:33.286Z</time></trkpt><trkpt lat="42.25218" lon="13.930245"><ele>275.0</ele><time>2026-05-02T07:55:34.287Z</time></trkpt><trkpt lat="42.2521217" lon="13.9301483"><ele>275.0</ele><time>2026-05-02T07:55:35.286Z</time></trkpt><trkpt lat="42.2520533" lon="13.930055"><ele>275.0</ele><time>2026-05-02T07:55:36.286Z</time></trkpt><trkpt lat="42.25198" lon="13.92998"><ele>275.0</ele><time>2026-05-02T07:55:37.286Z</time></trkpt><trkpt lat="42.2518967" lon="13.92992"><ele>275.0</ele><time>2026-05-02T07:55:38.286Z</time></trkpt><trkpt lat="42.2517983" lon="13.92989"><ele>275.0</ele><time>2026-05-02T07:55:39.286Z</time></trkpt><trkpt lat="42.2516967" lon="13.9298633"><ele>275.0</ele><time>2026-05-02T07:55:40.286Z</time></trkpt><trkpt lat="42.2516" lon="13.9298367"><ele>275.0</ele><time>2026-05-02T07:55:41.286Z</time></trkpt><trkpt lat="42.2515133" lon="13.9298033"><ele>275.0</ele><time>2026-05-02T07:55:42.287Z</time></trkpt><trkpt lat="42.2514383" lon="13.92976"><ele>275.0</ele><time>2026-05-02T07:55:43.286Z</time></trkpt><trkpt lat="42.251375" lon="13.9297033"><ele>271.2</ele><time>2026-05-02T07:55:44.287Z</time></trkpt><trkpt lat="42.2513183" lon="13.929655"><ele>267.4</ele><time>2026-05-02T07:55:45.286Z</time></trkpt><trkpt lat="42.2511983" lon="13.9296483"><ele>263.6</ele><time>2026-05-02T07:55:47.286Z</time></trkpt><trkpt lat="42.251145" lon="13.929695"><ele>259.8</ele><time>2026-05-02T07:55:48.286Z</time></trkpt><trkpt lat="42.251065" lon="13.929815"><ele>256.0</ele><time>2026-05-02T07:55:50.286Z</time></trkpt><trkpt lat="42.250965" lon="13.9298333"><ele>256.0</ele><time>2026-05-02T07:55:52.286Z</time></trkpt><trkpt lat="42.2509233" lon="13.9297267"><ele>256.0</ele><time>2026-05-02T07:55:54.286Z</time></trkpt><trkpt lat="42.2509883" lon="13.9295683"><ele>256.0</ele><time>2026-05-02T07:55:56.286Z</time></trkpt><trkpt lat="42.251035" lon="13.9294767"><ele>256.0</ele><time>2026-05-02T07:55:57.286Z</time></trkpt><trkpt lat="42.2510783" lon="13.92937"><ele>256.0</ele><time>2026-05-02T07:55:58.286Z</time></trkpt><trkpt lat="42.2511133" lon="13.9292533"><ele>255.99999999999997</ele><time>2026-05-02T07:55:59.287Z</time></trkpt><trkpt lat="42.2511483" lon="13.929145"><ele>256.0</ele><time>2026-05-02T07:56:00.286Z</time></trkpt><trkpt lat="42.251175" lon="13.9290483"><ele>256.0</ele><time>2026-05-02T07:56:01.286Z</time></trkpt><trkpt lat="42.251195" lon="13.92891"><ele>256.0</ele><time>2026-05-02T07:56:03.287Z</time></trkpt><trkpt lat="42.251125" lon="13.9288533"><ele>255.99999999999997</ele><time>2026-05-02T07:56:06.286Z</time></trkpt><trkpt lat="42.25108" lon="13.9289617"><ele>256.0</ele><time>2026-05-02T07:56:08.286Z</time></trkpt><trkpt lat="42.2510517" lon="13.9290617"><ele>256.0</ele><time>2026-05-02T07:56:09.286Z</time></trkpt><trkpt lat="42.2510017" lon="13.9291633"><ele>256.0</ele><time>2026-05-02T07:56:10.286Z</time></trkpt><trkpt lat="42.2509317" lon="13.9292533"><ele>256.0</ele><time>2026-05-02T07:56:11.286Z</time></trkpt><trkpt lat="42.2508433" lon="13.929335"><ele>256.0</ele><time>2026-05-02T07:56:12.287Z</time></trkpt><trkpt lat="42.250755" lon="13.9294117"><ele>256.0</ele><time>2026-05-02T07:56:13.286Z</time></trkpt><trkpt lat="42.250675" lon="13.929515"><ele>251.4</ele><time>2026-05-02T07:56:14.286Z</time></trkpt><trkpt lat="42.2506167" lon="13.9296467"><ele>246.8</ele><time>2026-05-02T07:56:15.286Z</time></trkpt><trkpt lat="42.2505783" lon="13.9297883"><ele>242.20000000000002</ele><time>2026-05-02T07:56:16.286Z</time></trkpt><trkpt lat="42.250555" lon="13.9299383"><ele>237.60000000000002</ele><time>2026-05-02T07:56:17.286Z</time></trkpt><trkpt lat="42.2505633" lon="13.930085"><ele>233.0</ele><time>2026-05-02T07:56:18.286Z</time></trkpt><trkpt lat="42.2505967" lon="13.9302383"><ele>237.0</ele><time>2026-05-02T07:56:19.286Z</time></trkpt><trkpt lat="42.2506633" lon="13.9303833"><ele>241.0</ele><time>2026-05-02T07:56:20.286Z</time></trkpt><trkpt lat="42.2507367" lon="13.9305217"><ele>245.0</ele><time>2026-05-02T07:56:21.286Z</time></trkpt><trkpt lat="42.2507867" lon="13.93066"><ele>249.0</ele><time>2026-05-02T07:56:22.286Z</time></trkpt><trkpt lat="42.2508117" lon="13.9308167"><ele>249.25</ele><time>2026-05-02T07:56:23.286Z</time></trkpt><trkpt lat="42.25082" lon="13.93098"><ele>249.5</ele><time>2026-05-02T07:56:24.286Z</time></trkpt><trkpt lat="42.2508" lon="13.9311583"><ele>249.75</ele><time>2026-05-02T07:56:25.286Z</time></trkpt><trkpt lat="42.250765" lon="13.93134"><ele>250.0</ele><time>2026-05-02T07:56:26.286Z</time></trkpt><trkpt lat="42.2507017" lon="13.9315217"><ele>250.0</ele><time>2026-05-02T07:56:27.286Z</time></trkpt><trkpt lat="42.2506333" lon="13.9316983"><ele>250.0</ele><time>2026-05-02T07:56:28.287Z</time></trkpt><trkpt lat="42.2505617" lon="13.9318617"><ele>250.0</ele><time>2026-05-02T07:56:29.287Z</time></trkpt><trkpt lat="42.2505017" lon="13.9320133"><ele>250.0</ele><time>2026-05-02T07:56:30.286Z</time></trkpt><trkpt lat="42.2504567" lon="13.9321633"><ele>245.0</ele><time>2026-05-02T07:56:31.286Z</time></trkpt><trkpt lat="42.25042" lon="13.9322917"><ele>240.0</ele><time>2026-05-02T07:56:32.286Z</time></trkpt><trkpt lat="42.250385" lon="13.9324117"><ele>235.0</ele><time>2026-05-02T07:56:33.286Z</time></trkpt><trkpt lat="42.2503633" lon="13.9325283"><ele>230.0</ele><time>2026-05-02T07:56:34.286Z</time></trkpt><trkpt lat="42.2503417" lon="13.93263"><ele>225.0</ele><time>2026-05-02T07:56:35.287Z</time></trkpt><trkpt lat="42.250315" lon="13.9327783"><ele>223.8</ele><time>2026-05-02T07:56:37.286Z</time></trkpt><trkpt lat="42.25033" lon="13.9328833"><ele>222.6</ele><time>2026-05-02T07:56:39.286Z</time></trkpt><trkpt lat="42.2504333" lon="13.9329917"><ele>221.39999999999998</ele><time>2026-05-02T07:56:41.287Z</time></trkpt><trkpt lat="42.2505" lon="13.9330533"><ele>220.2</ele><time>2026-05-02T07:56:42.286Z</time></trkpt><trkpt lat="42.2505733" lon="13.93312"><ele>219.0</ele><time>2026-05-02T07:56:43.286Z</time></trkpt><trkpt lat="42.2506533" lon="13.9331883"><ele>218.0</ele><time>2026-05-02T07:56:44.286Z</time></trkpt><trkpt lat="42.25073" lon="13.9332583"><ele>216.99999999999997</ele><time>2026-05-02T07:56:45.286Z</time></trkpt><trkpt lat="42.250805" lon="13.933315"><ele>215.99999999999997</ele><time>2026-05-02T07:56:46.286Z</time></trkpt><trkpt lat="42.2508817" lon="13.9333617"><ele>215.0</ele><time>2026-05-02T07:56:47.286Z</time></trkpt><trkpt lat="42.25097" lon="13.9333967"><ele>214.0</ele><time>2026-05-02T07:56:48.286Z</time></trkpt><trkpt lat="42.25107" lon="13.933435"><ele>214.0</ele><time>2026-05-02T07:56:49.286Z</time></trkpt><trkpt lat="42.2511783" lon="13.93348"><ele>214.0</ele><time>2026-05-02T07:56:50.286Z</time></trkpt><trkpt lat="42.2513" lon="13.93354"><ele>214.0</ele><time>2026-05-02T07:56:51.287Z</time></trkpt><trkpt lat="42.2514217" lon="13.9336117"><ele>214.0</ele><time>2026-05-02T07:56:52.286Z</time></trkpt><trkpt lat="42.2515433" lon="13.933685"><ele>217.5</ele><time>2026-05-02T07:56:53.286Z</time></trkpt><trkpt lat="42.25166" lon="13.9337583"><ele>221.0</ele><time>2026-05-02T07:56:54.287Z</time></trkpt><trkpt lat="42.25178" lon="13.9338317"><ele>224.5</ele><time>2026-05-02T07:56:55.286Z</time></trkpt><trkpt lat="42.2519" lon="13.9338983"><ele>228.0</ele><time>2026-05-02T07:56:56.286Z</time></trkpt><trkpt lat="42.2520167" lon="13.933965"><ele>228.0</ele><time>2026-05-02T07:56:57.287Z</time></trkpt><trkpt lat="42.2521267" lon="13.9340267"><ele>228.0</ele><time>2026-05-02T07:56:58.286Z</time></trkpt><trkpt lat="42.2522233" lon="13.9340817"><ele>228.0</ele><time>2026-05-02T07:56:59.286Z</time></trkpt><trkpt lat="42.2523117" lon="13.93413"><ele>228.0</ele><time>2026-05-02T07:57:00.286Z</time></trkpt><trkpt lat="42.2523867" lon="13.9341733"><ele>228.0</ele><time>2026-05-02T07:57:01.287Z</time></trkpt><trkpt lat="42.2524483" lon="13.9342283"><ele>230.83333333333334</ele><time>2026-05-02T07:57:02.286Z</time></trkpt><trkpt lat="42.2524917" lon="13.9343"><ele>233.66666666666669</ele><time>2026-05-02T07:57:03.286Z</time></trkpt><trkpt lat="42.2525183" lon="13.9343883"><ele>236.5</ele><time>2026-05-02T07:57:04.286Z</time></trkpt><trkpt lat="42.2525133" lon="13.934475"><ele>239.33333333333334</ele><time>2026-05-02T07:57:05.286Z</time></trkpt><trkpt lat="42.2524867" lon="13.9346083"><ele>242.16666666666669</ele><time>2026-05-02T07:57:07.286Z</time></trkpt><trkpt lat="42.2524783" lon="13.9347017"><ele>245.0</ele><time>2026-05-02T07:57:12.286Z</time></trkpt><trkpt lat="42.252405" lon="13.9347217"><ele>245.00000000000003</ele><time>2026-05-02T07:57:17.286Z</time></trkpt><trkpt lat="42.2523283" lon="13.9347283"><ele>245.0</ele><time>2026-05-02T07:57:22.286Z</time></trkpt><trkpt lat="42.2522583" lon="13.9347267"><ele>245.0</ele><time>2026-05-02T07:57:32.286Z</time></trkpt><trkpt lat="42.2521467" lon="13.9347517"><ele>245.0</ele><time>2026-05-02T07:58:12.286Z</time></trkpt><trkpt lat="42.2520483" lon="13.9347517"><ele>245.00000000000003</ele><time>2026-05-02T07:58:36.286Z</time></trkpt><trkpt lat="42.2519683" lon="13.9347583"><ele>245.0</ele><time>2026-05-02T07:58:51.286Z</time></trkpt><trkpt lat="42.251855" lon="13.934765"><ele>241.2</ele><time>2026-05-02T07:59:22.286Z</time></trkpt><trkpt lat="42.251735" lon="13.9347667"><ele>237.4</ele><time>2026-05-02T07:59:41.286Z</time></trkpt><trkpt lat="42.251635" lon="13.934765"><ele>233.60000000000002</ele><time>2026-05-02T07:59:55.286Z</time></trkpt><trkpt lat="42.25157" lon="13.9347683"><ele>229.8</ele><time>2026-05-02T08:00:17.287Z</time></trkpt><trkpt lat="42.2514983" lon="13.9347833"><ele>226.0</ele><time>2026-05-02T08:00:23.286Z</time></trkpt><trkpt lat="42.2513867" lon="13.9347783"><ele>222.20000000000002</ele><time>2026-05-02T08:01:11.286Z</time></trkpt><trkpt lat="42.2512083" lon="13.9348167"><ele>218.40000000000003</ele><time>2026-05-02T08:01:33.286Z</time></trkpt><trkpt lat="42.2511433" lon="13.934845"><ele>214.6</ele><time>2026-05-02T08:01:40.287Z</time></trkpt><trkpt lat="42.2510683" lon="13.9348733"><ele>210.8</ele><time>2026-05-02T08:01:47.286Z</time></trkpt><trkpt lat="42.2510017" lon="13.9348883"><ele>207.0</ele><time>2026-05-02T08:01:52.287Z</time></trkpt><trkpt lat="42.2509033" lon="13.9348967"><ele>207.0</ele><time>2026-05-02T08:02:04.287Z</time></trkpt><trkpt lat="42.2508267" lon="13.9349"><ele>207.0</ele><time>2026-05-02T08:02:07.287Z</time></trkpt><trkpt lat="42.25074" lon="13.934895"><ele>207.0</ele><time>2026-05-02T08:02:10.286Z</time></trkpt><trkpt lat="42.2506483" lon="13.9348833"><ele>207.0</ele><time>2026-05-02T08:02:13.286Z</time></trkpt><trkpt lat="42.250585" lon="13.934875"><ele>207.0</ele><time>2026-05-02T08:02:15.286Z</time></trkpt><trkpt lat="42.2505117" lon="13.9348683"><ele>207.0</ele><time>2026-05-02T08:02:17.286Z</time></trkpt><trkpt lat="42.2504267" lon="13.9348683"><ele>204.66666666666666</ele><time>2026-05-02T08:02:19.286Z</time></trkpt><trkpt lat="42.2503533" lon="13.9348867"><ele>202.33333333333331</ele><time>2026-05-02T08:02:21.287Z</time></trkpt><trkpt lat="42.2502717" lon="13.9349183"><ele>200.0</ele><time>2026-05-02T08:02:23.286Z</time></trkpt><trkpt lat="42.2501883" lon="13.9349433"><ele>197.66666666666666</ele><time>2026-05-02T08:02:25.286Z</time></trkpt><trkpt lat="42.25012" lon="13.934955"><ele>195.33333333333331</ele><time>2026-05-02T08:02:27.286Z</time></trkpt><trkpt lat="42.25003" lon="13.9349383"><ele>193.0</ele><time>2026-05-02T08:02:30.286Z</time></trkpt><trkpt lat="42.2499517" lon="13.9349067"><ele>193.0</ele><time>2026-05-02T08:02:33.286Z</time></trkpt><trkpt lat="42.2498867" lon="13.9348733"><ele>193.0</ele><time>2026-05-02T08:02:36.286Z</time></trkpt><trkpt lat="42.2497367" lon="13.9348333"><ele>193.0</ele><time>2026-05-02T08:02:56.286Z</time></trkpt><trkpt lat="42.2496383" lon="13.9348483"><ele>193.0</ele><time>2026-05-02T08:03:09.286Z</time></trkpt><trkpt lat="42.24957" lon="13.93488"><ele>193.0</ele><time>2026-05-02T08:03:14.286Z</time></trkpt><trkpt lat="42.2494317" lon="13.93496"><ele>190.4</ele><time>2026-05-02T08:03:31.286Z</time></trkpt><trkpt lat="42.2493567" lon="13.934975"><ele>187.8</ele><time>2026-05-02T08:03:37.286Z</time></trkpt><trkpt lat="42.24927" lon="13.9349917"><ele>185.2</ele><time>2026-05-02T08:03:41.287Z</time></trkpt><trkpt lat="42.249175" lon="13.9350033"><ele>182.6</ele><time>2026-05-02T08:03:44.286Z</time></trkpt><trkpt lat="42.2491" lon="13.934995"><ele>180.0</ele><time>2026-05-02T08:03:47.286Z</time></trkpt><trkpt lat="42.2489783" lon="13.9349017"><ele>178.7142857142857</ele><time>2026-05-02T08:04:25.286Z</time></trkpt><trkpt lat="42.24891" lon="13.9349383"><ele>177.42857142857144</ele><time>2026-05-02T08:04:31.286Z</time></trkpt><trkpt lat="42.2488483" lon="13.9349583"><ele>176.14285714285714</ele><time>2026-05-02T08:04:34.286Z</time></trkpt><trkpt lat="42.2487733" lon="13.9349883"><ele>174.85714285714283</ele><time>2026-05-02T08:04:37.286Z</time></trkpt><trkpt lat="42.2487067" lon="13.93503"><ele>173.57142857142856</ele><time>2026-05-02T08:04:40.286Z</time></trkpt><trkpt lat="42.2486567" lon="13.9350967"><ele>172.28571428571428</ele><time>2026-05-02T08:04:43.286Z</time></trkpt><trkpt lat="42.2486017" lon="13.9351933"><ele>171.0</ele><time>2026-05-02T08:05:17.286Z</time></trkpt><trkpt lat="42.2485567" lon="13.9352783"><ele>169.42857142857142</ele><time>2026-05-02T08:05:19.286Z</time></trkpt><trkpt lat="42.2485067" lon="13.9353467"><ele>167.85714285714286</ele><time>2026-05-02T08:05:21.286Z</time></trkpt><trkpt lat="42.24845" lon="13.9353917"><ele>166.28571428571428</ele><time>2026-05-02T08:05:23.286Z</time></trkpt><trkpt lat="42.24838" lon="13.9354167"><ele>164.71428571428572</ele><time>2026-05-02T08:05:25.286Z</time></trkpt><trkpt lat="42.24831" lon="13.9354433"><ele>163.14285714285714</ele><time>2026-05-02T08:05:27.286Z</time></trkpt><trkpt lat="42.2482417" lon="13.9354933"><ele>161.57142857142856</ele><time>2026-05-02T08:05:29.286Z</time></trkpt><trkpt lat="42.2481967" lon="13.93557"><ele>160.0</ele><time>2026-05-02T08:05:31.286Z</time></trkpt><trkpt lat="42.2481833" lon="13.9356567"><ele>160.0</ele><time>2026-05-02T08:05:33.286Z</time></trkpt><trkpt lat="42.2481917" lon="13.9357517"><ele>160.0</ele><time>2026-05-02T08:05:35.286Z</time></trkpt><trkpt lat="42.2482133" lon="13.9358517"><ele>160.0</ele><time>2026-05-02T08:05:37.286Z</time></trkpt><trkpt lat="42.2482367" lon="13.9359617"><ele>160.0</ele><time>2026-05-02T08:05:39.287Z</time></trkpt><trkpt lat="42.2482483" lon="13.9360633"><ele>160.0</ele><time>2026-05-02T08:05:41.286Z</time></trkpt><trkpt lat="42.24826" lon="13.93619"><ele>160.0</ele><time>2026-05-02T08:05:43.286Z</time></trkpt><trkpt lat="42.24826" lon="13.9363033"><ele>159.5</ele><time>2026-05-02T08:05:45.286Z</time></trkpt><trkpt lat="42.2482433" lon="13.9363983"><ele>159.0</ele><time>2026-05-02T08:05:47.286Z</time></trkpt><trkpt lat="42.2482183" lon="13.9364883"><ele>158.5</ele><time>2026-05-02T08:05:49.286Z</time></trkpt><trkpt lat="42.2481783" lon="13.9365867"><ele>158.0</ele><time>2026-05-02T08:05:51.286Z</time></trkpt><trkpt lat="42.2481367" lon="13.9366967"><ele>157.5</ele><time>2026-05-02T08:05:53.286Z</time></trkpt><trkpt lat="42.24809" lon="13.9368"><ele>157.0</ele><time>2026-05-02T08:05:55.286Z</time></trkpt><trkpt lat="42.24803" lon="13.9368817"><ele>153.79999999999998</ele><time>2026-05-02T08:05:57.287Z</time></trkpt><trkpt lat="42.2479717" lon="13.9369383"><ele>150.6</ele><time>2026-05-02T08:05:59.286Z</time></trkpt><trkpt lat="42.247895" lon="13.9370083"><ele>147.39999999999998</ele><time>2026-05-02T08:06:01.286Z</time></trkpt><trkpt lat="42.2477883" lon="13.9370867"><ele>144.2</ele><time>2026-05-02T08:06:03.287Z</time></trkpt><trkpt lat="42.247685" lon="13.9371467"><ele>141.0</ele><time>2026-05-02T08:06:05.286Z</time></trkpt><trkpt lat="42.2475917" lon="13.93721"><ele>141.0</ele><time>2026-05-02T08:06:07.286Z</time></trkpt><trkpt lat="42.247485" lon="13.93726"><ele>141.0</ele><time>2026-05-02T08:06:09.286Z</time></trkpt><trkpt lat="42.2473683" lon="13.9372683"><ele>141.0</ele><time>2026-05-02T08:06:11.286Z</time></trkpt><trkpt lat="42.2472583" lon="13.9372217"><ele>141.0</ele><time>2026-05-02T08:06:13.286Z</time></trkpt><trkpt lat="42.2471817" lon="13.937135"><ele>141.0</ele><time>2026-05-02T08:06:15.286Z</time></trkpt><trkpt lat="42.24713" lon="13.9370833"><ele>141.16666666666666</ele><time>2026-05-02T08:06:17.286Z</time></trkpt><trkpt lat="42.2470017" lon="13.937035"><ele>141.33333333333334</ele><time>2026-05-02T08:06:37.286Z</time></trkpt><trkpt lat="42.246935" lon="13.936975"><ele>141.5</ele><time>2026-05-02T08:06:39.286Z</time></trkpt><trkpt lat="42.2468834" lon="13.936921"><ele>141.66666666666669</ele><time>2026-05-02T08:06:42.314Z</time></trkpt><trkpt lat="42.2468467" lon="13.9368267"><ele>141.83333333333334</ele><time>2026-05-02T08:07:19.286Z</time></trkpt><trkpt lat="42.2468283" lon="13.936705"><ele>142.0</ele><time>2026-05-02T08:07:22.286Z</time></trkpt><trkpt lat="42.2467967" lon="13.9366033"><ele>142.0</ele><time>2026-05-02T08:07:24.286Z</time></trkpt><trkpt lat="42.2467483" lon="13.9364817"><ele>142.0</ele><time>2026-05-02T08:07:26.286Z</time></trkpt><trkpt lat="42.2467117" lon="13.93641"><ele>142.0</ele><time>2026-05-02T08:07:27.286Z</time></trkpt><trkpt lat="42.2466667" lon="13.9363333"><ele>142.0</ele><time>2026-05-02T08:07:28.286Z</time></trkpt><trkpt lat="42.246625" lon="13.9362683"><ele>142.0</ele><time>2026-05-02T08:07:29.286Z</time></trkpt><trkpt lat="42.2465367" lon="13.9362183"><ele>142.0</ele><time>2026-05-02T08:07:31.286Z</time></trkpt><trkpt lat="42.24646" lon="13.93627"><ele>144.0</ele><time>2026-05-02T08:07:33.286Z</time></trkpt><trkpt lat="42.2464117" lon="13.936415"><ele>146.0</ele><time>2026-05-02T08:07:35.286Z</time></trkpt><trkpt lat="42.24636" lon="13.93653"><ele>148.0</ele><time>2026-05-02T08:07:37.286Z</time></trkpt><trkpt lat="42.2463167" lon="13.9366317"><ele>150.0</ele><time>2026-05-02T08:07:40.286Z</time></trkpt><trkpt lat="42.2462533" lon="13.93671"><ele>152.0</ele><time>2026-05-02T08:18:09.286Z</time></trkpt><trkpt lat="42.2462467" lon="13.9368433"><ele>152.4</ele><time>2026-05-02T08:18:11.286Z</time></trkpt><trkpt lat="42.24626" lon="13.9369317"><ele>152.79999999999998</ele><time>2026-05-02T08:18:12.286Z</time></trkpt><trkpt lat="42.246275" lon="13.9370217"><ele>153.2</ele><time>2026-05-02T08:18:13.286Z</time></trkpt><trkpt lat="42.2462633" lon="13.9371683"><ele>153.6</ele><time>2026-05-02T08:18:15.286Z</time></trkpt><trkpt lat="42.246215" lon="13.93734"><ele>154.0</ele><time>2026-05-02T08:18:17.286Z</time></trkpt><trkpt lat="42.246175" lon="13.9374267"><ele>154.0</ele><time>2026-05-02T08:18:18.286Z</time></trkpt><trkpt lat="42.24613" lon="13.9374983"><ele>154.0</ele><time>2026-05-02T08:18:19.286Z</time></trkpt><trkpt lat="42.246085" lon="13.9375683"><ele>154.0</ele><time>2026-05-02T08:18:20.286Z</time></trkpt><trkpt lat="42.2460317" lon="13.9376333"><ele>154.0</ele><time>2026-05-02T08:18:21.286Z</time></trkpt><trkpt lat="42.2459833" lon="13.9376917"><ele>154.0</ele><time>2026-05-02T08:18:22.286Z</time></trkpt><trkpt lat="42.2459083" lon="13.937785"><ele>154.0</ele><time>2026-05-02T08:18:24.286Z</time></trkpt><trkpt lat="42.2458333" lon="13.937715"><ele>154.0</ele><time>2026-05-02T08:18:28.287Z</time></trkpt><trkpt lat="42.2458" lon="13.93759"><ele>154.0</ele><time>2026-05-02T08:18:30.286Z</time></trkpt><trkpt lat="42.2457733" lon="13.937505"><ele>154.0</ele><time>2026-05-02T08:18:31.286Z</time></trkpt><trkpt lat="42.2457417" lon="13.9374217"><ele>154.0</ele><time>2026-05-02T08:18:32.287Z</time></trkpt><trkpt lat="42.24571" lon="13.937335"><ele>154.0</ele><time>2026-05-02T08:18:33.286Z</time></trkpt><trkpt lat="42.2456783" lon="13.9372383"><ele>154.0</ele><time>2026-05-02T08:18:34.286Z</time></trkpt><trkpt lat="42.2456517" lon="13.937145"><ele>154.16666666666669</ele><time>2026-05-02T08:18:35.287Z</time></trkpt><trkpt lat="42.2456167" lon="13.93704"><ele>154.33333333333334</ele><time>2026-05-02T08:18:36.287Z</time></trkpt><trkpt lat="42.245585" lon="13.9369383"><ele>154.5</ele><time>2026-05-02T08:18:37.286Z</time></trkpt><trkpt lat="42.2455483" lon="13.9368283"><ele>154.66666666666666</ele><time>2026-05-02T08:18:38.286Z</time></trkpt><trkpt lat="42.2455117" lon="13.93671"><ele>154.83333333333331</ele><time>2026-05-02T08:18:39.286Z</time></trkpt><trkpt lat="42.245475" lon="13.9366033"><ele>155.0</ele><time>2026-05-02T08:18:40.286Z</time></trkpt><trkpt lat="42.245425" lon="13.9365033"><ele>155.4</ele><time>2026-05-02T08:18:41.286Z</time></trkpt><trkpt lat="42.2453833" lon="13.9363817"><ele>155.8</ele><time>2026-05-02T08:18:42.286Z</time></trkpt><trkpt lat="42.2453383" lon="13.9362583"><ele>156.2</ele><time>2026-05-02T08:18:43.286Z</time></trkpt><trkpt lat="42.2452967" lon="13.9361267"><ele>156.6</ele><time>2026-05-02T08:18:44.286Z</time></trkpt><trkpt lat="42.24525" lon="13.9359917"><ele>157.0</ele><time>2026-05-02T08:18:45.286Z</time></trkpt><trkpt lat="42.2452067" lon="13.9358617"><ele>157.6</ele><time>2026-05-02T08:18:46.286Z</time></trkpt><trkpt lat="42.2451683" lon="13.93573"><ele>158.2</ele><time>2026-05-02T08:18:47.286Z</time></trkpt><trkpt lat="42.2451367" lon="13.9356217"><ele>158.8</ele><time>2026-05-02T08:18:48.286Z</time></trkpt><trkpt lat="42.2451117" lon="13.9355267"><ele>159.4</ele><time>2026-05-02T08:18:49.286Z</time></trkpt><trkpt lat="42.2450533" lon="13.9353967"><ele>160.0</ele><time>2026-05-02T08:18:51.286Z</time></trkpt><trkpt lat="42.2450033" lon="13.9352733"><ele>160.0</ele><time>2026-05-02T08:18:53.286Z</time></trkpt><trkpt lat="42.2449383" lon="13.935135"><ele>160.0</ele><time>2026-05-02T08:18:55.286Z</time></trkpt><trkpt lat="42.244835" lon="13.9350967"><ele>160.0</ele><time>2026-05-02T08:18:57.286Z</time></trkpt><trkpt lat="42.244735" lon="13.9350467"><ele>160.0</ele><time>2026-05-02T08:18:59.286Z</time></trkpt><trkpt lat="42.2446217" lon="13.9349767"><ele>161.2</ele><time>2026-05-02T08:19:01.287Z</time></trkpt><trkpt lat="42.244515" lon="13.9349617"><ele>162.4</ele><time>2026-05-02T08:19:02.286Z</time></trkpt><trkpt lat="42.2444433" lon="13.9350167"><ele>163.60000000000002</ele><time>2026-05-02T08:19:03.286Z</time></trkpt><trkpt lat="42.2443767" lon="13.9351667"><ele>164.8</ele><time>2026-05-02T08:19:04.286Z</time></trkpt><trkpt lat="42.244375" lon="13.9353417"><ele>166.0</ele><time>2026-05-02T08:19:05.287Z</time></trkpt><trkpt lat="42.2444017" lon="13.9355817"><ele>166.0</ele><time>2026-05-02T08:19:06.286Z</time></trkpt><trkpt lat="42.2444183" lon="13.9358"><ele>166.0</ele><time>2026-05-02T08:19:07.287Z</time></trkpt><trkpt lat="42.244435" lon="13.93597"><ele>166.0</ele><time>2026-05-02T08:19:08.286Z</time></trkpt><trkpt lat="42.2444167" lon="13.9361067"><ele>166.0</ele><time>2026-05-02T08:19:09.286Z</time></trkpt><trkpt lat="42.244395" lon="13.93622"><ele>165.33333333333334</ele><time>2026-05-02T08:19:10.286Z</time></trkpt><trkpt lat="42.244365" lon="13.93632"><ele>164.66666666666669</ele><time>2026-05-02T08:19:11.286Z</time></trkpt><trkpt lat="42.24433" lon="13.9364133"><ele>164.0</ele><time>2026-05-02T08:19:12.286Z</time></trkpt><trkpt lat="42.24429" lon="13.9365067"><ele>163.33333333333334</ele><time>2026-05-02T08:19:13.286Z</time></trkpt><trkpt lat="42.2442483" lon="13.9366083"><ele>162.66666666666666</ele><time>2026-05-02T08:19:14.286Z</time></trkpt><trkpt lat="42.2442017" lon="13.9366983"><ele>162.0</ele><time>2026-05-02T08:19:15.286Z</time></trkpt><trkpt lat="42.2441617" lon="13.93678"><ele>161.66666666666666</ele><time>2026-05-02T08:19:16.286Z</time></trkpt><trkpt lat="42.2441233" lon="13.9368517"><ele>161.33333333333334</ele><time>2026-05-02T08:19:17.286Z</time></trkpt><trkpt lat="42.2440733" lon="13.936905"><ele>161.0</ele><time>2026-05-02T08:19:18.286Z</time></trkpt><trkpt lat="42.24396" lon="13.9369083"><ele>160.66666666666669</ele><time>2026-05-02T08:19:20.286Z</time></trkpt><trkpt lat="42.2438833" lon="13.936785"><ele>160.33333333333334</ele><time>2026-05-02T08:19:22.287Z</time></trkpt><trkpt lat="42.243855" lon="13.9366883"><ele>160.0</ele><time>2026-05-02T08:19:23.287Z</time></trkpt><trkpt lat="42.2438317" lon="13.9365833"><ele>160.83333333333334</ele><time>2026-05-02T08:19:24.286Z</time></trkpt><trkpt lat="42.2438083" lon="13.936475"><ele>161.66666666666669</ele><time>2026-05-02T08:19:25.286Z</time></trkpt><trkpt lat="42.2437833" lon="13.93637"><ele>162.5</ele><time>2026-05-02T08:19:26.286Z</time></trkpt><trkpt lat="42.24376" lon="13.9362567"><ele>163.33333333333334</ele><time>2026-05-02T08:19:27.286Z</time></trkpt><trkpt lat="42.243735" lon="13.9361483"><ele>164.16666666666666</ele><time>2026-05-02T08:19:28.286Z</time></trkpt><trkpt lat="42.2437083" lon="13.93604"><ele>165.0</ele><time>2026-05-02T08:19:29.286Z</time></trkpt><trkpt lat="42.2436817" lon="13.9359333"><ele>165.33333333333334</ele><time>2026-05-02T08:19:30.286Z</time></trkpt><trkpt lat="42.2436517" lon="13.93583"><ele>165.66666666666666</ele><time>2026-05-02T08:19:31.286Z</time></trkpt><trkpt lat="42.2436167" lon="13.9357183"><ele>166.0</ele><time>2026-05-02T08:19:32.287Z</time></trkpt><trkpt lat="42.24358" lon="13.9356217"><ele>166.33333333333331</ele><time>2026-05-02T08:19:33.286Z</time></trkpt><trkpt lat="42.2435567" lon="13.9354983"><ele>166.66666666666666</ele><time>2026-05-02T08:19:34.286Z</time></trkpt><trkpt lat="42.243525" lon="13.9353817"><ele>167.0</ele><time>2026-05-02T08:19:35.286Z</time></trkpt><trkpt lat="42.24349" lon="13.935275"><ele>167.0</ele><time>2026-05-02T08:19:36.286Z</time></trkpt><trkpt lat="42.243465" lon="13.9351633"><ele>167.0</ele><time>2026-05-02T08:19:37.286Z</time></trkpt><trkpt lat="42.243445" lon="13.93505"><ele>167.0</ele><time>2026-05-02T08:19:38.286Z</time></trkpt><trkpt lat="42.24343" lon="13.9349283"><ele>167.0</ele><time>2026-05-02T08:19:39.286Z</time></trkpt><trkpt lat="42.2434017" lon="13.9348133"><ele>167.0</ele><time>2026-05-02T08:19:40.286Z</time></trkpt><trkpt lat="42.243375" lon="13.9347067"><ele>167.0</ele><time>2026-05-02T08:19:41.286Z</time></trkpt><trkpt lat="42.24334" lon="13.934595"><ele>167.33333333333331</ele><time>2026-05-02T08:19:42.287Z</time></trkpt><trkpt lat="42.2433133" lon="13.93448"><ele>167.66666666666666</ele><time>2026-05-02T08:19:43.286Z</time></trkpt><trkpt lat="42.243285" lon="13.93437"><ele>168.0</ele><time>2026-05-02T08:19:44.286Z</time></trkpt><trkpt lat="42.243255" lon="13.934265"><ele>168.33333333333334</ele><time>2026-05-02T08:19:45.286Z</time></trkpt><trkpt lat="42.2432283" lon="13.9341567"><ele>168.66666666666669</ele><time>2026-05-02T08:19:46.286Z</time></trkpt><trkpt lat="42.2431983" lon="13.9340583"><ele>169.0</ele><time>2026-05-02T08:19:47.286Z</time></trkpt><trkpt lat="42.2431717" lon="13.9339533"><ele>169.16666666666669</ele><time>2026-05-02T08:19:48.287Z</time></trkpt><trkpt lat="42.2431417" lon="13.933845"><ele>169.33333333333334</ele><time>2026-05-02T08:19:49.286Z</time></trkpt><trkpt lat="42.2431183" lon="13.93375"><ele>169.5</ele><time>2026-05-02T08:19:50.286Z</time></trkpt><trkpt lat="42.2430983" lon="13.9336667"><ele>169.66666666666666</ele><time>2026-05-02T08:19:51.286Z</time></trkpt><trkpt lat="42.2430533" lon="13.933505"><ele>169.83333333333331</ele><time>2026-05-02T08:19:53.286Z</time></trkpt><trkpt lat="42.2430317" lon="13.933415"><ele>170.0</ele><time>2026-05-02T08:19:54.286Z</time></trkpt><trkpt lat="42.2430083" lon="13.933315"><ele>171.16666666666666</ele><time>2026-05-02T08:19:55.286Z</time></trkpt><trkpt lat="42.2429817" lon="13.93321"><ele>172.33333333333331</ele><time>2026-05-02T08:19:56.286Z</time></trkpt><trkpt lat="42.2429517" lon="13.9330983"><ele>173.5</ele><time>2026-05-02T08:19:57.286Z</time></trkpt><trkpt lat="42.2429217" lon="13.93298"><ele>174.66666666666666</ele><time>2026-05-02T08:19:58.286Z</time></trkpt><trkpt lat="42.2428917" lon="13.9328667"><ele>175.83333333333334</ele><time>2026-05-02T08:19:59.286Z</time></trkpt><trkpt lat="42.2428667" lon="13.9327483"><ele>177.0</ele><time>2026-05-02T08:20:00.286Z</time></trkpt><trkpt lat="42.2428433" lon="13.9326333"><ele>177.33333333333334</ele><time>2026-05-02T08:20:01.286Z</time></trkpt><trkpt lat="42.242815" lon="13.9325233"><ele>177.66666666666666</ele><time>2026-05-02T08:20:02.286Z</time></trkpt><trkpt lat="42.2427833" lon="13.9324183"><ele>178.0</ele><time>2026-05-02T08:20:03.286Z</time></trkpt><trkpt lat="42.24275" lon="13.9323233"><ele>178.33333333333331</ele><time>2026-05-02T08:20:04.286Z</time></trkpt><trkpt lat="42.2427317" lon="13.9322217"><ele>178.66666666666666</ele><time>2026-05-02T08:20:05.286Z</time></trkpt><trkpt lat="42.24271" lon="13.9321317"><ele>179.0</ele><time>2026-05-02T08:20:06.286Z</time></trkpt><trkpt lat="42.2426867" lon="13.9320383"><ele>179.0</ele><time>2026-05-02T08:20:07.286Z</time></trkpt><trkpt lat="42.24266" lon="13.9319433"><ele>179.0</ele><time>2026-05-02T08:20:08.286Z</time></trkpt><trkpt lat="42.242635" lon="13.9318483"><ele>179.0</ele><time>2026-05-02T08:20:09.286Z</time></trkpt><trkpt lat="42.2426133" lon="13.9317483"><ele>179.0</ele><time>2026-05-02T08:20:10.286Z</time></trkpt><trkpt lat="42.242585" lon="13.931645"><ele>179.0</ele><time>2026-05-02T08:20:11.286Z</time></trkpt><trkpt lat="42.24256" lon="13.93154"><ele>179.0</ele><time>2026-05-02T08:20:12.286Z</time></trkpt><trkpt lat="42.242535" lon="13.931435"><ele>179.33333333333331</ele><time>2026-05-02T08:20:13.286Z</time></trkpt><trkpt lat="42.242505" lon="13.9313267"><ele>179.66666666666666</ele><time>2026-05-02T08:20:14.286Z</time></trkpt><trkpt lat="42.2424933" lon="13.931205"><ele>180.0</ele><time>2026-05-02T08:20:15.286Z</time></trkpt><trkpt lat="42.2424633" lon="13.9310983"><ele>180.33333333333334</ele><time>2026-05-02T08:20:16.286Z</time></trkpt><trkpt lat="42.2424317" lon="13.9309983"><ele>180.66666666666669</ele><time>2026-05-02T08:20:17.286Z</time></trkpt><trkpt lat="42.2423917" lon="13.93089"><ele>181.0</ele><time>2026-05-02T08:20:18.286Z</time></trkpt><trkpt lat="42.242365" lon="13.9307733"><ele>181.20000000000002</ele><time>2026-05-02T08:20:19.287Z</time></trkpt><trkpt lat="42.2423367" lon="13.9306567"><ele>181.4</ele><time>2026-05-02T08:20:20.286Z</time></trkpt><trkpt lat="42.242305" lon="13.9305367"><ele>181.6</ele><time>2026-05-02T08:20:21.286Z</time></trkpt><trkpt lat="42.2422833" lon="13.9304033"><ele>181.8</ele><time>2026-05-02T08:20:22.287Z</time></trkpt><trkpt lat="42.2422483" lon="13.93028"><ele>182.0</ele><time>2026-05-02T08:20:23.286Z</time></trkpt><trkpt lat="42.2422233" lon="13.93016"><ele>182.0</ele><time>2026-05-02T08:20:24.286Z</time></trkpt><trkpt lat="42.2421917" lon="13.93005"><ele>182.0</ele><time>2026-05-02T08:20:25.286Z</time></trkpt><trkpt lat="42.2421633" lon="13.929935"><ele>182.0</ele><time>2026-05-02T08:20:26.286Z</time></trkpt><trkpt lat="42.242135" lon="13.9298217"><ele>182.0</ele><time>2026-05-02T08:20:27.286Z</time></trkpt><trkpt lat="42.2421117" lon="13.9297117"><ele>182.0</ele><time>2026-05-02T08:20:28.286Z</time></trkpt><trkpt lat="42.2420817" lon="13.9295917"><ele>182.0</ele><time>2026-05-02T08:20:29.287Z</time></trkpt><trkpt lat="42.2420583" lon="13.9294633"><ele>182.0</ele><time>2026-05-02T08:20:30.286Z</time></trkpt><trkpt lat="42.2420367" lon="13.9293183"><ele>182.0</ele><time>2026-05-02T08:20:31.286Z</time></trkpt><trkpt lat="42.2420133" lon="13.9291683"><ele>182.0</ele><time>2026-05-02T08:20:32.287Z</time></trkpt><trkpt lat="42.2419667" lon="13.9290467"><ele>182.0</ele><time>2026-05-02T08:20:33.287Z</time></trkpt><trkpt lat="42.24192" lon="13.928935"><ele>182.0</ele><time>2026-05-02T08:20:34.286Z</time></trkpt><trkpt lat="42.2418883" lon="13.9288233"><ele>182.0</ele><time>2026-05-02T08:20:35.286Z</time></trkpt><trkpt lat="42.2418517" lon="13.9287133"><ele>182.0</ele><time>2026-05-02T08:20:36.286Z</time></trkpt><trkpt lat="42.2418283" lon="13.9286"><ele>182.0</ele><time>2026-05-02T08:20:37.286Z</time></trkpt><trkpt lat="42.2417983" lon="13.9284983"><ele>182.0</ele><time>2026-05-02T08:20:38.286Z</time></trkpt><trkpt lat="42.2417667" lon="13.9283867"><ele>182.0</ele><time>2026-05-02T08:20:39.286Z</time></trkpt><trkpt lat="42.2417383" lon="13.9282717"><ele>182.0</ele><time>2026-05-02T08:20:40.287Z</time></trkpt><trkpt lat="42.2417" lon="13.928145"><ele>182.66666666666666</ele><time>2026-05-02T08:20:41.286Z</time></trkpt><trkpt lat="42.2416717" lon="13.9280233"><ele>183.33333333333331</ele><time>2026-05-02T08:20:42.286Z</time></trkpt><trkpt lat="42.2416417" lon="13.92791"><ele>184.0</ele><time>2026-05-02T08:20:43.287Z</time></trkpt><trkpt lat="42.2416183" lon="13.9277867"><ele>184.66666666666666</ele><time>2026-05-02T08:20:44.286Z</time></trkpt><trkpt lat="42.241595" lon="13.927685"><ele>185.33333333333334</ele><time>2026-05-02T08:20:45.286Z</time></trkpt><trkpt lat="42.2415767" lon="13.9275667"><ele>186.0</ele><time>2026-05-02T08:20:46.286Z</time></trkpt><trkpt lat="42.2415567" lon="13.9274733"><ele>186.0</ele><time>2026-05-02T08:20:47.286Z</time></trkpt><trkpt lat="42.2414983" lon="13.9273333"><ele>186.0</ele><time>2026-05-02T08:20:49.286Z</time></trkpt><trkpt lat="42.2414617" lon="13.927185"><ele>186.0</ele><time>2026-05-02T08:20:51.286Z</time></trkpt><trkpt lat="42.2414267" lon="13.9270417"><ele>186.0</ele><time>2026-05-02T08:20:53.286Z</time></trkpt><trkpt lat="42.241395" lon="13.92692"><ele>186.0</ele><time>2026-05-02T08:20:55.286Z</time></trkpt><trkpt lat="42.2413467" lon="13.9267083"><ele>186.16666666666666</ele><time>2026-05-02T08:23:13.286Z</time></trkpt><trkpt lat="42.2413117" lon="13.9265717"><ele>186.33333333333334</ele><time>2026-05-02T08:23:15.286Z</time></trkpt><trkpt lat="42.2413133" lon="13.9264483"><ele>186.5</ele><time>2026-05-02T08:23:17.286Z</time></trkpt><trkpt lat="42.2413583" lon="13.9263617"><ele>186.66666666666669</ele><time>2026-05-02T08:23:19.286Z</time></trkpt><trkpt lat="42.2414367" lon="13.9263217"><ele>186.83333333333334</ele><time>2026-05-02T08:23:21.286Z</time></trkpt><trkpt lat="42.2415067" lon="13.9263333"><ele>187.0</ele><time>2026-05-02T08:23:22.286Z</time></trkpt><trkpt lat="42.241585" lon="13.9263433"><ele>187.0</ele><time>2026-05-02T08:23:23.286Z</time></trkpt><trkpt lat="42.2416717" lon="13.9263467"><ele>187.0</ele><time>2026-05-02T08:23:24.286Z</time></trkpt><trkpt lat="42.2417717" lon="13.9263583"><ele>187.0</ele><time>2026-05-02T08:23:25.286Z</time></trkpt><trkpt lat="42.2418833" lon="13.9263717"><ele>187.0</ele><time>2026-05-02T08:23:26.286Z</time></trkpt><trkpt lat="42.2420117" lon="13.926415"><ele>187.0</ele><time>2026-05-02T08:23:27.286Z</time></trkpt><trkpt lat="42.2421317" lon="13.9264717"><ele>187.0</ele><time>2026-05-02T08:23:28.286Z</time></trkpt><trkpt lat="42.2422417" lon="13.92652"><ele>187.0</ele><time>2026-05-02T08:23:29.286Z</time></trkpt><trkpt lat="42.242335" lon="13.9266167"><ele>187.0</ele><time>2026-05-02T08:23:30.286Z</time></trkpt><trkpt lat="42.242425" lon="13.9267167"><ele>187.0</ele><time>2026-05-02T08:23:31.286Z</time></trkpt><trkpt lat="42.24251" lon="13.9268367"><ele>186.5</ele><time>2026-05-02T08:23:32.286Z</time></trkpt><trkpt lat="42.2425917" lon="13.926945"><ele>186.0</ele><time>2026-05-02T08:23:33.286Z</time></trkpt><trkpt lat="42.24268" lon="13.9270567"><ele>185.5</ele><time>2026-05-02T08:23:34.286Z</time></trkpt><trkpt lat="42.24277" lon="13.9271717"><ele>185.0</ele><time>2026-05-02T08:23:35.286Z</time></trkpt><trkpt lat="42.2428567" lon="13.92729"><ele>185.0</ele><time>2026-05-02T08:23:36.286Z</time></trkpt><trkpt lat="42.24294" lon="13.9274033"><ele>185.0</ele><time>2026-05-02T08:23:37.287Z</time></trkpt><trkpt lat="42.2430217" lon="13.9275083"><ele>185.0</ele><time>2026-05-02T08:23:38.286Z</time></trkpt><trkpt lat="42.2430967" lon="13.9276283"><ele>185.0</ele><time>2026-05-02T08:23:39.286Z</time></trkpt><trkpt lat="42.24317" lon="13.9277233"><ele>185.0</ele><time>2026-05-02T08:23:40.286Z</time></trkpt><trkpt lat="42.2432417" lon="13.9278217"><ele>184.2</ele><time>2026-05-02T08:23:41.286Z</time></trkpt><trkpt lat="42.24332" lon="13.9279067"><ele>183.4</ele><time>2026-05-02T08:23:42.286Z</time></trkpt><trkpt lat="42.2433867" lon="13.927985"><ele>182.60000000000002</ele><time>2026-05-02T08:23:43.286Z</time></trkpt><trkpt lat="42.2434533" lon="13.9280767"><ele>181.8</ele><time>2026-05-02T08:23:44.287Z</time></trkpt><trkpt lat="42.24352" lon="13.928175"><ele>181.0</ele><time>2026-05-02T08:23:45.286Z</time></trkpt><trkpt lat="42.24359" lon="13.9282767"><ele>181.0</ele><time>2026-05-02T08:23:46.286Z</time></trkpt><trkpt lat="42.243655" lon="13.9283567"><ele>181.0</ele><time>2026-05-02T08:23:47.286Z</time></trkpt><trkpt lat="42.243735" lon="13.9283983"><ele>181.0</ele><time>2026-05-02T08:23:48.286Z</time></trkpt><trkpt lat="42.2438317" lon="13.928415"><ele>181.0</ele><time>2026-05-02T08:23:49.286Z</time></trkpt><trkpt lat="42.2439433" lon="13.9284167"><ele>181.0</ele><time>2026-05-02T08:23:50.286Z</time></trkpt><trkpt lat="42.2440333" lon="13.9283817"><ele>180.5</ele><time>2026-05-02T08:23:51.286Z</time></trkpt><trkpt lat="42.2441133" lon="13.92833"><ele>180.0</ele><time>2026-05-02T08:23:52.286Z</time></trkpt><trkpt lat="42.2441983" lon="13.928295"><ele>179.5</ele><time>2026-05-02T08:23:53.286Z</time></trkpt><trkpt lat="42.2442717" lon="13.92825"><ele>179.0</ele><time>2026-05-02T08:23:54.286Z</time></trkpt><trkpt lat="42.2443383" lon="13.9281683"><ele>178.5</ele><time>2026-05-02T08:23:55.287Z</time></trkpt><trkpt lat="42.244395" lon="13.9280833"><ele>178.0</ele><time>2026-05-02T08:23:56.286Z</time></trkpt><trkpt lat="42.2444367" lon="13.9280033"><ele>178.0</ele><time>2026-05-02T08:23:57.286Z</time></trkpt><trkpt lat="42.24446" lon="13.9279183"><ele>178.0</ele><time>2026-05-02T08:23:58.286Z</time></trkpt><trkpt lat="42.2444783" lon="13.9278"><ele>178.0</ele><time>2026-05-02T08:24:00.287Z</time></trkpt><trkpt lat="42.2444767" lon="13.92769"><ele>178.0</ele><time>2026-05-02T08:24:03.286Z</time></trkpt><trkpt lat="42.2444817" lon="13.9275817"><ele>178.0</ele><time>2026-05-02T08:24:07.286Z</time></trkpt><trkpt lat="42.2444983" lon="13.9274633"><ele>178.0</ele><time>2026-05-02T08:24:10.286Z</time></trkpt><trkpt lat="42.244525" lon="13.9273467"><ele>179.16666666666669</ele><time>2026-05-02T08:24:12.286Z</time></trkpt><trkpt lat="42.2445483" lon="13.9272183"><ele>180.33333333333334</ele><time>2026-05-02T08:24:14.287Z</time></trkpt><trkpt lat="42.2445667" lon="13.92711"><ele>181.5</ele><time>2026-05-02T08:24:16.286Z</time></trkpt><trkpt lat="42.24458" lon="13.92702"><ele>182.66666666666666</ele><time>2026-05-02T08:24:18.286Z</time></trkpt><trkpt lat="42.2445967" lon="13.926925"><ele>183.83333333333331</ele><time>2026-05-02T08:24:20.286Z</time></trkpt><trkpt lat="42.2446267" lon="13.92683"><ele>185.0</ele><time>2026-05-02T08:24:22.286Z</time></trkpt><trkpt lat="42.24466" lon="13.9267383"><ele>184.99999999999997</ele><time>2026-05-02T08:24:24.286Z</time></trkpt><trkpt lat="42.2446917" lon="13.926655"><ele>185.0</ele><time>2026-05-02T08:24:26.286Z</time></trkpt><trkpt lat="42.2447233" lon="13.9265683"><ele>185.0</ele><time>2026-05-02T08:24:28.286Z</time></trkpt><trkpt lat="42.2447617" lon="13.926485"><ele>185.0</ele><time>2026-05-02T08:24:32.286Z</time></trkpt><trkpt lat="42.2446933" lon="13.9264917"><ele>185.0</ele><time>2026-05-02T08:26:49.285Z</time></trkpt><trkpt lat="42.244655" lon="13.9265617"><ele>184.99999999999997</ele><time>2026-05-02T08:27:00.285Z</time></trkpt><trkpt lat="42.2446309" lon="13.9266513"><ele>185.0</ele><time>2026-05-02T08:27:07.464Z</time></trkpt><trkpt lat="42.2446103" lon="13.9267387"><ele>184.99999999999997</ele><time>2026-05-02T08:27:12.336Z</time></trkpt><trkpt lat="42.2445839" lon="13.9268263"><ele>185.0</ele><time>2026-05-02T08:27:16.378Z</time></trkpt><trkpt lat="42.2445323" lon="13.9268985"><ele>185.0</ele><time>2026-05-02T08:27:21.339Z</time></trkpt><trkpt lat="42.2445052" lon="13.926979"><ele>185.0</ele><time>2026-05-02T08:27:27.331Z</time></trkpt><trkpt lat="42.2445059" lon="13.9270693"><ele>185.0</ele><time>2026-05-02T08:27:32.33Z</time></trkpt><trkpt lat="42.2445005" lon="13.9271549"><ele>184.99999999999997</ele><time>2026-05-02T08:27:37.34Z</time></trkpt><trkpt lat="42.2444949" lon="13.9272503"><ele>185.0</ele><time>2026-05-02T08:27:43.39Z</time></trkpt><trkpt lat="42.2445489" lon="13.9273306"><ele>184.99999999999997</ele><time>2026-05-02T08:27:47.324Z</time></trkpt><trkpt lat="42.2445853" lon="13.9274094"><ele>185.0</ele><time>2026-05-02T08:27:53.386Z</time></trkpt><trkpt lat="42.244586" lon="13.9275044"><ele>185.0</ele><time>2026-05-02T08:28:01.362Z</time></trkpt><trkpt lat="42.2445844" lon="13.9276028"><ele>185.0</ele><time>2026-05-02T08:28:06.319Z</time></trkpt><trkpt lat="42.2445789" lon="13.9276904"><ele>185.0</ele><time>2026-05-02T08:28:11.322Z</time></trkpt><trkpt lat="42.2445099" lon="13.9277632"><ele>184.99999999999997</ele><time>2026-05-02T08:28:16.357Z</time></trkpt><trkpt lat="42.2444468" lon="13.9278181"><ele>185.0</ele><time>2026-05-02T08:28:19.783Z</time></trkpt><trkpt lat="42.2444524" lon="13.9279057"><ele>183.99999999999997</ele><time>2026-05-02T08:28:25.162Z</time></trkpt><trkpt lat="42.2444899" lon="13.9279801"><ele>183.0</ele><time>2026-05-02T08:28:31.223Z</time></trkpt><trkpt lat="42.2444412" lon="13.9280362"><ele>182.0</ele><time>2026-05-02T08:28:36.349Z</time></trkpt><trkpt lat="42.2443887" lon="13.9280846"><ele>181.0</ele><time>2026-05-02T08:28:40.263Z</time></trkpt><trkpt lat="42.2443464" lon="13.9281598"><ele>180.0</ele><time>2026-05-02T08:28:50.683Z</time></trkpt><trkpt lat="42.2443445" lon="13.9282553"><ele>178.99999999999997</ele><time>2026-05-02T08:28:55.802Z</time></trkpt><trkpt lat="42.2443697" lon="13.928335"><ele>178.0</ele><time>2026-05-02T08:28:58.883Z</time></trkpt><trkpt lat="42.2443907" lon="13.9284223"><ele>177.66666666666669</ele><time>2026-05-02T08:29:02.063Z</time></trkpt><trkpt lat="42.2444259" lon="13.9285189"><ele>177.33333333333334</ele><time>2026-05-02T08:29:06.243Z</time></trkpt><trkpt lat="42.2445356" lon="13.928572"><ele>177.0</ele><time>2026-05-02T08:29:46.344Z</time></trkpt><trkpt lat="42.244605" lon="13.9285733"><ele>176.66666666666666</ele><time>2026-05-02T08:29:50.361Z</time></trkpt><trkpt lat="42.2446513" lon="13.9286387"><ele>176.33333333333331</ele><time>2026-05-02T08:29:56.422Z</time></trkpt><trkpt lat="42.2445909" lon="13.9287465"><ele>176.0</ele><time>2026-05-02T08:30:46.4Z</time></trkpt><trkpt lat="42.2445739" lon="13.9286439"><ele>176.0</ele><time>2026-05-02T08:30:54.375Z</time></trkpt><trkpt lat="42.2445575" lon="13.9285594"><ele>176.0</ele><time>2026-05-02T08:31:00.33Z</time></trkpt><trkpt lat="42.2445514" lon="13.9284747"><ele>176.0</ele><time>2026-05-02T08:31:12.345Z</time></trkpt><trkpt lat="42.2445435" lon="13.9283585"><ele>176.0</ele><time>2026-05-02T08:31:51.37Z</time></trkpt><trkpt lat="42.2445294" lon="13.9282083"><ele>176.0</ele><time>2026-05-02T08:31:53.39Z</time></trkpt><trkpt lat="42.2447151" lon="13.9278962"><ele>176.0</ele><time>2026-05-02T08:32:01.578Z</time></trkpt><trkpt lat="42.2447379" lon="13.9284359"><ele>176.0</ele><time>2026-05-02T08:32:07.437Z</time></trkpt><trkpt lat="42.2446646" lon="13.9284571"><ele>176.0</ele><time>2026-05-02T08:32:18.379Z</time></trkpt><trkpt lat="42.2446033" lon="13.9284141"><ele>176.0</ele><time>2026-05-02T08:32:35.392Z</time></trkpt><trkpt lat="42.2445796" lon="13.9283292"><ele>176.0</ele><time>2026-05-02T08:32:50.385Z</time></trkpt><trkpt lat="42.2445458" lon="13.9282545"><ele>176.0</ele><time>2026-05-02T08:32:59.317Z</time></trkpt><trkpt lat="42.2445245" lon="13.9281743"><ele>176.0</ele><time>2026-05-02T08:33:14.31Z</time></trkpt><trkpt lat="42.2444927" lon="13.928068"><ele>176.0</ele><time>2026-05-02T08:33:37.384Z</time></trkpt><trkpt lat="42.2444328" lon="13.9280364"><ele>176.0</ele><time>2026-05-02T08:33:42.381Z</time></trkpt><trkpt lat="42.2441786" lon="13.927862"><ele>176.33333333333331</ele><time>2026-05-02T08:33:44.402Z</time></trkpt><trkpt lat="42.2440975" lon="13.9278062"><ele>176.66666666666666</ele><time>2026-05-02T08:33:45.359Z</time></trkpt><trkpt lat="42.2440332" lon="13.927759"><ele>177.0</ele><time>2026-05-02T08:33:48.336Z</time></trkpt><trkpt lat="42.2439686" lon="13.927709"><ele>177.33333333333334</ele><time>2026-05-02T08:33:53.333Z</time></trkpt><trkpt lat="42.2439809" lon="13.9277962"><ele>177.66666666666669</ele><time>2026-05-02T08:34:05.349Z</time></trkpt><trkpt lat="42.2440545" lon="13.9278044"><ele>178.0</ele><time>2026-05-02T08:34:23.319Z</time></trkpt><trkpt lat="42.244133" lon="13.9280683"><ele>178.0</ele><time>2026-05-02T08:34:30.336Z</time></trkpt><trkpt lat="42.2441557" lon="13.9281529"><ele>178.0</ele><time>2026-05-02T08:34:32.357Z</time></trkpt><trkpt lat="42.2446177" lon="13.9286164"><ele>178.0</ele><time>2026-05-02T08:35:01.386Z</time></trkpt><trkpt lat="42.2446466" lon="13.9285065"><ele>178.0</ele><time>2026-05-02T08:35:02.342Z</time></trkpt><trkpt lat="42.2446034" lon="13.9284411"><ele>178.0</ele><time>2026-05-02T08:35:06.382Z</time></trkpt><trkpt lat="42.2444641" lon="13.9283338"><ele>178.0</ele><time>2026-05-02T08:35:08.403Z</time></trkpt><trkpt lat="42.2443156" lon="13.9282159"><ele>178.0</ele><time>2026-05-02T08:35:09.361Z</time></trkpt><trkpt lat="42.2441199" lon="13.927796"><ele>178.0</ele><time>2026-05-02T08:35:31.37Z</time></trkpt><trkpt lat="42.2440741" lon="13.9277333"><ele>178.0</ele><time>2026-05-02T08:35:40.281Z</time></trkpt><trkpt lat="42.2440665" lon="13.9278198"><ele>168.0</ele><time>2026-05-02T08:35:59.334Z</time></trkpt><trkpt lat="42.2448292" lon="13.9287455"><ele>168.0</ele><time>2026-05-02T08:36:22.581Z</time></trkpt><trkpt lat="42.2448175" lon="13.9289904"><ele>168.0</ele><time>2026-05-02T08:36:28.787Z</time></trkpt><trkpt lat="42.2445137" lon="13.9288974"><ele>172.0</ele><time>2026-05-02T08:36:36.443Z</time></trkpt><trkpt lat="42.2443238" lon="13.9287701"><ele>176.0</ele><time>2026-05-02T08:36:43.354Z</time></trkpt><trkpt lat="42.2443623" lon="13.9283821"><ele>176.0</ele><time>2026-05-02T08:36:44.311Z</time></trkpt><trkpt lat="42.2443396" lon="13.9282911"><ele>176.0</ele><time>2026-05-02T08:36:45.374Z</time></trkpt><trkpt lat="42.2444215" lon="13.9283"><ele>176.0</ele><time>2026-05-02T08:36:51.329Z</time></trkpt><trkpt lat="42.2445258" lon="13.9283292"><ele>176.0</ele><time>2026-05-02T08:36:52.393Z</time></trkpt><trkpt lat="42.2445688" lon="13.9284053"><ele>176.0</ele><time>2026-05-02T08:37:12.382Z</time></trkpt><trkpt lat="42.2445055" lon="13.9284509"><ele>176.0</ele><time>2026-05-02T08:37:59.378Z</time></trkpt><trkpt lat="42.2444599" lon="13.9285125"><ele>176.0</ele><time>2026-05-02T08:38:03.419Z</time></trkpt><trkpt lat="42.2444187" lon="13.9284342"><ele>176.0</ele><time>2026-05-02T08:38:10.33Z</time></trkpt><trkpt lat="42.2443863" lon="13.9283588"><ele>176.0</ele><time>2026-05-02T08:38:14.37Z</time></trkpt><trkpt lat="42.2443451" lon="13.92828"><ele>176.0</ele><time>2026-05-02T08:38:20.325Z</time></trkpt><trkpt lat="42.2443569" lon="13.9281796"><ele>176.0</ele><time>2026-05-02T08:38:26.385Z</time></trkpt><trkpt lat="42.2443842" lon="13.9281028"><ele>176.0</ele><time>2026-05-02T08:38:29.363Z</time></trkpt><trkpt lat="42.2444278" lon="13.9280317"><ele>176.0</ele><time>2026-05-02T08:38:32.364Z</time></trkpt><trkpt lat="42.2444595" lon="13.9279465"><ele>176.28571428571428</ele><time>2026-05-02T08:38:35.317Z</time></trkpt><trkpt lat="42.2444816" lon="13.9278569"><ele>176.57142857142856</ele><time>2026-05-02T08:38:38.4Z</time></trkpt><trkpt lat="42.244538" lon="13.9278006"><ele>176.85714285714283</ele><time>2026-05-02T08:38:42.335Z</time></trkpt><trkpt lat="42.2445515" lon="13.9276931"><ele>177.14285714285714</ele><time>2026-05-02T08:38:53.29Z</time></trkpt><trkpt lat="42.2445703" lon="13.9276106"><ele>177.42857142857142</ele><time>2026-05-02T08:38:57.327Z</time></trkpt><trkpt lat="42.2445729" lon="13.9275204"><ele>177.7142857142857</ele><time>2026-05-02T08:39:02.325Z</time></trkpt><trkpt lat="42.2445762" lon="13.9274345"><ele>178.0</ele><time>2026-05-02T08:39:09.3Z</time></trkpt><trkpt lat="42.2445807" lon="13.9273354"><ele>178.99999999999997</ele><time>2026-05-02T08:39:16.359Z</time></trkpt><trkpt lat="42.2445789" lon="13.9272437"><ele>180.0</ele><time>2026-05-02T08:39:20.399Z</time></trkpt><trkpt lat="42.2445956" lon="13.9271435"><ele>181.0</ele><time>2026-05-02T08:39:25.397Z</time></trkpt><trkpt lat="42.2446284" lon="13.9270691"><ele>182.0</ele><time>2026-05-02T08:39:31.382Z</time></trkpt><trkpt lat="42.2446408" lon="13.9269836"><ele>183.0</ele><time>2026-05-02T08:39:40.388Z</time></trkpt><trkpt lat="42.2446413" lon="13.9268856"><ele>183.99999999999997</ele><time>2026-05-02T08:39:47.406Z</time></trkpt><trkpt lat="42.2446816" lon="13.9268151"><ele>185.0</ele><time>2026-05-02T08:39:51.34Z</time></trkpt><trkpt lat="42.2447289" lon="13.9267264"><ele>186.14285714285714</ele><time>2026-05-02T08:39:55.402Z</time></trkpt><trkpt lat="42.2447792" lon="13.9266697"><ele>187.28571428571428</ele><time>2026-05-02T08:40:01.335Z</time></trkpt><trkpt lat="42.2448142" lon="13.9265943"><ele>188.42857142857144</ele><time>2026-05-02T08:40:11.329Z</time></trkpt><trkpt lat="42.2448511" lon="13.9265143"><ele>189.57142857142856</ele><time>2026-05-02T08:40:16.326Z</time></trkpt><trkpt lat="42.2448383" lon="13.9264167"><ele>190.71428571428572</ele><time>2026-05-02T08:42:11.29Z</time></trkpt><trkpt lat="42.2447733" lon="13.9263867"><ele>191.85714285714286</ele><time>2026-05-02T08:42:16.29Z</time></trkpt><trkpt lat="42.2447617" lon="13.9264767"><ele>193.0</ele><time>2026-05-02T08:42:23.29Z</time></trkpt><trkpt lat="42.2447183" lon="13.9265733"><ele>192.99999999999997</ele><time>2026-05-02T08:42:58.29Z</time></trkpt><trkpt lat="42.24467" lon="13.926675"><ele>193.0</ele><time>2026-05-02T08:43:00.29Z</time></trkpt><trkpt lat="42.2446417" lon="13.9267783"><ele>193.0</ele><time>2026-05-02T08:43:02.29Z</time></trkpt><trkpt lat="42.2446133" lon="13.9268667"><ele>193.0</ele><time>2026-05-02T08:43:04.29Z</time></trkpt><trkpt lat="42.2446217" lon="13.9269633"><ele>192.99999999999997</ele><time>2026-05-02T08:43:10.29Z</time></trkpt><trkpt lat="42.244705" lon="13.9269717"><ele>193.0</ele><time>2026-05-02T08:43:12.29Z</time></trkpt><trkpt lat="42.244775" lon="13.9269617"><ele>187.8</ele><time>2026-05-02T08:43:13.29Z</time></trkpt><trkpt lat="42.2448717" lon="13.9269417"><ele>182.60000000000002</ele><time>2026-05-02T08:43:14.29Z</time></trkpt><trkpt lat="42.2449717" lon="13.9269133"><ele>177.39999999999998</ele><time>2026-05-02T08:43:15.29Z</time></trkpt><trkpt lat="42.2450633" lon="13.9268883"><ele>172.2</ele><time>2026-05-02T08:43:16.29Z</time></trkpt><trkpt lat="42.2451517" lon="13.9268667"><ele>167.0</ele><time>2026-05-02T08:43:17.29Z</time></trkpt><trkpt lat="42.24524" lon="13.92685"><ele>167.0</ele><time>2026-05-02T08:43:18.29Z</time></trkpt><trkpt lat="42.245305" lon="13.9268417"><ele>167.0</ele><time>2026-05-02T08:43:19.29Z</time></trkpt><trkpt lat="42.2454067" lon="13.9268483"><ele>167.0</ele><time>2026-05-02T08:43:21.29Z</time></trkpt><trkpt lat="42.245495" lon="13.9268467"><ele>167.0</ele><time>2026-05-02T08:43:23.29Z</time></trkpt><trkpt lat="42.2455967" lon="13.926855"><ele>167.0</ele><time>2026-05-02T08:43:25.29Z</time></trkpt><trkpt lat="42.245725" lon="13.9268333"><ele>166.14285714285714</ele><time>2026-05-02T08:43:27.29Z</time></trkpt><trkpt lat="42.2458" lon="13.9268217"><ele>165.28571428571428</ele><time>2026-05-02T08:43:28.29Z</time></trkpt><trkpt lat="42.2458783" lon="13.9268133"><ele>164.42857142857144</ele><time>2026-05-02T08:43:29.29Z</time></trkpt><trkpt lat="42.2459583" lon="13.9268167"><ele>163.57142857142856</ele><time>2026-05-02T08:43:30.291Z</time></trkpt><trkpt lat="42.2460233" lon="13.9268217"><ele>162.71428571428572</ele><time>2026-05-02T08:43:31.29Z</time></trkpt><trkpt lat="42.2460867" lon="13.9268383"><ele>161.85714285714286</ele><time>2026-05-02T08:43:32.29Z</time></trkpt><trkpt lat="42.2461667" lon="13.926805"><ele>161.0</ele><time>2026-05-02T08:43:34.29Z</time></trkpt><trkpt lat="42.2462067" lon="13.9267117"><ele>160.8</ele><time>2026-05-02T08:43:36.29Z</time></trkpt><trkpt lat="42.2461833" lon="13.9266233"><ele>160.60000000000002</ele><time>2026-05-02T08:43:38.291Z</time></trkpt><trkpt lat="42.2461167" lon="13.9265767"><ele>160.4</ele><time>2026-05-02T08:43:40.29Z</time></trkpt><trkpt lat="42.24602" lon="13.9265667"><ele>160.2</ele><time>2026-05-02T08:43:42.29Z</time></trkpt><trkpt lat="42.245905" lon="13.9265617"><ele>160.0</ele><time>2026-05-02T08:43:44.29Z</time></trkpt><trkpt lat="42.2457933" lon="13.9265433"><ele>160.0</ele><time>2026-05-02T08:43:46.29Z</time></trkpt><trkpt lat="42.24572" lon="13.926475"><ele>160.0</ele><time>2026-05-02T08:43:48.29Z</time></trkpt><trkpt lat="42.245685" lon="13.9263683"><ele>160.0</ele><time>2026-05-02T08:43:50.29Z</time></trkpt><trkpt lat="42.2456733" lon="13.9262833"><ele>160.0</ele><time>2026-05-02T08:43:51.29Z</time></trkpt><trkpt lat="42.2456617" lon="13.92619"><ele>160.0</ele><time>2026-05-02T08:43:52.29Z</time></trkpt><trkpt lat="42.24566" lon="13.92607"><ele>160.0</ele><time>2026-05-02T08:43:53.29Z</time></trkpt><trkpt lat="42.245655" lon="13.92593"><ele>160.6</ele><time>2026-05-02T08:43:54.29Z</time></trkpt><trkpt lat="42.2456417" lon="13.925795"><ele>161.2</ele><time>2026-05-02T08:43:55.29Z</time></trkpt><trkpt lat="42.2456317" lon="13.9256567"><ele>161.8</ele><time>2026-05-02T08:43:56.29Z</time></trkpt><trkpt lat="42.2456267" lon="13.9255267"><ele>162.4</ele><time>2026-05-02T08:43:57.29Z</time></trkpt><trkpt lat="42.245625" lon="13.9253933"><ele>163.0</ele><time>2026-05-02T08:43:58.29Z</time></trkpt><trkpt lat="42.2456317" lon="13.9252617"><ele>163.0</ele><time>2026-05-02T08:43:59.29Z</time></trkpt><trkpt lat="42.245645" lon="13.925135"><ele>163.0</ele><time>2026-05-02T08:44:00.29Z</time></trkpt><trkpt lat="42.245665" lon="13.925025"><ele>163.0</ele><time>2026-05-02T08:44:01.29Z</time></trkpt><trkpt lat="42.2456867" lon="13.9249233"><ele>163.0</ele><time>2026-05-02T08:44:02.29Z</time></trkpt><trkpt lat="42.2457033" lon="13.924825"><ele>163.0</ele><time>2026-05-02T08:44:03.29Z</time></trkpt><trkpt lat="42.245725" lon="13.924715"><ele>163.0</ele><time>2026-05-02T08:44:04.29Z</time></trkpt><trkpt lat="42.2457433" lon="13.9246"><ele>163.16666666666669</ele><time>2026-05-02T08:44:05.29Z</time></trkpt><trkpt lat="42.2457683" lon="13.9244967"><ele>163.33333333333334</ele><time>2026-05-02T08:44:06.29Z</time></trkpt><trkpt lat="42.2458017" lon="13.9244067"><ele>163.5</ele><time>2026-05-02T08:44:07.29Z</time></trkpt><trkpt lat="42.2458433" lon="13.924325"><ele>163.66666666666666</ele><time>2026-05-02T08:44:08.29Z</time></trkpt><trkpt lat="42.245895" lon="13.9242433"><ele>163.83333333333331</ele><time>2026-05-02T08:44:09.29Z</time></trkpt><trkpt lat="42.2459617" lon="13.9241683"><ele>164.0</ele><time>2026-05-02T08:44:10.29Z</time></trkpt><trkpt lat="42.24601" lon="13.9241067"><ele>164.0</ele><time>2026-05-02T08:44:11.29Z</time></trkpt><trkpt lat="42.2460483" lon="13.9240233"><ele>164.0</ele><time>2026-05-02T08:44:12.29Z</time></trkpt><trkpt lat="42.24609" lon="13.9239383"><ele>164.0</ele><time>2026-05-02T08:44:13.29Z</time></trkpt><trkpt lat="42.2461267" lon="13.92386"><ele>164.0</ele><time>2026-05-02T08:44:14.29Z</time></trkpt><trkpt lat="42.2461533" lon="13.923765"><ele>164.0</ele><time>2026-05-02T08:44:15.29Z</time></trkpt><trkpt lat="42.2461633" lon="13.92366"><ele>164.0</ele><time>2026-05-02T08:44:16.29Z</time></trkpt><trkpt lat="42.2461733" lon="13.9235433"><ele>164.0</ele><time>2026-05-02T08:44:17.29Z</time></trkpt><trkpt lat="42.2461717" lon="13.9234133"><ele>164.0</ele><time>2026-05-02T08:44:18.29Z</time></trkpt><trkpt lat="42.2461683" lon="13.9232817"><ele>164.0</ele><time>2026-05-02T08:44:19.29Z</time></trkpt><trkpt lat="42.2461683" lon="13.923145"><ele>164.0</ele><time>2026-05-02T08:44:20.29Z</time></trkpt><trkpt lat="42.2461683" lon="13.9230033"><ele>164.0</ele><time>2026-05-02T08:44:21.29Z</time></trkpt><trkpt lat="42.24616" lon="13.9228617"><ele>164.39999999999998</ele><time>2026-05-02T08:44:22.29Z</time></trkpt><trkpt lat="42.2461533" lon="13.9227167"><ele>164.8</ele><time>2026-05-02T08:44:23.29Z</time></trkpt><trkpt lat="42.2461483" lon="13.9225717"><ele>165.2</ele><time>2026-05-02T08:44:24.29Z</time></trkpt><trkpt lat="42.2461467" lon="13.9224383"><ele>165.60000000000002</ele><time>2026-05-02T08:44:25.291Z</time></trkpt><trkpt lat="42.2461383" lon="13.9223083"><ele>166.0</ele><time>2026-05-02T08:44:26.29Z</time></trkpt><trkpt lat="42.2461367" lon="13.9221817"><ele>166.16666666666669</ele><time>2026-05-02T08:44:27.291Z</time></trkpt><trkpt lat="42.2461367" lon="13.9220617"><ele>166.33333333333334</ele><time>2026-05-02T08:44:28.29Z</time></trkpt><trkpt lat="42.24613" lon="13.92195"><ele>166.5</ele><time>2026-05-02T08:44:29.29Z</time></trkpt><trkpt lat="42.2461117" lon="13.9218367"><ele>166.66666666666666</ele><time>2026-05-02T08:44:30.29Z</time></trkpt><trkpt lat="42.2460817" lon="13.9217183"><ele>166.83333333333331</ele><time>2026-05-02T08:44:31.29Z</time></trkpt><trkpt lat="42.246045" lon="13.9216033"><ele>167.0</ele><time>2026-05-02T08:44:32.29Z</time></trkpt><trkpt lat="42.2460033" lon="13.9214783"><ele>167.33333333333331</ele><time>2026-05-02T08:44:33.29Z</time></trkpt><trkpt lat="42.2459733" lon="13.9213533"><ele>167.66666666666666</ele><time>2026-05-02T08:44:34.29Z</time></trkpt><trkpt lat="42.2459483" lon="13.92124"><ele>168.0</ele><time>2026-05-02T08:44:35.29Z</time></trkpt><trkpt lat="42.2459217" lon="13.9211367"><ele>168.33333333333334</ele><time>2026-05-02T08:44:36.29Z</time></trkpt><trkpt lat="42.2458967" lon="13.9210433"><ele>168.66666666666669</ele><time>2026-05-02T08:44:37.29Z</time></trkpt><trkpt lat="42.2458583" lon="13.9209367"><ele>169.0</ele><time>2026-05-02T08:44:38.29Z</time></trkpt><trkpt lat="42.2458233" lon="13.9208367"><ele>169.2</ele><time>2026-05-02T08:44:39.29Z</time></trkpt><trkpt lat="42.2457767" lon="13.9207333"><ele>169.39999999999998</ele><time>2026-05-02T08:44:40.29Z</time></trkpt><trkpt lat="42.24572" lon="13.9206333"><ele>169.6</ele><time>2026-05-02T08:44:41.29Z</time></trkpt><trkpt lat="42.2456617" lon="13.920525"><ele>169.8</ele><time>2026-05-02T08:44:42.29Z</time></trkpt><trkpt lat="42.245605" lon="13.9204267"><ele>170.0</ele><time>2026-05-02T08:44:43.29Z</time></trkpt><trkpt lat="42.2455617" lon="13.9203383"><ele>171.16666666666666</ele><time>2026-05-02T08:44:44.291Z</time></trkpt><trkpt lat="42.2455283" lon="13.920245"><ele>172.33333333333331</ele><time>2026-05-02T08:44:45.29Z</time></trkpt><trkpt lat="42.245515" lon="13.920145"><ele>173.5</ele><time>2026-05-02T08:44:46.291Z</time></trkpt><trkpt lat="42.24551" lon="13.92004"><ele>174.66666666666666</ele><time>2026-05-02T08:44:47.29Z</time></trkpt><trkpt lat="42.2455" lon="13.9199383"><ele>175.83333333333334</ele><time>2026-05-02T08:44:48.29Z</time></trkpt><trkpt lat="42.24548" lon="13.9198433"><ele>177.0</ele><time>2026-05-02T08:44:49.29Z</time></trkpt><trkpt lat="42.2454433" lon="13.919755"><ele>177.0</ele><time>2026-05-02T08:44:50.291Z</time></trkpt><trkpt lat="42.245405" lon="13.9196817"><ele>177.0</ele><time>2026-05-02T08:44:51.291Z</time></trkpt><trkpt lat="42.2453617" lon="13.9195833"><ele>177.0</ele><time>2026-05-02T08:44:52.29Z</time></trkpt><trkpt lat="42.2453233" lon="13.91948"><ele>177.0</ele><time>2026-05-02T08:44:53.29Z</time></trkpt><trkpt lat="42.24529" lon="13.91936"><ele>177.0</ele><time>2026-05-02T08:44:54.29Z</time></trkpt><trkpt lat="42.24527" lon="13.9192567"><ele>177.0</ele><time>2026-05-02T08:44:55.29Z</time></trkpt><trkpt lat="42.2452633" lon="13.9191617"><ele>176.6</ele><time>2026-05-02T08:44:56.29Z</time></trkpt><trkpt lat="42.2452617" lon="13.919045"><ele>176.2</ele><time>2026-05-02T08:44:57.29Z</time></trkpt><trkpt lat="42.2452717" lon="13.918925"><ele>175.8</ele><time>2026-05-02T08:44:58.29Z</time></trkpt><trkpt lat="42.2452867" lon="13.9187967"><ele>175.4</ele><time>2026-05-02T08:44:59.29Z</time></trkpt><trkpt lat="42.245305" lon="13.918665"><ele>175.0</ele><time>2026-05-02T08:45:00.29Z</time></trkpt><trkpt lat="42.2453317" lon="13.918535"><ele>175.0</ele><time>2026-05-02T08:45:01.29Z</time></trkpt><trkpt lat="42.245355" lon="13.9184117"><ele>175.0</ele><time>2026-05-02T08:45:02.29Z</time></trkpt><trkpt lat="42.2453817" lon="13.9182767"><ele>175.0</ele><time>2026-05-02T08:45:03.291Z</time></trkpt><trkpt lat="42.24541" lon="13.918155"><ele>175.0</ele><time>2026-05-02T08:45:04.29Z</time></trkpt><trkpt lat="42.2454333" lon="13.918045"><ele>175.0</ele><time>2026-05-02T08:45:05.29Z</time></trkpt><trkpt lat="42.245455" lon="13.9179317"><ele>174.83333333333334</ele><time>2026-05-02T08:45:06.29Z</time></trkpt><trkpt lat="42.245465" lon="13.9178283"><ele>174.66666666666669</ele><time>2026-05-02T08:45:07.29Z</time></trkpt><trkpt lat="42.2454633" lon="13.91773"><ele>174.5</ele><time>2026-05-02T08:45:08.29Z</time></trkpt><trkpt lat="42.2454467" lon="13.9176233"><ele>174.33333333333334</ele><time>2026-05-02T08:45:09.291Z</time></trkpt><trkpt lat="42.2454167" lon="13.917525"><ele>174.16666666666666</ele><time>2026-05-02T08:45:10.29Z</time></trkpt><trkpt lat="42.245365" lon="13.9174233"><ele>174.0</ele><time>2026-05-02T08:45:11.29Z</time></trkpt><trkpt lat="42.245305" lon="13.9173183"><ele>174.0</ele><time>2026-05-02T08:45:12.29Z</time></trkpt><trkpt lat="42.2452333" lon="13.9172183"><ele>174.0</ele><time>2026-05-02T08:45:13.291Z</time></trkpt><trkpt lat="42.2451633" lon="13.9171267"><ele>174.0</ele><time>2026-05-02T08:45:14.291Z</time></trkpt><trkpt lat="42.2450917" lon="13.917025"><ele>174.0</ele><time>2026-05-02T08:45:15.291Z</time></trkpt><trkpt lat="42.2450273" lon="13.916926"><ele>174.0</ele><time>2026-05-02T08:45:16.291Z</time></trkpt><trkpt lat="42.2449745" lon="13.9168278"><ele>174.83333333333334</ele><time>2026-05-02T08:45:17.29Z</time></trkpt><trkpt lat="42.244927" lon="13.9167274"><ele>175.66666666666666</ele><time>2026-05-02T08:45:18.29Z</time></trkpt><trkpt lat="42.2448831" lon="13.9166265"><ele>176.5</ele><time>2026-05-02T08:45:19.29Z</time></trkpt><trkpt lat="42.2448469" lon="13.9165272"><ele>177.33333333333331</ele><time>2026-05-02T08:45:20.29Z</time></trkpt><trkpt lat="42.2448071" lon="13.9164478"><ele>178.16666666666666</ele><time>2026-05-02T08:45:21.29Z</time></trkpt><trkpt lat="42.2447137" lon="13.916346"><ele>179.0</ele><time>2026-05-02T08:45:23.29Z</time></trkpt><trkpt lat="42.2446512" lon="13.9163209"><ele>179.0</ele><time>2026-05-02T08:45:24.29Z</time></trkpt><trkpt lat="42.2445709" lon="13.9163038"><ele>179.0</ele><time>2026-05-02T08:45:25.291Z</time></trkpt><trkpt lat="42.2444931" lon="13.9162858"><ele>179.0</ele><time>2026-05-02T08:45:26.29Z</time></trkpt><trkpt lat="42.2444266" lon="13.9162605"><ele>179.0</ele><time>2026-05-02T08:45:27.29Z</time></trkpt><trkpt lat="42.2443296" lon="13.9161658"><ele>179.0</ele><time>2026-05-02T08:45:29.29Z</time></trkpt><trkpt lat="42.2442939" lon="13.916082"><ele>179.0</ele><time>2026-05-02T08:45:30.291Z</time></trkpt><trkpt lat="42.2442676" lon="13.9159747"><ele>179.2</ele><time>2026-05-02T08:45:31.29Z</time></trkpt><trkpt lat="42.2442437" lon="13.9158471"><ele>179.39999999999998</ele><time>2026-05-02T08:45:32.29Z</time></trkpt><trkpt lat="42.2442124" lon="13.9157166"><ele>179.6</ele><time>2026-05-02T08:45:33.291Z</time></trkpt><trkpt lat="42.2441746" lon="13.9155965"><ele>179.8</ele><time>2026-05-02T08:45:34.29Z</time></trkpt><trkpt lat="42.2441305" lon="13.915487"><ele>180.0</ele><time>2026-05-02T08:45:35.291Z</time></trkpt><trkpt lat="42.2440793" lon="13.9153836"><ele>180.0</ele><time>2026-05-02T08:45:36.29Z</time></trkpt><trkpt lat="42.2440335" lon="13.9152968"><ele>180.0</ele><time>2026-05-02T08:45:37.29Z</time></trkpt><trkpt lat="42.2439838" lon="13.9152297"><ele>180.0</ele><time>2026-05-02T08:45:38.29Z</time></trkpt><trkpt lat="42.2439234" lon="13.9151754"><ele>180.0</ele><time>2026-05-02T08:45:39.29Z</time></trkpt><trkpt lat="42.2438483" lon="13.9151308"><ele>180.0</ele><time>2026-05-02T08:45:40.29Z</time></trkpt><trkpt lat="42.2437704" lon="13.9150898"><ele>180.0</ele><time>2026-05-02T08:45:41.29Z</time></trkpt><trkpt lat="42.2437005" lon="13.9150371"><ele>181.0</ele><time>2026-05-02T08:45:42.29Z</time></trkpt><trkpt lat="42.2436387" lon="13.9149631"><ele>182.0</ele><time>2026-05-02T08:45:43.29Z</time></trkpt><trkpt lat="42.2435826" lon="13.9148801"><ele>183.0</ele><time>2026-05-02T08:45:44.29Z</time></trkpt><trkpt lat="42.2435327" lon="13.9147902"><ele>184.0</ele><time>2026-05-02T08:45:45.29Z</time></trkpt><trkpt lat="42.2434804" lon="13.9147026"><ele>185.0</ele><time>2026-05-02T08:45:46.29Z</time></trkpt><trkpt lat="42.2434253" lon="13.914625"><ele>186.0</ele><time>2026-05-02T08:45:47.29Z</time></trkpt><trkpt lat="42.2433707" lon="13.9145581"><ele>186.0</ele><time>2026-05-02T08:45:48.29Z</time></trkpt><trkpt lat="42.2433067" lon="13.9144133"><ele>186.0</ele><time>2026-05-02T08:45:50.29Z</time></trkpt><trkpt lat="42.2432933" lon="13.91433"><ele>186.0</ele><time>2026-05-02T08:45:51.29Z</time></trkpt><trkpt lat="42.2432833" lon="13.9142417"><ele>186.0</ele><time>2026-05-02T08:45:52.291Z</time></trkpt><trkpt lat="42.2432633" lon="13.9140567"><ele>186.0</ele><time>2026-05-02T08:45:54.29Z</time></trkpt><trkpt lat="42.2432467" lon="13.9139267"><ele>187.0</ele><time>2026-05-02T08:45:55.291Z</time></trkpt><trkpt lat="42.2432317" lon="13.9137633"><ele>188.0</ele><time>2026-05-02T08:45:56.29Z</time></trkpt><trkpt lat="42.243215" lon="13.9136167"><ele>189.0</ele><time>2026-05-02T08:45:57.29Z</time></trkpt><trkpt lat="42.24319" lon="13.91349"><ele>190.0</ele><time>2026-05-02T08:45:58.291Z</time></trkpt><trkpt lat="42.2431717" lon="13.91338"><ele>191.0</ele><time>2026-05-02T08:45:59.291Z</time></trkpt><trkpt lat="42.24315" lon="13.9132817"><ele>191.0</ele><time>2026-05-02T08:46:00.29Z</time></trkpt><trkpt lat="42.243125" lon="13.9131833"><ele>191.0</ele><time>2026-05-02T08:46:01.29Z</time></trkpt><trkpt lat="42.2430717" lon="13.91308"><ele>191.0</ele><time>2026-05-02T08:46:02.29Z</time></trkpt><trkpt lat="42.2429983" lon="13.9129617"><ele>191.0</ele><time>2026-05-02T08:46:03.29Z</time></trkpt><trkpt lat="42.2429267" lon="13.9128417"><ele>191.0</ele><time>2026-05-02T08:46:04.29Z</time></trkpt><trkpt lat="42.24287" lon="13.912745"><ele>191.0</ele><time>2026-05-02T08:46:05.29Z</time></trkpt><trkpt lat="42.2428267" lon="13.912645"><ele>191.0</ele><time>2026-05-02T08:46:06.29Z</time></trkpt><trkpt lat="42.2427867" lon="13.9125367"><ele>191.0</ele><time>2026-05-02T08:46:07.29Z</time></trkpt><trkpt lat="42.2427533" lon="13.91242"><ele>191.0</ele><time>2026-05-02T08:46:08.29Z</time></trkpt><trkpt lat="42.24272" lon="13.9123317"><ele>191.0</ele><time>2026-05-02T08:46:09.29Z</time></trkpt><trkpt lat="42.2426783" lon="13.9122483"><ele>191.0</ele><time>2026-05-02T08:46:10.29Z</time></trkpt><trkpt lat="42.2426183" lon="13.91213"><ele>191.20000000000002</ele><time>2026-05-02T08:46:12.291Z</time></trkpt><trkpt lat="42.2425729" lon="13.9120508"><ele>191.4</ele><time>2026-05-02T08:46:15.29Z</time></trkpt><trkpt lat="42.2424847" lon="13.912111"><ele>191.6</ele><time>2026-05-02T08:46:18.29Z</time></trkpt><trkpt lat="42.2424227" lon="13.9121934"><ele>191.8</ele><time>2026-05-02T08:46:19.29Z</time></trkpt><trkpt lat="42.2423495" lon="13.9122912"><ele>192.0</ele><time>2026-05-02T08:46:20.29Z</time></trkpt><trkpt lat="42.2422706" lon="13.9123906"><ele>194.0</ele><time>2026-05-02T08:46:21.29Z</time></trkpt><trkpt lat="42.2421972" lon="13.9124834"><ele>196.0</ele><time>2026-05-02T08:46:22.291Z</time></trkpt><trkpt lat="42.2421352" lon="13.912586"><ele>198.0</ele><time>2026-05-02T08:46:23.29Z</time></trkpt><trkpt lat="42.2420918" lon="13.9126979"><ele>200.0</ele><time>2026-05-02T08:46:24.29Z</time></trkpt><trkpt lat="42.2420637" lon="13.9128397"><ele>202.0</ele><time>2026-05-02T08:46:25.29Z</time></trkpt><trkpt lat="42.2420398" lon="13.913005"><ele>202.5</ele><time>2026-05-02T08:46:26.29Z</time></trkpt><trkpt lat="42.2420145" lon="13.9131733"><ele>203.0</ele><time>2026-05-02T08:46:27.29Z</time></trkpt><trkpt lat="42.2419823" lon="13.9133538"><ele>203.5</ele><time>2026-05-02T08:46:28.29Z</time></trkpt><trkpt lat="42.2419459" lon="13.913549"><ele>204.0</ele><time>2026-05-02T08:46:29.29Z</time></trkpt><trkpt lat="42.2419186" lon="13.9137366"><ele>204.0</ele><time>2026-05-02T08:46:30.29Z</time></trkpt><trkpt lat="42.2418944" lon="13.913911"><ele>204.0</ele><time>2026-05-02T08:46:31.29Z</time></trkpt><trkpt lat="42.2418809" lon="13.9140727"><ele>204.0</ele><time>2026-05-02T08:46:32.29Z</time></trkpt><trkpt lat="42.2418773" lon="13.9142162"><ele>204.0</ele><time>2026-05-02T08:46:33.291Z</time></trkpt><trkpt lat="42.2418826" lon="13.9143408"><ele>203.66666666666666</ele><time>2026-05-02T08:46:34.29Z</time></trkpt><trkpt lat="42.2418883" lon="13.9144523"><ele>203.33333333333331</ele><time>2026-05-02T08:46:35.29Z</time></trkpt><trkpt lat="42.2418795" lon="13.9145479"><ele>203.0</ele><time>2026-05-02T08:46:36.29Z</time></trkpt><trkpt lat="42.2418496" lon="13.9146398"><ele>202.66666666666666</ele><time>2026-05-02T08:46:37.291Z</time></trkpt><trkpt lat="42.241804" lon="13.9147296"><ele>202.33333333333331</ele><time>2026-05-02T08:46:38.29Z</time></trkpt><trkpt lat="42.2417507" lon="13.9148093"><ele>202.0</ele><time>2026-05-02T08:46:39.291Z</time></trkpt><trkpt lat="42.2416914" lon="13.9148678"><ele>202.0</ele><time>2026-05-02T08:46:40.29Z</time></trkpt><trkpt lat="42.2416259" lon="13.9148895"><ele>202.0</ele><time>2026-05-02T08:46:41.29Z</time></trkpt><trkpt lat="42.2415276" lon="13.9148142"><ele>202.0</ele><time>2026-05-02T08:46:43.29Z</time></trkpt><trkpt lat="42.2414829" lon="13.914712"><ele>202.0</ele><time>2026-05-02T08:46:44.29Z</time></trkpt><trkpt lat="42.2414297" lon="13.9145828"><ele>202.0</ele><time>2026-05-02T08:46:45.29Z</time></trkpt><trkpt lat="42.2413656" lon="13.9144707"><ele>204.39999999999998</ele><time>2026-05-02T08:46:46.29Z</time></trkpt><trkpt lat="42.2413113" lon="13.9143855"><ele>206.79999999999998</ele><time>2026-05-02T08:46:47.29Z</time></trkpt><trkpt lat="42.2412579" lon="13.9143117"><ele>209.2</ele><time>2026-05-02T08:46:48.291Z</time></trkpt><trkpt lat="42.2412079" lon="13.9142229"><ele>211.6</ele><time>2026-05-02T08:46:49.29Z</time></trkpt><trkpt lat="42.2411623" lon="13.9141135"><ele>214.0</ele><time>2026-05-02T08:46:50.29Z</time></trkpt><trkpt lat="42.2411261" lon="13.9139548"><ele>215.0</ele><time>2026-05-02T08:46:51.29Z</time></trkpt><trkpt lat="42.2410957" lon="13.9137728"><ele>216.0</ele><time>2026-05-02T08:46:52.29Z</time></trkpt><trkpt lat="42.2410613" lon="13.9135927"><ele>217.0</ele><time>2026-05-02T08:46:53.29Z</time></trkpt><trkpt lat="42.2410189" lon="13.9134323"><ele>218.0</ele><time>2026-05-02T08:46:54.29Z</time></trkpt><trkpt lat="42.2409631" lon="13.9132864"><ele>220.0</ele><time>2026-05-02T08:46:55.29Z</time></trkpt><trkpt lat="42.2408882" lon="13.9131402"><ele>222.0</ele><time>2026-05-02T08:46:56.29Z</time></trkpt><trkpt lat="42.2407995" lon="13.9129922"><ele>224.0</ele><time>2026-05-02T08:46:57.291Z</time></trkpt><trkpt lat="42.2407057" lon="13.9128468"><ele>226.0</ele><time>2026-05-02T08:46:58.291Z</time></trkpt><trkpt lat="42.2406133" lon="13.912705"><ele>226.0</ele><time>2026-05-02T08:46:59.29Z</time></trkpt><trkpt lat="42.2405217" lon="13.912595"><ele>226.0</ele><time>2026-05-02T08:47:00.29Z</time></trkpt><trkpt lat="42.2404067" lon="13.91249"><ele>226.0</ele><time>2026-05-02T08:47:01.29Z</time></trkpt><trkpt lat="42.2402967" lon="13.9123733"><ele>226.0</ele><time>2026-05-02T08:47:02.29Z</time></trkpt><trkpt lat="42.2402017" lon="13.9122417"><ele>228.4</ele><time>2026-05-02T08:47:03.291Z</time></trkpt><trkpt lat="42.2401183" lon="13.9121267"><ele>230.8</ele><time>2026-05-02T08:47:04.29Z</time></trkpt><trkpt lat="42.24005" lon="13.9120233"><ele>233.20000000000002</ele><time>2026-05-02T08:47:05.29Z</time></trkpt><trkpt lat="42.2399983" lon="13.9119367"><ele>235.60000000000002</ele><time>2026-05-02T08:47:06.291Z</time></trkpt><trkpt lat="42.2399467" lon="13.9118633"><ele>238.0</ele><time>2026-05-02T08:47:07.29Z</time></trkpt><trkpt lat="42.2398767" lon="13.9117483"><ele>238.49999999999997</ele><time>2026-05-02T08:47:09.29Z</time></trkpt><trkpt lat="42.2398433" lon="13.91167"><ele>239.0</ele><time>2026-05-02T08:47:10.29Z</time></trkpt><trkpt lat="42.2398133" lon="13.9115733"><ele>239.5</ele><time>2026-05-02T08:47:11.29Z</time></trkpt><trkpt lat="42.2397867" lon="13.911465"><ele>240.0</ele><time>2026-05-02T08:47:12.29Z</time></trkpt><trkpt lat="42.239765" lon="13.9113683"><ele>240.49999999999997</ele><time>2026-05-02T08:47:13.29Z</time></trkpt><trkpt lat="42.239735" lon="13.9112617"><ele>241.0</ele><time>2026-05-02T08:47:14.29Z</time></trkpt><trkpt lat="42.239695" lon="13.9111533"><ele>242.60000000000002</ele><time>2026-05-02T08:47:15.29Z</time></trkpt><trkpt lat="42.2396583" lon="13.9110467"><ele>244.20000000000002</ele><time>2026-05-02T08:47:16.29Z</time></trkpt><trkpt lat="42.2396183" lon="13.910945"><ele>245.79999999999998</ele><time>2026-05-02T08:47:17.29Z</time></trkpt><trkpt lat="42.2395833" lon="13.9108533"><ele>247.39999999999998</ele><time>2026-05-02T08:47:18.291Z</time></trkpt><trkpt lat="42.2395017" lon="13.91072"><ele>249.0</ele><time>2026-05-02T08:47:20.29Z</time></trkpt><trkpt lat="42.2393967" lon="13.910605"><ele>249.16666666666666</ele><time>2026-05-02T08:47:22.29Z</time></trkpt><trkpt lat="42.239335" lon="13.910535"><ele>249.33333333333331</ele><time>2026-05-02T08:47:23.29Z</time></trkpt><trkpt lat="42.23928" lon="13.9104617"><ele>249.5</ele><time>2026-05-02T08:47:24.29Z</time></trkpt><trkpt lat="42.2392317" lon="13.910385"><ele>249.66666666666666</ele><time>2026-05-02T08:47:25.29Z</time></trkpt><trkpt lat="42.239185" lon="13.91031"><ele>249.83333333333331</ele><time>2026-05-02T08:47:26.29Z</time></trkpt><trkpt lat="42.2391367" lon="13.91023"><ele>250.0</ele><time>2026-05-02T08:47:27.29Z</time></trkpt><trkpt lat="42.23908" lon="13.9101433"><ele>250.16666666666666</ele><time>2026-05-02T08:47:28.29Z</time></trkpt><trkpt lat="42.23902" lon="13.9100533"><ele>250.33333333333331</ele><time>2026-05-02T08:47:29.29Z</time></trkpt><trkpt lat="42.2389533" lon="13.9099683"><ele>250.5</ele><time>2026-05-02T08:47:30.29Z</time></trkpt><trkpt lat="42.23889" lon="13.9098883"><ele>250.66666666666669</ele><time>2026-05-02T08:47:31.29Z</time></trkpt><trkpt lat="42.2388267" lon="13.9098267"><ele>250.83333333333334</ele><time>2026-05-02T08:47:32.29Z</time></trkpt><trkpt lat="42.2387583" lon="13.9097717"><ele>251.0</ele><time>2026-05-02T08:47:33.29Z</time></trkpt><trkpt lat="42.2386817" lon="13.9097167"><ele>252.99999999999997</ele><time>2026-05-02T08:47:34.29Z</time></trkpt><trkpt lat="42.2386117" lon="13.9096667"><ele>255.0</ele><time>2026-05-02T08:47:35.291Z</time></trkpt><trkpt lat="42.23854" lon="13.9096133"><ele>257.0</ele><time>2026-05-02T08:47:36.29Z</time></trkpt><trkpt lat="42.238475" lon="13.9095583"><ele>259.0</ele><time>2026-05-02T08:47:37.29Z</time></trkpt><trkpt lat="42.238425" lon="13.9095017"><ele>261.0</ele><time>2026-05-02T08:47:38.29Z</time></trkpt><trkpt lat="42.2383767" lon="13.9094433"><ele>262.99999999999994</ele><time>2026-05-02T08:47:39.29Z</time></trkpt><trkpt lat="42.2383333" lon="13.9093817"><ele>265.0</ele><time>2026-05-02T08:47:40.29Z</time></trkpt><trkpt lat="42.2382867" lon="13.9093233"><ele>265.0</ele><time>2026-05-02T08:47:41.29Z</time></trkpt><trkpt lat="42.2382417" lon="13.9092617"><ele>265.0</ele><time>2026-05-02T08:47:42.29Z</time></trkpt><trkpt lat="42.23819" lon="13.9092"><ele>265.0</ele><time>2026-05-02T08:47:43.29Z</time></trkpt><trkpt lat="42.2381317" lon="13.909155"><ele>265.0</ele><time>2026-05-02T08:47:44.29Z</time></trkpt><trkpt lat="42.2380267" lon="13.9091017"><ele>265.0</ele><time>2026-05-02T08:47:46.29Z</time></trkpt><trkpt lat="42.2379117" lon="13.9090933"><ele>265.0</ele><time>2026-05-02T08:47:48.29Z</time></trkpt><trkpt lat="42.2378317" lon="13.909115"><ele>266.8333333333333</ele><time>2026-05-02T08:47:50.291Z</time></trkpt><trkpt lat="42.23776" lon="13.9091333"><ele>268.66666666666663</ele><time>2026-05-02T08:47:52.29Z</time></trkpt><trkpt lat="42.2376833" lon="13.9090833"><ele>270.5</ele><time>2026-05-02T08:47:55.29Z</time></trkpt><trkpt lat="42.2376417" lon="13.90895"><ele>272.3333333333333</ele><time>2026-05-02T08:47:57.29Z</time></trkpt><trkpt lat="42.2376133" lon="13.9088633"><ele>274.1666666666667</ele><time>2026-05-02T08:47:58.29Z</time></trkpt><trkpt lat="42.2375833" lon="13.9087817"><ele>276.0</ele><time>2026-05-02T08:47:59.29Z</time></trkpt><trkpt lat="42.23755" lon="13.9087"><ele>276.0</ele><time>2026-05-02T08:48:00.29Z</time></trkpt><trkpt lat="42.237515" lon="13.9086067"><ele>276.0</ele><time>2026-05-02T08:48:01.29Z</time></trkpt><trkpt lat="42.23748" lon="13.9085067"><ele>276.0</ele><time>2026-05-02T08:48:02.29Z</time></trkpt><trkpt lat="42.237445" lon="13.9084117"><ele>276.0</ele><time>2026-05-02T08:48:03.291Z</time></trkpt><trkpt lat="42.2374117" lon="13.9083233"><ele>276.0</ele><time>2026-05-02T08:48:04.29Z</time></trkpt><trkpt lat="42.237375" lon="13.9082433"><ele>276.0</ele><time>2026-05-02T08:48:05.29Z</time></trkpt><trkpt lat="42.2373367" lon="13.9081617"><ele>275.2</ele><time>2026-05-02T08:48:06.29Z</time></trkpt><trkpt lat="42.2372917" lon="13.9080633"><ele>274.40000000000003</ele><time>2026-05-02T08:48:07.29Z</time></trkpt><trkpt lat="42.2372417" lon="13.9079617"><ele>273.6</ele><time>2026-05-02T08:48:08.29Z</time></trkpt><trkpt lat="42.2371917" lon="13.90785"><ele>272.8</ele><time>2026-05-02T08:48:09.291Z</time></trkpt><trkpt lat="42.2371433" lon="13.9077433"><ele>272.0</ele><time>2026-05-02T08:48:10.29Z</time></trkpt><trkpt lat="42.2370967" lon="13.907645"><ele>272.99999999999994</ele><time>2026-05-02T08:48:11.291Z</time></trkpt><trkpt lat="42.2370583" lon="13.907555"><ele>274.0</ele><time>2026-05-02T08:48:12.29Z</time></trkpt><trkpt lat="42.2370183" lon="13.9074717"><ele>275.0</ele><time>2026-05-02T08:48:13.29Z</time></trkpt><trkpt lat="42.2369733" lon="13.9073883"><ele>276.0</ele><time>2026-05-02T08:48:14.291Z</time></trkpt><trkpt lat="42.2369383" lon="13.9073117"><ele>277.0</ele><time>2026-05-02T08:48:15.291Z</time></trkpt><trkpt lat="42.2369017" lon="13.9072333"><ele>277.99999999999994</ele><time>2026-05-02T08:48:16.29Z</time></trkpt><trkpt lat="42.2368667" lon="13.9071467"><ele>279.0</ele><time>2026-05-02T08:48:17.29Z</time></trkpt><trkpt lat="42.2368317" lon="13.9070617"><ele>279.0</ele><time>2026-05-02T08:48:18.29Z</time></trkpt><trkpt lat="42.2368" lon="13.9069783"><ele>279.0</ele><time>2026-05-02T08:48:19.29Z</time></trkpt><trkpt lat="42.2367667" lon="13.9069017"><ele>279.0</ele><time>2026-05-02T08:48:20.29Z</time></trkpt><trkpt lat="42.2367017" lon="13.9067667"><ele>279.0</ele><time>2026-05-02T08:48:22.291Z</time></trkpt><trkpt lat="42.2366367" lon="13.90665"><ele>279.0</ele><time>2026-05-02T08:48:24.29Z</time></trkpt><trkpt lat="42.23655" lon="13.9065383"><ele>278.5</ele><time>2026-05-02T08:48:26.291Z</time></trkpt><trkpt lat="42.2365017" lon="13.9064783"><ele>278.0</ele><time>2026-05-02T08:48:27.29Z</time></trkpt><trkpt lat="42.2364317" lon="13.90638"><ele>277.5</ele><time>2026-05-02T08:48:29.29Z</time></trkpt><trkpt lat="42.2363883" lon="13.9063167"><ele>277.0</ele><time>2026-05-02T08:48:31.29Z</time></trkpt><trkpt lat="42.2363336" lon="13.9062716"><ele>276.5</ele><time>2026-05-02T08:48:34.29Z</time></trkpt><trkpt lat="42.2362957" lon="13.9061609"><ele>276.0</ele><time>2026-05-02T08:48:36.29Z</time></trkpt><trkpt lat="42.2362771" lon="13.906076"><ele>276.0</ele><time>2026-05-02T08:48:37.29Z</time></trkpt><trkpt lat="42.2362542" lon="13.9059707"><ele>276.0</ele><time>2026-05-02T08:48:38.291Z</time></trkpt><trkpt lat="42.236226" lon="13.9058481"><ele>276.0</ele><time>2026-05-02T08:48:39.29Z</time></trkpt><trkpt lat="42.236193" lon="13.9057165"><ele>276.0</ele><time>2026-05-02T08:48:40.29Z</time></trkpt><trkpt lat="42.2361529" lon="13.9055806"><ele>276.0</ele><time>2026-05-02T08:48:41.29Z</time></trkpt><trkpt lat="42.2361091" lon="13.9054391"><ele>279.0</ele><time>2026-05-02T08:48:42.29Z</time></trkpt><trkpt lat="42.2360611" lon="13.9052897"><ele>282.0</ele><time>2026-05-02T08:48:43.29Z</time></trkpt><trkpt lat="42.2360066" lon="13.9051548"><ele>285.0</ele><time>2026-05-02T08:48:44.29Z</time></trkpt><trkpt lat="42.2359398" lon="13.9050209"><ele>288.0</ele><time>2026-05-02T08:48:45.29Z</time></trkpt><trkpt lat="42.2358743" lon="13.9048805"><ele>287.5</ele><time>2026-05-02T08:48:46.29Z</time></trkpt><trkpt lat="42.2358087" lon="13.9047266"><ele>287.0</ele><time>2026-05-02T08:48:47.29Z</time></trkpt><trkpt lat="42.2357474" lon="13.904572"><ele>286.5</ele><time>2026-05-02T08:48:48.29Z</time></trkpt><trkpt lat="42.235686" lon="13.904417"><ele>286.0</ele><time>2026-05-02T08:48:49.29Z</time></trkpt><trkpt lat="42.2356236" lon="13.9042749"><ele>287.40000000000003</ele><time>2026-05-02T08:48:50.29Z</time></trkpt><trkpt lat="42.2355598" lon="13.9041493"><ele>288.8</ele><time>2026-05-02T08:48:51.29Z</time></trkpt><trkpt lat="42.2355058" lon="13.9040196"><ele>290.20000000000005</ele><time>2026-05-02T08:48:52.29Z</time></trkpt><trkpt lat="42.2354555" lon="13.903894"><ele>291.6</ele><time>2026-05-02T08:48:53.29Z</time></trkpt><trkpt lat="42.2354129" lon="13.90376"><ele>293.0</ele><time>2026-05-02T08:48:54.29Z</time></trkpt><trkpt lat="42.2353846" lon="13.9036174"><ele>293.0</ele><time>2026-05-02T08:48:55.29Z</time></trkpt><trkpt lat="42.2353589" lon="13.9034599"><ele>293.0</ele><time>2026-05-02T08:48:56.29Z</time></trkpt><trkpt lat="42.2353367" lon="13.9032909"><ele>293.0</ele><time>2026-05-02T08:48:57.29Z</time></trkpt><trkpt lat="42.2353151" lon="13.9031295"><ele>293.0</ele><time>2026-05-02T08:48:58.29Z</time></trkpt><trkpt lat="42.235293" lon="13.9029899"><ele>293.4</ele><time>2026-05-02T08:48:59.29Z</time></trkpt><trkpt lat="42.2352797" lon="13.9028856"><ele>293.8</ele><time>2026-05-02T08:49:00.29Z</time></trkpt><trkpt lat="42.2352752" lon="13.902755"><ele>294.2</ele><time>2026-05-02T08:49:02.29Z</time></trkpt><trkpt lat="42.2353667" lon="13.902715"><ele>294.6</ele><time>2026-05-02T08:49:05.291Z</time></trkpt><trkpt lat="42.23543" lon="13.9028317"><ele>295.0</ele><time>2026-05-02T08:49:07.29Z</time></trkpt><trkpt lat="42.2354567" lon="13.9029367"><ele>295.0</ele><time>2026-05-02T08:49:08.29Z</time></trkpt><trkpt lat="42.2354767" lon="13.9030583"><ele>295.0</ele><time>2026-05-02T08:49:09.29Z</time></trkpt><trkpt lat="42.23551" lon="13.9031883"><ele>295.0</ele><time>2026-05-02T08:49:10.29Z</time></trkpt><trkpt lat="42.2355417" lon="13.9033233"><ele>295.0</ele><time>2026-05-02T08:49:11.29Z</time></trkpt><trkpt lat="42.2355833" lon="13.9034467"><ele>295.0</ele><time>2026-05-02T08:49:12.29Z</time></trkpt><trkpt lat="42.2356167" lon="13.90358"><ele>296.4</ele><time>2026-05-02T08:49:13.29Z</time></trkpt><trkpt lat="42.23566" lon="13.903695"><ele>297.8</ele><time>2026-05-02T08:49:14.29Z</time></trkpt><trkpt lat="42.2357017" lon="13.903795"><ele>299.2</ele><time>2026-05-02T08:49:15.291Z</time></trkpt><trkpt lat="42.2357467" lon="13.9038633"><ele>300.6</ele><time>2026-05-02T08:49:16.29Z</time></trkpt><trkpt lat="42.2358583" lon="13.9038883"><ele>302.0</ele><time>2026-05-02T08:49:18.29Z</time></trkpt><trkpt lat="42.2359333" lon="13.90377"><ele>302.0</ele><time>2026-05-02T08:49:20.29Z</time></trkpt><trkpt lat="42.2359467" lon="13.903665"><ele>302.0</ele><time>2026-05-02T08:49:21.29Z</time></trkpt><trkpt lat="42.2359417" lon="13.903525"><ele>302.0</ele><time>2026-05-02T08:49:22.29Z</time></trkpt><trkpt lat="42.23592" lon="13.9033417"><ele>302.0</ele><time>2026-05-02T08:49:23.29Z</time></trkpt><trkpt lat="42.2358917" lon="13.903135"><ele>304.0</ele><time>2026-05-02T08:49:24.29Z</time></trkpt><trkpt lat="42.2358683" lon="13.902925"><ele>306.0</ele><time>2026-05-02T08:49:25.29Z</time></trkpt><trkpt lat="42.2358533" lon="13.9026983"><ele>308.0</ele><time>2026-05-02T08:49:26.29Z</time></trkpt><trkpt lat="42.235835" lon="13.9024617"><ele>310.6666666666667</ele><time>2026-05-02T08:49:27.29Z</time></trkpt><trkpt lat="42.235825" lon="13.9022367"><ele>313.3333333333333</ele><time>2026-05-02T08:49:28.29Z</time></trkpt><trkpt lat="42.2358083" lon="13.9020233"><ele>316.0</ele><time>2026-05-02T08:49:29.29Z</time></trkpt><trkpt lat="42.235805" lon="13.9018517"><ele>317.5</ele><time>2026-05-02T08:49:30.29Z</time></trkpt><trkpt lat="42.2357883" lon="13.9016783"><ele>319.0</ele><time>2026-05-02T08:49:31.291Z</time></trkpt><trkpt lat="42.2357717" lon="13.9014933"><ele>320.5</ele><time>2026-05-02T08:49:32.29Z</time></trkpt><trkpt lat="42.235755" lon="13.9013033"><ele>322.0</ele><time>2026-05-02T08:49:33.29Z</time></trkpt><trkpt lat="42.235745" lon="13.9011217"><ele>322.0</ele><time>2026-05-02T08:49:34.29Z</time></trkpt><trkpt lat="42.2357267" lon="13.9009383"><ele>322.0</ele><time>2026-05-02T08:49:35.291Z</time></trkpt><trkpt lat="42.2357133" lon="13.90076"><ele>322.0</ele><time>2026-05-02T08:49:36.29Z</time></trkpt><trkpt lat="42.235705" lon="13.900575"><ele>322.0</ele><time>2026-05-02T08:49:37.29Z</time></trkpt><trkpt lat="42.235705" lon="13.9003983"><ele>323.40000000000003</ele><time>2026-05-02T08:49:38.29Z</time></trkpt><trkpt lat="42.2356933" lon="13.9002283"><ele>324.8</ele><time>2026-05-02T08:49:39.29Z</time></trkpt><trkpt lat="42.2356883" lon="13.9000817"><ele>326.2</ele><time>2026-05-02T08:49:40.29Z</time></trkpt><trkpt lat="42.235695" lon="13.899935"><ele>327.6</ele><time>2026-05-02T08:49:41.29Z</time></trkpt><trkpt lat="42.235705" lon="13.8997983"><ele>329.0</ele><time>2026-05-02T08:49:42.29Z</time></trkpt><trkpt lat="42.2357267" lon="13.8996667"><ele>329.6</ele><time>2026-05-02T08:49:43.29Z</time></trkpt><trkpt lat="42.2357567" lon="13.8995467"><ele>330.2</ele><time>2026-05-02T08:49:44.29Z</time></trkpt><trkpt lat="42.23577" lon="13.899425"><ele>330.8</ele><time>2026-05-02T08:49:45.29Z</time></trkpt><trkpt lat="42.23577" lon="13.8992983"><ele>331.40000000000003</ele><time>2026-05-02T08:49:46.29Z</time></trkpt><trkpt lat="42.2357733" lon="13.89917"><ele>332.0</ele><time>2026-05-02T08:49:47.29Z</time></trkpt><trkpt lat="42.2357733" lon="13.899065"><ele>333.6</ele><time>2026-05-02T08:49:48.29Z</time></trkpt><trkpt lat="42.235765" lon="13.8989467"><ele>335.20000000000005</ele><time>2026-05-02T08:49:49.291Z</time></trkpt><trkpt lat="42.2357533" lon="13.8988283"><ele>336.8</ele><time>2026-05-02T08:49:50.29Z</time></trkpt><trkpt lat="42.2357433" lon="13.8986983"><ele>338.4</ele><time>2026-05-02T08:49:51.29Z</time></trkpt><trkpt lat="42.2357483" lon="13.8985717"><ele>340.0</ele><time>2026-05-02T08:49:52.29Z</time></trkpt><trkpt lat="42.2357383" lon="13.8984283"><ele>341.6</ele><time>2026-05-02T08:49:53.29Z</time></trkpt><trkpt lat="42.2357317" lon="13.8982933"><ele>343.2</ele><time>2026-05-02T08:49:54.29Z</time></trkpt><trkpt lat="42.2357283" lon="13.8981667"><ele>344.79999999999995</ele><time>2026-05-02T08:49:55.291Z</time></trkpt><trkpt lat="42.2356983" lon="13.8980467"><ele>346.4</ele><time>2026-05-02T08:49:56.29Z</time></trkpt><trkpt lat="42.2356733" lon="13.897915"><ele>348.0</ele><time>2026-05-02T08:49:57.29Z</time></trkpt><trkpt lat="42.235675" lon="13.897755"><ele>348.0</ele><time>2026-05-02T08:49:58.29Z</time></trkpt><trkpt lat="42.23568" lon="13.8975933"><ele>348.0</ele><time>2026-05-02T08:49:59.29Z</time></trkpt><trkpt lat="42.235695" lon="13.8974383"><ele>348.0</ele><time>2026-05-02T08:50:00.29Z</time></trkpt><trkpt lat="42.2357167" lon="13.89728"><ele>348.0</ele><time>2026-05-02T08:50:01.29Z</time></trkpt><trkpt lat="42.2357517" lon="13.897115"><ele>349.0</ele><time>2026-05-02T08:50:02.29Z</time></trkpt><trkpt lat="42.2357833" lon="13.8969667"><ele>350.0</ele><time>2026-05-02T08:50:03.29Z</time></trkpt><trkpt lat="42.2358183" lon="13.8968333"><ele>351.0</ele><time>2026-05-02T08:50:04.29Z</time></trkpt><trkpt lat="42.2358383" lon="13.8967283"><ele>352.0</ele><time>2026-05-02T08:50:05.291Z</time></trkpt><trkpt lat="42.2358917" lon="13.8965933"><ele>353.0</ele><time>2026-05-02T08:50:07.29Z</time></trkpt><trkpt lat="42.2359283" lon="13.89641"><ele>353.0</ele><time>2026-05-02T08:50:09.29Z</time></trkpt><trkpt lat="42.2359417" lon="13.8962767"><ele>353.0</ele><time>2026-05-02T08:50:10.29Z</time></trkpt><trkpt lat="42.2359583" lon="13.896125"><ele>353.0</ele><time>2026-05-02T08:50:11.29Z</time></trkpt><trkpt lat="42.235965" lon="13.895965"><ele>353.0</ele><time>2026-05-02T08:50:12.29Z</time></trkpt><trkpt lat="42.2359733" lon="13.89582"><ele>353.0</ele><time>2026-05-02T08:50:13.29Z</time></trkpt><trkpt lat="42.2359883" lon="13.8956767"><ele>352.33333333333337</ele><time>2026-05-02T08:50:14.29Z</time></trkpt><trkpt lat="42.2360133" lon="13.895555"><ele>351.6666666666667</ele><time>2026-05-02T08:50:15.29Z</time></trkpt><trkpt lat="42.2360383" lon="13.8954483"><ele>351.0</ele><time>2026-05-02T08:50:16.29Z</time></trkpt><trkpt lat="42.2360517" lon="13.8953467"><ele>350.3333333333333</ele><time>2026-05-02T08:50:17.29Z</time></trkpt><trkpt lat="42.2360717" lon="13.8952467"><ele>349.66666666666663</ele><time>2026-05-02T08:50:18.29Z</time></trkpt><trkpt lat="42.236085" lon="13.895135"><ele>349.0</ele><time>2026-05-02T08:50:19.291Z</time></trkpt><trkpt lat="42.2360967" lon="13.895015"><ele>348.66666666666663</ele><time>2026-05-02T08:50:20.29Z</time></trkpt><trkpt lat="42.2361083" lon="13.8948917"><ele>348.3333333333333</ele><time>2026-05-02T08:50:21.29Z</time></trkpt><trkpt lat="42.23611" lon="13.8947633"><ele>348.0</ele><time>2026-05-02T08:50:22.29Z</time></trkpt><trkpt lat="42.23611" lon="13.8946433"><ele>347.6666666666667</ele><time>2026-05-02T08:50:23.29Z</time></trkpt><trkpt lat="42.23611" lon="13.89452"><ele>347.33333333333337</ele><time>2026-05-02T08:50:24.29Z</time></trkpt><trkpt lat="42.2361267" lon="13.8944167"><ele>347.0</ele><time>2026-05-02T08:50:25.29Z</time></trkpt><trkpt lat="42.23616" lon="13.8943267"><ele>346.6</ele><time>2026-05-02T08:50:26.29Z</time></trkpt><trkpt lat="42.23619" lon="13.89423"><ele>346.20000000000005</ele><time>2026-05-02T08:50:27.29Z</time></trkpt><trkpt lat="42.2362233" lon="13.89411"><ele>345.8</ele><time>2026-05-02T08:50:28.29Z</time></trkpt><trkpt lat="42.23625" lon="13.8939633"><ele>345.4</ele><time>2026-05-02T08:50:29.29Z</time></trkpt><trkpt lat="42.2362583" lon="13.89379"><ele>345.0</ele><time>2026-05-02T08:50:30.29Z</time></trkpt><trkpt lat="42.236265" lon="13.89361"><ele>345.0</ele><time>2026-05-02T08:50:31.29Z</time></trkpt><trkpt lat="42.2362517" lon="13.893435"><ele>345.0</ele><time>2026-05-02T08:50:32.29Z</time></trkpt><trkpt lat="42.2362483" lon="13.8932583"><ele>345.0</ele><time>2026-05-02T08:50:33.29Z</time></trkpt><trkpt lat="42.2362517" lon="13.89305"><ele>345.0</ele><time>2026-05-02T08:50:34.291Z</time></trkpt><trkpt lat="42.2362467" lon="13.892825"><ele>347.3333333333333</ele><time>2026-05-02T08:50:35.291Z</time></trkpt><trkpt lat="42.2362383" lon="13.8925867"><ele>349.66666666666663</ele><time>2026-05-02T08:50:36.29Z</time></trkpt><trkpt lat="42.2362183" lon="13.8923483"><ele>352.0</ele><time>2026-05-02T08:50:37.291Z</time></trkpt><trkpt lat="42.2361933" lon="13.8921183"><ele>352.0</ele><time>2026-05-02T08:50:38.29Z</time></trkpt><trkpt lat="42.2361483" lon="13.8918883"><ele>352.0</ele><time>2026-05-02T08:50:39.29Z</time></trkpt><trkpt lat="42.2360917" lon="13.8916783"><ele>352.0</ele><time>2026-05-02T08:50:40.29Z</time></trkpt><trkpt lat="42.2360283" lon="13.8914967"><ele>354.0</ele><time>2026-05-02T08:50:41.29Z</time></trkpt><trkpt lat="42.2359517" lon="13.8913283"><ele>356.0</ele><time>2026-05-02T08:50:42.29Z</time></trkpt><trkpt lat="42.235875" lon="13.8911633"><ele>358.0</ele><time>2026-05-02T08:50:43.29Z</time></trkpt><trkpt lat="42.2358133" lon="13.8909883"><ele>360.0</ele><time>2026-05-02T08:50:44.291Z</time></trkpt><trkpt lat="42.23576" lon="13.8907983"><ele>363.3333333333333</ele><time>2026-05-02T08:50:45.29Z</time></trkpt><trkpt lat="42.2357267" lon="13.890585"><ele>366.66666666666663</ele><time>2026-05-02T08:50:46.29Z</time></trkpt><trkpt lat="42.2357" lon="13.8903617"><ele>370.0</ele><time>2026-05-02T08:50:47.291Z</time></trkpt><trkpt lat="42.2356733" lon="13.89014"><ele>369.0</ele><time>2026-05-02T08:50:48.29Z</time></trkpt><trkpt lat="42.2356317" lon="13.88995"><ele>368.0</ele><time>2026-05-02T08:50:49.29Z</time></trkpt><trkpt lat="42.2355667" lon="13.8897883"><ele>367.0</ele><time>2026-05-02T08:50:50.291Z</time></trkpt><trkpt lat="42.2354867" lon="13.8896233"><ele>366.0</ele><time>2026-05-02T08:50:51.29Z</time></trkpt><trkpt lat="42.2354" lon="13.8894433"><ele>369.3333333333333</ele><time>2026-05-02T08:50:52.29Z</time></trkpt><trkpt lat="42.2353083" lon="13.8892483"><ele>372.66666666666663</ele><time>2026-05-02T08:50:53.29Z</time></trkpt><trkpt lat="42.23521" lon="13.8890367"><ele>376.0</ele><time>2026-05-02T08:50:54.29Z</time></trkpt><trkpt lat="42.2350967" lon="13.8888033"><ele>376.0</ele><time>2026-05-02T08:50:55.29Z</time></trkpt><trkpt lat="42.23497" lon="13.88856"><ele>376.0</ele><time>2026-05-02T08:50:56.29Z</time></trkpt><trkpt lat="42.2348283" lon="13.888315"><ele>378.0</ele><time>2026-05-02T08:50:57.29Z</time></trkpt><trkpt lat="42.2347033" lon="13.8880917"><ele>380.0</ele><time>2026-05-02T08:50:58.29Z</time></trkpt><trkpt lat="42.234585" lon="13.8879"><ele>382.0</ele><time>2026-05-02T08:50:59.29Z</time></trkpt><trkpt lat="42.2344683" lon="13.8877167"><ele>388.3333333333333</ele><time>2026-05-02T08:51:00.29Z</time></trkpt><trkpt lat="42.2343633" lon="13.887545"><ele>394.66666666666663</ele><time>2026-05-02T08:51:01.29Z</time></trkpt><trkpt lat="42.234255" lon="13.88737"><ele>401.0</ele><time>2026-05-02T08:51:02.291Z</time></trkpt><trkpt lat="42.2341533" lon="13.887195"><ele>401.0</ele><time>2026-05-02T08:51:03.29Z</time></trkpt><trkpt lat="42.2340517" lon="13.8870383"><ele>401.0</ele><time>2026-05-02T08:51:04.29Z</time></trkpt><trkpt lat="42.2339533" lon="13.8868883"><ele>401.0</ele><time>2026-05-02T08:51:05.29Z</time></trkpt><trkpt lat="42.2338467" lon="13.88676"><ele>401.0</ele><time>2026-05-02T08:51:06.29Z</time></trkpt><trkpt lat="42.2337417" lon="13.8866617"><ele>401.16666666666663</ele><time>2026-05-02T08:51:07.29Z</time></trkpt><trkpt lat="42.2336483" lon="13.8865967"><ele>401.3333333333333</ele><time>2026-05-02T08:51:08.29Z</time></trkpt><trkpt lat="42.2335717" lon="13.8865233"><ele>401.5</ele><time>2026-05-02T08:51:09.29Z</time></trkpt><trkpt lat="42.233525" lon="13.8864467"><ele>401.66666666666663</ele><time>2026-05-02T08:51:10.29Z</time></trkpt><trkpt lat="42.2335083" lon="13.8863617"><ele>401.8333333333333</ele><time>2026-05-02T08:51:11.291Z</time></trkpt><trkpt lat="42.2335233" lon="13.8862783"><ele>402.0</ele><time>2026-05-02T08:51:12.29Z</time></trkpt><trkpt lat="42.2336283" lon="13.8861917"><ele>402.0</ele><time>2026-05-02T08:51:14.29Z</time></trkpt><trkpt lat="42.23371" lon="13.88621"><ele>402.0</ele><time>2026-05-02T08:51:15.29Z</time></trkpt><trkpt lat="42.2337933" lon="13.8862683"><ele>402.0</ele><time>2026-05-02T08:51:16.29Z</time></trkpt><trkpt lat="42.2338867" lon="13.8863383"><ele>402.0</ele><time>2026-05-02T08:51:17.29Z</time></trkpt><trkpt lat="42.2339867" lon="13.886415"><ele>402.0</ele><time>2026-05-02T08:51:18.29Z</time></trkpt><trkpt lat="42.2340933" lon="13.8865133"><ele>401.75</ele><time>2026-05-02T08:51:19.29Z</time></trkpt><trkpt lat="42.2341917" lon="13.8866283"><ele>401.5</ele><time>2026-05-02T08:51:20.29Z</time></trkpt><trkpt lat="42.234285" lon="13.8867483"><ele>401.25</ele><time>2026-05-02T08:51:21.29Z</time></trkpt><trkpt lat="42.2343667" lon="13.886865"><ele>401.0</ele><time>2026-05-02T08:51:22.291Z</time></trkpt><trkpt lat="42.23444" lon="13.88696"><ele>400.99999999999994</ele><time>2026-05-02T08:51:23.291Z</time></trkpt><trkpt lat="42.234505" lon="13.88701"><ele>401.0</ele><time>2026-05-02T08:51:24.29Z</time></trkpt><trkpt lat="42.2345767" lon="13.8870267"><ele>401.0</ele><time>2026-05-02T08:51:25.291Z</time></trkpt><trkpt lat="42.234675" lon="13.8869767"><ele>401.0</ele><time>2026-05-02T08:51:27.29Z</time></trkpt><trkpt lat="42.2347117" lon="13.8868183"><ele>400.99999999999994</ele><time>2026-05-02T08:51:29.29Z</time></trkpt><trkpt lat="42.2347" lon="13.8867217"><ele>401.0</ele><time>2026-05-02T08:51:30.29Z</time></trkpt><trkpt lat="42.2346667" lon="13.8866283"><ele>404.20000000000005</ele><time>2026-05-02T08:51:31.29Z</time></trkpt><trkpt lat="42.2346233" lon="13.8865583"><ele>407.40000000000003</ele><time>2026-05-02T08:51:32.291Z</time></trkpt><trkpt lat="42.2345467" lon="13.88648"><ele>410.6</ele><time>2026-05-02T08:51:34.29Z</time></trkpt><trkpt lat="42.234465" lon="13.88639"><ele>413.8</ele><time>2026-05-02T08:51:56.29Z</time></trkpt><trkpt lat="42.2343767" lon="13.8862667"><ele>417.0</ele><time>2026-05-02T08:51:58.29Z</time></trkpt><trkpt lat="42.2343217" lon="13.8861767"><ele>417.0</ele><time>2026-05-02T08:51:59.29Z</time></trkpt><trkpt lat="42.234265" lon="13.88607"><ele>417.0</ele><time>2026-05-02T08:52:00.291Z</time></trkpt><trkpt lat="42.2342083" lon="13.8859383"><ele>417.0</ele><time>2026-05-02T08:52:01.29Z</time></trkpt><trkpt lat="42.2341517" lon="13.8858017"><ele>417.0</ele><time>2026-05-02T08:52:02.29Z</time></trkpt><trkpt lat="42.2340967" lon="13.8856583"><ele>417.0</ele><time>2026-05-02T08:52:03.29Z</time></trkpt><trkpt lat="42.2340483" lon="13.8855117"><ele>419.75</ele><time>2026-05-02T08:52:04.29Z</time></trkpt><trkpt lat="42.2340183" lon="13.88535"><ele>422.5</ele><time>2026-05-02T08:52:05.29Z</time></trkpt><trkpt lat="42.23399" lon="13.885175"><ele>425.25</ele><time>2026-05-02T08:52:06.291Z</time></trkpt><trkpt lat="42.2339617" lon="13.8849883"><ele>428.0</ele><time>2026-05-02T08:52:07.29Z</time></trkpt><trkpt lat="42.2339283" lon="13.88479"><ele>428.0</ele><time>2026-05-02T08:52:08.29Z</time></trkpt><trkpt lat="42.233895" lon="13.88457"><ele>428.0</ele><time>2026-05-02T08:52:09.29Z</time></trkpt><trkpt lat="42.2338583" lon="13.884335"><ele>428.0</ele><time>2026-05-02T08:52:10.291Z</time></trkpt><trkpt lat="42.23381" lon="13.884085"><ele>433.66666666666663</ele><time>2026-05-02T08:52:11.291Z</time></trkpt><trkpt lat="42.23376" lon="13.8838483"><ele>439.33333333333337</ele><time>2026-05-02T08:52:12.29Z</time></trkpt><trkpt lat="42.233705" lon="13.883625"><ele>445.0</ele><time>2026-05-02T08:52:13.29Z</time></trkpt><trkpt lat="42.23366" lon="13.8834033"><ele>449.0</ele><time>2026-05-02T08:52:14.29Z</time></trkpt><trkpt lat="42.23362" lon="13.8832083"><ele>453.0</ele><time>2026-05-02T08:52:15.29Z</time></trkpt><trkpt lat="42.2335833" lon="13.8830267"><ele>457.0</ele><time>2026-05-02T08:52:16.29Z</time></trkpt><trkpt lat="42.23357" lon="13.8828483"><ele>461.0</ele><time>2026-05-02T08:52:17.29Z</time></trkpt><trkpt lat="42.23357" lon="13.8826733"><ele>465.66666666666663</ele><time>2026-05-02T08:52:18.29Z</time></trkpt><trkpt lat="42.23358" lon="13.882475"><ele>470.33333333333337</ele><time>2026-05-02T08:52:19.291Z</time></trkpt><trkpt lat="42.2336" lon="13.88227"><ele>475.0</ele><time>2026-05-02T08:52:20.29Z</time></trkpt><trkpt lat="42.2336233" lon="13.8820467"><ele>475.0</ele><time>2026-05-02T08:52:21.29Z</time></trkpt><trkpt lat="42.2336417" lon="13.8818383"><ele>475.0</ele><time>2026-05-02T08:52:22.29Z</time></trkpt><trkpt lat="42.2336667" lon="13.88163"><ele>475.0</ele><time>2026-05-02T08:52:23.29Z</time></trkpt><trkpt lat="42.233695" lon="13.88142"><ele>476.0</ele><time>2026-05-02T08:52:24.29Z</time></trkpt><trkpt lat="42.2337333" lon="13.8812083"><ele>477.0</ele><time>2026-05-02T08:52:25.29Z</time></trkpt><trkpt lat="42.2337783" lon="13.8810167"><ele>478.0</ele><time>2026-05-02T08:52:26.29Z</time></trkpt><trkpt lat="42.2338183" lon="13.8808233"><ele>478.0</ele><time>2026-05-02T08:52:27.29Z</time></trkpt><trkpt lat="42.2338433" lon="13.8806133"><ele>478.0</ele><time>2026-05-02T08:52:28.29Z</time></trkpt><trkpt lat="42.2338517" lon="13.8804017"><ele>478.0</ele><time>2026-05-02T08:52:29.29Z</time></trkpt><trkpt lat="42.2338267" lon="13.880185"><ele>477.5</ele><time>2026-05-02T08:52:30.29Z</time></trkpt><trkpt lat="42.2337817" lon="13.8799833"><ele>477.0</ele><time>2026-05-02T08:52:31.29Z</time></trkpt><trkpt lat="42.2337417" lon="13.879795"><ele>476.5</ele><time>2026-05-02T08:52:32.29Z</time></trkpt><trkpt lat="42.2337167" lon="13.8796067"><ele>476.0</ele><time>2026-05-02T08:52:33.29Z</time></trkpt><trkpt lat="42.233715" lon="13.8794033"><ele>475.66666666666663</ele><time>2026-05-02T08:52:34.29Z</time></trkpt><trkpt lat="42.2337417" lon="13.8792033"><ele>475.33333333333337</ele><time>2026-05-02T08:52:35.29Z</time></trkpt><trkpt lat="42.233785" lon="13.879005"><ele>475.0</ele><time>2026-05-02T08:52:36.29Z</time></trkpt><trkpt lat="42.2338333" lon="13.8787917"><ele>475.0</ele><time>2026-05-02T08:52:37.291Z</time></trkpt><trkpt lat="42.233885" lon="13.87857"><ele>475.0</ele><time>2026-05-02T08:52:38.29Z</time></trkpt><trkpt lat="42.2339333" lon="13.8783567"><ele>475.0</ele><time>2026-05-02T08:52:39.29Z</time></trkpt><trkpt lat="42.233975" lon="13.8781483"><ele>471.33333333333337</ele><time>2026-05-02T08:52:40.29Z</time></trkpt><trkpt lat="42.23401" lon="13.8779483"><ele>467.66666666666663</ele><time>2026-05-02T08:52:41.29Z</time></trkpt><trkpt lat="42.2340483" lon="13.8777467"><ele>464.0</ele><time>2026-05-02T08:52:42.29Z</time></trkpt><trkpt lat="42.2340783" lon="13.8775433"><ele>464.0</ele><time>2026-05-02T08:52:43.29Z</time></trkpt><trkpt lat="42.23411" lon="13.8773317"><ele>464.0</ele><time>2026-05-02T08:52:44.29Z</time></trkpt><trkpt lat="42.2341267" lon="13.877115"><ele>464.0</ele><time>2026-05-02T08:52:45.29Z</time></trkpt><trkpt lat="42.23414" lon="13.8769033"><ele>464.5</ele><time>2026-05-02T08:52:46.29Z</time></trkpt><trkpt lat="42.2341567" lon="13.8767183"><ele>465.0</ele><time>2026-05-02T08:52:47.291Z</time></trkpt><trkpt lat="42.234185" lon="13.8765417"><ele>465.5</ele><time>2026-05-02T08:52:48.29Z</time></trkpt><trkpt lat="42.23423" lon="13.8763717"><ele>466.0</ele><time>2026-05-02T08:52:49.29Z</time></trkpt><trkpt lat="42.234295" lon="13.8762117"><ele>466.0</ele><time>2026-05-02T08:52:50.291Z</time></trkpt><trkpt lat="42.23437" lon="13.8760483"><ele>466.0</ele><time>2026-05-02T08:52:51.291Z</time></trkpt><trkpt lat="42.2344583" lon="13.87589"><ele>466.0</ele><time>2026-05-02T08:52:52.29Z</time></trkpt><trkpt lat="42.2345583" lon="13.8757267"><ele>466.0</ele><time>2026-05-02T08:52:53.29Z</time></trkpt><trkpt lat="42.2346717" lon="13.8755717"><ele>463.33333333333337</ele><time>2026-05-02T08:52:54.29Z</time></trkpt><trkpt lat="42.2347883" lon="13.8754183"><ele>460.66666666666663</ele><time>2026-05-02T08:52:55.29Z</time></trkpt><trkpt lat="42.234905" lon="13.8752783"><ele>458.0</ele><time>2026-05-02T08:52:56.29Z</time></trkpt><trkpt lat="42.2350333" lon="13.875145"><ele>460.25</ele><time>2026-05-02T08:52:57.29Z</time></trkpt><trkpt lat="42.23516" lon="13.87502"><ele>462.5</ele><time>2026-05-02T08:52:58.29Z</time></trkpt><trkpt lat="42.235275" lon="13.8749183"><ele>464.75</ele><time>2026-05-02T08:52:59.29Z</time></trkpt><trkpt lat="42.23539" lon="13.8748167"><ele>467.0</ele><time>2026-05-02T08:53:00.29Z</time></trkpt><trkpt lat="42.2355" lon="13.8747233"><ele>467.0</ele><time>2026-05-02T08:53:01.29Z</time></trkpt><trkpt lat="42.23559" lon="13.87462"><ele>467.00000000000006</ele><time>2026-05-02T08:53:02.29Z</time></trkpt><trkpt lat="42.2356583" lon="13.8745217"><ele>467.00000000000006</ele><time>2026-05-02T08:53:03.29Z</time></trkpt><trkpt lat="42.2357133" lon="13.8744233"><ele>467.0</ele><time>2026-05-02T08:53:04.29Z</time></trkpt><trkpt lat="42.23574" lon="13.8743217"><ele>467.0</ele><time>2026-05-02T08:53:05.29Z</time></trkpt><trkpt lat="42.2357333" lon="13.874225"><ele>465.49999999999994</ele><time>2026-05-02T08:53:06.29Z</time></trkpt><trkpt lat="42.2356733" lon="13.8741133"><ele>464.0</ele><time>2026-05-02T08:53:07.29Z</time></trkpt><trkpt lat="42.2356017" lon="13.8740233"><ele>462.5</ele><time>2026-05-02T08:53:08.29Z</time></trkpt><trkpt lat="42.2355383" lon="13.873945"><ele>461.0</ele><time>2026-05-02T08:53:09.29Z</time></trkpt><trkpt lat="42.2354733" lon="13.8738717"><ele>459.49999999999994</ele><time>2026-05-02T08:53:10.29Z</time></trkpt><trkpt lat="42.235425" lon="13.8738017"><ele>458.0</ele><time>2026-05-02T08:53:11.29Z</time></trkpt><trkpt lat="42.23537" lon="13.8736783"><ele>458.49999999999994</ele><time>2026-05-02T08:53:13.29Z</time></trkpt><trkpt lat="42.235385" lon="13.87354"><ele>459.0</ele><time>2026-05-02T08:53:15.29Z</time></trkpt><trkpt lat="42.2354167" lon="13.8734617"><ele>459.5</ele><time>2026-05-02T08:53:16.29Z</time></trkpt><trkpt lat="42.2354633" lon="13.8733783"><ele>460.0</ele><time>2026-05-02T08:53:17.29Z</time></trkpt><trkpt lat="42.2355183" lon="13.87329"><ele>460.49999999999994</ele><time>2026-05-02T08:53:18.29Z</time></trkpt><trkpt lat="42.2355833" lon="13.873205"><ele>461.0</ele><time>2026-05-02T08:53:19.29Z</time></trkpt><trkpt lat="42.2356683" lon="13.873165"><ele>461.0</ele><time>2026-05-02T08:53:20.29Z</time></trkpt><trkpt lat="42.235765" lon="13.8731483"><ele>461.0</ele><time>2026-05-02T08:53:21.29Z</time></trkpt><trkpt lat="42.23587" lon="13.8731583"><ele>461.0</ele><time>2026-05-02T08:53:22.29Z</time></trkpt><trkpt lat="42.2359783" lon="13.87319"><ele>461.0</ele><time>2026-05-02T08:53:23.29Z</time></trkpt><trkpt lat="42.236085" lon="13.8732283"><ele>461.0</ele><time>2026-05-02T08:53:24.29Z</time></trkpt><trkpt lat="42.2361917" lon="13.8732833"><ele>461.0</ele><time>2026-05-02T08:53:25.29Z</time></trkpt><trkpt lat="42.23631" lon="13.87332"><ele>461.0</ele><time>2026-05-02T08:53:26.29Z</time></trkpt><trkpt lat="42.2364383" lon="13.873345"><ele>461.0</ele><time>2026-05-02T08:53:27.29Z</time></trkpt><trkpt lat="42.236565" lon="13.873365"><ele>461.0</ele><time>2026-05-02T08:53:28.29Z</time></trkpt><trkpt lat="42.2366883" lon="13.8733783"><ele>461.20000000000005</ele><time>2026-05-02T08:53:29.29Z</time></trkpt><trkpt lat="42.236805" lon="13.8733667"><ele>461.40000000000003</ele><time>2026-05-02T08:53:30.29Z</time></trkpt><trkpt lat="42.23692" lon="13.8733467"><ele>461.6</ele><time>2026-05-02T08:53:31.29Z</time></trkpt><trkpt lat="42.23703" lon="13.8733033"><ele>461.8</ele><time>2026-05-02T08:53:32.29Z</time></trkpt><trkpt lat="42.2371267" lon="13.8732683"><ele>462.0</ele><time>2026-05-02T08:53:33.29Z</time></trkpt><trkpt lat="42.2372217" lon="13.87322"><ele>461.0</ele><time>2026-05-02T08:53:34.29Z</time></trkpt><trkpt lat="42.2373183" lon="13.8731567"><ele>460.00000000000006</ele><time>2026-05-02T08:53:35.289Z</time></trkpt><trkpt lat="42.2374183" lon="13.873085"><ele>459.00000000000006</ele><time>2026-05-02T08:53:36.289Z</time></trkpt><trkpt lat="42.23751" lon="13.8730083"><ele>458.0</ele><time>2026-05-02T08:53:37.289Z</time></trkpt><trkpt lat="42.2376033" lon="13.8729317"><ele>457.0</ele><time>2026-05-02T08:53:38.289Z</time></trkpt><trkpt lat="42.2376883" lon="13.8728367"><ele>457.0</ele><time>2026-05-02T08:53:39.289Z</time></trkpt><trkpt lat="42.23776" lon="13.8727167"><ele>457.0</ele><time>2026-05-02T08:53:40.289Z</time></trkpt><trkpt lat="42.2378217" lon="13.8725733"><ele>457.0</ele><time>2026-05-02T08:53:41.289Z</time></trkpt><trkpt lat="42.23787" lon="13.8724367"><ele>457.0</ele><time>2026-05-02T08:53:42.289Z</time></trkpt><trkpt lat="42.2379083" lon="13.8723017"><ele>460.20000000000005</ele><time>2026-05-02T08:53:43.289Z</time></trkpt><trkpt lat="42.2379467" lon="13.8721733"><ele>463.40000000000003</ele><time>2026-05-02T08:53:44.289Z</time></trkpt><trkpt lat="42.2379867" lon="13.87205"><ele>466.59999999999997</ele><time>2026-05-02T08:53:45.289Z</time></trkpt><trkpt lat="42.23803" lon="13.8719217"><ele>469.79999999999995</ele><time>2026-05-02T08:53:46.289Z</time></trkpt><trkpt lat="42.238075" lon="13.8717983"><ele>473.0</ele><time>2026-05-02T08:53:47.289Z</time></trkpt><trkpt lat="42.23813" lon="13.871685"><ele>473.25</ele><time>2026-05-02T08:53:48.289Z</time></trkpt><trkpt lat="42.23819" lon="13.8715667"><ele>473.5</ele><time>2026-05-02T08:53:49.289Z</time></trkpt><trkpt lat="42.238255" lon="13.8714417"><ele>473.75</ele><time>2026-05-02T08:53:50.289Z</time></trkpt><trkpt lat="42.238325" lon="13.8713133"><ele>474.0</ele><time>2026-05-02T08:53:51.29Z</time></trkpt><trkpt lat="42.2384033" lon="13.8711967"><ele>474.0</ele><time>2026-05-02T08:53:52.289Z</time></trkpt><trkpt lat="42.2384833" lon="13.87108"><ele>474.0</ele><time>2026-05-02T08:53:53.29Z</time></trkpt><trkpt lat="42.23856" lon="13.870965"><ele>474.0</ele><time>2026-05-02T08:53:54.289Z</time></trkpt><trkpt lat="42.23862" lon="13.8708733"><ele>474.0</ele><time>2026-05-02T08:53:55.289Z</time></trkpt><trkpt lat="42.238675" lon="13.870795"><ele>474.0</ele><time>2026-05-02T08:53:56.289Z</time></trkpt><trkpt lat="42.2387183" lon="13.8707267"><ele>476.6666666666667</ele><time>2026-05-02T08:53:57.289Z</time></trkpt><trkpt lat="42.23874" lon="13.8706217"><ele>479.33333333333337</ele><time>2026-05-02T08:53:59.289Z</time></trkpt><trkpt lat="42.2386383" lon="13.87058"><ele>482.0</ele><time>2026-05-02T08:54:02.289Z</time></trkpt><trkpt lat="42.238575" lon="13.8705867"><ele>484.6666666666667</ele><time>2026-05-02T08:54:03.29Z</time></trkpt><trkpt lat="42.2385017" lon="13.8706117"><ele>487.33333333333337</ele><time>2026-05-02T08:54:04.289Z</time></trkpt><trkpt lat="42.2384183" lon="13.8706333"><ele>490.0</ele><time>2026-05-02T08:54:05.289Z</time></trkpt><trkpt lat="42.238325" lon="13.87066"><ele>490.0</ele><time>2026-05-02T08:54:06.289Z</time></trkpt><trkpt lat="42.2382267" lon="13.87068"><ele>490.0</ele><time>2026-05-02T08:54:07.29Z</time></trkpt><trkpt lat="42.2381217" lon="13.8707"><ele>490.0</ele><time>2026-05-02T08:54:08.289Z</time></trkpt><trkpt lat="42.238025" lon="13.8707183"><ele>490.0</ele><time>2026-05-02T08:54:09.289Z</time></trkpt><trkpt lat="42.2379333" lon="13.8707667"><ele>490.0</ele><time>2026-05-02T08:54:10.289Z</time></trkpt><trkpt lat="42.2378467" lon="13.8708317"><ele>489.2</ele><time>2026-05-02T08:54:11.289Z</time></trkpt><trkpt lat="42.2377633" lon="13.8709033"><ele>488.4</ele><time>2026-05-02T08:54:12.289Z</time></trkpt><trkpt lat="42.237685" lon="13.8709533"><ele>487.6</ele><time>2026-05-02T08:54:13.289Z</time></trkpt><trkpt lat="42.237615" lon="13.8709783"><ele>486.8</ele><time>2026-05-02T08:54:14.289Z</time></trkpt><trkpt lat="42.2375217" lon="13.8709317"><ele>486.0</ele><time>2026-05-02T08:54:16.289Z</time></trkpt><trkpt lat="42.23754" lon="13.8707833"><ele>488.8</ele><time>2026-05-02T08:54:18.289Z</time></trkpt><trkpt lat="42.2375883" lon="13.870695"><ele>491.6</ele><time>2026-05-02T08:54:19.289Z</time></trkpt><trkpt lat="42.237645" lon="13.8706017"><ele>494.4</ele><time>2026-05-02T08:54:20.289Z</time></trkpt><trkpt lat="42.2377083" lon="13.87051"><ele>497.2</ele><time>2026-05-02T08:54:21.289Z</time></trkpt><trkpt lat="42.2377733" lon="13.87042"><ele>500.0</ele><time>2026-05-02T08:54:22.289Z</time></trkpt><trkpt lat="42.2378433" lon="13.8703233"><ele>499.99999999999994</ele><time>2026-05-02T08:54:23.289Z</time></trkpt><trkpt lat="42.2379117" lon="13.870225"><ele>500.0</ele><time>2026-05-02T08:54:24.289Z</time></trkpt><trkpt lat="42.2379717" lon="13.8701283"><ele>500.0</ele><time>2026-05-02T08:54:25.29Z</time></trkpt><trkpt lat="42.2380183" lon="13.870045"><ele>500.0</ele><time>2026-05-02T08:54:26.289Z</time></trkpt><trkpt lat="42.2380483" lon="13.8698983"><ele>499.99999999999994</ele><time>2026-05-02T08:54:28.289Z</time></trkpt><trkpt lat="42.2380183" lon="13.8698233"><ele>500.0</ele><time>2026-05-02T08:54:29.289Z</time></trkpt><trkpt lat="42.2379683" lon="13.86975"><ele>503.75</ele><time>2026-05-02T08:54:30.289Z</time></trkpt><trkpt lat="42.2378917" lon="13.8696917"><ele>507.5</ele><time>2026-05-02T08:54:31.289Z</time></trkpt><trkpt lat="42.23779" lon="13.869645"><ele>511.25</ele><time>2026-05-02T08:54:32.29Z</time></trkpt><trkpt lat="42.2376733" lon="13.86961"><ele>515.0</ele><time>2026-05-02T08:54:33.289Z</time></trkpt><trkpt lat="42.23754" lon="13.8695583"><ele>515.0</ele><time>2026-05-02T08:54:34.289Z</time></trkpt><trkpt lat="42.237405" lon="13.8694717"><ele>515.0</ele><time>2026-05-02T08:54:35.289Z</time></trkpt><trkpt lat="42.2372633" lon="13.86938"><ele>515.0</ele><time>2026-05-02T08:54:36.289Z</time></trkpt><trkpt lat="42.2371233" lon="13.86932"><ele>519.75</ele><time>2026-05-02T08:54:37.289Z</time></trkpt><trkpt lat="42.2369867" lon="13.8692367"><ele>524.5</ele><time>2026-05-02T08:54:38.289Z</time></trkpt><trkpt lat="42.2368583" lon="13.8691533"><ele>529.25</ele><time>2026-05-02T08:54:39.29Z</time></trkpt><trkpt lat="42.2367367" lon="13.8690717"><ele>534.0</ele><time>2026-05-02T08:54:40.289Z</time></trkpt><trkpt lat="42.2366167" lon="13.8689917"><ele>534.0</ele><time>2026-05-02T08:54:41.289Z</time></trkpt><trkpt lat="42.2365017" lon="13.86891"><ele>534.0</ele><time>2026-05-02T08:54:42.289Z</time></trkpt><trkpt lat="42.2364017" lon="13.8688333"><ele>534.0</ele><time>2026-05-02T08:54:43.289Z</time></trkpt><trkpt lat="42.2363233" lon="13.8687633"><ele>534.0</ele><time>2026-05-02T08:54:44.289Z</time></trkpt><trkpt lat="42.2362683" lon="13.8687"><ele>534.0</ele><time>2026-05-02T08:54:45.289Z</time></trkpt><trkpt lat="42.23622" lon="13.8685533"><ele>535.0</ele><time>2026-05-02T08:54:47.289Z</time></trkpt><trkpt lat="42.23631" lon="13.868425"><ele>536.0</ele><time>2026-05-02T08:54:49.289Z</time></trkpt><trkpt lat="42.2364033" lon="13.8683717"><ele>537.0</ele><time>2026-05-02T08:54:50.289Z</time></trkpt><trkpt lat="42.2365167" lon="13.8683233"><ele>538.0</ele><time>2026-05-02T08:54:51.289Z</time></trkpt><trkpt lat="42.2366367" lon="13.8682617"><ele>540.4</ele><time>2026-05-02T08:54:52.289Z</time></trkpt><trkpt lat="42.2367567" lon="13.86821"><ele>542.8</ele><time>2026-05-02T08:54:53.289Z</time></trkpt><trkpt lat="42.2368683" lon="13.86816"><ele>545.2</ele><time>2026-05-02T08:54:54.289Z</time></trkpt><trkpt lat="42.2369617" lon="13.8681067"><ele>547.6</ele><time>2026-05-02T08:54:55.289Z</time></trkpt><trkpt lat="42.2370367" lon="13.8680717"><ele>550.0</ele><time>2026-05-02T08:54:56.289Z</time></trkpt><trkpt lat="42.2371033" lon="13.86798"><ele>550.0</ele><time>2026-05-02T08:54:58.29Z</time></trkpt><trkpt lat="42.23706" lon="13.86787"><ele>550.0</ele><time>2026-05-02T08:55:00.289Z</time></trkpt><trkpt lat="42.2369967" lon="13.867805"><ele>550.0</ele><time>2026-05-02T08:55:01.289Z</time></trkpt><trkpt lat="42.236905" lon="13.867745"><ele>550.0</ele><time>2026-05-02T08:55:02.289Z</time></trkpt><trkpt lat="42.2367983" lon="13.8676917"><ele>550.0</ele><time>2026-05-02T08:55:03.289Z</time></trkpt><trkpt lat="42.2366917" lon="13.8676267"><ele>551.75</ele><time>2026-05-02T08:55:04.289Z</time></trkpt><trkpt lat="42.236595" lon="13.8675467"><ele>553.5</ele><time>2026-05-02T08:55:05.289Z</time></trkpt><trkpt lat="42.2365133" lon="13.86744"><ele>555.25</ele><time>2026-05-02T08:55:06.289Z</time></trkpt><trkpt lat="42.2364433" lon="13.8673167"><ele>557.0</ele><time>2026-05-02T08:55:07.289Z</time></trkpt><trkpt lat="42.2363833" lon="13.8671817"><ele>557.0</ele><time>2026-05-02T08:55:08.289Z</time></trkpt><trkpt lat="42.2363383" lon="13.8670483"><ele>557.0</ele><time>2026-05-02T08:55:09.289Z</time></trkpt><trkpt lat="42.2362867" lon="13.86694"><ele>557.0</ele><time>2026-05-02T08:55:10.289Z</time></trkpt><trkpt lat="42.2362283" lon="13.866845"><ele>557.0</ele><time>2026-05-02T08:55:11.289Z</time></trkpt><trkpt lat="42.2361617" lon="13.8667667"><ele>557.0</ele><time>2026-05-02T08:55:12.29Z</time></trkpt><trkpt lat="42.2360867" lon="13.86672"><ele>557.0</ele><time>2026-05-02T08:55:13.289Z</time></trkpt><trkpt lat="42.2359917" lon="13.86671"><ele>557.0</ele><time>2026-05-02T08:55:14.289Z</time></trkpt><trkpt lat="42.2358833" lon="13.866735"><ele>557.0</ele><time>2026-05-02T08:55:15.289Z</time></trkpt><trkpt lat="42.2357633" lon="13.866785"><ele>557.0</ele><time>2026-05-02T08:55:16.289Z</time></trkpt><trkpt lat="42.2356567" lon="13.8668283"><ele>557.0</ele><time>2026-05-02T08:55:17.289Z</time></trkpt><trkpt lat="42.2355683" lon="13.866855"><ele>556.1666666666666</ele><time>2026-05-02T08:55:18.29Z</time></trkpt><trkpt lat="42.2355017" lon="13.86685"><ele>555.3333333333333</ele><time>2026-05-02T08:55:19.289Z</time></trkpt><trkpt lat="42.2354217" lon="13.86678"><ele>554.5</ele><time>2026-05-02T08:55:21.289Z</time></trkpt><trkpt lat="42.2354433" lon="13.8666667"><ele>553.6666666666666</ele><time>2026-05-02T08:55:23.289Z</time></trkpt><trkpt lat="42.2355067" lon="13.8666217"><ele>552.8333333333334</ele><time>2026-05-02T08:55:24.289Z</time></trkpt><trkpt lat="42.2355717" lon="13.8665917"><ele>552.0</ele><time>2026-05-02T08:55:25.289Z</time></trkpt><trkpt lat="42.2356383" lon="13.8665367"><ele>556.0</ele><time>2026-05-02T08:55:27.289Z</time></trkpt><trkpt lat="42.235625" lon="13.866445"><ele>560.0</ele><time>2026-05-02T08:55:34.29Z</time></trkpt><trkpt lat="42.2355283" lon="13.866405"><ele>564.0</ele><time>2026-05-02T08:55:36.289Z</time></trkpt><trkpt lat="42.2354533" lon="13.8663917"><ele>568.0</ele><time>2026-05-02T08:55:37.289Z</time></trkpt><trkpt lat="42.2353833" lon="13.8663783"><ele>572.0</ele><time>2026-05-02T08:55:38.289Z</time></trkpt><trkpt lat="42.235325" lon="13.8663267"><ele>576.0</ele><time>2026-05-02T08:55:39.29Z</time></trkpt><trkpt lat="42.2352683" lon="13.8662367"><ele>576.0</ele><time>2026-05-02T08:55:40.289Z</time></trkpt><trkpt lat="42.2352" lon="13.8661167"><ele>576.0</ele><time>2026-05-02T08:55:41.289Z</time></trkpt><trkpt lat="42.2351267" lon="13.86598"><ele>576.0</ele><time>2026-05-02T08:55:42.289Z</time></trkpt><trkpt lat="42.2350617" lon="13.8658417"><ele>576.0</ele><time>2026-05-02T08:55:43.289Z</time></trkpt><trkpt lat="42.2349933" lon="13.8657167"><ele>574.75</ele><time>2026-05-02T08:55:44.289Z</time></trkpt><trkpt lat="42.234925" lon="13.8655867"><ele>573.5</ele><time>2026-05-02T08:55:45.289Z</time></trkpt><trkpt lat="42.23485" lon="13.865475"><ele>572.25</ele><time>2026-05-02T08:55:46.289Z</time></trkpt><trkpt lat="42.2347683" lon="13.865375"><ele>571.0</ele><time>2026-05-02T08:55:47.289Z</time></trkpt><trkpt lat="42.2346683" lon="13.8652833"><ele>571.0</ele><time>2026-05-02T08:55:48.289Z</time></trkpt><trkpt lat="42.234585" lon="13.8651867"><ele>571.0</ele><time>2026-05-02T08:55:49.289Z</time></trkpt><trkpt lat="42.2345133" lon="13.8650817"><ele>571.0</ele><time>2026-05-02T08:55:50.289Z</time></trkpt><trkpt lat="42.2344483" lon="13.86496"><ele>571.0</ele><time>2026-05-02T08:55:51.289Z</time></trkpt><trkpt lat="42.2343883" lon="13.864805"><ele>575.5</ele><time>2026-05-02T08:55:52.289Z</time></trkpt><trkpt lat="42.2343133" lon="13.864645"><ele>580.0</ele><time>2026-05-02T08:55:53.289Z</time></trkpt><trkpt lat="42.234235" lon="13.8645033"><ele>584.5</ele><time>2026-05-02T08:55:54.289Z</time></trkpt><trkpt lat="42.2341617" lon="13.8643617"><ele>589.0</ele><time>2026-05-02T08:55:55.289Z</time></trkpt><trkpt lat="42.2341" lon="13.864195"><ele>588.75</ele><time>2026-05-02T08:55:56.289Z</time></trkpt><trkpt lat="42.234035" lon="13.864005"><ele>588.5</ele><time>2026-05-02T08:55:57.289Z</time></trkpt><trkpt lat="42.2339683" lon="13.8638217"><ele>588.25</ele><time>2026-05-02T08:55:58.289Z</time></trkpt><trkpt lat="42.2339117" lon="13.863655"><ele>588.0</ele><time>2026-05-02T08:55:59.289Z</time></trkpt><trkpt lat="42.233855" lon="13.8635183"><ele>591.5</ele><time>2026-05-02T08:56:00.289Z</time></trkpt><trkpt lat="42.233775" lon="13.8633833"><ele>595.0</ele><time>2026-05-02T08:56:01.289Z</time></trkpt><trkpt lat="42.23368" lon="13.86324"><ele>598.5</ele><time>2026-05-02T08:56:02.289Z</time></trkpt><trkpt lat="42.2335767" lon="13.8630883"><ele>602.0</ele><time>2026-05-02T08:56:03.289Z</time></trkpt><trkpt lat="42.23346" lon="13.86292"><ele>602.0</ele><time>2026-05-02T08:56:04.289Z</time></trkpt><trkpt lat="42.2333333" lon="13.8627617"><ele>602.0</ele><time>2026-05-02T08:56:05.289Z</time></trkpt><trkpt lat="42.2332133" lon="13.8626267"><ele>602.0</ele><time>2026-05-02T08:56:06.289Z</time></trkpt><trkpt lat="42.23312" lon="13.86252"><ele>602.0</ele><time>2026-05-02T08:56:07.29Z</time></trkpt><trkpt lat="42.2330367" lon="13.8624283"><ele>602.0</ele><time>2026-05-02T08:56:08.289Z</time></trkpt><trkpt lat="42.2329767" lon="13.8623317"><ele>602.0</ele><time>2026-05-02T08:56:09.289Z</time></trkpt><trkpt lat="42.23293" lon="13.86221"><ele>602.0</ele><time>2026-05-02T08:56:10.289Z</time></trkpt><trkpt lat="42.23288" lon="13.8620583"><ele>602.0</ele><time>2026-05-02T08:56:11.289Z</time></trkpt><trkpt lat="42.2328417" lon="13.8618817"><ele>605.75</ele><time>2026-05-02T08:56:12.289Z</time></trkpt><trkpt lat="42.2327967" lon="13.8616917"><ele>609.5</ele><time>2026-05-02T08:56:13.289Z</time></trkpt><trkpt lat="42.23273" lon="13.8615133"><ele>613.25</ele><time>2026-05-02T08:56:14.289Z</time></trkpt><trkpt lat="42.232655" lon="13.8613467"><ele>617.0</ele><time>2026-05-02T08:56:15.289Z</time></trkpt><trkpt lat="42.23259" lon="13.86119"><ele>617.0</ele><time>2026-05-02T08:56:16.289Z</time></trkpt><trkpt lat="42.2325317" lon="13.86105"><ele>617.0</ele><time>2026-05-02T08:56:17.289Z</time></trkpt><trkpt lat="42.2324783" lon="13.860925"><ele>617.0</ele><time>2026-05-02T08:56:18.289Z</time></trkpt><trkpt lat="42.232445" lon="13.8607783"><ele>617.0</ele><time>2026-05-02T08:56:19.289Z</time></trkpt><trkpt lat="42.2324233" lon="13.8606167"><ele>618.6</ele><time>2026-05-02T08:56:20.29Z</time></trkpt><trkpt lat="42.2324083" lon="13.86045"><ele>620.2</ele><time>2026-05-02T08:56:21.289Z</time></trkpt><trkpt lat="42.23242" lon="13.8603083"><ele>621.8</ele><time>2026-05-02T08:56:22.29Z</time></trkpt><trkpt lat="42.2324333" lon="13.86017"><ele>623.4</ele><time>2026-05-02T08:56:23.29Z</time></trkpt><trkpt lat="42.23243" lon="13.8600533"><ele>625.0</ele><time>2026-05-02T08:56:24.289Z</time></trkpt><trkpt lat="42.2324117" lon="13.8599583"><ele>626.2</ele><time>2026-05-02T08:56:25.289Z</time></trkpt><trkpt lat="42.2323783" lon="13.8598733"><ele>627.4</ele><time>2026-05-02T08:56:26.289Z</time></trkpt><trkpt lat="42.2323217" lon="13.8598183"><ele>628.6</ele><time>2026-05-02T08:56:27.289Z</time></trkpt><trkpt lat="42.2322367" lon="13.8598017"><ele>629.8</ele><time>2026-05-02T08:56:28.289Z</time></trkpt><trkpt lat="42.2321283" lon="13.8598117"><ele>631.0</ele><time>2026-05-02T08:56:29.289Z</time></trkpt><trkpt lat="42.23201" lon="13.859805"><ele>631.75</ele><time>2026-05-02T08:56:30.29Z</time></trkpt><trkpt lat="42.2318917" lon="13.8597717"><ele>632.5</ele><time>2026-05-02T08:56:31.29Z</time></trkpt><trkpt lat="42.2317917" lon="13.859745"><ele>633.25</ele><time>2026-05-02T08:56:32.289Z</time></trkpt><trkpt lat="42.2316783" lon="13.8597467"><ele>634.0</ele><time>2026-05-02T08:56:33.289Z</time></trkpt><trkpt lat="42.2315517" lon="13.8597783"><ele>636.0</ele><time>2026-05-02T08:56:34.289Z</time></trkpt><trkpt lat="42.231435" lon="13.85984"><ele>638.0</ele><time>2026-05-02T08:56:35.289Z</time></trkpt><trkpt lat="42.2313333" lon="13.8598983"><ele>640.0</ele><time>2026-05-02T08:56:36.289Z</time></trkpt><trkpt lat="42.23125" lon="13.85994"><ele>642.0</ele><time>2026-05-02T08:56:37.29Z</time></trkpt><trkpt lat="42.231165" lon="13.8599667"><ele>644.0</ele><time>2026-05-02T08:56:38.289Z</time></trkpt><trkpt lat="42.231085" lon="13.8599617"><ele>644.0</ele><time>2026-05-02T08:56:39.289Z</time></trkpt><trkpt lat="42.2310233" lon="13.8599267"><ele>644.0</ele><time>2026-05-02T08:56:40.289Z</time></trkpt><trkpt lat="42.2309783" lon="13.8598533"><ele>644.0</ele><time>2026-05-02T08:56:41.29Z</time></trkpt><trkpt lat="42.23095" lon="13.8597717"><ele>644.0</ele><time>2026-05-02T08:56:42.29Z</time></trkpt><trkpt lat="42.2308983" lon="13.85965"><ele>644.0</ele><time>2026-05-02T08:56:44.289Z</time></trkpt><trkpt lat="42.230835" lon="13.85959"><ele>644.0</ele><time>2026-05-02T08:56:47.289Z</time></trkpt><trkpt lat="42.2307633" lon="13.8595567"><ele>644.0</ele><time>2026-05-02T08:56:50.289Z</time></trkpt><trkpt lat="42.2306917" lon="13.85952"><ele>644.0</ele><time>2026-05-02T08:56:52.289Z</time></trkpt><trkpt lat="42.2306267" lon="13.8594883"><ele>644.0</ele><time>2026-05-02T08:56:54.29Z</time></trkpt><trkpt lat="42.2305567" lon="13.8594467"><ele>644.0</ele><time>2026-05-02T08:56:58.289Z</time></trkpt><trkpt lat="42.2304917" lon="13.8594017"><ele>644.0</ele><time>2026-05-02T08:57:02.289Z</time></trkpt><trkpt lat="42.23043" lon="13.8593283"><ele>644.0</ele><time>2026-05-02T08:57:05.289Z</time></trkpt><trkpt lat="42.2303783" lon="13.859275"><ele>644.0</ele><time>2026-05-02T08:57:08.289Z</time></trkpt><trkpt lat="42.23029" lon="13.8592083"><ele>647.6</ele><time>2026-05-02T08:57:15.289Z</time></trkpt><trkpt lat="42.2302317" lon="13.859155"><ele>651.2</ele><time>2026-05-02T08:57:18.289Z</time></trkpt><trkpt lat="42.2301333" lon="13.8590733"><ele>654.8000000000001</ele><time>2026-05-02T08:57:28.289Z</time></trkpt><trkpt lat="42.2300267" lon="13.859005"><ele>658.4000000000001</ele><time>2026-05-02T08:57:30.289Z</time></trkpt><trkpt lat="42.229935" lon="13.8589383"><ele>662.0</ele><time>2026-05-02T08:57:32.289Z</time></trkpt><trkpt lat="42.2298667" lon="13.8588883"><ele>663.8333333333333</ele><time>2026-05-02T08:57:34.289Z</time></trkpt><trkpt lat="42.2297833" lon="13.8588817"><ele>665.6666666666666</ele><time>2026-05-02T08:57:36.289Z</time></trkpt><trkpt lat="42.2297133" lon="13.8588767"><ele>667.5</ele><time>2026-05-02T08:57:37.29Z</time></trkpt><trkpt lat="42.2296417" lon="13.858855"><ele>669.3333333333334</ele><time>2026-05-02T08:57:38.289Z</time></trkpt><trkpt lat="42.2295667" lon="13.8588317"><ele>671.1666666666667</ele><time>2026-05-02T08:57:39.289Z</time></trkpt><trkpt lat="42.2294967" lon="13.8588083"><ele>673.0</ele><time>2026-05-02T08:57:40.289Z</time></trkpt><trkpt lat="42.229395" lon="13.8587667"><ele>673.0</ele><time>2026-05-02T08:57:42.289Z</time></trkpt><trkpt lat="42.2293267" lon="13.8587167"><ele>673.0</ele><time>2026-05-02T08:57:44.289Z</time></trkpt><trkpt lat="42.2292772" lon="13.8586503"><ele>673.0</ele><time>2026-05-02T08:57:46.289Z</time></trkpt><trkpt lat="42.2292401" lon="13.858563"><ele>673.0</ele><time>2026-05-02T08:57:48.289Z</time></trkpt><trkpt lat="42.2292033" lon="13.8584567"><ele>673.0</ele><time>2026-05-02T08:57:51.289Z</time></trkpt><trkpt lat="42.2291733" lon="13.8583817"><ele>673.0</ele><time>2026-05-02T08:57:53.289Z</time></trkpt><trkpt lat="42.2291267" lon="13.858285"><ele>676.0</ele><time>2026-05-02T08:57:57.29Z</time></trkpt><trkpt lat="42.2290633" lon="13.85818"><ele>679.0</ele><time>2026-05-02T08:57:59.289Z</time></trkpt><trkpt lat="42.2289817" lon="13.85805"><ele>682.0</ele><time>2026-05-02T08:58:01.289Z</time></trkpt><trkpt lat="42.2289417" lon="13.8579833"><ele>685.0</ele><time>2026-05-02T08:58:02.29Z</time></trkpt><trkpt lat="42.2288883" lon="13.8579233"><ele>688.0</ele><time>2026-05-02T08:58:03.289Z</time></trkpt><trkpt lat="42.2287983" lon="13.857835"><ele>689.2</ele><time>2026-05-02T08:58:05.289Z</time></trkpt><trkpt lat="42.2287283" lon="13.85776"><ele>690.4</ele><time>2026-05-02T08:58:07.289Z</time></trkpt><trkpt lat="42.22864" lon="13.8576883"><ele>691.6</ele><time>2026-05-02T08:58:09.289Z</time></trkpt><trkpt lat="42.228545" lon="13.8576267"><ele>692.8000000000001</ele><time>2026-05-02T08:58:11.289Z</time></trkpt><trkpt lat="42.2284467" lon="13.857635"><ele>694.0</ele><time>2026-05-02T08:58:13.29Z</time></trkpt><trkpt lat="42.2283317" lon="13.85769"><ele>694.0</ele><time>2026-05-02T08:58:15.29Z</time></trkpt><trkpt lat="42.2282683" lon="13.8576967"><ele>694.0</ele><time>2026-05-02T08:58:16.29Z</time></trkpt><trkpt lat="42.2281533" lon="13.8576517"><ele>694.0</ele><time>2026-05-02T08:58:18.289Z</time></trkpt><trkpt lat="42.22809" lon="13.8576033"><ele>694.0</ele><time>2026-05-02T08:58:19.289Z</time></trkpt><trkpt lat="42.2280283" lon="13.8575617"><ele>694.0</ele><time>2026-05-02T08:58:20.289Z</time></trkpt><trkpt lat="42.2279317" lon="13.8574783"><ele>694.0</ele><time>2026-05-02T08:58:22.289Z</time></trkpt><trkpt lat="42.2278667" lon="13.857395"><ele>700.6</ele><time>2026-05-02T08:58:24.289Z</time></trkpt><trkpt lat="42.2277983" lon="13.8572933"><ele>707.2</ele><time>2026-05-02T08:58:26.289Z</time></trkpt><trkpt lat="42.2277283" lon="13.857195"><ele>713.8000000000001</ele><time>2026-05-02T08:58:28.289Z</time></trkpt><trkpt lat="42.22765" lon="13.8570483"><ele>720.4000000000001</ele><time>2026-05-02T08:58:30.289Z</time></trkpt><trkpt lat="42.227615" lon="13.8569583"><ele>727.0</ele><time>2026-05-02T08:58:31.289Z</time></trkpt><trkpt lat="42.2275883" lon="13.8568717"><ele>727.0</ele><time>2026-05-02T08:58:32.289Z</time></trkpt><trkpt lat="42.2275567" lon="13.8567933"><ele>727.0</ele><time>2026-05-02T08:58:33.289Z</time></trkpt><trkpt lat="42.2274817" lon="13.856695"><ele>727.0</ele><time>2026-05-02T08:58:35.289Z</time></trkpt><trkpt lat="42.22742" lon="13.856665"><ele>727.0</ele><time>2026-05-02T08:58:36.289Z</time></trkpt><trkpt lat="42.2273383" lon="13.8566583"><ele>727.0</ele><time>2026-05-02T08:58:37.29Z</time></trkpt><trkpt lat="42.22726" lon="13.8566533"><ele>727.0</ele><time>2026-05-02T08:58:38.289Z</time></trkpt><trkpt lat="42.227185" lon="13.8566533"><ele>731.3333333333334</ele><time>2026-05-02T08:58:39.289Z</time></trkpt><trkpt lat="42.2271217" lon="13.85666"><ele>735.6666666666667</ele><time>2026-05-02T08:58:40.289Z</time></trkpt><trkpt lat="42.227015" lon="13.8566383"><ele>740.0</ele><time>2026-05-02T08:58:42.289Z</time></trkpt><trkpt lat="42.2269533" lon="13.8566017"><ele>744.3333333333334</ele><time>2026-05-02T08:58:43.289Z</time></trkpt><trkpt lat="42.22685" lon="13.8565267"><ele>748.6666666666666</ele><time>2026-05-02T08:58:45.289Z</time></trkpt><trkpt lat="42.226795" lon="13.856475"><ele>753.0</ele><time>2026-05-02T08:58:46.289Z</time></trkpt><trkpt lat="42.2267383" lon="13.8564267"><ele>753.0</ele><time>2026-05-02T08:58:47.289Z</time></trkpt><trkpt lat="42.2266817" lon="13.856375"><ele>753.0</ele><time>2026-05-02T08:58:48.289Z</time></trkpt><trkpt lat="42.2266067" lon="13.8562533"><ele>753.0</ele><time>2026-05-02T08:58:50.29Z</time></trkpt><trkpt lat="42.2265783" lon="13.856175"><ele>753.0</ele><time>2026-05-02T08:58:51.289Z</time></trkpt><trkpt lat="42.2265417" lon="13.8560867"><ele>753.0</ele><time>2026-05-02T08:58:52.289Z</time></trkpt><trkpt lat="42.2264967" lon="13.8559967"><ele>753.0</ele><time>2026-05-02T08:58:53.289Z</time></trkpt><trkpt lat="42.2264417" lon="13.8559033"><ele>756.2</ele><time>2026-05-02T08:58:54.289Z</time></trkpt><trkpt lat="42.22638" lon="13.8558183"><ele>759.4</ele><time>2026-05-02T08:58:55.289Z</time></trkpt><trkpt lat="42.22632" lon="13.8557217"><ele>762.6</ele><time>2026-05-02T08:58:56.289Z</time></trkpt><trkpt lat="42.2262567" lon="13.8556167"><ele>765.8000000000001</ele><time>2026-05-02T08:58:57.289Z</time></trkpt><trkpt lat="42.22619" lon="13.85553"><ele>769.0</ele><time>2026-05-02T08:58:58.289Z</time></trkpt><trkpt lat="42.22613" lon="13.8554617"><ele>768.9999999999999</ele><time>2026-05-02T08:58:59.289Z</time></trkpt><trkpt lat="42.226065" lon="13.8553983"><ele>769.0</ele><time>2026-05-02T08:59:00.29Z</time></trkpt><trkpt lat="42.2259983" lon="13.85535"><ele>769.0</ele><time>2026-05-02T08:59:01.289Z</time></trkpt><trkpt lat="42.2259217" lon="13.855305"><ele>769.0</ele><time>2026-05-02T08:59:02.289Z</time></trkpt><trkpt lat="42.225855" lon="13.855275"><ele>768.9999999999999</ele><time>2026-05-02T08:59:03.289Z</time></trkpt><trkpt lat="42.2257867" lon="13.8552567"><ele>769.0</ele><time>2026-05-02T08:59:04.289Z</time></trkpt><trkpt lat="42.2256933" lon="13.85523"><ele>771.0</ele><time>2026-05-02T08:59:06.289Z</time></trkpt><trkpt lat="42.22563" lon="13.85522"><ele>773.0</ele><time>2026-05-02T08:59:09.289Z</time></trkpt><trkpt lat="42.22556" lon="13.85521"><ele>775.0</ele><time>2026-05-02T08:59:11.289Z</time></trkpt><trkpt lat="42.2254683" lon="13.855205"><ele>777.0</ele><time>2026-05-02T08:59:13.289Z</time></trkpt><trkpt lat="42.2254017" lon="13.8552017"><ele>779.0</ele><time>2026-05-02T08:59:16.289Z</time></trkpt><trkpt lat="42.2254733" lon="13.8551567"><ele>781.0</ele><time>2026-05-02T09:01:31.29Z</time></trkpt><trkpt lat="42.2254517" lon="13.8550583"><ele>783.0</ele><time>2026-05-02T09:01:37.289Z</time></trkpt><trkpt lat="42.2254117" lon="13.8549783"><ele>783.0</ele><time>2026-05-02T09:01:40.289Z</time></trkpt><trkpt lat="42.22537" lon="13.8548983"><ele>783.0</ele><time>2026-05-02T09:01:42.289Z</time></trkpt><trkpt lat="42.2253183" lon="13.854795"><ele>783.0</ele><time>2026-05-02T09:01:44.289Z</time></trkpt><trkpt lat="42.2252767" lon="13.8546817"><ele>783.0</ele><time>2026-05-02T09:01:46.289Z</time></trkpt><trkpt lat="42.2252533" lon="13.8545883"><ele>783.0</ele><time>2026-05-02T09:01:48.289Z</time></trkpt><trkpt lat="42.2252183" lon="13.85448"><ele>783.0</ele><time>2026-05-02T09:01:51.289Z</time></trkpt><trkpt lat="42.2251817" lon="13.8543617"><ele>784.0</ele><time>2026-05-02T09:02:08.289Z</time></trkpt><trkpt lat="42.2251567" lon="13.85427"><ele>785.0</ele><time>2026-05-02T09:02:11.289Z</time></trkpt><trkpt lat="42.2251367" lon="13.8541717"><ele>786.0</ele><time>2026-05-02T09:02:13.29Z</time></trkpt><trkpt lat="42.225095" lon="13.8541033"><ele>787.0</ele><time>2026-05-02T09:03:16.289Z</time></trkpt><trkpt lat="42.2250583" lon="13.8539717"><ele>788.0</ele><time>2026-05-02T09:03:18.289Z</time></trkpt><trkpt lat="42.2250367" lon="13.8538217"><ele>789.0</ele><time>2026-05-02T09:03:20.289Z</time></trkpt><trkpt lat="42.22503" lon="13.8537317"><ele>788.9999999999999</ele><time>2026-05-02T09:03:21.289Z</time></trkpt><trkpt lat="42.2250167" lon="13.8536317"><ele>789.0</ele><time>2026-05-02T09:03:22.289Z</time></trkpt><trkpt lat="42.2250133" lon="13.8535333"><ele>789.0</ele><time>2026-05-02T09:03:23.289Z</time></trkpt><trkpt lat="42.225015" lon="13.8534483"><ele>789.0</ele><time>2026-05-02T09:03:24.289Z</time></trkpt><trkpt lat="42.2250267" lon="13.853355"><ele>789.0</ele><time>2026-05-02T09:03:25.289Z</time></trkpt><trkpt lat="42.2250417" lon="13.85326"><ele>788.9999999999999</ele><time>2026-05-02T09:03:26.289Z</time></trkpt><trkpt lat="42.2250683" lon="13.853165"><ele>789.0</ele><time>2026-05-02T09:03:27.289Z</time></trkpt><trkpt lat="42.2251017" lon="13.85307"><ele>789.1428571428571</ele><time>2026-05-02T09:03:28.289Z</time></trkpt><trkpt lat="42.2251367" lon="13.8529883"><ele>789.2857142857142</ele><time>2026-05-02T09:03:29.289Z</time></trkpt><trkpt lat="42.2251767" lon="13.852905"><ele>789.4285714285713</ele><time>2026-05-02T09:03:30.289Z</time></trkpt><trkpt lat="42.2252117" lon="13.8528267"><ele>789.5714285714286</ele><time>2026-05-02T09:03:31.289Z</time></trkpt><trkpt lat="42.2252517" lon="13.8527467"><ele>789.7142857142858</ele><time>2026-05-02T09:03:32.289Z</time></trkpt><trkpt lat="42.2252933" lon="13.8526767"><ele>789.8571428571428</ele><time>2026-05-02T09:03:33.289Z</time></trkpt><trkpt lat="42.2253383" lon="13.8526167"><ele>790.0</ele><time>2026-05-02T09:03:34.29Z</time></trkpt><trkpt lat="42.22543" lon="13.8525083"><ele>790.4</ele><time>2026-05-02T09:03:36.289Z</time></trkpt><trkpt lat="42.2254983" lon="13.8524017"><ele>790.8</ele><time>2026-05-02T09:03:38.289Z</time></trkpt><trkpt lat="42.2255467" lon="13.8522683"><ele>791.2</ele><time>2026-05-02T09:03:40.289Z</time></trkpt><trkpt lat="42.2255867" lon="13.8521367"><ele>791.6</ele><time>2026-05-02T09:03:42.289Z</time></trkpt><trkpt lat="42.22561" lon="13.8519867"><ele>792.0</ele><time>2026-05-02T09:03:44.289Z</time></trkpt><trkpt lat="42.22563" lon="13.8518283"><ele>795.25</ele><time>2026-05-02T09:03:46.289Z</time></trkpt><trkpt lat="42.2256417" lon="13.8516833"><ele>798.5</ele><time>2026-05-02T09:03:48.289Z</time></trkpt><trkpt lat="42.22565" lon="13.851525"><ele>801.75</ele><time>2026-05-02T09:03:50.289Z</time></trkpt><trkpt lat="42.225665" lon="13.851385"><ele>805.0</ele><time>2026-05-02T09:03:52.289Z</time></trkpt><trkpt lat="42.2256733" lon="13.8512233"><ele>807.25</ele><time>2026-05-02T09:03:54.289Z</time></trkpt><trkpt lat="42.225675" lon="13.851055"><ele>809.5</ele><time>2026-05-02T09:03:56.289Z</time></trkpt><trkpt lat="42.2256717" lon="13.850895"><ele>811.75</ele><time>2026-05-02T09:03:58.289Z</time></trkpt><trkpt lat="42.2256483" lon="13.8507283"><ele>814.0</ele><time>2026-05-02T09:04:00.289Z</time></trkpt><trkpt lat="42.2256267" lon="13.8505617"><ele>815.75</ele><time>2026-05-02T09:04:02.29Z</time></trkpt><trkpt lat="42.2256117" lon="13.8504117"><ele>817.5</ele><time>2026-05-02T09:04:04.289Z</time></trkpt><trkpt lat="42.2255917" lon="13.8502467"><ele>819.25</ele><time>2026-05-02T09:04:06.289Z</time></trkpt><trkpt lat="42.2255783" lon="13.85009"><ele>821.0</ele><time>2026-05-02T09:04:08.289Z</time></trkpt><trkpt lat="42.2255633" lon="13.84993"><ele>824.4</ele><time>2026-05-02T09:04:10.289Z</time></trkpt><trkpt lat="42.2255433" lon="13.8497683"><ele>827.8</ele><time>2026-05-02T09:04:12.289Z</time></trkpt><trkpt lat="42.2255233" lon="13.8496817"><ele>831.1999999999999</ele><time>2026-05-02T09:04:13.289Z</time></trkpt><trkpt lat="42.2255017" lon="13.84954"><ele>834.5999999999999</ele><time>2026-05-02T09:04:15.289Z</time></trkpt><trkpt lat="42.2255233" lon="13.84942"><ele>838.0</ele><time>2026-05-02T09:04:17.289Z</time></trkpt><trkpt lat="42.2255933" lon="13.8493367"><ele>840.5999999999999</ele><time>2026-05-02T09:04:19.289Z</time></trkpt><trkpt lat="42.2256833" lon="13.8492933"><ele>843.1999999999999</ele><time>2026-05-02T09:04:21.289Z</time></trkpt><trkpt lat="42.2257967" lon="13.8492817"><ele>845.8</ele><time>2026-05-02T09:04:23.289Z</time></trkpt><trkpt lat="42.2258633" lon="13.8492617"><ele>848.4</ele><time>2026-05-02T09:04:24.289Z</time></trkpt><trkpt lat="42.22594" lon="13.8492233"><ele>851.0</ele><time>2026-05-02T09:04:25.289Z</time></trkpt><trkpt lat="42.2260283" lon="13.84919"><ele>854.8</ele><time>2026-05-02T09:04:26.289Z</time></trkpt><trkpt lat="42.2261267" lon="13.8491533"><ele>858.5999999999999</ele><time>2026-05-02T09:04:27.289Z</time></trkpt><trkpt lat="42.226215" lon="13.84914"><ele>862.4</ele><time>2026-05-02T09:04:28.289Z</time></trkpt><trkpt lat="42.226325" lon="13.8491183"><ele>866.2</ele><time>2026-05-02T09:04:29.289Z</time></trkpt><trkpt lat="42.2264383" lon="13.8490983"><ele>870.0</ele><time>2026-05-02T09:04:30.289Z</time></trkpt><trkpt lat="42.2265533" lon="13.84908"><ele>870.0</ele><time>2026-05-02T09:04:31.289Z</time></trkpt><trkpt lat="42.2266683" lon="13.8490467"><ele>870.0</ele><time>2026-05-02T09:04:32.289Z</time></trkpt><trkpt lat="42.2267783" lon="13.84902"><ele>870.0</ele><time>2026-05-02T09:04:33.289Z</time></trkpt><trkpt lat="42.2268783" lon="13.849"><ele>870.0</ele><time>2026-05-02T09:04:34.289Z</time></trkpt><trkpt lat="42.2269717" lon="13.848985"><ele>870.0</ele><time>2026-05-02T09:04:35.289Z</time></trkpt><trkpt lat="42.2270567" lon="13.8489633"><ele>870.0</ele><time>2026-05-02T09:04:36.289Z</time></trkpt><trkpt lat="42.2271333" lon="13.8489433"><ele>870.0</ele><time>2026-05-02T09:04:37.289Z</time></trkpt><trkpt lat="42.2272083" lon="13.8489183"><ele>870.0</ele><time>2026-05-02T09:04:38.29Z</time></trkpt><trkpt lat="42.2273383" lon="13.8488767"><ele>870.0</ele><time>2026-05-02T09:04:40.289Z</time></trkpt><trkpt lat="42.2274083" lon="13.8488517"><ele>870.0</ele><time>2026-05-02T09:04:41.289Z</time></trkpt><trkpt lat="42.2274867" lon="13.8488217"><ele>870.0</ele><time>2026-05-02T09:04:42.289Z</time></trkpt><trkpt lat="42.2275583" lon="13.8488117"><ele>868.2</ele><time>2026-05-02T09:04:43.289Z</time></trkpt><trkpt lat="42.2276383" lon="13.8488133"><ele>866.4</ele><time>2026-05-02T09:04:44.29Z</time></trkpt><trkpt lat="42.2277183" lon="13.8488233"><ele>864.5999999999999</ele><time>2026-05-02T09:04:45.289Z</time></trkpt><trkpt lat="42.22781" lon="13.8488467"><ele>862.8</ele><time>2026-05-02T09:04:46.289Z</time></trkpt><trkpt lat="42.227915" lon="13.8488667"><ele>861.0</ele><time>2026-05-02T09:04:47.289Z</time></trkpt><trkpt lat="42.22801" lon="13.848885"><ele>861.0</ele><time>2026-05-02T09:04:48.289Z</time></trkpt><trkpt lat="42.2281" lon="13.8488983"><ele>861.0</ele><time>2026-05-02T09:04:49.289Z</time></trkpt><trkpt lat="42.2281867" lon="13.8489"><ele>861.0</ele><time>2026-05-02T09:04:50.29Z</time></trkpt><trkpt lat="42.2282667" lon="13.8489117"><ele>861.0</ele><time>2026-05-02T09:04:51.289Z</time></trkpt><trkpt lat="42.2283483" lon="13.8489183"><ele>861.0</ele><time>2026-05-02T09:04:52.289Z</time></trkpt><trkpt lat="42.22842" lon="13.8489283"><ele>861.0</ele><time>2026-05-02T09:04:53.289Z</time></trkpt><trkpt lat="42.2284833" lon="13.84893"><ele>862.6666666666666</ele><time>2026-05-02T09:04:54.289Z</time></trkpt><trkpt lat="42.2285517" lon="13.8489117"><ele>864.3333333333333</ele><time>2026-05-02T09:04:55.289Z</time></trkpt><trkpt lat="42.2286267" lon="13.8488933"><ele>866.0</ele><time>2026-05-02T09:04:56.289Z</time></trkpt><trkpt lat="42.22871" lon="13.8488733"><ele>867.6666666666666</ele><time>2026-05-02T09:04:57.289Z</time></trkpt><trkpt lat="42.2288017" lon="13.8488717"><ele>869.3333333333333</ele><time>2026-05-02T09:04:58.289Z</time></trkpt><trkpt lat="42.228885" lon="13.848905"><ele>871.0</ele><time>2026-05-02T09:04:59.289Z</time></trkpt><trkpt lat="42.2289783" lon="13.848935"><ele>873.1999999999999</ele><time>2026-05-02T09:05:00.289Z</time></trkpt><trkpt lat="42.2290683" lon="13.8489783"><ele>875.3999999999999</ele><time>2026-05-02T09:05:01.289Z</time></trkpt><trkpt lat="42.229165" lon="13.849035"><ele>877.6</ele><time>2026-05-02T09:05:02.289Z</time></trkpt><trkpt lat="42.229265" lon="13.8491083"><ele>879.8</ele><time>2026-05-02T09:05:03.289Z</time></trkpt><trkpt lat="42.2293483" lon="13.8491717"><ele>882.0</ele><time>2026-05-02T09:05:04.289Z</time></trkpt><trkpt lat="42.22941" lon="13.8492433"><ele>882.0</ele><time>2026-05-02T09:05:05.289Z</time></trkpt><trkpt lat="42.2294733" lon="13.8492917"><ele>882.0</ele><time>2026-05-02T09:05:06.289Z</time></trkpt><trkpt lat="42.229595" lon="13.8493033"><ele>882.0</ele><time>2026-05-02T09:05:08.289Z</time></trkpt><trkpt lat="42.2297083" lon="13.84926"><ele>882.0</ele><time>2026-05-02T09:05:10.289Z</time></trkpt><trkpt lat="42.22977" lon="13.8492183"><ele>882.0</ele><time>2026-05-02T09:05:11.289Z</time></trkpt><trkpt lat="42.2298317" lon="13.8491683"><ele>882.8</ele><time>2026-05-02T09:05:12.289Z</time></trkpt><trkpt lat="42.2298917" lon="13.8491283"><ele>883.6</ele><time>2026-05-02T09:05:13.289Z</time></trkpt><trkpt lat="42.2299667" lon="13.8490917"><ele>884.3999999999999</ele><time>2026-05-02T09:05:14.289Z</time></trkpt><trkpt lat="42.2300683" lon="13.84904"><ele>885.1999999999999</ele><time>2026-05-02T09:05:15.29Z</time></trkpt><trkpt lat="42.2301783" lon="13.8489817"><ele>886.0</ele><time>2026-05-02T09:05:16.29Z</time></trkpt><trkpt lat="42.2302933" lon="13.8489267"><ele>886.0</ele><time>2026-05-02T09:05:17.289Z</time></trkpt><trkpt lat="42.230405" lon="13.8488717"><ele>886.0</ele><time>2026-05-02T09:05:18.289Z</time></trkpt><trkpt lat="42.2305133" lon="13.8488167"><ele>886.0</ele><time>2026-05-02T09:05:19.289Z</time></trkpt><trkpt lat="42.2306217" lon="13.848755"><ele>886.0</ele><time>2026-05-02T09:05:20.289Z</time></trkpt><trkpt lat="42.230745" lon="13.8486983"><ele>886.0</ele><time>2026-05-02T09:05:21.289Z</time></trkpt><trkpt lat="42.2308733" lon="13.848645"><ele>886.0</ele><time>2026-05-02T09:05:22.289Z</time></trkpt><trkpt lat="42.2309983" lon="13.84859"><ele>886.0</ele><time>2026-05-02T09:05:23.289Z</time></trkpt><trkpt lat="42.23112" lon="13.8485317"><ele>886.0</ele><time>2026-05-02T09:05:24.289Z</time></trkpt><trkpt lat="42.2312367" lon="13.8484917"><ele>890.0</ele><time>2026-05-02T09:05:25.289Z</time></trkpt><trkpt lat="42.2313383" lon="13.8484517"><ele>893.9999999999999</ele><time>2026-05-02T09:05:26.289Z</time></trkpt><trkpt lat="42.2314367" lon="13.8484133"><ele>897.9999999999999</ele><time>2026-05-02T09:05:27.289Z</time></trkpt><trkpt lat="42.231535" lon="13.848385"><ele>902.0</ele><time>2026-05-02T09:05:28.289Z</time></trkpt><trkpt lat="42.2316433" lon="13.8483683"><ele>906.0</ele><time>2026-05-02T09:05:29.289Z</time></trkpt><trkpt lat="42.2317417" lon="13.848355"><ele>906.0</ele><time>2026-05-02T09:05:30.289Z</time></trkpt><trkpt lat="42.231835" lon="13.8483467"><ele>906.0</ele><time>2026-05-02T09:05:31.289Z</time></trkpt><trkpt lat="42.2319133" lon="13.8483383"><ele>906.0</ele><time>2026-05-02T09:05:32.289Z</time></trkpt><trkpt lat="42.231985" lon="13.84833"><ele>906.0</ele><time>2026-05-02T09:05:33.289Z</time></trkpt><trkpt lat="42.232055" lon="13.8482917"><ele>906.0</ele><time>2026-05-02T09:05:34.289Z</time></trkpt><trkpt lat="42.23211" lon="13.84824"><ele>906.0</ele><time>2026-05-02T09:05:35.289Z</time></trkpt><trkpt lat="42.2321583" lon="13.8481683"><ele>906.0</ele><time>2026-05-02T09:05:36.289Z</time></trkpt><trkpt lat="42.2322017" lon="13.848105"><ele>905.9999999999999</ele><time>2026-05-02T09:05:37.289Z</time></trkpt><trkpt lat="42.23231" lon="13.848035"><ele>905.9999999999999</ele><time>2026-05-02T09:05:39.289Z</time></trkpt><trkpt lat="42.2324417" lon="13.8480217"><ele>906.0</ele><time>2026-05-02T09:05:41.289Z</time></trkpt><trkpt lat="42.2325067" lon="13.8480167"><ele>906.0</ele><time>2026-05-02T09:05:42.289Z</time></trkpt><trkpt lat="42.2325833" lon="13.8480083"><ele>906.0</ele><time>2026-05-02T09:05:44.289Z</time></trkpt><trkpt lat="42.2325467" lon="13.8479083"><ele>905.9999999999999</ele><time>2026-05-02T09:05:52.289Z</time></trkpt><trkpt lat="42.2324367" lon="13.8478133"><ele>905.9999999999999</ele><time>2026-05-02T09:05:54.289Z</time></trkpt><trkpt lat="42.2323617" lon="13.8477433"><ele>906.0</ele><time>2026-05-02T09:05:55.289Z</time></trkpt><trkpt lat="42.2322867" lon="13.8476767"><ele>906.0</ele><time>2026-05-02T09:05:56.29Z</time></trkpt><trkpt lat="42.2322167" lon="13.8476167"><ele>911.0</ele><time>2026-05-02T09:05:57.289Z</time></trkpt><trkpt lat="42.2321433" lon="13.8475483"><ele>915.9999999999999</ele><time>2026-05-02T09:05:58.289Z</time></trkpt><trkpt lat="42.2320667" lon="13.8474833"><ele>920.9999999999999</ele><time>2026-05-02T09:05:59.289Z</time></trkpt><trkpt lat="42.23199" lon="13.8474067"><ele>926.0</ele><time>2026-05-02T09:06:00.289Z</time></trkpt><trkpt lat="42.2319133" lon="13.8473383"><ele>931.0</ele><time>2026-05-02T09:06:01.289Z</time></trkpt><trkpt lat="42.23184" lon="13.8472817"><ele>930.9999999999999</ele><time>2026-05-02T09:06:02.289Z</time></trkpt><trkpt lat="42.2317683" lon="13.8472483"><ele>931.0</ele><time>2026-05-02T09:06:03.289Z</time></trkpt><trkpt lat="42.2317" lon="13.8472233"><ele>931.0</ele><time>2026-05-02T09:06:04.289Z</time></trkpt><trkpt lat="42.23162" lon="13.847215"><ele>931.0</ele><time>2026-05-02T09:06:05.289Z</time></trkpt><trkpt lat="42.2315383" lon="13.8472017"><ele>930.9999999999999</ele><time>2026-05-02T09:06:06.289Z</time></trkpt><trkpt lat="42.2314583" lon="13.84718"><ele>931.0</ele><time>2026-05-02T09:06:07.289Z</time></trkpt><trkpt lat="42.2313817" lon="13.847145"><ele>931.0</ele><time>2026-05-02T09:06:08.289Z</time></trkpt><trkpt lat="42.231305" lon="13.8471017"><ele>930.9999999999999</ele><time>2026-05-02T09:06:09.289Z</time></trkpt><trkpt lat="42.23125" lon="13.8470367"><ele>930.9999999999999</ele><time>2026-05-02T09:06:10.29Z</time></trkpt><trkpt lat="42.2311283" lon="13.8469583"><ele>931.0</ele><time>2026-05-02T09:06:12.289Z</time></trkpt><trkpt lat="42.231" lon="13.846925"><ele>931.0</ele><time>2026-05-02T09:06:14.289Z</time></trkpt><trkpt lat="42.2309217" lon="13.846925"><ele>931.0</ele><time>2026-05-02T09:06:15.289Z</time></trkpt><trkpt lat="42.23083" lon="13.8469517"><ele>930.9999999999999</ele><time>2026-05-02T09:06:16.289Z</time></trkpt><trkpt lat="42.2307317" lon="13.8469783"><ele>930.9999999999999</ele><time>2026-05-02T09:06:17.289Z</time></trkpt><trkpt lat="42.230625" lon="13.84701"><ele>931.0</ele><time>2026-05-02T09:06:18.289Z</time></trkpt><trkpt lat="42.2305183" lon="13.847045"><ele>931.0</ele><time>2026-05-02T09:06:19.29Z</time></trkpt><trkpt lat="42.2304083" lon="13.8470717"><ele>931.75</ele><time>2026-05-02T09:06:20.29Z</time></trkpt><trkpt lat="42.2302967" lon="13.8471017"><ele>932.5</ele><time>2026-05-02T09:06:21.289Z</time></trkpt><trkpt lat="42.2301867" lon="13.847135"><ele>933.25</ele><time>2026-05-02T09:06:22.289Z</time></trkpt><trkpt lat="42.2300767" lon="13.8471817"><ele>934.0</ele><time>2026-05-02T09:06:23.289Z</time></trkpt><trkpt lat="42.2299633" lon="13.8472417"><ele>934.0</ele><time>2026-05-02T09:06:24.289Z</time></trkpt><trkpt lat="42.22985" lon="13.84729"><ele>934.0</ele><time>2026-05-02T09:06:25.289Z</time></trkpt><trkpt lat="42.22974" lon="13.847345"><ele>934.0</ele><time>2026-05-02T09:06:26.289Z</time></trkpt><trkpt lat="42.229625" lon="13.847405"><ele>934.0</ele><time>2026-05-02T09:06:27.29Z</time></trkpt><trkpt lat="42.229515" lon="13.8474533"><ele>935.2</ele><time>2026-05-02T09:06:28.289Z</time></trkpt><trkpt lat="42.2294133" lon="13.8474983"><ele>936.4000000000001</ele><time>2026-05-02T09:06:29.289Z</time></trkpt><trkpt lat="42.2293067" lon="13.8475417"><ele>937.6</ele><time>2026-05-02T09:06:30.289Z</time></trkpt><trkpt lat="42.2291983" lon="13.8475733"><ele>938.8</ele><time>2026-05-02T09:06:31.289Z</time></trkpt><trkpt lat="42.2290833" lon="13.8475933"><ele>940.0</ele><time>2026-05-02T09:06:32.289Z</time></trkpt><trkpt lat="42.228965" lon="13.8476133"><ele>933.2</ele><time>2026-05-02T09:06:33.289Z</time></trkpt><trkpt lat="42.228855" lon="13.8476417"><ele>926.4</ele><time>2026-05-02T09:06:34.289Z</time></trkpt><trkpt lat="42.2287517" lon="13.8476683"><ele>919.5999999999999</ele><time>2026-05-02T09:06:35.289Z</time></trkpt><trkpt lat="42.22865" lon="13.8477067"><ele>912.8</ele><time>2026-05-02T09:06:36.289Z</time></trkpt><trkpt lat="42.22856" lon="13.8477367"><ele>906.0</ele><time>2026-05-02T09:06:37.289Z</time></trkpt><trkpt lat="42.2284667" lon="13.847755"><ele>906.0</ele><time>2026-05-02T09:06:38.289Z</time></trkpt><trkpt lat="42.2283817" lon="13.8477683"><ele>906.0</ele><time>2026-05-02T09:06:39.289Z</time></trkpt><trkpt lat="42.228295" lon="13.8477733"><ele>906.0</ele><time>2026-05-02T09:06:40.289Z</time></trkpt><trkpt lat="42.228205" lon="13.8477833"><ele>906.0</ele><time>2026-05-02T09:06:41.289Z</time></trkpt><trkpt lat="42.2281217" lon="13.8477883"><ele>906.0</ele><time>2026-05-02T09:06:42.289Z</time></trkpt><trkpt lat="42.2280383" lon="13.8477883"><ele>906.0</ele><time>2026-05-02T09:06:43.29Z</time></trkpt><trkpt lat="42.2279567" lon="13.8477867"><ele>905.0</ele><time>2026-05-02T09:06:44.289Z</time></trkpt><trkpt lat="42.22788" lon="13.847785"><ele>904.0</ele><time>2026-05-02T09:06:45.289Z</time></trkpt><trkpt lat="42.2278033" lon="13.8477783"><ele>903.0</ele><time>2026-05-02T09:06:46.29Z</time></trkpt><trkpt lat="42.22772" lon="13.847775"><ele>902.0</ele><time>2026-05-02T09:06:47.289Z</time></trkpt><trkpt lat="42.2276267" lon="13.8477783"><ele>901.0</ele><time>2026-05-02T09:06:48.289Z</time></trkpt><trkpt lat="42.22752" lon="13.8477567"><ele>900.0</ele><time>2026-05-02T09:06:49.289Z</time></trkpt><trkpt lat="42.227395" lon="13.84775"><ele>900.75</ele><time>2026-05-02T09:06:50.289Z</time></trkpt><trkpt lat="42.2272533" lon="13.8477533"><ele>901.5</ele><time>2026-05-02T09:06:51.289Z</time></trkpt><trkpt lat="42.2271167" lon="13.84775"><ele>902.25</ele><time>2026-05-02T09:06:52.29Z</time></trkpt><trkpt lat="42.22698" lon="13.8477533"><ele>903.0</ele><time>2026-05-02T09:06:53.289Z</time></trkpt><trkpt lat="42.226845" lon="13.84775"><ele>903.0</ele><time>2026-05-02T09:06:54.289Z</time></trkpt><trkpt lat="42.2267067" lon="13.8477467"><ele>903.0</ele><time>2026-05-02T09:06:55.29Z</time></trkpt><trkpt lat="42.22657" lon="13.8477417"><ele>903.0</ele><time>2026-05-02T09:06:56.289Z</time></trkpt><trkpt lat="42.2264233" lon="13.8477233"><ele>903.0</ele><time>2026-05-02T09:06:57.289Z</time></trkpt><trkpt lat="42.2262683" lon="13.8477183"><ele>903.5</ele><time>2026-05-02T09:06:58.289Z</time></trkpt><trkpt lat="42.226115" lon="13.8477217"><ele>904.0</ele><time>2026-05-02T09:06:59.289Z</time></trkpt><trkpt lat="42.22598" lon="13.8477333"><ele>904.5</ele><time>2026-05-02T09:07:00.289Z</time></trkpt><trkpt lat="42.225855" lon="13.8477433"><ele>905.0</ele><time>2026-05-02T09:07:01.289Z</time></trkpt><trkpt lat="42.2257383" lon="13.8477317"><ele>902.4</ele><time>2026-05-02T09:07:02.289Z</time></trkpt><trkpt lat="42.225635" lon="13.8477067"><ele>899.8</ele><time>2026-05-02T09:07:03.289Z</time></trkpt><trkpt lat="42.2255367" lon="13.8476633"><ele>897.2</ele><time>2026-05-02T09:07:04.289Z</time></trkpt><trkpt lat="42.2254417" lon="13.8476033"><ele>894.6</ele><time>2026-05-02T09:07:05.289Z</time></trkpt><trkpt lat="42.225345" lon="13.8475433"><ele>892.0</ele><time>2026-05-02T09:07:06.289Z</time></trkpt><trkpt lat="42.2252467" lon="13.8474933"><ele>893.8</ele><time>2026-05-02T09:07:07.289Z</time></trkpt><trkpt lat="42.2251467" lon="13.8474433"><ele>895.6</ele><time>2026-05-02T09:07:08.289Z</time></trkpt><trkpt lat="42.2250417" lon="13.8474067"><ele>897.3999999999999</ele><time>2026-05-02T09:07:09.289Z</time></trkpt><trkpt lat="42.2249417" lon="13.8473667"><ele>899.1999999999999</ele><time>2026-05-02T09:07:10.289Z</time></trkpt><trkpt lat="42.2248533" lon="13.847335"><ele>901.0</ele><time>2026-05-02T09:07:11.289Z</time></trkpt><trkpt lat="42.22478" lon="13.8473033"><ele>901.0</ele><time>2026-05-02T09:07:12.289Z</time></trkpt><trkpt lat="42.2246966" lon="13.8472178"><ele>900.9999999999999</ele><time>2026-05-02T09:07:14.289Z</time></trkpt><trkpt lat="42.2246581" lon="13.8470604"><ele>900.9999999999999</ele><time>2026-05-02T09:07:16.289Z</time></trkpt><trkpt lat="42.2246524" lon="13.8469465"><ele>901.0</ele><time>2026-05-02T09:07:17.289Z</time></trkpt><trkpt lat="42.2246507" lon="13.8468403"><ele>901.0</ele><time>2026-05-02T09:07:18.289Z</time></trkpt><trkpt lat="42.224661" lon="13.8467513"><ele>904.1666666666666</ele><time>2026-05-02T09:07:19.289Z</time></trkpt><trkpt lat="42.224691" lon="13.8466716"><ele>907.3333333333333</ele><time>2026-05-02T09:07:20.289Z</time></trkpt><trkpt lat="42.2247416" lon="13.8465954"><ele>910.5</ele><time>2026-05-02T09:07:21.289Z</time></trkpt><trkpt lat="42.2248031" lon="13.8465156"><ele>913.6666666666667</ele><time>2026-05-02T09:07:22.289Z</time></trkpt><trkpt lat="42.2248744" lon="13.8464273"><ele>916.8333333333334</ele><time>2026-05-02T09:07:23.289Z</time></trkpt><trkpt lat="42.2249526" lon="13.8463293"><ele>920.0</ele><time>2026-05-02T09:07:24.289Z</time></trkpt><trkpt lat="42.2250291" lon="13.846231"><ele>923.4</ele><time>2026-05-02T09:07:25.289Z</time></trkpt><trkpt lat="42.2251061" lon="13.846139"><ele>926.8</ele><time>2026-05-02T09:07:26.289Z</time></trkpt><trkpt lat="42.2251927" lon="13.8460617"><ele>930.2</ele><time>2026-05-02T09:07:27.289Z</time></trkpt><trkpt lat="42.225282" lon="13.8459975"><ele>933.6</ele><time>2026-05-02T09:07:28.289Z</time></trkpt><trkpt lat="42.2253766" lon="13.8459352"><ele>937.0</ele><time>2026-05-02T09:07:29.289Z</time></trkpt><trkpt lat="42.225467" lon="13.8458729"><ele>939.75</ele><time>2026-05-02T09:07:30.289Z</time></trkpt><trkpt lat="42.2255619" lon="13.8458063"><ele>942.5</ele><time>2026-05-02T09:07:31.289Z</time></trkpt><trkpt lat="42.2256655" lon="13.8457411"><ele>945.25</ele><time>2026-05-02T09:07:32.289Z</time></trkpt><trkpt lat="42.225776" lon="13.8456709"><ele>948.0</ele><time>2026-05-02T09:07:33.289Z</time></trkpt><trkpt lat="42.2258805" lon="13.845601"><ele>948.4</ele><time>2026-05-02T09:07:34.29Z</time></trkpt><trkpt lat="42.2259737" lon="13.8455286"><ele>948.8</ele><time>2026-05-02T09:07:35.289Z</time></trkpt><trkpt lat="42.226066" lon="13.8454469"><ele>949.2</ele><time>2026-05-02T09:07:36.289Z</time></trkpt><trkpt lat="42.2261554" lon="13.8453664"><ele>949.6</ele><time>2026-05-02T09:07:37.289Z</time></trkpt><trkpt lat="42.2262408" lon="13.8452854"><ele>950.0</ele><time>2026-05-02T09:07:38.289Z</time></trkpt><trkpt lat="42.2263254" lon="13.8451902"><ele>952.8</ele><time>2026-05-02T09:07:39.289Z</time></trkpt><trkpt lat="42.2264106" lon="13.8450972"><ele>955.6</ele><time>2026-05-02T09:07:40.29Z</time></trkpt><trkpt lat="42.2264993" lon="13.8450052"><ele>958.4000000000001</ele><time>2026-05-02T09:07:41.289Z</time></trkpt><trkpt lat="42.2265958" lon="13.8449148"><ele>961.2</ele><time>2026-05-02T09:07:42.289Z</time></trkpt><trkpt lat="42.2266802" lon="13.8448281"><ele>964.0</ele><time>2026-05-02T09:07:43.289Z</time></trkpt><trkpt lat="42.2267803" lon="13.844735"><ele>964.0</ele><time>2026-05-02T09:07:44.289Z</time></trkpt><trkpt lat="42.2268964" lon="13.8446311"><ele>964.0</ele><time>2026-05-02T09:07:45.29Z</time></trkpt><trkpt lat="42.227025" lon="13.8445183"><ele>964.0</ele><time>2026-05-02T09:07:46.289Z</time></trkpt><trkpt lat="42.227155" lon="13.8444167"><ele>964.0</ele><time>2026-05-02T09:07:47.289Z</time></trkpt><trkpt lat="42.2272767" lon="13.8443167"><ele>967.0</ele><time>2026-05-02T09:07:48.29Z</time></trkpt><trkpt lat="42.2273883" lon="13.84424"><ele>970.0000000000001</ele><time>2026-05-02T09:07:49.289Z</time></trkpt><trkpt lat="42.2274767" lon="13.8441767"><ele>973.0000000000001</ele><time>2026-05-02T09:07:50.289Z</time></trkpt><trkpt lat="42.2275383" lon="13.8441267"><ele>976.0</ele><time>2026-05-02T09:07:51.289Z</time></trkpt><trkpt lat="42.2276" lon="13.8440683"><ele>979.0</ele><time>2026-05-02T09:07:52.29Z</time></trkpt><trkpt lat="42.2276617" lon="13.8439517"><ele>978.9999999999999</ele><time>2026-05-02T09:07:54.289Z</time></trkpt><trkpt lat="42.2276683" lon="13.8438583"><ele>979.0</ele><time>2026-05-02T09:07:56.289Z</time></trkpt><trkpt lat="42.2276233" lon="13.8437733"><ele>979.0</ele><time>2026-05-02T09:07:58.289Z</time></trkpt><trkpt lat="42.2275417" lon="13.8437417"><ele>979.0</ele><time>2026-05-02T09:08:00.289Z</time></trkpt><trkpt lat="42.2274167" lon="13.8437567"><ele>978.9999999999999</ele><time>2026-05-02T09:08:02.29Z</time></trkpt><trkpt lat="42.2273467" lon="13.8437633"><ele>979.0</ele><time>2026-05-02T09:08:03.289Z</time></trkpt><trkpt lat="42.2272783" lon="13.84377"><ele>979.9999999999999</ele><time>2026-05-02T09:08:04.289Z</time></trkpt><trkpt lat="42.227205" lon="13.8437733"><ele>981.0</ele><time>2026-05-02T09:08:05.289Z</time></trkpt><trkpt lat="42.2271333" lon="13.8437767"><ele>982.0</ele><time>2026-05-02T09:08:06.289Z</time></trkpt><trkpt lat="42.227055" lon="13.84378"><ele>983.0</ele><time>2026-05-02T09:08:07.289Z</time></trkpt><trkpt lat="42.226976" lon="13.8437779"><ele>983.9999999999999</ele><time>2026-05-02T09:08:08.289Z</time></trkpt><trkpt lat="42.2268952" lon="13.8437714"><ele>985.0</ele><time>2026-05-02T09:08:09.289Z</time></trkpt><trkpt lat="42.2268205" lon="13.8437617"><ele>985.0</ele><time>2026-05-02T09:08:10.289Z</time></trkpt><trkpt lat="42.2267563" lon="13.843758"><ele>985.0</ele><time>2026-05-02T09:08:11.289Z</time></trkpt><trkpt lat="42.2266601" lon="13.8437839"><ele>985.0</ele><time>2026-05-02T09:08:13.289Z</time></trkpt><trkpt lat="42.2265393" lon="13.8438401"><ele>985.0</ele><time>2026-05-02T09:08:15.29Z</time></trkpt><trkpt lat="42.2264493" lon="13.8438861"><ele>985.0</ele><time>2026-05-02T09:08:16.289Z</time></trkpt><trkpt lat="42.226334" lon="13.8439476"><ele>986.25</ele><time>2026-05-02T09:08:17.289Z</time></trkpt><trkpt lat="42.2262003" lon="13.8440114"><ele>987.5</ele><time>2026-05-02T09:08:18.29Z</time></trkpt><trkpt lat="42.2260576" lon="13.8440734"><ele>988.75</ele><time>2026-05-02T09:08:19.289Z</time></trkpt><trkpt lat="42.2259213" lon="13.8441295"><ele>990.0</ele><time>2026-05-02T09:08:20.289Z</time></trkpt><trkpt lat="42.2257947" lon="13.8441792"><ele>990.0</ele><time>2026-05-02T09:08:21.289Z</time></trkpt><trkpt lat="42.2256788" lon="13.8442263"><ele>990.0</ele><time>2026-05-02T09:08:22.289Z</time></trkpt><trkpt lat="42.2255832" lon="13.8442734"><ele>990.0</ele><time>2026-05-02T09:08:23.289Z</time></trkpt><trkpt lat="42.2254961" lon="13.8443274"><ele>990.0</ele><time>2026-05-02T09:08:24.289Z</time></trkpt><trkpt lat="42.2254134" lon="13.8443791"><ele>990.0</ele><time>2026-05-02T09:08:25.289Z</time></trkpt><trkpt lat="42.2253344" lon="13.8444352"><ele>986.4</ele><time>2026-05-02T09:08:26.289Z</time></trkpt><trkpt lat="42.2252476" lon="13.8444867"><ele>982.8</ele><time>2026-05-02T09:08:27.289Z</time></trkpt><trkpt lat="42.225148" lon="13.8445222"><ele>979.2</ele><time>2026-05-02T09:08:28.289Z</time></trkpt><trkpt lat="42.2250377" lon="13.8445349"><ele>975.6</ele><time>2026-05-02T09:08:29.29Z</time></trkpt><trkpt lat="42.2249378" lon="13.8445452"><ele>972.0</ele><time>2026-05-02T09:08:30.289Z</time></trkpt><trkpt lat="42.2248493" lon="13.8445453"><ele>969.8</ele><time>2026-05-02T09:08:31.289Z</time></trkpt><trkpt lat="42.2247795" lon="13.8445384"><ele>967.6</ele><time>2026-05-02T09:08:32.289Z</time></trkpt><trkpt lat="42.2247184" lon="13.8445116"><ele>965.3999999999999</ele><time>2026-05-02T09:08:33.289Z</time></trkpt><trkpt lat="42.2246285" lon="13.8444153"><ele>963.1999999999999</ele><time>2026-05-02T09:08:35.289Z</time></trkpt><trkpt lat="42.2246216" lon="13.8442451"><ele>961.0</ele><time>2026-05-02T09:08:37.289Z</time></trkpt><trkpt lat="42.2246552" lon="13.844146"><ele>959.75</ele><time>2026-05-02T09:08:38.289Z</time></trkpt><trkpt lat="42.2247059" lon="13.8440302"><ele>958.5</ele><time>2026-05-02T09:08:39.289Z</time></trkpt><trkpt lat="42.2247658" lon="13.8438972"><ele>957.25</ele><time>2026-05-02T09:08:40.289Z</time></trkpt><trkpt lat="42.2248276" lon="13.8437453"><ele>956.0</ele><time>2026-05-02T09:08:41.289Z</time></trkpt><trkpt lat="42.2248888" lon="13.843598"><ele>959.0</ele><time>2026-05-02T09:08:42.289Z</time></trkpt><trkpt lat="42.2249424" lon="13.8434595"><ele>961.9999999999999</ele><time>2026-05-02T09:08:43.289Z</time></trkpt><trkpt lat="42.2249945" lon="13.8433268"><ele>964.9999999999999</ele><time>2026-05-02T09:08:44.289Z</time></trkpt><trkpt lat="42.2250573" lon="13.8432143"><ele>968.0</ele><time>2026-05-02T09:08:45.289Z</time></trkpt><trkpt lat="42.2251252" lon="13.8431137"><ele>971.0</ele><time>2026-05-02T09:08:46.289Z</time></trkpt><trkpt lat="42.2251992" lon="13.8430229"><ele>971.0</ele><time>2026-05-02T09:08:47.289Z</time></trkpt><trkpt lat="42.2252755" lon="13.8429326"><ele>970.9999999999999</ele><time>2026-05-02T09:08:48.289Z</time></trkpt><trkpt lat="42.2253459" lon="13.8428404"><ele>970.9999999999999</ele><time>2026-05-02T09:08:49.29Z</time></trkpt><trkpt lat="42.2254165" lon="13.8427358"><ele>971.0</ele><time>2026-05-02T09:08:50.289Z</time></trkpt><trkpt lat="42.225491" lon="13.8426221"><ele>971.0</ele><time>2026-05-02T09:08:51.289Z</time></trkpt><trkpt lat="42.2255661" lon="13.8425024"><ele>970.4</ele><time>2026-05-02T09:08:52.289Z</time></trkpt><trkpt lat="42.2256462" lon="13.8423923"><ele>969.8</ele><time>2026-05-02T09:08:53.289Z</time></trkpt><trkpt lat="42.2257273" lon="13.842291"><ele>969.1999999999999</ele><time>2026-05-02T09:08:54.289Z</time></trkpt><trkpt lat="42.2258063" lon="13.8422077"><ele>968.5999999999999</ele><time>2026-05-02T09:08:55.289Z</time></trkpt><trkpt lat="42.2258945" lon="13.8421452"><ele>968.0</ele><time>2026-05-02T09:08:56.29Z</time></trkpt><trkpt lat="42.2259882" lon="13.8420934"><ele>968.0</ele><time>2026-05-02T09:08:57.289Z</time></trkpt><trkpt lat="42.2260796" lon="13.8420496"><ele>968.0</ele><time>2026-05-02T09:08:58.289Z</time></trkpt><trkpt lat="42.2261683" lon="13.842026"><ele>968.0</ele><time>2026-05-02T09:08:59.289Z</time></trkpt><trkpt lat="42.2262579" lon="13.8420225"><ele>968.0</ele><time>2026-05-02T09:09:00.289Z</time></trkpt><trkpt lat="42.2263566" lon="13.8420308"><ele>968.0</ele><time>2026-05-02T09:09:01.289Z</time></trkpt><trkpt lat="42.2264653" lon="13.8420438"><ele>969.0</ele><time>2026-05-02T09:09:02.289Z</time></trkpt><trkpt lat="42.2265877" lon="13.8420465"><ele>970.0</ele><time>2026-05-02T09:09:03.289Z</time></trkpt><trkpt lat="42.2267257" lon="13.8420377"><ele>971.0</ele><time>2026-05-02T09:09:04.289Z</time></trkpt><trkpt lat="42.2268779" lon="13.8420289"><ele>972.0</ele><time>2026-05-02T09:09:05.29Z</time></trkpt><trkpt lat="42.2270367" lon="13.842017"><ele>972.0</ele><time>2026-05-02T09:09:06.289Z</time></trkpt><trkpt lat="42.2271994" lon="13.8420078"><ele>972.0</ele><time>2026-05-02T09:09:07.29Z</time></trkpt><trkpt lat="42.2273472" lon="13.8419937"><ele>972.0</ele><time>2026-05-02T09:09:08.289Z</time></trkpt><trkpt lat="42.2274801" lon="13.8419729"><ele>972.0</ele><time>2026-05-02T09:09:09.289Z</time></trkpt><trkpt lat="42.2276098" lon="13.8419519"><ele>970.0</ele><time>2026-05-02T09:09:10.29Z</time></trkpt><trkpt lat="42.2277365" lon="13.8419297"><ele>968.0</ele><time>2026-05-02T09:09:11.289Z</time></trkpt><trkpt lat="42.2278612" lon="13.8419067"><ele>966.0</ele><time>2026-05-02T09:09:12.289Z</time></trkpt><trkpt lat="42.2279838" lon="13.8418789"><ele>964.0</ele><time>2026-05-02T09:09:13.289Z</time></trkpt><trkpt lat="42.2281001" lon="13.8418459"><ele>965.0</ele><time>2026-05-02T09:09:14.289Z</time></trkpt><trkpt lat="42.2282106" lon="13.8418025"><ele>966.0000000000001</ele><time>2026-05-02T09:09:15.289Z</time></trkpt><trkpt lat="42.2283126" lon="13.8417531"><ele>967.0000000000001</ele><time>2026-05-02T09:09:16.289Z</time></trkpt><trkpt lat="42.228401" lon="13.8417025"><ele>968.0</ele><time>2026-05-02T09:09:17.289Z</time></trkpt><trkpt lat="42.2284791" lon="13.8416486"><ele>969.0</ele><time>2026-05-02T09:09:18.289Z</time></trkpt><trkpt lat="42.2285527" lon="13.8415964"><ele>961.6</ele><time>2026-05-02T09:09:19.29Z</time></trkpt><trkpt lat="42.2286215" lon="13.8415261"><ele>954.2</ele><time>2026-05-02T09:09:20.289Z</time></trkpt><trkpt lat="42.2286873" lon="13.8414377"><ele>946.8000000000001</ele><time>2026-05-02T09:09:21.289Z</time></trkpt><trkpt lat="42.2287469" lon="13.8413412"><ele>939.4000000000001</ele><time>2026-05-02T09:09:22.289Z</time></trkpt><trkpt lat="42.2288007" lon="13.8412307"><ele>932.0</ele><time>2026-05-02T09:09:23.289Z</time></trkpt><trkpt lat="42.2288468" lon="13.8411043"><ele>933.25</ele><time>2026-05-02T09:09:24.289Z</time></trkpt><trkpt lat="42.2288897" lon="13.8409653"><ele>934.5</ele><time>2026-05-02T09:09:25.289Z</time></trkpt><trkpt lat="42.2289348" lon="13.8408193"><ele>935.75</ele><time>2026-05-02T09:09:26.289Z</time></trkpt><trkpt lat="42.2289812" lon="13.8406663"><ele>937.0</ele><time>2026-05-02T09:09:27.289Z</time></trkpt><trkpt lat="42.2290348" lon="13.8405055"><ele>937.0</ele><time>2026-05-02T09:09:28.289Z</time></trkpt><trkpt lat="42.2290829" lon="13.8403502"><ele>937.0</ele><time>2026-05-02T09:09:29.289Z</time></trkpt><trkpt lat="42.22913" lon="13.8402132"><ele>937.0</ele><time>2026-05-02T09:09:30.289Z</time></trkpt><trkpt lat="42.2291724" lon="13.8400805"><ele>937.0</ele><time>2026-05-02T09:09:31.289Z</time></trkpt><trkpt lat="42.2292204" lon="13.8399534"><ele>937.0</ele><time>2026-05-02T09:09:32.289Z</time></trkpt><trkpt lat="42.2292696" lon="13.83983"><ele>932.4000000000001</ele><time>2026-05-02T09:09:33.289Z</time></trkpt><trkpt lat="42.2293182" lon="13.8397156"><ele>927.8000000000001</ele><time>2026-05-02T09:09:34.29Z</time></trkpt><trkpt lat="42.2293761" lon="13.8395944"><ele>923.2</ele><time>2026-05-02T09:09:35.289Z</time></trkpt><trkpt lat="42.2294407" lon="13.8394649"><ele>918.6</ele><time>2026-05-02T09:09:36.289Z</time></trkpt><trkpt lat="42.2295147" lon="13.8393377"><ele>914.0</ele><time>2026-05-02T09:09:37.289Z</time></trkpt><trkpt lat="42.2295909" lon="13.8392151"><ele>918.0</ele><time>2026-05-02T09:09:38.289Z</time></trkpt><trkpt lat="42.2296706" lon="13.8390946"><ele>922.0</ele><time>2026-05-02T09:09:39.289Z</time></trkpt><trkpt lat="42.2297495" lon="13.8389783"><ele>926.0</ele><time>2026-05-02T09:09:40.289Z</time></trkpt><trkpt lat="42.2298216" lon="13.8388682"><ele>930.0</ele><time>2026-05-02T09:09:41.289Z</time></trkpt><trkpt lat="42.2298867" lon="13.83875"><ele>930.0</ele><time>2026-05-02T09:09:42.289Z</time></trkpt><trkpt lat="42.2299499" lon="13.8386331"><ele>930.0</ele><time>2026-05-02T09:09:43.289Z</time></trkpt><trkpt lat="42.2300136" lon="13.8385189"><ele>930.0</ele><time>2026-05-02T09:09:44.289Z</time></trkpt><trkpt lat="42.2300762" lon="13.8384005"><ele>930.0</ele><time>2026-05-02T09:09:45.289Z</time></trkpt><trkpt lat="42.2301324" lon="13.8382842"><ele>930.0</ele><time>2026-05-02T09:09:46.289Z</time></trkpt><trkpt lat="42.2301833" lon="13.8381701"><ele>923.2</ele><time>2026-05-02T09:09:47.289Z</time></trkpt><trkpt lat="42.2302367" lon="13.8380617"><ele>916.4</ele><time>2026-05-02T09:09:48.289Z</time></trkpt><trkpt lat="42.23029" lon="13.8379517"><ele>909.5999999999999</ele><time>2026-05-02T09:09:49.289Z</time></trkpt><trkpt lat="42.23035" lon="13.837855"><ele>902.8</ele><time>2026-05-02T09:09:50.289Z</time></trkpt><trkpt lat="42.230425" lon="13.83777"><ele>896.0</ele><time>2026-05-02T09:09:51.289Z</time></trkpt><trkpt lat="42.2305083" lon="13.8376983"><ele>895.0000000000001</ele><time>2026-05-02T09:09:52.289Z</time></trkpt><trkpt lat="42.2305833" lon="13.8376267"><ele>894.0</ele><time>2026-05-02T09:09:53.289Z</time></trkpt><trkpt lat="42.2306617" lon="13.8375633"><ele>893.0</ele><time>2026-05-02T09:09:54.289Z</time></trkpt><trkpt lat="42.2307383" lon="13.8375167"><ele>892.0</ele><time>2026-05-02T09:09:55.289Z</time></trkpt><trkpt lat="42.2308083" lon="13.837465"><ele>891.0000000000001</ele><time>2026-05-02T09:09:56.289Z</time></trkpt><trkpt lat="42.2308783" lon="13.8374133"><ele>890.0</ele><time>2026-05-02T09:09:57.289Z</time></trkpt><trkpt lat="42.2309583" lon="13.8373633"><ele>890.0</ele><time>2026-05-02T09:09:58.289Z</time></trkpt><trkpt lat="42.2310467" lon="13.837325"><ele>890.0</ele><time>2026-05-02T09:09:59.289Z</time></trkpt><trkpt lat="42.2311417" lon="13.8372967"><ele>890.0</ele><time>2026-05-02T09:10:00.289Z</time></trkpt><trkpt lat="42.2312383" lon="13.837265"><ele>890.0</ele><time>2026-05-02T09:10:01.29Z</time></trkpt><trkpt lat="42.23133" lon="13.8372267"><ele>890.0</ele><time>2026-05-02T09:10:02.289Z</time></trkpt><trkpt lat="42.2314317" lon="13.8372"><ele>892.0</ele><time>2026-05-02T09:10:03.289Z</time></trkpt><trkpt lat="42.2315283" lon="13.83718"><ele>894.0</ele><time>2026-05-02T09:10:04.289Z</time></trkpt><trkpt lat="42.231625" lon="13.8371583"><ele>896.0</ele><time>2026-05-02T09:10:05.289Z</time></trkpt><trkpt lat="42.2317217" lon="13.8371417"><ele>898.0</ele><time>2026-05-02T09:10:06.289Z</time></trkpt><trkpt lat="42.2318183" lon="13.8371233"><ele>900.0</ele><time>2026-05-02T09:10:07.29Z</time></trkpt><trkpt lat="42.23191" lon="13.8370933"><ele>900.0</ele><time>2026-05-02T09:10:08.289Z</time></trkpt><trkpt lat="42.232005" lon="13.8370733"><ele>900.0</ele><time>2026-05-02T09:10:09.29Z</time></trkpt><trkpt lat="42.232095" lon="13.83706"><ele>900.0</ele><time>2026-05-02T09:10:10.289Z</time></trkpt><trkpt lat="42.2321783" lon="13.8370567"><ele>900.0</ele><time>2026-05-02T09:10:11.29Z</time></trkpt><trkpt lat="42.2322667" lon="13.8370683"><ele>900.0</ele><time>2026-05-02T09:10:12.289Z</time></trkpt><trkpt lat="42.23234" lon="13.8370867"><ele>900.0</ele><time>2026-05-02T09:10:13.289Z</time></trkpt><trkpt lat="42.23245" lon="13.8371233"><ele>900.0</ele><time>2026-05-02T09:10:15.289Z</time></trkpt><trkpt lat="42.23253" lon="13.83711"><ele>900.0</ele><time>2026-05-02T09:10:17.289Z</time></trkpt><trkpt lat="42.23253" lon="13.8370167"><ele>900.0</ele><time>2026-05-02T09:10:20.289Z</time></trkpt><trkpt lat="42.232405" lon="13.83695"><ele>900.0</ele><time>2026-05-02T09:10:22.289Z</time></trkpt><trkpt lat="42.2323167" lon="13.8369283"><ele>900.0</ele><time>2026-05-02T09:10:23.289Z</time></trkpt><trkpt lat="42.2322167" lon="13.83689"><ele>900.0</ele><time>2026-05-02T09:10:24.289Z</time></trkpt><trkpt lat="42.2321117" lon="13.8368533"><ele>900.0</ele><time>2026-05-02T09:10:25.289Z</time></trkpt><trkpt lat="42.2320033" lon="13.8368167"><ele>900.0</ele><time>2026-05-02T09:10:26.289Z</time></trkpt><trkpt lat="42.231885" lon="13.8367867"><ele>900.0</ele><time>2026-05-02T09:10:27.289Z</time></trkpt><trkpt lat="42.231755" lon="13.8367483"><ele>890.5</ele><time>2026-05-02T09:10:28.289Z</time></trkpt><trkpt lat="42.2316283" lon="13.8367117"><ele>881.0</ele><time>2026-05-02T09:10:29.289Z</time></trkpt><trkpt lat="42.23151" lon="13.8366867"><ele>871.5</ele><time>2026-05-02T09:10:30.29Z</time></trkpt><trkpt lat="42.2313933" lon="13.83666"><ele>862.0</ele><time>2026-05-02T09:10:31.289Z</time></trkpt><trkpt lat="42.2312783" lon="13.8366367"><ele>859.75</ele><time>2026-05-02T09:10:32.289Z</time></trkpt><trkpt lat="42.2311683" lon="13.8366183"><ele>857.5</ele><time>2026-05-02T09:10:33.29Z</time></trkpt><trkpt lat="42.2310583" lon="13.8366217"><ele>855.25</ele><time>2026-05-02T09:10:34.289Z</time></trkpt><trkpt lat="42.2309417" lon="13.8366317"><ele>853.0</ele><time>2026-05-02T09:10:35.289Z</time></trkpt><trkpt lat="42.2308217" lon="13.8366583"><ele>853.0</ele><time>2026-05-02T09:10:36.289Z</time></trkpt><trkpt lat="42.2306867" lon="13.836705"><ele>853.0</ele><time>2026-05-02T09:10:37.289Z</time></trkpt><trkpt lat="42.2305433" lon="13.8367767"><ele>853.0</ele><time>2026-05-02T09:10:38.289Z</time></trkpt><trkpt lat="42.2303917" lon="13.8368483"><ele>856.3333333333333</ele><time>2026-05-02T09:10:39.289Z</time></trkpt><trkpt lat="42.2302433" lon="13.8369183"><ele>859.6666666666667</ele><time>2026-05-02T09:10:40.289Z</time></trkpt><trkpt lat="42.2301" lon="13.8370017"><ele>863.0</ele><time>2026-05-02T09:10:41.289Z</time></trkpt><trkpt lat="42.229955" lon="13.83708"><ele>856.75</ele><time>2026-05-02T09:10:42.289Z</time></trkpt><trkpt lat="42.2298083" lon="13.8371583"><ele>850.5</ele><time>2026-05-02T09:10:43.289Z</time></trkpt><trkpt lat="42.2296683" lon="13.8372333"><ele>844.25</ele><time>2026-05-02T09:10:44.289Z</time></trkpt><trkpt lat="42.2295367" lon="13.8372967"><ele>838.0</ele><time>2026-05-02T09:10:45.289Z</time></trkpt><trkpt lat="42.22941" lon="13.8373617"><ele>838.0</ele><time>2026-05-02T09:10:46.289Z</time></trkpt><trkpt lat="42.229275" lon="13.83743"><ele>838.0</ele><time>2026-05-02T09:10:47.289Z</time></trkpt><trkpt lat="42.2291483" lon="13.8375017"><ele>838.0</ele><time>2026-05-02T09:10:48.289Z</time></trkpt><trkpt lat="42.229015" lon="13.8375733"><ele>838.0</ele><time>2026-05-02T09:10:49.289Z</time></trkpt><trkpt lat="42.2288967" lon="13.83763"><ele>840.6666666666666</ele><time>2026-05-02T09:10:50.289Z</time></trkpt><trkpt lat="42.2288033" lon="13.8376883"><ele>843.3333333333333</ele><time>2026-05-02T09:10:51.289Z</time></trkpt><trkpt lat="42.2287217" lon="13.83774"><ele>846.0</ele><time>2026-05-02T09:10:52.289Z</time></trkpt><trkpt lat="42.2286567" lon="13.8377767"><ele>848.6666666666667</ele><time>2026-05-02T09:10:53.289Z</time></trkpt><trkpt lat="42.2285967" lon="13.837805"><ele>851.3333333333334</ele><time>2026-05-02T09:10:54.289Z</time></trkpt><trkpt lat="42.2285183" lon="13.8377983"><ele>854.0</ele><time>2026-05-02T09:10:56.289Z</time></trkpt><trkpt lat="42.228535" lon="13.83771"><ele>849.4000000000001</ele><time>2026-05-02T09:10:58.289Z</time></trkpt><trkpt lat="42.228655" lon="13.8376083"><ele>844.8000000000001</ele><time>2026-05-02T09:11:00.289Z</time></trkpt><trkpt lat="42.22874" lon="13.8375433"><ele>840.2</ele><time>2026-05-02T09:11:01.289Z</time></trkpt><trkpt lat="42.228825" lon="13.8374783"><ele>835.5999999999999</ele><time>2026-05-02T09:11:02.289Z</time></trkpt><trkpt lat="42.2288983" lon="13.8374"><ele>831.0</ele><time>2026-05-02T09:11:03.289Z</time></trkpt><trkpt lat="42.2289717" lon="13.8373283"><ele>832.4</ele><time>2026-05-02T09:11:04.289Z</time></trkpt><trkpt lat="42.2290533" lon="13.8372483"><ele>833.8</ele><time>2026-05-02T09:11:05.289Z</time></trkpt><trkpt lat="42.2291417" lon="13.83716"><ele>835.1999999999999</ele><time>2026-05-02T09:11:06.289Z</time></trkpt><trkpt lat="42.2292267" lon="13.8370817"><ele>836.5999999999999</ele><time>2026-05-02T09:11:07.289Z</time></trkpt><trkpt lat="42.2293167" lon="13.8370033"><ele>838.0</ele><time>2026-05-02T09:11:08.289Z</time></trkpt><trkpt lat="42.22941" lon="13.8369217"><ele>838.0</ele><time>2026-05-02T09:11:09.289Z</time></trkpt><trkpt lat="42.2295033" lon="13.8368433"><ele>838.0</ele><time>2026-05-02T09:11:10.289Z</time></trkpt><trkpt lat="42.2296017" lon="13.8367467"><ele>838.0</ele><time>2026-05-02T09:11:11.289Z</time></trkpt><trkpt lat="42.2297" lon="13.8366367"><ele>838.0</ele><time>2026-05-02T09:11:12.289Z</time></trkpt><trkpt lat="42.2297983" lon="13.8365167"><ele>836.0</ele><time>2026-05-02T09:11:13.289Z</time></trkpt><trkpt lat="42.2298917" lon="13.83639"><ele>834.0</ele><time>2026-05-02T09:11:14.289Z</time></trkpt><trkpt lat="42.2299867" lon="13.836275"><ele>832.0</ele><time>2026-05-02T09:11:15.289Z</time></trkpt><trkpt lat="42.23008" lon="13.8361717"><ele>830.0</ele><time>2026-05-02T09:11:16.289Z</time></trkpt><trkpt lat="42.230175" lon="13.836055"><ele>822.5</ele><time>2026-05-02T09:11:17.289Z</time></trkpt><trkpt lat="42.23027" lon="13.8359433"><ele>815.0</ele><time>2026-05-02T09:11:18.289Z</time></trkpt><trkpt lat="42.2303683" lon="13.8358417"><ele>807.5</ele><time>2026-05-02T09:11:19.289Z</time></trkpt><trkpt lat="42.2304633" lon="13.835745"><ele>800.0</ele><time>2026-05-02T09:11:20.289Z</time></trkpt><trkpt lat="42.2305617" lon="13.8356417"><ele>805.25</ele><time>2026-05-02T09:11:21.289Z</time></trkpt><trkpt lat="42.2306633" lon="13.8355533"><ele>810.5</ele><time>2026-05-02T09:11:22.289Z</time></trkpt><trkpt lat="42.2307617" lon="13.83548"><ele>815.75</ele><time>2026-05-02T09:11:23.289Z</time></trkpt><trkpt lat="42.2308583" lon="13.8354083"><ele>821.0</ele><time>2026-05-02T09:11:24.289Z</time></trkpt><trkpt lat="42.2309567" lon="13.8353433"><ele>821.0</ele><time>2026-05-02T09:11:25.289Z</time></trkpt><trkpt lat="42.2310533" lon="13.8352967"><ele>821.0</ele><time>2026-05-02T09:11:26.289Z</time></trkpt><trkpt lat="42.2311633" lon="13.835265"><ele>821.0</ele><time>2026-05-02T09:11:27.289Z</time></trkpt><trkpt lat="42.2312767" lon="13.835235"><ele>821.0</ele><time>2026-05-02T09:11:28.289Z</time></trkpt><trkpt lat="42.231395" lon="13.8352067"><ele>823.0</ele><time>2026-05-02T09:11:29.29Z</time></trkpt><trkpt lat="42.231505" lon="13.835185"><ele>825.0</ele><time>2026-05-02T09:11:30.289Z</time></trkpt><trkpt lat="42.2316067" lon="13.83517"><ele>827.0</ele><time>2026-05-02T09:11:31.29Z</time></trkpt><trkpt lat="42.2316933" lon="13.83515"><ele>829.0</ele><time>2026-05-02T09:11:32.29Z</time></trkpt><trkpt lat="42.2317717" lon="13.8351383"><ele>831.0</ele><time>2026-05-02T09:11:33.289Z</time></trkpt><trkpt lat="42.2318417" lon="13.8351317"><ele>826.3333333333334</ele><time>2026-05-02T09:11:34.289Z</time></trkpt><trkpt lat="42.2319467" lon="13.8350867"><ele>821.6666666666667</ele><time>2026-05-02T09:11:36.289Z</time></trkpt><trkpt lat="42.2319567" lon="13.8349983"><ele>817.0</ele><time>2026-05-02T09:11:38.289Z</time></trkpt><trkpt lat="42.2318817" lon="13.8349317"><ele>812.3333333333334</ele><time>2026-05-02T09:11:40.289Z</time></trkpt><trkpt lat="42.231815" lon="13.83493"><ele>807.6666666666667</ele><time>2026-05-02T09:11:41.29Z</time></trkpt><trkpt lat="42.2317383" lon="13.8349383"><ele>803.0</ele><time>2026-05-02T09:11:42.289Z</time></trkpt><trkpt lat="42.231645" lon="13.83495"><ele>803.0</ele><time>2026-05-02T09:11:43.289Z</time></trkpt><trkpt lat="42.2315433" lon="13.8349533"><ele>803.0</ele><time>2026-05-02T09:11:44.289Z</time></trkpt><trkpt lat="42.231435" lon="13.8349367"><ele>803.0</ele><time>2026-05-02T09:11:45.289Z</time></trkpt><trkpt lat="42.2313233" lon="13.834915"><ele>803.0</ele><time>2026-05-02T09:11:46.289Z</time></trkpt><trkpt lat="42.2312217" lon="13.83489"><ele>803.0</ele><time>2026-05-02T09:11:47.289Z</time></trkpt><trkpt lat="42.2311233" lon="13.83487"><ele>800.8</ele><time>2026-05-02T09:11:48.289Z</time></trkpt><trkpt lat="42.2310317" lon="13.83486"><ele>798.5999999999999</ele><time>2026-05-02T09:11:49.289Z</time></trkpt><trkpt lat="42.2309333" lon="13.834875"><ele>796.4000000000001</ele><time>2026-05-02T09:11:50.29Z</time></trkpt><trkpt lat="42.2308267" lon="13.8348933"><ele>794.2</ele><time>2026-05-02T09:11:51.29Z</time></trkpt><trkpt lat="42.2307117" lon="13.83492"><ele>792.0</ele><time>2026-05-02T09:11:52.289Z</time></trkpt><trkpt lat="42.2305867" lon="13.8349417"><ele>788.75</ele><time>2026-05-02T09:11:53.289Z</time></trkpt><trkpt lat="42.2304633" lon="13.8349733"><ele>785.5</ele><time>2026-05-02T09:11:54.289Z</time></trkpt><trkpt lat="42.2303483" lon="13.8350117"><ele>782.25</ele><time>2026-05-02T09:11:55.29Z</time></trkpt><trkpt lat="42.2302333" lon="13.8350517"><ele>779.0</ele><time>2026-05-02T09:11:56.289Z</time></trkpt><trkpt lat="42.2301217" lon="13.8350967"><ele>779.25</ele><time>2026-05-02T09:11:57.289Z</time></trkpt><trkpt lat="42.2300067" lon="13.8351417"><ele>779.5</ele><time>2026-05-02T09:11:58.289Z</time></trkpt><trkpt lat="42.2298917" lon="13.8351883"><ele>779.75</ele><time>2026-05-02T09:11:59.289Z</time></trkpt><trkpt lat="42.229775" lon="13.8352333"><ele>780.0</ele><time>2026-05-02T09:12:00.289Z</time></trkpt><trkpt lat="42.229655" lon="13.83528"><ele>780.0</ele><time>2026-05-02T09:12:01.289Z</time></trkpt><trkpt lat="42.2295367" lon="13.83533"><ele>780.0</ele><time>2026-05-02T09:12:02.29Z</time></trkpt><trkpt lat="42.2294233" lon="13.8353833"><ele>780.0</ele><time>2026-05-02T09:12:03.289Z</time></trkpt><trkpt lat="42.229315" lon="13.83544"><ele>780.0</ele><time>2026-05-02T09:12:04.289Z</time></trkpt><trkpt lat="42.229205" lon="13.8355117"><ele>780.0</ele><time>2026-05-02T09:12:05.289Z</time></trkpt><trkpt lat="42.229105" lon="13.8355817"><ele>780.0</ele><time>2026-05-02T09:12:06.289Z</time></trkpt><trkpt lat="42.2290067" lon="13.83565"><ele>780.0</ele><time>2026-05-02T09:12:07.289Z</time></trkpt><trkpt lat="42.2289133" lon="13.8357217"><ele>780.0</ele><time>2026-05-02T09:12:08.289Z</time></trkpt><trkpt lat="42.2288167" lon="13.8357767"><ele>780.0</ele><time>2026-05-02T09:12:09.289Z</time></trkpt><trkpt lat="42.2287267" lon="13.8358283"><ele>778.1666666666666</ele><time>2026-05-02T09:12:10.289Z</time></trkpt><trkpt lat="42.22864" lon="13.8358767"><ele>776.3333333333333</ele><time>2026-05-02T09:12:11.289Z</time></trkpt><trkpt lat="42.228555" lon="13.8359317"><ele>774.5</ele><time>2026-05-02T09:12:12.289Z</time></trkpt><trkpt lat="42.228475" lon="13.8359817"><ele>772.6666666666666</ele><time>2026-05-02T09:12:13.289Z</time></trkpt><trkpt lat="42.228395" lon="13.836025"><ele>770.8333333333333</ele><time>2026-05-02T09:12:14.289Z</time></trkpt><trkpt lat="42.2283317" lon="13.83604"><ele>769.0</ele><time>2026-05-02T09:12:15.289Z</time></trkpt><trkpt lat="42.22826" lon="13.8360317"><ele>770.0</ele><time>2026-05-02T09:12:16.289Z</time></trkpt><trkpt lat="42.2281767" lon="13.835985"><ele>771.0</ele><time>2026-05-02T09:12:17.29Z</time></trkpt><trkpt lat="42.2280733" lon="13.8359167"><ele>772.0</ele><time>2026-05-02T09:12:18.29Z</time></trkpt><trkpt lat="42.2279517" lon="13.8358183"><ele>773.0</ele><time>2026-05-02T09:12:19.289Z</time></trkpt><trkpt lat="42.22782" lon="13.8357367"><ele>773.0</ele><time>2026-05-02T09:12:20.289Z</time></trkpt><trkpt lat="42.227695" lon="13.835655"><ele>773.0</ele><time>2026-05-02T09:12:21.289Z</time></trkpt><trkpt lat="42.2275767" lon="13.8355667"><ele>773.0</ele><time>2026-05-02T09:12:22.289Z</time></trkpt><trkpt lat="42.22746" lon="13.8354933"><ele>773.0</ele><time>2026-05-02T09:12:23.289Z</time></trkpt><trkpt lat="42.227355" lon="13.8354367"><ele>772.0</ele><time>2026-05-02T09:12:24.289Z</time></trkpt><trkpt lat="42.22726" lon="13.8353967"><ele>771.0</ele><time>2026-05-02T09:12:25.289Z</time></trkpt><trkpt lat="42.2271783" lon="13.8353633"><ele>770.0</ele><time>2026-05-02T09:12:26.289Z</time></trkpt><trkpt lat="42.2271017" lon="13.8353333"><ele>769.0</ele><time>2026-05-02T09:12:27.289Z</time></trkpt><trkpt lat="42.2269883" lon="13.8353083"><ele>768.0</ele><time>2026-05-02T09:12:29.289Z</time></trkpt><trkpt lat="42.226865" lon="13.8353283"><ele>768.0</ele><time>2026-05-02T09:12:31.289Z</time></trkpt><trkpt lat="42.2267783" lon="13.83535"><ele>768.0</ele><time>2026-05-02T09:12:32.289Z</time></trkpt><trkpt lat="42.226685" lon="13.8353817"><ele>768.0</ele><time>2026-05-02T09:12:33.289Z</time></trkpt><trkpt lat="42.2266017" lon="13.8354067"><ele>768.0</ele><time>2026-05-02T09:12:34.29Z</time></trkpt><trkpt lat="42.2265217" lon="13.8354383"><ele>768.0</ele><time>2026-05-02T09:12:35.289Z</time></trkpt><trkpt lat="42.226435" lon="13.8354683"><ele>768.0</ele><time>2026-05-02T09:12:36.289Z</time></trkpt><trkpt lat="42.2263567" lon="13.8355"><ele>765.0</ele><time>2026-05-02T09:12:37.289Z</time></trkpt><trkpt lat="42.22628" lon="13.8355333"><ele>762.0</ele><time>2026-05-02T09:12:38.289Z</time></trkpt><trkpt lat="42.226195" lon="13.8355667"><ele>759.0</ele><time>2026-05-02T09:12:39.289Z</time></trkpt><trkpt lat="42.22611" lon="13.8355983"><ele>756.0</ele><time>2026-05-02T09:12:40.289Z</time></trkpt><trkpt lat="42.2260267" lon="13.8356367"><ele>753.0</ele><time>2026-05-02T09:12:41.289Z</time></trkpt><trkpt lat="42.2259417" lon="13.8356733"><ele>750.0</ele><time>2026-05-02T09:12:42.29Z</time></trkpt><trkpt lat="42.2258433" lon="13.835725"><ele>750.0</ele><time>2026-05-02T09:12:43.289Z</time></trkpt><trkpt lat="42.2257517" lon="13.835775"><ele>750.0</ele><time>2026-05-02T09:12:44.289Z</time></trkpt><trkpt lat="42.2256583" lon="13.8358217"><ele>750.0</ele><time>2026-05-02T09:12:45.289Z</time></trkpt><trkpt lat="42.2255733" lon="13.8358667"><ele>750.0</ele><time>2026-05-02T09:12:46.29Z</time></trkpt><trkpt lat="42.22549" lon="13.8359217"><ele>750.0</ele><time>2026-05-02T09:12:47.289Z</time></trkpt><trkpt lat="42.2253983" lon="13.83599"><ele>748.0</ele><time>2026-05-02T09:12:48.289Z</time></trkpt><trkpt lat="42.2253" lon="13.8360783"><ele>746.0</ele><time>2026-05-02T09:12:49.289Z</time></trkpt><trkpt lat="42.2251883" lon="13.83618"><ele>744.0</ele><time>2026-05-02T09:12:50.29Z</time></trkpt><trkpt lat="42.2250733" lon="13.836285"><ele>742.0</ele><time>2026-05-02T09:12:51.289Z</time></trkpt><trkpt lat="42.224965" lon="13.836375"><ele>742.0</ele><time>2026-05-02T09:12:52.289Z</time></trkpt><trkpt lat="42.224865" lon="13.8364583"><ele>742.0</ele><time>2026-05-02T09:12:53.289Z</time></trkpt><trkpt lat="42.22477" lon="13.8365467"><ele>742.0</ele><time>2026-05-02T09:12:54.289Z</time></trkpt><trkpt lat="42.22469" lon="13.836645"><ele>742.0</ele><time>2026-05-02T09:12:55.289Z</time></trkpt><trkpt lat="42.2246167" lon="13.8367517"><ele>742.0</ele><time>2026-05-02T09:12:56.289Z</time></trkpt><trkpt lat="42.2245467" lon="13.83688"><ele>737.5</ele><time>2026-05-02T09:12:57.289Z</time></trkpt><trkpt lat="42.2244867" lon="13.8370233"><ele>733.0</ele><time>2026-05-02T09:12:58.29Z</time></trkpt><trkpt lat="42.22441" lon="13.837155"><ele>728.5</ele><time>2026-05-02T09:12:59.289Z</time></trkpt><trkpt lat="42.2243267" lon="13.837275"><ele>724.0</ele><time>2026-05-02T09:13:00.289Z</time></trkpt><trkpt lat="42.224245" lon="13.83739"><ele>724.0</ele><time>2026-05-02T09:13:01.289Z</time></trkpt><trkpt lat="42.2241817" lon="13.8375083"><ele>724.0</ele><time>2026-05-02T09:13:02.289Z</time></trkpt><trkpt lat="42.2241233" lon="13.8376333"><ele>724.0</ele><time>2026-05-02T09:13:03.289Z</time></trkpt><trkpt lat="42.2240683" lon="13.8377567"><ele>724.0</ele><time>2026-05-02T09:13:04.289Z</time></trkpt><trkpt lat="42.22402" lon="13.8378783"><ele>724.0</ele><time>2026-05-02T09:13:05.289Z</time></trkpt><trkpt lat="42.2239617" lon="13.8379833"><ele>721.1666666666667</ele><time>2026-05-02T09:13:06.289Z</time></trkpt><trkpt lat="42.2238983" lon="13.8380717"><ele>718.3333333333334</ele><time>2026-05-02T09:13:07.289Z</time></trkpt><trkpt lat="42.2238317" lon="13.83815"><ele>715.5</ele><time>2026-05-02T09:13:08.289Z</time></trkpt><trkpt lat="42.2237617" lon="13.8382233"><ele>712.6666666666666</ele><time>2026-05-02T09:13:09.289Z</time></trkpt><trkpt lat="42.22369" lon="13.8382833"><ele>709.8333333333333</ele><time>2026-05-02T09:13:10.29Z</time></trkpt><trkpt lat="42.2236133" lon="13.838345"><ele>707.0</ele><time>2026-05-02T09:13:11.289Z</time></trkpt><trkpt lat="42.2235267" lon="13.83841"><ele>707.0</ele><time>2026-05-02T09:13:12.289Z</time></trkpt><trkpt lat="42.2234383" lon="13.8384617"><ele>707.0</ele><time>2026-05-02T09:13:13.289Z</time></trkpt><trkpt lat="42.2233383" lon="13.838515"><ele>707.0</ele><time>2026-05-02T09:13:14.29Z</time></trkpt><trkpt lat="42.22322" lon="13.838565"><ele>707.0</ele><time>2026-05-02T09:13:15.289Z</time></trkpt><trkpt lat="42.22309" lon="13.8386167"><ele>707.75</ele><time>2026-05-02T09:13:16.289Z</time></trkpt><trkpt lat="42.22295" lon="13.8386667"><ele>708.5</ele><time>2026-05-02T09:13:17.29Z</time></trkpt><trkpt lat="42.2228217" lon="13.8387233"><ele>709.25</ele><time>2026-05-02T09:13:18.289Z</time></trkpt><trkpt lat="42.222705" lon="13.8387667"><ele>710.0</ele><time>2026-05-02T09:13:19.289Z</time></trkpt><trkpt lat="42.2225983" lon="13.8388183"><ele>710.0</ele><time>2026-05-02T09:13:20.29Z</time></trkpt><trkpt lat="42.2224967" lon="13.838875"><ele>710.0</ele><time>2026-05-02T09:13:21.289Z</time></trkpt><trkpt lat="42.2224083" lon="13.83893"><ele>710.0</ele><time>2026-05-02T09:13:22.289Z</time></trkpt><trkpt lat="42.22232" lon="13.8389933"><ele>710.0</ele><time>2026-05-02T09:13:23.29Z</time></trkpt><trkpt lat="42.2222433" lon="13.8390667"><ele>710.0</ele><time>2026-05-02T09:13:24.289Z</time></trkpt><trkpt lat="42.2221717" lon="13.8391367"><ele>705.8333333333333</ele><time>2026-05-02T09:13:25.289Z</time></trkpt><trkpt lat="42.222125" lon="13.8392"><ele>701.6666666666666</ele><time>2026-05-02T09:13:26.289Z</time></trkpt><trkpt lat="42.2220333" lon="13.839285"><ele>697.5</ele><time>2026-05-02T09:13:28.289Z</time></trkpt><trkpt lat="42.221975" lon="13.83922"><ele>693.3333333333334</ele><time>2026-05-02T09:13:30.289Z</time></trkpt><trkpt lat="42.22198" lon="13.839125"><ele>689.1666666666667</ele><time>2026-05-02T09:13:31.289Z</time></trkpt><trkpt lat="42.2220083" lon="13.8389983"><ele>685.0</ele><time>2026-05-02T09:13:32.289Z</time></trkpt><trkpt lat="42.2220633" lon="13.8388633"><ele>685.0</ele><time>2026-05-02T09:13:33.289Z</time></trkpt><trkpt lat="42.2221217" lon="13.8387283"><ele>685.0</ele><time>2026-05-02T09:13:34.289Z</time></trkpt><trkpt lat="42.2221733" lon="13.8385967"><ele>685.0</ele><time>2026-05-02T09:13:35.289Z</time></trkpt><trkpt lat="42.2222283" lon="13.838475"><ele>685.0</ele><time>2026-05-02T09:13:36.289Z</time></trkpt><trkpt lat="42.2222867" lon="13.8383567"><ele>685.0</ele><time>2026-05-02T09:13:37.289Z</time></trkpt><trkpt lat="42.2223517" lon="13.83826"><ele>686.8</ele><time>2026-05-02T09:13:38.29Z</time></trkpt><trkpt lat="42.2224233" lon="13.8381617"><ele>688.6</ele><time>2026-05-02T09:13:39.289Z</time></trkpt><trkpt lat="42.2225033" lon="13.8380583"><ele>690.4000000000001</ele><time>2026-05-02T09:13:40.289Z</time></trkpt><trkpt lat="42.2225767" lon="13.8379533"><ele>692.2</ele><time>2026-05-02T09:13:41.289Z</time></trkpt><trkpt lat="42.222655" lon="13.837855"><ele>694.0</ele><time>2026-05-02T09:13:42.289Z</time></trkpt><trkpt lat="42.2227317" lon="13.837755"><ele>694.0</ele><time>2026-05-02T09:13:43.289Z</time></trkpt><trkpt lat="42.2227983" lon="13.83765"><ele>694.0</ele><time>2026-05-02T09:13:44.289Z</time></trkpt><trkpt lat="42.22286" lon="13.8375467"><ele>694.0</ele><time>2026-05-02T09:13:45.289Z</time></trkpt><trkpt lat="42.2229167" lon="13.83744"><ele>694.0</ele><time>2026-05-02T09:13:46.289Z</time></trkpt><trkpt lat="42.2229667" lon="13.8373267"><ele>694.0</ele><time>2026-05-02T09:13:47.289Z</time></trkpt><trkpt lat="42.2230083" lon="13.8371983"><ele>689.2</ele><time>2026-05-02T09:13:48.289Z</time></trkpt><trkpt lat="42.22304" lon="13.8370717"><ele>684.4000000000001</ele><time>2026-05-02T09:13:49.29Z</time></trkpt><trkpt lat="42.2230633" lon="13.836945"><ele>679.6</ele><time>2026-05-02T09:13:50.289Z</time></trkpt><trkpt lat="42.2230833" lon="13.836805"><ele>674.8</ele><time>2026-05-02T09:13:51.289Z</time></trkpt><trkpt lat="42.2230933" lon="13.83666"><ele>670.0</ele><time>2026-05-02T09:13:52.289Z</time></trkpt><trkpt lat="42.223105" lon="13.836525"><ele>668.0</ele><time>2026-05-02T09:13:53.289Z</time></trkpt><trkpt lat="42.2231067" lon="13.8363967"><ele>666.0</ele><time>2026-05-02T09:13:54.289Z</time></trkpt><trkpt lat="42.2231067" lon="13.836275"><ele>664.0</ele><time>2026-05-02T09:13:55.289Z</time></trkpt><trkpt lat="42.2231117" lon="13.8361683"><ele>662.0</ele><time>2026-05-02T09:13:56.289Z</time></trkpt><trkpt lat="42.22311" lon="13.83608"><ele>660.0</ele><time>2026-05-02T09:13:57.289Z</time></trkpt><trkpt lat="42.2230867" lon="13.8359867"><ele>658.0</ele><time>2026-05-02T09:13:59.289Z</time></trkpt><trkpt lat="42.2230133" lon="13.8359667"><ele>658.0</ele><time>2026-05-02T09:14:01.289Z</time></trkpt><trkpt lat="42.222965" lon="13.8360317"><ele>658.0</ele><time>2026-05-02T09:14:02.289Z</time></trkpt><trkpt lat="42.222905" lon="13.836125"><ele>658.0</ele><time>2026-05-02T09:14:03.289Z</time></trkpt><trkpt lat="42.2228367" lon="13.8362417"><ele>658.0</ele><time>2026-05-02T09:14:04.289Z</time></trkpt><trkpt lat="42.2227733" lon="13.8363567"><ele>658.0</ele><time>2026-05-02T09:14:05.289Z</time></trkpt><trkpt lat="42.22272" lon="13.8364617"><ele>658.0</ele><time>2026-05-02T09:14:06.289Z</time></trkpt><trkpt lat="42.2226617" lon="13.8365533"><ele>658.0</ele><time>2026-05-02T09:14:07.289Z</time></trkpt><trkpt lat="42.2226" lon="13.8366417"><ele>658.0</ele><time>2026-05-02T09:14:08.289Z</time></trkpt><trkpt lat="42.22252" lon="13.8367217"><ele>658.0</ele><time>2026-05-02T09:14:09.289Z</time></trkpt><trkpt lat="42.2224217" lon="13.8368"><ele>658.0</ele><time>2026-05-02T09:14:10.29Z</time></trkpt><trkpt lat="42.2223067" lon="13.8368883"><ele>657.6666666666667</ele><time>2026-05-02T09:14:11.289Z</time></trkpt><trkpt lat="42.2221683" lon="13.8369717"><ele>657.3333333333334</ele><time>2026-05-02T09:14:12.289Z</time></trkpt><trkpt lat="42.2220233" lon="13.837055"><ele>657.0</ele><time>2026-05-02T09:14:13.289Z</time></trkpt><trkpt lat="42.22189" lon="13.8371283"><ele>657.0</ele><time>2026-05-02T09:14:14.289Z</time></trkpt><trkpt lat="42.221765" lon="13.8372017"><ele>657.0</ele><time>2026-05-02T09:14:15.289Z</time></trkpt><trkpt lat="42.2216483" lon="13.8372717"><ele>657.0</ele><time>2026-05-02T09:14:16.289Z</time></trkpt><trkpt lat="42.2215433" lon="13.8373367"><ele>657.0</ele><time>2026-05-02T09:14:17.29Z</time></trkpt><trkpt lat="42.221455" lon="13.8373917"><ele>652.3333333333334</ele><time>2026-05-02T09:14:18.289Z</time></trkpt><trkpt lat="42.2213817" lon="13.8374383"><ele>647.6666666666666</ele><time>2026-05-02T09:14:19.289Z</time></trkpt><trkpt lat="42.22132" lon="13.8374767"><ele>643.0</ele><time>2026-05-02T09:14:20.289Z</time></trkpt><trkpt lat="42.2212333" lon="13.837485"><ele>638.3333333333333</ele><time>2026-05-02T09:14:22.289Z</time></trkpt><trkpt lat="42.221225" lon="13.837385"><ele>633.6666666666666</ele><time>2026-05-02T09:14:24.289Z</time></trkpt><trkpt lat="42.221305" lon="13.8372483"><ele>629.0</ele><time>2026-05-02T09:14:26.289Z</time></trkpt><trkpt lat="42.2213733" lon="13.8371683"><ele>629.0</ele><time>2026-05-02T09:14:27.289Z</time></trkpt><trkpt lat="42.2214517" lon="13.8370783"><ele>629.0</ele><time>2026-05-02T09:14:28.289Z</time></trkpt><trkpt lat="42.2215367" lon="13.8369683"><ele>629.0</ele><time>2026-05-02T09:14:29.289Z</time></trkpt><trkpt lat="42.2216167" lon="13.8368683"><ele>629.0</ele><time>2026-05-02T09:14:30.289Z</time></trkpt><trkpt lat="42.2216983" lon="13.8367683"><ele>629.0</ele><time>2026-05-02T09:14:31.289Z</time></trkpt><trkpt lat="42.2217767" lon="13.8366717"><ele>631.4</ele><time>2026-05-02T09:14:32.29Z</time></trkpt><trkpt lat="42.22184" lon="13.8365533"><ele>633.8</ele><time>2026-05-02T09:14:33.289Z</time></trkpt><trkpt lat="42.2219017" lon="13.8364417"><ele>636.1999999999999</ele><time>2026-05-02T09:14:34.289Z</time></trkpt><trkpt lat="42.22196" lon="13.8363367"><ele>638.5999999999999</ele><time>2026-05-02T09:14:35.289Z</time></trkpt><trkpt lat="42.2220117" lon="13.8362433"><ele>641.0</ele><time>2026-05-02T09:14:36.289Z</time></trkpt><trkpt lat="42.2220583" lon="13.8361517"><ele>641.0</ele><time>2026-05-02T09:14:37.289Z</time></trkpt><trkpt lat="42.2221017" lon="13.8360833"><ele>641.0</ele><time>2026-05-02T09:14:38.289Z</time></trkpt><trkpt lat="42.222125" lon="13.83597"><ele>641.0</ele><time>2026-05-02T09:14:40.289Z</time></trkpt><trkpt lat="42.2220754" lon="13.8359042"><ele>641.0</ele><time>2026-05-02T09:14:42.289Z</time></trkpt><trkpt lat="42.2219491" lon="13.8360011"><ele>641.0</ele><time>2026-05-02T09:14:44.289Z</time></trkpt><trkpt lat="42.2218621" lon="13.8361069"><ele>641.0</ele><time>2026-05-02T09:14:45.289Z</time></trkpt><trkpt lat="42.2217616" lon="13.8362148"><ele>641.0</ele><time>2026-05-02T09:14:46.289Z</time></trkpt><trkpt lat="42.2216549" lon="13.8363204"><ele>641.0</ele><time>2026-05-02T09:14:47.289Z</time></trkpt><trkpt lat="42.2215505" lon="13.8364272"><ele>641.0</ele><time>2026-05-02T09:14:48.289Z</time></trkpt><trkpt lat="42.2214436" lon="13.8365218"><ele>638.0</ele><time>2026-05-02T09:14:49.289Z</time></trkpt><trkpt lat="42.2213362" lon="13.8366066"><ele>635.0</ele><time>2026-05-02T09:14:50.289Z</time></trkpt><trkpt lat="42.221224" lon="13.8366875"><ele>632.0</ele><time>2026-05-02T09:14:51.289Z</time></trkpt><trkpt lat="42.2211181" lon="13.8367598"><ele>629.0</ele><time>2026-05-02T09:14:52.29Z</time></trkpt><trkpt lat="42.2210279" lon="13.8368279"><ele>629.0</ele><time>2026-05-02T09:14:53.289Z</time></trkpt><trkpt lat="42.2209463" lon="13.8369042"><ele>629.0</ele><time>2026-05-02T09:14:54.289Z</time></trkpt><trkpt lat="42.2208696" lon="13.8369943"><ele>629.0</ele><time>2026-05-02T09:14:55.289Z</time></trkpt><trkpt lat="42.2207946" lon="13.8371014"><ele>629.0</ele><time>2026-05-02T09:14:56.289Z</time></trkpt><trkpt lat="42.2207151" lon="13.8372254"><ele>629.0</ele><time>2026-05-02T09:14:57.29Z</time></trkpt><trkpt lat="42.2206371" lon="13.8373523"><ele>618.25</ele><time>2026-05-02T09:14:58.29Z</time></trkpt><trkpt lat="42.220571" lon="13.8374775"><ele>607.5</ele><time>2026-05-02T09:14:59.289Z</time></trkpt><trkpt lat="42.2205149" lon="13.8376124"><ele>596.75</ele><time>2026-05-02T09:15:00.289Z</time></trkpt><trkpt lat="42.220464" lon="13.837763"><ele>586.0</ele><time>2026-05-02T09:15:01.289Z</time></trkpt><trkpt lat="42.2204186" lon="13.8379201"><ele>586.0</ele><time>2026-05-02T09:15:02.289Z</time></trkpt><trkpt lat="42.2203822" lon="13.8380689"><ele>586.0</ele><time>2026-05-02T09:15:03.289Z</time></trkpt><trkpt lat="42.2203511" lon="13.8382056"><ele>586.0</ele><time>2026-05-02T09:15:04.289Z</time></trkpt><trkpt lat="42.2203243" lon="13.8383319"><ele>586.0</ele><time>2026-05-02T09:15:05.289Z</time></trkpt><trkpt lat="42.2203078" lon="13.8384553"><ele>586.0</ele><time>2026-05-02T09:15:06.289Z</time></trkpt><trkpt lat="42.2203039" lon="13.8385716"><ele>588.1666666666667</ele><time>2026-05-02T09:15:07.289Z</time></trkpt><trkpt lat="42.2203176" lon="13.838682"><ele>590.3333333333334</ele><time>2026-05-02T09:15:08.289Z</time></trkpt><trkpt lat="42.220327" lon="13.838778"><ele>592.5</ele><time>2026-05-02T09:15:09.289Z</time></trkpt><trkpt lat="42.2202941" lon="13.8389388"><ele>594.6666666666666</ele><time>2026-05-02T09:15:11.29Z</time></trkpt><trkpt lat="42.2202464" lon="13.8390179"><ele>596.8333333333333</ele><time>2026-05-02T09:15:12.29Z</time></trkpt><trkpt lat="42.220186" lon="13.8391081"><ele>599.0</ele><time>2026-05-02T09:15:13.29Z</time></trkpt><trkpt lat="42.2201258" lon="13.839218"><ele>603.6</ele><time>2026-05-02T09:15:14.289Z</time></trkpt><trkpt lat="42.2200533" lon="13.8393417"><ele>608.2</ele><time>2026-05-02T09:15:15.289Z</time></trkpt><trkpt lat="42.2199867" lon="13.839445"><ele>612.8000000000001</ele><time>2026-05-02T09:15:16.289Z</time></trkpt><trkpt lat="42.21991" lon="13.8395533"><ele>617.4</ele><time>2026-05-02T09:15:17.289Z</time></trkpt><trkpt lat="42.21983" lon="13.8396617"><ele>622.0</ele><time>2026-05-02T09:15:18.289Z</time></trkpt><trkpt lat="42.2197467" lon="13.8397617"><ele>618.0</ele><time>2026-05-02T09:15:19.289Z</time></trkpt><trkpt lat="42.219665" lon="13.8398633"><ele>614.0</ele><time>2026-05-02T09:15:20.29Z</time></trkpt><trkpt lat="42.2195867" lon="13.8399667"><ele>610.0</ele><time>2026-05-02T09:15:21.289Z</time></trkpt><trkpt lat="42.21951" lon="13.84006"><ele>606.0</ele><time>2026-05-02T09:15:22.29Z</time></trkpt><trkpt lat="42.2194317" lon="13.8401567"><ele>602.0</ele><time>2026-05-02T09:15:23.289Z</time></trkpt><trkpt lat="42.2193683" lon="13.8402433"><ele>602.0</ele><time>2026-05-02T09:15:24.289Z</time></trkpt><trkpt lat="42.2193117" lon="13.8403367"><ele>602.0</ele><time>2026-05-02T09:15:25.289Z</time></trkpt><trkpt lat="42.2192567" lon="13.84042"><ele>602.0</ele><time>2026-05-02T09:15:26.289Z</time></trkpt><trkpt lat="42.2192117" lon="13.84049"><ele>602.0</ele><time>2026-05-02T09:15:27.289Z</time></trkpt><trkpt lat="42.2191283" lon="13.8406"><ele>602.0</ele><time>2026-05-02T09:15:29.289Z</time></trkpt><trkpt lat="42.2190583" lon="13.8405983"><ele>602.0</ele><time>2026-05-02T09:15:31.289Z</time></trkpt><trkpt lat="42.2190617" lon="13.8404767"><ele>602.0</ele><time>2026-05-02T09:15:33.289Z</time></trkpt><trkpt lat="42.2191133" lon="13.8403567"><ele>602.0</ele><time>2026-05-02T09:15:34.29Z</time></trkpt><trkpt lat="42.2191767" lon="13.84023"><ele>602.0</ele><time>2026-05-02T09:15:35.289Z</time></trkpt><trkpt lat="42.21924" lon="13.8400883"><ele>602.0</ele><time>2026-05-02T09:15:36.289Z</time></trkpt><trkpt lat="42.2192983" lon="13.8399367"><ele>594.75</ele><time>2026-05-02T09:15:37.289Z</time></trkpt><trkpt lat="42.2193617" lon="13.839785"><ele>587.5</ele><time>2026-05-02T09:15:38.289Z</time></trkpt><trkpt lat="42.219425" lon="13.8396317"><ele>580.25</ele><time>2026-05-02T09:15:39.289Z</time></trkpt><trkpt lat="42.219485" lon="13.8394767"><ele>573.0</ele><time>2026-05-02T09:15:40.289Z</time></trkpt><trkpt lat="42.219545" lon="13.83933"><ele>569.0</ele><time>2026-05-02T09:15:41.289Z</time></trkpt><trkpt lat="42.2196" lon="13.839195"><ele>565.0</ele><time>2026-05-02T09:15:42.289Z</time></trkpt><trkpt lat="42.2196533" lon="13.8390667"><ele>561.0</ele><time>2026-05-02T09:15:43.289Z</time></trkpt><trkpt lat="42.2197017" lon="13.83896"><ele>557.0</ele><time>2026-05-02T09:15:44.289Z</time></trkpt><trkpt lat="42.219755" lon="13.8388667"><ele>553.0</ele><time>2026-05-02T09:15:45.289Z</time></trkpt><trkpt lat="42.2197917" lon="13.838775"><ele>553.0</ele><time>2026-05-02T09:15:46.289Z</time></trkpt><trkpt lat="42.2197933" lon="13.83868"><ele>553.0</ele><time>2026-05-02T09:15:47.289Z</time></trkpt><trkpt lat="42.2197867" lon="13.8385833"><ele>553.0</ele><time>2026-05-02T09:15:48.289Z</time></trkpt><trkpt lat="42.2197733" lon="13.838475"><ele>553.0</ele><time>2026-05-02T09:15:49.289Z</time></trkpt><trkpt lat="42.219755" lon="13.8383567"><ele>553.0</ele><time>2026-05-02T09:15:50.289Z</time></trkpt><trkpt lat="42.2197317" lon="13.8382217"><ele>553.0</ele><time>2026-05-02T09:15:51.289Z</time></trkpt><trkpt lat="42.2197117" lon="13.8380683"><ele>549.1999999999999</ele><time>2026-05-02T09:15:52.289Z</time></trkpt><trkpt lat="42.2196967" lon="13.837915"><ele>545.4</ele><time>2026-05-02T09:15:53.289Z</time></trkpt><trkpt lat="42.2196983" lon="13.8377717"><ele>541.5999999999999</ele><time>2026-05-02T09:15:54.289Z</time></trkpt><trkpt lat="42.219695" lon="13.83762"><ele>537.8</ele><time>2026-05-02T09:15:55.289Z</time></trkpt><trkpt lat="42.2197" lon="13.83747"><ele>534.0</ele><time>2026-05-02T09:15:56.289Z</time></trkpt><trkpt lat="42.2197167" lon="13.837325"><ele>531.75</ele><time>2026-05-02T09:15:57.289Z</time></trkpt><trkpt lat="42.2197333" lon="13.8371767"><ele>529.5</ele><time>2026-05-02T09:15:58.289Z</time></trkpt><trkpt lat="42.21976" lon="13.8370267"><ele>527.25</ele><time>2026-05-02T09:15:59.289Z</time></trkpt><trkpt lat="42.2197833" lon="13.8368767"><ele>525.0</ele><time>2026-05-02T09:16:00.289Z</time></trkpt><trkpt lat="42.21981" lon="13.8367117"><ele>532.2</ele><time>2026-05-02T09:16:01.289Z</time></trkpt><trkpt lat="42.2198517" lon="13.8365617"><ele>539.4</ele><time>2026-05-02T09:16:02.289Z</time></trkpt><trkpt lat="42.2198883" lon="13.836415"><ele>546.6</ele><time>2026-05-02T09:16:03.289Z</time></trkpt><trkpt lat="42.2199333" lon="13.8362867"><ele>553.8</ele><time>2026-05-02T09:16:04.29Z</time></trkpt><trkpt lat="42.2199733" lon="13.8361617"><ele>561.0</ele><time>2026-05-02T09:16:05.289Z</time></trkpt><trkpt lat="42.22002" lon="13.83605"><ele>556.8333333333334</ele><time>2026-05-02T09:16:06.289Z</time></trkpt><trkpt lat="42.2200767" lon="13.835965"><ele>552.6666666666666</ele><time>2026-05-02T09:16:07.289Z</time></trkpt><trkpt lat="42.220125" lon="13.835905"><ele>548.5</ele><time>2026-05-02T09:16:08.289Z</time></trkpt><trkpt lat="42.2201683" lon="13.8358017"><ele>544.3333333333333</ele><time>2026-05-02T09:16:10.289Z</time></trkpt><trkpt lat="42.22008" lon="13.8357783"><ele>540.1666666666666</ele><time>2026-05-02T09:16:13.289Z</time></trkpt><trkpt lat="42.2200167" lon="13.83583"><ele>536.0</ele><time>2026-05-02T09:16:14.289Z</time></trkpt><trkpt lat="42.2199433" lon="13.8359117"><ele>542.25</ele><time>2026-05-02T09:16:15.289Z</time></trkpt><trkpt lat="42.219855" lon="13.8360183"><ele>548.5</ele><time>2026-05-02T09:16:16.289Z</time></trkpt><trkpt lat="42.2197617" lon="13.8361583"><ele>554.75</ele><time>2026-05-02T09:16:17.289Z</time></trkpt><trkpt lat="42.2196733" lon="13.8362917"><ele>561.0</ele><time>2026-05-02T09:16:18.289Z</time></trkpt><trkpt lat="42.2195933" lon="13.836435"><ele>552.0</ele><time>2026-05-02T09:16:19.289Z</time></trkpt><trkpt lat="42.2195217" lon="13.8365767"><ele>543.0</ele><time>2026-05-02T09:16:20.289Z</time></trkpt><trkpt lat="42.2194533" lon="13.83671"><ele>534.0</ele><time>2026-05-02T09:16:21.289Z</time></trkpt><trkpt lat="42.2193867" lon="13.8368517"><ele>525.0</ele><time>2026-05-02T09:16:22.289Z</time></trkpt><trkpt lat="42.219325" lon="13.836985"><ele>525.0</ele><time>2026-05-02T09:16:23.29Z</time></trkpt><trkpt lat="42.2192667" lon="13.8371167"><ele>525.0</ele><time>2026-05-02T09:16:24.289Z</time></trkpt><trkpt lat="42.2192083" lon="13.837245"><ele>525.0</ele><time>2026-05-02T09:16:25.289Z</time></trkpt><trkpt lat="42.2191583" lon="13.8373783"><ele>525.0</ele><time>2026-05-02T09:16:26.289Z</time></trkpt><trkpt lat="42.2191233" lon="13.8375183"><ele>525.0</ele><time>2026-05-02T09:16:27.289Z</time></trkpt><trkpt lat="42.21909" lon="13.8376667"><ele>526.8</ele><time>2026-05-02T09:16:28.289Z</time></trkpt><trkpt lat="42.219065" lon="13.8378183"><ele>528.6</ele><time>2026-05-02T09:16:29.289Z</time></trkpt><trkpt lat="42.2190517" lon="13.8379667"><ele>530.4</ele><time>2026-05-02T09:16:30.289Z</time></trkpt><trkpt lat="42.2190417" lon="13.8380933"><ele>532.2</ele><time>2026-05-02T09:16:31.289Z</time></trkpt><trkpt lat="42.2190283" lon="13.8382067"><ele>534.0</ele><time>2026-05-02T09:16:32.29Z</time></trkpt><trkpt lat="42.2190033" lon="13.8383117"><ele>528.2</ele><time>2026-05-02T09:16:33.29Z</time></trkpt><trkpt lat="42.2189683" lon="13.8384033"><ele>522.4</ele><time>2026-05-02T09:16:34.289Z</time></trkpt><trkpt lat="42.21891" lon="13.8384883"><ele>516.6</ele><time>2026-05-02T09:16:35.289Z</time></trkpt><trkpt lat="42.2188317" lon="13.83857"><ele>510.8</ele><time>2026-05-02T09:16:36.289Z</time></trkpt><trkpt lat="42.2187417" lon="13.83866"><ele>505.0</ele><time>2026-05-02T09:16:37.289Z</time></trkpt><trkpt lat="42.218645" lon="13.838755"><ele>505.0</ele><time>2026-05-02T09:16:38.29Z</time></trkpt><trkpt lat="42.2185533" lon="13.8388583"><ele>505.0</ele><time>2026-05-02T09:16:39.29Z</time></trkpt><trkpt lat="42.2184767" lon="13.838975"><ele>505.0</ele><time>2026-05-02T09:16:40.289Z</time></trkpt><trkpt lat="42.2184117" lon="13.8390983"><ele>505.0</ele><time>2026-05-02T09:16:41.289Z</time></trkpt><trkpt lat="42.2183133" lon="13.839205"><ele>501.5</ele><time>2026-05-02T09:16:42.29Z</time></trkpt><trkpt lat="42.2182467" lon="13.8393367"><ele>498.0</ele><time>2026-05-02T09:16:43.289Z</time></trkpt><trkpt lat="42.21815" lon="13.8394417"><ele>494.5</ele><time>2026-05-02T09:16:44.289Z</time></trkpt><trkpt lat="42.2180533" lon="13.8395467"><ele>491.0</ele><time>2026-05-02T09:16:45.29Z</time></trkpt><trkpt lat="42.21796" lon="13.8396533"><ele>491.0</ele><time>2026-05-02T09:16:46.289Z</time></trkpt><trkpt lat="42.2178667" lon="13.8397533"><ele>491.0</ele><time>2026-05-02T09:16:47.289Z</time></trkpt><trkpt lat="42.21777" lon="13.8398567"><ele>491.0</ele><time>2026-05-02T09:16:48.289Z</time></trkpt><trkpt lat="42.2176683" lon="13.8399567"><ele>491.0</ele><time>2026-05-02T09:16:49.289Z</time></trkpt><trkpt lat="42.21756" lon="13.8400517"><ele>488.25</ele><time>2026-05-02T09:16:50.289Z</time></trkpt><trkpt lat="42.2174483" lon="13.840145"><ele>485.5</ele><time>2026-05-02T09:16:51.29Z</time></trkpt><trkpt lat="42.2173417" lon="13.8402417"><ele>482.75</ele><time>2026-05-02T09:16:52.289Z</time></trkpt><trkpt lat="42.21724" lon="13.8403367"><ele>480.0</ele><time>2026-05-02T09:16:53.289Z</time></trkpt><trkpt lat="42.2171433" lon="13.8404267"><ele>480.0</ele><time>2026-05-02T09:16:54.289Z</time></trkpt><trkpt lat="42.217045" lon="13.84051"><ele>480.0</ele><time>2026-05-02T09:16:55.289Z</time></trkpt><trkpt lat="42.2169467" lon="13.8405867"><ele>480.0</ele><time>2026-05-02T09:16:56.29Z</time></trkpt><trkpt lat="42.2168467" lon="13.8406533"><ele>480.0</ele><time>2026-05-02T09:16:57.289Z</time></trkpt><trkpt lat="42.2167533" lon="13.840715"><ele>480.0</ele><time>2026-05-02T09:16:58.289Z</time></trkpt><trkpt lat="42.216665" lon="13.8407783"><ele>480.0</ele><time>2026-05-02T09:16:59.289Z</time></trkpt><trkpt lat="42.21657" lon="13.8408283"><ele>480.0</ele><time>2026-05-02T09:17:00.289Z</time></trkpt><trkpt lat="42.216475" lon="13.840875"><ele>480.0</ele><time>2026-05-02T09:17:01.29Z</time></trkpt><trkpt lat="42.2163767" lon="13.8409233"><ele>480.0</ele><time>2026-05-02T09:17:02.289Z</time></trkpt><trkpt lat="42.2162883" lon="13.8409767"><ele>480.0</ele><time>2026-05-02T09:17:03.289Z</time></trkpt><trkpt lat="42.2162" lon="13.8410267"><ele>478.0</ele><time>2026-05-02T09:17:04.289Z</time></trkpt><trkpt lat="42.2161083" lon="13.8410783"><ele>476.0</ele><time>2026-05-02T09:17:05.289Z</time></trkpt><trkpt lat="42.2160117" lon="13.8411367"><ele>474.0</ele><time>2026-05-02T09:17:06.289Z</time></trkpt><trkpt lat="42.2159167" lon="13.8411833"><ele>472.0</ele><time>2026-05-02T09:17:07.289Z</time></trkpt><trkpt lat="42.21582" lon="13.8412183"><ele>470.0</ele><time>2026-05-02T09:17:08.29Z</time></trkpt><trkpt lat="42.21573" lon="13.8412483"><ele>466.3333333333333</ele><time>2026-05-02T09:17:09.289Z</time></trkpt><trkpt lat="42.2156533" lon="13.8412567"><ele>462.66666666666663</ele><time>2026-05-02T09:17:10.289Z</time></trkpt><trkpt lat="42.215585" lon="13.8412583"><ele>459.0</ele><time>2026-05-02T09:17:11.289Z</time></trkpt><trkpt lat="42.2155133" lon="13.8412467"><ele>455.33333333333337</ele><time>2026-05-02T09:17:12.289Z</time></trkpt><trkpt lat="42.2154433" lon="13.8411983"><ele>451.6666666666667</ele><time>2026-05-02T09:17:13.289Z</time></trkpt><trkpt lat="42.2153817" lon="13.8411133"><ele>448.0</ele><time>2026-05-02T09:17:14.289Z</time></trkpt><trkpt lat="42.2153333" lon="13.8409933"><ele>446.59999999999997</ele><time>2026-05-02T09:17:15.289Z</time></trkpt><trkpt lat="42.2152833" lon="13.84086"><ele>445.19999999999993</ele><time>2026-05-02T09:17:16.289Z</time></trkpt><trkpt lat="42.215235" lon="13.8407283"><ele>443.8</ele><time>2026-05-02T09:17:17.289Z</time></trkpt><trkpt lat="42.215195" lon="13.84062"><ele>442.4</ele><time>2026-05-02T09:17:18.289Z</time></trkpt><trkpt lat="42.2151683" lon="13.8405267"><ele>441.0</ele><time>2026-05-02T09:17:19.289Z</time></trkpt><trkpt lat="42.2151583" lon="13.8404333"><ele>441.0</ele><time>2026-05-02T09:17:20.289Z</time></trkpt><trkpt lat="42.215175" lon="13.840345"><ele>441.0</ele><time>2026-05-02T09:17:21.289Z</time></trkpt><trkpt lat="42.2152083" lon="13.8402533"><ele>441.0</ele><time>2026-05-02T09:17:22.289Z</time></trkpt><trkpt lat="42.215275" lon="13.8401617"><ele>441.0</ele><time>2026-05-02T09:17:23.289Z</time></trkpt><trkpt lat="42.215375" lon="13.8400733"><ele>441.0</ele><time>2026-05-02T09:17:24.289Z</time></trkpt><trkpt lat="42.2154783" lon="13.8399917"><ele>440.6</ele><time>2026-05-02T09:17:25.289Z</time></trkpt><trkpt lat="42.2155817" lon="13.8399033"><ele>440.20000000000005</ele><time>2026-05-02T09:17:26.289Z</time></trkpt><trkpt lat="42.2156733" lon="13.8398117"><ele>439.79999999999995</ele><time>2026-05-02T09:17:27.289Z</time></trkpt><trkpt lat="42.2157533" lon="13.8397267"><ele>439.4</ele><time>2026-05-02T09:17:28.289Z</time></trkpt><trkpt lat="42.2158167" lon="13.8396333"><ele>439.0</ele><time>2026-05-02T09:17:29.289Z</time></trkpt><trkpt lat="42.215875" lon="13.8395267"><ele>437.75</ele><time>2026-05-02T09:17:30.289Z</time></trkpt><trkpt lat="42.2159367" lon="13.83941"><ele>436.5</ele><time>2026-05-02T09:17:31.289Z</time></trkpt><trkpt lat="42.2160067" lon="13.839275"><ele>435.25</ele><time>2026-05-02T09:17:32.289Z</time></trkpt><trkpt lat="42.2160733" lon="13.8391317"><ele>434.0</ele><time>2026-05-02T09:17:33.289Z</time></trkpt><trkpt lat="42.216135" lon="13.8389717"><ele>434.0</ele><time>2026-05-02T09:17:34.29Z</time></trkpt><trkpt lat="42.2161917" lon="13.8388133"><ele>434.0</ele><time>2026-05-02T09:17:35.289Z</time></trkpt><trkpt lat="42.2162417" lon="13.83864"><ele>434.0</ele><time>2026-05-02T09:17:36.289Z</time></trkpt><trkpt lat="42.2162867" lon="13.8384683"><ele>434.0</ele><time>2026-05-02T09:17:37.289Z</time></trkpt><trkpt lat="42.21633" lon="13.8382917"><ele>431.25</ele><time>2026-05-02T09:17:38.289Z</time></trkpt><trkpt lat="42.2163767" lon="13.8381"><ele>428.5</ele><time>2026-05-02T09:17:39.289Z</time></trkpt><trkpt lat="42.2164233" lon="13.8379133"><ele>425.75</ele><time>2026-05-02T09:17:40.289Z</time></trkpt><trkpt lat="42.21647" lon="13.837725"><ele>423.0</ele><time>2026-05-02T09:17:41.289Z</time></trkpt><trkpt lat="42.2165217" lon="13.837535"><ele>423.0</ele><time>2026-05-02T09:17:42.289Z</time></trkpt><trkpt lat="42.2165683" lon="13.8373433"><ele>423.0</ele><time>2026-05-02T09:17:43.289Z</time></trkpt><trkpt lat="42.2166117" lon="13.837155"><ele>423.0</ele><time>2026-05-02T09:17:44.289Z</time></trkpt><trkpt lat="42.2166567" lon="13.8369883"><ele>423.0</ele><time>2026-05-02T09:17:45.289Z</time></trkpt><trkpt lat="42.2167067" lon="13.83682"><ele>419.0</ele><time>2026-05-02T09:17:46.289Z</time></trkpt><trkpt lat="42.2167533" lon="13.8366383"><ele>415.0</ele><time>2026-05-02T09:17:47.289Z</time></trkpt><trkpt lat="42.2168083" lon="13.8364433"><ele>411.0</ele><time>2026-05-02T09:17:48.289Z</time></trkpt><trkpt lat="42.2168833" lon="13.8362583"><ele>411.0</ele><time>2026-05-02T09:17:49.289Z</time></trkpt><trkpt lat="42.2169567" lon="13.8360767"><ele>411.0</ele><time>2026-05-02T09:17:50.289Z</time></trkpt><trkpt lat="42.2170367" lon="13.8359083"><ele>411.0</ele><time>2026-05-02T09:17:51.289Z</time></trkpt><trkpt lat="42.2171267" lon="13.83574"><ele>411.0</ele><time>2026-05-02T09:17:52.289Z</time></trkpt><trkpt lat="42.21722" lon="13.8355867"><ele>411.0</ele><time>2026-05-02T09:17:53.29Z</time></trkpt><trkpt lat="42.2173067" lon="13.8354367"><ele>411.0</ele><time>2026-05-02T09:17:54.289Z</time></trkpt><trkpt lat="42.2173867" lon="13.8353033"><ele>411.0</ele><time>2026-05-02T09:17:55.289Z</time></trkpt><trkpt lat="42.2174583" lon="13.835175"><ele>408.6</ele><time>2026-05-02T09:17:56.29Z</time></trkpt><trkpt lat="42.2175217" lon="13.8350617"><ele>406.20000000000005</ele><time>2026-05-02T09:17:57.289Z</time></trkpt><trkpt lat="42.21757" lon="13.834945"><ele>403.79999999999995</ele><time>2026-05-02T09:17:58.289Z</time></trkpt><trkpt lat="42.2175983" lon="13.83482"><ele>401.4</ele><time>2026-05-02T09:17:59.29Z</time></trkpt><trkpt lat="42.2176" lon="13.8346833"><ele>399.0</ele><time>2026-05-02T09:18:00.289Z</time></trkpt><trkpt lat="42.217585" lon="13.83454"><ele>399.0</ele><time>2026-05-02T09:18:01.289Z</time></trkpt><trkpt lat="42.2175617" lon="13.8343683"><ele>399.0</ele><time>2026-05-02T09:18:02.289Z</time></trkpt><trkpt lat="42.2175367" lon="13.8342033"><ele>399.0</ele><time>2026-05-02T09:18:03.289Z</time></trkpt><trkpt lat="42.217515" lon="13.8340283"><ele>399.0</ele><time>2026-05-02T09:18:04.289Z</time></trkpt><trkpt lat="42.2174917" lon="13.8338567"><ele>397.0</ele><time>2026-05-02T09:18:05.289Z</time></trkpt><trkpt lat="42.217475" lon="13.8336833"><ele>395.0</ele><time>2026-05-02T09:18:06.289Z</time></trkpt><trkpt lat="42.2174533" lon="13.833515"><ele>393.0</ele><time>2026-05-02T09:18:07.29Z</time></trkpt><trkpt lat="42.2174383" lon="13.8333483"><ele>391.0</ele><time>2026-05-02T09:18:08.289Z</time></trkpt><trkpt lat="42.217425" lon="13.8331833"><ele>389.0</ele><time>2026-05-02T09:18:09.289Z</time></trkpt><trkpt lat="42.217425" lon="13.8330083"><ele>387.0</ele><time>2026-05-02T09:18:10.289Z</time></trkpt><trkpt lat="42.2174283" lon="13.83282"><ele>385.0</ele><time>2026-05-02T09:18:11.289Z</time></trkpt><trkpt lat="42.2174433" lon="13.83263"><ele>383.0</ele><time>2026-05-02T09:18:12.29Z</time></trkpt><trkpt lat="42.2174583" lon="13.832435"><ele>381.25</ele><time>2026-05-02T09:18:13.289Z</time></trkpt><trkpt lat="42.217475" lon="13.8322333"><ele>379.5</ele><time>2026-05-02T09:18:14.289Z</time></trkpt><trkpt lat="42.2174883" lon="13.8320383"><ele>377.75</ele><time>2026-05-02T09:18:15.289Z</time></trkpt><trkpt lat="42.2175067" lon="13.8318483"><ele>376.0</ele><time>2026-05-02T09:18:16.289Z</time></trkpt><trkpt lat="42.2175217" lon="13.8316517"><ele>375.0</ele><time>2026-05-02T09:18:17.289Z</time></trkpt><trkpt lat="42.2175417" lon="13.831465"><ele>374.0</ele><time>2026-05-02T09:18:18.289Z</time></trkpt><trkpt lat="42.2175717" lon="13.8312883"><ele>373.0</ele><time>2026-05-02T09:18:19.289Z</time></trkpt><trkpt lat="42.2176" lon="13.8311233"><ele>372.0</ele><time>2026-05-02T09:18:20.289Z</time></trkpt><trkpt lat="42.21764" lon="13.83097"><ele>371.40000000000003</ele><time>2026-05-02T09:18:21.289Z</time></trkpt><trkpt lat="42.217685" lon="13.8308217"><ele>370.8</ele><time>2026-05-02T09:18:22.29Z</time></trkpt><trkpt lat="42.2177283" lon="13.83069"><ele>370.2</ele><time>2026-05-02T09:18:23.29Z</time></trkpt><trkpt lat="42.2177617" lon="13.8305783"><ele>369.6</ele><time>2026-05-02T09:18:24.289Z</time></trkpt><trkpt lat="42.2177883" lon="13.8304883"><ele>369.0</ele><time>2026-05-02T09:18:25.289Z</time></trkpt><trkpt lat="42.2178233" lon="13.8304033"><ele>369.0</ele><time>2026-05-02T09:18:26.289Z</time></trkpt><trkpt lat="42.2178583" lon="13.830325"><ele>369.0</ele><time>2026-05-02T09:18:27.289Z</time></trkpt><trkpt lat="42.21789" lon="13.8302433"><ele>369.0</ele><time>2026-05-02T09:18:28.289Z</time></trkpt><trkpt lat="42.2179267" lon="13.83016"><ele>369.0</ele><time>2026-05-02T09:18:29.289Z</time></trkpt><trkpt lat="42.2179733" lon="13.8300517"><ele>369.0</ele><time>2026-05-02T09:18:30.289Z</time></trkpt><trkpt lat="42.2180083" lon="13.8299283"><ele>369.0</ele><time>2026-05-02T09:18:31.29Z</time></trkpt><trkpt lat="42.2180333" lon="13.829795"><ele>367.75</ele><time>2026-05-02T09:18:32.289Z</time></trkpt><trkpt lat="42.2180417" lon="13.8296517"><ele>366.5</ele><time>2026-05-02T09:18:33.289Z</time></trkpt><trkpt lat="42.218045" lon="13.8294983"><ele>365.25</ele><time>2026-05-02T09:18:34.289Z</time></trkpt><trkpt lat="42.2180333" lon="13.8293283"><ele>364.0</ele><time>2026-05-02T09:18:35.289Z</time></trkpt><trkpt lat="42.2180133" lon="13.8291533"><ele>363.25</ele><time>2026-05-02T09:18:36.289Z</time></trkpt><trkpt lat="42.2180017" lon="13.8289867"><ele>362.5</ele><time>2026-05-02T09:18:37.289Z</time></trkpt><trkpt lat="42.2179867" lon="13.8288083"><ele>361.75</ele><time>2026-05-02T09:18:38.289Z</time></trkpt><trkpt lat="42.2179717" lon="13.8286367"><ele>361.0</ele><time>2026-05-02T09:18:39.289Z</time></trkpt><trkpt lat="42.2179517" lon="13.82847"><ele>359.75</ele><time>2026-05-02T09:18:40.289Z</time></trkpt><trkpt lat="42.2179433" lon="13.828295"><ele>358.5</ele><time>2026-05-02T09:18:41.289Z</time></trkpt><trkpt lat="42.2179333" lon="13.828115"><ele>357.25</ele><time>2026-05-02T09:18:42.289Z</time></trkpt><trkpt lat="42.2179167" lon="13.8279333"><ele>356.0</ele><time>2026-05-02T09:18:43.289Z</time></trkpt><trkpt lat="42.2179017" lon="13.8277533"><ele>354.25</ele><time>2026-05-02T09:18:44.289Z</time></trkpt><trkpt lat="42.2178967" lon="13.827575"><ele>352.5</ele><time>2026-05-02T09:18:45.289Z</time></trkpt><trkpt lat="42.217895" lon="13.8274083"><ele>350.75</ele><time>2026-05-02T09:18:46.289Z</time></trkpt><trkpt lat="42.2178917" lon="13.8272633"><ele>349.0</ele><time>2026-05-02T09:18:47.289Z</time></trkpt><trkpt lat="42.217895" lon="13.82714"><ele>349.0</ele><time>2026-05-02T09:18:48.289Z</time></trkpt><trkpt lat="42.2178967" lon="13.8270183"><ele>349.0</ele><time>2026-05-02T09:18:49.289Z</time></trkpt><trkpt lat="42.2178883" lon="13.8269117"><ele>349.0</ele><time>2026-05-02T09:18:50.289Z</time></trkpt><trkpt lat="42.2178567" lon="13.8268117"><ele>349.0</ele><time>2026-05-02T09:18:51.289Z</time></trkpt><trkpt lat="42.2178067" lon="13.8267283"><ele>349.0</ele><time>2026-05-02T09:18:52.289Z</time></trkpt><trkpt lat="42.2177383" lon="13.8266583"><ele>349.0</ele><time>2026-05-02T09:18:53.289Z</time></trkpt><trkpt lat="42.2176567" lon="13.8265967"><ele>347.6</ele><time>2026-05-02T09:18:54.289Z</time></trkpt><trkpt lat="42.2175767" lon="13.8265467"><ele>346.2</ele><time>2026-05-02T09:18:55.289Z</time></trkpt><trkpt lat="42.2175033" lon="13.8265067"><ele>344.8</ele><time>2026-05-02T09:18:56.289Z</time></trkpt><trkpt lat="42.2174433" lon="13.826465"><ele>343.40000000000003</ele><time>2026-05-02T09:18:57.289Z</time></trkpt><trkpt lat="42.2173717" lon="13.8263617"><ele>342.0</ele><time>2026-05-02T09:18:59.289Z</time></trkpt><trkpt lat="42.2173983" lon="13.82619"><ele>342.0</ele><time>2026-05-02T09:19:01.289Z</time></trkpt><trkpt lat="42.2174583" lon="13.826095"><ele>342.0</ele><time>2026-05-02T09:19:02.289Z</time></trkpt><trkpt lat="42.2175283" lon="13.8260033"><ele>342.0</ele><time>2026-05-02T09:19:03.29Z</time></trkpt><trkpt lat="42.217595" lon="13.8259133"><ele>342.0</ele><time>2026-05-02T09:19:04.289Z</time></trkpt><trkpt lat="42.2176683" lon="13.825815"><ele>342.0</ele><time>2026-05-02T09:19:05.289Z</time></trkpt><trkpt lat="42.2177283" lon="13.8257133"><ele>340.1666666666667</ele><time>2026-05-02T09:19:06.289Z</time></trkpt><trkpt lat="42.2177717" lon="13.8256117"><ele>338.3333333333333</ele><time>2026-05-02T09:19:07.289Z</time></trkpt><trkpt lat="42.2177867" lon="13.825495"><ele>336.5</ele><time>2026-05-02T09:19:08.289Z</time></trkpt><trkpt lat="42.217775" lon="13.8253867"><ele>334.66666666666663</ele><time>2026-05-02T09:19:09.289Z</time></trkpt><trkpt lat="42.2177433" lon="13.825275"><ele>332.8333333333333</ele><time>2026-05-02T09:19:10.289Z</time></trkpt><trkpt lat="42.2176983" lon="13.825185"><ele>331.0</ele><time>2026-05-02T09:19:11.289Z</time></trkpt><trkpt lat="42.2176333" lon="13.825125"><ele>329.8333333333333</ele><time>2026-05-02T09:19:12.289Z</time></trkpt><trkpt lat="42.2175467" lon="13.825095"><ele>328.66666666666663</ele><time>2026-05-02T09:19:13.289Z</time></trkpt><trkpt lat="42.21745" lon="13.825095"><ele>327.5</ele><time>2026-05-02T09:19:14.289Z</time></trkpt><trkpt lat="42.2173567" lon="13.8250883"><ele>326.3333333333333</ele><time>2026-05-02T09:19:15.289Z</time></trkpt><trkpt lat="42.2172783" lon="13.8250717"><ele>325.1666666666667</ele><time>2026-05-02T09:19:16.289Z</time></trkpt><trkpt lat="42.2172033" lon="13.825035"><ele>324.0</ele><time>2026-05-02T09:19:17.29Z</time></trkpt><trkpt lat="42.2171433" lon="13.8249767"><ele>323.6</ele><time>2026-05-02T09:19:18.289Z</time></trkpt><trkpt lat="42.217085" lon="13.82491"><ele>323.2</ele><time>2026-05-02T09:19:19.289Z</time></trkpt><trkpt lat="42.2170183" lon="13.82481"><ele>322.8</ele><time>2026-05-02T09:19:20.289Z</time></trkpt><trkpt lat="42.2169517" lon="13.8246833"><ele>322.40000000000003</ele><time>2026-05-02T09:19:21.289Z</time></trkpt><trkpt lat="42.2168767" lon="13.8245267"><ele>322.0</ele><time>2026-05-02T09:19:22.289Z</time></trkpt><trkpt lat="42.2168017" lon="13.824355"><ele>321.25</ele><time>2026-05-02T09:19:23.289Z</time></trkpt><trkpt lat="42.216735" lon="13.82419"><ele>320.5</ele><time>2026-05-02T09:19:24.289Z</time></trkpt><trkpt lat="42.2166733" lon="13.82404"><ele>319.75</ele><time>2026-05-02T09:19:25.289Z</time></trkpt><trkpt lat="42.216615" lon="13.8239017"><ele>319.0</ele><time>2026-05-02T09:19:26.289Z</time></trkpt><trkpt lat="42.2165583" lon="13.8237717"><ele>319.0</ele><time>2026-05-02T09:19:27.289Z</time></trkpt><trkpt lat="42.21651" lon="13.8236367"><ele>319.0</ele><time>2026-05-02T09:19:28.289Z</time></trkpt><trkpt lat="42.2164633" lon="13.8235067"><ele>319.0</ele><time>2026-05-02T09:19:29.289Z</time></trkpt><trkpt lat="42.21641" lon="13.8233717"><ele>319.0</ele><time>2026-05-02T09:19:30.289Z</time></trkpt><trkpt lat="42.2163633" lon="13.823235"><ele>319.0</ele><time>2026-05-02T09:19:31.289Z</time></trkpt><trkpt lat="42.21631" lon="13.8231083"><ele>318.2</ele><time>2026-05-02T09:19:32.289Z</time></trkpt><trkpt lat="42.2162583" lon="13.8229983"><ele>317.4</ele><time>2026-05-02T09:19:33.289Z</time></trkpt><trkpt lat="42.2162117" lon="13.82289"><ele>316.6</ele><time>2026-05-02T09:19:34.29Z</time></trkpt><trkpt lat="42.2161567" lon="13.822785"><ele>315.8</ele><time>2026-05-02T09:19:35.289Z</time></trkpt><trkpt lat="42.2161117" lon="13.8226867"><ele>315.0</ele><time>2026-05-02T09:19:36.289Z</time></trkpt><trkpt lat="42.216065" lon="13.822595"><ele>315.0</ele><time>2026-05-02T09:19:37.29Z</time></trkpt><trkpt lat="42.216015" lon="13.8225067"><ele>315.0</ele><time>2026-05-02T09:19:38.289Z</time></trkpt><trkpt lat="42.2159583" lon="13.8224217"><ele>315.0</ele><time>2026-05-02T09:19:39.289Z</time></trkpt><trkpt lat="42.215895" lon="13.8223483"><ele>315.0</ele><time>2026-05-02T09:19:40.289Z</time></trkpt><trkpt lat="42.2158217" lon="13.8222917"><ele>315.0</ele><time>2026-05-02T09:19:41.289Z</time></trkpt><trkpt lat="42.2157333" lon="13.82225"><ele>315.0</ele><time>2026-05-02T09:19:42.289Z</time></trkpt><trkpt lat="42.2156383" lon="13.8222533"><ele>315.5</ele><time>2026-05-02T09:19:43.289Z</time></trkpt><trkpt lat="42.2155217" lon="13.8222683"><ele>316.0</ele><time>2026-05-02T09:19:44.29Z</time></trkpt><trkpt lat="42.2153983" lon="13.8223067"><ele>316.5</ele><time>2026-05-02T09:19:45.289Z</time></trkpt><trkpt lat="42.215285" lon="13.8223683"><ele>317.0</ele><time>2026-05-02T09:19:46.289Z</time></trkpt><trkpt lat="42.21519" lon="13.8224317"><ele>317.0</ele><time>2026-05-02T09:19:47.289Z</time></trkpt><trkpt lat="42.2150933" lon="13.8224933"><ele>317.0</ele><time>2026-05-02T09:19:48.289Z</time></trkpt><trkpt lat="42.2149983" lon="13.82255"><ele>317.0</ele><time>2026-05-02T09:19:49.289Z</time></trkpt><trkpt lat="42.21491" lon="13.8226033"><ele>317.0</ele><time>2026-05-02T09:19:50.289Z</time></trkpt><trkpt lat="42.21483" lon="13.8226633"><ele>317.0</ele><time>2026-05-02T09:19:51.289Z</time></trkpt><trkpt lat="42.2147633" lon="13.8227017"><ele>317.0</ele><time>2026-05-02T09:19:52.29Z</time></trkpt><trkpt lat="42.2146783" lon="13.82273"><ele>317.0</ele><time>2026-05-02T09:19:53.29Z</time></trkpt><trkpt lat="42.2145883" lon="13.8227433"><ele>317.0</ele><time>2026-05-02T09:19:54.289Z</time></trkpt><trkpt lat="42.21449" lon="13.822745"><ele>317.0</ele><time>2026-05-02T09:19:55.289Z</time></trkpt><trkpt lat="42.2144067" lon="13.8226883"><ele>317.0</ele><time>2026-05-02T09:19:56.289Z</time></trkpt><trkpt lat="42.2143317" lon="13.8226267"><ele>317.0</ele><time>2026-05-02T09:19:57.29Z</time></trkpt><trkpt lat="42.2142583" lon="13.82256"><ele>317.0</ele><time>2026-05-02T09:19:58.289Z</time></trkpt><trkpt lat="42.21421" lon="13.8224867"><ele>317.0</ele><time>2026-05-02T09:19:59.289Z</time></trkpt><trkpt lat="42.2141683" lon="13.8223983"><ele>317.0</ele><time>2026-05-02T09:20:00.289Z</time></trkpt><trkpt lat="42.21413" lon="13.8223217"><ele>317.0</ele><time>2026-05-02T09:20:01.289Z</time></trkpt><trkpt lat="42.2140733" lon="13.822205"><ele>317.0</ele><time>2026-05-02T09:20:03.289Z</time></trkpt><trkpt lat="42.2140483" lon="13.8221"><ele>317.0</ele><time>2026-05-02T09:20:06.289Z</time></trkpt><trkpt lat="42.214105" lon="13.82199"><ele>317.0</ele><time>2026-05-02T09:20:10.289Z</time></trkpt><trkpt lat="42.21419" lon="13.8219033"><ele>317.0</ele><time>2026-05-02T09:20:12.29Z</time></trkpt><trkpt lat="42.214275" lon="13.821815"><ele>317.0</ele><time>2026-05-02T09:20:14.289Z</time></trkpt><trkpt lat="42.21436" lon="13.8217017"><ele>317.0</ele><time>2026-05-02T09:20:16.289Z</time></trkpt><trkpt lat="42.21445" lon="13.8215867"><ele>317.33333333333337</ele><time>2026-05-02T09:20:18.29Z</time></trkpt><trkpt lat="42.2145083" lon="13.8214967"><ele>317.6666666666667</ele><time>2026-05-02T09:20:20.289Z</time></trkpt><trkpt lat="42.2145583" lon="13.82144"><ele>318.0</ele><time>2026-05-02T09:20:29.289Z</time></trkpt><trkpt lat="42.2146133" lon="13.8213733"><ele>318.3333333333333</ele><time>2026-05-02T09:20:31.289Z</time></trkpt><trkpt lat="42.2146617" lon="13.8213133"><ele>318.66666666666663</ele><time>2026-05-02T09:20:33.289Z</time></trkpt><trkpt lat="42.2147133" lon="13.8212233"><ele>319.0</ele><time>2026-05-02T09:20:35.289Z</time></trkpt><trkpt lat="42.2147717" lon="13.8211217"><ele>319.0</ele><time>2026-05-02T09:20:37.29Z</time></trkpt><trkpt lat="42.2148317" lon="13.8210233"><ele>319.0</ele><time>2026-05-02T09:20:39.289Z</time></trkpt><trkpt lat="42.2149083" lon="13.8208983"><ele>319.0</ele><time>2026-05-02T09:20:41.289Z</time></trkpt><trkpt lat="42.2149667" lon="13.820795"><ele>319.0</ele><time>2026-05-02T09:20:43.289Z</time></trkpt><trkpt lat="42.215" lon="13.8206933"><ele>319.0</ele><time>2026-05-02T09:20:45.289Z</time></trkpt><trkpt lat="42.2149883" lon="13.8205983"><ele>319.0</ele><time>2026-05-02T09:20:47.289Z</time></trkpt><trkpt lat="42.2149517" lon="13.8205133"><ele>319.0</ele><time>2026-05-02T09:20:50.289Z</time></trkpt><trkpt lat="42.21491" lon="13.8203433"><ele>319.0</ele><time>2026-05-02T09:22:13.29Z</time></trkpt><trkpt lat="42.2150017" lon="13.820175"><ele>319.0</ele><time>2026-05-02T09:22:33.289Z</time></trkpt><trkpt lat="42.2150833" lon="13.8202133"><ele>319.0</ele><time>2026-05-02T09:22:36.289Z</time></trkpt><trkpt lat="42.215065" lon="13.82032"><ele>319.0</ele><time>2026-05-02T09:22:39.289Z</time></trkpt><trkpt lat="42.21502" lon="13.820415"><ele>319.0</ele><time>2026-05-02T09:22:43.289Z</time></trkpt><trkpt lat="42.2149733" lon="13.8204933"><ele>319.0</ele><time>2026-05-02T09:22:46.289Z</time></trkpt><trkpt lat="42.215" lon="13.8203667"><ele>319.0</ele><time>2026-05-02T09:24:40.289Z</time></trkpt><trkpt lat="42.215035" lon="13.8202617"><ele>319.0</ele><time>2026-05-02T09:24:42.289Z</time></trkpt><trkpt lat="42.2149867" lon="13.8201733"><ele>319.0</ele><time>2026-05-02T09:24:44.289Z</time></trkpt><trkpt lat="42.214915" lon="13.8202467"><ele>319.0</ele><time>2026-05-02T09:24:47.289Z</time></trkpt><trkpt lat="42.21498" lon="13.82021"><ele>319.0</ele><time>2026-05-02T09:27:40.289Z</time></trkpt><trkpt lat="42.2150483" lon="13.8202017"><ele>319.0</ele><time>2026-05-02T09:27:44.289Z</time></trkpt><trkpt lat="42.2151067" lon="13.8202483"><ele>319.0</ele><time>2026-05-02T09:28:12.289Z</time></trkpt><trkpt lat="42.2151867" lon="13.820315"><ele>319.0</ele><time>2026-05-02T09:28:15.289Z</time></trkpt><trkpt lat="42.21526" lon="13.8203517"><ele>319.0</ele><time>2026-05-02T09:28:50.289Z</time></trkpt><trkpt lat="42.2153533" lon="13.8203033"><ele>319.0</ele><time>2026-05-02T09:28:52.289Z</time></trkpt><trkpt lat="42.2154083" lon="13.8202517"><ele>319.0</ele><time>2026-05-02T09:28:53.29Z</time></trkpt><trkpt lat="42.2154583" lon="13.8201783"><ele>319.0</ele><time>2026-05-02T09:28:54.289Z</time></trkpt><trkpt lat="42.2155067" lon="13.8200883"><ele>319.0</ele><time>2026-05-02T09:28:55.289Z</time></trkpt><trkpt lat="42.21556" lon="13.8200017"><ele>319.0</ele><time>2026-05-02T09:28:56.289Z</time></trkpt><trkpt lat="42.2156133" lon="13.8199083"><ele>319.0</ele><time>2026-05-02T09:28:57.289Z</time></trkpt><trkpt lat="42.2156733" lon="13.8198083"><ele>319.0</ele><time>2026-05-02T09:28:58.289Z</time></trkpt><trkpt lat="42.21573" lon="13.8197067"><ele>319.0</ele><time>2026-05-02T09:28:59.289Z</time></trkpt><trkpt lat="42.2157933" lon="13.8196017"><ele>319.0</ele><time>2026-05-02T09:29:00.289Z</time></trkpt><trkpt lat="42.215865" lon="13.8195"><ele>319.0</ele><time>2026-05-02T09:29:01.289Z</time></trkpt><trkpt lat="42.2159233" lon="13.8194183"><ele>319.0</ele><time>2026-05-02T09:29:02.289Z</time></trkpt><trkpt lat="42.2159833" lon="13.81933"><ele>319.16666666666663</ele><time>2026-05-02T09:29:03.289Z</time></trkpt><trkpt lat="42.216035" lon="13.8192433"><ele>319.3333333333333</ele><time>2026-05-02T09:29:04.289Z</time></trkpt><trkpt lat="42.2160967" lon="13.8191517"><ele>319.5</ele><time>2026-05-02T09:29:05.289Z</time></trkpt><trkpt lat="42.2161583" lon="13.819055"><ele>319.6666666666667</ele><time>2026-05-02T09:29:06.289Z</time></trkpt><trkpt lat="42.21621" lon="13.8189633"><ele>319.83333333333337</ele><time>2026-05-02T09:29:07.289Z</time></trkpt><trkpt lat="42.2162383" lon="13.8188717"><ele>320.0</ele><time>2026-05-02T09:29:08.289Z</time></trkpt><trkpt lat="42.2162567" lon="13.8187667"><ele>320.0</ele><time>2026-05-02T09:29:09.289Z</time></trkpt><trkpt lat="42.2162567" lon="13.8186617"><ele>320.0</ele><time>2026-05-02T09:29:10.289Z</time></trkpt><trkpt lat="42.216255" lon="13.8185567"><ele>320.0</ele><time>2026-05-02T09:29:11.29Z</time></trkpt><trkpt lat="42.216245" lon="13.818465"><ele>320.0</ele><time>2026-05-02T09:29:12.289Z</time></trkpt><trkpt lat="42.2162483" lon="13.8183783"><ele>320.0</ele><time>2026-05-02T09:29:13.289Z</time></trkpt><trkpt lat="42.21629" lon="13.81824"><ele>320.0</ele><time>2026-05-02T09:29:15.289Z</time></trkpt><trkpt lat="42.2163383" lon="13.8181683"><ele>319.6</ele><time>2026-05-02T09:29:16.289Z</time></trkpt><trkpt lat="42.2164067" lon="13.8180833"><ele>319.2</ele><time>2026-05-02T09:29:17.289Z</time></trkpt><trkpt lat="42.2164867" lon="13.8180083"><ele>318.8</ele><time>2026-05-02T09:29:18.289Z</time></trkpt><trkpt lat="42.21657" lon="13.817935"><ele>318.4</ele><time>2026-05-02T09:29:19.289Z</time></trkpt><trkpt lat="42.2166533" lon="13.8178667"><ele>318.0</ele><time>2026-05-02T09:29:20.289Z</time></trkpt><trkpt lat="42.216745" lon="13.8177917"><ele>318.0</ele><time>2026-05-02T09:29:21.289Z</time></trkpt><trkpt lat="42.216845" lon="13.8177183"><ele>318.0</ele><time>2026-05-02T09:29:22.289Z</time></trkpt><trkpt lat="42.2169517" lon="13.8176533"><ele>318.0</ele><time>2026-05-02T09:29:23.289Z</time></trkpt><trkpt lat="42.21706" lon="13.817595"><ele>318.0</ele><time>2026-05-02T09:29:24.289Z</time></trkpt><trkpt lat="42.2171783" lon="13.8175317"><ele>318.25</ele><time>2026-05-02T09:29:25.289Z</time></trkpt><trkpt lat="42.2173033" lon="13.817475"><ele>318.5</ele><time>2026-05-02T09:29:26.289Z</time></trkpt><trkpt lat="42.2174283" lon="13.8174333"><ele>318.75</ele><time>2026-05-02T09:29:27.29Z</time></trkpt><trkpt lat="42.2175667" lon="13.817395"><ele>319.0</ele><time>2026-05-02T09:29:28.289Z</time></trkpt><trkpt lat="42.2177067" lon="13.8173633"><ele>319.0</ele><time>2026-05-02T09:29:29.289Z</time></trkpt><trkpt lat="42.2178383" lon="13.8173317"><ele>319.0</ele><time>2026-05-02T09:29:30.289Z</time></trkpt><trkpt lat="42.21797" lon="13.8172967"><ele>319.0</ele><time>2026-05-02T09:29:31.289Z</time></trkpt><trkpt lat="42.2181083" lon="13.8172583"><ele>319.0</ele><time>2026-05-02T09:29:32.289Z</time></trkpt><trkpt lat="42.2182517" lon="13.8172283"><ele>318.66666666666663</ele><time>2026-05-02T09:29:33.289Z</time></trkpt><trkpt lat="42.218395" lon="13.8172067"><ele>318.3333333333333</ele><time>2026-05-02T09:29:34.289Z</time></trkpt><trkpt lat="42.2185483" lon="13.81718"><ele>318.0</ele><time>2026-05-02T09:29:35.289Z</time></trkpt><trkpt lat="42.2187033" lon="13.8171467"><ele>318.0</ele><time>2026-05-02T09:29:36.289Z</time></trkpt><trkpt lat="42.2188617" lon="13.81711"><ele>318.0</ele><time>2026-05-02T09:29:37.289Z</time></trkpt><trkpt lat="42.2190183" lon="13.8170967"><ele>318.0</ele><time>2026-05-02T09:29:38.289Z</time></trkpt><trkpt lat="42.2191667" lon="13.8170733"><ele>318.3333333333333</ele><time>2026-05-02T09:29:39.289Z</time></trkpt><trkpt lat="42.2193317" lon="13.81705"><ele>318.66666666666663</ele><time>2026-05-02T09:29:40.289Z</time></trkpt><trkpt lat="42.2194867" lon="13.81703"><ele>319.0</ele><time>2026-05-02T09:29:41.289Z</time></trkpt><trkpt lat="42.21964" lon="13.8170283"><ele>319.0</ele><time>2026-05-02T09:29:42.289Z</time></trkpt><trkpt lat="42.2197933" lon="13.8170283"><ele>319.0</ele><time>2026-05-02T09:29:43.289Z</time></trkpt><trkpt lat="42.219955" lon="13.8170417"><ele>319.0</ele><time>2026-05-02T09:29:44.289Z</time></trkpt><trkpt lat="42.2201133" lon="13.8170683"><ele>318.66666666666663</ele><time>2026-05-02T09:29:45.289Z</time></trkpt><trkpt lat="42.2202817" lon="13.8171067"><ele>318.3333333333333</ele><time>2026-05-02T09:29:46.289Z</time></trkpt><trkpt lat="42.2204533" lon="13.817155"><ele>318.0</ele><time>2026-05-02T09:29:47.289Z</time></trkpt><trkpt lat="42.2206233" lon="13.8172017"><ele>317.6666666666667</ele><time>2026-05-02T09:29:48.289Z</time></trkpt><trkpt lat="42.22079" lon="13.8172533"><ele>317.33333333333337</ele><time>2026-05-02T09:29:49.289Z</time></trkpt><trkpt lat="42.2209417" lon="13.817295"><ele>317.0</ele><time>2026-05-02T09:29:50.289Z</time></trkpt><trkpt lat="42.22109" lon="13.81735"><ele>317.0</ele><time>2026-05-02T09:29:51.289Z</time></trkpt><trkpt lat="42.221235" lon="13.8173967"><ele>317.0</ele><time>2026-05-02T09:29:52.289Z</time></trkpt><trkpt lat="42.2213817" lon="13.8174317"><ele>317.0</ele><time>2026-05-02T09:29:53.289Z</time></trkpt><trkpt lat="42.2215267" lon="13.8174583"><ele>317.0</ele><time>2026-05-02T09:29:54.289Z</time></trkpt><trkpt lat="42.2216833" lon="13.8174717"><ele>317.0</ele><time>2026-05-02T09:29:55.29Z</time></trkpt><trkpt lat="42.2218383" lon="13.817465"><ele>317.0</ele><time>2026-05-02T09:29:56.289Z</time></trkpt><trkpt lat="42.2219883" lon="13.8174517"><ele>317.0</ele><time>2026-05-02T09:29:57.289Z</time></trkpt><trkpt lat="42.22215" lon="13.817425"><ele>318.0</ele><time>2026-05-02T09:29:58.289Z</time></trkpt><trkpt lat="42.2223233" lon="13.8173883"><ele>319.0</ele><time>2026-05-02T09:29:59.289Z</time></trkpt><trkpt lat="42.2225" lon="13.8173333"><ele>320.0</ele><time>2026-05-02T09:30:00.289Z</time></trkpt><trkpt lat="42.2226733" lon="13.8172683"><ele>320.0</ele><time>2026-05-02T09:30:01.289Z</time></trkpt><trkpt lat="42.222845" lon="13.8171867"><ele>320.0</ele><time>2026-05-02T09:30:02.289Z</time></trkpt><trkpt lat="42.22302" lon="13.8170917"><ele>320.0</ele><time>2026-05-02T09:30:03.289Z</time></trkpt><trkpt lat="42.2231783" lon="13.8169867"><ele>320.33333333333337</ele><time>2026-05-02T09:30:04.289Z</time></trkpt><trkpt lat="42.2233367" lon="13.8168633"><ele>320.6666666666667</ele><time>2026-05-02T09:30:05.289Z</time></trkpt><trkpt lat="42.2235" lon="13.8167283"><ele>321.0</ele><time>2026-05-02T09:30:06.289Z</time></trkpt><trkpt lat="42.2236667" lon="13.8165833"><ele>321.0</ele><time>2026-05-02T09:30:07.289Z</time></trkpt><trkpt lat="42.223825" lon="13.81644"><ele>321.0</ele><time>2026-05-02T09:30:08.29Z</time></trkpt><trkpt lat="42.224" lon="13.8162917"><ele>321.0</ele><time>2026-05-02T09:30:09.29Z</time></trkpt><trkpt lat="42.2241683" lon="13.8161633"><ele>320.6666666666667</ele><time>2026-05-02T09:30:10.29Z</time></trkpt><trkpt lat="42.2243383" lon="13.81603"><ele>320.33333333333337</ele><time>2026-05-02T09:30:11.289Z</time></trkpt><trkpt lat="42.2244883" lon="13.815905"><ele>320.0</ele><time>2026-05-02T09:30:12.289Z</time></trkpt><trkpt lat="42.2246483" lon="13.8157833"><ele>320.0</ele><time>2026-05-02T09:30:13.289Z</time></trkpt><trkpt lat="42.2248017" lon="13.8156717"><ele>320.0</ele><time>2026-05-02T09:30:14.289Z</time></trkpt><trkpt lat="42.2249633" lon="13.8155817"><ele>320.0</ele><time>2026-05-02T09:30:15.289Z</time></trkpt><trkpt lat="42.2251333" lon="13.815505"><ele>319.0</ele><time>2026-05-02T09:30:16.289Z</time></trkpt><trkpt lat="42.2253017" lon="13.815445"><ele>318.0</ele><time>2026-05-02T09:30:17.289Z</time></trkpt><trkpt lat="42.22548" lon="13.8153883"><ele>317.0</ele><time>2026-05-02T09:30:18.289Z</time></trkpt><trkpt lat="42.2256617" lon="13.815335"><ele>317.0</ele><time>2026-05-02T09:30:19.289Z</time></trkpt><trkpt lat="42.2258567" lon="13.815275"><ele>317.0</ele><time>2026-05-02T09:30:20.289Z</time></trkpt><trkpt lat="42.226045" lon="13.8152183"><ele>317.0</ele><time>2026-05-02T09:30:21.289Z</time></trkpt><trkpt lat="42.226235" lon="13.815165"><ele>319.0</ele><time>2026-05-02T09:30:22.289Z</time></trkpt><trkpt lat="42.2264283" lon="13.8151067"><ele>321.0</ele><time>2026-05-02T09:30:23.289Z</time></trkpt><trkpt lat="42.226615" lon="13.8150617"><ele>323.0</ele><time>2026-05-02T09:30:24.289Z</time></trkpt><trkpt lat="42.2268" lon="13.8150167"><ele>323.0</ele><time>2026-05-02T09:30:25.289Z</time></trkpt><trkpt lat="42.226995" lon="13.8149783"><ele>323.0</ele><time>2026-05-02T09:30:26.289Z</time></trkpt><trkpt lat="42.2271767" lon="13.8149467"><ele>323.0</ele><time>2026-05-02T09:30:27.289Z</time></trkpt><trkpt lat="42.2273633" lon="13.81492"><ele>321.6666666666667</ele><time>2026-05-02T09:30:28.289Z</time></trkpt><trkpt lat="42.2275533" lon="13.8148917"><ele>320.3333333333333</ele><time>2026-05-02T09:30:29.29Z</time></trkpt><trkpt lat="42.22775" lon="13.8148617"><ele>319.0</ele><time>2026-05-02T09:30:30.289Z</time></trkpt><trkpt lat="42.2279317" lon="13.814835"><ele>319.0</ele><time>2026-05-02T09:30:31.289Z</time></trkpt><trkpt lat="42.228115" lon="13.8148183"><ele>319.0</ele><time>2026-05-02T09:30:32.289Z</time></trkpt><trkpt lat="42.2283" lon="13.814795"><ele>319.0</ele><time>2026-05-02T09:30:33.289Z</time></trkpt><trkpt lat="42.2284767" lon="13.8147683"><ele>319.0</ele><time>2026-05-02T09:30:34.29Z</time></trkpt><trkpt lat="42.2286533" lon="13.814735"><ele>319.0</ele><time>2026-05-02T09:30:35.289Z</time></trkpt><trkpt lat="42.2288" lon="13.8147217"><ele>319.0</ele><time>2026-05-02T09:30:36.289Z</time></trkpt><trkpt lat="42.228925" lon="13.8147083"><ele>319.3333333333333</ele><time>2026-05-02T09:30:37.289Z</time></trkpt><trkpt lat="42.2290317" lon="13.8147133"><ele>319.66666666666663</ele><time>2026-05-02T09:30:38.29Z</time></trkpt><trkpt lat="42.229125" lon="13.8147133"><ele>320.0</ele><time>2026-05-02T09:30:39.289Z</time></trkpt><trkpt lat="42.2292" lon="13.8147033"><ele>320.3333333333333</ele><time>2026-05-02T09:30:40.289Z</time></trkpt><trkpt lat="42.2292783" lon="13.814695"><ele>320.6666666666667</ele><time>2026-05-02T09:30:42.289Z</time></trkpt><trkpt lat="42.22932" lon="13.814625"><ele>321.0</ele><time>2026-05-02T09:30:54.289Z</time></trkpt><trkpt lat="42.2292317" lon="13.8146033"><ele>321.0</ele><time>2026-05-02T09:30:56.289Z</time></trkpt><trkpt lat="42.229145" lon="13.814615"><ele>321.0</ele><time>2026-05-02T09:30:57.289Z</time></trkpt><trkpt lat="42.229035" lon="13.8146417"><ele>321.0</ele><time>2026-05-02T09:30:58.289Z</time></trkpt><trkpt lat="42.2289317" lon="13.8146533"><ele>321.0</ele><time>2026-05-02T09:30:59.289Z</time></trkpt><trkpt lat="42.22884" lon="13.8146633"><ele>321.0</ele><time>2026-05-02T09:31:00.289Z</time></trkpt><trkpt lat="42.2287633" lon="13.8146867"><ele>321.0</ele><time>2026-05-02T09:31:01.289Z</time></trkpt><trkpt lat="42.2286933" lon="13.8147617"><ele>321.0</ele><time>2026-05-02T09:31:03.289Z</time></trkpt><trkpt lat="42.22875" lon="13.8148533"><ele>321.0</ele><time>2026-05-02T09:31:06.289Z</time></trkpt><trkpt lat="42.2288167" lon="13.8148817"><ele>321.0</ele><time>2026-05-02T09:31:07.289Z</time></trkpt><trkpt lat="42.2288983" lon="13.814915"><ele>321.0</ele><time>2026-05-02T09:31:08.29Z</time></trkpt><trkpt lat="42.2290083" lon="13.81496"><ele>321.0</ele><time>2026-05-02T09:31:09.289Z</time></trkpt><trkpt lat="42.22912" lon="13.8150083"><ele>321.0</ele><time>2026-05-02T09:31:10.289Z</time></trkpt><trkpt lat="42.2292183" lon="13.8150633"><ele>321.0</ele><time>2026-05-02T09:31:11.289Z</time></trkpt><trkpt lat="42.2293083" lon="13.8150967"><ele>321.0</ele><time>2026-05-02T09:31:12.29Z</time></trkpt><trkpt lat="42.2293767" lon="13.8151267"><ele>321.0</ele><time>2026-05-02T09:31:13.289Z</time></trkpt><trkpt lat="42.2294667" lon="13.8151683"><ele>321.0</ele><time>2026-05-02T09:31:15.289Z</time></trkpt><trkpt lat="42.2295383" lon="13.8152367"><ele>320.40000000000003</ele><time>2026-05-02T09:31:17.289Z</time></trkpt><trkpt lat="42.2296233" lon="13.8153667"><ele>319.8</ele><time>2026-05-02T09:31:19.289Z</time></trkpt><trkpt lat="42.2296767" lon="13.815455"><ele>319.20000000000005</ele><time>2026-05-02T09:31:20.289Z</time></trkpt><trkpt lat="42.22974" lon="13.8155533"><ele>318.6</ele><time>2026-05-02T09:31:21.289Z</time></trkpt><trkpt lat="42.2297917" lon="13.8156383"><ele>318.0</ele><time>2026-05-02T09:31:22.289Z</time></trkpt><trkpt lat="42.2298383" lon="13.8157183"><ele>318.0</ele><time>2026-05-02T09:31:23.289Z</time></trkpt><trkpt lat="42.22989" lon="13.8157967"><ele>318.0</ele><time>2026-05-02T09:31:24.289Z</time></trkpt><trkpt lat="42.2299283" lon="13.8158683"><ele>318.0</ele><time>2026-05-02T09:31:25.289Z</time></trkpt><trkpt lat="42.22996" lon="13.81604"><ele>318.0</ele><time>2026-05-02T09:31:27.289Z</time></trkpt><trkpt lat="42.2299567" lon="13.816145"><ele>318.0</ele><time>2026-05-02T09:31:28.29Z</time></trkpt><trkpt lat="42.2299417" lon="13.8162717"><ele>318.0</ele><time>2026-05-02T09:31:29.289Z</time></trkpt><trkpt lat="42.2299283" lon="13.8163867"><ele>317.6666666666667</ele><time>2026-05-02T09:31:30.289Z</time></trkpt><trkpt lat="42.2299183" lon="13.8165"><ele>317.3333333333333</ele><time>2026-05-02T09:31:31.29Z</time></trkpt><trkpt lat="42.2299233" lon="13.8165983"><ele>317.0</ele><time>2026-05-02T09:31:32.289Z</time></trkpt><trkpt lat="42.2299317" lon="13.8166933"><ele>316.66666666666663</ele><time>2026-05-02T09:31:33.289Z</time></trkpt><trkpt lat="42.2299467" lon="13.8167867"><ele>316.3333333333333</ele><time>2026-05-02T09:31:34.289Z</time></trkpt><trkpt lat="42.2299567" lon="13.8168867"><ele>316.0</ele><time>2026-05-02T09:31:35.289Z</time></trkpt><trkpt lat="42.2299717" lon="13.8169933"><ele>315.66666666666663</ele><time>2026-05-02T09:31:36.289Z</time></trkpt><trkpt lat="42.22999" lon="13.817095"><ele>315.3333333333333</ele><time>2026-05-02T09:31:37.289Z</time></trkpt><trkpt lat="42.23" lon="13.8172033"><ele>315.0</ele><time>2026-05-02T09:31:38.289Z</time></trkpt><trkpt lat="42.23001" lon="13.8173217"><ele>314.6666666666667</ele><time>2026-05-02T09:31:39.289Z</time></trkpt><trkpt lat="42.230025" lon="13.817425"><ele>314.33333333333337</ele><time>2026-05-02T09:31:40.289Z</time></trkpt><trkpt lat="42.2300333" lon="13.817525"><ele>314.0</ele><time>2026-05-02T09:31:41.289Z</time></trkpt><trkpt lat="42.2300483" lon="13.817635"><ele>314.25</ele><time>2026-05-02T09:31:42.289Z</time></trkpt><trkpt lat="42.2300617" lon="13.817765"><ele>314.5</ele><time>2026-05-02T09:31:43.289Z</time></trkpt><trkpt lat="42.2300717" lon="13.8179267"><ele>314.75</ele><time>2026-05-02T09:31:44.289Z</time></trkpt><trkpt lat="42.230085" lon="13.8180967"><ele>315.0</ele><time>2026-05-02T09:31:45.29Z</time></trkpt><trkpt lat="42.2300983" lon="13.8182633"><ele>315.0</ele><time>2026-05-02T09:31:46.289Z</time></trkpt><trkpt lat="42.2301183" lon="13.81843"><ele>315.0</ele><time>2026-05-02T09:31:47.289Z</time></trkpt><trkpt lat="42.2301217" lon="13.8186117"><ele>315.0</ele><time>2026-05-02T09:31:48.289Z</time></trkpt><trkpt lat="42.230125" lon="13.81881"><ele>315.0</ele><time>2026-05-02T09:31:49.289Z</time></trkpt><trkpt lat="42.2301317" lon="13.8189983"><ele>315.0</ele><time>2026-05-02T09:31:50.289Z</time></trkpt><trkpt lat="42.23014" lon="13.8191667"><ele>315.0</ele><time>2026-05-02T09:31:51.289Z</time></trkpt><trkpt lat="42.2301417" lon="13.8193167"><ele>315.0</ele><time>2026-05-02T09:31:52.289Z</time></trkpt><trkpt lat="42.2301483" lon="13.819435"><ele>315.0</ele><time>2026-05-02T09:31:53.289Z</time></trkpt><trkpt lat="42.2301517" lon="13.8195233"><ele>315.0</ele><time>2026-05-02T09:31:54.289Z</time></trkpt><trkpt lat="42.2301567" lon="13.8196217"><ele>315.6</ele><time>2026-05-02T09:31:56.29Z</time></trkpt><trkpt lat="42.2302533" lon="13.81966"><ele>316.2</ele><time>2026-05-02T09:32:01.29Z</time></trkpt><trkpt lat="42.2303217" lon="13.8196483"><ele>316.8</ele><time>2026-05-02T09:32:02.289Z</time></trkpt><trkpt lat="42.230415" lon="13.8196233"><ele>317.4</ele><time>2026-05-02T09:32:03.289Z</time></trkpt><trkpt lat="42.2305317" lon="13.8195933"><ele>318.0</ele><time>2026-05-02T09:32:04.289Z</time></trkpt><trkpt lat="42.2306483" lon="13.8195783"><ele>319.75</ele><time>2026-05-02T09:32:05.289Z</time></trkpt><trkpt lat="42.230775" lon="13.81956"><ele>321.5</ele><time>2026-05-02T09:32:06.289Z</time></trkpt><trkpt lat="42.2308883" lon="13.8195383"><ele>323.25</ele><time>2026-05-02T09:32:07.29Z</time></trkpt><trkpt lat="42.23101" lon="13.81951"><ele>325.0</ele><time>2026-05-02T09:32:08.289Z</time></trkpt><trkpt lat="42.23113" lon="13.8194667"><ele>325.0</ele><time>2026-05-02T09:32:09.29Z</time></trkpt><trkpt lat="42.2312417" lon="13.8194067"><ele>325.0</ele><time>2026-05-02T09:32:10.29Z</time></trkpt><trkpt lat="42.23135" lon="13.81933"><ele>325.0</ele><time>2026-05-02T09:32:11.29Z</time></trkpt><trkpt lat="42.2314583" lon="13.819255"><ele>325.0</ele><time>2026-05-02T09:32:12.289Z</time></trkpt><trkpt lat="42.2315817" lon="13.8191783"><ele>323.75</ele><time>2026-05-02T09:32:13.289Z</time></trkpt><trkpt lat="42.2317133" lon="13.8191183"><ele>322.5</ele><time>2026-05-02T09:32:14.289Z</time></trkpt><trkpt lat="42.2318517" lon="13.8190783"><ele>321.25</ele><time>2026-05-02T09:32:15.29Z</time></trkpt><trkpt lat="42.2319967" lon="13.8190567"><ele>320.0</ele><time>2026-05-02T09:32:16.289Z</time></trkpt><trkpt lat="42.2321417" lon="13.8190467"><ele>320.0</ele><time>2026-05-02T09:32:17.289Z</time></trkpt><trkpt lat="42.2322917" lon="13.8190433"><ele>320.0</ele><time>2026-05-02T09:32:18.289Z</time></trkpt><trkpt lat="42.232445" lon="13.8190433"><ele>320.0</ele><time>2026-05-02T09:32:19.289Z</time></trkpt><trkpt lat="42.23259" lon="13.8190333"><ele>320.0</ele><time>2026-05-02T09:32:20.289Z</time></trkpt><trkpt lat="42.2327283" lon="13.8190183"><ele>320.25</ele><time>2026-05-02T09:32:21.289Z</time></trkpt><trkpt lat="42.2328667" lon="13.8189933"><ele>320.5</ele><time>2026-05-02T09:32:22.289Z</time></trkpt><trkpt lat="42.23301" lon="13.8189533"><ele>320.75</ele><time>2026-05-02T09:32:23.289Z</time></trkpt><trkpt lat="42.2331417" lon="13.8188917"><ele>321.0</ele><time>2026-05-02T09:32:24.289Z</time></trkpt><trkpt lat="42.23328" lon="13.8188283"><ele>323.5</ele><time>2026-05-02T09:32:25.289Z</time></trkpt><trkpt lat="42.2334133" lon="13.8187617"><ele>326.0</ele><time>2026-05-02T09:32:26.289Z</time></trkpt><trkpt lat="42.2335433" lon="13.8186933"><ele>328.5</ele><time>2026-05-02T09:32:27.289Z</time></trkpt><trkpt lat="42.23368" lon="13.818615"><ele>331.0</ele><time>2026-05-02T09:32:28.289Z</time></trkpt><trkpt lat="42.2338217" lon="13.81852"><ele>329.3333333333333</ele><time>2026-05-02T09:32:29.289Z</time></trkpt><trkpt lat="42.2339633" lon="13.8184317"><ele>327.6666666666667</ele><time>2026-05-02T09:32:30.289Z</time></trkpt><trkpt lat="42.2340967" lon="13.818345"><ele>326.0</ele><time>2026-05-02T09:32:31.289Z</time></trkpt><trkpt lat="42.2342367" lon="13.818255"><ele>326.0</ele><time>2026-05-02T09:32:32.29Z</time></trkpt><trkpt lat="42.2343817" lon="13.8181467"><ele>326.0</ele><time>2026-05-02T09:32:33.289Z</time></trkpt><trkpt lat="42.2345183" lon="13.81801"><ele>326.0</ele><time>2026-05-02T09:32:34.289Z</time></trkpt><trkpt lat="42.234645" lon="13.8178617"><ele>326.0</ele><time>2026-05-02T09:32:35.289Z</time></trkpt><trkpt lat="42.2347683" lon="13.8176983"><ele>326.0</ele><time>2026-05-02T09:32:36.289Z</time></trkpt><trkpt lat="42.2348717" lon="13.8175267"><ele>326.0</ele><time>2026-05-02T09:32:37.29Z</time></trkpt><trkpt lat="42.23496" lon="13.8173683"><ele>324.75</ele><time>2026-05-02T09:32:38.289Z</time></trkpt><trkpt lat="42.2350433" lon="13.817205"><ele>323.5</ele><time>2026-05-02T09:32:39.289Z</time></trkpt><trkpt lat="42.235115" lon="13.817055"><ele>322.25</ele><time>2026-05-02T09:32:40.289Z</time></trkpt><trkpt lat="42.2351767" lon="13.816925"><ele>321.0</ele><time>2026-05-02T09:32:41.289Z</time></trkpt><trkpt lat="42.2352233" lon="13.8168117"><ele>320.5</ele><time>2026-05-02T09:32:42.289Z</time></trkpt><trkpt lat="42.23526" lon="13.8167233"><ele>320.0</ele><time>2026-05-02T09:32:43.289Z</time></trkpt><trkpt lat="42.2352983" lon="13.8166417"><ele>319.5</ele><time>2026-05-02T09:32:44.289Z</time></trkpt><trkpt lat="42.235335" lon="13.8165683"><ele>319.0</ele><time>2026-05-02T09:32:45.289Z</time></trkpt><trkpt lat="42.235385" lon="13.8164867"><ele>318.5</ele><time>2026-05-02T09:32:46.289Z</time></trkpt><trkpt lat="42.23544" lon="13.8164083"><ele>318.0</ele><time>2026-05-02T09:32:47.289Z</time></trkpt><trkpt lat="42.235515" lon="13.8163433"><ele>318.0</ele><time>2026-05-02T09:32:48.289Z</time></trkpt><trkpt lat="42.2356033" lon="13.8162817"><ele>318.0</ele><time>2026-05-02T09:32:49.289Z</time></trkpt><trkpt lat="42.2357017" lon="13.8162333"><ele>318.0</ele><time>2026-05-02T09:32:50.289Z</time></trkpt><trkpt lat="42.2358233" lon="13.8162033"><ele>318.0</ele><time>2026-05-02T09:32:51.289Z</time></trkpt><trkpt lat="42.23594" lon="13.8162167"><ele>318.0</ele><time>2026-05-02T09:32:52.289Z</time></trkpt><trkpt lat="42.236045" lon="13.81625"><ele>318.5</ele><time>2026-05-02T09:32:53.289Z</time></trkpt><trkpt lat="42.236155" lon="13.8163267"><ele>319.0</ele><time>2026-05-02T09:32:54.289Z</time></trkpt><trkpt lat="42.2362717" lon="13.81642"><ele>319.5</ele><time>2026-05-02T09:32:55.289Z</time></trkpt><trkpt lat="42.2363867" lon="13.816515"><ele>320.0</ele><time>2026-05-02T09:32:56.289Z</time></trkpt><trkpt lat="42.236515" lon="13.8166017"><ele>320.0</ele><time>2026-05-02T09:32:57.289Z</time></trkpt><trkpt lat="42.2366417" lon="13.816675"><ele>320.0</ele><time>2026-05-02T09:32:58.289Z</time></trkpt><trkpt lat="42.2367567" lon="13.816715"><ele>320.0</ele><time>2026-05-02T09:32:59.289Z</time></trkpt><trkpt lat="42.236885" lon="13.8167383"><ele>320.0</ele><time>2026-05-02T09:33:00.29Z</time></trkpt><trkpt lat="42.2370233" lon="13.8167367"><ele>320.0</ele><time>2026-05-02T09:33:01.29Z</time></trkpt><trkpt lat="42.237165" lon="13.8167117"><ele>320.0</ele><time>2026-05-02T09:33:02.289Z</time></trkpt><trkpt lat="42.2373167" lon="13.8166583"><ele>320.0</ele><time>2026-05-02T09:33:03.29Z</time></trkpt><trkpt lat="42.2375" lon="13.8165767"><ele>319.6666666666667</ele><time>2026-05-02T09:33:04.289Z</time></trkpt><trkpt lat="42.2376817" lon="13.8164867"><ele>319.3333333333333</ele><time>2026-05-02T09:33:05.289Z</time></trkpt><trkpt lat="42.237845" lon="13.816395"><ele>319.0</ele><time>2026-05-02T09:33:06.289Z</time></trkpt><trkpt lat="42.238" lon="13.8163067"><ele>319.0</ele><time>2026-05-02T09:33:07.289Z</time></trkpt><trkpt lat="42.2381367" lon="13.8162383"><ele>319.0</ele><time>2026-05-02T09:33:08.289Z</time></trkpt><trkpt lat="42.2382633" lon="13.8161817"><ele>319.0</ele><time>2026-05-02T09:33:09.29Z</time></trkpt><trkpt lat="42.23837" lon="13.8161333"><ele>319.0</ele><time>2026-05-02T09:33:10.289Z</time></trkpt><trkpt lat="42.2384817" lon="13.8160867"><ele>319.0</ele><time>2026-05-02T09:33:11.289Z</time></trkpt><trkpt lat="42.2385967" lon="13.81606"><ele>319.0</ele><time>2026-05-02T09:33:12.289Z</time></trkpt><trkpt lat="42.2387117" lon="13.8160717"><ele>319.0</ele><time>2026-05-02T09:33:13.289Z</time></trkpt><trkpt lat="42.238825" lon="13.816095"><ele>319.0</ele><time>2026-05-02T09:33:14.289Z</time></trkpt><trkpt lat="42.2389267" lon="13.8161167"><ele>319.66666666666663</ele><time>2026-05-02T09:33:15.289Z</time></trkpt><trkpt lat="42.2390183" lon="13.81613"><ele>320.3333333333333</ele><time>2026-05-02T09:33:16.289Z</time></trkpt><trkpt lat="42.2391017" lon="13.8161433"><ele>321.0</ele><time>2026-05-02T09:33:17.289Z</time></trkpt><trkpt lat="42.2391767" lon="13.8161583"><ele>321.6666666666667</ele><time>2026-05-02T09:33:18.289Z</time></trkpt><trkpt lat="42.2392783" lon="13.81618"><ele>322.33333333333337</ele><time>2026-05-02T09:33:20.289Z</time></trkpt><trkpt lat="42.23935" lon="13.8162283"><ele>323.0</ele><time>2026-05-02T09:33:22.289Z</time></trkpt><trkpt lat="42.2394217" lon="13.816325"><ele>323.0</ele><time>2026-05-02T09:33:24.289Z</time></trkpt><trkpt lat="42.239485" lon="13.816445"><ele>323.0</ele><time>2026-05-02T09:33:26.29Z</time></trkpt><trkpt lat="42.2395683" lon="13.8164933"><ele>323.0</ele><time>2026-05-02T09:33:28.289Z</time></trkpt><trkpt lat="42.239645" lon="13.8164867"><ele>323.0</ele><time>2026-05-02T09:33:29.289Z</time></trkpt><trkpt lat="42.2397317" lon="13.8164733"><ele>323.0</ele><time>2026-05-02T09:33:30.289Z</time></trkpt><trkpt lat="42.2398317" lon="13.816445"><ele>323.79999999999995</ele><time>2026-05-02T09:33:31.289Z</time></trkpt><trkpt lat="42.23993" lon="13.8163933"><ele>324.6</ele><time>2026-05-02T09:33:32.289Z</time></trkpt><trkpt lat="42.2400333" lon="13.81635"><ele>325.4</ele><time>2026-05-02T09:33:33.289Z</time></trkpt><trkpt lat="42.240135" lon="13.8163283"><ele>326.20000000000005</ele><time>2026-05-02T09:33:34.29Z</time></trkpt><trkpt lat="42.2402483" lon="13.8163083"><ele>327.0</ele><time>2026-05-02T09:33:35.289Z</time></trkpt><trkpt lat="42.2403717" lon="13.816295"><ele>327.0</ele><time>2026-05-02T09:33:36.29Z</time></trkpt><trkpt lat="42.2405" lon="13.816295"><ele>327.0</ele><time>2026-05-02T09:33:37.289Z</time></trkpt><trkpt lat="42.2406267" lon="13.8162917"><ele>327.0</ele><time>2026-05-02T09:33:38.289Z</time></trkpt><trkpt lat="42.24074" lon="13.8162833"><ele>327.0</ele><time>2026-05-02T09:33:39.289Z</time></trkpt><trkpt lat="42.24085" lon="13.816275"><ele>327.40000000000003</ele><time>2026-05-02T09:33:40.289Z</time></trkpt><trkpt lat="42.2409617" lon="13.8162617"><ele>327.8</ele><time>2026-05-02T09:33:41.289Z</time></trkpt><trkpt lat="42.2410683" lon="13.8162533"><ele>328.2</ele><time>2026-05-02T09:33:42.289Z</time></trkpt><trkpt lat="42.241175" lon="13.8162433"><ele>328.6</ele><time>2026-05-02T09:33:43.289Z</time></trkpt><trkpt lat="42.2412717" lon="13.816215"><ele>329.0</ele><time>2026-05-02T09:33:44.289Z</time></trkpt><trkpt lat="42.2413617" lon="13.816175"><ele>329.0</ele><time>2026-05-02T09:33:45.289Z</time></trkpt><trkpt lat="42.241445" lon="13.8161167"><ele>329.0</ele><time>2026-05-02T09:33:46.289Z</time></trkpt><trkpt lat="42.2415267" lon="13.8160383"><ele>329.0</ele><time>2026-05-02T09:33:47.289Z</time></trkpt><trkpt lat="42.2415967" lon="13.815945"><ele>329.0</ele><time>2026-05-02T09:33:48.289Z</time></trkpt><trkpt lat="42.2416533" lon="13.81586"><ele>329.0</ele><time>2026-05-02T09:33:49.289Z</time></trkpt><trkpt lat="42.241685" lon="13.81578"><ele>329.0</ele><time>2026-05-02T09:33:50.29Z</time></trkpt><trkpt lat="42.2417033" lon="13.815685"><ele>327.4</ele><time>2026-05-02T09:33:51.289Z</time></trkpt><trkpt lat="42.241705" lon="13.815575"><ele>325.79999999999995</ele><time>2026-05-02T09:33:52.289Z</time></trkpt><trkpt lat="42.2417183" lon="13.8154483"><ele>324.20000000000005</ele><time>2026-05-02T09:33:53.289Z</time></trkpt><trkpt lat="42.241745" lon="13.8153117"><ele>322.6</ele><time>2026-05-02T09:33:54.289Z</time></trkpt><trkpt lat="42.2417783" lon="13.8151883"><ele>321.0</ele><time>2026-05-02T09:33:55.289Z</time></trkpt><trkpt lat="42.2418117" lon="13.81507"><ele>320.6</ele><time>2026-05-02T09:33:56.289Z</time></trkpt><trkpt lat="42.2418483" lon="13.814965"><ele>320.20000000000005</ele><time>2026-05-02T09:33:57.289Z</time></trkpt><trkpt lat="42.24188" lon="13.81481"><ele>319.79999999999995</ele><time>2026-05-02T09:33:59.289Z</time></trkpt><trkpt lat="42.241915" lon="13.81466"><ele>319.4</ele><time>2026-05-02T09:34:01.289Z</time></trkpt><trkpt lat="42.2419483" lon="13.8145767"><ele>319.0</ele><time>2026-05-02T09:34:02.289Z</time></trkpt><trkpt lat="42.2420333" lon="13.8144817"><ele>319.0</ele><time>2026-05-02T09:34:04.289Z</time></trkpt><trkpt lat="42.2421633" lon="13.81447"><ele>319.0</ele><time>2026-05-02T09:34:06.289Z</time></trkpt><trkpt lat="42.2422317" lon="13.8144617"><ele>319.0</ele><time>2026-05-02T09:34:07.289Z</time></trkpt><trkpt lat="42.2423017" lon="13.81444"><ele>319.0</ele><time>2026-05-02T09:34:08.289Z</time></trkpt><trkpt lat="42.2423817" lon="13.814385"><ele>319.0</ele><time>2026-05-02T09:34:09.289Z</time></trkpt><trkpt lat="42.2424667" lon="13.8143083"><ele>319.2</ele><time>2026-05-02T09:34:10.289Z</time></trkpt><trkpt lat="42.2425633" lon="13.8142117"><ele>319.4</ele><time>2026-05-02T09:34:11.289Z</time></trkpt><trkpt lat="42.24265" lon="13.8141117"><ele>319.6</ele><time>2026-05-02T09:34:12.289Z</time></trkpt><trkpt lat="42.2427283" lon="13.814025"><ele>319.8</ele><time>2026-05-02T09:34:13.289Z</time></trkpt><trkpt lat="42.2428117" lon="13.8139367"><ele>320.0</ele><time>2026-05-02T09:34:14.289Z</time></trkpt><trkpt lat="42.2429033" lon="13.813845"><ele>320.0</ele><time>2026-05-02T09:34:15.289Z</time></trkpt><trkpt lat="42.2430017" lon="13.81375"><ele>320.0</ele><time>2026-05-02T09:34:16.289Z</time></trkpt><trkpt lat="42.243105" lon="13.8136367"><ele>320.0</ele><time>2026-05-02T09:34:17.29Z</time></trkpt><trkpt lat="42.2431867" lon="13.8135233"><ele>320.0</ele><time>2026-05-02T09:34:18.289Z</time></trkpt><trkpt lat="42.24326" lon="13.8134183"><ele>321.0</ele><time>2026-05-02T09:34:19.289Z</time></trkpt><trkpt lat="42.2433267" lon="13.8133233"><ele>322.0</ele><time>2026-05-02T09:34:20.289Z</time></trkpt><trkpt lat="42.2434067" lon="13.8132383"><ele>323.0</ele><time>2026-05-02T09:34:21.289Z</time></trkpt><trkpt lat="42.2434733" lon="13.8131583"><ele>324.0</ele><time>2026-05-02T09:34:22.289Z</time></trkpt><trkpt lat="42.243535" lon="13.8130833"><ele>325.0</ele><time>2026-05-02T09:34:23.289Z</time></trkpt><trkpt lat="42.2435983" lon="13.8130133"><ele>325.0</ele><time>2026-05-02T09:34:24.289Z</time></trkpt><trkpt lat="42.24366" lon="13.8129617"><ele>325.0</ele><time>2026-05-02T09:34:25.29Z</time></trkpt><trkpt lat="42.2437217" lon="13.8129183"><ele>325.0</ele><time>2026-05-02T09:34:26.289Z</time></trkpt><trkpt lat="42.2437967" lon="13.812885"><ele>325.0</ele><time>2026-05-02T09:34:27.289Z</time></trkpt><trkpt lat="42.2438733" lon="13.8128633"><ele>325.0</ele><time>2026-05-02T09:34:28.29Z</time></trkpt><trkpt lat="42.2439367" lon="13.81285"><ele>325.0</ele><time>2026-05-02T09:34:29.289Z</time></trkpt><trkpt lat="42.244055" lon="13.8128017"><ele>324.2</ele><time>2026-05-02T09:34:31.289Z</time></trkpt><trkpt lat="42.2441583" lon="13.812735"><ele>323.4</ele><time>2026-05-02T09:34:33.29Z</time></trkpt><trkpt lat="42.2442517" lon="13.8126633"><ele>322.6</ele><time>2026-05-02T09:34:35.289Z</time></trkpt><trkpt lat="42.2443117" lon="13.8126267"><ele>321.8</ele><time>2026-05-02T09:34:36.289Z</time></trkpt><trkpt lat="42.2444267" lon="13.8126033"><ele>321.0</ele><time>2026-05-02T09:34:38.289Z</time></trkpt><trkpt lat="42.2445483" lon="13.8125883"><ele>321.0</ele><time>2026-05-02T09:34:40.289Z</time></trkpt><trkpt lat="42.244665" lon="13.81256"><ele>321.0</ele><time>2026-05-02T09:34:42.29Z</time></trkpt><trkpt lat="42.2447267" lon="13.8125267"><ele>321.0</ele><time>2026-05-02T09:34:43.289Z</time></trkpt><trkpt lat="42.2447933" lon="13.8124817"><ele>321.0</ele><time>2026-05-02T09:34:44.289Z</time></trkpt><trkpt lat="42.2448533" lon="13.81244"><ele>321.0</ele><time>2026-05-02T09:34:45.29Z</time></trkpt><trkpt lat="42.2449283" lon="13.8123717"><ele>321.0</ele><time>2026-05-02T09:34:47.29Z</time></trkpt><trkpt lat="42.2449933" lon="13.812265"><ele>321.5</ele><time>2026-05-02T09:34:49.29Z</time></trkpt><trkpt lat="42.24505" lon="13.8121183"><ele>322.0</ele><time>2026-05-02T09:34:51.289Z</time></trkpt><trkpt lat="42.2450783" lon="13.8120267"><ele>322.5</ele><time>2026-05-02T09:34:52.289Z</time></trkpt><trkpt lat="42.2450967" lon="13.811935"><ele>323.0</ele><time>2026-05-02T09:34:53.289Z</time></trkpt><trkpt lat="42.2451067" lon="13.8118433"><ele>323.5</ele><time>2026-05-02T09:34:54.289Z</time></trkpt><trkpt lat="42.2451267" lon="13.8117483"><ele>324.0</ele><time>2026-05-02T09:34:55.289Z</time></trkpt><trkpt lat="42.245175" lon="13.8115883"><ele>324.0</ele><time>2026-05-02T09:34:57.289Z</time></trkpt><trkpt lat="42.2452033" lon="13.81151"><ele>324.0</ele><time>2026-05-02T09:34:58.289Z</time></trkpt><trkpt lat="42.2452483" lon="13.8114267"><ele>324.0</ele><time>2026-05-02T09:34:59.289Z</time></trkpt><trkpt lat="42.2453017" lon="13.81135"><ele>324.0</ele><time>2026-05-02T09:35:00.289Z</time></trkpt><trkpt lat="42.2453733" lon="13.811275"><ele>324.0</ele><time>2026-05-02T09:35:01.289Z</time></trkpt><trkpt lat="42.2454483" lon="13.8112117"><ele>324.0</ele><time>2026-05-02T09:35:02.289Z</time></trkpt><trkpt lat="42.2455133" lon="13.8111483"><ele>324.0</ele><time>2026-05-02T09:35:03.289Z</time></trkpt><trkpt lat="42.2455817" lon="13.811075"><ele>324.0</ele><time>2026-05-02T09:35:04.289Z</time></trkpt><trkpt lat="42.2456467" lon="13.811"><ele>324.0</ele><time>2026-05-02T09:35:05.289Z</time></trkpt><trkpt lat="42.2457117" lon="13.8109067"><ele>324.0</ele><time>2026-05-02T09:35:06.289Z</time></trkpt><trkpt lat="42.2457733" lon="13.81082"><ele>324.0</ele><time>2026-05-02T09:35:07.289Z</time></trkpt><trkpt lat="42.2458317" lon="13.8107367"><ele>324.0</ele><time>2026-05-02T09:35:08.29Z</time></trkpt><trkpt lat="42.24589" lon="13.8106567"><ele>324.1666666666667</ele><time>2026-05-02T09:35:09.289Z</time></trkpt><trkpt lat="42.24595" lon="13.8105817"><ele>324.3333333333333</ele><time>2026-05-02T09:35:10.289Z</time></trkpt><trkpt lat="42.2460133" lon="13.8105117"><ele>324.5</ele><time>2026-05-02T09:35:11.289Z</time></trkpt><trkpt lat="42.246075" lon="13.81044"><ele>324.66666666666663</ele><time>2026-05-02T09:35:12.289Z</time></trkpt><trkpt lat="42.24614" lon="13.810365"><ele>324.8333333333333</ele><time>2026-05-02T09:35:13.289Z</time></trkpt><trkpt lat="42.2462" lon="13.8102867"><ele>325.0</ele><time>2026-05-02T09:35:14.289Z</time></trkpt><trkpt lat="42.2462567" lon="13.8102067"><ele>325.0</ele><time>2026-05-02T09:35:15.289Z</time></trkpt><trkpt lat="42.2463133" lon="13.810135"><ele>325.0</ele><time>2026-05-02T09:35:16.29Z</time></trkpt><trkpt lat="42.246365" lon="13.8100583"><ele>325.0</ele><time>2026-05-02T09:35:17.289Z</time></trkpt><trkpt lat="42.2464117" lon="13.8099767"><ele>325.0</ele><time>2026-05-02T09:35:18.289Z</time></trkpt><trkpt lat="42.24646" lon="13.80989"><ele>325.0</ele><time>2026-05-02T09:35:19.29Z</time></trkpt><trkpt lat="42.2465017" lon="13.80978"><ele>325.0</ele><time>2026-05-02T09:35:20.289Z</time></trkpt><trkpt lat="42.2465417" lon="13.8096667"><ele>325.0</ele><time>2026-05-02T09:35:21.289Z</time></trkpt><trkpt lat="42.2465733" lon="13.8095383"><ele>325.0</ele><time>2026-05-02T09:35:22.29Z</time></trkpt><trkpt lat="42.2466067" lon="13.8094167"><ele>325.0</ele><time>2026-05-02T09:35:23.289Z</time></trkpt><trkpt lat="42.24664" lon="13.8092783"><ele>325.0</ele><time>2026-05-02T09:35:24.289Z</time></trkpt><trkpt lat="42.246675" lon="13.8091417"><ele>325.0</ele><time>2026-05-02T09:35:25.289Z</time></trkpt><trkpt lat="42.2467167" lon="13.8090033"><ele>325.0</ele><time>2026-05-02T09:35:26.289Z</time></trkpt><trkpt lat="42.246745" lon="13.808885"><ele>325.0</ele><time>2026-05-02T09:35:27.29Z</time></trkpt><trkpt lat="42.2467783" lon="13.8087633"><ele>325.0</ele><time>2026-05-02T09:35:28.289Z</time></trkpt><trkpt lat="42.2468083" lon="13.808655"><ele>325.0</ele><time>2026-05-02T09:35:29.289Z</time></trkpt><trkpt lat="42.2468333" lon="13.8085383"><ele>325.0</ele><time>2026-05-02T09:35:30.289Z</time></trkpt><trkpt lat="42.246855" lon="13.8084333"><ele>325.0</ele><time>2026-05-02T09:35:31.289Z</time></trkpt><trkpt lat="42.2468767" lon="13.8083233"><ele>325.0</ele><time>2026-05-02T09:35:32.289Z</time></trkpt><trkpt lat="42.246895" lon="13.808225"><ele>325.0</ele><time>2026-05-02T09:35:33.289Z</time></trkpt><trkpt lat="42.246915" lon="13.8081383"><ele>325.0</ele><time>2026-05-02T09:35:34.289Z</time></trkpt><trkpt lat="42.2469533" lon="13.8080483"><ele>325.0</ele><time>2026-05-02T09:35:35.289Z</time></trkpt><trkpt lat="42.2469933" lon="13.8079667"><ele>325.0</ele><time>2026-05-02T09:35:36.289Z</time></trkpt><trkpt lat="42.2470417" lon="13.8078917"><ele>325.0</ele><time>2026-05-02T09:35:37.289Z</time></trkpt><trkpt lat="42.2471183" lon="13.8078033"><ele>325.0</ele><time>2026-05-02T09:35:38.289Z</time></trkpt><trkpt lat="42.2471883" lon="13.807715"><ele>325.0</ele><time>2026-05-02T09:35:39.29Z</time></trkpt><trkpt lat="42.2472683" lon="13.8076267"><ele>325.0</ele><time>2026-05-02T09:35:40.29Z</time></trkpt><trkpt lat="42.2473517" lon="13.80754"><ele>325.0</ele><time>2026-05-02T09:35:41.289Z</time></trkpt><trkpt lat="42.2474383" lon="13.8074767"><ele>325.0</ele><time>2026-05-02T09:35:42.289Z</time></trkpt><trkpt lat="42.2475167" lon="13.8074267"><ele>325.5</ele><time>2026-05-02T09:35:43.289Z</time></trkpt><trkpt lat="42.2475883" lon="13.8073633"><ele>326.0</ele><time>2026-05-02T09:35:44.289Z</time></trkpt><trkpt lat="42.2476483" lon="13.8072917"><ele>326.5</ele><time>2026-05-02T09:35:45.289Z</time></trkpt><trkpt lat="42.2477" lon="13.807215"><ele>327.0</ele><time>2026-05-02T09:35:46.289Z</time></trkpt><trkpt lat="42.247735" lon="13.8071317"><ele>327.5</ele><time>2026-05-02T09:35:47.289Z</time></trkpt><trkpt lat="42.24778" lon="13.80696"><ele>328.0</ele><time>2026-05-02T09:35:49.289Z</time></trkpt><trkpt lat="42.2477883" lon="13.8068467"><ele>327.66666666666663</ele><time>2026-05-02T09:35:50.289Z</time></trkpt><trkpt lat="42.2478033" lon="13.8067267"><ele>327.3333333333333</ele><time>2026-05-02T09:35:51.289Z</time></trkpt><trkpt lat="42.24782" lon="13.8066067"><ele>327.0</ele><time>2026-05-02T09:35:52.289Z</time></trkpt><trkpt lat="42.2478417" lon="13.8065033"><ele>326.6666666666667</ele><time>2026-05-02T09:35:53.289Z</time></trkpt><trkpt lat="42.2478817" lon="13.806395"><ele>326.33333333333337</ele><time>2026-05-02T09:35:54.289Z</time></trkpt><trkpt lat="42.2479317" lon="13.8062867"><ele>326.0</ele><time>2026-05-02T09:35:55.289Z</time></trkpt><trkpt lat="42.247985" lon="13.806175"><ele>326.0</ele><time>2026-05-02T09:35:56.289Z</time></trkpt><trkpt lat="42.2480517" lon="13.8060533"><ele>326.0</ele><time>2026-05-02T09:35:57.289Z</time></trkpt><trkpt lat="42.24811" lon="13.8059417"><ele>326.0</ele><time>2026-05-02T09:35:58.289Z</time></trkpt><trkpt lat="42.2481583" lon="13.8058483"><ele>326.0</ele><time>2026-05-02T09:35:59.289Z</time></trkpt><trkpt lat="42.2482017" lon="13.8057583"><ele>326.0</ele><time>2026-05-02T09:36:00.289Z</time></trkpt><trkpt lat="42.2482567" lon="13.8056733"><ele>327.5</ele><time>2026-05-02T09:36:01.289Z</time></trkpt><trkpt lat="42.248305" lon="13.8055767"><ele>329.0</ele><time>2026-05-02T09:36:02.289Z</time></trkpt><trkpt lat="42.2483517" lon="13.8054917"><ele>330.5</ele><time>2026-05-02T09:36:03.289Z</time></trkpt><trkpt lat="42.248395" lon="13.8054267"><ele>332.0</ele><time>2026-05-02T09:36:04.289Z</time></trkpt><trkpt lat="42.2484383" lon="13.8053633"><ele>333.5</ele><time>2026-05-02T09:36:05.289Z</time></trkpt><trkpt lat="42.2485417" lon="13.80528"><ele>335.0</ele><time>2026-05-02T09:36:07.289Z</time></trkpt><trkpt lat="42.2486083" lon="13.8052433"><ele>335.0</ele><time>2026-05-02T09:36:08.289Z</time></trkpt><trkpt lat="42.2486883" lon="13.8052133"><ele>335.0</ele><time>2026-05-02T09:36:09.289Z</time></trkpt><trkpt lat="42.2487867" lon="13.8051967"><ele>335.0</ele><time>2026-05-02T09:36:10.289Z</time></trkpt><trkpt lat="42.248885" lon="13.805185"><ele>335.0</ele><time>2026-05-02T09:36:11.289Z</time></trkpt><trkpt lat="42.24897" lon="13.805165"><ele>335.0</ele><time>2026-05-02T09:36:12.289Z</time></trkpt><trkpt lat="42.24905" lon="13.8051317"><ele>335.33333333333337</ele><time>2026-05-02T09:36:13.289Z</time></trkpt><trkpt lat="42.2491233" lon="13.8050817"><ele>335.6666666666667</ele><time>2026-05-02T09:36:14.289Z</time></trkpt><trkpt lat="42.2491933" lon="13.8050167"><ele>336.0</ele><time>2026-05-02T09:36:15.289Z</time></trkpt><trkpt lat="42.2492533" lon="13.8049467"><ele>336.3333333333333</ele><time>2026-05-02T09:36:16.289Z</time></trkpt><trkpt lat="42.2493033" lon="13.804875"><ele>336.66666666666663</ele><time>2026-05-02T09:36:17.289Z</time></trkpt><trkpt lat="42.2493517" lon="13.8048017"><ele>337.0</ele><time>2026-05-02T09:36:18.289Z</time></trkpt><trkpt lat="42.2494417" lon="13.80475"><ele>337.0</ele><time>2026-05-02T09:36:20.289Z</time></trkpt><trkpt lat="42.2495483" lon="13.8048067"><ele>337.0</ele><time>2026-05-02T09:36:22.29Z</time></trkpt><trkpt lat="42.2496117" lon="13.8048683"><ele>337.0</ele><time>2026-05-02T09:36:23.289Z</time></trkpt><trkpt lat="42.2496817" lon="13.8049317"><ele>337.0</ele><time>2026-05-02T09:36:24.289Z</time></trkpt><trkpt lat="42.2497667" lon="13.804985"><ele>337.0</ele><time>2026-05-02T09:36:25.289Z</time></trkpt><trkpt lat="42.24987" lon="13.80501"><ele>337.66666666666663</ele><time>2026-05-02T09:36:26.289Z</time></trkpt><trkpt lat="42.2499967" lon="13.8050167"><ele>338.3333333333333</ele><time>2026-05-02T09:36:27.289Z</time></trkpt><trkpt lat="42.2501567" lon="13.8049983"><ele>339.0</ele><time>2026-05-02T09:36:28.289Z</time></trkpt><trkpt lat="42.2503283" lon="13.80498"><ele>339.0</ele><time>2026-05-02T09:36:29.289Z</time></trkpt><trkpt lat="42.2505" lon="13.8049567"><ele>339.0</ele><time>2026-05-02T09:36:30.289Z</time></trkpt><trkpt lat="42.2506567" lon="13.8049467"><ele>339.0</ele><time>2026-05-02T09:36:31.289Z</time></trkpt><trkpt lat="42.2507917" lon="13.80493"><ele>341.0</ele><time>2026-05-02T09:36:32.29Z</time></trkpt><trkpt lat="42.2509" lon="13.8049233"><ele>343.0</ele><time>2026-05-02T09:36:33.289Z</time></trkpt><trkpt lat="42.25099" lon="13.804955"><ele>345.0</ele><time>2026-05-02T09:36:34.289Z</time></trkpt><trkpt lat="42.2510733" lon="13.8050233"><ele>347.0</ele><time>2026-05-02T09:36:35.289Z</time></trkpt><trkpt lat="42.2511383" lon="13.8051167"><ele>349.0</ele><time>2026-05-02T09:36:36.289Z</time></trkpt><trkpt lat="42.2511817" lon="13.8052333"><ele>349.25</ele><time>2026-05-02T09:36:37.289Z</time></trkpt><trkpt lat="42.2512133" lon="13.8053917"><ele>349.5</ele><time>2026-05-02T09:36:38.289Z</time></trkpt><trkpt lat="42.2512433" lon="13.8055883"><ele>349.75</ele><time>2026-05-02T09:36:39.289Z</time></trkpt><trkpt lat="42.2512717" lon="13.8057817"><ele>350.0</ele><time>2026-05-02T09:36:40.289Z</time></trkpt><trkpt lat="42.2512967" lon="13.8059383"><ele>349.75</ele><time>2026-05-02T09:36:41.289Z</time></trkpt><trkpt lat="42.251335" lon="13.806105"><ele>349.5</ele><time>2026-05-02T09:36:42.289Z</time></trkpt><trkpt lat="42.251395" lon="13.8062617"><ele>349.25</ele><time>2026-05-02T09:36:43.289Z</time></trkpt><trkpt lat="42.2514667" lon="13.80643"><ele>349.0</ele><time>2026-05-02T09:36:44.289Z</time></trkpt><trkpt lat="42.2515533" lon="13.8066167"><ele>351.66666666666663</ele><time>2026-05-02T09:36:45.289Z</time></trkpt><trkpt lat="42.2516333" lon="13.8067967"><ele>354.3333333333333</ele><time>2026-05-02T09:36:46.289Z</time></trkpt><trkpt lat="42.2517083" lon="13.80698"><ele>357.0</ele><time>2026-05-02T09:36:47.289Z</time></trkpt><trkpt lat="42.25179" lon="13.8071733"><ele>357.0</ele><time>2026-05-02T09:36:48.289Z</time></trkpt><trkpt lat="42.2518833" lon="13.8073633"><ele>357.0</ele><time>2026-05-02T09:36:49.289Z</time></trkpt><trkpt lat="42.2519583" lon="13.8075467"><ele>357.0</ele><time>2026-05-02T09:36:50.289Z</time></trkpt><trkpt lat="42.2520383" lon="13.8077183"><ele>357.0</ele><time>2026-05-02T09:36:51.289Z</time></trkpt><trkpt lat="42.2521233" lon="13.8078833"><ele>357.0</ele><time>2026-05-02T09:36:52.289Z</time></trkpt><trkpt lat="42.2522183" lon="13.80805"><ele>357.0</ele><time>2026-05-02T09:36:53.289Z</time></trkpt><trkpt lat="42.2523" lon="13.8082133"><ele>359.25</ele><time>2026-05-02T09:36:54.289Z</time></trkpt><trkpt lat="42.252385" lon="13.8083533"><ele>361.5</ele><time>2026-05-02T09:36:55.289Z</time></trkpt><trkpt lat="42.2524683" lon="13.8084867"><ele>363.75</ele><time>2026-05-02T09:36:56.289Z</time></trkpt><trkpt lat="42.2525433" lon="13.8086133"><ele>366.0</ele><time>2026-05-02T09:36:57.289Z</time></trkpt><trkpt lat="42.25261" lon="13.8087317"><ele>366.0</ele><time>2026-05-02T09:36:58.289Z</time></trkpt><trkpt lat="42.2526717" lon="13.8088467"><ele>366.0</ele><time>2026-05-02T09:36:59.29Z</time></trkpt><trkpt lat="42.25272" lon="13.8089617"><ele>366.0</ele><time>2026-05-02T09:37:00.289Z</time></trkpt><trkpt lat="42.25278" lon="13.8090867"><ele>366.0</ele><time>2026-05-02T09:37:01.289Z</time></trkpt><trkpt lat="42.2528467" lon="13.8092283"><ele>366.0</ele><time>2026-05-02T09:37:02.289Z</time></trkpt><trkpt lat="42.2529383" lon="13.80935"><ele>366.5</ele><time>2026-05-02T09:37:03.29Z</time></trkpt><trkpt lat="42.25305" lon="13.809475"><ele>367.0</ele><time>2026-05-02T09:37:04.289Z</time></trkpt><trkpt lat="42.2531567" lon="13.8096083"><ele>367.5</ele><time>2026-05-02T09:37:05.289Z</time></trkpt><trkpt lat="42.2532633" lon="13.8097417"><ele>368.0</ele><time>2026-05-02T09:37:06.29Z</time></trkpt><trkpt lat="42.2533733" lon="13.8098783"><ele>369.5</ele><time>2026-05-02T09:37:07.29Z</time></trkpt><trkpt lat="42.253485" lon="13.8099883"><ele>371.0</ele><time>2026-05-02T09:37:08.289Z</time></trkpt><trkpt lat="42.2536017" lon="13.8101033"><ele>372.5</ele><time>2026-05-02T09:37:09.29Z</time></trkpt><trkpt lat="42.2537017" lon="13.8102117"><ele>374.0</ele><time>2026-05-02T09:37:10.289Z</time></trkpt><trkpt lat="42.253805" lon="13.8103283"><ele>374.0</ele><time>2026-05-02T09:37:11.289Z</time></trkpt><trkpt lat="42.2539083" lon="13.8104583"><ele>374.0</ele><time>2026-05-02T09:37:12.289Z</time></trkpt><trkpt lat="42.2540067" lon="13.8105817"><ele>374.0</ele><time>2026-05-02T09:37:13.289Z</time></trkpt><trkpt lat="42.2541017" lon="13.810705"><ele>374.0</ele><time>2026-05-02T09:37:14.289Z</time></trkpt><trkpt lat="42.2542083" lon="13.8108133"><ele>375.5</ele><time>2026-05-02T09:37:15.289Z</time></trkpt><trkpt lat="42.2543067" lon="13.8109233"><ele>377.0</ele><time>2026-05-02T09:37:16.289Z</time></trkpt><trkpt lat="42.254405" lon="13.811035"><ele>378.5</ele><time>2026-05-02T09:37:17.289Z</time></trkpt><trkpt lat="42.2544833" lon="13.8111617"><ele>380.0</ele><time>2026-05-02T09:37:18.289Z</time></trkpt><trkpt lat="42.2545517" lon="13.81129"><ele>380.2</ele><time>2026-05-02T09:37:19.289Z</time></trkpt><trkpt lat="42.2545967" lon="13.8114117"><ele>380.4</ele><time>2026-05-02T09:37:20.289Z</time></trkpt><trkpt lat="42.2546317" lon="13.8115167"><ele>380.6</ele><time>2026-05-02T09:37:21.289Z</time></trkpt><trkpt lat="42.25465" lon="13.8116117"><ele>380.8</ele><time>2026-05-02T09:37:22.289Z</time></trkpt><trkpt lat="42.254695" lon="13.8117267"><ele>381.0</ele><time>2026-05-02T09:37:24.289Z</time></trkpt><trkpt lat="42.2548467" lon="13.8116767"><ele>382.6</ele><time>2026-05-02T09:37:28.289Z</time></trkpt><trkpt lat="42.2549" lon="13.8115883"><ele>384.20000000000005</ele><time>2026-05-02T09:37:29.289Z</time></trkpt><trkpt lat="42.254965" lon="13.8114933"><ele>385.79999999999995</ele><time>2026-05-02T09:37:30.29Z</time></trkpt><trkpt lat="42.25503" lon="13.8113733"><ele>387.4</ele><time>2026-05-02T09:37:31.289Z</time></trkpt><trkpt lat="42.2550917" lon="13.8112433"><ele>389.0</ele><time>2026-05-02T09:37:32.289Z</time></trkpt><trkpt lat="42.2551617" lon="13.8111133"><ele>388.99999999999994</ele><time>2026-05-02T09:37:33.289Z</time></trkpt><trkpt lat="42.255215" lon="13.8110033"><ele>389.0</ele><time>2026-05-02T09:37:34.289Z</time></trkpt><trkpt lat="42.2552633" lon="13.8108917"><ele>389.0</ele><time>2026-05-02T09:37:35.289Z</time></trkpt><trkpt lat="42.2553" lon="13.81079"><ele>389.0</ele><time>2026-05-02T09:37:36.289Z</time></trkpt><trkpt lat="42.2553333" lon="13.8106917"><ele>388.99999999999994</ele><time>2026-05-02T09:37:37.289Z</time></trkpt><trkpt lat="42.2553667" lon="13.8105967"><ele>389.0</ele><time>2026-05-02T09:37:38.289Z</time></trkpt><trkpt lat="42.2554067" lon="13.8104967"><ele>388.79999999999995</ele><time>2026-05-02T09:37:39.289Z</time></trkpt><trkpt lat="42.25546" lon="13.8104"><ele>388.59999999999997</ele><time>2026-05-02T09:37:40.289Z</time></trkpt><trkpt lat="42.2555217" lon="13.8103017"><ele>388.4</ele><time>2026-05-02T09:37:41.289Z</time></trkpt><trkpt lat="42.25559" lon="13.8102017"><ele>388.2</ele><time>2026-05-02T09:37:42.289Z</time></trkpt><trkpt lat="42.2556667" lon="13.8100967"><ele>388.0</ele><time>2026-05-02T09:37:43.289Z</time></trkpt><trkpt lat="42.2557483" lon="13.80998"><ele>388.0</ele><time>2026-05-02T09:37:44.289Z</time></trkpt><trkpt lat="42.2558133" lon="13.8098767"><ele>388.0</ele><time>2026-05-02T09:37:45.289Z</time></trkpt><trkpt lat="42.2558817" lon="13.8097567"><ele>388.0</ele><time>2026-05-02T09:37:46.289Z</time></trkpt><trkpt lat="42.255945" lon="13.8096433"><ele>388.0</ele><time>2026-05-02T09:37:47.29Z</time></trkpt><trkpt lat="42.2560117" lon="13.8095317"><ele>388.0</ele><time>2026-05-02T09:37:48.289Z</time></trkpt><trkpt lat="42.25607" lon="13.80941"><ele>387.59999999999997</ele><time>2026-05-02T09:37:49.289Z</time></trkpt><trkpt lat="42.25613" lon="13.8093"><ele>387.2</ele><time>2026-05-02T09:37:50.289Z</time></trkpt><trkpt lat="42.2561917" lon="13.809195"><ele>386.8</ele><time>2026-05-02T09:37:51.289Z</time></trkpt><trkpt lat="42.2562583" lon="13.8090917"><ele>386.4</ele><time>2026-05-02T09:37:52.289Z</time></trkpt><trkpt lat="42.256335" lon="13.809"><ele>386.0</ele><time>2026-05-02T09:37:53.29Z</time></trkpt><trkpt lat="42.2564167" lon="13.808905"><ele>386.16666666666663</ele><time>2026-05-02T09:37:54.289Z</time></trkpt><trkpt lat="42.2564967" lon="13.808815"><ele>386.3333333333333</ele><time>2026-05-02T09:37:55.289Z</time></trkpt><trkpt lat="42.2565717" lon="13.8087283"><ele>386.5</ele><time>2026-05-02T09:37:56.289Z</time></trkpt><trkpt lat="42.2566383" lon="13.8086567"><ele>386.66666666666663</ele><time>2026-05-02T09:37:57.289Z</time></trkpt><trkpt lat="42.2567017" lon="13.8085967"><ele>386.8333333333333</ele><time>2026-05-02T09:37:58.289Z</time></trkpt><trkpt lat="42.2567733" lon="13.8085483"><ele>387.0</ele><time>2026-05-02T09:37:59.289Z</time></trkpt><trkpt lat="42.2568467" lon="13.8085283"><ele>387.0</ele><time>2026-05-02T09:38:00.289Z</time></trkpt><trkpt lat="42.256915" lon="13.808515"><ele>387.0</ele><time>2026-05-02T09:38:01.289Z</time></trkpt><trkpt lat="42.25699" lon="13.8084767"><ele>387.0</ele><time>2026-05-02T09:38:02.289Z</time></trkpt><trkpt lat="42.2570733" lon="13.808415"><ele>387.0</ele><time>2026-05-02T09:38:03.29Z</time></trkpt><trkpt lat="42.2571667" lon="13.80834"><ele>387.0</ele><time>2026-05-02T09:38:04.289Z</time></trkpt><trkpt lat="42.2572617" lon="13.8082583"><ele>386.40000000000003</ele><time>2026-05-02T09:38:05.289Z</time></trkpt><trkpt lat="42.257355" lon="13.8081783"><ele>385.8</ele><time>2026-05-02T09:38:06.289Z</time></trkpt><trkpt lat="42.2574383" lon="13.80811"><ele>385.2</ele><time>2026-05-02T09:38:07.29Z</time></trkpt><trkpt lat="42.2575233" lon="13.8080483"><ele>384.6</ele><time>2026-05-02T09:38:08.289Z</time></trkpt><trkpt lat="42.2576117" lon="13.80799"><ele>384.0</ele><time>2026-05-02T09:38:09.289Z</time></trkpt><trkpt lat="42.2576983" lon="13.8079183"><ele>384.0</ele><time>2026-05-02T09:38:10.289Z</time></trkpt><trkpt lat="42.257785" lon="13.80784"><ele>384.0</ele><time>2026-05-02T09:38:11.289Z</time></trkpt><trkpt lat="42.2578733" lon="13.8077667"><ele>384.0</ele><time>2026-05-02T09:38:12.289Z</time></trkpt><trkpt lat="42.2579583" lon="13.8076867"><ele>384.0</ele><time>2026-05-02T09:38:13.289Z</time></trkpt><trkpt lat="42.2580417" lon="13.8076083"><ele>384.0</ele><time>2026-05-02T09:38:14.289Z</time></trkpt><trkpt lat="42.2581233" lon="13.8075333"><ele>382.79999999999995</ele><time>2026-05-02T09:38:15.29Z</time></trkpt><trkpt lat="42.2582083" lon="13.8074683"><ele>381.59999999999997</ele><time>2026-05-02T09:38:16.289Z</time></trkpt><trkpt lat="42.2582917" lon="13.8074283"><ele>380.4</ele><time>2026-05-02T09:38:17.289Z</time></trkpt><trkpt lat="42.2583933" lon="13.807385"><ele>379.2</ele><time>2026-05-02T09:38:18.289Z</time></trkpt><trkpt lat="42.2584867" lon="13.8073517"><ele>378.0</ele><time>2026-05-02T09:38:19.289Z</time></trkpt><trkpt lat="42.2585767" lon="13.8073267"><ele>378.0</ele><time>2026-05-02T09:38:20.29Z</time></trkpt><trkpt lat="42.2586767" lon="13.8072933"><ele>378.0</ele><time>2026-05-02T09:38:21.29Z</time></trkpt><trkpt lat="42.2587783" lon="13.8072567"><ele>378.0</ele><time>2026-05-02T09:38:22.289Z</time></trkpt><trkpt lat="42.25888" lon="13.8072183"><ele>378.0</ele><time>2026-05-02T09:38:23.289Z</time></trkpt><trkpt lat="42.258985" lon="13.80717"><ele>378.0</ele><time>2026-05-02T09:38:24.289Z</time></trkpt><trkpt lat="42.25909" lon="13.8071167"><ele>377.79999999999995</ele><time>2026-05-02T09:38:25.289Z</time></trkpt><trkpt lat="42.259195" lon="13.8070533"><ele>377.6</ele><time>2026-05-02T09:38:26.289Z</time></trkpt><trkpt lat="42.2592967" lon="13.8069833"><ele>377.4</ele><time>2026-05-02T09:38:27.289Z</time></trkpt><trkpt lat="42.2593967" lon="13.8069133"><ele>377.20000000000005</ele><time>2026-05-02T09:38:28.289Z</time></trkpt><trkpt lat="42.2594933" lon="13.8068517"><ele>377.0</ele><time>2026-05-02T09:38:29.289Z</time></trkpt><trkpt lat="42.2596017" lon="13.8067867"><ele>377.0</ele><time>2026-05-02T09:38:30.289Z</time></trkpt><trkpt lat="42.259715" lon="13.80673"><ele>377.0</ele><time>2026-05-02T09:38:31.289Z</time></trkpt><trkpt lat="42.25984" lon="13.8066633"><ele>377.0</ele><time>2026-05-02T09:38:32.289Z</time></trkpt><trkpt lat="42.25996" lon="13.8065983"><ele>377.0</ele><time>2026-05-02T09:38:33.289Z</time></trkpt><trkpt lat="42.2600683" lon="13.806535"><ele>377.0</ele><time>2026-05-02T09:38:34.289Z</time></trkpt><trkpt lat="42.260175" lon="13.8064617"><ele>377.0</ele><time>2026-05-02T09:38:35.289Z</time></trkpt><trkpt lat="42.26028" lon="13.8063867"><ele>377.0</ele><time>2026-05-02T09:38:36.289Z</time></trkpt><trkpt lat="42.2603783" lon="13.8063067"><ele>377.0</ele><time>2026-05-02T09:38:37.289Z</time></trkpt><trkpt lat="42.2604783" lon="13.806225"><ele>377.0</ele><time>2026-05-02T09:38:38.289Z</time></trkpt><trkpt lat="42.2605717" lon="13.80615"><ele>377.0</ele><time>2026-05-02T09:38:39.289Z</time></trkpt><trkpt lat="42.2606633" lon="13.806085"><ele>377.0</ele><time>2026-05-02T09:38:40.289Z</time></trkpt><trkpt lat="42.260745" lon="13.806025"><ele>377.0</ele><time>2026-05-02T09:38:41.289Z</time></trkpt><trkpt lat="42.26082" lon="13.8059733"><ele>377.0</ele><time>2026-05-02T09:38:42.289Z</time></trkpt><trkpt lat="42.2608833" lon="13.805925"><ele>376.40000000000003</ele><time>2026-05-02T09:38:43.289Z</time></trkpt><trkpt lat="42.2609767" lon="13.80586"><ele>375.8</ele><time>2026-05-02T09:38:45.289Z</time></trkpt><trkpt lat="42.2610367" lon="13.805785"><ele>375.2</ele><time>2026-05-02T09:38:47.29Z</time></trkpt><trkpt lat="42.2610817" lon="13.80572"><ele>374.6</ele><time>2026-05-02T09:38:48.289Z</time></trkpt><trkpt lat="42.2612017" lon="13.80563"><ele>374.0</ele><time>2026-05-02T09:38:50.289Z</time></trkpt><trkpt lat="42.2612883" lon="13.8055883"><ele>374.0</ele><time>2026-05-02T09:38:51.289Z</time></trkpt><trkpt lat="42.2613917" lon="13.8055417"><ele>374.0</ele><time>2026-05-02T09:38:52.29Z</time></trkpt><trkpt lat="42.26151" lon="13.8054917"><ele>374.0</ele><time>2026-05-02T09:38:53.289Z</time></trkpt><trkpt lat="42.2616233" lon="13.805445"><ele>374.0</ele><time>2026-05-02T09:38:54.289Z</time></trkpt><trkpt lat="42.2617317" lon="13.8054067"><ele>373.4</ele><time>2026-05-02T09:38:55.289Z</time></trkpt><trkpt lat="42.26183" lon="13.80537"><ele>372.79999999999995</ele><time>2026-05-02T09:38:56.289Z</time></trkpt><trkpt lat="42.2619233" lon="13.80533"><ele>372.20000000000005</ele><time>2026-05-02T09:38:57.289Z</time></trkpt><trkpt lat="42.2620167" lon="13.8052883"><ele>371.6</ele><time>2026-05-02T09:38:58.289Z</time></trkpt><trkpt lat="42.2621" lon="13.8052667"><ele>371.0</ele><time>2026-05-02T09:38:59.289Z</time></trkpt><trkpt lat="42.262165" lon="13.8052433"><ele>371.0</ele><time>2026-05-02T09:39:00.289Z</time></trkpt><trkpt lat="42.2622617" lon="13.8052317"><ele>371.0</ele><time>2026-05-02T09:39:02.289Z</time></trkpt><trkpt lat="42.26234" lon="13.8052767"><ele>371.0</ele><time>2026-05-02T09:39:05.289Z</time></trkpt><trkpt lat="42.2624417" lon="13.8053133"><ele>371.0</ele><time>2026-05-02T09:39:07.289Z</time></trkpt><trkpt lat="42.2625683" lon="13.80532"><ele>371.0</ele><time>2026-05-02T09:39:09.289Z</time></trkpt><trkpt lat="42.2626383" lon="13.8052883"><ele>370.8</ele><time>2026-05-02T09:39:10.289Z</time></trkpt><trkpt lat="42.262725" lon="13.8052567"><ele>370.6</ele><time>2026-05-02T09:39:11.289Z</time></trkpt><trkpt lat="42.2628233" lon="13.8052283"><ele>370.4</ele><time>2026-05-02T09:39:12.289Z</time></trkpt><trkpt lat="42.26293" lon="13.8051983"><ele>370.2</ele><time>2026-05-02T09:39:13.289Z</time></trkpt><trkpt lat="42.2630383" lon="13.805165"><ele>370.0</ele><time>2026-05-02T09:39:14.289Z</time></trkpt><trkpt lat="42.2631367" lon="13.8051367"><ele>368.75</ele><time>2026-05-02T09:39:15.289Z</time></trkpt><trkpt lat="42.2632433" lon="13.8051233"><ele>367.5</ele><time>2026-05-02T09:39:16.289Z</time></trkpt><trkpt lat="42.2633683" lon="13.8051083"><ele>366.25</ele><time>2026-05-02T09:39:17.289Z</time></trkpt><trkpt lat="42.26349" lon="13.80508"><ele>365.0</ele><time>2026-05-02T09:39:18.289Z</time></trkpt><trkpt lat="42.26362" lon="13.8050533"><ele>365.0</ele><time>2026-05-02T09:39:19.289Z</time></trkpt><trkpt lat="42.2637417" lon="13.8050283"><ele>365.0</ele><time>2026-05-02T09:39:20.289Z</time></trkpt><trkpt lat="42.2638433" lon="13.8050267"><ele>365.0</ele><time>2026-05-02T09:39:21.289Z</time></trkpt><trkpt lat="42.26396" lon="13.8050083"><ele>365.0</ele><time>2026-05-02T09:39:22.289Z</time></trkpt><trkpt lat="42.2640817" lon="13.8050017"><ele>364.25</ele><time>2026-05-02T09:39:23.289Z</time></trkpt><trkpt lat="42.2642117" lon="13.8050017"><ele>363.5</ele><time>2026-05-02T09:39:24.289Z</time></trkpt><trkpt lat="42.264345" lon="13.804995"><ele>362.75</ele><time>2026-05-02T09:39:25.289Z</time></trkpt><trkpt lat="42.2644783" lon="13.8049783"><ele>362.0</ele><time>2026-05-02T09:39:26.289Z</time></trkpt><trkpt lat="42.2646133" lon="13.8049517"><ele>362.0</ele><time>2026-05-02T09:39:27.289Z</time></trkpt><trkpt lat="42.2647667" lon="13.8049167"><ele>362.0</ele><time>2026-05-02T09:39:28.289Z</time></trkpt><trkpt lat="42.2649083" lon="13.8048883"><ele>362.0</ele><time>2026-05-02T09:39:29.289Z</time></trkpt><trkpt lat="42.2650433" lon="13.804845"><ele>362.0</ele><time>2026-05-02T09:39:30.289Z</time></trkpt><trkpt lat="42.26516" lon="13.8048067"><ele>361.0</ele><time>2026-05-02T09:39:31.289Z</time></trkpt><trkpt lat="42.2652817" lon="13.8047633"><ele>360.0</ele><time>2026-05-02T09:39:32.289Z</time></trkpt><trkpt lat="42.2654083" lon="13.8047217"><ele>359.0</ele><time>2026-05-02T09:39:33.289Z</time></trkpt><trkpt lat="42.265545" lon="13.8046717"><ele>358.0</ele><time>2026-05-02T09:39:34.289Z</time></trkpt><trkpt lat="42.26568" lon="13.8046217"><ele>357.5</ele><time>2026-05-02T09:39:35.289Z</time></trkpt><trkpt lat="42.2658083" lon="13.8045667"><ele>357.0</ele><time>2026-05-02T09:39:36.289Z</time></trkpt><trkpt lat="42.26593" lon="13.8045233"><ele>356.5</ele><time>2026-05-02T09:39:37.289Z</time></trkpt><trkpt lat="42.2660417" lon="13.804485"><ele>356.0</ele><time>2026-05-02T09:39:38.289Z</time></trkpt><trkpt lat="42.266155" lon="13.8044483"><ele>356.0</ele><time>2026-05-02T09:39:39.289Z</time></trkpt><trkpt lat="42.26626" lon="13.8043917"><ele>356.0</ele><time>2026-05-02T09:39:40.289Z</time></trkpt><trkpt lat="42.2663617" lon="13.8043367"><ele>356.0</ele><time>2026-05-02T09:39:41.289Z</time></trkpt><trkpt lat="42.26646" lon="13.8042567"><ele>356.0</ele><time>2026-05-02T09:39:42.289Z</time></trkpt><trkpt lat="42.2665617" lon="13.8041633"><ele>355.8</ele><time>2026-05-02T09:39:43.289Z</time></trkpt><trkpt lat="42.2666567" lon="13.8040833"><ele>355.6</ele><time>2026-05-02T09:39:44.289Z</time></trkpt><trkpt lat="42.2667467" lon="13.8040133"><ele>355.4</ele><time>2026-05-02T09:39:45.289Z</time></trkpt><trkpt lat="42.2668333" lon="13.8039067"><ele>355.2</ele><time>2026-05-02T09:39:46.289Z</time></trkpt><trkpt lat="42.2669033" lon="13.8037983"><ele>355.0</ele><time>2026-05-02T09:39:47.29Z</time></trkpt><trkpt lat="42.2669583" lon="13.80369"><ele>355.0</ele><time>2026-05-02T09:39:48.289Z</time></trkpt><trkpt lat="42.2669967" lon="13.8035883"><ele>355.0</ele><time>2026-05-02T09:39:49.289Z</time></trkpt><trkpt lat="42.267025" lon="13.8034817"><ele>355.0</ele><time>2026-05-02T09:39:50.289Z</time></trkpt><trkpt lat="42.267045" lon="13.80336"><ele>355.0</ele><time>2026-05-02T09:39:51.289Z</time></trkpt><trkpt lat="42.2670867" lon="13.8032467"><ele>355.0</ele><time>2026-05-02T09:39:52.289Z</time></trkpt><trkpt lat="42.26714" lon="13.8031433"><ele>355.0</ele><time>2026-05-02T09:39:53.289Z</time></trkpt><trkpt lat="42.267205" lon="13.803035"><ele>354.8333333333333</ele><time>2026-05-02T09:39:54.289Z</time></trkpt><trkpt lat="42.2672783" lon="13.8029233"><ele>354.66666666666663</ele><time>2026-05-02T09:39:55.289Z</time></trkpt><trkpt lat="42.2673483" lon="13.8028217"><ele>354.5</ele><time>2026-05-02T09:39:56.289Z</time></trkpt><trkpt lat="42.2674" lon="13.8027483"><ele>354.3333333333333</ele><time>2026-05-02T09:39:57.289Z</time></trkpt><trkpt lat="42.2674583" lon="13.80269"><ele>354.1666666666667</ele><time>2026-05-02T09:39:59.289Z</time></trkpt><trkpt lat="42.2674733" lon="13.80259"><ele>354.0</ele><time>2026-05-02T09:40:03.289Z</time></trkpt><trkpt lat="42.2675367" lon="13.802445"><ele>354.0</ele><time>2026-05-02T09:40:05.289Z</time></trkpt><trkpt lat="42.2675817" lon="13.80237"><ele>354.0</ele><time>2026-05-02T09:40:06.29Z</time></trkpt><trkpt lat="42.267645" lon="13.802275"><ele>354.0</ele><time>2026-05-02T09:40:07.289Z</time></trkpt><trkpt lat="42.2677233" lon="13.802175"><ele>354.0</ele><time>2026-05-02T09:40:08.289Z</time></trkpt><trkpt lat="42.2678083" lon="13.802075"><ele>354.0</ele><time>2026-05-02T09:40:09.289Z</time></trkpt><trkpt lat="42.2678983" lon="13.8019833"><ele>354.0</ele><time>2026-05-02T09:40:10.289Z</time></trkpt><trkpt lat="42.2679933" lon="13.8018767"><ele>354.0</ele><time>2026-05-02T09:40:11.289Z</time></trkpt><trkpt lat="42.2680817" lon="13.8017717"><ele>354.0</ele><time>2026-05-02T09:40:12.29Z</time></trkpt><trkpt lat="42.2681667" lon="13.801685"><ele>354.0</ele><time>2026-05-02T09:40:13.289Z</time></trkpt><trkpt lat="42.2682633" lon="13.8015783"><ele>353.75</ele><time>2026-05-02T09:40:14.289Z</time></trkpt><trkpt lat="42.2683533" lon="13.801485"><ele>353.5</ele><time>2026-05-02T09:40:15.29Z</time></trkpt><trkpt lat="42.268455" lon="13.80138"><ele>353.25</ele><time>2026-05-02T09:40:16.289Z</time></trkpt><trkpt lat="42.26854" lon="13.8012833"><ele>353.0</ele><time>2026-05-02T09:40:17.289Z</time></trkpt><trkpt lat="42.2686317" lon="13.8011867"><ele>353.0</ele><time>2026-05-02T09:40:18.289Z</time></trkpt><trkpt lat="42.2687217" lon="13.8010867"><ele>353.0</ele><time>2026-05-02T09:40:19.289Z</time></trkpt><trkpt lat="42.2688133" lon="13.8009867"><ele>353.0</ele><time>2026-05-02T09:40:20.289Z</time></trkpt><trkpt lat="42.2689067" lon="13.8009"><ele>353.0</ele><time>2026-05-02T09:40:21.289Z</time></trkpt><trkpt lat="42.269" lon="13.8008167"><ele>352.79999999999995</ele><time>2026-05-02T09:40:22.289Z</time></trkpt><trkpt lat="42.26909" lon="13.800745"><ele>352.6</ele><time>2026-05-02T09:40:23.289Z</time></trkpt><trkpt lat="42.2691833" lon="13.8006767"><ele>352.4</ele><time>2026-05-02T09:40:24.29Z</time></trkpt><trkpt lat="42.2692733" lon="13.8006283"><ele>352.20000000000005</ele><time>2026-05-02T09:40:25.289Z</time></trkpt><trkpt lat="42.26936" lon="13.8005983"><ele>352.0</ele><time>2026-05-02T09:40:26.289Z</time></trkpt><trkpt lat="42.2694617" lon="13.80057"><ele>352.0</ele><time>2026-05-02T09:40:27.289Z</time></trkpt><trkpt lat="42.26956" lon="13.80053"><ele>352.0</ele><time>2026-05-02T09:40:28.289Z</time></trkpt><trkpt lat="42.26964" lon="13.8004783"><ele>352.0</ele><time>2026-05-02T09:40:29.29Z</time></trkpt><trkpt lat="42.2697183" lon="13.800405"><ele>352.0</ele><time>2026-05-02T09:40:30.289Z</time></trkpt><trkpt lat="42.2697983" lon="13.8003133"><ele>352.0</ele><time>2026-05-02T09:40:31.289Z</time></trkpt><trkpt lat="42.2698867" lon="13.80021"><ele>350.75</ele><time>2026-05-02T09:40:32.289Z</time></trkpt><trkpt lat="42.2699783" lon="13.8000967"><ele>349.5</ele><time>2026-05-02T09:40:33.289Z</time></trkpt><trkpt lat="42.2700683" lon="13.799995"><ele>348.25</ele><time>2026-05-02T09:40:34.289Z</time></trkpt><trkpt lat="42.2701567" lon="13.7999"><ele>347.0</ele><time>2026-05-02T09:40:35.289Z</time></trkpt><trkpt lat="42.27024" lon="13.7998033"><ele>347.0</ele><time>2026-05-02T09:40:36.289Z</time></trkpt><trkpt lat="42.2703317" lon="13.799725"><ele>347.0</ele><time>2026-05-02T09:40:37.289Z</time></trkpt><trkpt lat="42.2704333" lon="13.7996467"><ele>347.0</ele><time>2026-05-02T09:40:38.289Z</time></trkpt><trkpt lat="42.2705317" lon="13.7995833"><ele>347.0</ele><time>2026-05-02T09:40:39.289Z</time></trkpt><trkpt lat="42.2706317" lon="13.7995183"><ele>347.0</ele><time>2026-05-02T09:40:40.289Z</time></trkpt><trkpt lat="42.2707367" lon="13.7994583"><ele>347.75</ele><time>2026-05-02T09:40:41.289Z</time></trkpt><trkpt lat="42.2708517" lon="13.7994233"><ele>348.5</ele><time>2026-05-02T09:40:42.289Z</time></trkpt><trkpt lat="42.2709717" lon="13.7993867"><ele>349.25</ele><time>2026-05-02T09:40:43.289Z</time></trkpt><trkpt lat="42.2711033" lon="13.7993333"><ele>350.0</ele><time>2026-05-02T09:40:44.289Z</time></trkpt><trkpt lat="42.2712367" lon="13.7992767"><ele>349.5</ele><time>2026-05-02T09:40:45.289Z</time></trkpt><trkpt lat="42.2713433" lon="13.79923"><ele>349.0</ele><time>2026-05-02T09:40:46.29Z</time></trkpt><trkpt lat="42.27146" lon="13.7991733"><ele>348.5</ele><time>2026-05-02T09:40:47.289Z</time></trkpt><trkpt lat="42.2715767" lon="13.799125"><ele>348.0</ele><time>2026-05-02T09:40:48.289Z</time></trkpt><trkpt lat="42.2717" lon="13.7990567"><ele>348.0</ele><time>2026-05-02T09:40:49.289Z</time></trkpt><trkpt lat="42.2718217" lon="13.7989867"><ele>348.0</ele><time>2026-05-02T09:40:50.289Z</time></trkpt><trkpt lat="42.2719433" lon="13.798925"><ele>348.0</ele><time>2026-05-02T09:40:51.289Z</time></trkpt><trkpt lat="42.2720583" lon="13.798855"><ele>348.0</ele><time>2026-05-02T09:40:52.289Z</time></trkpt><trkpt lat="42.2721683" lon="13.798795"><ele>348.0</ele><time>2026-05-02T09:40:53.289Z</time></trkpt><trkpt lat="42.2722633" lon="13.798735"><ele>348.0</ele><time>2026-05-02T09:40:54.289Z</time></trkpt><trkpt lat="42.2723383" lon="13.7986717"><ele>348.0</ele><time>2026-05-02T09:40:55.289Z</time></trkpt><trkpt lat="42.2724133" lon="13.798605"><ele>348.0</ele><time>2026-05-02T09:40:56.289Z</time></trkpt><trkpt lat="42.2725067" lon="13.7985383"><ele>348.0</ele><time>2026-05-02T09:40:57.289Z</time></trkpt><trkpt lat="42.2725933" lon="13.7984717"><ele>347.75</ele><time>2026-05-02T09:40:58.29Z</time></trkpt><trkpt lat="42.2726867" lon="13.798395"><ele>347.5</ele><time>2026-05-02T09:40:59.289Z</time></trkpt><trkpt lat="42.27278" lon="13.798315"><ele>347.25</ele><time>2026-05-02T09:41:00.289Z</time></trkpt><trkpt lat="42.2728817" lon="13.7982383"><ele>347.0</ele><time>2026-05-02T09:41:01.289Z</time></trkpt><trkpt lat="42.2729783" lon="13.7981567"><ele>347.0</ele><time>2026-05-02T09:41:02.289Z</time></trkpt><trkpt lat="42.27307" lon="13.7980933"><ele>347.0</ele><time>2026-05-02T09:41:03.289Z</time></trkpt><trkpt lat="42.2731733" lon="13.7980367"><ele>347.0</ele><time>2026-05-02T09:41:04.289Z</time></trkpt><trkpt lat="42.273285" lon="13.79797"><ele>347.0</ele><time>2026-05-02T09:41:05.289Z</time></trkpt><trkpt lat="42.2733983" lon="13.7978983"><ele>346.5</ele><time>2026-05-02T09:41:06.289Z</time></trkpt><trkpt lat="42.2735183" lon="13.7978283"><ele>346.0</ele><time>2026-05-02T09:41:07.289Z</time></trkpt><trkpt lat="42.2736383" lon="13.79775"><ele>345.5</ele><time>2026-05-02T09:41:08.29Z</time></trkpt><trkpt lat="42.2737583" lon="13.79766"><ele>345.0</ele><time>2026-05-02T09:41:09.289Z</time></trkpt><trkpt lat="42.2738667" lon="13.797575"><ele>345.5</ele><time>2026-05-02T09:41:10.289Z</time></trkpt><trkpt lat="42.27397" lon="13.7975"><ele>346.0</ele><time>2026-05-02T09:41:11.289Z</time></trkpt><trkpt lat="42.2740733" lon="13.797415"><ele>346.5</ele><time>2026-05-02T09:41:12.289Z</time></trkpt><trkpt lat="42.2741733" lon="13.7973483"><ele>347.0</ele><time>2026-05-02T09:41:13.29Z</time></trkpt><trkpt lat="42.274265" lon="13.7972633"><ele>347.0</ele><time>2026-05-02T09:41:14.289Z</time></trkpt><trkpt lat="42.27435" lon="13.7971833"><ele>347.0</ele><time>2026-05-02T09:41:15.29Z</time></trkpt><trkpt lat="42.2744417" lon="13.7970817"><ele>347.0</ele><time>2026-05-02T09:41:16.289Z</time></trkpt><trkpt lat="42.2745283" lon="13.797005"><ele>347.0</ele><time>2026-05-02T09:41:17.289Z</time></trkpt><trkpt lat="42.2746183" lon="13.79693"><ele>347.0</ele><time>2026-05-02T09:41:18.289Z</time></trkpt><trkpt lat="42.27473" lon="13.796845"><ele>347.0</ele><time>2026-05-02T09:41:19.29Z</time></trkpt><trkpt lat="42.2748417" lon="13.7967617"><ele>347.0</ele><time>2026-05-02T09:41:20.289Z</time></trkpt><trkpt lat="42.2749467" lon="13.7966917"><ele>347.0</ele><time>2026-05-02T09:41:21.289Z</time></trkpt><trkpt lat="42.2750433" lon="13.7966317"><ele>347.0</ele><time>2026-05-02T09:41:22.289Z</time></trkpt><trkpt lat="42.2751183" lon="13.7965683"><ele>347.0</ele><time>2026-05-02T09:41:23.289Z</time></trkpt><trkpt lat="42.2751867" lon="13.7964817"><ele>347.0</ele><time>2026-05-02T09:41:24.289Z</time></trkpt><trkpt lat="42.2752667" lon="13.7963817"><ele>347.0</ele><time>2026-05-02T09:41:25.289Z</time></trkpt><trkpt lat="42.2753467" lon="13.7963083"><ele>347.0</ele><time>2026-05-02T09:41:26.289Z</time></trkpt><trkpt lat="42.275425" lon="13.796255"><ele>347.0</ele><time>2026-05-02T09:41:27.289Z</time></trkpt><trkpt lat="42.27551" lon="13.7962217"><ele>347.0</ele><time>2026-05-02T09:41:28.289Z</time></trkpt><trkpt lat="42.2756017" lon="13.7961983"><ele>347.0</ele><time>2026-05-02T09:41:29.289Z</time></trkpt><trkpt lat="42.27569" lon="13.7961683"><ele>347.0</ele><time>2026-05-02T09:41:30.289Z</time></trkpt><trkpt lat="42.2757717" lon="13.7961217"><ele>347.0</ele><time>2026-05-02T09:41:31.289Z</time></trkpt><trkpt lat="42.275855" lon="13.7960583"><ele>347.0</ele><time>2026-05-02T09:41:32.289Z</time></trkpt><trkpt lat="42.2759433" lon="13.795975"><ele>347.0</ele><time>2026-05-02T09:41:33.289Z</time></trkpt><trkpt lat="42.27603" lon="13.7958867"><ele>347.0</ele><time>2026-05-02T09:41:34.289Z</time></trkpt><trkpt lat="42.27612" lon="13.7957867"><ele>347.0</ele><time>2026-05-02T09:41:35.289Z</time></trkpt><trkpt lat="42.2761983" lon="13.7956817"><ele>347.0</ele><time>2026-05-02T09:41:36.29Z</time></trkpt><trkpt lat="42.2762817" lon="13.79559"><ele>347.0</ele><time>2026-05-02T09:41:37.289Z</time></trkpt><trkpt lat="42.2763617" lon="13.7955033"><ele>347.0</ele><time>2026-05-02T09:41:38.289Z</time></trkpt><trkpt lat="42.2764383" lon="13.7954233"><ele>348.5</ele><time>2026-05-02T09:41:39.289Z</time></trkpt><trkpt lat="42.2765167" lon="13.7953633"><ele>350.0</ele><time>2026-05-02T09:41:40.289Z</time></trkpt><trkpt lat="42.2765883" lon="13.7953183"><ele>351.5</ele><time>2026-05-02T09:41:41.289Z</time></trkpt><trkpt lat="42.2766617" lon="13.795285"><ele>353.0</ele><time>2026-05-02T09:41:42.289Z</time></trkpt><trkpt lat="42.276745" lon="13.79524"><ele>354.5</ele><time>2026-05-02T09:41:43.289Z</time></trkpt><trkpt lat="42.276835" lon="13.7952067"><ele>356.0</ele><time>2026-05-02T09:41:44.289Z</time></trkpt><trkpt lat="42.2769217" lon="13.7951917"><ele>356.0</ele><time>2026-05-02T09:41:45.289Z</time></trkpt><trkpt lat="42.2770167" lon="13.79518"><ele>356.0</ele><time>2026-05-02T09:41:46.289Z</time></trkpt><trkpt lat="42.277115" lon="13.79515"><ele>356.0</ele><time>2026-05-02T09:41:47.289Z</time></trkpt><trkpt lat="42.27722" lon="13.795135"><ele>356.0</ele><time>2026-05-02T09:41:48.289Z</time></trkpt><trkpt lat="42.2773233" lon="13.7951333"><ele>356.0</ele><time>2026-05-02T09:41:49.29Z</time></trkpt><trkpt lat="42.2774217" lon="13.7951233"><ele>354.83333333333337</ele><time>2026-05-02T09:41:50.289Z</time></trkpt><trkpt lat="42.2775" lon="13.7951"><ele>353.6666666666667</ele><time>2026-05-02T09:41:51.289Z</time></trkpt><trkpt lat="42.277585" lon="13.7950783"><ele>352.5</ele><time>2026-05-02T09:41:52.289Z</time></trkpt><trkpt lat="42.2776667" lon="13.7950867"><ele>351.3333333333333</ele><time>2026-05-02T09:41:53.289Z</time></trkpt><trkpt lat="42.2777583" lon="13.7950917"><ele>350.16666666666663</ele><time>2026-05-02T09:41:54.289Z</time></trkpt><trkpt lat="42.27785" lon="13.795105"><ele>349.0</ele><time>2026-05-02T09:41:55.289Z</time></trkpt><trkpt lat="42.277955" lon="13.7951267"><ele>349.0</ele><time>2026-05-02T09:41:56.29Z</time></trkpt><trkpt lat="42.2780683" lon="13.7951617"><ele>349.0</ele><time>2026-05-02T09:41:57.289Z</time></trkpt><trkpt lat="42.2781783" lon="13.7951917"><ele>349.0</ele><time>2026-05-02T09:41:58.289Z</time></trkpt><trkpt lat="42.278295" lon="13.7952183"><ele>349.0</ele><time>2026-05-02T09:41:59.289Z</time></trkpt><trkpt lat="42.2784067" lon="13.7952567"><ele>350.0</ele><time>2026-05-02T09:42:00.289Z</time></trkpt><trkpt lat="42.2785167" lon="13.7952767"><ele>351.0</ele><time>2026-05-02T09:42:01.289Z</time></trkpt><trkpt lat="42.2786133" lon="13.7952883"><ele>352.0</ele><time>2026-05-02T09:42:02.289Z</time></trkpt><trkpt lat="42.2787017" lon="13.7953"><ele>353.0</ele><time>2026-05-02T09:42:03.289Z</time></trkpt><trkpt lat="42.278775" lon="13.7953017"><ele>354.0</ele><time>2026-05-02T09:42:04.289Z</time></trkpt><trkpt lat="42.27885" lon="13.7952833"><ele>355.0</ele><time>2026-05-02T09:42:05.289Z</time></trkpt><trkpt lat="42.2789267" lon="13.795255"><ele>354.5</ele><time>2026-05-02T09:42:06.289Z</time></trkpt><trkpt lat="42.27901" lon="13.7952217"><ele>354.0</ele><time>2026-05-02T09:42:07.289Z</time></trkpt><trkpt lat="42.2790917" lon="13.7952"><ele>353.5</ele><time>2026-05-02T09:42:08.289Z</time></trkpt><trkpt lat="42.279175" lon="13.7951817"><ele>353.0</ele><time>2026-05-02T09:42:09.289Z</time></trkpt><trkpt lat="42.2792567" lon="13.7951567"><ele>352.5</ele><time>2026-05-02T09:42:10.289Z</time></trkpt><trkpt lat="42.2793467" lon="13.7951233"><ele>352.0</ele><time>2026-05-02T09:42:11.289Z</time></trkpt><trkpt lat="42.2794317" lon="13.7950783"><ele>350.3333333333333</ele><time>2026-05-02T09:42:12.289Z</time></trkpt><trkpt lat="42.2795033" lon="13.79503"><ele>348.66666666666663</ele><time>2026-05-02T09:42:13.289Z</time></trkpt><trkpt lat="42.2795733" lon="13.7949683"><ele>347.0</ele><time>2026-05-02T09:42:14.289Z</time></trkpt><trkpt lat="42.2796333" lon="13.7949117"><ele>345.3333333333333</ele><time>2026-05-02T09:42:15.289Z</time></trkpt><trkpt lat="42.2796933" lon="13.7948633"><ele>343.6666666666667</ele><time>2026-05-02T09:42:16.289Z</time></trkpt><trkpt lat="42.2797717" lon="13.794795"><ele>342.0</ele><time>2026-05-02T09:42:17.289Z</time></trkpt><trkpt lat="42.27988" lon="13.7947033"><ele>342.0</ele><time>2026-05-02T09:42:18.289Z</time></trkpt><trkpt lat="42.280005" lon="13.79458"><ele>342.0</ele><time>2026-05-02T09:42:19.289Z</time></trkpt><trkpt lat="42.28014" lon="13.7944533"><ele>342.0</ele><time>2026-05-02T09:42:20.289Z</time></trkpt><trkpt lat="42.2802733" lon="13.7943267"><ele>342.0</ele><time>2026-05-02T09:42:21.289Z</time></trkpt><trkpt lat="42.2804" lon="13.794215"><ele>342.0</ele><time>2026-05-02T09:42:22.289Z</time></trkpt><trkpt lat="42.2805417" lon="13.7940933"><ele>342.0</ele><time>2026-05-02T09:42:23.289Z</time></trkpt><trkpt lat="42.280705" lon="13.7939717"><ele>342.0</ele><time>2026-05-02T09:42:24.289Z</time></trkpt><trkpt lat="42.2808783" lon="13.7938483"><ele>342.0</ele><time>2026-05-02T09:42:25.29Z</time></trkpt><trkpt lat="42.2810467" lon="13.7937583"><ele>342.0</ele><time>2026-05-02T09:42:26.289Z</time></trkpt><trkpt lat="42.2812083" lon="13.7936767"><ele>342.0</ele><time>2026-05-02T09:42:27.289Z</time></trkpt><trkpt lat="42.28135" lon="13.7936017"><ele>342.0</ele><time>2026-05-02T09:42:28.289Z</time></trkpt><trkpt lat="42.28147" lon="13.7935433"><ele>342.0</ele><time>2026-05-02T09:42:29.289Z</time></trkpt><trkpt lat="42.2815733" lon="13.7934783"><ele>342.0</ele><time>2026-05-02T09:42:30.289Z</time></trkpt><trkpt lat="42.2816717" lon="13.7934017"><ele>342.0</ele><time>2026-05-02T09:42:31.289Z</time></trkpt><trkpt lat="42.28177" lon="13.79333"><ele>342.0</ele><time>2026-05-02T09:42:32.289Z</time></trkpt><trkpt lat="42.2818783" lon="13.793255"><ele>342.0</ele><time>2026-05-02T09:42:33.289Z</time></trkpt><trkpt lat="42.2819833" lon="13.7931667"><ele>342.0</ele><time>2026-05-02T09:42:34.289Z</time></trkpt><trkpt lat="42.28209" lon="13.7930733"><ele>342.0</ele><time>2026-05-02T09:42:35.29Z</time></trkpt><trkpt lat="42.2822083" lon="13.7929783"><ele>342.0</ele><time>2026-05-02T09:42:36.289Z</time></trkpt><trkpt lat="42.2823117" lon="13.7928633"><ele>342.0</ele><time>2026-05-02T09:42:37.289Z</time></trkpt><trkpt lat="42.2824067" lon="13.7927583"><ele>342.0</ele><time>2026-05-02T09:42:38.289Z</time></trkpt><trkpt lat="42.2824917" lon="13.7926417"><ele>342.20000000000005</ele><time>2026-05-02T09:42:39.289Z</time></trkpt><trkpt lat="42.282565" lon="13.7925117"><ele>342.4</ele><time>2026-05-02T09:42:40.289Z</time></trkpt><trkpt lat="42.282605" lon="13.7924067"><ele>342.6</ele><time>2026-05-02T09:42:41.289Z</time></trkpt><trkpt lat="42.2826383" lon="13.7923017"><ele>342.79999999999995</ele><time>2026-05-02T09:42:42.289Z</time></trkpt><trkpt lat="42.2826817" lon="13.7922067"><ele>343.0</ele><time>2026-05-02T09:42:43.289Z</time></trkpt><trkpt lat="42.2827467" lon="13.792105"><ele>343.0</ele><time>2026-05-02T09:42:44.289Z</time></trkpt><trkpt lat="42.282845" lon="13.7920083"><ele>343.0</ele><time>2026-05-02T09:42:45.289Z</time></trkpt><trkpt lat="42.282945" lon="13.791915"><ele>343.0</ele><time>2026-05-02T09:42:46.289Z</time></trkpt><trkpt lat="42.2830467" lon="13.7918233"><ele>343.0</ele><time>2026-05-02T09:42:47.289Z</time></trkpt><trkpt lat="42.2831583" lon="13.79173"><ele>344.0</ele><time>2026-05-02T09:42:48.289Z</time></trkpt><trkpt lat="42.283265" lon="13.79163"><ele>345.0</ele><time>2026-05-02T09:42:49.288Z</time></trkpt><trkpt lat="42.2833783" lon="13.7915333"><ele>346.0</ele><time>2026-05-02T09:42:50.288Z</time></trkpt><trkpt lat="42.2834867" lon="13.7914417"><ele>347.0</ele><time>2026-05-02T09:42:51.288Z</time></trkpt><trkpt lat="42.2835817" lon="13.791365"><ele>347.0</ele><time>2026-05-02T09:42:52.288Z</time></trkpt><trkpt lat="42.2836567" lon="13.791305"><ele>347.0</ele><time>2026-05-02T09:42:53.288Z</time></trkpt><trkpt lat="42.2837383" lon="13.7912417"><ele>347.0</ele><time>2026-05-02T09:42:55.288Z</time></trkpt><trkpt lat="42.283705" lon="13.791145"><ele>347.0</ele><time>2026-05-02T09:42:59.288Z</time></trkpt><trkpt lat="42.2836" lon="13.7910433"><ele>347.0</ele><time>2026-05-02T09:43:01.288Z</time></trkpt><trkpt lat="42.2835333" lon="13.79099"><ele>347.20000000000005</ele><time>2026-05-02T09:43:02.288Z</time></trkpt><trkpt lat="42.2834583" lon="13.7909167"><ele>347.4</ele><time>2026-05-02T09:43:03.288Z</time></trkpt><trkpt lat="42.2833667" lon="13.7908267"><ele>347.6</ele><time>2026-05-02T09:43:04.288Z</time></trkpt><trkpt lat="42.283275" lon="13.7907133"><ele>347.79999999999995</ele><time>2026-05-02T09:43:05.288Z</time></trkpt><trkpt lat="42.2832017" lon="13.790625"><ele>348.0</ele><time>2026-05-02T09:43:06.288Z</time></trkpt><trkpt lat="42.28314" lon="13.7905267"><ele>347.0</ele><time>2026-05-02T09:43:07.288Z</time></trkpt><trkpt lat="42.283095" lon="13.79044"><ele>346.0</ele><time>2026-05-02T09:43:08.288Z</time></trkpt><trkpt lat="42.28307" lon="13.79036"><ele>345.0</ele><time>2026-05-02T09:43:09.288Z</time></trkpt><trkpt lat="42.2830583" lon="13.7901833"><ele>344.0</ele><time>2026-05-02T09:43:11.289Z</time></trkpt><trkpt lat="42.28307" lon="13.7900717"><ele>343.0</ele><time>2026-05-02T09:43:12.288Z</time></trkpt><trkpt lat="42.283075" lon="13.789965"><ele>342.0</ele><time>2026-05-02T09:43:13.288Z</time></trkpt><trkpt lat="42.2830867" lon="13.7898767"><ele>342.5</ele><time>2026-05-02T09:43:14.288Z</time></trkpt><trkpt lat="42.2830983" lon="13.7897917"><ele>343.0</ele><time>2026-05-02T09:43:15.288Z</time></trkpt><trkpt lat="42.2831317" lon="13.7897033"><ele>343.5</ele><time>2026-05-02T09:43:16.288Z</time></trkpt><trkpt lat="42.2831933" lon="13.7895417"><ele>344.0</ele><time>2026-05-02T09:43:18.288Z</time></trkpt><trkpt lat="42.2832217" lon="13.78942"><ele>344.5</ele><time>2026-05-02T09:43:20.288Z</time></trkpt><trkpt lat="42.283235" lon="13.7893167"><ele>345.0</ele><time>2026-05-02T09:43:22.288Z</time></trkpt><trkpt lat="42.2832467" lon="13.789195"><ele>345.0</ele><time>2026-05-02T09:43:24.288Z</time></trkpt><trkpt lat="42.283275" lon="13.7890417"><ele>345.0</ele><time>2026-05-02T09:43:26.288Z</time></trkpt><trkpt lat="42.2833083" lon="13.7889483"><ele>345.0</ele><time>2026-05-02T09:43:27.288Z</time></trkpt><trkpt lat="42.28333" lon="13.7888517"><ele>345.0</ele><time>2026-05-02T09:43:28.288Z</time></trkpt><trkpt lat="42.2833517" lon="13.7887533"><ele>345.0</ele><time>2026-05-02T09:43:29.288Z</time></trkpt><trkpt lat="42.283375" lon="13.7886517"><ele>345.0</ele><time>2026-05-02T09:43:30.288Z</time></trkpt><trkpt lat="42.2833917" lon="13.7885467"><ele>344.3333333333333</ele><time>2026-05-02T09:43:31.288Z</time></trkpt><trkpt lat="42.2834" lon="13.7884617"><ele>343.6666666666667</ele><time>2026-05-02T09:43:32.288Z</time></trkpt><trkpt lat="42.2834017" lon="13.788355"><ele>343.0</ele><time>2026-05-02T09:43:33.288Z</time></trkpt><trkpt lat="42.2833983" lon="13.7882467"><ele>342.33333333333337</ele><time>2026-05-02T09:43:34.288Z</time></trkpt><trkpt lat="42.2834" lon="13.78814"><ele>341.6666666666667</ele><time>2026-05-02T09:43:35.288Z</time></trkpt><trkpt lat="42.28338" lon="13.78803"><ele>341.0</ele><time>2026-05-02T09:43:36.288Z</time></trkpt><trkpt lat="42.2833433" lon="13.7879117"><ele>341.0</ele><time>2026-05-02T09:43:37.288Z</time></trkpt><trkpt lat="42.2833083" lon="13.787785"><ele>341.0</ele><time>2026-05-02T09:43:38.288Z</time></trkpt><trkpt lat="42.2832567" lon="13.7876767"><ele>341.0</ele><time>2026-05-02T09:43:39.288Z</time></trkpt><trkpt lat="42.2832083" lon="13.787575"><ele>341.0</ele><time>2026-05-02T09:43:40.288Z</time></trkpt><trkpt lat="42.2831633" lon="13.7874983"><ele>341.0</ele><time>2026-05-02T09:43:41.288Z</time></trkpt><trkpt lat="42.2831167" lon="13.7874283"><ele>341.0</ele><time>2026-05-02T09:43:42.288Z</time></trkpt><trkpt lat="42.28307" lon="13.7873583"><ele>341.0</ele><time>2026-05-02T09:43:43.288Z</time></trkpt><trkpt lat="42.283015" lon="13.787245"><ele>341.0</ele><time>2026-05-02T09:43:45.288Z</time></trkpt><trkpt lat="42.28298" lon="13.7871567"><ele>341.0</ele><time>2026-05-02T09:43:47.288Z</time></trkpt><trkpt lat="42.282895" lon="13.78702"><ele>341.0</ele><time>2026-05-02T09:43:49.288Z</time></trkpt><trkpt lat="42.2828517" lon="13.78694"><ele>341.0</ele><time>2026-05-02T09:43:50.288Z</time></trkpt><trkpt lat="42.282805" lon="13.7868433"><ele>341.0</ele><time>2026-05-02T09:43:51.288Z</time></trkpt><trkpt lat="42.2827633" lon="13.7867367"><ele>341.0</ele><time>2026-05-02T09:43:52.288Z</time></trkpt><trkpt lat="42.2827267" lon="13.7866417"><ele>341.0</ele><time>2026-05-02T09:43:53.288Z</time></trkpt><trkpt lat="42.2826833" lon="13.78655"><ele>341.0</ele><time>2026-05-02T09:43:54.288Z</time></trkpt><trkpt lat="42.2826483" lon="13.7864467"><ele>341.0</ele><time>2026-05-02T09:43:55.288Z</time></trkpt><trkpt lat="42.2826133" lon="13.7863483"><ele>341.0</ele><time>2026-05-02T09:43:56.288Z</time></trkpt><trkpt lat="42.2825783" lon="13.7862433"><ele>341.0</ele><time>2026-05-02T09:43:57.288Z</time></trkpt><trkpt lat="42.2825433" lon="13.786145"><ele>341.0</ele><time>2026-05-02T09:43:58.288Z</time></trkpt><trkpt lat="42.2825083" lon="13.786035"><ele>341.0</ele><time>2026-05-02T09:43:59.288Z</time></trkpt><trkpt lat="42.2824717" lon="13.785925"><ele>341.0</ele><time>2026-05-02T09:44:00.288Z</time></trkpt><trkpt lat="42.282435" lon="13.7858167"><ele>341.0</ele><time>2026-05-02T09:44:01.288Z</time></trkpt><trkpt lat="42.2824017" lon="13.7857133"><ele>341.0</ele><time>2026-05-02T09:44:02.288Z</time></trkpt><trkpt lat="42.2823667" lon="13.7856117"><ele>340.83333333333337</ele><time>2026-05-02T09:44:03.288Z</time></trkpt><trkpt lat="42.2823367" lon="13.78551"><ele>340.6666666666667</ele><time>2026-05-02T09:44:04.288Z</time></trkpt><trkpt lat="42.2823083" lon="13.7854"><ele>340.5</ele><time>2026-05-02T09:44:05.288Z</time></trkpt><trkpt lat="42.2822817" lon="13.7852983"><ele>340.3333333333333</ele><time>2026-05-02T09:44:06.288Z</time></trkpt><trkpt lat="42.2822567" lon="13.7852083"><ele>340.16666666666663</ele><time>2026-05-02T09:44:07.288Z</time></trkpt><trkpt lat="42.2822283" lon="13.785115"><ele>340.0</ele><time>2026-05-02T09:44:08.288Z</time></trkpt><trkpt lat="42.2821983" lon="13.78502"><ele>340.0</ele><time>2026-05-02T09:44:09.288Z</time></trkpt><trkpt lat="42.2821683" lon="13.7849067"><ele>340.0</ele><time>2026-05-02T09:44:10.288Z</time></trkpt><trkpt lat="42.28214" lon="13.7847783"><ele>340.0</ele><time>2026-05-02T09:44:11.288Z</time></trkpt><trkpt lat="42.282105" lon="13.7846383"><ele>340.0</ele><time>2026-05-02T09:44:12.288Z</time></trkpt><trkpt lat="42.2820683" lon="13.78448"><ele>340.0</ele><time>2026-05-02T09:44:13.288Z</time></trkpt><trkpt lat="42.28203" lon="13.78433"><ele>340.0</ele><time>2026-05-02T09:44:14.288Z</time></trkpt><trkpt lat="42.281995" lon="13.7841967"><ele>340.0</ele><time>2026-05-02T09:44:15.288Z</time></trkpt><trkpt lat="42.281965" lon="13.7840583"><ele>340.0</ele><time>2026-05-02T09:44:16.288Z</time></trkpt><trkpt lat="42.28193" lon="13.7839233"><ele>340.0</ele><time>2026-05-02T09:44:17.288Z</time></trkpt><trkpt lat="42.2819" lon="13.7837917"><ele>340.0</ele><time>2026-05-02T09:44:18.288Z</time></trkpt><trkpt lat="42.28186" lon="13.783655"><ele>339.75</ele><time>2026-05-02T09:44:19.288Z</time></trkpt><trkpt lat="42.2818233" lon="13.78351"><ele>339.5</ele><time>2026-05-02T09:44:20.288Z</time></trkpt><trkpt lat="42.2817733" lon="13.7833617"><ele>339.25</ele><time>2026-05-02T09:44:21.289Z</time></trkpt><trkpt lat="42.2817283" lon="13.7832017"><ele>339.0</ele><time>2026-05-02T09:44:22.288Z</time></trkpt><trkpt lat="42.2816833" lon="13.783045"><ele>339.0</ele><time>2026-05-02T09:44:23.288Z</time></trkpt><trkpt lat="42.281635" lon="13.7828967"><ele>339.0</ele><time>2026-05-02T09:44:24.288Z</time></trkpt><trkpt lat="42.2815917" lon="13.7827633"><ele>339.0</ele><time>2026-05-02T09:44:25.289Z</time></trkpt><trkpt lat="42.2815417" lon="13.7826233"><ele>339.0</ele><time>2026-05-02T09:44:26.288Z</time></trkpt><trkpt lat="42.2814933" lon="13.782475"><ele>339.75</ele><time>2026-05-02T09:44:27.288Z</time></trkpt><trkpt lat="42.28144" lon="13.7823333"><ele>340.5</ele><time>2026-05-02T09:44:28.288Z</time></trkpt><trkpt lat="42.28138" lon="13.7821817"><ele>341.25</ele><time>2026-05-02T09:44:29.288Z</time></trkpt><trkpt lat="42.2813233" lon="13.782005"><ele>342.0</ele><time>2026-05-02T09:44:30.288Z</time></trkpt><trkpt lat="42.2812667" lon="13.78183"><ele>342.0</ele><time>2026-05-02T09:44:31.288Z</time></trkpt><trkpt lat="42.2812133" lon="13.78166"><ele>342.0</ele><time>2026-05-02T09:44:32.288Z</time></trkpt><trkpt lat="42.28116" lon="13.7814933"><ele>342.0</ele><time>2026-05-02T09:44:33.288Z</time></trkpt><trkpt lat="42.2811033" lon="13.7813367"><ele>342.0</ele><time>2026-05-02T09:44:34.288Z</time></trkpt><trkpt lat="42.281055" lon="13.7811767"><ele>341.75</ele><time>2026-05-02T09:44:35.288Z</time></trkpt><trkpt lat="42.2810133" lon="13.7810133"><ele>341.5</ele><time>2026-05-02T09:44:36.289Z</time></trkpt><trkpt lat="42.2809717" lon="13.7808533"><ele>341.25</ele><time>2026-05-02T09:44:37.288Z</time></trkpt><trkpt lat="42.28093" lon="13.7806983"><ele>341.0</ele><time>2026-05-02T09:44:38.288Z</time></trkpt><trkpt lat="42.2808917" lon="13.780545"><ele>341.0</ele><time>2026-05-02T09:44:39.288Z</time></trkpt><trkpt lat="42.2808533" lon="13.780395"><ele>341.0</ele><time>2026-05-02T09:44:40.288Z</time></trkpt><trkpt lat="42.28082" lon="13.7802717"><ele>341.0</ele><time>2026-05-02T09:44:41.288Z</time></trkpt><trkpt lat="42.28079" lon="13.7801633"><ele>341.0</ele><time>2026-05-02T09:44:42.289Z</time></trkpt><trkpt lat="42.28076" lon="13.7800367"><ele>341.0</ele><time>2026-05-02T09:44:43.288Z</time></trkpt><trkpt lat="42.280725" lon="13.7799017"><ele>341.75</ele><time>2026-05-02T09:44:44.288Z</time></trkpt><trkpt lat="42.280685" lon="13.77977"><ele>342.5</ele><time>2026-05-02T09:44:45.288Z</time></trkpt><trkpt lat="42.2806333" lon="13.77962"><ele>343.25</ele><time>2026-05-02T09:44:46.288Z</time></trkpt><trkpt lat="42.28057" lon="13.779475"><ele>344.0</ele><time>2026-05-02T09:44:47.288Z</time></trkpt><trkpt lat="42.2805133" lon="13.7793433"><ele>344.4</ele><time>2026-05-02T09:44:48.288Z</time></trkpt><trkpt lat="42.2804717" lon="13.7792133"><ele>344.79999999999995</ele><time>2026-05-02T09:44:49.288Z</time></trkpt><trkpt lat="42.2804417" lon="13.77908"><ele>345.20000000000005</ele><time>2026-05-02T09:44:50.289Z</time></trkpt><trkpt lat="42.2804117" lon="13.7789417"><ele>345.6</ele><time>2026-05-02T09:44:51.288Z</time></trkpt><trkpt lat="42.2803917" lon="13.7787867"><ele>346.0</ele><time>2026-05-02T09:44:52.288Z</time></trkpt><trkpt lat="42.280365" lon="13.778615"><ele>345.75</ele><time>2026-05-02T09:44:53.289Z</time></trkpt><trkpt lat="42.2803417" lon="13.7784433"><ele>345.5</ele><time>2026-05-02T09:44:54.288Z</time></trkpt><trkpt lat="42.2803217" lon="13.7782583"><ele>345.25</ele><time>2026-05-02T09:44:55.288Z</time></trkpt><trkpt lat="42.2803033" lon="13.77809"><ele>345.0</ele><time>2026-05-02T09:44:56.288Z</time></trkpt><trkpt lat="42.2802783" lon="13.7779267"><ele>345.0</ele><time>2026-05-02T09:44:57.288Z</time></trkpt><trkpt lat="42.2802567" lon="13.7777617"><ele>345.0</ele><time>2026-05-02T09:44:58.288Z</time></trkpt><trkpt lat="42.2802333" lon="13.7775867"><ele>345.0</ele><time>2026-05-02T09:44:59.288Z</time></trkpt><trkpt lat="42.2802133" lon="13.777415"><ele>345.0</ele><time>2026-05-02T09:45:00.288Z</time></trkpt><trkpt lat="42.2801883" lon="13.7772633"><ele>345.25</ele><time>2026-05-02T09:45:01.288Z</time></trkpt><trkpt lat="42.2801633" lon="13.7771033"><ele>345.5</ele><time>2026-05-02T09:45:02.288Z</time></trkpt><trkpt lat="42.2801317" lon="13.7769317"><ele>345.75</ele><time>2026-05-02T09:45:03.288Z</time></trkpt><trkpt lat="42.2800983" lon="13.7767617"><ele>346.0</ele><time>2026-05-02T09:45:04.288Z</time></trkpt><trkpt lat="42.2800667" lon="13.77659"><ele>346.0</ele><time>2026-05-02T09:45:05.288Z</time></trkpt><trkpt lat="42.28004" lon="13.776415"><ele>346.0</ele><time>2026-05-02T09:45:06.288Z</time></trkpt><trkpt lat="42.2800167" lon="13.77625"><ele>346.0</ele><time>2026-05-02T09:45:07.289Z</time></trkpt><trkpt lat="42.2799933" lon="13.7760967"><ele>346.0</ele><time>2026-05-02T09:45:08.288Z</time></trkpt><trkpt lat="42.279975" lon="13.775935"><ele>346.20000000000005</ele><time>2026-05-02T09:45:09.288Z</time></trkpt><trkpt lat="42.279975" lon="13.7757733"><ele>346.40000000000003</ele><time>2026-05-02T09:45:10.288Z</time></trkpt><trkpt lat="42.2799733" lon="13.775645"><ele>346.6</ele><time>2026-05-02T09:45:11.288Z</time></trkpt><trkpt lat="42.2799767" lon="13.775545"><ele>346.8</ele><time>2026-05-02T09:45:12.289Z</time></trkpt><trkpt lat="42.2799883" lon="13.7754583"><ele>347.0</ele><time>2026-05-02T09:45:13.289Z</time></trkpt><trkpt lat="42.2800767" lon="13.775345"><ele>347.0</ele><time>2026-05-02T09:45:15.288Z</time></trkpt><trkpt lat="42.2801583" lon="13.7752933"><ele>347.0</ele><time>2026-05-02T09:45:16.288Z</time></trkpt><trkpt lat="42.2802517" lon="13.775225"><ele>347.0</ele><time>2026-05-02T09:45:17.288Z</time></trkpt><trkpt lat="42.2803567" lon="13.77515"><ele>347.0</ele><time>2026-05-02T09:45:18.288Z</time></trkpt><trkpt lat="42.2804767" lon="13.775075"><ele>347.0</ele><time>2026-05-02T09:45:19.288Z</time></trkpt><trkpt lat="42.2805917" lon="13.7749933"><ele>347.0</ele><time>2026-05-02T09:45:20.288Z</time></trkpt><trkpt lat="42.2807" lon="13.77492"><ele>347.0</ele><time>2026-05-02T09:45:21.288Z</time></trkpt><trkpt lat="42.2807983" lon="13.7748517"><ele>347.0</ele><time>2026-05-02T09:45:22.288Z</time></trkpt><trkpt lat="42.28089" lon="13.7747883"><ele>347.0</ele><time>2026-05-02T09:45:23.288Z</time></trkpt><trkpt lat="42.2809783" lon="13.7747267"><ele>347.0</ele><time>2026-05-02T09:45:24.288Z</time></trkpt><trkpt lat="42.2810617" lon="13.77467"><ele>347.0</ele><time>2026-05-02T09:45:25.288Z</time></trkpt><trkpt lat="42.28114" lon="13.7746217"><ele>347.0</ele><time>2026-05-02T09:45:26.288Z</time></trkpt><trkpt lat="42.2812083" lon="13.7745783"><ele>347.0</ele><time>2026-05-02T09:45:27.288Z</time></trkpt><trkpt lat="42.2812717" lon="13.7745367"><ele>347.0</ele><time>2026-05-02T09:45:28.288Z</time></trkpt><trkpt lat="42.2813333" lon="13.774505"><ele>347.0</ele><time>2026-05-02T09:45:29.288Z</time></trkpt><trkpt lat="42.2814283" lon="13.7744517"><ele>347.0</ele><time>2026-05-02T09:45:31.288Z</time></trkpt><trkpt lat="42.2814933" lon="13.7744133"><ele>348.0</ele><time>2026-05-02T09:45:34.289Z</time></trkpt><trkpt lat="42.281535" lon="13.7742283"><ele>349.0</ele><time>2026-05-02T09:46:27.288Z</time></trkpt><trkpt lat="42.2814817" lon="13.7741517"><ele>350.0</ele><time>2026-05-02T09:46:28.288Z</time></trkpt><trkpt lat="42.281405" lon="13.77405"><ele>351.0</ele><time>2026-05-02T09:46:29.288Z</time></trkpt><trkpt lat="42.2813083" lon="13.7739317"><ele>351.0</ele><time>2026-05-02T09:46:30.289Z</time></trkpt><trkpt lat="42.2812" lon="13.773805"><ele>351.0</ele><time>2026-05-02T09:46:31.288Z</time></trkpt><trkpt lat="42.281095" lon="13.773675"><ele>351.0</ele><time>2026-05-02T09:46:32.288Z</time></trkpt><trkpt lat="42.281" lon="13.7735483"><ele>351.0</ele><time>2026-05-02T09:46:33.288Z</time></trkpt><trkpt lat="42.2809133" lon="13.7734133"><ele>353.3333333333333</ele><time>2026-05-02T09:46:34.288Z</time></trkpt><trkpt lat="42.2808217" lon="13.77325"><ele>355.66666666666663</ele><time>2026-05-02T09:46:35.288Z</time></trkpt><trkpt lat="42.28073" lon="13.77307"><ele>358.0</ele><time>2026-05-02T09:46:36.288Z</time></trkpt><trkpt lat="42.2806433" lon="13.7728867"><ele>357.25</ele><time>2026-05-02T09:46:37.288Z</time></trkpt><trkpt lat="42.2805583" lon="13.77271"><ele>356.5</ele><time>2026-05-02T09:46:38.288Z</time></trkpt><trkpt lat="42.2804783" lon="13.7725517"><ele>355.75</ele><time>2026-05-02T09:46:39.288Z</time></trkpt><trkpt lat="42.2804" lon="13.772415"><ele>355.0</ele><time>2026-05-02T09:46:40.288Z</time></trkpt><trkpt lat="42.2803267" lon="13.77229"><ele>355.0</ele><time>2026-05-02T09:46:41.289Z</time></trkpt><trkpt lat="42.2802517" lon="13.7721833"><ele>355.0</ele><time>2026-05-02T09:46:42.288Z</time></trkpt><trkpt lat="42.2801583" lon="13.772105"><ele>355.0</ele><time>2026-05-02T09:46:43.288Z</time></trkpt><trkpt lat="42.2800467" lon="13.772035"><ele>355.0</ele><time>2026-05-02T09:46:44.288Z</time></trkpt><trkpt lat="42.2799267" lon="13.7719717"><ele>355.0</ele><time>2026-05-02T09:46:45.288Z</time></trkpt><trkpt lat="42.2798167" lon="13.77189"><ele>355.0</ele><time>2026-05-02T09:46:46.288Z</time></trkpt><trkpt lat="42.2797283" lon="13.7717817"><ele>355.0</ele><time>2026-05-02T09:46:47.288Z</time></trkpt><trkpt lat="42.2796567" lon="13.7716417"><ele>355.0</ele><time>2026-05-02T09:46:48.288Z</time></trkpt><trkpt lat="42.27959" lon="13.7714833"><ele>355.66666666666663</ele><time>2026-05-02T09:46:49.288Z</time></trkpt><trkpt lat="42.2795217" lon="13.77131"><ele>356.3333333333333</ele><time>2026-05-02T09:46:50.288Z</time></trkpt><trkpt lat="42.27947" lon="13.7711117"><ele>357.0</ele><time>2026-05-02T09:46:51.288Z</time></trkpt><trkpt lat="42.279395" lon="13.7709083"><ele>357.6666666666667</ele><time>2026-05-02T09:46:52.288Z</time></trkpt><trkpt lat="42.2793233" lon="13.7706933"><ele>358.33333333333337</ele><time>2026-05-02T09:46:53.288Z</time></trkpt><trkpt lat="42.2792567" lon="13.7704883"><ele>359.0</ele><time>2026-05-02T09:46:54.289Z</time></trkpt><trkpt lat="42.27919" lon="13.7703033"><ele>359.5</ele><time>2026-05-02T09:46:55.288Z</time></trkpt><trkpt lat="42.27912" lon="13.7701333"><ele>360.0</ele><time>2026-05-02T09:46:56.288Z</time></trkpt><trkpt lat="42.2790633" lon="13.769975"><ele>360.5</ele><time>2026-05-02T09:46:57.289Z</time></trkpt><trkpt lat="42.2790067" lon="13.7698283"><ele>361.0</ele><time>2026-05-02T09:46:58.289Z</time></trkpt><trkpt lat="42.27896" lon="13.7696867"><ele>360.8</ele><time>2026-05-02T09:46:59.288Z</time></trkpt><trkpt lat="42.2789267" lon="13.769565"><ele>360.6</ele><time>2026-05-02T09:47:00.289Z</time></trkpt><trkpt lat="42.2788933" lon="13.769475"><ele>360.4</ele><time>2026-05-02T09:47:01.288Z</time></trkpt><trkpt lat="42.278875" lon="13.7693433"><ele>360.2</ele><time>2026-05-02T09:47:03.288Z</time></trkpt><trkpt lat="42.27897" lon="13.7692133"><ele>360.0</ele><time>2026-05-02T09:47:05.288Z</time></trkpt><trkpt lat="42.2790467" lon="13.7691483"><ele>360.75</ele><time>2026-05-02T09:47:06.288Z</time></trkpt><trkpt lat="42.27915" lon="13.76907"><ele>361.5</ele><time>2026-05-02T09:47:07.288Z</time></trkpt><trkpt lat="42.2792633" lon="13.7689867"><ele>362.25</ele><time>2026-05-02T09:47:08.288Z</time></trkpt><trkpt lat="42.2793767" lon="13.7688983"><ele>363.0</ele><time>2026-05-02T09:47:09.288Z</time></trkpt><trkpt lat="42.2794967" lon="13.768805"><ele>363.0</ele><time>2026-05-02T09:47:10.289Z</time></trkpt><trkpt lat="42.2796333" lon="13.7687017"><ele>363.0</ele><time>2026-05-02T09:47:11.289Z</time></trkpt><trkpt lat="42.2797633" lon="13.768605"><ele>363.0</ele><time>2026-05-02T09:47:12.288Z</time></trkpt><trkpt lat="42.2798867" lon="13.7685033"><ele>363.0</ele><time>2026-05-02T09:47:13.288Z</time></trkpt><trkpt lat="42.2800117" lon="13.7683967"><ele>364.3333333333333</ele><time>2026-05-02T09:47:14.288Z</time></trkpt><trkpt lat="42.2801233" lon="13.7682617"><ele>365.66666666666663</ele><time>2026-05-02T09:47:15.288Z</time></trkpt><trkpt lat="42.2802433" lon="13.768105"><ele>367.0</ele><time>2026-05-02T09:47:16.288Z</time></trkpt><trkpt lat="42.28037" lon="13.7679467"><ele>367.0</ele><time>2026-05-02T09:47:17.288Z</time></trkpt><trkpt lat="42.2804883" lon="13.7678067"><ele>367.0</ele><time>2026-05-02T09:47:18.289Z</time></trkpt><trkpt lat="42.2806067" lon="13.7676517"><ele>367.0</ele><time>2026-05-02T09:47:19.288Z</time></trkpt><trkpt lat="42.28073" lon="13.7675133"><ele>368.3333333333333</ele><time>2026-05-02T09:47:20.288Z</time></trkpt><trkpt lat="42.2808583" lon="13.7673933"><ele>369.6666666666667</ele><time>2026-05-02T09:47:21.288Z</time></trkpt><trkpt lat="42.2809883" lon="13.7672683"><ele>371.0</ele><time>2026-05-02T09:47:22.288Z</time></trkpt><trkpt lat="42.2811217" lon="13.767145"><ele>371.0</ele><time>2026-05-02T09:47:23.288Z</time></trkpt><trkpt lat="42.2812617" lon="13.7670317"><ele>371.0</ele><time>2026-05-02T09:47:24.288Z</time></trkpt><trkpt lat="42.2813933" lon="13.7669183"><ele>371.0</ele><time>2026-05-02T09:47:25.288Z</time></trkpt><trkpt lat="42.2815133" lon="13.7668133"><ele>372.25</ele><time>2026-05-02T09:47:26.288Z</time></trkpt><trkpt lat="42.281635" lon="13.7666967"><ele>373.5</ele><time>2026-05-02T09:47:27.288Z</time></trkpt><trkpt lat="42.281745" lon="13.7665683"><ele>374.75</ele><time>2026-05-02T09:47:28.288Z</time></trkpt><trkpt lat="42.2818533" lon="13.7664267"><ele>376.0</ele><time>2026-05-02T09:47:29.288Z</time></trkpt><trkpt lat="42.28196" lon="13.76628"><ele>376.0</ele><time>2026-05-02T09:47:30.288Z</time></trkpt><trkpt lat="42.2820483" lon="13.7661317"><ele>376.0</ele><time>2026-05-02T09:47:31.288Z</time></trkpt><trkpt lat="42.2821467" lon="13.7659783"><ele>376.0</ele><time>2026-05-02T09:47:32.288Z</time></trkpt><trkpt lat="42.2822483" lon="13.7658217"><ele>376.0</ele><time>2026-05-02T09:47:33.289Z</time></trkpt><trkpt lat="42.2823433" lon="13.76567"><ele>377.0</ele><time>2026-05-02T09:47:34.289Z</time></trkpt><trkpt lat="42.282445" lon="13.765515"><ele>378.0</ele><time>2026-05-02T09:47:35.288Z</time></trkpt><trkpt lat="42.282535" lon="13.765385"><ele>379.0</ele><time>2026-05-02T09:47:36.288Z</time></trkpt><trkpt lat="42.2826233" lon="13.7652483"><ele>380.0</ele><time>2026-05-02T09:47:37.289Z</time></trkpt><trkpt lat="42.2827017" lon="13.7651283"><ele>381.0</ele><time>2026-05-02T09:47:38.288Z</time></trkpt><trkpt lat="42.2827817" lon="13.7650033"><ele>382.0</ele><time>2026-05-02T09:47:39.288Z</time></trkpt><trkpt lat="42.2828633" lon="13.764885"><ele>383.0</ele><time>2026-05-02T09:47:40.288Z</time></trkpt><trkpt lat="42.2829467" lon="13.7647633"><ele>384.0</ele><time>2026-05-02T09:47:41.288Z</time></trkpt><trkpt lat="42.2830333" lon="13.7646483"><ele>384.25</ele><time>2026-05-02T09:47:42.288Z</time></trkpt><trkpt lat="42.2831067" lon="13.764525"><ele>384.5</ele><time>2026-05-02T09:47:43.288Z</time></trkpt><trkpt lat="42.2831883" lon="13.76441"><ele>384.75</ele><time>2026-05-02T09:47:44.289Z</time></trkpt><trkpt lat="42.2832667" lon="13.7642883"><ele>385.0</ele><time>2026-05-02T09:47:45.288Z</time></trkpt><trkpt lat="42.2833417" lon="13.7641733"><ele>385.4</ele><time>2026-05-02T09:47:46.288Z</time></trkpt><trkpt lat="42.2834033" lon="13.764065"><ele>385.8</ele><time>2026-05-02T09:47:47.288Z</time></trkpt><trkpt lat="42.283465" lon="13.7639783"><ele>386.20000000000005</ele><time>2026-05-02T09:47:48.289Z</time></trkpt><trkpt lat="42.2835167" lon="13.7639017"><ele>386.6</ele><time>2026-05-02T09:47:49.288Z</time></trkpt><trkpt lat="42.283565" lon="13.7638233"><ele>387.0</ele><time>2026-05-02T09:47:51.288Z</time></trkpt><trkpt lat="42.2834667" lon="13.763715"><ele>387.0</ele><time>2026-05-02T09:48:04.288Z</time></trkpt><trkpt lat="42.2834" lon="13.7637033"><ele>387.0</ele><time>2026-05-02T09:48:05.288Z</time></trkpt><trkpt lat="42.2833283" lon="13.763695"><ele>387.0</ele><time>2026-05-02T09:48:06.288Z</time></trkpt><trkpt lat="42.2832483" lon="13.7636933"><ele>387.0</ele><time>2026-05-02T09:48:07.288Z</time></trkpt><trkpt lat="42.2831667" lon="13.7636833"><ele>387.0</ele><time>2026-05-02T09:48:08.288Z</time></trkpt><trkpt lat="42.2830883" lon="13.7636667"><ele>387.0</ele><time>2026-05-02T09:48:09.288Z</time></trkpt><trkpt lat="42.2830183" lon="13.7636583"><ele>387.57142857142856</ele><time>2026-05-02T09:48:10.288Z</time></trkpt><trkpt lat="42.28292" lon="13.763655"><ele>388.14285714285717</ele><time>2026-05-02T09:48:12.288Z</time></trkpt><trkpt lat="42.282855" lon="13.763695"><ele>388.71428571428567</ele><time>2026-05-02T09:48:15.288Z</time></trkpt><trkpt lat="42.2828017" lon="13.7637467"><ele>389.2857142857143</ele><time>2026-05-02T09:48:25.288Z</time></trkpt><trkpt lat="42.2827367" lon="13.7637333"><ele>389.85714285714283</ele><time>2026-05-02T09:48:56.288Z</time></trkpt><trkpt lat="42.2826717" lon="13.7637117"><ele>390.4285714285714</ele><time>2026-05-02T09:48:59.288Z</time></trkpt><trkpt lat="42.2826117" lon="13.76368"><ele>391.0</ele><time>2026-05-02T09:49:04.288Z</time></trkpt><trkpt lat="42.282535" lon="13.7635983"><ele>391.00000000000006</ele><time>2026-05-02T09:51:08.288Z</time></trkpt><trkpt lat="42.2824467" lon="13.7635667"><ele>391.0</ele><time>2026-05-02T09:52:19.288Z</time></trkpt><trkpt lat="42.2823633" lon="13.7635483"><ele>391.0</ele><time>2026-05-02T09:52:23.288Z</time></trkpt><trkpt lat="42.28229" lon="13.7635167"><ele>391.0</ele><time>2026-05-02T09:52:27.289Z</time></trkpt><trkpt lat="42.2822167" lon="13.763515"><ele>391.00000000000006</ele><time>2026-05-02T09:52:32.288Z</time></trkpt><trkpt lat="42.28215" lon="13.7635317"><ele>391.0</ele><time>2026-05-02T09:52:37.288Z</time></trkpt><trkpt lat="42.2820683" lon="13.7635633"><ele>393.33333333333337</ele><time>2026-05-02T09:52:40.288Z</time></trkpt><trkpt lat="42.282" lon="13.7635667"><ele>395.6666666666667</ele><time>2026-05-02T09:52:42.289Z</time></trkpt><trkpt lat="42.28193" lon="13.76357"><ele>398.0</ele><time>2026-05-02T09:52:44.288Z</time></trkpt><trkpt lat="42.2818633" lon="13.7635583"><ele>400.33333333333337</ele><time>2026-05-02T09:52:47.288Z</time></trkpt><trkpt lat="42.2817683" lon="13.7635517"><ele>402.6666666666667</ele><time>2026-05-02T09:52:51.288Z</time></trkpt><trkpt lat="42.2816567" lon="13.7635608"><ele>405.0</ele><time>2026-05-02T09:52:54.288Z</time></trkpt><trkpt lat="42.2815415" lon="13.7635766"><ele>405.0</ele><time>2026-05-02T09:52:56.288Z</time></trkpt><trkpt lat="42.2814412" lon="13.7636036"><ele>405.0</ele><time>2026-05-02T09:52:58.288Z</time></trkpt><trkpt lat="42.2813503" lon="13.7636263"><ele>405.0</ele><time>2026-05-02T09:53:00.288Z</time></trkpt><trkpt lat="42.2812634" lon="13.7636433"><ele>405.0</ele><time>2026-05-02T09:53:02.289Z</time></trkpt><trkpt lat="42.2811781" lon="13.7636421"><ele>405.0</ele><time>2026-05-02T09:53:04.288Z</time></trkpt><trkpt lat="42.2810958" lon="13.7636285"><ele>407.0</ele><time>2026-05-02T09:53:06.288Z</time></trkpt><trkpt lat="42.2810263" lon="13.763584"><ele>409.0</ele><time>2026-05-02T09:53:09.288Z</time></trkpt><trkpt lat="42.2809483" lon="13.7635533"><ele>411.0</ele><time>2026-05-02T09:53:43.288Z</time></trkpt><trkpt lat="42.2808833" lon="13.7635683"><ele>413.0</ele><time>2026-05-02T09:53:46.288Z</time></trkpt><trkpt lat="42.280815" lon="13.763555"><ele>415.0</ele><time>2026-05-02T09:53:48.288Z</time></trkpt><trkpt lat="42.2807333" lon="13.76352"><ele>417.0</ele><time>2026-05-02T09:53:50.288Z</time></trkpt><trkpt lat="42.2806567" lon="13.7635"><ele>421.5</ele><time>2026-05-02T09:53:52.288Z</time></trkpt><trkpt lat="42.2805883" lon="13.7634667"><ele>426.0</ele><time>2026-05-02T09:53:54.288Z</time></trkpt><trkpt lat="42.2805067" lon="13.763425"><ele>430.5</ele><time>2026-05-02T09:53:56.288Z</time></trkpt><trkpt lat="42.280425" lon="13.7634083"><ele>435.0</ele><time>2026-05-02T09:53:58.288Z</time></trkpt><trkpt lat="42.2803417" lon="13.763385"><ele>439.5</ele><time>2026-05-02T09:54:00.288Z</time></trkpt><trkpt lat="42.2802783" lon="13.763375"><ele>444.0</ele><time>2026-05-02T09:54:02.288Z</time></trkpt><trkpt lat="42.2801767" lon="13.7632967"><ele>444.0</ele><time>2026-05-02T09:54:15.288Z</time></trkpt><trkpt lat="42.2801167" lon="13.76324"><ele>444.0</ele><time>2026-05-02T09:54:17.288Z</time></trkpt><trkpt lat="42.2800517" lon="13.7631683"><ele>444.0</ele><time>2026-05-02T09:54:19.288Z</time></trkpt><trkpt lat="42.27999" lon="13.76309"><ele>444.0</ele><time>2026-05-02T09:54:21.288Z</time></trkpt><trkpt lat="42.27991" lon="13.76301"><ele>444.0</ele><time>2026-05-02T09:54:23.288Z</time></trkpt><trkpt lat="42.2798433" lon="13.7629183"><ele>444.0</ele><time>2026-05-02T09:54:25.288Z</time></trkpt><trkpt lat="42.2797617" lon="13.7628267"><ele>445.79999999999995</ele><time>2026-05-02T09:54:27.289Z</time></trkpt><trkpt lat="42.2796817" lon="13.7627517"><ele>447.59999999999997</ele><time>2026-05-02T09:54:29.288Z</time></trkpt><trkpt lat="42.2795967" lon="13.7626667"><ele>449.4</ele><time>2026-05-02T09:54:31.288Z</time></trkpt><trkpt lat="42.27951" lon="13.7626033"><ele>451.2</ele><time>2026-05-02T09:54:33.288Z</time></trkpt><trkpt lat="42.2794333" lon="13.7625267"><ele>453.0</ele><time>2026-05-02T09:55:47.288Z</time></trkpt><trkpt lat="42.2793683" lon="13.7625217"><ele>454.4</ele><time>2026-05-02T09:55:51.288Z</time></trkpt><trkpt lat="42.279295" lon="13.7624917"><ele>455.79999999999995</ele><time>2026-05-02T09:55:53.288Z</time></trkpt><trkpt lat="42.279185" lon="13.7624483"><ele>457.2</ele><time>2026-05-02T09:55:55.288Z</time></trkpt><trkpt lat="42.279065" lon="13.7624033"><ele>458.6</ele><time>2026-05-02T09:55:57.288Z</time></trkpt><trkpt lat="42.2789517" lon="13.76235"><ele>460.0</ele><time>2026-05-02T09:55:59.288Z</time></trkpt><trkpt lat="42.27884" lon="13.762295"><ele>461.2857142857142</ele><time>2026-05-02T09:56:01.288Z</time></trkpt><trkpt lat="42.27878" lon="13.7622683"><ele>462.57142857142856</ele><time>2026-05-02T09:56:02.288Z</time></trkpt><trkpt lat="42.278715" lon="13.7622433"><ele>463.85714285714283</ele><time>2026-05-02T09:56:03.288Z</time></trkpt><trkpt lat="42.278645" lon="13.76222"><ele>465.1428571428571</ele><time>2026-05-02T09:56:04.288Z</time></trkpt><trkpt lat="42.2785767" lon="13.7621933"><ele>466.42857142857144</ele><time>2026-05-02T09:56:05.288Z</time></trkpt><trkpt lat="42.2785133" lon="13.762165"><ele>467.7142857142857</ele><time>2026-05-02T09:56:06.288Z</time></trkpt><trkpt lat="42.278445" lon="13.7621267"><ele>469.0</ele><time>2026-05-02T09:56:07.289Z</time></trkpt><trkpt lat="42.2783867" lon="13.7620817"><ele>469.00000000000006</ele><time>2026-05-02T09:56:08.288Z</time></trkpt><trkpt lat="42.278315" lon="13.761995"><ele>469.0</ele><time>2026-05-02T09:56:10.288Z</time></trkpt><trkpt lat="42.2782533" lon="13.7619083"><ele>469.0</ele><time>2026-05-02T09:56:16.289Z</time></trkpt><trkpt lat="42.2781717" lon="13.7618233"><ele>469.0</ele><time>2026-05-02T09:56:18.288Z</time></trkpt><trkpt lat="42.2781133" lon="13.7617833"><ele>469.00000000000006</ele><time>2026-05-02T09:56:19.288Z</time></trkpt><trkpt lat="42.2780533" lon="13.7617533"><ele>469.0</ele><time>2026-05-02T09:56:20.288Z</time></trkpt><trkpt lat="42.2779867" lon="13.7617283"><ele>470.33333333333337</ele><time>2026-05-02T09:56:21.288Z</time></trkpt><trkpt lat="42.2779183" lon="13.76171"><ele>471.6666666666667</ele><time>2026-05-02T09:56:22.288Z</time></trkpt><trkpt lat="42.2778521" lon="13.761694"><ele>473.0</ele><time>2026-05-02T09:56:23.288Z</time></trkpt><trkpt lat="42.2777888" lon="13.761684"><ele>474.33333333333337</ele><time>2026-05-02T09:56:24.288Z</time></trkpt><trkpt lat="42.2776654" lon="13.7616751"><ele>475.6666666666667</ele><time>2026-05-02T09:56:26.288Z</time></trkpt><trkpt lat="42.2776007" lon="13.7616865"><ele>477.0</ele><time>2026-05-02T09:56:27.288Z</time></trkpt><trkpt lat="42.2775302" lon="13.7617073"><ele>477.0</ele><time>2026-05-02T09:56:28.288Z</time></trkpt><trkpt lat="42.2774605" lon="13.7617284"><ele>476.99999999999994</ele><time>2026-05-02T09:56:29.288Z</time></trkpt><trkpt lat="42.2773887" lon="13.7617512"><ele>477.0</ele><time>2026-05-02T09:56:30.288Z</time></trkpt><trkpt lat="42.2773149" lon="13.7617633"><ele>477.0</ele><time>2026-05-02T09:56:31.288Z</time></trkpt><trkpt lat="42.2772395" lon="13.7617594"><ele>476.99999999999994</ele><time>2026-05-02T09:56:32.288Z</time></trkpt><trkpt lat="42.2771643" lon="13.7617485"><ele>477.0</ele><time>2026-05-02T09:56:33.289Z</time></trkpt><trkpt lat="42.2770915" lon="13.7617433"><ele>477.0</ele><time>2026-05-02T09:56:34.288Z</time></trkpt><trkpt lat="42.2770243" lon="13.7617338"><ele>478.5</ele><time>2026-05-02T09:56:35.288Z</time></trkpt><trkpt lat="42.2769583" lon="13.7617275"><ele>480.0</ele><time>2026-05-02T09:56:36.288Z</time></trkpt><trkpt lat="42.2768345" lon="13.7617464"><ele>481.5</ele><time>2026-05-02T09:56:38.289Z</time></trkpt><trkpt lat="42.2767716" lon="13.7617523"><ele>483.0</ele><time>2026-05-02T09:56:39.288Z</time></trkpt><trkpt lat="42.2767078" lon="13.7617503"><ele>484.5</ele><time>2026-05-02T09:56:40.289Z</time></trkpt><trkpt lat="42.2766417" lon="13.7617424"><ele>486.0</ele><time>2026-05-02T09:56:41.288Z</time></trkpt><trkpt lat="42.2765755" lon="13.76172"><ele>486.0</ele><time>2026-05-02T09:56:42.288Z</time></trkpt><trkpt lat="42.2765092" lon="13.7616805"><ele>486.0</ele><time>2026-05-02T09:56:43.288Z</time></trkpt><trkpt lat="42.2764439" lon="13.7616374"><ele>486.0</ele><time>2026-05-02T09:56:44.288Z</time></trkpt><trkpt lat="42.2763755" lon="13.7615962"><ele>486.0</ele><time>2026-05-02T09:56:45.288Z</time></trkpt><trkpt lat="42.276299" lon="13.7615551"><ele>486.0</ele><time>2026-05-02T09:56:46.288Z</time></trkpt><trkpt lat="42.2762173" lon="13.7615129"><ele>486.0</ele><time>2026-05-02T09:56:47.288Z</time></trkpt><trkpt lat="42.2761336" lon="13.7614691"><ele>488.1666666666667</ele><time>2026-05-02T09:56:48.288Z</time></trkpt><trkpt lat="42.276049" lon="13.7614192"><ele>490.33333333333337</ele><time>2026-05-02T09:56:49.289Z</time></trkpt><trkpt lat="42.2759658" lon="13.7613662"><ele>492.5</ele><time>2026-05-02T09:56:50.288Z</time></trkpt><trkpt lat="42.2758881" lon="13.7613095"><ele>494.6666666666667</ele><time>2026-05-02T09:56:51.288Z</time></trkpt><trkpt lat="42.2758147" lon="13.7612474"><ele>496.83333333333337</ele><time>2026-05-02T09:56:52.288Z</time></trkpt><trkpt lat="42.2757453" lon="13.7611777"><ele>499.0</ele><time>2026-05-02T09:56:53.288Z</time></trkpt><trkpt lat="42.2756701" lon="13.7611096"><ele>499.79999999999995</ele><time>2026-05-02T09:56:54.288Z</time></trkpt><trkpt lat="42.2755897" lon="13.7610518"><ele>500.59999999999997</ele><time>2026-05-02T09:56:55.288Z</time></trkpt><trkpt lat="42.2755064" lon="13.7609976"><ele>501.4</ele><time>2026-05-02T09:56:56.288Z</time></trkpt><trkpt lat="42.2754196" lon="13.7609388"><ele>502.2</ele><time>2026-05-02T09:56:57.288Z</time></trkpt><trkpt lat="42.2753328" lon="13.7608761"><ele>503.0</ele><time>2026-05-02T09:56:58.288Z</time></trkpt><trkpt lat="42.2752482" lon="13.7608186"><ele>502.99999999999994</ele><time>2026-05-02T09:56:59.288Z</time></trkpt><trkpt lat="42.2751642" lon="13.7607674"><ele>503.0</ele><time>2026-05-02T09:57:00.289Z</time></trkpt><trkpt lat="42.2750837" lon="13.7607205"><ele>503.0</ele><time>2026-05-02T09:57:01.289Z</time></trkpt><trkpt lat="42.2750055" lon="13.7606716"><ele>503.0</ele><time>2026-05-02T09:57:02.288Z</time></trkpt><trkpt lat="42.2749274" lon="13.7606244"><ele>502.99999999999994</ele><time>2026-05-02T09:57:03.288Z</time></trkpt><trkpt lat="42.2748528" lon="13.7605809"><ele>503.0</ele><time>2026-05-02T09:57:04.288Z</time></trkpt><trkpt lat="42.274786" lon="13.760542"><ele>503.0</ele><time>2026-05-02T09:57:05.288Z</time></trkpt><trkpt lat="42.2747125" lon="13.7604868"><ele>502.99999999999994</ele><time>2026-05-02T09:57:07.288Z</time></trkpt><trkpt lat="42.2747224" lon="13.7603938"><ele>502.99999999999994</ele><time>2026-05-02T09:57:10.288Z</time></trkpt><trkpt lat="42.2748006" lon="13.7602819"><ele>503.0</ele><time>2026-05-02T09:57:12.288Z</time></trkpt><trkpt lat="42.2748763" lon="13.7601943"><ele>503.0</ele><time>2026-05-02T09:57:13.288Z</time></trkpt><trkpt lat="42.2749618" lon="13.7600819"><ele>503.0</ele><time>2026-05-02T09:57:14.288Z</time></trkpt><trkpt lat="42.2750487" lon="13.7599575"><ele>503.0</ele><time>2026-05-02T09:57:15.288Z</time></trkpt><trkpt lat="42.2751318" lon="13.7598385"><ele>503.0</ele><time>2026-05-02T09:57:16.288Z</time></trkpt><trkpt lat="42.2752091" lon="13.7597214"><ele>503.0</ele><time>2026-05-02T09:57:17.288Z</time></trkpt><trkpt lat="42.2752805" lon="13.759601"><ele>503.0</ele><time>2026-05-02T09:57:18.288Z</time></trkpt><trkpt lat="42.2753506" lon="13.7594807"><ele>502.99999999999994</ele><time>2026-05-02T09:57:19.288Z</time></trkpt><trkpt lat="42.2754221" lon="13.7593636"><ele>502.99999999999994</ele><time>2026-05-02T09:57:20.288Z</time></trkpt><trkpt lat="42.2754935" lon="13.7592516"><ele>503.0</ele><time>2026-05-02T09:57:21.288Z</time></trkpt><trkpt lat="42.275566" lon="13.7591499"><ele>503.0</ele><time>2026-05-02T09:57:22.288Z</time></trkpt><trkpt lat="42.2756376" lon="13.7590522"><ele>500.99999999999994</ele><time>2026-05-02T09:57:23.288Z</time></trkpt><trkpt lat="42.2757038" lon="13.7589608"><ele>499.0</ele><time>2026-05-02T09:57:24.288Z</time></trkpt><trkpt lat="42.2757656" lon="13.7588777"><ele>497.0</ele><time>2026-05-02T09:57:25.288Z</time></trkpt><trkpt lat="42.2758167" lon="13.7587975"><ele>495.0</ele><time>2026-05-02T09:57:26.288Z</time></trkpt><trkpt lat="42.2758952" lon="13.7587026"><ele>492.99999999999994</ele><time>2026-05-02T09:57:28.288Z</time></trkpt><trkpt lat="42.2759003" lon="13.7586174"><ele>491.0</ele><time>2026-05-02T09:57:32.288Z</time></trkpt><trkpt lat="42.2758338" lon="13.7586129"><ele>491.0</ele><time>2026-05-02T09:57:34.288Z</time></trkpt><trkpt lat="42.2757213" lon="13.7586294"><ele>491.0</ele><time>2026-05-02T09:57:36.288Z</time></trkpt><trkpt lat="42.2756175" lon="13.7586519"><ele>491.0</ele><time>2026-05-02T09:57:38.288Z</time></trkpt><trkpt lat="42.2755335" lon="13.7586665"><ele>491.0</ele><time>2026-05-02T09:57:40.288Z</time></trkpt><trkpt lat="42.2754329" lon="13.7586894"><ele>491.0</ele><time>2026-05-02T09:57:42.288Z</time></trkpt><trkpt lat="42.2753193" lon="13.7587197"><ele>493.49999999999994</ele><time>2026-05-02T09:57:44.289Z</time></trkpt><trkpt lat="42.2752083" lon="13.7587494"><ele>496.0</ele><time>2026-05-02T09:57:46.289Z</time></trkpt><trkpt lat="42.2751442" lon="13.7587625"><ele>498.5</ele><time>2026-05-02T09:57:47.288Z</time></trkpt><trkpt lat="42.2750713" lon="13.758779"><ele>501.0</ele><time>2026-05-02T09:57:48.288Z</time></trkpt><trkpt lat="42.2749956" lon="13.7587992"><ele>503.49999999999994</ele><time>2026-05-02T09:57:49.288Z</time></trkpt><trkpt lat="42.2749184" lon="13.758811"><ele>506.0</ele><time>2026-05-02T09:57:50.288Z</time></trkpt><trkpt lat="42.2748442" lon="13.7588251"><ele>506.0</ele><time>2026-05-02T09:57:51.288Z</time></trkpt><trkpt lat="42.2747781" lon="13.7588338"><ele>506.0</ele><time>2026-05-02T09:57:52.288Z</time></trkpt><trkpt lat="42.2746603" lon="13.7588589"><ele>506.0</ele><time>2026-05-02T09:57:54.288Z</time></trkpt><trkpt lat="42.2745475" lon="13.7588975"><ele>506.0</ele><time>2026-05-02T09:57:56.288Z</time></trkpt><trkpt lat="42.274465" lon="13.75892"><ele>506.0</ele><time>2026-05-02T09:57:58.288Z</time></trkpt><trkpt lat="42.274365" lon="13.758935"><ele>507.8</ele><time>2026-05-02T09:58:00.288Z</time></trkpt><trkpt lat="42.27428" lon="13.75895"><ele>509.6</ele><time>2026-05-02T09:58:02.288Z</time></trkpt><trkpt lat="42.2741783" lon="13.7589817"><ele>511.4</ele><time>2026-05-02T09:58:04.288Z</time></trkpt><trkpt lat="42.2740817" lon="13.7590417"><ele>513.2</ele><time>2026-05-02T09:58:06.288Z</time></trkpt><trkpt lat="42.2740017" lon="13.759105"><ele>515.0</ele><time>2026-05-02T09:58:08.288Z</time></trkpt><trkpt lat="42.2739667" lon="13.7592067"><ele>515.0</ele><time>2026-05-02T09:58:10.288Z</time></trkpt><trkpt lat="42.273955" lon="13.7592983"><ele>515.0</ele><time>2026-05-02T09:58:12.289Z</time></trkpt><trkpt lat="42.2739317" lon="13.7593917"><ele>515.0</ele><time>2026-05-02T09:58:18.288Z</time></trkpt><trkpt lat="42.273905" lon="13.7594717"><ele>515.0</ele><time>2026-05-02T09:58:21.288Z</time></trkpt><trkpt lat="42.2738733" lon="13.7595567"><ele>515.0</ele><time>2026-05-02T09:58:23.288Z</time></trkpt><trkpt lat="42.27382" lon="13.7596467"><ele>515.0</ele><time>2026-05-02T09:58:25.288Z</time></trkpt><trkpt lat="42.2737567" lon="13.75971"><ele>515.0</ele><time>2026-05-02T09:58:27.288Z</time></trkpt><trkpt lat="42.2736941" lon="13.7597501"><ele>516.5</ele><time>2026-05-02T09:58:29.349Z</time></trkpt><trkpt lat="42.2736206" lon="13.759751"><ele>518.0</ele><time>2026-05-02T09:58:31.288Z</time></trkpt><trkpt lat="42.2735155" lon="13.7597255"><ele>519.5</ele><time>2026-05-02T09:58:33.288Z</time></trkpt><trkpt lat="42.2734495" lon="13.7597005"><ele>521.0</ele><time>2026-05-02T09:58:34.288Z</time></trkpt><trkpt lat="42.2733788" lon="13.7596898"><ele>522.5</ele><time>2026-05-02T09:58:35.288Z</time></trkpt><trkpt lat="42.2733021" lon="13.7596972"><ele>524.0</ele><time>2026-05-02T09:58:36.288Z</time></trkpt><trkpt lat="42.2732182" lon="13.7597157"><ele>524.0</ele><time>2026-05-02T09:58:37.289Z</time></trkpt><trkpt lat="42.273132" lon="13.7597382"><ele>524.0</ele><time>2026-05-02T09:58:38.289Z</time></trkpt><trkpt lat="42.2730468" lon="13.7597605"><ele>524.0</ele><time>2026-05-02T09:58:39.288Z</time></trkpt><trkpt lat="42.2729576" lon="13.7597671"><ele>524.0</ele><time>2026-05-02T09:58:40.288Z</time></trkpt><trkpt lat="42.2728567" lon="13.7597552"><ele>524.0</ele><time>2026-05-02T09:58:41.288Z</time></trkpt><trkpt lat="42.2727447" lon="13.7597099"><ele>524.6</ele><time>2026-05-02T09:58:42.289Z</time></trkpt><trkpt lat="42.272639" lon="13.7596545"><ele>525.2</ele><time>2026-05-02T09:58:43.288Z</time></trkpt><trkpt lat="42.2725416" lon="13.7596061"><ele>525.8000000000001</ele><time>2026-05-02T09:58:44.288Z</time></trkpt><trkpt lat="42.2724473" lon="13.7595627"><ele>526.4</ele><time>2026-05-02T09:58:45.288Z</time></trkpt><trkpt lat="42.2723521" lon="13.7595271"><ele>527.0</ele><time>2026-05-02T09:58:46.288Z</time></trkpt><trkpt lat="42.2722621" lon="13.7594931"><ele>527.3333333333333</ele><time>2026-05-02T09:58:47.288Z</time></trkpt><trkpt lat="42.2721745" lon="13.7594586"><ele>527.6666666666666</ele><time>2026-05-02T09:58:48.288Z</time></trkpt><trkpt lat="42.2720912" lon="13.7594116"><ele>528.0</ele><time>2026-05-02T09:58:49.288Z</time></trkpt><trkpt lat="42.2720162" lon="13.7593534"><ele>528.3333333333334</ele><time>2026-05-02T09:58:50.288Z</time></trkpt><trkpt lat="42.2719601" lon="13.7592632"><ele>528.6666666666667</ele><time>2026-05-02T09:58:51.288Z</time></trkpt><trkpt lat="42.2719181" lon="13.7591746"><ele>529.0</ele><time>2026-05-02T09:58:52.288Z</time></trkpt><trkpt lat="42.2718928" lon="13.7590658"><ele>529.8</ele><time>2026-05-02T09:58:53.288Z</time></trkpt><trkpt lat="42.2718473" lon="13.7589698"><ele>530.5999999999999</ele><time>2026-05-02T09:58:54.288Z</time></trkpt><trkpt lat="42.2717897" lon="13.7588846"><ele>531.4</ele><time>2026-05-02T09:58:55.288Z</time></trkpt><trkpt lat="42.271714" lon="13.7588201"><ele>532.1999999999999</ele><time>2026-05-02T09:58:56.288Z</time></trkpt><trkpt lat="42.2716237" lon="13.7587717"><ele>533.0</ele><time>2026-05-02T09:58:57.288Z</time></trkpt><trkpt lat="42.2715209" lon="13.7587351"><ele>532.5</ele><time>2026-05-02T09:58:58.288Z</time></trkpt><trkpt lat="42.2714087" lon="13.7587062"><ele>532.0</ele><time>2026-05-02T09:58:59.288Z</time></trkpt><trkpt lat="42.2712973" lon="13.7586903"><ele>531.5</ele><time>2026-05-02T09:59:00.288Z</time></trkpt><trkpt lat="42.2711872" lon="13.758685"><ele>531.0</ele><time>2026-05-02T09:59:01.288Z</time></trkpt><trkpt lat="42.2710728" lon="13.7586819"><ele>531.0</ele><time>2026-05-02T09:59:02.288Z</time></trkpt><trkpt lat="42.2709514" lon="13.7586803"><ele>531.0</ele><time>2026-05-02T09:59:03.288Z</time></trkpt><trkpt lat="42.2708305" lon="13.7586838"><ele>531.0</ele><time>2026-05-02T09:59:04.288Z</time></trkpt><trkpt lat="42.2707116" lon="13.7586924"><ele>531.0</ele><time>2026-05-02T09:59:05.288Z</time></trkpt><trkpt lat="42.2705987" lon="13.7586966"><ele>531.2</ele><time>2026-05-02T09:59:06.288Z</time></trkpt><trkpt lat="42.2704879" lon="13.7587118"><ele>531.4000000000001</ele><time>2026-05-02T09:59:07.288Z</time></trkpt><trkpt lat="42.2703803" lon="13.7587212"><ele>531.6</ele><time>2026-05-02T09:59:08.288Z</time></trkpt><trkpt lat="42.2702681" lon="13.7587373"><ele>531.8000000000001</ele><time>2026-05-02T09:59:09.288Z</time></trkpt><trkpt lat="42.2701584" lon="13.7587572"><ele>532.0</ele><time>2026-05-02T09:59:10.288Z</time></trkpt><trkpt lat="42.2700547" lon="13.758778"><ele>532.0</ele><time>2026-05-02T09:59:11.288Z</time></trkpt><trkpt lat="42.2699543" lon="13.7587992"><ele>532.0</ele><time>2026-05-02T09:59:12.288Z</time></trkpt><trkpt lat="42.269856" lon="13.7588343"><ele>532.0</ele><time>2026-05-02T09:59:13.288Z</time></trkpt><trkpt lat="42.2697575" lon="13.75888"><ele>532.0</ele><time>2026-05-02T09:59:14.289Z</time></trkpt><trkpt lat="42.2696563" lon="13.7589333"><ele>532.0</ele><time>2026-05-02T09:59:15.288Z</time></trkpt><trkpt lat="42.2695503" lon="13.758996"><ele>532.25</ele><time>2026-05-02T09:59:16.288Z</time></trkpt><trkpt lat="42.2694418" lon="13.7590612"><ele>532.5</ele><time>2026-05-02T09:59:17.289Z</time></trkpt><trkpt lat="42.2693309" lon="13.7591272"><ele>532.75</ele><time>2026-05-02T09:59:18.288Z</time></trkpt><trkpt lat="42.2692243" lon="13.7591737"><ele>533.0</ele><time>2026-05-02T09:59:19.288Z</time></trkpt><trkpt lat="42.2691275" lon="13.75921"><ele>533.0</ele><time>2026-05-02T09:59:20.288Z</time></trkpt><trkpt lat="42.2690376" lon="13.7592441"><ele>533.0</ele><time>2026-05-02T09:59:21.288Z</time></trkpt><trkpt lat="42.268959" lon="13.7592698"><ele>533.0</ele><time>2026-05-02T09:59:22.288Z</time></trkpt><trkpt lat="42.2688905" lon="13.7592962"><ele>533.0</ele><time>2026-05-02T09:59:23.288Z</time></trkpt><trkpt lat="42.2687976" lon="13.7593356"><ele>533.0</ele><time>2026-05-02T09:59:25.288Z</time></trkpt><trkpt lat="42.268715" lon="13.7593716"><ele>533.0</ele><time>2026-05-02T09:59:29.289Z</time></trkpt><trkpt lat="42.2686594" lon="13.7594511"><ele>533.8333333333333</ele><time>2026-05-02T09:59:31.288Z</time></trkpt><trkpt lat="42.2685887" lon="13.7595917"><ele>534.6666666666666</ele><time>2026-05-02T09:59:33.288Z</time></trkpt><trkpt lat="42.2685534" lon="13.7596712"><ele>535.5</ele><time>2026-05-02T09:59:34.289Z</time></trkpt><trkpt lat="42.2685246" lon="13.75975"><ele>536.3333333333334</ele><time>2026-05-02T09:59:35.288Z</time></trkpt><trkpt lat="42.2684925" lon="13.7598294"><ele>537.1666666666667</ele><time>2026-05-02T09:59:36.288Z</time></trkpt><trkpt lat="42.26846" lon="13.75991"><ele>538.0</ele><time>2026-05-02T09:59:37.288Z</time></trkpt><trkpt lat="42.2683883" lon="13.7600367"><ele>538.0</ele><time>2026-05-02T09:59:39.288Z</time></trkpt><trkpt lat="42.268305" lon="13.7601767"><ele>538.0</ele><time>2026-05-02T09:59:41.289Z</time></trkpt><trkpt lat="42.2682517" lon="13.760255"><ele>538.0</ele><time>2026-05-02T09:59:42.288Z</time></trkpt><trkpt lat="42.2681883" lon="13.7603317"><ele>538.0</ele><time>2026-05-02T09:59:43.288Z</time></trkpt><trkpt lat="42.268125" lon="13.7604083"><ele>538.0</ele><time>2026-05-02T09:59:44.288Z</time></trkpt><trkpt lat="42.26806" lon="13.7604833"><ele>538.6666666666667</ele><time>2026-05-02T09:59:45.288Z</time></trkpt><trkpt lat="42.2680033" lon="13.7605517"><ele>539.3333333333334</ele><time>2026-05-02T09:59:46.289Z</time></trkpt><trkpt lat="42.267945" lon="13.7606267"><ele>540.0</ele><time>2026-05-02T09:59:47.288Z</time></trkpt><trkpt lat="42.2678833" lon="13.7607083"><ele>540.6666666666666</ele><time>2026-05-02T09:59:48.288Z</time></trkpt><trkpt lat="42.2678317" lon="13.760785"><ele>541.3333333333333</ele><time>2026-05-02T09:59:49.288Z</time></trkpt><trkpt lat="42.2677767" lon="13.760865"><ele>542.0</ele><time>2026-05-02T09:59:50.288Z</time></trkpt><trkpt lat="42.26772" lon="13.76093"><ele>542.0</ele><time>2026-05-02T09:59:51.288Z</time></trkpt><trkpt lat="42.26766" lon="13.7610033"><ele>542.0</ele><time>2026-05-02T09:59:52.288Z</time></trkpt><trkpt lat="42.2676083" lon="13.76108"><ele>542.0</ele><time>2026-05-02T09:59:53.288Z</time></trkpt><trkpt lat="42.26756" lon="13.7611567"><ele>542.0</ele><time>2026-05-02T09:59:54.288Z</time></trkpt><trkpt lat="42.267515" lon="13.7612367"><ele>542.0</ele><time>2026-05-02T09:59:55.288Z</time></trkpt><trkpt lat="42.2674667" lon="13.7613283"><ele>542.0</ele><time>2026-05-02T09:59:56.288Z</time></trkpt><trkpt lat="42.2674267" lon="13.7614067"><ele>541.8571428571429</ele><time>2026-05-02T09:59:57.288Z</time></trkpt><trkpt lat="42.267385" lon="13.7614833"><ele>541.7142857142858</ele><time>2026-05-02T09:59:58.288Z</time></trkpt><trkpt lat="42.2673317" lon="13.7615383"><ele>541.5714285714287</ele><time>2026-05-02T09:59:59.288Z</time></trkpt><trkpt lat="42.26727" lon="13.7615883"><ele>541.4285714285714</ele><time>2026-05-02T10:00:00.288Z</time></trkpt><trkpt lat="42.2672133" lon="13.7616367"><ele>541.2857142857143</ele><time>2026-05-02T10:00:01.289Z</time></trkpt><trkpt lat="42.26715" lon="13.7616867"><ele>541.1428571428572</ele><time>2026-05-02T10:00:02.288Z</time></trkpt><trkpt lat="42.2670883" lon="13.7617333"><ele>541.0</ele><time>2026-05-02T10:00:03.288Z</time></trkpt><trkpt lat="42.2669983" lon="13.7617967"><ele>542.4</ele><time>2026-05-02T10:00:05.288Z</time></trkpt><trkpt lat="42.2669333" lon="13.7618933"><ele>543.8</ele><time>2026-05-02T10:00:07.288Z</time></trkpt><trkpt lat="42.2669" lon="13.7619833"><ele>545.1999999999999</ele><time>2026-05-02T10:00:08.288Z</time></trkpt><trkpt lat="42.266855" lon="13.7620917"><ele>546.6</ele><time>2026-05-02T10:00:09.288Z</time></trkpt><trkpt lat="42.2667883" lon="13.7622417"><ele>548.0</ele><time>2026-05-02T10:00:10.288Z</time></trkpt><trkpt lat="42.26672" lon="13.7623817"><ele>548.0</ele><time>2026-05-02T10:00:11.288Z</time></trkpt><trkpt lat="42.2666383" lon="13.76251"><ele>548.0</ele><time>2026-05-02T10:00:12.288Z</time></trkpt><trkpt lat="42.26654" lon="13.7626083"><ele>548.0</ele><time>2026-05-02T10:00:13.289Z</time></trkpt><trkpt lat="42.2664483" lon="13.7626983"><ele>548.0</ele><time>2026-05-02T10:00:14.288Z</time></trkpt><trkpt lat="42.2663583" lon="13.7628"><ele>549.75</ele><time>2026-05-02T10:00:15.288Z</time></trkpt><trkpt lat="42.266275" lon="13.7628967"><ele>551.5</ele><time>2026-05-02T10:00:16.289Z</time></trkpt><trkpt lat="42.2661767" lon="13.7629883"><ele>553.25</ele><time>2026-05-02T10:00:17.288Z</time></trkpt><trkpt lat="42.26606" lon="13.763055"><ele>555.0</ele><time>2026-05-02T10:00:18.288Z</time></trkpt><trkpt lat="42.26593" lon="13.7630933"><ele>555.0</ele><time>2026-05-02T10:00:19.288Z</time></trkpt><trkpt lat="42.2658033" lon="13.763115"><ele>555.0</ele><time>2026-05-02T10:00:20.288Z</time></trkpt><trkpt lat="42.26569" lon="13.7631467"><ele>555.0</ele><time>2026-05-02T10:00:21.288Z</time></trkpt><trkpt lat="42.2655883" lon="13.7631983"><ele>555.0</ele><time>2026-05-02T10:00:22.289Z</time></trkpt><trkpt lat="42.2654667" lon="13.7632833"><ele>557.0</ele><time>2026-05-02T10:00:23.288Z</time></trkpt><trkpt lat="42.2653483" lon="13.76335"><ele>559.0</ele><time>2026-05-02T10:00:24.288Z</time></trkpt><trkpt lat="42.2652283" lon="13.7633683"><ele>561.0</ele><time>2026-05-02T10:00:25.288Z</time></trkpt><trkpt lat="42.2650917" lon="13.7633683"><ele>563.0</ele><time>2026-05-02T10:00:26.288Z</time></trkpt><trkpt lat="42.264955" lon="13.76335"><ele>563.0</ele><time>2026-05-02T10:00:27.288Z</time></trkpt><trkpt lat="42.2648317" lon="13.7633183"><ele>563.0</ele><time>2026-05-02T10:00:28.288Z</time></trkpt><trkpt lat="42.2646983" lon="13.7633167"><ele>563.0</ele><time>2026-05-02T10:00:29.288Z</time></trkpt><trkpt lat="42.264555" lon="13.7633517"><ele>563.0</ele><time>2026-05-02T10:00:30.288Z</time></trkpt><trkpt lat="42.2643983" lon="13.7634133"><ele>563.3333333333333</ele><time>2026-05-02T10:00:31.288Z</time></trkpt><trkpt lat="42.264225" lon="13.7634983"><ele>563.6666666666666</ele><time>2026-05-02T10:00:32.288Z</time></trkpt><trkpt lat="42.26406" lon="13.7635917"><ele>564.0</ele><time>2026-05-02T10:00:33.288Z</time></trkpt><trkpt lat="42.2638933" lon="13.7637067"><ele>568.3333333333334</ele><time>2026-05-02T10:00:34.288Z</time></trkpt><trkpt lat="42.26372" lon="13.7638483"><ele>572.6666666666667</ele><time>2026-05-02T10:00:35.288Z</time></trkpt><trkpt lat="42.2635233" lon="13.76401"><ele>577.0</ele><time>2026-05-02T10:00:36.288Z</time></trkpt><trkpt lat="42.2633583" lon="13.7641317"><ele>577.0</ele><time>2026-05-02T10:00:37.288Z</time></trkpt><trkpt lat="42.2631983" lon="13.7642417"><ele>577.0</ele><time>2026-05-02T10:00:38.288Z</time></trkpt><trkpt lat="42.2630517" lon="13.764345"><ele>577.0</ele><time>2026-05-02T10:00:39.288Z</time></trkpt><trkpt lat="42.2629067" lon="13.7644533"><ele>580.75</ele><time>2026-05-02T10:00:40.288Z</time></trkpt><trkpt lat="42.2627717" lon="13.7645267"><ele>584.5</ele><time>2026-05-02T10:00:41.288Z</time></trkpt><trkpt lat="42.2626267" lon="13.7645767"><ele>588.25</ele><time>2026-05-02T10:00:42.288Z</time></trkpt><trkpt lat="42.2624883" lon="13.764605"><ele>592.0</ele><time>2026-05-02T10:00:43.288Z</time></trkpt><trkpt lat="42.262335" lon="13.76463"><ele>592.3333333333334</ele><time>2026-05-02T10:00:44.289Z</time></trkpt><trkpt lat="42.2621733" lon="13.7646817"><ele>592.6666666666666</ele><time>2026-05-02T10:00:45.288Z</time></trkpt><trkpt lat="42.26201" lon="13.7647367"><ele>593.0</ele><time>2026-05-02T10:00:46.289Z</time></trkpt><trkpt lat="42.2618383" lon="13.764815"><ele>593.0</ele><time>2026-05-02T10:00:47.288Z</time></trkpt><trkpt lat="42.26166" lon="13.764885"><ele>593.0</ele><time>2026-05-02T10:00:48.288Z</time></trkpt><trkpt lat="42.261475" lon="13.764925"><ele>593.0</ele><time>2026-05-02T10:00:49.288Z</time></trkpt><trkpt lat="42.261275" lon="13.7649783"><ele>591.0</ele><time>2026-05-02T10:00:50.288Z</time></trkpt><trkpt lat="42.2610967" lon="13.7650233"><ele>589.0</ele><time>2026-05-02T10:00:51.288Z</time></trkpt><trkpt lat="42.26093" lon="13.7650633"><ele>587.0</ele><time>2026-05-02T10:00:52.288Z</time></trkpt><trkpt lat="42.260765" lon="13.765125"><ele>587.6666666666666</ele><time>2026-05-02T10:00:53.288Z</time></trkpt><trkpt lat="42.260605" lon="13.76519"><ele>588.3333333333334</ele><time>2026-05-02T10:00:54.289Z</time></trkpt><trkpt lat="42.26045" lon="13.7652467"><ele>589.0</ele><time>2026-05-02T10:00:55.288Z</time></trkpt><trkpt lat="42.2602983" lon="13.765305"><ele>594.5</ele><time>2026-05-02T10:00:56.288Z</time></trkpt><trkpt lat="42.2601617" lon="13.765375"><ele>600.0</ele><time>2026-05-02T10:00:57.288Z</time></trkpt><trkpt lat="42.2600433" lon="13.76543"><ele>605.5</ele><time>2026-05-02T10:00:58.288Z</time></trkpt><trkpt lat="42.25993" lon="13.7654833"><ele>611.0</ele><time>2026-05-02T10:00:59.289Z</time></trkpt><trkpt lat="42.259815" lon="13.76554"><ele>610.6</ele><time>2026-05-02T10:01:00.288Z</time></trkpt><trkpt lat="42.2597033" lon="13.7655833"><ele>610.2</ele><time>2026-05-02T10:01:01.288Z</time></trkpt><trkpt lat="42.2595933" lon="13.7656167"><ele>609.8</ele><time>2026-05-02T10:01:02.288Z</time></trkpt><trkpt lat="42.2594867" lon="13.765635"><ele>609.4</ele><time>2026-05-02T10:01:03.288Z</time></trkpt><trkpt lat="42.2593817" lon="13.76562"><ele>609.0</ele><time>2026-05-02T10:01:04.288Z</time></trkpt><trkpt lat="42.259275" lon="13.7655733"><ele>609.0</ele><time>2026-05-02T10:01:05.288Z</time></trkpt><trkpt lat="42.25916" lon="13.76553"><ele>609.0</ele><time>2026-05-02T10:01:06.288Z</time></trkpt><trkpt lat="42.25903" lon="13.76549"><ele>609.0</ele><time>2026-05-02T10:01:07.288Z</time></trkpt><trkpt lat="42.2589" lon="13.765455"><ele>609.0</ele><time>2026-05-02T10:01:08.289Z</time></trkpt><trkpt lat="42.25877" lon="13.7654133"><ele>608.8</ele><time>2026-05-02T10:01:09.288Z</time></trkpt><trkpt lat="42.25864" lon="13.765395"><ele>608.5999999999999</ele><time>2026-05-02T10:01:10.288Z</time></trkpt><trkpt lat="42.25853" lon="13.765385"><ele>608.4</ele><time>2026-05-02T10:01:11.288Z</time></trkpt><trkpt lat="42.25844" lon="13.765375"><ele>608.1999999999999</ele><time>2026-05-02T10:01:12.288Z</time></trkpt><trkpt lat="42.2583683" lon="13.7653667"><ele>608.0</ele><time>2026-05-02T10:01:13.288Z</time></trkpt><trkpt lat="42.2582467" lon="13.76532"><ele>608.0</ele><time>2026-05-02T10:01:15.288Z</time></trkpt><trkpt lat="42.2581167" lon="13.7652717"><ele>608.0</ele><time>2026-05-02T10:01:17.288Z</time></trkpt><trkpt lat="42.2580417" lon="13.7652283"><ele>608.0</ele><time>2026-05-02T10:01:18.288Z</time></trkpt><trkpt lat="42.2579617" lon="13.7651717"><ele>608.0</ele><time>2026-05-02T10:01:19.288Z</time></trkpt><trkpt lat="42.257875" lon="13.765125"><ele>608.0</ele><time>2026-05-02T10:01:20.288Z</time></trkpt><trkpt lat="42.2577883" lon="13.7650633"><ele>609.6</ele><time>2026-05-02T10:01:21.288Z</time></trkpt><trkpt lat="42.257695" lon="13.7649983"><ele>611.1999999999999</ele><time>2026-05-02T10:01:22.288Z</time></trkpt><trkpt lat="42.2575983" lon="13.764955"><ele>612.8</ele><time>2026-05-02T10:01:23.288Z</time></trkpt><trkpt lat="42.2575067" lon="13.7649133"><ele>614.4</ele><time>2026-05-02T10:01:24.288Z</time></trkpt><trkpt lat="42.2574133" lon="13.76488"><ele>616.0</ele><time>2026-05-02T10:01:25.288Z</time></trkpt><trkpt lat="42.257335" lon="13.764835"><ele>616.6666666666667</ele><time>2026-05-02T10:01:26.288Z</time></trkpt><trkpt lat="42.2572533" lon="13.764795"><ele>617.3333333333334</ele><time>2026-05-02T10:01:27.288Z</time></trkpt><trkpt lat="42.25718" lon="13.7647567"><ele>618.0</ele><time>2026-05-02T10:01:28.288Z</time></trkpt><trkpt lat="42.2571133" lon="13.7647133"><ele>618.6666666666666</ele><time>2026-05-02T10:01:29.288Z</time></trkpt><trkpt lat="42.25705" lon="13.7646733"><ele>619.3333333333333</ele><time>2026-05-02T10:01:30.288Z</time></trkpt><trkpt lat="42.2569767" lon="13.7646433"><ele>620.0</ele><time>2026-05-02T10:01:31.288Z</time></trkpt><trkpt lat="42.256905" lon="13.76463"><ele>620.0</ele><time>2026-05-02T10:01:32.288Z</time></trkpt><trkpt lat="42.2568283" lon="13.76465"><ele>620.0</ele><time>2026-05-02T10:01:33.288Z</time></trkpt><trkpt lat="42.25675" lon="13.7646783"><ele>620.0</ele><time>2026-05-02T10:01:34.288Z</time></trkpt><trkpt lat="42.2566667" lon="13.7647117"><ele>620.0</ele><time>2026-05-02T10:01:35.288Z</time></trkpt><trkpt lat="42.2566017" lon="13.7647317"><ele>620.0</ele><time>2026-05-02T10:01:36.288Z</time></trkpt><trkpt lat="42.2565367" lon="13.76475"><ele>620.0</ele><time>2026-05-02T10:01:37.288Z</time></trkpt><trkpt lat="42.25642" lon="13.764765"><ele>621.3333333333333</ele><time>2026-05-02T10:01:39.289Z</time></trkpt><trkpt lat="42.2563533" lon="13.76476"><ele>622.6666666666666</ele><time>2026-05-02T10:01:40.288Z</time></trkpt><trkpt lat="42.256285" lon="13.7647633"><ele>624.0</ele><time>2026-05-02T10:01:41.288Z</time></trkpt><trkpt lat="42.2562183" lon="13.764755"><ele>625.3333333333334</ele><time>2026-05-02T10:01:42.288Z</time></trkpt><trkpt lat="42.2561417" lon="13.764755"><ele>626.6666666666667</ele><time>2026-05-02T10:01:43.288Z</time></trkpt><trkpt lat="42.2560583" lon="13.7647417"><ele>628.0</ele><time>2026-05-02T10:01:44.288Z</time></trkpt><trkpt lat="42.2559633" lon="13.764725"><ele>628.0</ele><time>2026-05-02T10:01:45.288Z</time></trkpt><trkpt lat="42.2558583" lon="13.764715"><ele>628.0</ele><time>2026-05-02T10:01:46.288Z</time></trkpt><trkpt lat="42.2557667" lon="13.7646983"><ele>628.0</ele><time>2026-05-02T10:01:47.289Z</time></trkpt><trkpt lat="42.25568" lon="13.7646833"><ele>628.0</ele><time>2026-05-02T10:01:48.288Z</time></trkpt><trkpt lat="42.2556033" lon="13.7646683"><ele>628.0</ele><time>2026-05-02T10:01:49.288Z</time></trkpt><trkpt lat="42.2555283" lon="13.7646533"><ele>628.0</ele><time>2026-05-02T10:01:50.288Z</time></trkpt><trkpt lat="42.2554617" lon="13.764635"><ele>628.8333333333334</ele><time>2026-05-02T10:01:51.288Z</time></trkpt><trkpt lat="42.2553883" lon="13.7646217"><ele>629.6666666666667</ele><time>2026-05-02T10:01:52.288Z</time></trkpt><trkpt lat="42.2553133" lon="13.7645933"><ele>630.5</ele><time>2026-05-02T10:01:53.288Z</time></trkpt><trkpt lat="42.25524" lon="13.7645567"><ele>631.3333333333334</ele><time>2026-05-02T10:01:54.288Z</time></trkpt><trkpt lat="42.2551667" lon="13.7645183"><ele>632.1666666666666</ele><time>2026-05-02T10:01:55.288Z</time></trkpt><trkpt lat="42.25509" lon="13.764495"><ele>633.0</ele><time>2026-05-02T10:01:56.288Z</time></trkpt><trkpt lat="42.2550067" lon="13.76451"><ele>633.0</ele><time>2026-05-02T10:01:57.288Z</time></trkpt><trkpt lat="42.2549317" lon="13.7645383"><ele>633.0</ele><time>2026-05-02T10:01:58.288Z</time></trkpt><trkpt lat="42.2548583" lon="13.7645533"><ele>633.0</ele><time>2026-05-02T10:01:59.288Z</time></trkpt><trkpt lat="42.2547833" lon="13.764555"><ele>633.0</ele><time>2026-05-02T10:02:00.288Z</time></trkpt><trkpt lat="42.2547067" lon="13.76455"><ele>633.0</ele><time>2026-05-02T10:02:01.288Z</time></trkpt><trkpt lat="42.2546383" lon="13.7645233"><ele>633.0</ele><time>2026-05-02T10:02:02.288Z</time></trkpt><trkpt lat="42.2545717" lon="13.7644983"><ele>633.0</ele><time>2026-05-02T10:02:03.288Z</time></trkpt><trkpt lat="42.2545017" lon="13.7644817"><ele>634.8333333333334</ele><time>2026-05-02T10:02:04.288Z</time></trkpt><trkpt lat="42.25443" lon="13.7644717"><ele>636.6666666666666</ele><time>2026-05-02T10:02:05.288Z</time></trkpt><trkpt lat="42.2543533" lon="13.764465"><ele>638.5</ele><time>2026-05-02T10:02:06.288Z</time></trkpt><trkpt lat="42.2542667" lon="13.7644633"><ele>640.3333333333333</ele><time>2026-05-02T10:02:07.288Z</time></trkpt><trkpt lat="42.2541867" lon="13.76446"><ele>642.1666666666666</ele><time>2026-05-02T10:02:08.288Z</time></trkpt><trkpt lat="42.2541067" lon="13.76445"><ele>644.0</ele><time>2026-05-02T10:02:09.288Z</time></trkpt><trkpt lat="42.2540383" lon="13.7644317"><ele>644.0</ele><time>2026-05-02T10:02:10.288Z</time></trkpt><trkpt lat="42.2539717" lon="13.7644017"><ele>644.0</ele><time>2026-05-02T10:02:11.288Z</time></trkpt><trkpt lat="42.2539067" lon="13.7643733"><ele>644.0</ele><time>2026-05-02T10:02:12.288Z</time></trkpt><trkpt lat="42.253835" lon="13.76434"><ele>644.0</ele><time>2026-05-02T10:02:13.288Z</time></trkpt><trkpt lat="42.2537583" lon="13.76431"><ele>644.0</ele><time>2026-05-02T10:02:14.288Z</time></trkpt><trkpt lat="42.2536867" lon="13.764275"><ele>644.0</ele><time>2026-05-02T10:02:15.288Z</time></trkpt><trkpt lat="42.2536217" lon="13.7642333"><ele>644.0</ele><time>2026-05-02T10:02:16.288Z</time></trkpt><trkpt lat="42.2535683" lon="13.764165"><ele>645.1666666666666</ele><time>2026-05-02T10:02:17.288Z</time></trkpt><trkpt lat="42.2535133" lon="13.7640883"><ele>646.3333333333333</ele><time>2026-05-02T10:02:18.289Z</time></trkpt><trkpt lat="42.253455" lon="13.763995"><ele>647.5</ele><time>2026-05-02T10:02:19.288Z</time></trkpt><trkpt lat="42.2534033" lon="13.7639017"><ele>648.6666666666666</ele><time>2026-05-02T10:02:20.288Z</time></trkpt><trkpt lat="42.2533483" lon="13.7638067"><ele>649.8333333333334</ele><time>2026-05-02T10:02:21.288Z</time></trkpt><trkpt lat="42.2532967" lon="13.7637217"><ele>651.0</ele><time>2026-05-02T10:02:22.288Z</time></trkpt><trkpt lat="42.253225" lon="13.7636483"><ele>651.0</ele><time>2026-05-02T10:02:23.288Z</time></trkpt><trkpt lat="42.2531467" lon="13.763595"><ele>651.0</ele><time>2026-05-02T10:02:24.288Z</time></trkpt><trkpt lat="42.2530667" lon="13.7635533"><ele>651.0</ele><time>2026-05-02T10:02:25.288Z</time></trkpt><trkpt lat="42.2529783" lon="13.7635167"><ele>651.0</ele><time>2026-05-02T10:02:26.288Z</time></trkpt><trkpt lat="42.2528817" lon="13.7634667"><ele>651.0</ele><time>2026-05-02T10:02:27.289Z</time></trkpt><trkpt lat="42.2527917" lon="13.7634333"><ele>652.0</ele><time>2026-05-02T10:02:28.289Z</time></trkpt><trkpt lat="42.2527133" lon="13.7634267"><ele>653.0</ele><time>2026-05-02T10:02:29.288Z</time></trkpt><trkpt lat="42.25264" lon="13.763415"><ele>654.0</ele><time>2026-05-02T10:02:30.288Z</time></trkpt><trkpt lat="42.2525667" lon="13.7634"><ele>655.0</ele><time>2026-05-02T10:02:31.288Z</time></trkpt><trkpt lat="42.2524983" lon="13.763385"><ele>656.0</ele><time>2026-05-02T10:02:32.288Z</time></trkpt><trkpt lat="42.2524317" lon="13.7633667"><ele>657.0</ele><time>2026-05-02T10:02:33.289Z</time></trkpt><trkpt lat="42.252365" lon="13.763355"><ele>658.0</ele><time>2026-05-02T10:02:34.288Z</time></trkpt><trkpt lat="42.2523033" lon="13.7633333"><ele>657.4</ele><time>2026-05-02T10:02:35.288Z</time></trkpt><trkpt lat="42.2522433" lon="13.7633067"><ele>656.8</ele><time>2026-05-02T10:02:36.288Z</time></trkpt><trkpt lat="42.2521367" lon="13.763245"><ele>656.2</ele><time>2026-05-02T10:02:38.288Z</time></trkpt><trkpt lat="42.2520317" lon="13.763195"><ele>655.6</ele><time>2026-05-02T10:02:40.288Z</time></trkpt><trkpt lat="42.25193" lon="13.7631233"><ele>655.0</ele><time>2026-05-02T10:02:42.289Z</time></trkpt><trkpt lat="42.251875" lon="13.763065"><ele>655.0</ele><time>2026-05-02T10:02:43.288Z</time></trkpt><trkpt lat="42.2517967" lon="13.7629583"><ele>655.0</ele><time>2026-05-02T10:02:45.288Z</time></trkpt><trkpt lat="42.25172" lon="13.7628283"><ele>655.0</ele><time>2026-05-02T10:02:47.288Z</time></trkpt><trkpt lat="42.25167" lon="13.762765"><ele>655.0</ele><time>2026-05-02T10:02:48.288Z</time></trkpt><trkpt lat="42.251615" lon="13.7626967"><ele>655.0</ele><time>2026-05-02T10:02:49.289Z</time></trkpt><trkpt lat="42.251555" lon="13.762645"><ele>655.0</ele><time>2026-05-02T10:02:50.289Z</time></trkpt><trkpt lat="42.2514933" lon="13.7625967"><ele>658.6</ele><time>2026-05-02T10:02:51.288Z</time></trkpt><trkpt lat="42.251395" lon="13.7625117"><ele>662.2</ele><time>2026-05-02T10:02:53.288Z</time></trkpt><trkpt lat="42.2513067" lon="13.7624283"><ele>665.8</ele><time>2026-05-02T10:02:55.288Z</time></trkpt><trkpt lat="42.2512167" lon="13.7623583"><ele>669.4</ele><time>2026-05-02T10:02:57.288Z</time></trkpt><trkpt lat="42.2511433" lon="13.7622967"><ele>673.0</ele><time>2026-05-02T10:02:59.288Z</time></trkpt><trkpt lat="42.250955" lon="13.7622133"><ele>673.0</ele><time>2026-05-02T10:03:11.288Z</time></trkpt><trkpt lat="42.2508483" lon="13.76218"><ele>673.0</ele><time>2026-05-02T10:03:13.288Z</time></trkpt><trkpt lat="42.2507467" lon="13.76218"><ele>673.0</ele><time>2026-05-02T10:03:15.288Z</time></trkpt><trkpt lat="42.2506683" lon="13.7622617"><ele>673.0</ele><time>2026-05-02T10:03:17.288Z</time></trkpt><trkpt lat="42.2506167" lon="13.7624083"><ele>673.0</ele><time>2026-05-02T10:03:19.288Z</time></trkpt><trkpt lat="42.2505317" lon="13.762535"><ele>672.3333333333334</ele><time>2026-05-02T10:03:21.288Z</time></trkpt><trkpt lat="42.2504717" lon="13.7625867"><ele>671.6666666666667</ele><time>2026-05-02T10:03:22.288Z</time></trkpt><trkpt lat="42.25041" lon="13.7626233"><ele>671.0</ele><time>2026-05-02T10:03:23.288Z</time></trkpt><trkpt lat="42.2503383" lon="13.7626533"><ele>670.3333333333334</ele><time>2026-05-02T10:03:24.288Z</time></trkpt><trkpt lat="42.2502517" lon="13.7626817"><ele>669.6666666666666</ele><time>2026-05-02T10:03:25.288Z</time></trkpt><trkpt lat="42.25014" lon="13.7627067"><ele>669.0</ele><time>2026-05-02T10:03:26.288Z</time></trkpt><trkpt lat="42.2500317" lon="13.7627333"><ele>669.0</ele><time>2026-05-02T10:03:27.288Z</time></trkpt><trkpt lat="42.2499367" lon="13.7627567"><ele>669.0</ele><time>2026-05-02T10:03:28.288Z</time></trkpt><trkpt lat="42.24985" lon="13.7627817"><ele>669.0</ele><time>2026-05-02T10:03:29.288Z</time></trkpt><trkpt lat="42.2497717" lon="13.76281"><ele>669.0</ele><time>2026-05-02T10:03:30.288Z</time></trkpt><trkpt lat="42.2496933" lon="13.7628633"><ele>669.0</ele><time>2026-05-02T10:03:31.289Z</time></trkpt><trkpt lat="42.2496233" lon="13.76293"><ele>669.0</ele><time>2026-05-02T10:03:32.289Z</time></trkpt><trkpt lat="42.249545" lon="13.7630033"><ele>671.5</ele><time>2026-05-02T10:03:33.288Z</time></trkpt><trkpt lat="42.2494767" lon="13.76308"><ele>674.0</ele><time>2026-05-02T10:03:34.288Z</time></trkpt><trkpt lat="42.2494083" lon="13.7631533"><ele>676.5</ele><time>2026-05-02T10:03:35.288Z</time></trkpt><trkpt lat="42.2493433" lon="13.7632183"><ele>679.0</ele><time>2026-05-02T10:03:36.288Z</time></trkpt><trkpt lat="42.2492683" lon="13.76328"><ele>681.5</ele><time>2026-05-02T10:03:37.289Z</time></trkpt><trkpt lat="42.24919" lon="13.7633317"><ele>684.0</ele><time>2026-05-02T10:03:38.288Z</time></trkpt><trkpt lat="42.2491133" lon="13.7633767"><ele>684.0</ele><time>2026-05-02T10:03:39.288Z</time></trkpt><trkpt lat="42.2490283" lon="13.7634283"><ele>684.0</ele><time>2026-05-02T10:03:40.288Z</time></trkpt><trkpt lat="42.248955" lon="13.7634783"><ele>684.0</ele><time>2026-05-02T10:03:41.288Z</time></trkpt><trkpt lat="42.2488817" lon="13.7635267"><ele>684.0</ele><time>2026-05-02T10:03:42.289Z</time></trkpt><trkpt lat="42.2488083" lon="13.7635767"><ele>684.0</ele><time>2026-05-02T10:03:43.288Z</time></trkpt><trkpt lat="42.24874" lon="13.7636317"><ele>684.0</ele><time>2026-05-02T10:03:44.288Z</time></trkpt><trkpt lat="42.24868" lon="13.7636883"><ele>684.6666666666666</ele><time>2026-05-02T10:03:45.288Z</time></trkpt><trkpt lat="42.24862" lon="13.76375"><ele>685.3333333333334</ele><time>2026-05-02T10:03:46.288Z</time></trkpt><trkpt lat="42.2485533" lon="13.7638133"><ele>686.0</ele><time>2026-05-02T10:03:47.288Z</time></trkpt><trkpt lat="42.2484933" lon="13.7638817"><ele>686.6666666666667</ele><time>2026-05-02T10:03:48.288Z</time></trkpt><trkpt lat="42.2484267" lon="13.7639567"><ele>687.3333333333334</ele><time>2026-05-02T10:03:49.288Z</time></trkpt><trkpt lat="42.2483633" lon="13.7640383"><ele>688.0</ele><time>2026-05-02T10:03:50.288Z</time></trkpt><trkpt lat="42.2483" lon="13.76412"><ele>688.0</ele><time>2026-05-02T10:03:51.289Z</time></trkpt><trkpt lat="42.2482367" lon="13.7641867"><ele>688.0</ele><time>2026-05-02T10:03:52.288Z</time></trkpt><trkpt lat="42.2481767" lon="13.7642483"><ele>688.0</ele><time>2026-05-02T10:03:53.289Z</time></trkpt><trkpt lat="42.2481167" lon="13.764315"><ele>688.0</ele><time>2026-05-02T10:03:54.288Z</time></trkpt><trkpt lat="42.248055" lon="13.764385"><ele>688.0</ele><time>2026-05-02T10:03:55.288Z</time></trkpt><trkpt lat="42.2479967" lon="13.7644533"><ele>688.0</ele><time>2026-05-02T10:03:56.288Z</time></trkpt><trkpt lat="42.2479367" lon="13.7645217"><ele>689.3333333333334</ele><time>2026-05-02T10:03:57.289Z</time></trkpt><trkpt lat="42.247885" lon="13.76458"><ele>690.6666666666667</ele><time>2026-05-02T10:03:58.288Z</time></trkpt><trkpt lat="42.2478367" lon="13.7646483"><ele>692.0</ele><time>2026-05-02T10:03:59.288Z</time></trkpt><trkpt lat="42.2477867" lon="13.76473"><ele>693.3333333333334</ele><time>2026-05-02T10:04:00.288Z</time></trkpt><trkpt lat="42.2477448" lon="13.7648094"><ele>694.6666666666666</ele><time>2026-05-02T10:04:01.288Z</time></trkpt><trkpt lat="42.2477129" lon="13.7648844"><ele>696.0</ele><time>2026-05-02T10:04:02.288Z</time></trkpt><trkpt lat="42.2476494" lon="13.7650183"><ele>696.0</ele><time>2026-05-02T10:04:04.288Z</time></trkpt><trkpt lat="42.2476061" lon="13.7650815"><ele>696.0</ele><time>2026-05-02T10:04:05.288Z</time></trkpt><trkpt lat="42.2475558" lon="13.7651353"><ele>696.0</ele><time>2026-05-02T10:04:06.288Z</time></trkpt><trkpt lat="42.247463" lon="13.7652093"><ele>696.0</ele><time>2026-05-02T10:04:08.289Z</time></trkpt><trkpt lat="42.2473567" lon="13.7652793"><ele>696.0</ele><time>2026-05-02T10:04:10.288Z</time></trkpt><trkpt lat="42.2472956" lon="13.7653172"><ele>696.0</ele><time>2026-05-02T10:04:11.288Z</time></trkpt><trkpt lat="42.2472346" lon="13.7653617"><ele>698.6666666666666</ele><time>2026-05-02T10:04:12.288Z</time></trkpt><trkpt lat="42.2471797" lon="13.7654042"><ele>701.3333333333334</ele><time>2026-05-02T10:04:13.288Z</time></trkpt><trkpt lat="42.2470901" lon="13.7654532"><ele>704.0</ele><time>2026-05-02T10:04:15.288Z</time></trkpt><trkpt lat="42.2470057" lon="13.7654762"><ele>706.6666666666667</ele><time>2026-05-02T10:04:17.288Z</time></trkpt><trkpt lat="42.2469208" lon="13.7655259"><ele>709.3333333333334</ele><time>2026-05-02T10:04:19.288Z</time></trkpt><trkpt lat="42.2468414" lon="13.7655852"><ele>712.0</ele><time>2026-05-02T10:04:21.288Z</time></trkpt><trkpt lat="42.2467424" lon="13.7656526"><ele>712.0</ele><time>2026-05-02T10:04:23.288Z</time></trkpt><trkpt lat="42.2466424" lon="13.7657404"><ele>712.0</ele><time>2026-05-02T10:04:25.288Z</time></trkpt><trkpt lat="42.2465501" lon="13.7658235"><ele>712.0</ele><time>2026-05-02T10:04:27.288Z</time></trkpt><trkpt lat="42.2464499" lon="13.7659004"><ele>712.0</ele><time>2026-05-02T10:04:29.288Z</time></trkpt><trkpt lat="42.2463781" lon="13.7660215"><ele>714.0</ele><time>2026-05-02T10:04:31.288Z</time></trkpt><trkpt lat="42.2462994" lon="13.7661503"><ele>716.0</ele><time>2026-05-02T10:04:33.288Z</time></trkpt><trkpt lat="42.2462266" lon="13.7662693"><ele>718.0</ele><time>2026-05-02T10:04:35.288Z</time></trkpt><trkpt lat="42.2461355" lon="13.7663661"><ele>720.0</ele><time>2026-05-02T10:04:37.288Z</time></trkpt><trkpt lat="42.2460545" lon="13.766471"><ele>720.0</ele><time>2026-05-02T10:04:39.288Z</time></trkpt><trkpt lat="42.2459629" lon="13.7665293"><ele>720.0</ele><time>2026-05-02T10:04:41.288Z</time></trkpt><trkpt lat="42.2458541" lon="13.7665298"><ele>720.0</ele><time>2026-05-02T10:04:43.288Z</time></trkpt><trkpt lat="42.245741" lon="13.7665543"><ele>720.0</ele><time>2026-05-02T10:04:45.288Z</time></trkpt><trkpt lat="42.2456227" lon="13.7666033"><ele>720.0</ele><time>2026-05-02T10:04:47.288Z</time></trkpt><trkpt lat="42.2455557" lon="13.7666285"><ele>721.8</ele><time>2026-05-02T10:04:48.289Z</time></trkpt><trkpt lat="42.2454874" lon="13.7666636"><ele>723.6</ele><time>2026-05-02T10:04:49.288Z</time></trkpt><trkpt lat="42.2454219" lon="13.7667041"><ele>725.4000000000001</ele><time>2026-05-02T10:04:50.288Z</time></trkpt><trkpt lat="42.2453617" lon="13.7667467"><ele>727.2</ele><time>2026-05-02T10:04:51.288Z</time></trkpt><trkpt lat="42.24525" lon="13.7668033"><ele>729.0</ele><time>2026-05-02T10:04:53.288Z</time></trkpt><trkpt lat="42.245125" lon="13.7668383"><ele>729.0</ele><time>2026-05-02T10:04:55.288Z</time></trkpt><trkpt lat="42.245055" lon="13.7668617"><ele>729.0</ele><time>2026-05-02T10:04:56.288Z</time></trkpt><trkpt lat="42.2449867" lon="13.76689"><ele>729.0</ele><time>2026-05-02T10:04:57.288Z</time></trkpt><trkpt lat="42.244925" lon="13.7669083"><ele>729.0</ele><time>2026-05-02T10:04:58.288Z</time></trkpt><trkpt lat="42.2448617" lon="13.76693"><ele>729.0</ele><time>2026-05-02T10:04:59.288Z</time></trkpt><trkpt lat="42.2447517" lon="13.76696"><ele>729.0</ele><time>2026-05-02T10:05:01.288Z</time></trkpt><trkpt lat="42.2446483" lon="13.7669867"><ele>729.0</ele><time>2026-05-02T10:05:03.288Z</time></trkpt><trkpt lat="42.244545" lon="13.7670083"><ele>729.0</ele><time>2026-05-02T10:05:05.288Z</time></trkpt><trkpt lat="42.2444267" lon="13.767025"><ele>729.0</ele><time>2026-05-02T10:05:07.288Z</time></trkpt><trkpt lat="42.2443117" lon="13.76703"><ele>729.0</ele><time>2026-05-02T10:05:09.288Z</time></trkpt><trkpt lat="42.2441933" lon="13.7670567"><ele>729.0</ele><time>2026-05-02T10:05:11.288Z</time></trkpt><trkpt lat="42.2440867" lon="13.7670983"><ele>729.0</ele><time>2026-05-02T10:05:13.288Z</time></trkpt><trkpt lat="42.2439783" lon="13.76711"><ele>729.0</ele><time>2026-05-02T10:05:15.289Z</time></trkpt><trkpt lat="42.243875" lon="13.767135"><ele>729.0</ele><time>2026-05-02T10:05:17.288Z</time></trkpt><trkpt lat="42.2437817" lon="13.7671867"><ele>729.0</ele><time>2026-05-02T10:05:19.288Z</time></trkpt><trkpt lat="42.2436833" lon="13.7672067"><ele>732.0</ele><time>2026-05-02T10:05:21.288Z</time></trkpt><trkpt lat="42.2435917" lon="13.7672233"><ele>735.0</ele><time>2026-05-02T10:05:23.288Z</time></trkpt><trkpt lat="42.243485" lon="13.767215"><ele>738.0</ele><time>2026-05-02T10:05:25.288Z</time></trkpt><trkpt lat="42.2433717" lon="13.7672367"><ele>741.0</ele><time>2026-05-02T10:05:27.288Z</time></trkpt><trkpt lat="42.2433083" lon="13.7672583"><ele>744.0</ele><time>2026-05-02T10:05:28.289Z</time></trkpt><trkpt lat="42.243195" lon="13.7673"><ele>747.25</ele><time>2026-05-02T10:05:30.288Z</time></trkpt><trkpt lat="42.2430833" lon="13.767315"><ele>750.5</ele><time>2026-05-02T10:05:32.288Z</time></trkpt><trkpt lat="42.2429667" lon="13.767325"><ele>753.75</ele><time>2026-05-02T10:05:34.288Z</time></trkpt><trkpt lat="42.2428583" lon="13.7673183"><ele>757.0</ele><time>2026-05-02T10:05:36.288Z</time></trkpt><trkpt lat="42.2427367" lon="13.7673433"><ele>757.0</ele><time>2026-05-02T10:05:38.288Z</time></trkpt><trkpt lat="42.2426217" lon="13.7673683"><ele>757.0</ele><time>2026-05-02T10:05:40.288Z</time></trkpt><trkpt lat="42.2425117" lon="13.76739"><ele>757.0</ele><time>2026-05-02T10:05:42.288Z</time></trkpt><trkpt lat="42.24245" lon="13.76741"><ele>757.0</ele><time>2026-05-02T10:05:43.288Z</time></trkpt><trkpt lat="42.2423867" lon="13.767435"><ele>757.0</ele><time>2026-05-02T10:05:44.288Z</time></trkpt><trkpt lat="42.2423217" lon="13.7674533"><ele>757.0</ele><time>2026-05-02T10:05:45.288Z</time></trkpt><trkpt lat="42.2422567" lon="13.7674733"><ele>757.0</ele><time>2026-05-02T10:05:46.288Z</time></trkpt><trkpt lat="42.242185" lon="13.7675017"><ele>757.0</ele><time>2026-05-02T10:05:47.288Z</time></trkpt><trkpt lat="42.2421217" lon="13.767525"><ele>757.0</ele><time>2026-05-02T10:05:48.288Z</time></trkpt><trkpt lat="42.2420583" lon="13.7675633"><ele>757.0</ele><time>2026-05-02T10:05:49.288Z</time></trkpt><trkpt lat="42.2419617" lon="13.7676283"><ele>757.0</ele><time>2026-05-02T10:05:51.288Z</time></trkpt><trkpt lat="42.24186" lon="13.7677033"><ele>757.0</ele><time>2026-05-02T10:05:53.288Z</time></trkpt><trkpt lat="42.2417533" lon="13.767795"><ele>757.0</ele><time>2026-05-02T10:05:55.288Z</time></trkpt><trkpt lat="42.2416467" lon="13.7679083"><ele>757.0</ele><time>2026-05-02T10:05:57.288Z</time></trkpt><trkpt lat="42.2415917" lon="13.7679717"><ele>757.0</ele><time>2026-05-02T10:05:58.288Z</time></trkpt><trkpt lat="42.2415383" lon="13.76803"><ele>757.0</ele><time>2026-05-02T10:05:59.288Z</time></trkpt><trkpt lat="42.241485" lon="13.7681"><ele>757.0</ele><time>2026-05-02T10:06:00.288Z</time></trkpt><trkpt lat="42.24144" lon="13.7681733"><ele>757.0</ele><time>2026-05-02T10:06:01.288Z</time></trkpt><trkpt lat="42.2413933" lon="13.7682467"><ele>760.0</ele><time>2026-05-02T10:06:02.288Z</time></trkpt><trkpt lat="42.24135" lon="13.76832"><ele>763.0</ele><time>2026-05-02T10:06:03.288Z</time></trkpt><trkpt lat="42.241275" lon="13.7684467"><ele>766.0</ele><time>2026-05-02T10:06:05.288Z</time></trkpt><trkpt lat="42.2411917" lon="13.7685717"><ele>769.0</ele><time>2026-05-02T10:06:07.289Z</time></trkpt><trkpt lat="42.2411433" lon="13.7686333"><ele>771.9999999999999</ele><time>2026-05-02T10:06:08.288Z</time></trkpt><trkpt lat="42.2411" lon="13.7687017"><ele>775.0</ele><time>2026-05-02T10:06:09.288Z</time></trkpt><trkpt lat="42.2410583" lon="13.7687733"><ele>774.9999999999999</ele><time>2026-05-02T10:06:10.288Z</time></trkpt><trkpt lat="42.2410083" lon="13.768845"><ele>775.0</ele><time>2026-05-02T10:06:11.288Z</time></trkpt><trkpt lat="42.2409317" lon="13.7689717"><ele>775.0</ele><time>2026-05-02T10:06:13.289Z</time></trkpt><trkpt lat="42.2408967" lon="13.7690467"><ele>775.0</ele><time>2026-05-02T10:06:14.288Z</time></trkpt><trkpt lat="42.240845" lon="13.769165"><ele>774.9999999999999</ele><time>2026-05-02T10:06:16.288Z</time></trkpt><trkpt lat="42.24081" lon="13.7692617"><ele>775.0</ele><time>2026-05-02T10:06:18.288Z</time></trkpt><trkpt lat="42.2407567" lon="13.7693283"><ele>777.8</ele><time>2026-05-02T10:06:23.288Z</time></trkpt><trkpt lat="42.2406883" lon="13.76936"><ele>780.6</ele><time>2026-05-02T10:06:36.288Z</time></trkpt><trkpt lat="42.240605" lon="13.769325"><ele>783.4000000000001</ele><time>2026-05-02T10:10:10.288Z</time></trkpt><trkpt lat="42.2404917" lon="13.7693133"><ele>786.2</ele><time>2026-05-02T10:10:13.288Z</time></trkpt><trkpt lat="42.2403933" lon="13.769275"><ele>789.0</ele><time>2026-05-02T10:10:15.288Z</time></trkpt><trkpt lat="42.24029" lon="13.7692383"><ele>789.0</ele><time>2026-05-02T10:10:17.288Z</time></trkpt><trkpt lat="42.240185" lon="13.7692183"><ele>789.0</ele><time>2026-05-02T10:10:19.288Z</time></trkpt><trkpt lat="42.2400783" lon="13.769205"><ele>789.0</ele><time>2026-05-02T10:10:21.288Z</time></trkpt><trkpt lat="42.2399633" lon="13.76919"><ele>789.0</ele><time>2026-05-02T10:10:23.288Z</time></trkpt><trkpt lat="42.239895" lon="13.7691917"><ele>789.0</ele><time>2026-05-02T10:10:24.288Z</time></trkpt><trkpt lat="42.2398317" lon="13.7691883"><ele>792.2</ele><time>2026-05-02T10:10:25.288Z</time></trkpt><trkpt lat="42.239725" lon="13.769165"><ele>795.4000000000001</ele><time>2026-05-02T10:10:27.289Z</time></trkpt><trkpt lat="42.2396183" lon="13.7691333"><ele>798.6</ele><time>2026-05-02T10:10:29.288Z</time></trkpt><trkpt lat="42.23951" lon="13.769085"><ele>801.8</ele><time>2026-05-02T10:10:31.288Z</time></trkpt><trkpt lat="42.2394467" lon="13.7690717"><ele>805.0</ele><time>2026-05-02T10:10:32.289Z</time></trkpt><trkpt lat="42.239335" lon="13.7691"><ele>805.0</ele><time>2026-05-02T10:10:34.288Z</time></trkpt><trkpt lat="42.2392433" lon="13.7691783"><ele>805.0</ele><time>2026-05-02T10:10:36.288Z</time></trkpt><trkpt lat="42.2391633" lon="13.769265"><ele>805.0</ele><time>2026-05-02T10:10:38.289Z</time></trkpt><trkpt lat="42.2390833" lon="13.76932"><ele>805.0</ele><time>2026-05-02T10:10:40.288Z</time></trkpt><trkpt lat="42.2390017" lon="13.7693733"><ele>805.0</ele><time>2026-05-02T10:10:42.289Z</time></trkpt><trkpt lat="42.23891" lon="13.769405"><ele>804.8</ele><time>2026-05-02T10:10:44.288Z</time></trkpt><trkpt lat="42.2388117" lon="13.7694133"><ele>804.6</ele><time>2026-05-02T10:10:46.288Z</time></trkpt><trkpt lat="42.23871" lon="13.7694017"><ele>804.4000000000001</ele><time>2026-05-02T10:10:48.288Z</time></trkpt><trkpt lat="42.2386033" lon="13.7693983"><ele>804.2</ele><time>2026-05-02T10:10:50.288Z</time></trkpt><trkpt lat="42.2384867" lon="13.7694167"><ele>804.0</ele><time>2026-05-02T10:10:52.288Z</time></trkpt><trkpt lat="42.2384233" lon="13.769435"><ele>804.0</ele><time>2026-05-02T10:10:53.289Z</time></trkpt><trkpt lat="42.2383567" lon="13.769465"><ele>804.0</ele><time>2026-05-02T10:10:54.288Z</time></trkpt><trkpt lat="42.238295" lon="13.7694917"><ele>804.0</ele><time>2026-05-02T10:10:55.288Z</time></trkpt><trkpt lat="42.23823" lon="13.7695133"><ele>804.0</ele><time>2026-05-02T10:10:56.288Z</time></trkpt><trkpt lat="42.2381683" lon="13.76954"><ele>804.0</ele><time>2026-05-02T10:10:57.289Z</time></trkpt><trkpt lat="42.238055" lon="13.7695983"><ele>804.0</ele><time>2026-05-02T10:10:59.288Z</time></trkpt><trkpt lat="42.2379967" lon="13.7696317"><ele>807.4000000000001</ele><time>2026-05-02T10:11:00.288Z</time></trkpt><trkpt lat="42.2378833" lon="13.769705"><ele>810.8</ele><time>2026-05-02T10:11:02.288Z</time></trkpt><trkpt lat="42.237825" lon="13.769745"><ele>814.2</ele><time>2026-05-02T10:11:03.288Z</time></trkpt><trkpt lat="42.2377267" lon="13.7698"><ele>817.5999999999999</ele><time>2026-05-02T10:11:05.288Z</time></trkpt><trkpt lat="42.2376083" lon="13.7698417"><ele>821.0</ele><time>2026-05-02T10:11:07.288Z</time></trkpt><trkpt lat="42.2375467" lon="13.76987"><ele>821.0</ele><time>2026-05-02T10:11:08.288Z</time></trkpt><trkpt lat="42.2374467" lon="13.7698983"><ele>821.0</ele><time>2026-05-02T10:11:10.288Z</time></trkpt><trkpt lat="42.23736" lon="13.769925"><ele>821.0</ele><time>2026-05-02T10:11:12.288Z</time></trkpt><trkpt lat="42.2372788" lon="13.7699526"><ele>821.0</ele><time>2026-05-02T10:11:14.288Z</time></trkpt><trkpt lat="42.2371912" lon="13.7699685"><ele>821.0</ele><time>2026-05-02T10:11:16.289Z</time></trkpt><trkpt lat="42.2370964" lon="13.7700037"><ele>822.4</ele><time>2026-05-02T10:11:18.288Z</time></trkpt><trkpt lat="42.2370041" lon="13.7700866"><ele>823.8</ele><time>2026-05-02T10:11:20.288Z</time></trkpt><trkpt lat="42.2369336" lon="13.7701658"><ele>825.1999999999999</ele><time>2026-05-02T10:11:22.288Z</time></trkpt><trkpt lat="42.2368582" lon="13.7702318"><ele>826.5999999999999</ele><time>2026-05-02T10:11:25.422Z</time></trkpt><trkpt lat="42.2367725" lon="13.7703684"><ele>828.0</ele><time>2026-05-02T10:11:27.288Z</time></trkpt><trkpt lat="42.2366822" lon="13.7704373"><ele>828.0</ele><time>2026-05-02T10:11:29.288Z</time></trkpt><trkpt lat="42.2365815" lon="13.7704885"><ele>828.0</ele><time>2026-05-02T10:11:31.288Z</time></trkpt><trkpt lat="42.2364656" lon="13.7705238"><ele>828.0</ele><time>2026-05-02T10:11:33.288Z</time></trkpt><trkpt lat="42.2364007" lon="13.7705393"><ele>828.0</ele><time>2026-05-02T10:11:34.288Z</time></trkpt><trkpt lat="42.2363265" lon="13.7705528"><ele>828.0</ele><time>2026-05-02T10:11:35.288Z</time></trkpt><trkpt lat="42.2362637" lon="13.7705669"><ele>828.0</ele><time>2026-05-02T10:11:36.288Z</time></trkpt><trkpt lat="42.2361995" lon="13.7705817"><ele>829.4</ele><time>2026-05-02T10:11:37.288Z</time></trkpt><trkpt lat="42.2360783" lon="13.7706166"><ele>830.8</ele><time>2026-05-02T10:11:39.288Z</time></trkpt><trkpt lat="42.2360168" lon="13.7706426"><ele>832.2</ele><time>2026-05-02T10:11:40.288Z</time></trkpt><trkpt lat="42.2359164" lon="13.7707006"><ele>833.6</ele><time>2026-05-02T10:11:42.289Z</time></trkpt><trkpt lat="42.2358436" lon="13.7707878"><ele>835.0</ele><time>2026-05-02T10:11:44.288Z</time></trkpt><trkpt lat="42.23583" lon="13.770925"><ele>836.0</ele><time>2026-05-02T10:11:46.288Z</time></trkpt><trkpt lat="42.23585" lon="13.7710517"><ele>837.0</ele><time>2026-05-02T10:11:48.288Z</time></trkpt><trkpt lat="42.235865" lon="13.7711867"><ele>838.0</ele><time>2026-05-02T10:11:50.288Z</time></trkpt><trkpt lat="42.2358767" lon="13.7713617"><ele>839.0</ele><time>2026-05-02T10:11:52.288Z</time></trkpt><trkpt lat="42.23589" lon="13.7714467"><ele>840.0</ele><time>2026-05-02T10:11:53.288Z</time></trkpt><trkpt lat="42.2358983" lon="13.7716"><ele>840.0</ele><time>2026-05-02T10:11:55.288Z</time></trkpt><trkpt lat="42.2358883" lon="13.7717417"><ele>840.0</ele><time>2026-05-02T10:11:57.288Z</time></trkpt><trkpt lat="42.2358583" lon="13.7718983"><ele>840.0</ele><time>2026-05-02T10:11:59.288Z</time></trkpt><trkpt lat="42.23583" lon="13.771985"><ele>840.0</ele><time>2026-05-02T10:12:00.289Z</time></trkpt><trkpt lat="42.23577" lon="13.77212"><ele>840.0</ele><time>2026-05-02T10:12:02.288Z</time></trkpt><trkpt lat="42.2356867" lon="13.7722467"><ele>840.0</ele><time>2026-05-02T10:12:04.288Z</time></trkpt><trkpt lat="42.2356417" lon="13.7723133"><ele>840.0</ele><time>2026-05-02T10:12:05.288Z</time></trkpt><trkpt lat="42.2355983" lon="13.7723783"><ele>840.0</ele><time>2026-05-02T10:12:06.288Z</time></trkpt><trkpt lat="42.2355567" lon="13.7724517"><ele>840.0</ele><time>2026-05-02T10:12:07.288Z</time></trkpt><trkpt lat="42.2355217" lon="13.7725317"><ele>840.0</ele><time>2026-05-02T10:12:08.288Z</time></trkpt><trkpt lat="42.23548" lon="13.772615"><ele>840.0</ele><time>2026-05-02T10:12:09.288Z</time></trkpt><trkpt lat="42.2354367" lon="13.7726833"><ele>840.0</ele><time>2026-05-02T10:12:10.288Z</time></trkpt><trkpt lat="42.23538" lon="13.77276"><ele>840.0</ele><time>2026-05-02T10:12:11.288Z</time></trkpt><trkpt lat="42.2353167" lon="13.77283"><ele>840.0</ele><time>2026-05-02T10:12:12.288Z</time></trkpt><trkpt lat="42.235245" lon="13.7729"><ele>840.0</ele><time>2026-05-02T10:12:13.288Z</time></trkpt><trkpt lat="42.2351883" lon="13.772965"><ele>840.0</ele><time>2026-05-02T10:12:14.288Z</time></trkpt><trkpt lat="42.2351383" lon="13.7730283"><ele>840.0</ele><time>2026-05-02T10:12:15.288Z</time></trkpt><trkpt lat="42.2350733" lon="13.7731517"><ele>840.0</ele><time>2026-05-02T10:12:17.288Z</time></trkpt><trkpt lat="42.2350283" lon="13.7732817"><ele>840.0</ele><time>2026-05-02T10:12:19.288Z</time></trkpt><trkpt lat="42.2350183" lon="13.773465"><ele>840.0</ele><time>2026-05-02T10:12:21.288Z</time></trkpt><trkpt lat="42.2350333" lon="13.7735883"><ele>840.0</ele><time>2026-05-02T10:12:22.288Z</time></trkpt><trkpt lat="42.2350683" lon="13.7737083"><ele>840.0</ele><time>2026-05-02T10:12:23.288Z</time></trkpt><trkpt lat="42.2350833" lon="13.773805"><ele>840.0</ele><time>2026-05-02T10:12:24.288Z</time></trkpt><trkpt lat="42.2351183" lon="13.7738983"><ele>840.6666666666666</ele><time>2026-05-02T10:12:25.288Z</time></trkpt><trkpt lat="42.2351617" lon="13.7739817"><ele>841.3333333333333</ele><time>2026-05-02T10:12:26.288Z</time></trkpt><trkpt lat="42.2352133" lon="13.7740467"><ele>842.0</ele><time>2026-05-02T10:12:27.288Z</time></trkpt><trkpt lat="42.2352617" lon="13.774115"><ele>842.6666666666666</ele><time>2026-05-02T10:12:28.288Z</time></trkpt><trkpt lat="42.2353183" lon="13.7741833"><ele>843.3333333333333</ele><time>2026-05-02T10:12:29.289Z</time></trkpt><trkpt lat="42.235395" lon="13.7742917"><ele>844.0</ele><time>2026-05-02T10:12:31.288Z</time></trkpt><trkpt lat="42.23544" lon="13.774465"><ele>844.8333333333333</ele><time>2026-05-02T10:12:33.288Z</time></trkpt><trkpt lat="42.2354617" lon="13.7745783"><ele>845.6666666666666</ele><time>2026-05-02T10:12:34.288Z</time></trkpt><trkpt lat="42.2354833" lon="13.7747"><ele>846.5</ele><time>2026-05-02T10:12:35.288Z</time></trkpt><trkpt lat="42.2354983" lon="13.7748033"><ele>847.3333333333333</ele><time>2026-05-02T10:12:36.288Z</time></trkpt><trkpt lat="42.2355183" lon="13.77492"><ele>848.1666666666666</ele><time>2026-05-02T10:12:37.288Z</time></trkpt><trkpt lat="42.2355283" lon="13.7750383"><ele>849.0</ele><time>2026-05-02T10:12:38.288Z</time></trkpt><trkpt lat="42.2355267" lon="13.7751817"><ele>847.8333333333334</ele><time>2026-05-02T10:12:39.288Z</time></trkpt><trkpt lat="42.2355133" lon="13.7753283"><ele>846.6666666666667</ele><time>2026-05-02T10:12:40.288Z</time></trkpt><trkpt lat="42.23549" lon="13.7754483"><ele>845.5</ele><time>2026-05-02T10:12:41.288Z</time></trkpt><trkpt lat="42.23546" lon="13.775555"><ele>844.3333333333334</ele><time>2026-05-02T10:12:42.288Z</time></trkpt><trkpt lat="42.2354233" lon="13.7756483"><ele>843.1666666666667</ele><time>2026-05-02T10:12:43.289Z</time></trkpt><trkpt lat="42.2353767" lon="13.77574"><ele>842.0</ele><time>2026-05-02T10:12:44.289Z</time></trkpt><trkpt lat="42.2353283" lon="13.77583"><ele>842.0000000000001</ele><time>2026-05-02T10:12:45.288Z</time></trkpt><trkpt lat="42.2352767" lon="13.7758983"><ele>842.0</ele><time>2026-05-02T10:12:46.288Z</time></trkpt><trkpt lat="42.2352117" lon="13.7759633"><ele>842.0</ele><time>2026-05-02T10:12:47.288Z</time></trkpt><trkpt lat="42.2351367" lon="13.7760133"><ele>842.0</ele><time>2026-05-02T10:12:48.288Z</time></trkpt><trkpt lat="42.2350533" lon="13.7760517"><ele>842.0000000000001</ele><time>2026-05-02T10:12:49.288Z</time></trkpt><trkpt lat="42.2349717" lon="13.7760783"><ele>842.0</ele><time>2026-05-02T10:12:50.288Z</time></trkpt><trkpt lat="42.2348933" lon="13.7761017"><ele>843.6666666666667</ele><time>2026-05-02T10:12:51.288Z</time></trkpt><trkpt lat="42.234815" lon="13.776125"><ele>845.3333333333334</ele><time>2026-05-02T10:12:52.288Z</time></trkpt><trkpt lat="42.23474" lon="13.7761517"><ele>847.0</ele><time>2026-05-02T10:12:53.288Z</time></trkpt><trkpt lat="42.2346667" lon="13.7761683"><ele>848.6666666666667</ele><time>2026-05-02T10:12:54.288Z</time></trkpt><trkpt lat="42.2346017" lon="13.7761833"><ele>850.3333333333334</ele><time>2026-05-02T10:12:55.288Z</time></trkpt><trkpt lat="42.2345383" lon="13.7762017"><ele>852.0</ele><time>2026-05-02T10:12:56.289Z</time></trkpt><trkpt lat="42.2344467" lon="13.77626"><ele>852.0</ele><time>2026-05-02T10:12:58.288Z</time></trkpt><trkpt lat="42.2343867" lon="13.7763883"><ele>852.0</ele><time>2026-05-02T10:13:00.288Z</time></trkpt><trkpt lat="42.2344" lon="13.776565"><ele>852.0</ele><time>2026-05-02T10:13:02.288Z</time></trkpt><trkpt lat="42.234435" lon="13.77668"><ele>852.0</ele><time>2026-05-02T10:13:03.289Z</time></trkpt><trkpt lat="42.2344933" lon="13.7767933"><ele>852.0</ele><time>2026-05-02T10:13:04.288Z</time></trkpt><trkpt lat="42.2345533" lon="13.776895"><ele>853.0</ele><time>2026-05-02T10:13:05.288Z</time></trkpt><trkpt lat="42.2346067" lon="13.7769917"><ele>854.0</ele><time>2026-05-02T10:13:06.288Z</time></trkpt><trkpt lat="42.234655" lon="13.7770717"><ele>855.0</ele><time>2026-05-02T10:13:07.289Z</time></trkpt><trkpt lat="42.23471" lon="13.777155"><ele>856.0</ele><time>2026-05-02T10:13:08.288Z</time></trkpt><trkpt lat="42.2347617" lon="13.7772233"><ele>857.0</ele><time>2026-05-02T10:13:09.288Z</time></trkpt><trkpt lat="42.234815" lon="13.7773"><ele>858.0</ele><time>2026-05-02T10:13:10.288Z</time></trkpt><trkpt lat="42.2348617" lon="13.7773717"><ele>856.6666666666666</ele><time>2026-05-02T10:13:11.288Z</time></trkpt><trkpt lat="42.2349133" lon="13.7774467"><ele>855.3333333333333</ele><time>2026-05-02T10:13:12.289Z</time></trkpt><trkpt lat="42.2349717" lon="13.7775283"><ele>854.0</ele><time>2026-05-02T10:13:13.288Z</time></trkpt><trkpt lat="42.235035" lon="13.7776033"><ele>852.6666666666666</ele><time>2026-05-02T10:13:14.288Z</time></trkpt><trkpt lat="42.2351" lon="13.7776917"><ele>851.3333333333333</ele><time>2026-05-02T10:13:15.289Z</time></trkpt><trkpt lat="42.2351667" lon="13.7777683"><ele>850.0</ele><time>2026-05-02T10:13:16.288Z</time></trkpt><trkpt lat="42.2352183" lon="13.7778483"><ele>849.9999999999999</ele><time>2026-05-02T10:13:17.288Z</time></trkpt><trkpt lat="42.23526" lon="13.77794"><ele>850.0</ele><time>2026-05-02T10:13:18.288Z</time></trkpt><trkpt lat="42.235285" lon="13.7780217"><ele>850.0</ele><time>2026-05-02T10:13:19.288Z</time></trkpt><trkpt lat="42.23531" lon="13.778105"><ele>850.0</ele><time>2026-05-02T10:13:20.288Z</time></trkpt><trkpt lat="42.2353167" lon="13.7782"><ele>849.9999999999999</ele><time>2026-05-02T10:13:21.288Z</time></trkpt><trkpt lat="42.2353133" lon="13.77831"><ele>850.0</ele><time>2026-05-02T10:13:22.289Z</time></trkpt><trkpt lat="42.2353033" lon="13.77843"><ele>849.8571428571429</ele><time>2026-05-02T10:13:23.288Z</time></trkpt><trkpt lat="42.2352933" lon="13.7785333"><ele>849.7142857142857</ele><time>2026-05-02T10:13:24.288Z</time></trkpt><trkpt lat="42.2352783" lon="13.7786317"><ele>849.5714285714287</ele><time>2026-05-02T10:13:25.288Z</time></trkpt><trkpt lat="42.2352483" lon="13.778715"><ele>849.4285714285714</ele><time>2026-05-02T10:13:26.288Z</time></trkpt><trkpt lat="42.2352117" lon="13.778785"><ele>849.2857142857143</ele><time>2026-05-02T10:13:27.288Z</time></trkpt><trkpt lat="42.235175" lon="13.778855"><ele>849.1428571428572</ele><time>2026-05-02T10:13:28.288Z</time></trkpt><trkpt lat="42.2351283" lon="13.7789283"><ele>849.0</ele><time>2026-05-02T10:13:29.289Z</time></trkpt><trkpt lat="42.2350767" lon="13.779005"><ele>849.0</ele><time>2026-05-02T10:13:30.288Z</time></trkpt><trkpt lat="42.2350217" lon="13.7790733"><ele>849.0</ele><time>2026-05-02T10:13:31.288Z</time></trkpt><trkpt lat="42.2349633" lon="13.7791417"><ele>849.0</ele><time>2026-05-02T10:13:32.288Z</time></trkpt><trkpt lat="42.234895" lon="13.7792217"><ele>849.0</ele><time>2026-05-02T10:13:33.288Z</time></trkpt><trkpt lat="42.2348217" lon="13.7793133"><ele>849.0</ele><time>2026-05-02T10:13:34.289Z</time></trkpt><trkpt lat="42.2347433" lon="13.7793833"><ele>849.0</ele><time>2026-05-02T10:13:35.288Z</time></trkpt><trkpt lat="42.2346567" lon="13.779455"><ele>848.8000000000001</ele><time>2026-05-02T10:13:36.288Z</time></trkpt><trkpt lat="42.2345683" lon="13.779535"><ele>848.6</ele><time>2026-05-02T10:13:37.288Z</time></trkpt><trkpt lat="42.234485" lon="13.7795967"><ele>848.4</ele><time>2026-05-02T10:13:38.288Z</time></trkpt><trkpt lat="42.2344083" lon="13.779665"><ele>848.2</ele><time>2026-05-02T10:13:39.289Z</time></trkpt><trkpt lat="42.2343417" lon="13.7797233"><ele>848.0</ele><time>2026-05-02T10:13:40.288Z</time></trkpt><trkpt lat="42.2342733" lon="13.7797733"><ele>848.0000000000001</ele><time>2026-05-02T10:13:41.288Z</time></trkpt><trkpt lat="42.2342033" lon="13.779825"><ele>848.0</ele><time>2026-05-02T10:13:42.288Z</time></trkpt><trkpt lat="42.23413" lon="13.7798617"><ele>848.0</ele><time>2026-05-02T10:13:43.288Z</time></trkpt><trkpt lat="42.2340583" lon="13.7798933"><ele>848.0</ele><time>2026-05-02T10:13:44.288Z</time></trkpt><trkpt lat="42.2339983" lon="13.7799283"><ele>848.0000000000001</ele><time>2026-05-02T10:13:45.288Z</time></trkpt><trkpt lat="42.2339067" lon="13.7800133"><ele>848.0</ele><time>2026-05-02T10:13:47.288Z</time></trkpt><trkpt lat="42.23388" lon="13.7801367"><ele>847.0</ele><time>2026-05-02T10:13:49.288Z</time></trkpt><trkpt lat="42.233915" lon="13.7803"><ele>846.0</ele><time>2026-05-02T10:13:51.288Z</time></trkpt><trkpt lat="42.2339433" lon="13.780385"><ele>845.0</ele><time>2026-05-02T10:13:52.288Z</time></trkpt><trkpt lat="42.2339633" lon="13.78048"><ele>844.0</ele><time>2026-05-02T10:13:53.288Z</time></trkpt><trkpt lat="42.2339867" lon="13.7805717"><ele>843.0</ele><time>2026-05-02T10:13:54.288Z</time></trkpt><trkpt lat="42.234005" lon="13.78073"><ele>843.0</ele><time>2026-05-02T10:13:56.288Z</time></trkpt><trkpt lat="42.2339983" lon="13.7808333"><ele>843.0</ele><time>2026-05-02T10:13:57.289Z</time></trkpt><trkpt lat="42.2339917" lon="13.7809417"><ele>843.0</ele><time>2026-05-02T10:13:58.288Z</time></trkpt><trkpt lat="42.2339867" lon="13.78105"><ele>843.0</ele><time>2026-05-02T10:13:59.288Z</time></trkpt><trkpt lat="42.2339883" lon="13.78115"><ele>843.0</ele><time>2026-05-02T10:14:00.288Z</time></trkpt><trkpt lat="42.2339917" lon="13.7812433"><ele>843.0</ele><time>2026-05-02T10:14:01.288Z</time></trkpt><trkpt lat="42.2339933" lon="13.781405"><ele>843.2</ele><time>2026-05-02T10:14:03.288Z</time></trkpt><trkpt lat="42.2340033" lon="13.7815517"><ele>843.4</ele><time>2026-05-02T10:14:05.288Z</time></trkpt><trkpt lat="42.2340167" lon="13.781645"><ele>843.6</ele><time>2026-05-02T10:14:07.288Z</time></trkpt><trkpt lat="42.233924" lon="13.7815272"><ele>843.8000000000001</ele><time>2026-05-02T10:14:17.288Z</time></trkpt><trkpt lat="42.233884" lon="13.7814158"><ele>844.0</ele><time>2026-05-02T10:14:18.289Z</time></trkpt><trkpt lat="42.2338404" lon="13.7813162"><ele>843.9999999999999</ele><time>2026-05-02T10:14:19.288Z</time></trkpt><trkpt lat="42.2337964" lon="13.7812339"><ele>844.0</ele><time>2026-05-02T10:14:20.288Z</time></trkpt><trkpt lat="42.2337523" lon="13.7811593"><ele>844.0</ele><time>2026-05-02T10:14:21.288Z</time></trkpt><trkpt lat="42.2337053" lon="13.7810756"><ele>844.0</ele><time>2026-05-02T10:14:22.288Z</time></trkpt><trkpt lat="42.2336558" lon="13.7809958"><ele>843.9999999999999</ele><time>2026-05-02T10:14:23.288Z</time></trkpt><trkpt lat="42.233604" lon="13.7809146"><ele>844.0</ele><time>2026-05-02T10:14:24.288Z</time></trkpt><trkpt lat="42.2335534" lon="13.7808309"><ele>845.8333333333333</ele><time>2026-05-02T10:14:25.289Z</time></trkpt><trkpt lat="42.2334974" lon="13.7807494"><ele>847.6666666666666</ele><time>2026-05-02T10:14:26.288Z</time></trkpt><trkpt lat="42.2334419" lon="13.7806701"><ele>849.5</ele><time>2026-05-02T10:14:27.288Z</time></trkpt><trkpt lat="42.2333833" lon="13.780595"><ele>851.3333333333333</ele><time>2026-05-02T10:14:28.288Z</time></trkpt><trkpt lat="42.2333221" lon="13.7805255"><ele>853.1666666666666</ele><time>2026-05-02T10:14:29.288Z</time></trkpt><trkpt lat="42.2332625" lon="13.7804648"><ele>855.0</ele><time>2026-05-02T10:14:30.288Z</time></trkpt><trkpt lat="42.2332053" lon="13.7804116"><ele>855.0</ele><time>2026-05-02T10:14:31.288Z</time></trkpt><trkpt lat="42.2331575" lon="13.78035"><ele>855.0</ele><time>2026-05-02T10:14:32.288Z</time></trkpt><trkpt lat="42.2331167" lon="13.7802835"><ele>855.0</ele><time>2026-05-02T10:14:33.288Z</time></trkpt><trkpt lat="42.2330457" lon="13.7801506"><ele>855.0</ele><time>2026-05-02T10:14:35.288Z</time></trkpt><trkpt lat="42.232971" lon="13.7800195"><ele>855.0</ele><time>2026-05-02T10:14:37.288Z</time></trkpt><trkpt lat="42.2329286" lon="13.7799562"><ele>855.0</ele><time>2026-05-02T10:14:38.288Z</time></trkpt><trkpt lat="42.2328424" lon="13.7798423"><ele>857.8333333333334</ele><time>2026-05-02T10:14:40.288Z</time></trkpt><trkpt lat="42.2327412" lon="13.779735"><ele>860.6666666666667</ele><time>2026-05-02T10:14:42.288Z</time></trkpt><trkpt lat="42.2326911" lon="13.7796812"><ele>863.5</ele><time>2026-05-02T10:14:43.288Z</time></trkpt><trkpt lat="42.2326358" lon="13.7796309"><ele>866.3333333333334</ele><time>2026-05-02T10:14:44.288Z</time></trkpt><trkpt lat="42.2325763" lon="13.7795872"><ele>869.1666666666667</ele><time>2026-05-02T10:14:45.288Z</time></trkpt><trkpt lat="42.2325148" lon="13.7795441"><ele>872.0</ele><time>2026-05-02T10:14:46.288Z</time></trkpt><trkpt lat="42.2324542" lon="13.7795036"><ele>872.0000000000001</ele><time>2026-05-02T10:14:47.288Z</time></trkpt><trkpt lat="42.2323903" lon="13.7794792"><ele>872.0</ele><time>2026-05-02T10:14:48.288Z</time></trkpt><trkpt lat="42.2322696" lon="13.7794413"><ele>872.0</ele><time>2026-05-02T10:14:50.288Z</time></trkpt><trkpt lat="42.2322041" lon="13.7794166"><ele>872.0</ele><time>2026-05-02T10:14:51.288Z</time></trkpt><trkpt lat="42.2321333" lon="13.779385"><ele>872.0000000000001</ele><time>2026-05-02T10:14:52.288Z</time></trkpt><trkpt lat="42.23206" lon="13.7793533"><ele>872.0</ele><time>2026-05-02T10:14:53.288Z</time></trkpt><trkpt lat="42.2319833" lon="13.7793267"><ele>874.1428571428571</ele><time>2026-05-02T10:14:54.289Z</time></trkpt><trkpt lat="42.23191" lon="13.7793"><ele>876.2857142857143</ele><time>2026-05-02T10:14:55.289Z</time></trkpt><trkpt lat="42.231845" lon="13.7792733"><ele>878.4285714285713</ele><time>2026-05-02T10:14:56.288Z</time></trkpt><trkpt lat="42.2317767" lon="13.77924"><ele>880.5714285714286</ele><time>2026-05-02T10:14:57.288Z</time></trkpt><trkpt lat="42.23171" lon="13.7792"><ele>882.7142857142857</ele><time>2026-05-02T10:14:58.288Z</time></trkpt><trkpt lat="42.23165" lon="13.779155"><ele>884.8571428571428</ele><time>2026-05-02T10:14:59.288Z</time></trkpt><trkpt lat="42.2315933" lon="13.779105"><ele>887.0</ele><time>2026-05-02T10:15:00.288Z</time></trkpt><trkpt lat="42.23154" lon="13.7790517"><ele>887.0</ele><time>2026-05-02T10:15:01.288Z</time></trkpt><trkpt lat="42.23149" lon="13.779"><ele>887.0</ele><time>2026-05-02T10:15:02.288Z</time></trkpt><trkpt lat="42.2314283" lon="13.7789667"><ele>887.0</ele><time>2026-05-02T10:15:03.288Z</time></trkpt><trkpt lat="42.231335" lon="13.778865"><ele>887.0</ele><time>2026-05-02T10:15:05.288Z</time></trkpt><trkpt lat="42.23127" lon="13.7787517"><ele>887.0</ele><time>2026-05-02T10:15:07.288Z</time></trkpt><trkpt lat="42.2311983" lon="13.7786367"><ele>888.75</ele><time>2026-05-02T10:15:09.288Z</time></trkpt><trkpt lat="42.2311017" lon="13.778545"><ele>890.5</ele><time>2026-05-02T10:15:11.288Z</time></trkpt><trkpt lat="42.2309917" lon="13.778505"><ele>892.25</ele><time>2026-05-02T10:15:13.288Z</time></trkpt><trkpt lat="42.2308817" lon="13.7785067"><ele>894.0</ele><time>2026-05-02T10:15:15.288Z</time></trkpt><trkpt lat="42.2307683" lon="13.7784917"><ele>896.0</ele><time>2026-05-02T10:15:17.288Z</time></trkpt><trkpt lat="42.2307067" lon="13.7784733"><ele>898.0</ele><time>2026-05-02T10:15:18.288Z</time></trkpt><trkpt lat="42.23058" lon="13.77844"><ele>900.0</ele><time>2026-05-02T10:15:20.288Z</time></trkpt><trkpt lat="42.23051" lon="13.7784117"><ele>902.0</ele><time>2026-05-02T10:15:21.288Z</time></trkpt><trkpt lat="42.2304367" lon="13.7783783"><ele>904.0</ele><time>2026-05-02T10:15:22.288Z</time></trkpt><trkpt lat="42.2303667" lon="13.7783383"><ele>906.0</ele><time>2026-05-02T10:15:23.288Z</time></trkpt><trkpt lat="42.230305" lon="13.7783"><ele>907.3333333333334</ele><time>2026-05-02T10:15:24.288Z</time></trkpt><trkpt lat="42.2302433" lon="13.77828"><ele>908.6666666666667</ele><time>2026-05-02T10:15:25.289Z</time></trkpt><trkpt lat="42.2301783" lon="13.7782783"><ele>910.0</ele><time>2026-05-02T10:15:26.288Z</time></trkpt><trkpt lat="42.23011" lon="13.7782933"><ele>911.3333333333334</ele><time>2026-05-02T10:15:27.288Z</time></trkpt><trkpt lat="42.2300417" lon="13.7782917"><ele>912.6666666666667</ele><time>2026-05-02T10:15:28.289Z</time></trkpt><trkpt lat="42.2299733" lon="13.7782867"><ele>914.0</ele><time>2026-05-02T10:15:29.288Z</time></trkpt><trkpt lat="42.22985" lon="13.7782233"><ele>914.5000000000001</ele><time>2026-05-02T10:15:31.288Z</time></trkpt><trkpt lat="42.2297817" lon="13.77818"><ele>915.0</ele><time>2026-05-02T10:15:32.288Z</time></trkpt><trkpt lat="42.229715" lon="13.7781317"><ele>915.5</ele><time>2026-05-02T10:15:33.288Z</time></trkpt><trkpt lat="42.2296517" lon="13.77808"><ele>916.0</ele><time>2026-05-02T10:15:34.288Z</time></trkpt><trkpt lat="42.229585" lon="13.7780283"><ele>916.5000000000001</ele><time>2026-05-02T10:15:35.288Z</time></trkpt><trkpt lat="42.229515" lon="13.77798"><ele>917.0</ele><time>2026-05-02T10:15:36.288Z</time></trkpt><trkpt lat="42.2294467" lon="13.77794"><ele>917.0000000000001</ele><time>2026-05-02T10:15:37.288Z</time></trkpt><trkpt lat="42.2293317" lon="13.7778933"><ele>917.0</ele><time>2026-05-02T10:15:39.288Z</time></trkpt><trkpt lat="42.2292083" lon="13.7779267"><ele>917.0</ele><time>2026-05-02T10:15:41.288Z</time></trkpt><trkpt lat="42.229145" lon="13.77795"><ele>917.0</ele><time>2026-05-02T10:15:42.288Z</time></trkpt><trkpt lat="42.2290817" lon="13.7779683"><ele>917.0000000000001</ele><time>2026-05-02T10:15:43.288Z</time></trkpt><trkpt lat="42.2290133" lon="13.77797"><ele>917.0</ele><time>2026-05-02T10:15:44.288Z</time></trkpt><trkpt lat="42.2289417" lon="13.7779583"><ele>917.1428571428571</ele><time>2026-05-02T10:15:45.288Z</time></trkpt><trkpt lat="42.2288717" lon="13.777925"><ele>917.2857142857142</ele><time>2026-05-02T10:15:46.288Z</time></trkpt><trkpt lat="42.2288133" lon="13.7778717"><ele>917.4285714285714</ele><time>2026-05-02T10:15:47.288Z</time></trkpt><trkpt lat="42.2287633" lon="13.77779"><ele>917.5714285714286</ele><time>2026-05-02T10:15:48.288Z</time></trkpt><trkpt lat="42.228715" lon="13.77771"><ele>917.7142857142857</ele><time>2026-05-02T10:15:49.288Z</time></trkpt><trkpt lat="42.2286717" lon="13.7776367"><ele>917.8571428571429</ele><time>2026-05-02T10:15:50.288Z</time></trkpt><trkpt lat="42.2286233" lon="13.7775783"><ele>918.0</ele><time>2026-05-02T10:15:51.288Z</time></trkpt><trkpt lat="42.2285683" lon="13.7775367"><ele>918.0</ele><time>2026-05-02T10:15:52.288Z</time></trkpt><trkpt lat="42.2285017" lon="13.777515"><ele>918.0</ele><time>2026-05-02T10:15:53.288Z</time></trkpt><trkpt lat="42.2284167" lon="13.777505"><ele>918.0</ele><time>2026-05-02T10:15:54.288Z</time></trkpt><trkpt lat="42.22833" lon="13.77751"><ele>918.0</ele><time>2026-05-02T10:15:55.288Z</time></trkpt><trkpt lat="42.2282317" lon="13.777515"><ele>918.0</ele><time>2026-05-02T10:15:56.288Z</time></trkpt><trkpt lat="42.22814" lon="13.7775317"><ele>918.0</ele><time>2026-05-02T10:15:57.288Z</time></trkpt><trkpt lat="42.2280433" lon="13.7775617"><ele>918.0</ele><time>2026-05-02T10:15:58.289Z</time></trkpt><trkpt lat="42.227955" lon="13.7775933"><ele>918.0</ele><time>2026-05-02T10:15:59.288Z</time></trkpt><trkpt lat="42.2278583" lon="13.777645"><ele>918.0</ele><time>2026-05-02T10:16:00.288Z</time></trkpt><trkpt lat="42.2277667" lon="13.7777033"><ele>918.0</ele><time>2026-05-02T10:16:01.288Z</time></trkpt><trkpt lat="42.2276717" lon="13.77777"><ele>918.0</ele><time>2026-05-02T10:16:02.288Z</time></trkpt><trkpt lat="42.2275817" lon="13.77784"><ele>918.25</ele><time>2026-05-02T10:16:03.288Z</time></trkpt><trkpt lat="42.22749" lon="13.777925"><ele>918.5</ele><time>2026-05-02T10:16:04.288Z</time></trkpt><trkpt lat="42.2273933" lon="13.7780033"><ele>918.75</ele><time>2026-05-02T10:16:05.288Z</time></trkpt><trkpt lat="42.2272967" lon="13.7780833"><ele>919.0</ele><time>2026-05-02T10:16:06.288Z</time></trkpt><trkpt lat="42.2271917" lon="13.7781883"><ele>919.0</ele><time>2026-05-02T10:16:07.288Z</time></trkpt><trkpt lat="42.2270767" lon="13.778295"><ele>919.0</ele><time>2026-05-02T10:16:08.288Z</time></trkpt><trkpt lat="42.2269617" lon="13.7784"><ele>919.0</ele><time>2026-05-02T10:16:09.288Z</time></trkpt><trkpt lat="42.2268517" lon="13.77849"><ele>919.0</ele><time>2026-05-02T10:16:10.288Z</time></trkpt><trkpt lat="42.2267433" lon="13.7785817"><ele>919.5</ele><time>2026-05-02T10:16:11.289Z</time></trkpt><trkpt lat="42.2266383" lon="13.77867"><ele>920.0</ele><time>2026-05-02T10:16:12.288Z</time></trkpt><trkpt lat="42.22654" lon="13.77876"><ele>920.5</ele><time>2026-05-02T10:16:13.288Z</time></trkpt><trkpt lat="42.2264433" lon="13.7788467"><ele>921.0</ele><time>2026-05-02T10:16:14.288Z</time></trkpt><trkpt lat="42.226345" lon="13.7789433"><ele>920.0</ele><time>2026-05-02T10:16:15.288Z</time></trkpt><trkpt lat="42.226245" lon="13.77906"><ele>919.0</ele><time>2026-05-02T10:16:16.288Z</time></trkpt><trkpt lat="42.22614" lon="13.7791833"><ele>918.0</ele><time>2026-05-02T10:16:17.288Z</time></trkpt><trkpt lat="42.22605" lon="13.779295"><ele>917.0</ele><time>2026-05-02T10:16:18.288Z</time></trkpt><trkpt lat="42.2259667" lon="13.7794183"><ele>917.0</ele><time>2026-05-02T10:16:19.288Z</time></trkpt><trkpt lat="42.22588" lon="13.7795517"><ele>917.0</ele><time>2026-05-02T10:16:20.288Z</time></trkpt><trkpt lat="42.22579" lon="13.7796933"><ele>917.0</ele><time>2026-05-02T10:16:21.288Z</time></trkpt><trkpt lat="42.225705" lon="13.7798167"><ele>917.0</ele><time>2026-05-02T10:16:22.288Z</time></trkpt><trkpt lat="42.2256183" lon="13.7799433"><ele>914.5</ele><time>2026-05-02T10:16:23.288Z</time></trkpt><trkpt lat="42.2255283" lon="13.780085"><ele>912.0</ele><time>2026-05-02T10:16:24.288Z</time></trkpt><trkpt lat="42.22544" lon="13.7802183"><ele>909.5</ele><time>2026-05-02T10:16:25.288Z</time></trkpt><trkpt lat="42.2253617" lon="13.78035"><ele>907.0</ele><time>2026-05-02T10:16:26.288Z</time></trkpt><trkpt lat="42.2252933" lon="13.780475"><ele>907.0</ele><time>2026-05-02T10:16:27.288Z</time></trkpt><trkpt lat="42.2252333" lon="13.7805933"><ele>907.0</ele><time>2026-05-02T10:16:28.288Z</time></trkpt><trkpt lat="42.2251667" lon="13.780715"><ele>907.0</ele><time>2026-05-02T10:16:29.288Z</time></trkpt><trkpt lat="42.2251" lon="13.7808333"><ele>907.0</ele><time>2026-05-02T10:16:30.288Z</time></trkpt><trkpt lat="42.225035" lon="13.780935"><ele>907.0</ele><time>2026-05-02T10:16:31.288Z</time></trkpt><trkpt lat="42.2249683" lon="13.78103"><ele>907.3333333333333</ele><time>2026-05-02T10:16:32.288Z</time></trkpt><trkpt lat="42.2249033" lon="13.7811167"><ele>907.6666666666666</ele><time>2026-05-02T10:16:33.288Z</time></trkpt><trkpt lat="42.22485" lon="13.78119"><ele>908.0</ele><time>2026-05-02T10:16:34.288Z</time></trkpt><trkpt lat="42.2247983" lon="13.7812533"><ele>908.3333333333333</ele><time>2026-05-02T10:16:35.288Z</time></trkpt><trkpt lat="42.2247483" lon="13.7813217"><ele>908.6666666666666</ele><time>2026-05-02T10:16:36.288Z</time></trkpt><trkpt lat="42.224705" lon="13.7814083"><ele>909.0</ele><time>2026-05-02T10:16:37.289Z</time></trkpt><trkpt lat="42.2246667" lon="13.7815167"><ele>904.8000000000001</ele><time>2026-05-02T10:16:38.288Z</time></trkpt><trkpt lat="42.2246367" lon="13.7816433"><ele>900.6000000000001</ele><time>2026-05-02T10:16:39.288Z</time></trkpt><trkpt lat="42.2246083" lon="13.78177"><ele>896.4</ele><time>2026-05-02T10:16:40.288Z</time></trkpt><trkpt lat="42.2245717" lon="13.7818933"><ele>892.2</ele><time>2026-05-02T10:16:41.288Z</time></trkpt><trkpt lat="42.224525" lon="13.7820183"><ele>888.0</ele><time>2026-05-02T10:16:42.288Z</time></trkpt><trkpt lat="42.2244633" lon="13.7821383"><ele>887.5999999999999</ele><time>2026-05-02T10:16:43.288Z</time></trkpt><trkpt lat="42.2244133" lon="13.7822583"><ele>887.1999999999999</ele><time>2026-05-02T10:16:44.288Z</time></trkpt><trkpt lat="42.224365" lon="13.78238"><ele>886.8</ele><time>2026-05-02T10:16:45.288Z</time></trkpt><trkpt lat="42.2243267" lon="13.782505"><ele>886.4</ele><time>2026-05-02T10:16:46.288Z</time></trkpt><trkpt lat="42.2243033" lon="13.78262"><ele>886.0</ele><time>2026-05-02T10:16:47.288Z</time></trkpt><trkpt lat="42.2242883" lon="13.78272"><ele>886.0</ele><time>2026-05-02T10:16:48.288Z</time></trkpt><trkpt lat="42.224285" lon="13.7828783"><ele>885.9999999999999</ele><time>2026-05-02T10:16:50.288Z</time></trkpt><trkpt lat="42.2242317" lon="13.782945"><ele>885.9999999999999</ele><time>2026-05-02T10:16:52.288Z</time></trkpt><trkpt lat="42.224145" lon="13.7828767"><ele>886.0</ele><time>2026-05-02T10:16:54.288Z</time></trkpt><trkpt lat="42.2241" lon="13.7827867"><ele>886.0</ele><time>2026-05-02T10:16:55.288Z</time></trkpt><trkpt lat="42.2240517" lon="13.7826683"><ele>886.0</ele><time>2026-05-02T10:16:56.288Z</time></trkpt><trkpt lat="42.223995" lon="13.7825517"><ele>885.9999999999999</ele><time>2026-05-02T10:16:57.288Z</time></trkpt><trkpt lat="42.2239517" lon="13.7824283"><ele>885.9999999999999</ele><time>2026-05-02T10:16:58.289Z</time></trkpt><trkpt lat="42.2239033" lon="13.7822933"><ele>886.0</ele><time>2026-05-02T10:16:59.288Z</time></trkpt><trkpt lat="42.223865" lon="13.782175"><ele>886.0</ele><time>2026-05-02T10:17:00.288Z</time></trkpt><trkpt lat="42.223825" lon="13.78207"><ele>881.3333333333333</ele><time>2026-05-02T10:17:01.288Z</time></trkpt><trkpt lat="42.2237867" lon="13.7819817"><ele>876.6666666666666</ele><time>2026-05-02T10:17:02.288Z</time></trkpt><trkpt lat="42.2237217" lon="13.781875"><ele>872.0</ele><time>2026-05-02T10:17:04.289Z</time></trkpt><trkpt lat="42.2236617" lon="13.7819083"><ele>867.3333333333333</ele><time>2026-05-02T10:17:06.289Z</time></trkpt><trkpt lat="42.223635" lon="13.78207"><ele>862.6666666666666</ele><time>2026-05-02T10:17:08.288Z</time></trkpt><trkpt lat="42.2236217" lon="13.7821767"><ele>858.0</ele><time>2026-05-02T10:17:09.288Z</time></trkpt><trkpt lat="42.22361" lon="13.7822817"><ele>858.0</ele><time>2026-05-02T10:17:10.288Z</time></trkpt><trkpt lat="42.2235983" lon="13.7823983"><ele>858.0</ele><time>2026-05-02T10:17:11.288Z</time></trkpt><trkpt lat="42.22359" lon="13.7824983"><ele>858.0</ele><time>2026-05-02T10:17:12.288Z</time></trkpt><trkpt lat="42.22356" lon="13.782605"><ele>858.0</ele><time>2026-05-02T10:17:14.288Z</time></trkpt><trkpt lat="42.2234933" lon="13.7825717"><ele>858.0</ele><time>2026-05-02T10:17:16.289Z</time></trkpt><trkpt lat="42.2234233" lon="13.7824283"><ele>858.0</ele><time>2026-05-02T10:17:18.288Z</time></trkpt><trkpt lat="42.2233917" lon="13.7823367"><ele>858.0</ele><time>2026-05-02T10:17:19.288Z</time></trkpt><trkpt lat="42.2233667" lon="13.7822433"><ele>858.0</ele><time>2026-05-02T10:17:20.288Z</time></trkpt><trkpt lat="42.223345" lon="13.7821483"><ele>858.0</ele><time>2026-05-02T10:17:21.288Z</time></trkpt><trkpt lat="42.2233233" lon="13.782065"><ele>858.0</ele><time>2026-05-02T10:17:22.288Z</time></trkpt><trkpt lat="42.223265" lon="13.7819967"><ele>858.0</ele><time>2026-05-02T10:17:24.288Z</time></trkpt><trkpt lat="42.223185" lon="13.782035"><ele>858.0</ele><time>2026-05-02T10:17:26.288Z</time></trkpt><trkpt lat="42.2231417" lon="13.7820983"><ele>858.0</ele><time>2026-05-02T10:17:27.288Z</time></trkpt><trkpt lat="42.2230967" lon="13.7821717"><ele>856.8</ele><time>2026-05-02T10:17:28.288Z</time></trkpt><trkpt lat="42.2230133" lon="13.7822967"><ele>855.5999999999999</ele><time>2026-05-02T10:17:30.288Z</time></trkpt><trkpt lat="42.22292" lon="13.782405"><ele>854.4000000000001</ele><time>2026-05-02T10:17:32.288Z</time></trkpt><trkpt lat="42.22281" lon="13.7824617"><ele>853.2</ele><time>2026-05-02T10:17:34.288Z</time></trkpt><trkpt lat="42.222745" lon="13.7824633"><ele>852.0</ele><time>2026-05-02T10:17:35.288Z</time></trkpt><trkpt lat="42.222665" lon="13.7824183"><ele>852.0</ele><time>2026-05-02T10:17:37.288Z</time></trkpt><trkpt lat="42.222605" lon="13.7823383"><ele>852.0</ele><time>2026-05-02T10:17:40.288Z</time></trkpt><trkpt lat="42.2225133" lon="13.78227"><ele>852.0</ele><time>2026-05-02T10:17:42.288Z</time></trkpt><trkpt lat="42.2224533" lon="13.7822167"><ele>852.0</ele><time>2026-05-02T10:17:43.289Z</time></trkpt><trkpt lat="42.2223917" lon="13.7821583"><ele>852.0</ele><time>2026-05-02T10:17:44.288Z</time></trkpt><trkpt lat="42.2223267" lon="13.7820983"><ele>852.0</ele><time>2026-05-02T10:17:45.288Z</time></trkpt><trkpt lat="42.2222733" lon="13.7820333"><ele>852.8333333333334</ele><time>2026-05-02T10:17:46.288Z</time></trkpt><trkpt lat="42.22222" lon="13.78196"><ele>853.6666666666667</ele><time>2026-05-02T10:17:47.289Z</time></trkpt><trkpt lat="42.222165" lon="13.7819017"><ele>854.5</ele><time>2026-05-02T10:17:48.288Z</time></trkpt><trkpt lat="42.2221217" lon="13.7818383"><ele>855.3333333333334</ele><time>2026-05-02T10:17:49.288Z</time></trkpt><trkpt lat="42.2220683" lon="13.7817733"><ele>856.1666666666667</ele><time>2026-05-02T10:17:50.288Z</time></trkpt><trkpt lat="42.221995" lon="13.7816533"><ele>857.0</ele><time>2026-05-02T10:17:52.288Z</time></trkpt><trkpt lat="42.221955" lon="13.781525"><ele>857.0</ele><time>2026-05-02T10:17:54.288Z</time></trkpt><trkpt lat="42.2219017" lon="13.7814067"><ele>857.0</ele><time>2026-05-02T10:17:56.288Z</time></trkpt><trkpt lat="42.22186" lon="13.781265"><ele>857.0</ele><time>2026-05-02T10:17:58.288Z</time></trkpt><trkpt lat="42.2218233" lon="13.7811"><ele>857.0</ele><time>2026-05-02T10:18:00.288Z</time></trkpt><trkpt lat="42.2218017" lon="13.7810183"><ele>857.0</ele><time>2026-05-02T10:18:01.288Z</time></trkpt><trkpt lat="42.221785" lon="13.780935"><ele>856.3333333333334</ele><time>2026-05-02T10:18:02.288Z</time></trkpt><trkpt lat="42.2217683" lon="13.7808517"><ele>855.6666666666667</ele><time>2026-05-02T10:18:03.288Z</time></trkpt><trkpt lat="42.2217467" lon="13.7807717"><ele>855.0</ele><time>2026-05-02T10:18:04.288Z</time></trkpt><trkpt lat="42.221705" lon="13.7806133"><ele>854.3333333333333</ele><time>2026-05-02T10:18:06.288Z</time></trkpt><trkpt lat="42.2216867" lon="13.7805283"><ele>853.6666666666666</ele><time>2026-05-02T10:18:07.288Z</time></trkpt><trkpt lat="42.2216583" lon="13.7804417"><ele>853.0</ele><time>2026-05-02T10:18:08.288Z</time></trkpt><trkpt lat="42.2216317" lon="13.7803483"><ele>852.9999999999999</ele><time>2026-05-02T10:18:09.289Z</time></trkpt><trkpt lat="42.2216033" lon="13.780255"><ele>853.0</ele><time>2026-05-02T10:18:10.288Z</time></trkpt><trkpt lat="42.22156" lon="13.7801767"><ele>853.0</ele><time>2026-05-02T10:18:11.288Z</time></trkpt><trkpt lat="42.221525" lon="13.7800933"><ele>853.0</ele><time>2026-05-02T10:18:12.288Z</time></trkpt><trkpt lat="42.2214883" lon="13.7800167"><ele>852.9999999999999</ele><time>2026-05-02T10:18:13.288Z</time></trkpt><trkpt lat="42.2214583" lon="13.779935"><ele>853.0</ele><time>2026-05-02T10:18:14.288Z</time></trkpt><trkpt lat="42.2214133" lon="13.7798"><ele>850.0</ele><time>2026-05-02T10:18:16.288Z</time></trkpt><trkpt lat="42.2213583" lon="13.7797333"><ele>847.0</ele><time>2026-05-02T10:18:18.289Z</time></trkpt><trkpt lat="42.2212733" lon="13.7797617"><ele>844.0</ele><time>2026-05-02T10:18:20.288Z</time></trkpt><trkpt lat="42.22115" lon="13.779845"><ele>841.0</ele><time>2026-05-02T10:18:22.288Z</time></trkpt><trkpt lat="42.221085" lon="13.7799067"><ele>838.0</ele><time>2026-05-02T10:18:23.289Z</time></trkpt><trkpt lat="42.2210117" lon="13.7799583"><ele>838.0</ele><time>2026-05-02T10:18:24.288Z</time></trkpt><trkpt lat="42.22093" lon="13.7800167"><ele>838.0</ele><time>2026-05-02T10:18:25.288Z</time></trkpt><trkpt lat="42.2208567" lon="13.780085"><ele>838.0</ele><time>2026-05-02T10:18:26.288Z</time></trkpt><trkpt lat="42.2207783" lon="13.78016"><ele>838.0</ele><time>2026-05-02T10:18:27.288Z</time></trkpt><trkpt lat="42.2206883" lon="13.7802333"><ele>838.0</ele><time>2026-05-02T10:18:28.288Z</time></trkpt><trkpt lat="42.2205933" lon="13.7802967"><ele>837.8</ele><time>2026-05-02T10:18:29.288Z</time></trkpt><trkpt lat="42.2204933" lon="13.78035"><ele>837.5999999999999</ele><time>2026-05-02T10:18:30.288Z</time></trkpt><trkpt lat="42.220395" lon="13.7804067"><ele>837.4000000000001</ele><time>2026-05-02T10:18:31.288Z</time></trkpt><trkpt lat="42.2203033" lon="13.7804567"><ele>837.2</ele><time>2026-05-02T10:18:32.288Z</time></trkpt><trkpt lat="42.2202183" lon="13.78048"><ele>837.0</ele><time>2026-05-02T10:18:33.288Z</time></trkpt><trkpt lat="42.2201383" lon="13.78048"><ele>837.0</ele><time>2026-05-02T10:18:34.288Z</time></trkpt><trkpt lat="42.2200467" lon="13.7804783"><ele>837.0</ele><time>2026-05-02T10:18:35.288Z</time></trkpt><trkpt lat="42.2199533" lon="13.7804617"><ele>837.0</ele><time>2026-05-02T10:18:36.288Z</time></trkpt><trkpt lat="42.2198667" lon="13.78044"><ele>837.0</ele><time>2026-05-02T10:18:37.288Z</time></trkpt><trkpt lat="42.2197783" lon="13.7804133"><ele>837.0</ele><time>2026-05-02T10:18:38.288Z</time></trkpt><trkpt lat="42.2196817" lon="13.7803817"><ele>835.2</ele><time>2026-05-02T10:18:39.289Z</time></trkpt><trkpt lat="42.2195917" lon="13.7803433"><ele>833.4000000000001</ele><time>2026-05-02T10:18:40.288Z</time></trkpt><trkpt lat="42.2195083" lon="13.780285"><ele>831.5999999999999</ele><time>2026-05-02T10:18:41.288Z</time></trkpt><trkpt lat="42.2194333" lon="13.7802067"><ele>829.8</ele><time>2026-05-02T10:18:42.288Z</time></trkpt><trkpt lat="42.2193633" lon="13.7801233"><ele>828.0</ele><time>2026-05-02T10:18:43.288Z</time></trkpt><trkpt lat="42.2192983" lon="13.7800283"><ele>824.3333333333334</ele><time>2026-05-02T10:18:44.288Z</time></trkpt><trkpt lat="42.2192367" lon="13.7799433"><ele>820.6666666666667</ele><time>2026-05-02T10:18:45.288Z</time></trkpt><trkpt lat="42.2191767" lon="13.77986"><ele>817.0</ele><time>2026-05-02T10:18:46.288Z</time></trkpt><trkpt lat="42.219115" lon="13.7797867"><ele>813.3333333333334</ele><time>2026-05-02T10:18:47.288Z</time></trkpt><trkpt lat="42.2190417" lon="13.779715"><ele>809.6666666666667</ele><time>2026-05-02T10:18:48.288Z</time></trkpt><trkpt lat="42.2189617" lon="13.7796567"><ele>806.0</ele><time>2026-05-02T10:18:49.288Z</time></trkpt><trkpt lat="42.2188617" lon="13.7796183"><ele>803.1999999999999</ele><time>2026-05-02T10:18:50.288Z</time></trkpt><trkpt lat="42.21876" lon="13.7795983"><ele>800.4</ele><time>2026-05-02T10:18:51.288Z</time></trkpt><trkpt lat="42.2186583" lon="13.7796033"><ele>797.6</ele><time>2026-05-02T10:18:52.288Z</time></trkpt><trkpt lat="42.2185583" lon="13.7796317"><ele>794.8</ele><time>2026-05-02T10:18:53.288Z</time></trkpt><trkpt lat="42.2184567" lon="13.7796717"><ele>792.0</ele><time>2026-05-02T10:18:54.288Z</time></trkpt><trkpt lat="42.2183467" lon="13.7797167"><ele>792.0</ele><time>2026-05-02T10:18:55.288Z</time></trkpt><trkpt lat="42.2182283" lon="13.779775"><ele>792.0</ele><time>2026-05-02T10:18:56.288Z</time></trkpt><trkpt lat="42.218125" lon="13.7798183"><ele>792.0</ele><time>2026-05-02T10:18:57.288Z</time></trkpt><trkpt lat="42.2180267" lon="13.7798617"><ele>792.0</ele><time>2026-05-02T10:18:58.289Z</time></trkpt><trkpt lat="42.2179383" lon="13.7798933"><ele>792.0</ele><time>2026-05-02T10:18:59.289Z</time></trkpt><trkpt lat="42.2178533" lon="13.7799183"><ele>791.0</ele><time>2026-05-02T10:19:00.288Z</time></trkpt><trkpt lat="42.21777" lon="13.7799183"><ele>790.0</ele><time>2026-05-02T10:19:01.288Z</time></trkpt><trkpt lat="42.2176767" lon="13.7799"><ele>789.0</ele><time>2026-05-02T10:19:02.288Z</time></trkpt><trkpt lat="42.2175983" lon="13.7798517"><ele>788.0</ele><time>2026-05-02T10:19:03.288Z</time></trkpt><trkpt lat="42.217535" lon="13.7797767"><ele>787.0</ele><time>2026-05-02T10:19:04.288Z</time></trkpt><trkpt lat="42.217495" lon="13.7796683"><ele>786.0</ele><time>2026-05-02T10:19:05.288Z</time></trkpt><trkpt lat="42.217465" lon="13.7795467"><ele>786.0</ele><time>2026-05-02T10:19:06.288Z</time></trkpt><trkpt lat="42.2174567" lon="13.7794117"><ele>786.0</ele><time>2026-05-02T10:19:07.288Z</time></trkpt><trkpt lat="42.21745" lon="13.779255"><ele>786.0</ele><time>2026-05-02T10:19:08.288Z</time></trkpt><trkpt lat="42.2174283" lon="13.7791"><ele>786.0</ele><time>2026-05-02T10:19:09.288Z</time></trkpt><trkpt lat="42.2173967" lon="13.7789483"><ele>783.0</ele><time>2026-05-02T10:19:10.289Z</time></trkpt><trkpt lat="42.2173483" lon="13.7788133"><ele>780.0</ele><time>2026-05-02T10:19:11.288Z</time></trkpt><trkpt lat="42.217295" lon="13.77866"><ele>777.0</ele><time>2026-05-02T10:19:12.288Z</time></trkpt><trkpt lat="42.21724" lon="13.7785083"><ele>774.0</ele><time>2026-05-02T10:19:13.288Z</time></trkpt><trkpt lat="42.217185" lon="13.7783517"><ele>770.4000000000001</ele><time>2026-05-02T10:19:14.288Z</time></trkpt><trkpt lat="42.2171267" lon="13.77821"><ele>766.8</ele><time>2026-05-02T10:19:15.288Z</time></trkpt><trkpt lat="42.2170683" lon="13.77808"><ele>763.2</ele><time>2026-05-02T10:19:16.288Z</time></trkpt><trkpt lat="42.2170133" lon="13.777955"><ele>759.5999999999999</ele><time>2026-05-02T10:19:17.288Z</time></trkpt><trkpt lat="42.2169633" lon="13.7778483"><ele>756.0</ele><time>2026-05-02T10:19:18.288Z</time></trkpt><trkpt lat="42.2169083" lon="13.7777583"><ele>752.4</ele><time>2026-05-02T10:19:19.288Z</time></trkpt><trkpt lat="42.21684" lon="13.7776767"><ele>748.8</ele><time>2026-05-02T10:19:20.288Z</time></trkpt><trkpt lat="42.2167567" lon="13.777605"><ele>745.1999999999999</ele><time>2026-05-02T10:19:21.289Z</time></trkpt><trkpt lat="42.2166517" lon="13.7775417"><ele>741.5999999999999</ele><time>2026-05-02T10:19:22.288Z</time></trkpt><trkpt lat="42.21654" lon="13.77748"><ele>738.0</ele><time>2026-05-02T10:19:23.288Z</time></trkpt><trkpt lat="42.2164233" lon="13.777415"><ele>735.75</ele><time>2026-05-02T10:19:24.288Z</time></trkpt><trkpt lat="42.216295" lon="13.777345"><ele>733.5</ele><time>2026-05-02T10:19:25.288Z</time></trkpt><trkpt lat="42.2161633" lon="13.7772567"><ele>731.25</ele><time>2026-05-02T10:19:26.288Z</time></trkpt><trkpt lat="42.2160367" lon="13.77716"><ele>729.0</ele><time>2026-05-02T10:19:27.288Z</time></trkpt><trkpt lat="42.2158967" lon="13.77707"><ele>729.0</ele><time>2026-05-02T10:19:28.288Z</time></trkpt><trkpt lat="42.2157667" lon="13.77699"><ele>729.0</ele><time>2026-05-02T10:19:29.289Z</time></trkpt><trkpt lat="42.215645" lon="13.7769217"><ele>729.0</ele><time>2026-05-02T10:19:30.288Z</time></trkpt><trkpt lat="42.2155383" lon="13.7768567"><ele>729.0</ele><time>2026-05-02T10:19:31.288Z</time></trkpt><trkpt lat="42.215425" lon="13.7768017"><ele>725.0</ele><time>2026-05-02T10:19:32.289Z</time></trkpt><trkpt lat="42.2153167" lon="13.7767533"><ele>721.0</ele><time>2026-05-02T10:19:33.289Z</time></trkpt><trkpt lat="42.2152067" lon="13.776725"><ele>717.0</ele><time>2026-05-02T10:19:34.288Z</time></trkpt><trkpt lat="42.2151133" lon="13.7767083"><ele>713.0</ele><time>2026-05-02T10:19:35.288Z</time></trkpt><trkpt lat="42.2150317" lon="13.77672"><ele>709.0</ele><time>2026-05-02T10:19:36.288Z</time></trkpt><trkpt lat="42.214965" lon="13.776755"><ele>709.0</ele><time>2026-05-02T10:19:37.288Z</time></trkpt><trkpt lat="42.2149033" lon="13.7768217"><ele>709.0</ele><time>2026-05-02T10:19:38.288Z</time></trkpt><trkpt lat="42.2148717" lon="13.7769217"><ele>709.0</ele><time>2026-05-02T10:19:39.288Z</time></trkpt><trkpt lat="42.2148367" lon="13.7770117"><ele>709.0</ele><time>2026-05-02T10:19:40.288Z</time></trkpt><trkpt lat="42.214805" lon="13.7770917"><ele>709.0</ele><time>2026-05-02T10:19:41.288Z</time></trkpt><trkpt lat="42.2147383" lon="13.7770717"><ele>709.0</ele><time>2026-05-02T10:19:44.288Z</time></trkpt><trkpt lat="42.2147617" lon="13.7769433"><ele>709.0</ele><time>2026-05-02T10:19:46.288Z</time></trkpt><trkpt lat="42.2147917" lon="13.776855"><ele>709.0</ele><time>2026-05-02T10:19:47.288Z</time></trkpt><trkpt lat="42.21483" lon="13.77675"><ele>709.0</ele><time>2026-05-02T10:19:48.288Z</time></trkpt><trkpt lat="42.2148583" lon="13.77664"><ele>709.0</ele><time>2026-05-02T10:19:49.288Z</time></trkpt><trkpt lat="42.214885" lon="13.7765367"><ele>709.0</ele><time>2026-05-02T10:19:50.288Z</time></trkpt><trkpt lat="42.214895" lon="13.776435"><ele>709.0</ele><time>2026-05-02T10:19:51.288Z</time></trkpt><trkpt lat="42.2148267" lon="13.77633"><ele>706.4000000000001</ele><time>2026-05-02T10:19:53.288Z</time></trkpt><trkpt lat="42.2147617" lon="13.7763667"><ele>703.8</ele><time>2026-05-02T10:19:54.288Z</time></trkpt><trkpt lat="42.2147017" lon="13.7764567"><ele>701.2</ele><time>2026-05-02T10:19:55.288Z</time></trkpt><trkpt lat="42.2146383" lon="13.7765783"><ele>698.5999999999999</ele><time>2026-05-02T10:19:56.288Z</time></trkpt><trkpt lat="42.2145833" lon="13.7767083"><ele>696.0</ele><time>2026-05-02T10:19:57.288Z</time></trkpt><trkpt lat="42.21453" lon="13.7768467"><ele>697.0</ele><time>2026-05-02T10:19:58.289Z</time></trkpt><trkpt lat="42.21448" lon="13.7769867"><ele>698.0</ele><time>2026-05-02T10:19:59.289Z</time></trkpt><trkpt lat="42.2144233" lon="13.77712"><ele>699.0</ele><time>2026-05-02T10:20:00.288Z</time></trkpt><trkpt lat="42.2143717" lon="13.77724"><ele>700.0</ele><time>2026-05-02T10:20:01.288Z</time></trkpt><trkpt lat="42.2143283" lon="13.7773567"><ele>701.0</ele><time>2026-05-02T10:20:02.288Z</time></trkpt><trkpt lat="42.214285" lon="13.7774467"><ele>701.0</ele><time>2026-05-02T10:20:03.288Z</time></trkpt><trkpt lat="42.2141733" lon="13.7774833"><ele>701.0</ele><time>2026-05-02T10:20:05.288Z</time></trkpt><trkpt lat="42.21414" lon="13.7773367"><ele>701.0</ele><time>2026-05-02T10:20:07.288Z</time></trkpt><trkpt lat="42.2141767" lon="13.7771833"><ele>701.0</ele><time>2026-05-02T10:20:08.288Z</time></trkpt><trkpt lat="42.2142183" lon="13.7770117"><ele>700.0</ele><time>2026-05-02T10:20:09.288Z</time></trkpt><trkpt lat="42.2142583" lon="13.7768517"><ele>699.0</ele><time>2026-05-02T10:20:10.288Z</time></trkpt><trkpt lat="42.2142867" lon="13.7767183"><ele>698.0</ele><time>2026-05-02T10:20:11.288Z</time></trkpt><trkpt lat="42.21431" lon="13.776625"><ele>697.0</ele><time>2026-05-02T10:20:12.288Z</time></trkpt><trkpt lat="42.2143167" lon="13.7765183"><ele>696.0</ele><time>2026-05-02T10:20:14.288Z</time></trkpt><trkpt lat="42.2142383" lon="13.776545"><ele>696.0</ele><time>2026-05-02T10:20:17.288Z</time></trkpt><trkpt lat="42.21417" lon="13.776625"><ele>696.0</ele><time>2026-05-02T10:20:19.288Z</time></trkpt><trkpt lat="42.214095" lon="13.7766933"><ele>696.0</ele><time>2026-05-02T10:20:21.288Z</time></trkpt><trkpt lat="42.2139867" lon="13.7767183"><ele>696.0</ele><time>2026-05-02T10:20:23.288Z</time></trkpt><trkpt lat="42.2139183" lon="13.7767283"><ele>696.0</ele><time>2026-05-02T10:20:24.288Z</time></trkpt><trkpt lat="42.2138417" lon="13.77673"><ele>696.0</ele><time>2026-05-02T10:20:25.288Z</time></trkpt><trkpt lat="42.2137717" lon="13.7767283"><ele>695.0</ele><time>2026-05-02T10:20:26.288Z</time></trkpt><trkpt lat="42.2137" lon="13.776725"><ele>694.0</ele><time>2026-05-02T10:20:27.288Z</time></trkpt><trkpt lat="42.21362" lon="13.7767233"><ele>693.0</ele><time>2026-05-02T10:20:28.288Z</time></trkpt><trkpt lat="42.21354" lon="13.7766983"><ele>692.0</ele><time>2026-05-02T10:20:29.288Z</time></trkpt><trkpt lat="42.2134583" lon="13.7766633"><ele>691.0</ele><time>2026-05-02T10:20:30.289Z</time></trkpt><trkpt lat="42.2133683" lon="13.77661"><ele>690.0</ele><time>2026-05-02T10:20:31.288Z</time></trkpt><trkpt lat="42.2132917" lon="13.7765533"><ele>690.0</ele><time>2026-05-02T10:20:32.288Z</time></trkpt><trkpt lat="42.2132167" lon="13.7764917"><ele>690.0</ele><time>2026-05-02T10:20:33.288Z</time></trkpt><trkpt lat="42.2131417" lon="13.7764283"><ele>690.0</ele><time>2026-05-02T10:20:34.288Z</time></trkpt><trkpt lat="42.2130733" lon="13.7763833"><ele>690.0</ele><time>2026-05-02T10:20:35.288Z</time></trkpt><trkpt lat="42.213005" lon="13.776345"><ele>690.0</ele><time>2026-05-02T10:20:36.288Z</time></trkpt><trkpt lat="42.21288" lon="13.77635"><ele>690.0</ele><time>2026-05-02T10:20:38.289Z</time></trkpt><trkpt lat="42.21281" lon="13.7763917"><ele>690.0</ele><time>2026-05-02T10:20:39.288Z</time></trkpt><trkpt lat="42.2127317" lon="13.7764483"><ele>690.0</ele><time>2026-05-02T10:20:40.288Z</time></trkpt><trkpt lat="42.2126533" lon="13.7765283"><ele>690.0</ele><time>2026-05-02T10:20:41.288Z</time></trkpt><trkpt lat="42.2125783" lon="13.7766117"><ele>690.0</ele><time>2026-05-02T10:20:42.288Z</time></trkpt><trkpt lat="42.2125033" lon="13.7766967"><ele>690.0</ele><time>2026-05-02T10:20:43.288Z</time></trkpt><trkpt lat="42.2124383" lon="13.7767767"><ele>690.0</ele><time>2026-05-02T10:20:44.288Z</time></trkpt><trkpt lat="42.21237" lon="13.7768433"><ele>690.0</ele><time>2026-05-02T10:20:45.289Z</time></trkpt><trkpt lat="42.2122933" lon="13.77691"><ele>690.0</ele><time>2026-05-02T10:20:46.288Z</time></trkpt><trkpt lat="42.2122117" lon="13.7769717"><ele>690.0</ele><time>2026-05-02T10:20:47.288Z</time></trkpt><trkpt lat="42.2121333" lon="13.7770367"><ele>690.0</ele><time>2026-05-02T10:20:48.288Z</time></trkpt><trkpt lat="42.2120667" lon="13.7770867"><ele>688.6666666666666</ele><time>2026-05-02T10:20:49.289Z</time></trkpt><trkpt lat="42.2120067" lon="13.7771367"><ele>687.3333333333334</ele><time>2026-05-02T10:20:50.288Z</time></trkpt><trkpt lat="42.211945" lon="13.7771717"><ele>686.0</ele><time>2026-05-02T10:20:51.288Z</time></trkpt><trkpt lat="42.2118783" lon="13.777185"><ele>684.6666666666667</ele><time>2026-05-02T10:20:52.289Z</time></trkpt><trkpt lat="42.2117917" lon="13.7771867"><ele>683.3333333333334</ele><time>2026-05-02T10:20:53.288Z</time></trkpt><trkpt lat="42.211695" lon="13.7771767"><ele>682.0</ele><time>2026-05-02T10:20:54.289Z</time></trkpt><trkpt lat="42.2115983" lon="13.777155"><ele>682.0</ele><time>2026-05-02T10:20:55.288Z</time></trkpt><trkpt lat="42.2115017" lon="13.7771033"><ele>682.0</ele><time>2026-05-02T10:20:56.289Z</time></trkpt><trkpt lat="42.2114117" lon="13.77704"><ele>682.0</ele><time>2026-05-02T10:20:57.288Z</time></trkpt><trkpt lat="42.21133" lon="13.7769567"><ele>682.0</ele><time>2026-05-02T10:20:58.288Z</time></trkpt><trkpt lat="42.2112467" lon="13.77687"><ele>682.0</ele><time>2026-05-02T10:20:59.288Z</time></trkpt><trkpt lat="42.21117" lon="13.7767867"><ele>681.8333333333334</ele><time>2026-05-02T10:21:00.288Z</time></trkpt><trkpt lat="42.211095" lon="13.7767"><ele>681.6666666666667</ele><time>2026-05-02T10:21:01.288Z</time></trkpt><trkpt lat="42.2110267" lon="13.7766217"><ele>681.5</ele><time>2026-05-02T10:21:02.288Z</time></trkpt><trkpt lat="42.21096" lon="13.776545"><ele>681.3333333333334</ele><time>2026-05-02T10:21:03.288Z</time></trkpt><trkpt lat="42.210895" lon="13.776475"><ele>681.1666666666666</ele><time>2026-05-02T10:21:04.288Z</time></trkpt><trkpt lat="42.2108333" lon="13.7764033"><ele>681.0</ele><time>2026-05-02T10:21:05.288Z</time></trkpt><trkpt lat="42.2107817" lon="13.7763283"><ele>681.0</ele><time>2026-05-02T10:21:06.289Z</time></trkpt><trkpt lat="42.2107267" lon="13.7762567"><ele>681.0</ele><time>2026-05-02T10:21:07.288Z</time></trkpt><trkpt lat="42.210655" lon="13.77619"><ele>681.0</ele><time>2026-05-02T10:21:08.288Z</time></trkpt><trkpt lat="42.2105733" lon="13.7761367"><ele>681.0</ele><time>2026-05-02T10:21:09.288Z</time></trkpt><trkpt lat="42.2104833" lon="13.7760833"><ele>681.0</ele><time>2026-05-02T10:21:10.288Z</time></trkpt><trkpt lat="42.2103767" lon="13.776035"><ele>680.5</ele><time>2026-05-02T10:21:11.289Z</time></trkpt><trkpt lat="42.210265" lon="13.77598"><ele>680.0</ele><time>2026-05-02T10:21:12.288Z</time></trkpt><trkpt lat="42.2101533" lon="13.77592"><ele>679.5</ele><time>2026-05-02T10:21:13.288Z</time></trkpt><trkpt lat="42.210035" lon="13.775865"><ele>679.0</ele><time>2026-05-02T10:21:14.288Z</time></trkpt><trkpt lat="42.20992" lon="13.7758083"><ele>679.0</ele><time>2026-05-02T10:21:15.288Z</time></trkpt><trkpt lat="42.20981" lon="13.7757633"><ele>679.0</ele><time>2026-05-02T10:21:16.288Z</time></trkpt><trkpt lat="42.2097" lon="13.7757183"><ele>679.0</ele><time>2026-05-02T10:21:17.288Z</time></trkpt><trkpt lat="42.20959" lon="13.7756683"><ele>679.0</ele><time>2026-05-02T10:21:18.288Z</time></trkpt><trkpt lat="42.2094817" lon="13.7756217"><ele>679.0</ele><time>2026-05-02T10:21:19.288Z</time></trkpt><trkpt lat="42.2093667" lon="13.7755783"><ele>679.0</ele><time>2026-05-02T10:21:20.289Z</time></trkpt><trkpt lat="42.209265" lon="13.7755383"><ele>679.0</ele><time>2026-05-02T10:21:21.288Z</time></trkpt><trkpt lat="42.2091667" lon="13.7755117"><ele>679.0</ele><time>2026-05-02T10:21:22.288Z</time></trkpt><trkpt lat="42.20907" lon="13.7754917"><ele>679.0</ele><time>2026-05-02T10:21:23.288Z</time></trkpt><trkpt lat="42.2089783" lon="13.7754783"><ele>678.8000000000001</ele><time>2026-05-02T10:21:24.288Z</time></trkpt><trkpt lat="42.20889" lon="13.7754867"><ele>678.6</ele><time>2026-05-02T10:21:25.288Z</time></trkpt><trkpt lat="42.2087917" lon="13.7755067"><ele>678.4</ele><time>2026-05-02T10:21:26.288Z</time></trkpt><trkpt lat="42.2086933" lon="13.7755383"><ele>678.2</ele><time>2026-05-02T10:21:27.288Z</time></trkpt><trkpt lat="42.2086017" lon="13.7755783"><ele>678.0</ele><time>2026-05-02T10:21:28.288Z</time></trkpt><trkpt lat="42.2085267" lon="13.7755867"><ele>678.0</ele><time>2026-05-02T10:21:29.288Z</time></trkpt><trkpt lat="42.2084567" lon="13.7755917"><ele>678.0</ele><time>2026-05-02T10:21:30.288Z</time></trkpt><trkpt lat="42.20838" lon="13.775575"><ele>678.0</ele><time>2026-05-02T10:21:31.288Z</time></trkpt><trkpt lat="42.20831" lon="13.775525"><ele>678.0</ele><time>2026-05-02T10:21:32.288Z</time></trkpt><trkpt lat="42.2082283" lon="13.7754567"><ele>678.0</ele><time>2026-05-02T10:21:33.288Z</time></trkpt><trkpt lat="42.2081317" lon="13.7753817"><ele>678.0</ele><time>2026-05-02T10:21:34.289Z</time></trkpt><trkpt lat="42.2080283" lon="13.7752867"><ele>678.0</ele><time>2026-05-02T10:21:35.288Z</time></trkpt><trkpt lat="42.20792" lon="13.775195"><ele>678.0</ele><time>2026-05-02T10:21:36.288Z</time></trkpt><trkpt lat="42.2078033" lon="13.7750983"><ele>678.0</ele><time>2026-05-02T10:21:37.288Z</time></trkpt><trkpt lat="42.2076917" lon="13.774995"><ele>678.0</ele><time>2026-05-02T10:21:38.288Z</time></trkpt><trkpt lat="42.2075883" lon="13.7748967"><ele>678.0</ele><time>2026-05-02T10:21:39.288Z</time></trkpt><trkpt lat="42.2075" lon="13.7748133"><ele>678.0</ele><time>2026-05-02T10:21:40.288Z</time></trkpt><trkpt lat="42.2074117" lon="13.7747283"><ele>678.0</ele><time>2026-05-02T10:21:41.288Z</time></trkpt><trkpt lat="42.2073533" lon="13.774655"><ele>678.0</ele><time>2026-05-02T10:21:42.289Z</time></trkpt><trkpt lat="42.207285" lon="13.7745517"><ele>678.0</ele><time>2026-05-02T10:21:44.288Z</time></trkpt><trkpt lat="42.20723" lon="13.77449"><ele>678.5999999999999</ele><time>2026-05-02T10:21:47.289Z</time></trkpt><trkpt lat="42.207105" lon="13.7745067"><ele>679.1999999999999</ele><time>2026-05-02T10:21:49.288Z</time></trkpt><trkpt lat="42.2070283" lon="13.7745433"><ele>679.8</ele><time>2026-05-02T10:21:50.288Z</time></trkpt><trkpt lat="42.20693" lon="13.7746033"><ele>680.4</ele><time>2026-05-02T10:21:51.288Z</time></trkpt><trkpt lat="42.2068167" lon="13.774675"><ele>681.0</ele><time>2026-05-02T10:21:52.288Z</time></trkpt><trkpt lat="42.206685" lon="13.7747383"><ele>681.0</ele><time>2026-05-02T10:21:53.288Z</time></trkpt><trkpt lat="42.2065433" lon="13.7748233"><ele>681.0</ele><time>2026-05-02T10:21:54.288Z</time></trkpt><trkpt lat="42.2063967" lon="13.77491"><ele>681.0</ele><time>2026-05-02T10:21:55.289Z</time></trkpt><trkpt lat="42.2062417" lon="13.774995"><ele>681.0</ele><time>2026-05-02T10:21:56.288Z</time></trkpt><trkpt lat="42.2060867" lon="13.7750717"><ele>681.0</ele><time>2026-05-02T10:21:57.288Z</time></trkpt><trkpt lat="42.2059283" lon="13.775175"><ele>681.0</ele><time>2026-05-02T10:21:58.288Z</time></trkpt><trkpt lat="42.2057733" lon="13.7752633"><ele>682.0</ele><time>2026-05-02T10:21:59.288Z</time></trkpt><trkpt lat="42.20561" lon="13.7753583"><ele>683.0</ele><time>2026-05-02T10:22:00.288Z</time></trkpt><trkpt lat="42.2054517" lon="13.7754467"><ele>684.0</ele><time>2026-05-02T10:22:01.288Z</time></trkpt><trkpt lat="42.2052917" lon="13.775535"><ele>684.0</ele><time>2026-05-02T10:22:02.288Z</time></trkpt><trkpt lat="42.2051483" lon="13.775615"><ele>684.0</ele><time>2026-05-02T10:22:03.288Z</time></trkpt><trkpt lat="42.205005" lon="13.77569"><ele>684.0</ele><time>2026-05-02T10:22:04.289Z</time></trkpt><trkpt lat="42.20486" lon="13.7757833"><ele>684.3333333333334</ele><time>2026-05-02T10:22:05.288Z</time></trkpt><trkpt lat="42.2047167" lon="13.7758583"><ele>684.6666666666667</ele><time>2026-05-02T10:22:06.289Z</time></trkpt><trkpt lat="42.2045767" lon="13.77593"><ele>685.0</ele><time>2026-05-02T10:22:07.288Z</time></trkpt><trkpt lat="42.2044333" lon="13.77602"><ele>685.0</ele><time>2026-05-02T10:22:08.288Z</time></trkpt><trkpt lat="42.2042917" lon="13.7761"><ele>685.0</ele><time>2026-05-02T10:22:09.288Z</time></trkpt><trkpt lat="42.2041483" lon="13.7761717"><ele>685.0</ele><time>2026-05-02T10:22:10.288Z</time></trkpt><trkpt lat="42.2040033" lon="13.77624"><ele>686.25</ele><time>2026-05-02T10:22:11.288Z</time></trkpt><trkpt lat="42.2038667" lon="13.7763117"><ele>687.5</ele><time>2026-05-02T10:22:12.289Z</time></trkpt><trkpt lat="42.2037267" lon="13.7763933"><ele>688.75</ele><time>2026-05-02T10:22:13.288Z</time></trkpt><trkpt lat="42.20359" lon="13.77647"><ele>690.0</ele><time>2026-05-02T10:22:14.288Z</time></trkpt><trkpt lat="42.2034467" lon="13.7765483"><ele>690.0</ele><time>2026-05-02T10:22:15.288Z</time></trkpt><trkpt lat="42.2033133" lon="13.77663"><ele>690.0</ele><time>2026-05-02T10:22:16.289Z</time></trkpt><trkpt lat="42.203185" lon="13.7767033"><ele>690.0</ele><time>2026-05-02T10:22:17.288Z</time></trkpt><trkpt lat="42.2030567" lon="13.7767817"><ele>690.0</ele><time>2026-05-02T10:22:18.288Z</time></trkpt><trkpt lat="42.2029217" lon="13.7768633"><ele>693.5</ele><time>2026-05-02T10:22:19.289Z</time></trkpt><trkpt lat="42.20278" lon="13.776935"><ele>697.0</ele><time>2026-05-02T10:22:20.288Z</time></trkpt><trkpt lat="42.2026467" lon="13.777"><ele>700.5</ele><time>2026-05-02T10:22:21.288Z</time></trkpt><trkpt lat="42.2025267" lon="13.777065"><ele>704.0</ele><time>2026-05-02T10:22:22.288Z</time></trkpt><trkpt lat="42.20243" lon="13.7771367"><ele>704.0</ele><time>2026-05-02T10:22:23.289Z</time></trkpt><trkpt lat="42.20234" lon="13.7772317"><ele>704.0</ele><time>2026-05-02T10:22:24.289Z</time></trkpt><trkpt lat="42.2022783" lon="13.7773633"><ele>704.0</ele><time>2026-05-02T10:22:25.288Z</time></trkpt><trkpt lat="42.2022333" lon="13.777515"><ele>704.0</ele><time>2026-05-02T10:22:26.288Z</time></trkpt><trkpt lat="42.202185" lon="13.7776983"><ele>703.0</ele><time>2026-05-02T10:22:27.288Z</time></trkpt><trkpt lat="42.2021567" lon="13.7779033"><ele>702.0</ele><time>2026-05-02T10:22:28.288Z</time></trkpt><trkpt lat="42.2021167" lon="13.7781333"><ele>701.0</ele><time>2026-05-02T10:22:29.288Z</time></trkpt><trkpt lat="42.2020583" lon="13.7783883"><ele>703.0</ele><time>2026-05-02T10:22:30.288Z</time></trkpt><trkpt lat="42.2020017" lon="13.7786367"><ele>705.0</ele><time>2026-05-02T10:22:31.288Z</time></trkpt><trkpt lat="42.2019567" lon="13.778865"><ele>707.0</ele><time>2026-05-02T10:22:32.288Z</time></trkpt><trkpt lat="42.2019067" lon="13.7790867"><ele>707.0</ele><time>2026-05-02T10:22:33.288Z</time></trkpt><trkpt lat="42.2018667" lon="13.7793067"><ele>707.0</ele><time>2026-05-02T10:22:34.289Z</time></trkpt><trkpt lat="42.2018233" lon="13.7795167"><ele>707.0</ele><time>2026-05-02T10:22:35.288Z</time></trkpt><trkpt lat="42.201775" lon="13.7797383"><ele>710.0</ele><time>2026-05-02T10:22:36.288Z</time></trkpt><trkpt lat="42.2017383" lon="13.7799483"><ele>713.0</ele><time>2026-05-02T10:22:37.288Z</time></trkpt><trkpt lat="42.201705" lon="13.78016"><ele>716.0</ele><time>2026-05-02T10:22:38.288Z</time></trkpt><trkpt lat="42.2016733" lon="13.7803767"><ele>718.0</ele><time>2026-05-02T10:22:39.288Z</time></trkpt><trkpt lat="42.2016533" lon="13.7805967"><ele>720.0</ele><time>2026-05-02T10:22:40.288Z</time></trkpt><trkpt lat="42.2016467" lon="13.7808233"><ele>722.0</ele><time>2026-05-02T10:22:41.288Z</time></trkpt><trkpt lat="42.201645" lon="13.7810583"><ele>723.3333333333333</ele><time>2026-05-02T10:22:42.289Z</time></trkpt><trkpt lat="42.2016583" lon="13.7812917"><ele>724.6666666666666</ele><time>2026-05-02T10:22:43.288Z</time></trkpt><trkpt lat="42.2016767" lon="13.7815217"><ele>726.0</ele><time>2026-05-02T10:22:44.288Z</time></trkpt><trkpt lat="42.2016983" lon="13.7817367"><ele>728.6666666666666</ele><time>2026-05-02T10:22:45.288Z</time></trkpt><trkpt lat="42.2017" lon="13.7819433"><ele>731.3333333333333</ele><time>2026-05-02T10:22:46.288Z</time></trkpt><trkpt lat="42.20167" lon="13.7821483"><ele>734.0</ele><time>2026-05-02T10:22:47.288Z</time></trkpt><trkpt lat="42.2016117" lon="13.7823483"><ele>734.0</ele><time>2026-05-02T10:22:48.288Z</time></trkpt><trkpt lat="42.2015467" lon="13.7825533"><ele>734.0</ele><time>2026-05-02T10:22:49.288Z</time></trkpt><trkpt lat="42.2014717" lon="13.7827767"><ele>734.0</ele><time>2026-05-02T10:22:50.288Z</time></trkpt><trkpt lat="42.201385" lon="13.7830117"><ele>733.3333333333333</ele><time>2026-05-02T10:22:51.288Z</time></trkpt><trkpt lat="42.2012867" lon="13.7832567"><ele>732.6666666666666</ele><time>2026-05-02T10:22:52.288Z</time></trkpt><trkpt lat="42.201185" lon="13.7835067"><ele>732.0</ele><time>2026-05-02T10:22:53.288Z</time></trkpt><trkpt lat="42.2010817" lon="13.7837417"><ele>737.0</ele><time>2026-05-02T10:22:54.288Z</time></trkpt><trkpt lat="42.2009817" lon="13.7839517"><ele>742.0</ele><time>2026-05-02T10:22:55.288Z</time></trkpt><trkpt lat="42.2008833" lon="13.7841617"><ele>747.0</ele><time>2026-05-02T10:22:56.288Z</time></trkpt><trkpt lat="42.2007783" lon="13.7843633"><ele>750.0</ele><time>2026-05-02T10:22:57.288Z</time></trkpt><trkpt lat="42.20067" lon="13.78456"><ele>753.0</ele><time>2026-05-02T10:22:58.289Z</time></trkpt><trkpt lat="42.2005617" lon="13.7847383"><ele>756.0</ele><time>2026-05-02T10:22:59.288Z</time></trkpt><trkpt lat="42.2004633" lon="13.7848933"><ele>756.0</ele><time>2026-05-02T10:23:00.288Z</time></trkpt><trkpt lat="42.20038" lon="13.785025"><ele>756.0</ele><time>2026-05-02T10:23:01.289Z</time></trkpt><trkpt lat="42.2003133" lon="13.7851167"><ele>756.0</ele><time>2026-05-02T10:23:02.288Z</time></trkpt><trkpt lat="42.2002233" lon="13.7851917"><ele>756.0</ele><time>2026-05-02T10:23:04.288Z</time></trkpt><trkpt lat="42.20015" lon="13.7851117"><ele>756.0</ele><time>2026-05-02T10:23:06.288Z</time></trkpt><trkpt lat="42.2001367" lon="13.7850233"><ele>756.0</ele><time>2026-05-02T10:23:07.288Z</time></trkpt><trkpt lat="42.2001283" lon="13.7849"><ele>756.0</ele><time>2026-05-02T10:23:08.288Z</time></trkpt><trkpt lat="42.2001183" lon="13.7847467"><ele>756.0</ele><time>2026-05-02T10:23:09.288Z</time></trkpt><trkpt lat="42.2000817" lon="13.7845567"><ele>756.0</ele><time>2026-05-02T10:23:10.288Z</time></trkpt><trkpt lat="42.2000217" lon="13.7843467"><ele>755.6666666666666</ele><time>2026-05-02T10:23:11.288Z</time></trkpt><trkpt lat="42.1999417" lon="13.7841367"><ele>755.3333333333333</ele><time>2026-05-02T10:23:12.288Z</time></trkpt><trkpt lat="42.1998467" lon="13.7839467"><ele>755.0</ele><time>2026-05-02T10:23:13.288Z</time></trkpt><trkpt lat="42.19979" lon="13.7837383"><ele>758.25</ele><time>2026-05-02T10:23:14.288Z</time></trkpt><trkpt lat="42.1997617" lon="13.7835517"><ele>761.5</ele><time>2026-05-02T10:23:15.288Z</time></trkpt><trkpt lat="42.1997533" lon="13.7833783"><ele>764.75</ele><time>2026-05-02T10:23:16.288Z</time></trkpt><trkpt lat="42.1997317" lon="13.783225"><ele>768.0</ele><time>2026-05-02T10:23:17.288Z</time></trkpt><trkpt lat="42.1996683" lon="13.78311"><ele>768.0</ele><time>2026-05-02T10:23:18.288Z</time></trkpt><trkpt lat="42.19956" lon="13.7830067"><ele>768.0</ele><time>2026-05-02T10:23:19.288Z</time></trkpt><trkpt lat="42.1994317" lon="13.7829217"><ele>768.0</ele><time>2026-05-02T10:23:20.288Z</time></trkpt><trkpt lat="42.1992983" lon="13.7828617"><ele>768.0</ele><time>2026-05-02T10:23:21.288Z</time></trkpt><trkpt lat="42.1991467" lon="13.7828467"><ele>769.6666666666667</ele><time>2026-05-02T10:23:22.288Z</time></trkpt><trkpt lat="42.1989817" lon="13.7828567"><ele>771.3333333333334</ele><time>2026-05-02T10:23:23.288Z</time></trkpt><trkpt lat="42.198785" lon="13.7828217"><ele>773.0</ele><time>2026-05-02T10:23:24.288Z</time></trkpt><trkpt lat="42.198605" lon="13.7827667"><ele>773.0</ele><time>2026-05-02T10:23:25.288Z</time></trkpt><trkpt lat="42.1984233" lon="13.7827117"><ele>773.0</ele><time>2026-05-02T10:23:26.288Z</time></trkpt><trkpt lat="42.198235" lon="13.7826867"><ele>773.0</ele><time>2026-05-02T10:23:27.289Z</time></trkpt><trkpt lat="42.19807" lon="13.7826817"><ele>774.3333333333334</ele><time>2026-05-02T10:23:28.288Z</time></trkpt><trkpt lat="42.19791" lon="13.7827"><ele>775.6666666666667</ele><time>2026-05-02T10:23:29.288Z</time></trkpt><trkpt lat="42.1977417" lon="13.78273"><ele>777.0</ele><time>2026-05-02T10:23:30.288Z</time></trkpt><trkpt lat="42.1975767" lon="13.7827433"><ele>777.0</ele><time>2026-05-02T10:23:31.288Z</time></trkpt><trkpt lat="42.1974117" lon="13.7827317"><ele>777.0</ele><time>2026-05-02T10:23:32.288Z</time></trkpt><trkpt lat="42.19727" lon="13.7827"><ele>777.0</ele><time>2026-05-02T10:23:33.288Z</time></trkpt><trkpt lat="42.197135" lon="13.782635"><ele>776.25</ele><time>2026-05-02T10:23:34.288Z</time></trkpt><trkpt lat="42.1970117" lon="13.782535"><ele>775.5</ele><time>2026-05-02T10:23:35.288Z</time></trkpt><trkpt lat="42.196925" lon="13.7824017"><ele>774.75</ele><time>2026-05-02T10:23:36.288Z</time></trkpt><trkpt lat="42.1968467" lon="13.7822633"><ele>774.0</ele><time>2026-05-02T10:23:37.288Z</time></trkpt><trkpt lat="42.1967583" lon="13.78214"><ele>774.0</ele><time>2026-05-02T10:23:38.288Z</time></trkpt><trkpt lat="42.196625" lon="13.7820367"><ele>774.0</ele><time>2026-05-02T10:23:39.288Z</time></trkpt><trkpt lat="42.1964583" lon="13.7819767"><ele>774.0</ele><time>2026-05-02T10:23:40.288Z</time></trkpt><trkpt lat="42.1962733" lon="13.7819317"><ele>774.6666666666667</ele><time>2026-05-02T10:23:41.289Z</time></trkpt><trkpt lat="42.1960783" lon="13.781895"><ele>775.3333333333334</ele><time>2026-05-02T10:23:42.289Z</time></trkpt><trkpt lat="42.195895" lon="13.7818567"><ele>776.0</ele><time>2026-05-02T10:23:43.288Z</time></trkpt><trkpt lat="42.1957167" lon="13.781815"><ele>777.6666666666667</ele><time>2026-05-02T10:23:44.288Z</time></trkpt><trkpt lat="42.195545" lon="13.78178"><ele>779.3333333333333</ele><time>2026-05-02T10:23:45.288Z</time></trkpt><trkpt lat="42.1953683" lon="13.7817467"><ele>781.0</ele><time>2026-05-02T10:23:46.288Z</time></trkpt><trkpt lat="42.1951967" lon="13.7817067"><ele>781.0</ele><time>2026-05-02T10:23:47.288Z</time></trkpt><trkpt lat="42.1950183" lon="13.7817"><ele>781.0</ele><time>2026-05-02T10:23:48.288Z</time></trkpt><trkpt lat="42.19484" lon="13.7817117"><ele>781.0</ele><time>2026-05-02T10:23:49.288Z</time></trkpt><trkpt lat="42.1946783" lon="13.7817267"><ele>782.5</ele><time>2026-05-02T10:23:50.288Z</time></trkpt><trkpt lat="42.19453" lon="13.781725"><ele>784.0</ele><time>2026-05-02T10:23:51.288Z</time></trkpt><trkpt lat="42.1943867" lon="13.7817033"><ele>785.5</ele><time>2026-05-02T10:23:52.288Z</time></trkpt><trkpt lat="42.19426" lon="13.7816483"><ele>787.0</ele><time>2026-05-02T10:23:53.288Z</time></trkpt><trkpt lat="42.19415" lon="13.7815667"><ele>787.0</ele><time>2026-05-02T10:23:54.288Z</time></trkpt><trkpt lat="42.1940683" lon="13.7814367"><ele>787.0</ele><time>2026-05-02T10:23:55.289Z</time></trkpt><trkpt lat="42.1940033" lon="13.781265"><ele>787.0</ele><time>2026-05-02T10:23:56.288Z</time></trkpt><trkpt lat="42.1939683" lon="13.78107"><ele>787.0</ele><time>2026-05-02T10:23:57.288Z</time></trkpt><trkpt lat="42.1939517" lon="13.7808683"><ele>793.0</ele><time>2026-05-02T10:23:58.288Z</time></trkpt><trkpt lat="42.1939467" lon="13.7806767"><ele>799.0</ele><time>2026-05-02T10:23:59.288Z</time></trkpt><trkpt lat="42.19396" lon="13.7804767"><ele>805.0</ele><time>2026-05-02T10:24:00.288Z</time></trkpt><trkpt lat="42.1939867" lon="13.7802633"><ele>800.3333333333333</ele><time>2026-05-02T10:24:01.289Z</time></trkpt><trkpt lat="42.1940233" lon="13.7800217"><ele>795.6666666666667</ele><time>2026-05-02T10:24:02.289Z</time></trkpt><trkpt lat="42.194065" lon="13.7797817"><ele>791.0</ele><time>2026-05-02T10:24:03.289Z</time></trkpt><trkpt lat="42.1941117" lon="13.7795567"><ele>792.6666666666667</ele><time>2026-05-02T10:24:04.289Z</time></trkpt><trkpt lat="42.1941483" lon="13.779325"><ele>794.3333333333333</ele><time>2026-05-02T10:24:05.289Z</time></trkpt><trkpt lat="42.1941583" lon="13.7790833"><ele>796.0</ele><time>2026-05-02T10:24:06.29Z</time></trkpt><trkpt lat="42.1941433" lon="13.7788167"><ele>796.0</ele><time>2026-05-02T10:24:07.289Z</time></trkpt><trkpt lat="42.19412" lon="13.778545"><ele>796.0</ele><time>2026-05-02T10:24:08.289Z</time></trkpt><trkpt lat="42.1941117" lon="13.77827"><ele>796.0</ele><time>2026-05-02T10:24:09.289Z</time></trkpt><trkpt lat="42.1941283" lon="13.7779933"><ele>799.0</ele><time>2026-05-02T10:24:10.289Z</time></trkpt><trkpt lat="42.194155" lon="13.7777133"><ele>802.0</ele><time>2026-05-02T10:24:11.289Z</time></trkpt><trkpt lat="42.1941967" lon="13.7774433"><ele>805.0</ele><time>2026-05-02T10:24:12.289Z</time></trkpt><trkpt lat="42.1942483" lon="13.7771867"><ele>808.3333333333333</ele><time>2026-05-02T10:24:13.289Z</time></trkpt><trkpt lat="42.194325" lon="13.7769433"><ele>811.6666666666667</ele><time>2026-05-02T10:24:14.289Z</time></trkpt><trkpt lat="42.1944167" lon="13.7767067"><ele>815.0</ele><time>2026-05-02T10:24:15.289Z</time></trkpt><trkpt lat="42.1945033" lon="13.7765067"><ele>817.6666666666667</ele><time>2026-05-02T10:24:16.289Z</time></trkpt><trkpt lat="42.194605" lon="13.7762817"><ele>820.3333333333333</ele><time>2026-05-02T10:24:17.289Z</time></trkpt><trkpt lat="42.1946683" lon="13.7760717"><ele>823.0</ele><time>2026-05-02T10:24:18.289Z</time></trkpt><trkpt lat="42.1947383" lon="13.7758633"><ele>820.3333333333333</ele><time>2026-05-02T10:24:19.289Z</time></trkpt><trkpt lat="42.1948217" lon="13.7756517"><ele>817.6666666666667</ele><time>2026-05-02T10:24:20.289Z</time></trkpt><trkpt lat="42.1949267" lon="13.775485"><ele>815.0</ele><time>2026-05-02T10:24:21.289Z</time></trkpt><trkpt lat="42.1950533" lon="13.7753167"><ele>818.6666666666667</ele><time>2026-05-02T10:24:22.289Z</time></trkpt><trkpt lat="42.19518" lon="13.775125"><ele>822.3333333333333</ele><time>2026-05-02T10:24:23.289Z</time></trkpt><trkpt lat="42.1953133" lon="13.7749117"><ele>826.0</ele><time>2026-05-02T10:24:24.29Z</time></trkpt><trkpt lat="42.1954333" lon="13.7747133"><ele>826.0</ele><time>2026-05-02T10:24:25.289Z</time></trkpt><trkpt lat="42.1955433" lon="13.7745283"><ele>826.0</ele><time>2026-05-02T10:24:26.289Z</time></trkpt><trkpt lat="42.1956483" lon="13.77435"><ele>826.0</ele><time>2026-05-02T10:24:27.289Z</time></trkpt><trkpt lat="42.1957533" lon="13.7741733"><ele>827.0</ele><time>2026-05-02T10:24:28.289Z</time></trkpt><trkpt lat="42.1958517" lon="13.774005"><ele>828.0</ele><time>2026-05-02T10:24:29.289Z</time></trkpt><trkpt lat="42.1959383" lon="13.77384"><ele>829.0</ele><time>2026-05-02T10:24:30.289Z</time></trkpt><trkpt lat="42.1959967" lon="13.773665"><ele>832.6666666666666</ele><time>2026-05-02T10:24:31.289Z</time></trkpt><trkpt lat="42.1960383" lon="13.77347"><ele>836.3333333333333</ele><time>2026-05-02T10:24:32.289Z</time></trkpt><trkpt lat="42.1960433" lon="13.7732483"><ele>840.0</ele><time>2026-05-02T10:24:33.289Z</time></trkpt><trkpt lat="42.19604" lon="13.7730133"><ele>840.0</ele><time>2026-05-02T10:24:34.289Z</time></trkpt><trkpt lat="42.196045" lon="13.77278"><ele>840.0</ele><time>2026-05-02T10:24:35.289Z</time></trkpt><trkpt lat="42.1960617" lon="13.77255"><ele>840.0</ele><time>2026-05-02T10:24:36.289Z</time></trkpt><trkpt lat="42.1960883" lon="13.772325"><ele>840.75</ele><time>2026-05-02T10:24:37.289Z</time></trkpt><trkpt lat="42.19612" lon="13.772105"><ele>841.5</ele><time>2026-05-02T10:24:38.289Z</time></trkpt><trkpt lat="42.1961283" lon="13.7719183"><ele>842.25</ele><time>2026-05-02T10:24:39.289Z</time></trkpt><trkpt lat="42.1961317" lon="13.771745"><ele>843.0</ele><time>2026-05-02T10:24:40.29Z</time></trkpt><trkpt lat="42.1961217" lon="13.7715967"><ele>843.0</ele><time>2026-05-02T10:24:41.29Z</time></trkpt><trkpt lat="42.1960617" lon="13.7714733"><ele>843.0</ele><time>2026-05-02T10:24:42.289Z</time></trkpt><trkpt lat="42.1959633" lon="13.7714183"><ele>843.0</ele><time>2026-05-02T10:24:43.289Z</time></trkpt><trkpt lat="42.1958417" lon="13.7713633"><ele>843.0</ele><time>2026-05-02T10:24:44.289Z</time></trkpt><trkpt lat="42.1957067" lon="13.7713367"><ele>846.6666666666667</ele><time>2026-05-02T10:24:45.289Z</time></trkpt><trkpt lat="42.1955533" lon="13.7713333"><ele>850.3333333333334</ele><time>2026-05-02T10:24:46.289Z</time></trkpt><trkpt lat="42.1954" lon="13.7713633"><ele>854.0</ele><time>2026-05-02T10:24:47.289Z</time></trkpt><trkpt lat="42.1952517" lon="13.7713783"><ele>854.0</ele><time>2026-05-02T10:24:48.289Z</time></trkpt><trkpt lat="42.1951283" lon="13.7713683"><ele>854.0</ele><time>2026-05-02T10:24:49.29Z</time></trkpt><trkpt lat="42.1950233" lon="13.7713183"><ele>854.0</ele><time>2026-05-02T10:24:50.29Z</time></trkpt><trkpt lat="42.194945" lon="13.771215"><ele>854.0</ele><time>2026-05-02T10:24:51.289Z</time></trkpt><trkpt lat="42.1949083" lon="13.7710783"><ele>853.0</ele><time>2026-05-02T10:24:52.289Z</time></trkpt><trkpt lat="42.19489" lon="13.7709183"><ele>852.0</ele><time>2026-05-02T10:24:53.289Z</time></trkpt><trkpt lat="42.1948767" lon="13.7707267"><ele>851.0</ele><time>2026-05-02T10:24:54.289Z</time></trkpt><trkpt lat="42.194845" lon="13.7705217"><ele>850.0</ele><time>2026-05-02T10:24:55.289Z</time></trkpt><trkpt lat="42.19479" lon="13.7703133"><ele>852.75</ele><time>2026-05-02T10:24:56.289Z</time></trkpt><trkpt lat="42.194715" lon="13.770115"><ele>855.5</ele><time>2026-05-02T10:24:57.29Z</time></trkpt><trkpt lat="42.1946367" lon="13.7699417"><ele>858.25</ele><time>2026-05-02T10:24:58.289Z</time></trkpt><trkpt lat="42.194565" lon="13.7697967"><ele>861.0</ele><time>2026-05-02T10:24:59.289Z</time></trkpt><trkpt lat="42.1944867" lon="13.76967"><ele>861.0</ele><time>2026-05-02T10:25:00.289Z</time></trkpt><trkpt lat="42.1943967" lon="13.7695883"><ele>861.0</ele><time>2026-05-02T10:25:01.289Z</time></trkpt><trkpt lat="42.194285" lon="13.7695467"><ele>861.0</ele><time>2026-05-02T10:25:02.289Z</time></trkpt><trkpt lat="42.1941383" lon="13.7695467"><ele>861.0</ele><time>2026-05-02T10:25:03.289Z</time></trkpt><trkpt lat="42.1939917" lon="13.7695883"><ele>864.3333333333333</ele><time>2026-05-02T10:25:04.29Z</time></trkpt><trkpt lat="42.1938217" lon="13.7696183"><ele>867.6666666666666</ele><time>2026-05-02T10:25:05.289Z</time></trkpt><trkpt lat="42.1936483" lon="13.7696167"><ele>871.0</ele><time>2026-05-02T10:25:06.289Z</time></trkpt><trkpt lat="42.193435" lon="13.7696017"><ele>871.0</ele><time>2026-05-02T10:25:07.289Z</time></trkpt><trkpt lat="42.1932233" lon="13.769585"><ele>871.0</ele><time>2026-05-02T10:25:08.289Z</time></trkpt><trkpt lat="42.1930117" lon="13.7695817"><ele>871.0</ele><time>2026-05-02T10:25:09.289Z</time></trkpt><trkpt lat="42.1928117" lon="13.769575"><ele>871.6666666666666</ele><time>2026-05-02T10:25:10.289Z</time></trkpt><trkpt lat="42.19261" lon="13.7695467"><ele>872.3333333333333</ele><time>2026-05-02T10:25:11.29Z</time></trkpt><trkpt lat="42.192425" lon="13.769495"><ele>873.0</ele><time>2026-05-02T10:25:12.289Z</time></trkpt><trkpt lat="42.192255" lon="13.7694383"><ele>873.0</ele><time>2026-05-02T10:25:13.289Z</time></trkpt><trkpt lat="42.1920833" lon="13.7694067"><ele>873.0</ele><time>2026-05-02T10:25:14.289Z</time></trkpt><trkpt lat="42.19192" lon="13.7693767"><ele>873.0</ele><time>2026-05-02T10:25:15.289Z</time></trkpt><trkpt lat="42.1917683" lon="13.76937"><ele>873.0</ele><time>2026-05-02T10:25:16.289Z</time></trkpt><trkpt lat="42.1916233" lon="13.7693733"><ele>873.0</ele><time>2026-05-02T10:25:17.289Z</time></trkpt><trkpt lat="42.19151" lon="13.7693683"><ele>873.0</ele><time>2026-05-02T10:25:18.289Z</time></trkpt><trkpt lat="42.1913967" lon="13.7693333"><ele>873.0</ele><time>2026-05-02T10:25:19.289Z</time></trkpt><trkpt lat="42.1912883" lon="13.7692633"><ele>872.8</ele><time>2026-05-02T10:25:20.289Z</time></trkpt><trkpt lat="42.191195" lon="13.7691483"><ele>872.5999999999999</ele><time>2026-05-02T10:25:21.289Z</time></trkpt><trkpt lat="42.191135" lon="13.7690233"><ele>872.4000000000001</ele><time>2026-05-02T10:25:22.289Z</time></trkpt><trkpt lat="42.1910667" lon="13.7689083"><ele>872.2</ele><time>2026-05-02T10:25:23.289Z</time></trkpt><trkpt lat="42.1909983" lon="13.7688133"><ele>872.0</ele><time>2026-05-02T10:25:24.289Z</time></trkpt><trkpt lat="42.1909433" lon="13.7687467"><ele>872.0000000000001</ele><time>2026-05-02T10:25:25.289Z</time></trkpt><trkpt lat="42.19087" lon="13.7686667"><ele>872.0</ele><time>2026-05-02T10:25:27.29Z</time></trkpt><trkpt lat="42.190885" lon="13.768575"><ele>872.0</ele><time>2026-05-02T10:25:30.289Z</time></trkpt><trkpt lat="42.1909767" lon="13.7685283"><ele>872.0</ele><time>2026-05-02T10:25:32.289Z</time></trkpt><trkpt lat="42.1910333" lon="13.76848"><ele>872.0000000000001</ele><time>2026-05-02T10:25:33.289Z</time></trkpt><trkpt lat="42.19109" lon="13.7684183"><ele>872.0</ele><time>2026-05-02T10:25:34.289Z</time></trkpt><trkpt lat="42.1911383" lon="13.7683483"><ele>872.1666666666667</ele><time>2026-05-02T10:25:35.289Z</time></trkpt><trkpt lat="42.1911917" lon="13.76826"><ele>872.3333333333334</ele><time>2026-05-02T10:25:36.289Z</time></trkpt><trkpt lat="42.1912517" lon="13.7681617"><ele>872.5</ele><time>2026-05-02T10:25:37.289Z</time></trkpt><trkpt lat="42.1913183" lon="13.768065"><ele>872.6666666666667</ele><time>2026-05-02T10:25:38.289Z</time></trkpt><trkpt lat="42.1913767" lon="13.7679783"><ele>872.8333333333334</ele><time>2026-05-02T10:25:39.289Z</time></trkpt><trkpt lat="42.1914333" lon="13.7679"><ele>873.0</ele><time>2026-05-02T10:25:40.289Z</time></trkpt><trkpt lat="42.191485" lon="13.767835"><ele>873.0</ele><time>2026-05-02T10:25:41.289Z</time></trkpt><trkpt lat="42.1915367" lon="13.7677767"><ele>873.0</ele><time>2026-05-02T10:25:42.289Z</time></trkpt><trkpt lat="42.1915867" lon="13.76772"><ele>873.0</ele><time>2026-05-02T10:25:43.289Z</time></trkpt><trkpt lat="42.1916417" lon="13.7676683"><ele>873.0</ele><time>2026-05-02T10:25:44.289Z</time></trkpt><trkpt lat="42.1917283" lon="13.767565"><ele>873.0</ele><time>2026-05-02T10:25:46.289Z</time></trkpt><trkpt lat="42.1918017" lon="13.7674233"><ele>873.0</ele><time>2026-05-02T10:25:48.289Z</time></trkpt><trkpt lat="42.1918367" lon="13.7673467"><ele>875.5</ele><time>2026-05-02T10:25:49.289Z</time></trkpt><trkpt lat="42.1918783" lon="13.76727"><ele>878.0</ele><time>2026-05-02T10:25:50.289Z</time></trkpt><trkpt lat="42.1919383" lon="13.7671183"><ele>880.5</ele><time>2026-05-02T10:25:52.289Z</time></trkpt><trkpt lat="42.1919583" lon="13.7670317"><ele>883.0</ele><time>2026-05-02T10:25:53.289Z</time></trkpt><trkpt lat="42.1919767" lon="13.76695"><ele>885.5</ele><time>2026-05-02T10:25:54.289Z</time></trkpt><trkpt lat="42.1920067" lon="13.7668733"><ele>888.0</ele><time>2026-05-02T10:25:55.29Z</time></trkpt><trkpt lat="42.1920367" lon="13.76679"><ele>890.0</ele><time>2026-05-02T10:25:56.289Z</time></trkpt><trkpt lat="42.1920683" lon="13.7667083"><ele>892.0</ele><time>2026-05-02T10:25:57.289Z</time></trkpt><trkpt lat="42.192105" lon="13.7666333"><ele>894.0</ele><time>2026-05-02T10:25:58.289Z</time></trkpt><trkpt lat="42.1921467" lon="13.7665583"><ele>896.0</ele><time>2026-05-02T10:25:59.289Z</time></trkpt><trkpt lat="42.1921967" lon="13.7664883"><ele>898.0</ele><time>2026-05-02T10:26:00.289Z</time></trkpt><trkpt lat="42.1922383" lon="13.76642"><ele>900.0</ele><time>2026-05-02T10:26:01.289Z</time></trkpt><trkpt lat="42.1922783" lon="13.7663383"><ele>902.0</ele><time>2026-05-02T10:26:02.289Z</time></trkpt><trkpt lat="42.1923167" lon="13.7662583"><ele>902.6666666666667</ele><time>2026-05-02T10:26:03.289Z</time></trkpt><trkpt lat="42.19237" lon="13.7661867"><ele>903.3333333333334</ele><time>2026-05-02T10:26:04.289Z</time></trkpt><trkpt lat="42.19242" lon="13.766105"><ele>904.0</ele><time>2026-05-02T10:26:05.289Z</time></trkpt><trkpt lat="42.19247" lon="13.76602"><ele>904.6666666666667</ele><time>2026-05-02T10:26:06.289Z</time></trkpt><trkpt lat="42.19252" lon="13.7659333"><ele>905.3333333333334</ele><time>2026-05-02T10:26:07.289Z</time></trkpt><trkpt lat="42.19258" lon="13.7658433"><ele>906.0</ele><time>2026-05-02T10:26:08.289Z</time></trkpt><trkpt lat="42.1926417" lon="13.7657533"><ele>906.0</ele><time>2026-05-02T10:26:09.289Z</time></trkpt><trkpt lat="42.1927083" lon="13.7656767"><ele>906.0</ele><time>2026-05-02T10:26:10.289Z</time></trkpt><trkpt lat="42.1927683" lon="13.765595"><ele>906.0</ele><time>2026-05-02T10:26:11.289Z</time></trkpt><trkpt lat="42.1928283" lon="13.765515"><ele>906.0</ele><time>2026-05-02T10:26:12.289Z</time></trkpt><trkpt lat="42.1928883" lon="13.76543"><ele>906.0</ele><time>2026-05-02T10:26:13.289Z</time></trkpt><trkpt lat="42.1929483" lon="13.76535"><ele>906.0</ele><time>2026-05-02T10:26:14.289Z</time></trkpt><trkpt lat="42.1930117" lon="13.76527"><ele>905.9999999999999</ele><time>2026-05-02T10:26:15.289Z</time></trkpt><trkpt lat="42.193065" lon="13.7651983"><ele>906.0</ele><time>2026-05-02T10:26:16.289Z</time></trkpt><trkpt lat="42.1931133" lon="13.76513"><ele>905.9999999999999</ele><time>2026-05-02T10:26:17.289Z</time></trkpt><trkpt lat="42.1931567" lon="13.7650683"><ele>905.9999999999999</ele><time>2026-05-02T10:26:18.289Z</time></trkpt><trkpt lat="42.1931967" lon="13.76499"><ele>906.0</ele><time>2026-05-02T10:26:19.289Z</time></trkpt><trkpt lat="42.1932517" lon="13.76491"><ele>905.9999999999999</ele><time>2026-05-02T10:26:20.289Z</time></trkpt><trkpt lat="42.19329" lon="13.7648383"><ele>905.9999999999999</ele><time>2026-05-02T10:26:21.289Z</time></trkpt><trkpt lat="42.1933733" lon="13.7647267"><ele>906.5999999999999</ele><time>2026-05-02T10:26:23.289Z</time></trkpt><trkpt lat="42.1934667" lon="13.7646217"><ele>907.1999999999999</ele><time>2026-05-02T10:26:25.29Z</time></trkpt><trkpt lat="42.1935683" lon="13.7645333"><ele>907.8000000000001</ele><time>2026-05-02T10:26:27.289Z</time></trkpt><trkpt lat="42.1936833" lon="13.76445"><ele>908.4000000000001</ele><time>2026-05-02T10:26:29.29Z</time></trkpt><trkpt lat="42.1937467" lon="13.7644217"><ele>909.0</ele><time>2026-05-02T10:26:30.29Z</time></trkpt><trkpt lat="42.1938567" lon="13.7643667"><ele>909.6666666666666</ele><time>2026-05-02T10:26:32.289Z</time></trkpt><trkpt lat="42.19391" lon="13.7643167"><ele>910.3333333333333</ele><time>2026-05-02T10:26:33.289Z</time></trkpt><trkpt lat="42.1939617" lon="13.76425"><ele>911.0</ele><time>2026-05-02T10:26:34.289Z</time></trkpt><trkpt lat="42.1940117" lon="13.7641617"><ele>911.6666666666666</ele><time>2026-05-02T10:26:35.289Z</time></trkpt><trkpt lat="42.19407" lon="13.7640533"><ele>912.3333333333333</ele><time>2026-05-02T10:26:36.289Z</time></trkpt><trkpt lat="42.1941267" lon="13.7639217"><ele>913.0</ele><time>2026-05-02T10:26:37.289Z</time></trkpt><trkpt lat="42.1941817" lon="13.763785"><ele>912.9999999999999</ele><time>2026-05-02T10:26:38.289Z</time></trkpt><trkpt lat="42.1942317" lon="13.76367"><ele>913.0</ele><time>2026-05-02T10:26:39.289Z</time></trkpt><trkpt lat="42.1942717" lon="13.7635783"><ele>913.0</ele><time>2026-05-02T10:26:40.289Z</time></trkpt><trkpt lat="42.19432" lon="13.7634883"><ele>913.0</ele><time>2026-05-02T10:26:41.289Z</time></trkpt><trkpt lat="42.1943717" lon="13.7634033"><ele>912.9999999999999</ele><time>2026-05-02T10:26:42.289Z</time></trkpt><trkpt lat="42.1944333" lon="13.763315"><ele>913.0</ele><time>2026-05-02T10:26:43.289Z</time></trkpt><trkpt lat="42.194515" lon="13.7632083"><ele>913.4</ele><time>2026-05-02T10:26:44.289Z</time></trkpt><trkpt lat="42.1945917" lon="13.763105"><ele>913.8</ele><time>2026-05-02T10:26:45.289Z</time></trkpt><trkpt lat="42.1946583" lon="13.7630067"><ele>914.2</ele><time>2026-05-02T10:26:46.289Z</time></trkpt><trkpt lat="42.1947183" lon="13.76293"><ele>914.6</ele><time>2026-05-02T10:26:47.289Z</time></trkpt><trkpt lat="42.194785" lon="13.762865"><ele>915.0</ele><time>2026-05-02T10:26:48.289Z</time></trkpt><trkpt lat="42.194855" lon="13.7628117"><ele>915.0</ele><time>2026-05-02T10:26:49.289Z</time></trkpt><trkpt lat="42.1949383" lon="13.7627633"><ele>915.0</ele><time>2026-05-02T10:26:50.289Z</time></trkpt><trkpt lat="42.1950217" lon="13.762715"><ele>915.0</ele><time>2026-05-02T10:26:51.289Z</time></trkpt><trkpt lat="42.1951033" lon="13.762675"><ele>915.0</ele><time>2026-05-02T10:26:52.289Z</time></trkpt><trkpt lat="42.19518" lon="13.7626433"><ele>915.0</ele><time>2026-05-02T10:26:53.289Z</time></trkpt><trkpt lat="42.19525" lon="13.7626133"><ele>915.0</ele><time>2026-05-02T10:26:54.289Z</time></trkpt><trkpt lat="42.1953217" lon="13.7625733"><ele>916.1666666666666</ele><time>2026-05-02T10:26:55.289Z</time></trkpt><trkpt lat="42.1953933" lon="13.76251"><ele>917.3333333333333</ele><time>2026-05-02T10:26:56.289Z</time></trkpt><trkpt lat="42.1954583" lon="13.7624283"><ele>918.5</ele><time>2026-05-02T10:26:57.289Z</time></trkpt><trkpt lat="42.1955167" lon="13.7623417"><ele>919.6666666666666</ele><time>2026-05-02T10:26:58.289Z</time></trkpt><trkpt lat="42.19557" lon="13.7622683"><ele>920.8333333333333</ele><time>2026-05-02T10:26:59.289Z</time></trkpt><trkpt lat="42.19561" lon="13.7621933"><ele>922.0</ele><time>2026-05-02T10:27:00.289Z</time></trkpt><trkpt lat="42.1956667" lon="13.7621067"><ele>922.0</ele><time>2026-05-02T10:27:02.289Z</time></trkpt><trkpt lat="42.195735" lon="13.7619767"><ele>922.0</ele><time>2026-05-02T10:27:20.289Z</time></trkpt><trkpt lat="42.19579" lon="13.76185"><ele>922.0</ele><time>2026-05-02T10:27:22.289Z</time></trkpt><trkpt lat="42.19585" lon="13.761715"><ele>922.0</ele><time>2026-05-02T10:27:24.289Z</time></trkpt><trkpt lat="42.1958867" lon="13.7616317"><ele>922.0</ele><time>2026-05-02T10:27:25.289Z</time></trkpt><trkpt lat="42.1959283" lon="13.7615483"><ele>922.0</ele><time>2026-05-02T10:27:26.289Z</time></trkpt><trkpt lat="42.1959733" lon="13.7614767"><ele>922.0</ele><time>2026-05-02T10:27:27.289Z</time></trkpt><trkpt lat="42.1960433" lon="13.7613617"><ele>922.0</ele><time>2026-05-02T10:27:29.289Z</time></trkpt><trkpt lat="42.1961283" lon="13.761245"><ele>922.0</ele><time>2026-05-02T10:27:31.289Z</time></trkpt><trkpt lat="42.19621" lon="13.7611017"><ele>922.0</ele><time>2026-05-02T10:27:33.289Z</time></trkpt><trkpt lat="42.1962517" lon="13.7610217"><ele>922.0</ele><time>2026-05-02T10:27:34.289Z</time></trkpt><trkpt lat="42.1962983" lon="13.7609483"><ele>922.0000000000001</ele><time>2026-05-02T10:27:35.289Z</time></trkpt><trkpt lat="42.19634" lon="13.7608717"><ele>922.0</ele><time>2026-05-02T10:27:36.29Z</time></trkpt><trkpt lat="42.1963833" lon="13.7607867"><ele>922.0</ele><time>2026-05-02T10:27:37.289Z</time></trkpt><trkpt lat="42.1964283" lon="13.7607017"><ele>922.0000000000001</ele><time>2026-05-02T10:27:38.289Z</time></trkpt><trkpt lat="42.196465" lon="13.76062"><ele>922.0</ele><time>2026-05-02T10:27:39.289Z</time></trkpt><trkpt lat="42.1965083" lon="13.7605417"><ele>922.0</ele><time>2026-05-02T10:27:40.29Z</time></trkpt><trkpt lat="42.196555" lon="13.7604617"><ele>921.9999999999999</ele><time>2026-05-02T10:27:41.289Z</time></trkpt><trkpt lat="42.1966083" lon="13.7603817"><ele>922.0</ele><time>2026-05-02T10:27:42.29Z</time></trkpt><trkpt lat="42.1966617" lon="13.7602833"><ele>922.0</ele><time>2026-05-02T10:27:43.289Z</time></trkpt><trkpt lat="42.196705" lon="13.76019"><ele>922.0</ele><time>2026-05-02T10:27:44.289Z</time></trkpt><trkpt lat="42.19675" lon="13.76009"><ele>921.9999999999999</ele><time>2026-05-02T10:27:45.289Z</time></trkpt><trkpt lat="42.1967883" lon="13.7599933"><ele>922.0</ele><time>2026-05-02T10:27:46.289Z</time></trkpt><trkpt lat="42.196825" lon="13.7599017"><ele>923.4999999999999</ele><time>2026-05-02T10:27:47.289Z</time></trkpt><trkpt lat="42.1968617" lon="13.7598133"><ele>925.0</ele><time>2026-05-02T10:27:48.289Z</time></trkpt><trkpt lat="42.1968933" lon="13.7597317"><ele>926.5</ele><time>2026-05-02T10:27:49.289Z</time></trkpt><trkpt lat="42.1969183" lon="13.7596417"><ele>928.0</ele><time>2026-05-02T10:27:50.29Z</time></trkpt><trkpt lat="42.1969317" lon="13.759545"><ele>929.4999999999999</ele><time>2026-05-02T10:27:51.289Z</time></trkpt><trkpt lat="42.1969383" lon="13.7594333"><ele>931.0</ele><time>2026-05-02T10:27:52.289Z</time></trkpt><trkpt lat="42.1969367" lon="13.75932"><ele>931.8333333333333</ele><time>2026-05-02T10:27:53.289Z</time></trkpt><trkpt lat="42.1969283" lon="13.7592033"><ele>932.6666666666666</ele><time>2026-05-02T10:27:54.289Z</time></trkpt><trkpt lat="42.1969183" lon="13.7590967"><ele>933.5</ele><time>2026-05-02T10:27:55.289Z</time></trkpt><trkpt lat="42.1969033" lon="13.759"><ele>934.3333333333333</ele><time>2026-05-02T10:27:56.289Z</time></trkpt><trkpt lat="42.1968883" lon="13.7589133"><ele>935.1666666666666</ele><time>2026-05-02T10:27:57.289Z</time></trkpt><trkpt lat="42.19687" lon="13.7588217"><ele>936.0</ele><time>2026-05-02T10:27:58.289Z</time></trkpt><trkpt lat="42.1968567" lon="13.7587217"><ele>936.0</ele><time>2026-05-02T10:27:59.289Z</time></trkpt><trkpt lat="42.1968517" lon="13.7586167"><ele>936.0</ele><time>2026-05-02T10:28:00.289Z</time></trkpt><trkpt lat="42.1968467" lon="13.7585233"><ele>936.0</ele><time>2026-05-02T10:28:01.289Z</time></trkpt><trkpt lat="42.1968517" lon="13.7584317"><ele>936.0</ele><time>2026-05-02T10:28:02.289Z</time></trkpt><trkpt lat="42.1968783" lon="13.7582783"><ele>936.0</ele><time>2026-05-02T10:28:04.289Z</time></trkpt><trkpt lat="42.1969267" lon="13.75816"><ele>936.0</ele><time>2026-05-02T10:28:06.289Z</time></trkpt><trkpt lat="42.1969767" lon="13.7580283"><ele>936.3333333333334</ele><time>2026-05-02T10:28:08.289Z</time></trkpt><trkpt lat="42.1970367" lon="13.757895"><ele>936.6666666666667</ele><time>2026-05-02T10:28:10.289Z</time></trkpt><trkpt lat="42.1970767" lon="13.757825"><ele>937.0</ele><time>2026-05-02T10:28:11.289Z</time></trkpt><trkpt lat="42.19712" lon="13.75776"><ele>937.3333333333334</ele><time>2026-05-02T10:28:12.289Z</time></trkpt><trkpt lat="42.1971617" lon="13.7576883"><ele>937.6666666666667</ele><time>2026-05-02T10:28:13.289Z</time></trkpt><trkpt lat="42.1972233" lon="13.7575383"><ele>938.0</ele><time>2026-05-02T10:28:15.289Z</time></trkpt><trkpt lat="42.197245" lon="13.7573683"><ele>939.3333333333334</ele><time>2026-05-02T10:28:17.289Z</time></trkpt><trkpt lat="42.1972433" lon="13.757205"><ele>940.6666666666667</ele><time>2026-05-02T10:28:19.29Z</time></trkpt><trkpt lat="42.1972333" lon="13.7571133"><ele>942.0</ele><time>2026-05-02T10:28:20.29Z</time></trkpt><trkpt lat="42.19722" lon="13.757025"><ele>943.3333333333333</ele><time>2026-05-02T10:28:21.289Z</time></trkpt><trkpt lat="42.1971967" lon="13.756935"><ele>944.6666666666666</ele><time>2026-05-02T10:28:22.289Z</time></trkpt><trkpt lat="42.19717" lon="13.7568433"><ele>946.0</ele><time>2026-05-02T10:28:23.289Z</time></trkpt><trkpt lat="42.1971417" lon="13.756675"><ele>946.9999999999999</ele><time>2026-05-02T10:28:25.289Z</time></trkpt><trkpt lat="42.19714" lon="13.7565783"><ele>948.0</ele><time>2026-05-02T10:28:26.289Z</time></trkpt><trkpt lat="42.1971433" lon="13.75649"><ele>949.0</ele><time>2026-05-02T10:28:27.289Z</time></trkpt><trkpt lat="42.1971517" lon="13.7563467"><ele>950.0</ele><time>2026-05-02T10:28:29.289Z</time></trkpt><trkpt lat="42.1971483" lon="13.7562367"><ele>950.9999999999999</ele><time>2026-05-02T10:28:31.289Z</time></trkpt><trkpt lat="42.1971433" lon="13.756115"><ele>952.0</ele><time>2026-05-02T10:28:33.289Z</time></trkpt><trkpt lat="42.197145" lon="13.755975"><ele>954.25</ele><time>2026-05-02T10:28:35.289Z</time></trkpt><trkpt lat="42.1971383" lon="13.7558117"><ele>956.5</ele><time>2026-05-02T10:28:37.289Z</time></trkpt><trkpt lat="42.1971167" lon="13.7556567"><ele>958.75</ele><time>2026-05-02T10:28:39.289Z</time></trkpt><trkpt lat="42.1970983" lon="13.7555083"><ele>961.0</ele><time>2026-05-02T10:28:41.289Z</time></trkpt><trkpt lat="42.19708" lon="13.7553533"><ele>963.0</ele><time>2026-05-02T10:28:43.289Z</time></trkpt><trkpt lat="42.1970583" lon="13.7552017"><ele>964.9999999999999</ele><time>2026-05-02T10:28:45.289Z</time></trkpt><trkpt lat="42.1970267" lon="13.7550633"><ele>966.9999999999999</ele><time>2026-05-02T10:28:47.289Z</time></trkpt><trkpt lat="42.1969917" lon="13.75495"><ele>969.0</ele><time>2026-05-02T10:28:49.289Z</time></trkpt><trkpt lat="42.1969583" lon="13.7548567"><ele>971.0</ele><time>2026-05-02T10:28:51.289Z</time></trkpt><trkpt lat="42.196925" lon="13.7547333"><ele>971.0000000000001</ele><time>2026-05-02T10:28:54.289Z</time></trkpt><trkpt lat="42.1969017" lon="13.75462"><ele>971.0</ele><time>2026-05-02T10:28:56.29Z</time></trkpt><trkpt lat="42.1968867" lon="13.7545017"><ele>971.0</ele><time>2026-05-02T10:28:58.289Z</time></trkpt><trkpt lat="42.1968817" lon="13.754385"><ele>971.0</ele><time>2026-05-02T10:29:00.289Z</time></trkpt><trkpt lat="42.1968583" lon="13.75427"><ele>971.0000000000001</ele><time>2026-05-02T10:29:02.289Z</time></trkpt><trkpt lat="42.1968317" lon="13.754155"><ele>971.0</ele><time>2026-05-02T10:29:04.289Z</time></trkpt><trkpt lat="42.19678" lon="13.7540383"><ele>972.8333333333334</ele><time>2026-05-02T10:29:06.289Z</time></trkpt><trkpt lat="42.19673" lon="13.753955"><ele>974.6666666666667</ele><time>2026-05-02T10:29:08.289Z</time></trkpt><trkpt lat="42.19667" lon="13.7539167"><ele>976.5</ele><time>2026-05-02T10:29:10.29Z</time></trkpt><trkpt lat="42.1966017" lon="13.7538433"><ele>978.3333333333333</ele><time>2026-05-02T10:29:12.289Z</time></trkpt><trkpt lat="42.1965383" lon="13.75373"><ele>980.1666666666666</ele><time>2026-05-02T10:29:14.289Z</time></trkpt><trkpt lat="42.1965" lon="13.7536033"><ele>982.0</ele><time>2026-05-02T10:29:16.289Z</time></trkpt><trkpt lat="42.19652" lon="13.7534617"><ele>984.75</ele><time>2026-05-02T10:29:18.289Z</time></trkpt><trkpt lat="42.1965667" lon="13.7532983"><ele>987.5</ele><time>2026-05-02T10:29:20.289Z</time></trkpt><trkpt lat="42.1966213" lon="13.7531579"><ele>990.25</ele><time>2026-05-02T10:29:22.289Z</time></trkpt><trkpt lat="42.1967023" lon="13.7530763"><ele>993.0</ele><time>2026-05-02T10:29:24.289Z</time></trkpt><trkpt lat="42.1968098" lon="13.753034"><ele>993.0</ele><time>2026-05-02T10:29:26.289Z</time></trkpt><trkpt lat="42.1969222" lon="13.7530013"><ele>993.0</ele><time>2026-05-02T10:29:28.29Z</time></trkpt><trkpt lat="42.197033" lon="13.7529194"><ele>993.0</ele><time>2026-05-02T10:29:30.289Z</time></trkpt><trkpt lat="42.1970906" lon="13.7528531"><ele>993.0</ele><time>2026-05-02T10:29:31.289Z</time></trkpt><trkpt lat="42.1971454" lon="13.7527801"><ele>993.0</ele><time>2026-05-02T10:29:32.289Z</time></trkpt><trkpt lat="42.1971915" lon="13.7527027"><ele>994.0</ele><time>2026-05-02T10:29:33.289Z</time></trkpt><trkpt lat="42.1972306" lon="13.7526237"><ele>995.0</ele><time>2026-05-02T10:29:34.289Z</time></trkpt><trkpt lat="42.1972704" lon="13.7525319"><ele>996.0</ele><time>2026-05-02T10:29:35.289Z</time></trkpt><trkpt lat="42.1973139" lon="13.7524316"><ele>997.0</ele><time>2026-05-02T10:29:36.289Z</time></trkpt><trkpt lat="42.1973579" lon="13.7523268"><ele>998.0</ele><time>2026-05-02T10:29:37.289Z</time></trkpt><trkpt lat="42.1973985" lon="13.7522174"><ele>999.0</ele><time>2026-05-02T10:29:38.289Z</time></trkpt><trkpt lat="42.1974341" lon="13.75211"><ele>999.0</ele><time>2026-05-02T10:29:39.29Z</time></trkpt><trkpt lat="42.1974631" lon="13.7520112"><ele>999.0</ele><time>2026-05-02T10:29:40.289Z</time></trkpt><trkpt lat="42.1975" lon="13.75192"><ele>999.0</ele><time>2026-05-02T10:29:41.289Z</time></trkpt><trkpt lat="42.1975467" lon="13.7518382"><ele>999.0</ele><time>2026-05-02T10:29:42.289Z</time></trkpt><trkpt lat="42.1976017" lon="13.7517631"><ele>999.0</ele><time>2026-05-02T10:29:43.289Z</time></trkpt><trkpt lat="42.1976604" lon="13.7516887"><ele>999.0</ele><time>2026-05-02T10:29:44.29Z</time></trkpt><trkpt lat="42.1977196" lon="13.7516101"><ele>1001.0</ele><time>2026-05-02T10:29:45.289Z</time></trkpt><trkpt lat="42.197779" lon="13.7515343"><ele>1003.0</ele><time>2026-05-02T10:29:46.289Z</time></trkpt><trkpt lat="42.1978373" lon="13.7514616"><ele>1005.0</ele><time>2026-05-02T10:29:47.289Z</time></trkpt><trkpt lat="42.1979059" lon="13.7513931"><ele>1007.0</ele><time>2026-05-02T10:29:48.289Z</time></trkpt><trkpt lat="42.1979761" lon="13.7513247"><ele>1009.0</ele><time>2026-05-02T10:29:49.29Z</time></trkpt><trkpt lat="42.1980424" lon="13.7512472"><ele>1011.0</ele><time>2026-05-02T10:29:50.29Z</time></trkpt><trkpt lat="42.1980957" lon="13.7511621"><ele>1010.9999999999999</ele><time>2026-05-02T10:29:51.289Z</time></trkpt><trkpt lat="42.1981454" lon="13.7510827"><ele>1011.0</ele><time>2026-05-02T10:29:52.29Z</time></trkpt><trkpt lat="42.1981893" lon="13.7510053"><ele>1010.9999999999999</ele><time>2026-05-02T10:29:53.29Z</time></trkpt><trkpt lat="42.198236" lon="13.7509333"><ele>1010.9999999999999</ele><time>2026-05-02T10:29:54.288Z</time></trkpt><trkpt lat="42.1982812" lon="13.7508593"><ele>1011.0</ele><time>2026-05-02T10:29:55.288Z</time></trkpt><trkpt lat="42.1983331" lon="13.7508001"><ele>1010.9999999999999</ele><time>2026-05-02T10:29:56.288Z</time></trkpt><trkpt lat="42.1983894" lon="13.750747"><ele>1010.9999999999999</ele><time>2026-05-02T10:29:57.288Z</time></trkpt><trkpt lat="42.1984402" lon="13.750692"><ele>1013.0</ele><time>2026-05-02T10:29:58.288Z</time></trkpt><trkpt lat="42.198509" lon="13.7505689"><ele>1014.9999999999999</ele><time>2026-05-02T10:30:00.288Z</time></trkpt><trkpt lat="42.1985752" lon="13.7504431"><ele>1016.9999999999999</ele><time>2026-05-02T10:30:02.288Z</time></trkpt><trkpt lat="42.1986279" lon="13.7503735"><ele>1019.0</ele><time>2026-05-02T10:30:03.288Z</time></trkpt><trkpt lat="42.19868" lon="13.7502948"><ele>1021.0</ele><time>2026-05-02T10:30:04.288Z</time></trkpt><trkpt lat="42.1987187" lon="13.7502173"><ele>1023.1999999999999</ele><time>2026-05-02T10:30:05.288Z</time></trkpt><trkpt lat="42.1987427" lon="13.7501377"><ele>1025.3999999999999</ele><time>2026-05-02T10:30:06.288Z</time></trkpt><trkpt lat="42.1987621" lon="13.749981"><ele>1027.6</ele><time>2026-05-02T10:30:08.286Z</time></trkpt><trkpt lat="42.198766" lon="13.7498177"><ele>1029.8</ele><time>2026-05-02T10:30:10.288Z</time></trkpt><trkpt lat="42.1987626" lon="13.7496877"><ele>1032.0</ele><time>2026-05-02T10:30:12.288Z</time></trkpt><trkpt lat="42.1987583" lon="13.7495467"><ele>1032.0</ele><time>2026-05-02T10:30:14.288Z</time></trkpt><trkpt lat="42.198735" lon="13.74939"><ele>1032.0</ele><time>2026-05-02T10:30:16.288Z</time></trkpt><trkpt lat="42.198725" lon="13.7492967"><ele>1032.0</ele><time>2026-05-02T10:30:17.288Z</time></trkpt><trkpt lat="42.19872" lon="13.7491933"><ele>1032.0</ele><time>2026-05-02T10:30:18.288Z</time></trkpt><trkpt lat="42.198715" lon="13.74908"><ele>1032.0</ele><time>2026-05-02T10:30:19.288Z</time></trkpt><trkpt lat="42.1987033" lon="13.74897"><ele>1032.0</ele><time>2026-05-02T10:30:20.288Z</time></trkpt><trkpt lat="42.1986867" lon="13.7488583"><ele>1033.0</ele><time>2026-05-02T10:30:21.289Z</time></trkpt><trkpt lat="42.1986717" lon="13.748735"><ele>1034.0</ele><time>2026-05-02T10:30:22.288Z</time></trkpt><trkpt lat="42.1986633" lon="13.7486133"><ele>1035.0</ele><time>2026-05-02T10:30:23.288Z</time></trkpt><trkpt lat="42.1986617" lon="13.7484883"><ele>1036.0</ele><time>2026-05-02T10:30:24.288Z</time></trkpt><trkpt lat="42.1986767" lon="13.7483633"><ele>1037.0</ele><time>2026-05-02T10:30:25.288Z</time></trkpt><trkpt lat="42.198675" lon="13.7482467"><ele>1037.4</ele><time>2026-05-02T10:30:26.288Z</time></trkpt><trkpt lat="42.1986783" lon="13.748135"><ele>1037.8000000000002</ele><time>2026-05-02T10:30:27.288Z</time></trkpt><trkpt lat="42.1986867" lon="13.748005"><ele>1038.2</ele><time>2026-05-02T10:30:28.288Z</time></trkpt><trkpt lat="42.198695" lon="13.7478633"><ele>1038.6000000000001</ele><time>2026-05-02T10:30:29.288Z</time></trkpt><trkpt lat="42.1987" lon="13.747715"><ele>1039.0</ele><time>2026-05-02T10:30:30.288Z</time></trkpt><trkpt lat="42.1986983" lon="13.7475683"><ele>1040.1666666666665</ele><time>2026-05-02T10:30:31.288Z</time></trkpt><trkpt lat="42.1986967" lon="13.74743"><ele>1041.3333333333333</ele><time>2026-05-02T10:30:32.288Z</time></trkpt><trkpt lat="42.1987" lon="13.74732"><ele>1042.5</ele><time>2026-05-02T10:30:33.288Z</time></trkpt><trkpt lat="42.1987017" lon="13.7472333"><ele>1043.6666666666667</ele><time>2026-05-02T10:30:34.288Z</time></trkpt><trkpt lat="42.1987283" lon="13.7470733"><ele>1044.8333333333335</ele><time>2026-05-02T10:30:36.288Z</time></trkpt><trkpt lat="42.1987533" lon="13.7469817"><ele>1046.0</ele><time>2026-05-02T10:30:37.288Z</time></trkpt><trkpt lat="42.19878" lon="13.7468867"><ele>1047.1666666666667</ele><time>2026-05-02T10:30:38.288Z</time></trkpt><trkpt lat="42.1988033" lon="13.7467867"><ele>1048.3333333333335</ele><time>2026-05-02T10:30:39.288Z</time></trkpt><trkpt lat="42.1988133" lon="13.74668"><ele>1049.5</ele><time>2026-05-02T10:30:40.288Z</time></trkpt><trkpt lat="42.19882" lon="13.7465683"><ele>1050.6666666666667</ele><time>2026-05-02T10:30:41.288Z</time></trkpt><trkpt lat="42.19882" lon="13.7464517"><ele>1051.8333333333333</ele><time>2026-05-02T10:30:42.289Z</time></trkpt><trkpt lat="42.1988267" lon="13.7463383"><ele>1053.0</ele><time>2026-05-02T10:30:43.288Z</time></trkpt><trkpt lat="42.1988317" lon="13.746225"><ele>1053.0</ele><time>2026-05-02T10:30:44.288Z</time></trkpt><trkpt lat="42.1988483" lon="13.746115"><ele>1053.0</ele><time>2026-05-02T10:30:45.288Z</time></trkpt><trkpt lat="42.1988717" lon="13.7460033"><ele>1053.0</ele><time>2026-05-02T10:30:46.288Z</time></trkpt><trkpt lat="42.1989083" lon="13.7458867"><ele>1053.0</ele><time>2026-05-02T10:30:47.288Z</time></trkpt><trkpt lat="42.1989383" lon="13.7457683"><ele>1053.0</ele><time>2026-05-02T10:30:48.288Z</time></trkpt><trkpt lat="42.198965" lon="13.745645"><ele>1053.6666666666667</ele><time>2026-05-02T10:30:49.289Z</time></trkpt><trkpt lat="42.1989917" lon="13.74554"><ele>1054.3333333333333</ele><time>2026-05-02T10:30:50.288Z</time></trkpt><trkpt lat="42.19902" lon="13.7454483"><ele>1055.0</ele><time>2026-05-02T10:30:51.288Z</time></trkpt><trkpt lat="42.199055" lon="13.7453583"><ele>1055.6666666666665</ele><time>2026-05-02T10:30:52.288Z</time></trkpt><trkpt lat="42.19911" lon="13.74528"><ele>1056.3333333333333</ele><time>2026-05-02T10:30:53.288Z</time></trkpt><trkpt lat="42.1991633" lon="13.74521"><ele>1057.0</ele><time>2026-05-02T10:30:54.289Z</time></trkpt><trkpt lat="42.1992117" lon="13.7451467"><ele>1057.3333333333333</ele><time>2026-05-02T10:30:55.289Z</time></trkpt><trkpt lat="42.1992517" lon="13.7450733"><ele>1057.6666666666665</ele><time>2026-05-02T10:30:56.288Z</time></trkpt><trkpt lat="42.19929" lon="13.7449933"><ele>1058.0</ele><time>2026-05-02T10:30:57.288Z</time></trkpt><trkpt lat="42.1993283" lon="13.7449067"><ele>1058.3333333333333</ele><time>2026-05-02T10:30:58.288Z</time></trkpt><trkpt lat="42.1993633" lon="13.7448233"><ele>1058.6666666666667</ele><time>2026-05-02T10:30:59.288Z</time></trkpt><trkpt lat="42.19941" lon="13.7446733"><ele>1059.0</ele><time>2026-05-02T10:31:01.288Z</time></trkpt><trkpt lat="42.1994567" lon="13.7445333"><ele>1059.0</ele><time>2026-05-02T10:31:03.288Z</time></trkpt><trkpt lat="42.199525" lon="13.7444183"><ele>1059.0</ele><time>2026-05-02T10:31:05.288Z</time></trkpt><trkpt lat="42.1996083" lon="13.7443267"><ele>1059.0</ele><time>2026-05-02T10:31:07.288Z</time></trkpt><trkpt lat="42.199715" lon="13.7442617"><ele>1059.0</ele><time>2026-05-02T10:31:09.288Z</time></trkpt><trkpt lat="42.199815" lon="13.7442067"><ele>1059.0</ele><time>2026-05-02T10:31:11.288Z</time></trkpt><trkpt lat="42.1999133" lon="13.7441467"><ele>1057.4</ele><time>2026-05-02T10:31:13.288Z</time></trkpt><trkpt lat="42.2000233" lon="13.7441"><ele>1055.8000000000002</ele><time>2026-05-02T10:31:15.288Z</time></trkpt><trkpt lat="42.200125" lon="13.7440433"><ele>1054.1999999999998</ele><time>2026-05-02T10:31:17.288Z</time></trkpt><trkpt lat="42.20021" lon="13.7439767"><ele>1052.6</ele><time>2026-05-02T10:31:19.288Z</time></trkpt><trkpt lat="42.200275" lon="13.743895"><ele>1051.0</ele><time>2026-05-02T10:31:21.288Z</time></trkpt><trkpt lat="42.2003317" lon="13.7437933"><ele>1051.0</ele><time>2026-05-02T10:31:23.288Z</time></trkpt><trkpt lat="42.2003767" lon="13.7436767"><ele>1051.0</ele><time>2026-05-02T10:31:25.288Z</time></trkpt><trkpt lat="42.20041" lon="13.7436033"><ele>1051.0</ele><time>2026-05-02T10:31:26.288Z</time></trkpt><trkpt lat="42.2004417" lon="13.7435267"><ele>1051.0</ele><time>2026-05-02T10:31:27.288Z</time></trkpt><trkpt lat="42.20048" lon="13.7434583"><ele>1051.0</ele><time>2026-05-02T10:31:28.289Z</time></trkpt><trkpt lat="42.200545" lon="13.74333"><ele>1051.0</ele><time>2026-05-02T10:31:30.288Z</time></trkpt><trkpt lat="42.2005933" lon="13.7432117"><ele>1052.0</ele><time>2026-05-02T10:31:32.288Z</time></trkpt><trkpt lat="42.2006533" lon="13.7430667"><ele>1053.0</ele><time>2026-05-02T10:31:34.289Z</time></trkpt><trkpt lat="42.2007033" lon="13.7429083"><ele>1054.0</ele><time>2026-05-02T10:31:36.288Z</time></trkpt><trkpt lat="42.20074" lon="13.7428383"><ele>1055.0</ele><time>2026-05-02T10:31:37.288Z</time></trkpt><trkpt lat="42.2007817" lon="13.7427733"><ele>1056.0</ele><time>2026-05-02T10:31:38.288Z</time></trkpt><trkpt lat="42.2008617" lon="13.7426683"><ele>1052.3999999999999</ele><time>2026-05-02T10:31:40.288Z</time></trkpt><trkpt lat="42.2009211" lon="13.7425771"><ele>1048.8</ele><time>2026-05-02T10:31:42.289Z</time></trkpt><trkpt lat="42.2009733" lon="13.74249"><ele>1045.1999999999998</ele><time>2026-05-02T10:32:25.288Z</time></trkpt><trkpt lat="42.2010533" lon="13.7423617"><ele>1041.6</ele><time>2026-05-02T10:32:27.288Z</time></trkpt><trkpt lat="42.2011117" lon="13.74228"><ele>1038.0</ele><time>2026-05-02T10:32:28.288Z</time></trkpt><trkpt lat="42.2011717" lon="13.7422017"><ele>1038.0</ele><time>2026-05-02T10:32:29.288Z</time></trkpt><trkpt lat="42.2012311" lon="13.7421234"><ele>1038.0</ele><time>2026-05-02T10:32:30.288Z</time></trkpt><trkpt lat="42.201296" lon="13.7420435"><ele>1038.0</ele><time>2026-05-02T10:32:31.288Z</time></trkpt><trkpt lat="42.201358" lon="13.7419677"><ele>1038.0</ele><time>2026-05-02T10:32:32.288Z</time></trkpt><trkpt lat="42.2014177" lon="13.7418997"><ele>1038.0</ele><time>2026-05-02T10:32:33.288Z</time></trkpt><trkpt lat="42.2014739" lon="13.7418342"><ele>1038.0</ele><time>2026-05-02T10:32:34.288Z</time></trkpt><trkpt lat="42.2015247" lon="13.741761"><ele>1035.6666666666667</ele><time>2026-05-02T10:32:35.288Z</time></trkpt><trkpt lat="42.2015735" lon="13.7416832"><ele>1033.3333333333333</ele><time>2026-05-02T10:32:36.289Z</time></trkpt><trkpt lat="42.2016204" lon="13.7416064"><ele>1031.0</ele><time>2026-05-02T10:32:37.289Z</time></trkpt><trkpt lat="42.201669" lon="13.7415313"><ele>1028.6666666666665</ele><time>2026-05-02T10:32:38.289Z</time></trkpt><trkpt lat="42.2017236" lon="13.7414568"><ele>1026.3333333333333</ele><time>2026-05-02T10:32:39.288Z</time></trkpt><trkpt lat="42.2017892" lon="13.741396"><ele>1024.0</ele><time>2026-05-02T10:32:40.288Z</time></trkpt><trkpt lat="42.2018659" lon="13.7413427"><ele>1023.9999999999999</ele><time>2026-05-02T10:32:41.289Z</time></trkpt><trkpt lat="42.2019409" lon="13.7413025"><ele>1024.0</ele><time>2026-05-02T10:32:42.288Z</time></trkpt><trkpt lat="42.2020172" lon="13.7412781"><ele>1024.0</ele><time>2026-05-02T10:32:43.288Z</time></trkpt><trkpt lat="42.2020961" lon="13.7412601"><ele>1024.0</ele><time>2026-05-02T10:32:44.288Z</time></trkpt><trkpt lat="42.2021843" lon="13.7412425"><ele>1023.9999999999999</ele><time>2026-05-02T10:32:45.288Z</time></trkpt><trkpt lat="42.2022825" lon="13.7412292"><ele>1024.0</ele><time>2026-05-02T10:32:46.288Z</time></trkpt><trkpt lat="42.2023886" lon="13.7412107"><ele>1019.0</ele><time>2026-05-02T10:32:47.288Z</time></trkpt><trkpt lat="42.2024983" lon="13.7411882"><ele>1014.0000000000001</ele><time>2026-05-02T10:32:48.288Z</time></trkpt><trkpt lat="42.2026045" lon="13.7411671"><ele>1009.0000000000001</ele><time>2026-05-02T10:32:49.288Z</time></trkpt><trkpt lat="42.2027005" lon="13.7411382"><ele>1004.0</ele><time>2026-05-02T10:32:50.288Z</time></trkpt><trkpt lat="42.2027871" lon="13.7411092"><ele>999.0</ele><time>2026-05-02T10:32:51.288Z</time></trkpt><trkpt lat="42.2028773" lon="13.7410703"><ele>1000.1666666666666</ele><time>2026-05-02T10:32:52.288Z</time></trkpt><trkpt lat="42.2029705" lon="13.7410358"><ele>1001.3333333333333</ele><time>2026-05-02T10:32:53.289Z</time></trkpt><trkpt lat="42.2030606" lon="13.7409977"><ele>1002.5</ele><time>2026-05-02T10:32:54.288Z</time></trkpt><trkpt lat="42.2031432" lon="13.7409729"><ele>1003.6666666666666</ele><time>2026-05-02T10:32:55.288Z</time></trkpt><trkpt lat="42.2032181" lon="13.7409576"><ele>1004.8333333333333</ele><time>2026-05-02T10:32:56.288Z</time></trkpt><trkpt lat="42.2032966" lon="13.7409352"><ele>1006.0</ele><time>2026-05-02T10:32:57.288Z</time></trkpt><trkpt lat="42.2033628" lon="13.7409155"><ele>1006.0</ele><time>2026-05-02T10:32:58.288Z</time></trkpt><trkpt lat="42.2034726" lon="13.7408717"><ele>1005.9999999999999</ele><time>2026-05-02T10:33:00.288Z</time></trkpt><trkpt lat="42.2035611" lon="13.7408062"><ele>1005.9999999999999</ele><time>2026-05-02T10:33:02.289Z</time></trkpt><trkpt lat="42.203635" lon="13.7407"><ele>1006.0</ele><time>2026-05-02T10:33:04.288Z</time></trkpt><trkpt lat="42.203685" lon="13.7406283"><ele>1006.0</ele><time>2026-05-02T10:33:05.288Z</time></trkpt><trkpt lat="42.2037333" lon="13.7405433"><ele>1005.9999999999999</ele><time>2026-05-02T10:33:06.289Z</time></trkpt><trkpt lat="42.20378" lon="13.7404617"><ele>1006.0</ele><time>2026-05-02T10:33:07.288Z</time></trkpt><trkpt lat="42.2038333" lon="13.7403633"><ele>1006.0</ele><time>2026-05-02T10:33:08.288Z</time></trkpt><trkpt lat="42.2038867" lon="13.74028"><ele>1006.0</ele><time>2026-05-02T10:33:09.288Z</time></trkpt><trkpt lat="42.2039333" lon="13.7402"><ele>1005.9999999999999</ele><time>2026-05-02T10:33:10.288Z</time></trkpt><trkpt lat="42.203985" lon="13.7401267"><ele>1006.0</ele><time>2026-05-02T10:33:11.288Z</time></trkpt><trkpt lat="42.2040483" lon="13.7400667"><ele>1004.9999999999999</ele><time>2026-05-02T10:33:12.289Z</time></trkpt><trkpt lat="42.2041117" lon="13.74002"><ele>1004.0</ele><time>2026-05-02T10:33:13.289Z</time></trkpt><trkpt lat="42.2041767" lon="13.7399717"><ele>1003.0</ele><time>2026-05-02T10:33:14.288Z</time></trkpt><trkpt lat="42.204245" lon="13.73991"><ele>1002.0</ele><time>2026-05-02T10:33:15.288Z</time></trkpt><trkpt lat="42.2043183" lon="13.7398383"><ele>1000.9999999999999</ele><time>2026-05-02T10:33:16.288Z</time></trkpt><trkpt lat="42.2043883" lon="13.7397683"><ele>1000.0</ele><time>2026-05-02T10:33:17.288Z</time></trkpt><trkpt lat="42.20445" lon="13.7397083"><ele>999.9999999999999</ele><time>2026-05-02T10:33:18.289Z</time></trkpt><trkpt lat="42.20452" lon="13.7396583"><ele>1000.0</ele><time>2026-05-02T10:33:19.288Z</time></trkpt><trkpt lat="42.204595" lon="13.739615"><ele>1000.0</ele><time>2026-05-02T10:33:20.288Z</time></trkpt><trkpt lat="42.2046767" lon="13.739585"><ele>1000.0</ele><time>2026-05-02T10:33:21.288Z</time></trkpt><trkpt lat="42.20475" lon="13.739565"><ele>999.9999999999999</ele><time>2026-05-02T10:33:22.288Z</time></trkpt><trkpt lat="42.2048233" lon="13.7395517"><ele>1000.0</ele><time>2026-05-02T10:33:23.288Z</time></trkpt><trkpt lat="42.2048883" lon="13.7395383"><ele>998.1666666666666</ele><time>2026-05-02T10:33:24.288Z</time></trkpt><trkpt lat="42.20495" lon="13.739505"><ele>996.3333333333333</ele><time>2026-05-02T10:33:25.288Z</time></trkpt><trkpt lat="42.205005" lon="13.73946"><ele>994.5</ele><time>2026-05-02T10:33:26.289Z</time></trkpt><trkpt lat="42.2051" lon="13.7393517"><ele>992.6666666666667</ele><time>2026-05-02T10:33:28.288Z</time></trkpt><trkpt lat="42.205135" lon="13.73928"><ele>990.8333333333334</ele><time>2026-05-02T10:33:29.288Z</time></trkpt><trkpt lat="42.20517" lon="13.7391967"><ele>989.0</ele><time>2026-05-02T10:33:30.288Z</time></trkpt><trkpt lat="42.205215" lon="13.7391117"><ele>989.0000000000001</ele><time>2026-05-02T10:33:31.288Z</time></trkpt><trkpt lat="42.205265" lon="13.7390483"><ele>989.0</ele><time>2026-05-02T10:33:32.288Z</time></trkpt><trkpt lat="42.2053217" lon="13.7390083"><ele>989.0</ele><time>2026-05-02T10:33:33.288Z</time></trkpt><trkpt lat="42.2053967" lon="13.73898"><ele>989.0</ele><time>2026-05-02T10:33:34.288Z</time></trkpt><trkpt lat="42.2054867" lon="13.7389617"><ele>989.0000000000001</ele><time>2026-05-02T10:33:35.288Z</time></trkpt><trkpt lat="42.20558" lon="13.7389433"><ele>989.0</ele><time>2026-05-02T10:33:36.288Z</time></trkpt><trkpt lat="42.20568" lon="13.7389217"><ele>987.8333333333334</ele><time>2026-05-02T10:33:37.288Z</time></trkpt><trkpt lat="42.2057717" lon="13.73889"><ele>986.6666666666667</ele><time>2026-05-02T10:33:38.288Z</time></trkpt><trkpt lat="42.2058533" lon="13.7388517"><ele>985.5</ele><time>2026-05-02T10:33:39.288Z</time></trkpt><trkpt lat="42.2059267" lon="13.7388117"><ele>984.3333333333333</ele><time>2026-05-02T10:33:40.288Z</time></trkpt><trkpt lat="42.2060033" lon="13.738765"><ele>983.1666666666666</ele><time>2026-05-02T10:33:41.288Z</time></trkpt><trkpt lat="42.2060867" lon="13.7387233"><ele>982.0</ele><time>2026-05-02T10:33:42.288Z</time></trkpt><trkpt lat="42.2061683" lon="13.73869"><ele>982.0</ele><time>2026-05-02T10:33:43.288Z</time></trkpt><trkpt lat="42.2062467" lon="13.7386883"><ele>982.0</ele><time>2026-05-02T10:33:44.288Z</time></trkpt><trkpt lat="42.2063333" lon="13.7387167"><ele>982.0</ele><time>2026-05-02T10:33:45.288Z</time></trkpt><trkpt lat="42.2064283" lon="13.73876"><ele>982.0</ele><time>2026-05-02T10:33:46.288Z</time></trkpt><trkpt lat="42.206525" lon="13.7387933"><ele>982.0</ele><time>2026-05-02T10:33:47.288Z</time></trkpt><trkpt lat="42.206625" lon="13.738805"><ele>981.9999999999999</ele><time>2026-05-02T10:33:48.288Z</time></trkpt><trkpt lat="42.2067217" lon="13.7388117"><ele>982.0</ele><time>2026-05-02T10:33:49.288Z</time></trkpt><trkpt lat="42.20682" lon="13.7388183"><ele>982.0</ele><time>2026-05-02T10:33:50.288Z</time></trkpt><trkpt lat="42.206905" lon="13.7388267"><ele>982.0</ele><time>2026-05-02T10:33:51.288Z</time></trkpt><trkpt lat="42.2069883" lon="13.738825"><ele>981.9999999999999</ele><time>2026-05-02T10:33:52.288Z</time></trkpt><trkpt lat="42.207065" lon="13.738825"><ele>982.0</ele><time>2026-05-02T10:33:53.288Z</time></trkpt><trkpt lat="42.2071367" lon="13.7388133"><ele>982.0</ele><time>2026-05-02T10:33:54.288Z</time></trkpt><trkpt lat="42.207215" lon="13.73878"><ele>982.0</ele><time>2026-05-02T10:33:55.288Z</time></trkpt><trkpt lat="42.2072933" lon="13.7387333"><ele>982.0</ele><time>2026-05-02T10:33:56.288Z</time></trkpt><trkpt lat="42.2073733" lon="13.73867"><ele>982.0</ele><time>2026-05-02T10:33:57.288Z</time></trkpt><trkpt lat="42.2074517" lon="13.7385967"><ele>982.0</ele><time>2026-05-02T10:33:58.288Z</time></trkpt><trkpt lat="42.2075217" lon="13.7385083"><ele>983.8333333333333</ele><time>2026-05-02T10:33:59.288Z</time></trkpt><trkpt lat="42.2075883" lon="13.738405"><ele>985.6666666666666</ele><time>2026-05-02T10:34:00.288Z</time></trkpt><trkpt lat="42.20765" lon="13.7382983"><ele>987.5</ele><time>2026-05-02T10:34:01.288Z</time></trkpt><trkpt lat="42.207705" lon="13.7382117"><ele>989.3333333333333</ele><time>2026-05-02T10:34:02.288Z</time></trkpt><trkpt lat="42.2077533" lon="13.7381317"><ele>991.1666666666666</ele><time>2026-05-02T10:34:03.289Z</time></trkpt><trkpt lat="42.2078117" lon="13.7380617"><ele>993.0</ele><time>2026-05-02T10:34:04.289Z</time></trkpt><trkpt lat="42.2078767" lon="13.7380017"><ele>993.0</ele><time>2026-05-02T10:34:05.288Z</time></trkpt><trkpt lat="42.2079483" lon="13.7379417"><ele>993.0</ele><time>2026-05-02T10:34:06.288Z</time></trkpt><trkpt lat="42.2080217" lon="13.737885"><ele>993.0</ele><time>2026-05-02T10:34:07.288Z</time></trkpt><trkpt lat="42.2080967" lon="13.73783"><ele>993.0</ele><time>2026-05-02T10:34:08.288Z</time></trkpt><trkpt lat="42.2081733" lon="13.7377733"><ele>993.0</ele><time>2026-05-02T10:34:09.288Z</time></trkpt><trkpt lat="42.2082517" lon="13.7377183"><ele>993.0</ele><time>2026-05-02T10:34:10.288Z</time></trkpt><trkpt lat="42.20832" lon="13.737665"><ele>993.6666666666666</ele><time>2026-05-02T10:34:11.288Z</time></trkpt><trkpt lat="42.2083817" lon="13.73762"><ele>994.3333333333333</ele><time>2026-05-02T10:34:12.288Z</time></trkpt><trkpt lat="42.2084617" lon="13.7375783"><ele>995.0</ele><time>2026-05-02T10:34:13.288Z</time></trkpt><trkpt lat="42.2085533" lon="13.7375333"><ele>995.6666666666666</ele><time>2026-05-02T10:34:14.288Z</time></trkpt><trkpt lat="42.208635" lon="13.7374817"><ele>996.3333333333333</ele><time>2026-05-02T10:34:15.288Z</time></trkpt><trkpt lat="42.2087283" lon="13.7374367"><ele>997.0</ele><time>2026-05-02T10:34:16.289Z</time></trkpt><trkpt lat="42.2088383" lon="13.7373983"><ele>997.0</ele><time>2026-05-02T10:34:17.288Z</time></trkpt><trkpt lat="42.20893" lon="13.737355"><ele>997.0</ele><time>2026-05-02T10:34:18.288Z</time></trkpt><trkpt lat="42.20902" lon="13.73731"><ele>997.0</ele><time>2026-05-02T10:34:19.288Z</time></trkpt><trkpt lat="42.2091233" lon="13.737265"><ele>997.0</ele><time>2026-05-02T10:34:20.288Z</time></trkpt><trkpt lat="42.2092083" lon="13.73723"><ele>997.0</ele><time>2026-05-02T10:34:21.288Z</time></trkpt><trkpt lat="42.2092867" lon="13.737195"><ele>998.3333333333333</ele><time>2026-05-02T10:34:22.288Z</time></trkpt><trkpt lat="42.2093617" lon="13.7371583"><ele>999.6666666666666</ele><time>2026-05-02T10:34:23.288Z</time></trkpt><trkpt lat="42.2094233" lon="13.737125"><ele>1001.0</ele><time>2026-05-02T10:34:24.288Z</time></trkpt><trkpt lat="42.2095283" lon="13.7370717"><ele>1002.3333333333333</ele><time>2026-05-02T10:34:26.288Z</time></trkpt><trkpt lat="42.209595" lon="13.7370133"><ele>1003.6666666666666</ele><time>2026-05-02T10:34:28.288Z</time></trkpt><trkpt lat="42.2096383" lon="13.7369483"><ele>1005.0</ele><time>2026-05-02T10:34:29.288Z</time></trkpt><trkpt lat="42.2096867" lon="13.7368733"><ele>1005.0</ele><time>2026-05-02T10:34:30.288Z</time></trkpt><trkpt lat="42.209745" lon="13.7368"><ele>1005.0</ele><time>2026-05-02T10:34:31.288Z</time></trkpt><trkpt lat="42.209805" lon="13.73673"><ele>1005.0</ele><time>2026-05-02T10:34:32.288Z</time></trkpt><trkpt lat="42.2098667" lon="13.7366683"><ele>1005.0</ele><time>2026-05-02T10:34:33.288Z</time></trkpt><trkpt lat="42.209925" lon="13.736605"><ele>1005.0</ele><time>2026-05-02T10:34:34.286Z</time></trkpt><trkpt lat="42.20999" lon="13.7365433"><ele>1005.0</ele><time>2026-05-02T10:34:35.288Z</time></trkpt><trkpt lat="42.210045" lon="13.736485"><ele>1001.5</ele><time>2026-05-02T10:34:36.288Z</time></trkpt><trkpt lat="42.2101033" lon="13.736435"><ele>998.0</ele><time>2026-05-02T10:34:37.288Z</time></trkpt><trkpt lat="42.2101667" lon="13.7363683"><ele>994.5</ele><time>2026-05-02T10:34:38.288Z</time></trkpt><trkpt lat="42.2102367" lon="13.7363167"><ele>991.0</ele><time>2026-05-02T10:34:39.288Z</time></trkpt><trkpt lat="42.2102917" lon="13.7362733"><ele>987.5</ele><time>2026-05-02T10:34:40.288Z</time></trkpt><trkpt lat="42.2103867" lon="13.7362233"><ele>984.0</ele><time>2026-05-02T10:34:42.288Z</time></trkpt><trkpt lat="42.2104033" lon="13.73614"><ele>984.0</ele><time>2026-05-02T10:34:46.288Z</time></trkpt><trkpt lat="42.2103031" lon="13.7360732"><ele>984.0</ele><time>2026-05-02T10:34:53.288Z</time></trkpt><trkpt lat="42.2102403" lon="13.7360345"><ele>984.0</ele><time>2026-05-02T10:34:54.288Z</time></trkpt><trkpt lat="42.2101737" lon="13.7359997"><ele>984.0</ele><time>2026-05-02T10:34:55.288Z</time></trkpt><trkpt lat="42.2101112" lon="13.7359615"><ele>984.0</ele><time>2026-05-02T10:34:56.288Z</time></trkpt><trkpt lat="42.2100525" lon="13.7359233"><ele>984.0</ele><time>2026-05-02T10:34:57.289Z</time></trkpt><trkpt lat="42.2099503" lon="13.7358526"><ele>985.1666666666666</ele><time>2026-05-02T10:34:59.288Z</time></trkpt><trkpt lat="42.2098462" lon="13.7357598"><ele>986.3333333333333</ele><time>2026-05-02T10:35:01.288Z</time></trkpt><trkpt lat="42.209792" lon="13.7357099"><ele>987.5</ele><time>2026-05-02T10:35:02.288Z</time></trkpt><trkpt lat="42.2097365" lon="13.7356574"><ele>988.6666666666666</ele><time>2026-05-02T10:35:03.288Z</time></trkpt><trkpt lat="42.2096777" lon="13.7355963"><ele>989.8333333333333</ele><time>2026-05-02T10:35:04.288Z</time></trkpt><trkpt lat="42.2096185" lon="13.7355273"><ele>991.0</ele><time>2026-05-02T10:35:05.288Z</time></trkpt><trkpt lat="42.2095602" lon="13.7354548"><ele>993.2857142857144</ele><time>2026-05-02T10:35:06.288Z</time></trkpt><trkpt lat="42.2095146" lon="13.7353712"><ele>995.5714285714287</ele><time>2026-05-02T10:35:07.288Z</time></trkpt><trkpt lat="42.2094681" lon="13.7352957"><ele>997.8571428571429</ele><time>2026-05-02T10:35:08.288Z</time></trkpt><trkpt lat="42.2094226" lon="13.735224"><ele>1000.1428571428572</ele><time>2026-05-02T10:35:09.289Z</time></trkpt><trkpt lat="42.2093765" lon="13.735162"><ele>1002.4285714285716</ele><time>2026-05-02T10:35:10.288Z</time></trkpt><trkpt lat="42.2093192" lon="13.7351192"><ele>1004.7142857142857</ele><time>2026-05-02T10:35:11.288Z</time></trkpt><trkpt lat="42.2092544" lon="13.7350851"><ele>1007.0</ele><time>2026-05-02T10:35:12.289Z</time></trkpt><trkpt lat="42.2091819" lon="13.7350647"><ele>1007.0</ele><time>2026-05-02T10:35:13.289Z</time></trkpt><trkpt lat="42.2091046" lon="13.7350501"><ele>1007.0</ele><time>2026-05-02T10:35:14.288Z</time></trkpt><trkpt lat="42.2090176" lon="13.7350405"><ele>1007.0</ele><time>2026-05-02T10:35:15.288Z</time></trkpt><trkpt lat="42.2089149" lon="13.7350287"><ele>1007.0</ele><time>2026-05-02T10:35:16.288Z</time></trkpt><trkpt lat="42.2088112" lon="13.7350286"><ele>1007.0</ele><time>2026-05-02T10:35:17.288Z</time></trkpt><trkpt lat="42.2087085" lon="13.7350373"><ele>1010.8</ele><time>2026-05-02T10:35:18.288Z</time></trkpt><trkpt lat="42.2086031" lon="13.7350585"><ele>1014.6</ele><time>2026-05-02T10:35:19.288Z</time></trkpt><trkpt lat="42.2084861" lon="13.7351001"><ele>1018.3999999999999</ele><time>2026-05-02T10:35:20.288Z</time></trkpt><trkpt lat="42.2083882" lon="13.7351509"><ele>1022.1999999999999</ele><time>2026-05-02T10:35:21.288Z</time></trkpt><trkpt lat="42.2083058" lon="13.7352141"><ele>1026.0</ele><time>2026-05-02T10:35:22.288Z</time></trkpt><trkpt lat="42.208232" lon="13.7352902"><ele>1026.0</ele><time>2026-05-02T10:35:23.288Z</time></trkpt><trkpt lat="42.208169" lon="13.7353779"><ele>1026.0</ele><time>2026-05-02T10:35:24.289Z</time></trkpt><trkpt lat="42.2081165" lon="13.7354744"><ele>1026.0</ele><time>2026-05-02T10:35:25.288Z</time></trkpt><trkpt lat="42.2080742" lon="13.7355808"><ele>1026.0</ele><time>2026-05-02T10:35:26.288Z</time></trkpt><trkpt lat="42.2080377" lon="13.7356956"><ele>1026.0</ele><time>2026-05-02T10:35:27.288Z</time></trkpt><trkpt lat="42.208" lon="13.7358069"><ele>1028.3333333333333</ele><time>2026-05-02T10:35:28.288Z</time></trkpt><trkpt lat="42.2079667" lon="13.7359046"><ele>1030.6666666666667</ele><time>2026-05-02T10:35:29.288Z</time></trkpt><trkpt lat="42.2079301" lon="13.7359968"><ele>1033.0</ele><time>2026-05-02T10:35:30.288Z</time></trkpt><trkpt lat="42.2078908" lon="13.7360875"><ele>1035.3333333333335</ele><time>2026-05-02T10:35:31.288Z</time></trkpt><trkpt lat="42.2078439" lon="13.7361778"><ele>1037.6666666666667</ele><time>2026-05-02T10:35:32.288Z</time></trkpt><trkpt lat="42.20779" lon="13.7362733"><ele>1040.0</ele><time>2026-05-02T10:35:33.288Z</time></trkpt><trkpt lat="42.2077267" lon="13.7363717"><ele>1040.0</ele><time>2026-05-02T10:35:34.289Z</time></trkpt><trkpt lat="42.207665" lon="13.736475"><ele>1040.0</ele><time>2026-05-02T10:35:35.288Z</time></trkpt><trkpt lat="42.2076017" lon="13.73657"><ele>1040.0</ele><time>2026-05-02T10:35:36.288Z</time></trkpt><trkpt lat="42.2075433" lon="13.7366567"><ele>1040.0</ele><time>2026-05-02T10:35:37.288Z</time></trkpt><trkpt lat="42.2074917" lon="13.736735"><ele>1040.0</ele><time>2026-05-02T10:35:38.288Z</time></trkpt><trkpt lat="42.2074033" lon="13.7368317"><ele>1040.0</ele><time>2026-05-02T10:35:40.288Z</time></trkpt><trkpt lat="42.2073383" lon="13.736835"><ele>1040.0</ele><time>2026-05-02T10:36:33.288Z</time></trkpt><trkpt lat="42.2072717" lon="13.7368917"><ele>1040.0</ele><time>2026-05-02T10:36:35.288Z</time></trkpt><trkpt lat="42.2071833" lon="13.7369267"><ele>1040.0</ele><time>2026-05-02T10:36:37.288Z</time></trkpt><trkpt lat="42.2070983" lon="13.7369283"><ele>1040.0</ele><time>2026-05-02T10:36:39.288Z</time></trkpt><trkpt lat="42.2070317" lon="13.7368717"><ele>1040.0</ele><time>2026-05-02T10:36:41.288Z</time></trkpt><trkpt lat="42.206985" lon="13.73674"><ele>1040.2</ele><time>2026-05-02T10:36:43.288Z</time></trkpt><trkpt lat="42.2069567" lon="13.7365833"><ele>1040.4</ele><time>2026-05-02T10:36:45.288Z</time></trkpt><trkpt lat="42.20693" lon="13.7364833"><ele>1040.6</ele><time>2026-05-02T10:36:46.288Z</time></trkpt><trkpt lat="42.2069117" lon="13.736375"><ele>1040.8</ele><time>2026-05-02T10:36:47.288Z</time></trkpt><trkpt lat="42.206875" lon="13.7362683"><ele>1041.0</ele><time>2026-05-02T10:36:48.288Z</time></trkpt><trkpt lat="42.206845" lon="13.73616"><ele>1043.0</ele><time>2026-05-02T10:36:49.288Z</time></trkpt><trkpt lat="42.20682" lon="13.7360517"><ele>1045.0</ele><time>2026-05-02T10:36:50.289Z</time></trkpt><trkpt lat="42.206805" lon="13.7359367"><ele>1047.0</ele><time>2026-05-02T10:36:51.288Z</time></trkpt><trkpt lat="42.2067967" lon="13.7358233"><ele>1049.0</ele><time>2026-05-02T10:36:52.288Z</time></trkpt><trkpt lat="42.2068033" lon="13.735715"><ele>1051.0</ele><time>2026-05-02T10:36:53.288Z</time></trkpt><trkpt lat="42.206805" lon="13.7356167"><ele>1053.0</ele><time>2026-05-02T10:36:54.289Z</time></trkpt><trkpt lat="42.2067733" lon="13.735435"><ele>1053.0</ele><time>2026-05-02T10:36:56.288Z</time></trkpt><trkpt lat="42.2067367" lon="13.7353367"><ele>1053.0</ele><time>2026-05-02T10:36:57.288Z</time></trkpt><trkpt lat="42.2066867" lon="13.7352383"><ele>1053.0</ele><time>2026-05-02T10:36:58.288Z</time></trkpt><trkpt lat="42.2066417" lon="13.7351383"><ele>1053.0</ele><time>2026-05-02T10:36:59.288Z</time></trkpt><trkpt lat="42.2066117" lon="13.7350333"><ele>1053.0</ele><time>2026-05-02T10:37:00.288Z</time></trkpt><trkpt lat="42.20659" lon="13.7349233"><ele>1053.0</ele><time>2026-05-02T10:37:01.288Z</time></trkpt><trkpt lat="42.2065717" lon="13.7348067"><ele>1055.4</ele><time>2026-05-02T10:37:02.288Z</time></trkpt><trkpt lat="42.206555" lon="13.7346933"><ele>1057.8</ele><time>2026-05-02T10:37:03.288Z</time></trkpt><trkpt lat="42.2065467" lon="13.734575"><ele>1060.2</ele><time>2026-05-02T10:37:04.288Z</time></trkpt><trkpt lat="42.2065517" lon="13.7344517"><ele>1062.6</ele><time>2026-05-02T10:37:05.288Z</time></trkpt><trkpt lat="42.2065583" lon="13.7343233"><ele>1065.0</ele><time>2026-05-02T10:37:06.288Z</time></trkpt><trkpt lat="42.2065733" lon="13.7341867"><ele>1066.4</ele><time>2026-05-02T10:37:07.288Z</time></trkpt><trkpt lat="42.206595" lon="13.7340433"><ele>1067.8</ele><time>2026-05-02T10:37:08.288Z</time></trkpt><trkpt lat="42.2066167" lon="13.7339117"><ele>1069.2</ele><time>2026-05-02T10:37:09.288Z</time></trkpt><trkpt lat="42.2066317" lon="13.7337833"><ele>1070.6</ele><time>2026-05-02T10:37:10.288Z</time></trkpt><trkpt lat="42.2066383" lon="13.733655"><ele>1072.0</ele><time>2026-05-02T10:37:11.288Z</time></trkpt><trkpt lat="42.20663" lon="13.73352"><ele>1073.3333333333333</ele><time>2026-05-02T10:37:12.288Z</time></trkpt><trkpt lat="42.2066067" lon="13.7333883"><ele>1074.6666666666665</ele><time>2026-05-02T10:37:13.288Z</time></trkpt><trkpt lat="42.2065817" lon="13.7332667"><ele>1076.0</ele><time>2026-05-02T10:37:14.288Z</time></trkpt><trkpt lat="42.20655" lon="13.7331583"><ele>1077.3333333333333</ele><time>2026-05-02T10:37:15.288Z</time></trkpt><trkpt lat="42.2065167" lon="13.7330567"><ele>1078.6666666666667</ele><time>2026-05-02T10:37:16.288Z</time></trkpt><trkpt lat="42.2064783" lon="13.7329517"><ele>1080.0</ele><time>2026-05-02T10:37:17.288Z</time></trkpt><trkpt lat="42.2064333" lon="13.7328467"><ele>1081.142857142857</ele><time>2026-05-02T10:37:18.288Z</time></trkpt><trkpt lat="42.2063833" lon="13.7327483"><ele>1082.2857142857142</ele><time>2026-05-02T10:37:19.288Z</time></trkpt><trkpt lat="42.2063333" lon="13.7326733"><ele>1083.4285714285713</ele><time>2026-05-02T10:37:20.289Z</time></trkpt><trkpt lat="42.2062767" lon="13.732605"><ele>1084.5714285714284</ele><time>2026-05-02T10:37:21.288Z</time></trkpt><trkpt lat="42.206225" lon="13.73254"><ele>1085.7142857142858</ele><time>2026-05-02T10:37:22.288Z</time></trkpt><trkpt lat="42.20618" lon="13.7324733"><ele>1086.8571428571427</ele><time>2026-05-02T10:37:23.288Z</time></trkpt><trkpt lat="42.20614" lon="13.7323983"><ele>1088.0</ele><time>2026-05-02T10:37:24.288Z</time></trkpt><trkpt lat="42.2061183" lon="13.7323033"><ele>1089.1666666666667</ele><time>2026-05-02T10:37:25.288Z</time></trkpt><trkpt lat="42.2061083" lon="13.73219"><ele>1090.3333333333335</ele><time>2026-05-02T10:37:26.288Z</time></trkpt><trkpt lat="42.2061017" lon="13.7320633"><ele>1091.5</ele><time>2026-05-02T10:37:27.288Z</time></trkpt><trkpt lat="42.2060933" lon="13.731945"><ele>1092.6666666666667</ele><time>2026-05-02T10:37:28.288Z</time></trkpt><trkpt lat="42.20609" lon="13.73183"><ele>1093.8333333333333</ele><time>2026-05-02T10:37:29.288Z</time></trkpt><trkpt lat="42.2060867" lon="13.7317133"><ele>1095.0</ele><time>2026-05-02T10:37:30.289Z</time></trkpt><trkpt lat="42.2060767" lon="13.7315983"><ele>1097.1666666666667</ele><time>2026-05-02T10:37:31.288Z</time></trkpt><trkpt lat="42.20606" lon="13.73149"><ele>1099.3333333333333</ele><time>2026-05-02T10:37:32.288Z</time></trkpt><trkpt lat="42.20604" lon="13.731385"><ele>1101.5</ele><time>2026-05-02T10:37:33.288Z</time></trkpt><trkpt lat="42.20601" lon="13.73128"><ele>1103.6666666666665</ele><time>2026-05-02T10:37:34.288Z</time></trkpt><trkpt lat="42.205975" lon="13.7311817"><ele>1105.8333333333333</ele><time>2026-05-02T10:37:35.289Z</time></trkpt><trkpt lat="42.20594" lon="13.7310917"><ele>1108.0</ele><time>2026-05-02T10:37:36.288Z</time></trkpt><trkpt lat="42.2059" lon="13.7309933"><ele>1110.2</ele><time>2026-05-02T10:37:37.288Z</time></trkpt><trkpt lat="42.205855" lon="13.7309067"><ele>1112.4</ele><time>2026-05-02T10:37:38.288Z</time></trkpt><trkpt lat="42.2058167" lon="13.7308267"><ele>1114.6000000000001</ele><time>2026-05-02T10:37:39.288Z</time></trkpt><trkpt lat="42.2057683" lon="13.7307083"><ele>1116.8</ele><time>2026-05-02T10:37:41.289Z</time></trkpt><trkpt lat="42.2057217" lon="13.7305683"><ele>1119.0</ele><time>2026-05-02T10:37:43.289Z</time></trkpt><trkpt lat="42.2057" lon="13.7304317"><ele>1121.0</ele><time>2026-05-02T10:37:45.288Z</time></trkpt><trkpt lat="42.2056467" lon="13.73033"><ele>1123.0</ele><time>2026-05-02T10:37:47.288Z</time></trkpt><trkpt lat="42.2055783" lon="13.7302133"><ele>1125.0</ele><time>2026-05-02T10:37:49.288Z</time></trkpt><trkpt lat="42.2055567" lon="13.73013"><ele>1127.0</ele><time>2026-05-02T10:37:50.288Z</time></trkpt><trkpt lat="42.205525" lon="13.7300367"><ele>1129.0</ele><time>2026-05-02T10:37:51.289Z</time></trkpt><trkpt lat="42.2055017" lon="13.729945"><ele>1131.0</ele><time>2026-05-02T10:37:52.288Z</time></trkpt><trkpt lat="42.205425" lon="13.7298067"><ele>1131.2</ele><time>2026-05-02T10:37:54.288Z</time></trkpt><trkpt lat="42.2053683" lon="13.7297117"><ele>1131.3999999999999</ele><time>2026-05-02T10:37:55.288Z</time></trkpt><trkpt lat="42.205305" lon="13.729595"><ele>1131.6</ele><time>2026-05-02T10:37:56.288Z</time></trkpt><trkpt lat="42.2052433" lon="13.7294917"><ele>1131.8</ele><time>2026-05-02T10:37:57.288Z</time></trkpt><trkpt lat="42.2051883" lon="13.7293833"><ele>1132.0</ele><time>2026-05-02T10:37:58.288Z</time></trkpt><trkpt lat="42.2051317" lon="13.7292867"><ele>1131.5714285714287</ele><time>2026-05-02T10:37:59.288Z</time></trkpt><trkpt lat="42.2050717" lon="13.7292067"><ele>1131.1428571428573</ele><time>2026-05-02T10:38:00.288Z</time></trkpt><trkpt lat="42.2050133" lon="13.7291367"><ele>1130.7142857142858</ele><time>2026-05-02T10:38:01.288Z</time></trkpt><trkpt lat="42.2049583" lon="13.7290783"><ele>1130.2857142857142</ele><time>2026-05-02T10:38:02.288Z</time></trkpt><trkpt lat="42.2049133" lon="13.7290133"><ele>1129.8571428571427</ele><time>2026-05-02T10:38:03.288Z</time></trkpt><trkpt lat="42.20487" lon="13.7289417"><ele>1129.4285714285713</ele><time>2026-05-02T10:38:05.288Z</time></trkpt><trkpt lat="42.2047967" lon="13.72894"><ele>1129.0</ele><time>2026-05-02T10:38:11.288Z</time></trkpt><trkpt lat="42.2047333" lon="13.7289267"><ele>1130.2</ele><time>2026-05-02T10:38:13.289Z</time></trkpt><trkpt lat="42.2046483" lon="13.7288933"><ele>1131.4</ele><time>2026-05-02T10:38:15.288Z</time></trkpt><trkpt lat="42.20453" lon="13.728835"><ele>1132.6</ele><time>2026-05-02T10:38:17.288Z</time></trkpt><trkpt lat="42.2044599" lon="13.7287996"><ele>1133.8</ele><time>2026-05-02T10:38:18.288Z</time></trkpt><trkpt lat="42.2043938" lon="13.7287654"><ele>1135.0</ele><time>2026-05-02T10:38:19.288Z</time></trkpt><trkpt lat="42.2042868" lon="13.7287016"><ele>1135.0</ele><time>2026-05-02T10:38:21.288Z</time></trkpt><trkpt lat="42.2041878" lon="13.7286129"><ele>1135.0</ele><time>2026-05-02T10:38:23.288Z</time></trkpt><trkpt lat="42.2040903" lon="13.7285349"><ele>1135.0</ele><time>2026-05-02T10:38:25.288Z</time></trkpt><trkpt lat="42.2040324" lon="13.7284902"><ele>1135.0</ele><time>2026-05-02T10:38:26.288Z</time></trkpt><trkpt lat="42.2039767" lon="13.7284494"><ele>1135.0</ele><time>2026-05-02T10:38:27.288Z</time></trkpt><trkpt lat="42.2038595" lon="13.7283816"><ele>1134.3333333333333</ele><time>2026-05-02T10:38:29.288Z</time></trkpt><trkpt lat="42.2037907" lon="13.7283722"><ele>1133.6666666666665</ele><time>2026-05-02T10:38:30.288Z</time></trkpt><trkpt lat="42.2037126" lon="13.7283877"><ele>1133.0</ele><time>2026-05-02T10:38:31.288Z</time></trkpt><trkpt lat="42.2036273" lon="13.7284172"><ele>1132.3333333333333</ele><time>2026-05-02T10:38:32.289Z</time></trkpt><trkpt lat="42.2035351" lon="13.7284526"><ele>1131.6666666666667</ele><time>2026-05-02T10:38:33.289Z</time></trkpt><trkpt lat="42.2034407" lon="13.7284834"><ele>1131.0</ele><time>2026-05-02T10:38:34.288Z</time></trkpt><trkpt lat="42.2033682" lon="13.7285099"><ele>1131.0</ele><time>2026-05-02T10:38:35.288Z</time></trkpt><trkpt lat="42.2032978" lon="13.7285369"><ele>1131.0</ele><time>2026-05-02T10:38:36.288Z</time></trkpt><trkpt lat="42.2032292" lon="13.7285584"><ele>1131.0</ele><time>2026-05-02T10:38:37.288Z</time></trkpt><trkpt lat="42.203156" lon="13.7285741"><ele>1131.0</ele><time>2026-05-02T10:38:38.289Z</time></trkpt><trkpt lat="42.2030698" lon="13.728572"><ele>1131.0</ele><time>2026-05-02T10:38:39.288Z</time></trkpt><trkpt lat="42.2029636" lon="13.7285653"><ele>1131.0</ele><time>2026-05-02T10:38:40.288Z</time></trkpt><trkpt lat="42.2028501" lon="13.728568"><ele>1133.0</ele><time>2026-05-02T10:38:41.288Z</time></trkpt><trkpt lat="42.2027411" lon="13.7285753"><ele>1135.0</ele><time>2026-05-02T10:38:42.289Z</time></trkpt><trkpt lat="42.2026383" lon="13.7285843"><ele>1137.0</ele><time>2026-05-02T10:38:43.288Z</time></trkpt><trkpt lat="42.2025326" lon="13.7285959"><ele>1139.0</ele><time>2026-05-02T10:38:44.288Z</time></trkpt><trkpt lat="42.2024252" lon="13.7286104"><ele>1141.0</ele><time>2026-05-02T10:38:45.288Z</time></trkpt><trkpt lat="42.2023238" lon="13.7286123"><ele>1141.3999999999999</ele><time>2026-05-02T10:38:46.288Z</time></trkpt><trkpt lat="42.2022247" lon="13.7285942"><ele>1141.8</ele><time>2026-05-02T10:38:47.288Z</time></trkpt><trkpt lat="42.20213" lon="13.7285555"><ele>1142.1999999999998</ele><time>2026-05-02T10:38:48.288Z</time></trkpt><trkpt lat="42.2020386" lon="13.7285123"><ele>1142.6</ele><time>2026-05-02T10:38:49.288Z</time></trkpt><trkpt lat="42.2019529" lon="13.7284783"><ele>1143.0</ele><time>2026-05-02T10:38:50.288Z</time></trkpt><trkpt lat="42.2018667" lon="13.728459"><ele>1142.0</ele><time>2026-05-02T10:38:51.288Z</time></trkpt><trkpt lat="42.2017776" lon="13.7284561"><ele>1141.0</ele><time>2026-05-02T10:38:52.288Z</time></trkpt><trkpt lat="42.2016916" lon="13.7284724"><ele>1140.0</ele><time>2026-05-02T10:38:53.289Z</time></trkpt><trkpt lat="42.2016112" lon="13.7284933"><ele>1139.0</ele><time>2026-05-02T10:38:54.288Z</time></trkpt><trkpt lat="42.2015331" lon="13.7285081"><ele>1138.0</ele><time>2026-05-02T10:38:55.288Z</time></trkpt><trkpt lat="42.2014635" lon="13.7285172"><ele>1137.0</ele><time>2026-05-02T10:38:56.288Z</time></trkpt><trkpt lat="42.2013991" lon="13.7285283"><ele>1137.8</ele><time>2026-05-02T10:38:57.288Z</time></trkpt><trkpt lat="42.2012834" lon="13.7285449"><ele>1138.6</ele><time>2026-05-02T10:38:59.288Z</time></trkpt><trkpt lat="42.2011783" lon="13.728559"><ele>1139.3999999999999</ele><time>2026-05-02T10:39:01.288Z</time></trkpt><trkpt lat="42.2010885" lon="13.7285699"><ele>1140.2</ele><time>2026-05-02T10:39:03.288Z</time></trkpt><trkpt lat="42.2009929" lon="13.7285655"><ele>1141.0</ele><time>2026-05-02T10:39:05.288Z</time></trkpt><trkpt lat="42.2008972" lon="13.7285575"><ele>1139.1666666666665</ele><time>2026-05-02T10:39:07.288Z</time></trkpt><trkpt lat="42.200789" lon="13.7285575"><ele>1137.3333333333333</ele><time>2026-05-02T10:39:09.288Z</time></trkpt><trkpt lat="42.200701" lon="13.7285439"><ele>1135.5</ele><time>2026-05-02T10:39:11.288Z</time></trkpt><trkpt lat="42.2006274" lon="13.7284922"><ele>1133.6666666666667</ele><time>2026-05-02T10:39:13.288Z</time></trkpt><trkpt lat="42.200565" lon="13.7284421"><ele>1131.8333333333335</ele><time>2026-05-02T10:39:15.288Z</time></trkpt><trkpt lat="42.2005041" lon="13.7284095"><ele>1130.0</ele><time>2026-05-02T10:39:17.345Z</time></trkpt><trkpt lat="42.2004388" lon="13.7283358"><ele>1128.6666666666667</ele><time>2026-05-02T10:39:19.288Z</time></trkpt><trkpt lat="42.2003881" lon="13.7282675"><ele>1127.3333333333335</ele><time>2026-05-02T10:39:20.288Z</time></trkpt><trkpt lat="42.200344" lon="13.7281861"><ele>1126.0</ele><time>2026-05-02T10:39:21.288Z</time></trkpt><trkpt lat="42.2003036" lon="13.7281003"><ele>1124.6666666666667</ele><time>2026-05-02T10:39:22.288Z</time></trkpt><trkpt lat="42.200266" lon="13.7280178"><ele>1123.3333333333333</ele><time>2026-05-02T10:39:23.288Z</time></trkpt><trkpt lat="42.2002325" lon="13.7279448"><ele>1122.0</ele><time>2026-05-02T10:39:24.288Z</time></trkpt><trkpt lat="42.200153" lon="13.7278197"><ele>1120.3333333333333</ele><time>2026-05-02T10:39:26.288Z</time></trkpt><trkpt lat="42.2000464" lon="13.7277146"><ele>1118.6666666666667</ele><time>2026-05-02T10:39:28.288Z</time></trkpt><trkpt lat="42.1999897" lon="13.7276631"><ele>1117.0</ele><time>2026-05-02T10:39:29.288Z</time></trkpt><trkpt lat="42.1999321" lon="13.7276106"><ele>1115.3333333333335</ele><time>2026-05-02T10:39:30.288Z</time></trkpt><trkpt lat="42.199877" lon="13.727559"><ele>1113.6666666666667</ele><time>2026-05-02T10:39:31.288Z</time></trkpt><trkpt lat="42.1998195" lon="13.7275124"><ele>1112.0</ele><time>2026-05-02T10:39:32.288Z</time></trkpt><trkpt lat="42.1997622" lon="13.727472"><ele>1111.3333333333335</ele><time>2026-05-02T10:39:33.288Z</time></trkpt><trkpt lat="42.1996555" lon="13.7274014"><ele>1110.6666666666667</ele><time>2026-05-02T10:39:35.288Z</time></trkpt><trkpt lat="42.1995665" lon="13.727302"><ele>1110.0</ele><time>2026-05-02T10:39:37.288Z</time></trkpt><trkpt lat="42.1995319" lon="13.7272289"><ele>1109.3333333333333</ele><time>2026-05-02T10:39:38.288Z</time></trkpt><trkpt lat="42.1994928" lon="13.7271531"><ele>1108.6666666666665</ele><time>2026-05-02T10:39:39.288Z</time></trkpt><trkpt lat="42.1994397" lon="13.7271025"><ele>1108.0</ele><time>2026-05-02T10:39:40.288Z</time></trkpt><trkpt lat="42.1993735" lon="13.7270648"><ele>1108.0</ele><time>2026-05-02T10:39:41.288Z</time></trkpt><trkpt lat="42.1993032" lon="13.7270323"><ele>1108.0</ele><time>2026-05-02T10:39:42.288Z</time></trkpt><trkpt lat="42.1992277" lon="13.7270045"><ele>1108.0</ele><time>2026-05-02T10:39:43.288Z</time></trkpt><trkpt lat="42.1991466" lon="13.7269944"><ele>1108.0</ele><time>2026-05-02T10:39:44.288Z</time></trkpt><trkpt lat="42.199069" lon="13.7269941"><ele>1108.0</ele><time>2026-05-02T10:39:45.288Z</time></trkpt><trkpt lat="42.1989605" lon="13.7270106"><ele>1108.0</ele><time>2026-05-02T10:39:47.288Z</time></trkpt><trkpt lat="42.1988751" lon="13.7270242"><ele>1107.6666666666665</ele><time>2026-05-02T10:39:49.288Z</time></trkpt><trkpt lat="42.1987699" lon="13.7270209"><ele>1107.3333333333333</ele><time>2026-05-02T10:39:51.288Z</time></trkpt><trkpt lat="42.1987033" lon="13.7269893"><ele>1107.0</ele><time>2026-05-02T10:39:52.288Z</time></trkpt><trkpt lat="42.1986257" lon="13.726935"><ele>1106.6666666666667</ele><time>2026-05-02T10:39:53.288Z</time></trkpt><trkpt lat="42.1985485" lon="13.7268764"><ele>1106.3333333333335</ele><time>2026-05-02T10:39:54.288Z</time></trkpt><trkpt lat="42.1984776" lon="13.7268231"><ele>1106.0</ele><time>2026-05-02T10:39:55.288Z</time></trkpt><trkpt lat="42.1984163" lon="13.726778"><ele>1104.1666666666667</ele><time>2026-05-02T10:39:56.288Z</time></trkpt><trkpt lat="42.19836" lon="13.726735"><ele>1102.3333333333335</ele><time>2026-05-02T10:39:57.288Z</time></trkpt><trkpt lat="42.1983" lon="13.7266983"><ele>1100.5</ele><time>2026-05-02T10:39:58.288Z</time></trkpt><trkpt lat="42.1981917" lon="13.726635"><ele>1098.6666666666667</ele><time>2026-05-02T10:40:00.288Z</time></trkpt><trkpt lat="42.1980917" lon="13.7265983"><ele>1096.8333333333333</ele><time>2026-05-02T10:40:02.288Z</time></trkpt><trkpt lat="42.1980217" lon="13.7265467"><ele>1095.0</ele><time>2026-05-02T10:40:04.288Z</time></trkpt><trkpt lat="42.1979783" lon="13.7264533"><ele>1094.0</ele><time>2026-05-02T10:40:06.288Z</time></trkpt><trkpt lat="42.19792" lon="13.72637"><ele>1093.0</ele><time>2026-05-02T10:40:08.288Z</time></trkpt><trkpt lat="42.1978283" lon="13.7263617"><ele>1092.0</ele><time>2026-05-02T10:40:10.288Z</time></trkpt><trkpt lat="42.197725" lon="13.726425"><ele>1091.0</ele><time>2026-05-02T10:40:12.288Z</time></trkpt><trkpt lat="42.197685" lon="13.7264917"><ele>1090.0</ele><time>2026-05-02T10:40:13.288Z</time></trkpt><trkpt lat="42.197655" lon="13.7265667"><ele>1089.0</ele><time>2026-05-02T10:40:14.289Z</time></trkpt><trkpt lat="42.1976283" lon="13.7266583"><ele>1089.0</ele><time>2026-05-02T10:40:15.288Z</time></trkpt><trkpt lat="42.1976004" lon="13.7267364"><ele>1089.0</ele><time>2026-05-02T10:40:16.288Z</time></trkpt><trkpt lat="42.1975391" lon="13.7268735"><ele>1089.0</ele><time>2026-05-02T10:40:18.288Z</time></trkpt><trkpt lat="42.1974855" lon="13.7269252"><ele>1089.0</ele><time>2026-05-02T10:40:19.288Z</time></trkpt><trkpt lat="42.1974204" lon="13.72697"><ele>1089.0</ele><time>2026-05-02T10:40:20.288Z</time></trkpt><trkpt lat="42.1973487" lon="13.7270022"><ele>1089.0</ele><time>2026-05-02T10:40:21.288Z</time></trkpt><trkpt lat="42.1972755" lon="13.727024"><ele>1088.0</ele><time>2026-05-02T10:40:22.288Z</time></trkpt><trkpt lat="42.1972031" lon="13.7270398"><ele>1087.0</ele><time>2026-05-02T10:40:23.288Z</time></trkpt><trkpt lat="42.1971293" lon="13.7270539"><ele>1086.0</ele><time>2026-05-02T10:40:24.289Z</time></trkpt><trkpt lat="42.1970449" lon="13.7270719"><ele>1085.0</ele><time>2026-05-02T10:40:25.288Z</time></trkpt><trkpt lat="42.1969664" lon="13.7270925"><ele>1084.0</ele><time>2026-05-02T10:40:26.288Z</time></trkpt><trkpt lat="42.1968907" lon="13.7271225"><ele>1083.0</ele><time>2026-05-02T10:40:27.288Z</time></trkpt><trkpt lat="42.1968174" lon="13.7271549"><ele>1083.0</ele><time>2026-05-02T10:40:28.288Z</time></trkpt><trkpt lat="42.1967516" lon="13.727183"><ele>1083.0</ele><time>2026-05-02T10:40:29.288Z</time></trkpt><trkpt lat="42.1966902" lon="13.7272069"><ele>1083.0</ele><time>2026-05-02T10:40:30.288Z</time></trkpt><trkpt lat="42.1965868" lon="13.7272441"><ele>1083.0</ele><time>2026-05-02T10:40:32.288Z</time></trkpt><trkpt lat="42.1964878" lon="13.7272933"><ele>1083.0</ele><time>2026-05-02T10:40:34.289Z</time></trkpt><trkpt lat="42.1964048" lon="13.7272733"><ele>1083.0</ele><time>2026-05-02T10:40:37.288Z</time></trkpt><trkpt lat="42.1963917" lon="13.7271433"><ele>1082.857142857143</ele><time>2026-05-02T10:40:39.288Z</time></trkpt><trkpt lat="42.1963906" lon="13.7270523"><ele>1082.7142857142858</ele><time>2026-05-02T10:40:40.288Z</time></trkpt><trkpt lat="42.1963948" lon="13.7269569"><ele>1082.5714285714287</ele><time>2026-05-02T10:40:41.288Z</time></trkpt><trkpt lat="42.1964056" lon="13.7268604"><ele>1082.4285714285716</ele><time>2026-05-02T10:40:42.288Z</time></trkpt><trkpt lat="42.1964238" lon="13.7267606"><ele>1082.2857142857142</ele><time>2026-05-02T10:40:43.288Z</time></trkpt><trkpt lat="42.1964483" lon="13.7266606"><ele>1082.1428571428573</ele><time>2026-05-02T10:40:44.288Z</time></trkpt><trkpt lat="42.1964746" lon="13.7265643"><ele>1082.0</ele><time>2026-05-02T10:40:45.288Z</time></trkpt><trkpt lat="42.1964998" lon="13.7264697"><ele>1083.0</ele><time>2026-05-02T10:40:46.288Z</time></trkpt><trkpt lat="42.1965186" lon="13.7263685"><ele>1084.0</ele><time>2026-05-02T10:40:47.288Z</time></trkpt><trkpt lat="42.1965327" lon="13.7262648"><ele>1085.0</ele><time>2026-05-02T10:40:48.288Z</time></trkpt><trkpt lat="42.1965465" lon="13.7261627"><ele>1086.0</ele><time>2026-05-02T10:40:49.289Z</time></trkpt><trkpt lat="42.1965706" lon="13.7260581"><ele>1087.0</ele><time>2026-05-02T10:40:50.288Z</time></trkpt><trkpt lat="42.1966047" lon="13.7259574"><ele>1088.0</ele><time>2026-05-02T10:40:51.288Z</time></trkpt><trkpt lat="42.1966527" lon="13.7258733"><ele>1088.8333333333335</ele><time>2026-05-02T10:40:52.288Z</time></trkpt><trkpt lat="42.1967022" lon="13.7258116"><ele>1089.6666666666667</ele><time>2026-05-02T10:40:53.288Z</time></trkpt><trkpt lat="42.1968006" lon="13.7257457"><ele>1090.5</ele><time>2026-05-02T10:40:55.288Z</time></trkpt><trkpt lat="42.1968617" lon="13.725695"><ele>1091.3333333333333</ele><time>2026-05-02T10:40:57.288Z</time></trkpt><trkpt lat="42.1969067" lon="13.7255717"><ele>1092.1666666666665</ele><time>2026-05-02T10:40:59.288Z</time></trkpt><trkpt lat="42.196925" lon="13.7254783"><ele>1093.0</ele><time>2026-05-02T10:41:00.288Z</time></trkpt><trkpt lat="42.19694" lon="13.7253833"><ele>1093.0</ele><time>2026-05-02T10:41:01.288Z</time></trkpt><trkpt lat="42.1969567" lon="13.7252683"><ele>1093.0</ele><time>2026-05-02T10:41:02.288Z</time></trkpt><trkpt lat="42.19699" lon="13.7251267"><ele>1093.0</ele><time>2026-05-02T10:41:03.288Z</time></trkpt><trkpt lat="42.1970233" lon="13.72497"><ele>1093.0</ele><time>2026-05-02T10:41:04.288Z</time></trkpt><trkpt lat="42.1970533" lon="13.7248033"><ele>1093.0</ele><time>2026-05-02T10:41:05.288Z</time></trkpt><trkpt lat="42.1970683" lon="13.7246283"><ele>1093.25</ele><time>2026-05-02T10:41:06.288Z</time></trkpt><trkpt lat="42.1970767" lon="13.72445"><ele>1093.5</ele><time>2026-05-02T10:41:07.288Z</time></trkpt><trkpt lat="42.19708" lon="13.7242733"><ele>1093.75</ele><time>2026-05-02T10:41:08.288Z</time></trkpt><trkpt lat="42.19708" lon="13.7241133"><ele>1094.0</ele><time>2026-05-02T10:41:09.288Z</time></trkpt><trkpt lat="42.1970667" lon="13.7239617"><ele>1095.2</ele><time>2026-05-02T10:41:10.288Z</time></trkpt><trkpt lat="42.1970417" lon="13.7238233"><ele>1096.4</ele><time>2026-05-02T10:41:11.288Z</time></trkpt><trkpt lat="42.197025" lon="13.7237033"><ele>1097.6</ele><time>2026-05-02T10:41:12.288Z</time></trkpt><trkpt lat="42.1970133" lon="13.7235867"><ele>1098.8</ele><time>2026-05-02T10:41:13.288Z</time></trkpt><trkpt lat="42.1970183" lon="13.7234567"><ele>1100.0</ele><time>2026-05-02T10:41:14.288Z</time></trkpt><trkpt lat="42.1970367" lon="13.7233367"><ele>1100.0</ele><time>2026-05-02T10:41:15.288Z</time></trkpt><trkpt lat="42.19706" lon="13.72319"><ele>1100.0</ele><time>2026-05-02T10:41:16.288Z</time></trkpt><trkpt lat="42.1970867" lon="13.7230533"><ele>1100.0</ele><time>2026-05-02T10:41:17.288Z</time></trkpt><trkpt lat="42.197115" lon="13.7229183"><ele>1100.0</ele><time>2026-05-02T10:41:18.288Z</time></trkpt><trkpt lat="42.1971517" lon="13.7227817"><ele>1100.0</ele><time>2026-05-02T10:41:19.288Z</time></trkpt><trkpt lat="42.1972" lon="13.7226467"><ele>1100.0</ele><time>2026-05-02T10:41:20.288Z</time></trkpt><trkpt lat="42.1972567" lon="13.722505"><ele>1100.0</ele><time>2026-05-02T10:41:21.288Z</time></trkpt><trkpt lat="42.19733" lon="13.72236"><ele>1100.0</ele><time>2026-05-02T10:41:22.288Z</time></trkpt><trkpt lat="42.1973917" lon="13.7222167"><ele>1100.0</ele><time>2026-05-02T10:41:23.288Z</time></trkpt><trkpt lat="42.1974483" lon="13.722085"><ele>1098.6</ele><time>2026-05-02T10:41:24.288Z</time></trkpt><trkpt lat="42.1975017" lon="13.7219583"><ele>1097.2</ele><time>2026-05-02T10:41:25.288Z</time></trkpt><trkpt lat="42.1975483" lon="13.7218433"><ele>1095.8</ele><time>2026-05-02T10:41:26.288Z</time></trkpt><trkpt lat="42.1976" lon="13.72175"><ele>1094.4</ele><time>2026-05-02T10:41:27.288Z</time></trkpt><trkpt lat="42.1976767" lon="13.7216683"><ele>1093.0</ele><time>2026-05-02T10:41:28.288Z</time></trkpt><trkpt lat="42.1977583" lon="13.7216017"><ele>1092.75</ele><time>2026-05-02T10:41:29.288Z</time></trkpt><trkpt lat="42.1978433" lon="13.7215433"><ele>1092.5</ele><time>2026-05-02T10:41:30.288Z</time></trkpt><trkpt lat="42.1979317" lon="13.7214617"><ele>1092.25</ele><time>2026-05-02T10:41:31.288Z</time></trkpt><trkpt lat="42.1980417" lon="13.7213633"><ele>1092.0</ele><time>2026-05-02T10:41:32.288Z</time></trkpt><trkpt lat="42.1981367" lon="13.721255"><ele>1091.0</ele><time>2026-05-02T10:41:33.288Z</time></trkpt><trkpt lat="42.1982433" lon="13.721145"><ele>1090.0</ele><time>2026-05-02T10:41:34.288Z</time></trkpt><trkpt lat="42.1983367" lon="13.7210317"><ele>1089.0</ele><time>2026-05-02T10:41:35.288Z</time></trkpt><trkpt lat="42.19844" lon="13.720925"><ele>1088.0</ele><time>2026-05-02T10:41:36.288Z</time></trkpt><trkpt lat="42.1985317" lon="13.720825"><ele>1086.2</ele><time>2026-05-02T10:41:37.288Z</time></trkpt><trkpt lat="42.1986267" lon="13.7207267"><ele>1084.4</ele><time>2026-05-02T10:41:38.288Z</time></trkpt><trkpt lat="42.198725" lon="13.72064"><ele>1082.6000000000001</ele><time>2026-05-02T10:41:39.288Z</time></trkpt><trkpt lat="42.1988183" lon="13.72056"><ele>1080.8</ele><time>2026-05-02T10:41:40.288Z</time></trkpt><trkpt lat="42.1988967" lon="13.7204833"><ele>1079.0</ele><time>2026-05-02T10:41:41.289Z</time></trkpt><trkpt lat="42.1989767" lon="13.7204167"><ele>1077.1666666666667</ele><time>2026-05-02T10:41:42.288Z</time></trkpt><trkpt lat="42.19905" lon="13.7203567"><ele>1075.3333333333335</ele><time>2026-05-02T10:41:43.288Z</time></trkpt><trkpt lat="42.1991167" lon="13.7203033"><ele>1073.5</ele><time>2026-05-02T10:41:44.288Z</time></trkpt><trkpt lat="42.1991717" lon="13.720255"><ele>1071.6666666666667</ele><time>2026-05-02T10:41:45.288Z</time></trkpt><trkpt lat="42.1992717" lon="13.7201783"><ele>1069.8333333333333</ele><time>2026-05-02T10:41:47.288Z</time></trkpt><trkpt lat="42.1993567" lon="13.72011"><ele>1068.0</ele><time>2026-05-02T10:41:49.289Z</time></trkpt><trkpt lat="42.199405" lon="13.7200483"><ele>1067.3333333333333</ele><time>2026-05-02T10:41:51.288Z</time></trkpt><trkpt lat="42.1994367" lon="13.7199183"><ele>1066.6666666666667</ele><time>2026-05-02T10:41:54.288Z</time></trkpt><trkpt lat="42.1994517" lon="13.7198333"><ele>1066.0</ele><time>2026-05-02T10:41:55.288Z</time></trkpt><trkpt lat="42.1994767" lon="13.7197383"><ele>1065.3333333333335</ele><time>2026-05-02T10:41:56.288Z</time></trkpt><trkpt lat="42.19951" lon="13.719645"><ele>1064.6666666666667</ele><time>2026-05-02T10:41:57.289Z</time></trkpt><trkpt lat="42.1995383" lon="13.719545"><ele>1064.0</ele><time>2026-05-02T10:41:58.288Z</time></trkpt><trkpt lat="42.1995783" lon="13.719455"><ele>1064.8333333333335</ele><time>2026-05-02T10:41:59.288Z</time></trkpt><trkpt lat="42.1996133" lon="13.7193417"><ele>1065.6666666666667</ele><time>2026-05-02T10:42:00.288Z</time></trkpt><trkpt lat="42.1996417" lon="13.7192117"><ele>1066.5</ele><time>2026-05-02T10:42:01.288Z</time></trkpt><trkpt lat="42.199675" lon="13.7190967"><ele>1067.3333333333333</ele><time>2026-05-02T10:42:02.288Z</time></trkpt><trkpt lat="42.1997117" lon="13.7189983"><ele>1068.1666666666665</ele><time>2026-05-02T10:42:03.288Z</time></trkpt><trkpt lat="42.1997517" lon="13.718905"><ele>1069.0</ele><time>2026-05-02T10:42:04.288Z</time></trkpt><trkpt lat="42.1998083" lon="13.7188167"><ele>1067.0</ele><time>2026-05-02T10:42:05.288Z</time></trkpt><trkpt lat="42.1998783" lon="13.7187217"><ele>1065.0</ele><time>2026-05-02T10:42:06.288Z</time></trkpt><trkpt lat="42.1999417" lon="13.718615"><ele>1063.0</ele><time>2026-05-02T10:42:07.288Z</time></trkpt><trkpt lat="42.200005" lon="13.718515"><ele>1061.0</ele><time>2026-05-02T10:42:08.288Z</time></trkpt><trkpt lat="42.2000517" lon="13.7184117"><ele>1059.0</ele><time>2026-05-02T10:42:09.288Z</time></trkpt><trkpt lat="42.2000917" lon="13.7183183"><ele>1059.0</ele><time>2026-05-02T10:42:10.288Z</time></trkpt><trkpt lat="42.2001317" lon="13.71824"><ele>1059.0</ele><time>2026-05-02T10:42:11.288Z</time></trkpt><trkpt lat="42.2001817" lon="13.7181767"><ele>1059.0</ele><time>2026-05-02T10:42:12.288Z</time></trkpt><trkpt lat="42.2002417" lon="13.7180317"><ele>1059.0</ele><time>2026-05-02T10:42:14.288Z</time></trkpt><trkpt lat="42.200285" lon="13.717885"><ele>1059.0</ele><time>2026-05-02T10:42:16.288Z</time></trkpt><trkpt lat="42.2003" lon="13.7178"><ele>1059.0</ele><time>2026-05-02T10:42:17.289Z</time></trkpt><trkpt lat="42.2002983" lon="13.717715"><ele>1058.8</ele><time>2026-05-02T10:42:18.288Z</time></trkpt><trkpt lat="42.200285" lon="13.717625"><ele>1058.6000000000001</ele><time>2026-05-02T10:42:19.288Z</time></trkpt><trkpt lat="42.2002567" lon="13.7175083"><ele>1058.4</ele><time>2026-05-02T10:42:20.288Z</time></trkpt><trkpt lat="42.200205" lon="13.71737"><ele>1058.2</ele><time>2026-05-02T10:42:21.288Z</time></trkpt><trkpt lat="42.200155" lon="13.7172283"><ele>1058.0</ele><time>2026-05-02T10:42:22.288Z</time></trkpt><trkpt lat="42.2001133" lon="13.7170833"><ele>1058.0</ele><time>2026-05-02T10:42:23.289Z</time></trkpt><trkpt lat="42.2000733" lon="13.7169383"><ele>1058.0</ele><time>2026-05-02T10:42:24.288Z</time></trkpt><trkpt lat="42.20004" lon="13.7167967"><ele>1058.0</ele><time>2026-05-02T10:42:25.288Z</time></trkpt><trkpt lat="42.2000083" lon="13.7166667"><ele>1058.0</ele><time>2026-05-02T10:42:26.288Z</time></trkpt><trkpt lat="42.1999833" lon="13.7165483"><ele>1058.0</ele><time>2026-05-02T10:42:27.288Z</time></trkpt><trkpt lat="42.19997" lon="13.7164283"><ele>1058.2</ele><time>2026-05-02T10:42:28.288Z</time></trkpt><trkpt lat="42.1999633" lon="13.7163117"><ele>1058.4</ele><time>2026-05-02T10:42:29.288Z</time></trkpt><trkpt lat="42.19998" lon="13.7161933"><ele>1058.6000000000001</ele><time>2026-05-02T10:42:30.288Z</time></trkpt><trkpt lat="42.2000267" lon="13.7160417"><ele>1058.8</ele><time>2026-05-02T10:42:31.288Z</time></trkpt><trkpt lat="42.20009" lon="13.715895"><ele>1059.0</ele><time>2026-05-02T10:42:32.288Z</time></trkpt><trkpt lat="42.2001467" lon="13.715765"><ele>1059.2</ele><time>2026-05-02T10:42:33.288Z</time></trkpt><trkpt lat="42.2001933" lon="13.715645"><ele>1059.4</ele><time>2026-05-02T10:42:34.288Z</time></trkpt><trkpt lat="42.2002283" lon="13.7155267"><ele>1059.6</ele><time>2026-05-02T10:42:35.288Z</time></trkpt><trkpt lat="42.20026" lon="13.7154133"><ele>1059.8</ele><time>2026-05-02T10:42:36.288Z</time></trkpt><trkpt lat="42.2002783" lon="13.7152983"><ele>1060.0</ele><time>2026-05-02T10:42:37.288Z</time></trkpt><trkpt lat="42.20029" lon="13.71519"><ele>1060.1666666666665</ele><time>2026-05-02T10:42:38.288Z</time></trkpt><trkpt lat="42.2003017" lon="13.7150883"><ele>1060.3333333333333</ele><time>2026-05-02T10:42:39.288Z</time></trkpt><trkpt lat="42.20032" lon="13.714985"><ele>1060.5</ele><time>2026-05-02T10:42:40.288Z</time></trkpt><trkpt lat="42.2003467" lon="13.714885"><ele>1060.6666666666667</ele><time>2026-05-02T10:42:41.288Z</time></trkpt><trkpt lat="42.2003833" lon="13.7147817"><ele>1060.8333333333335</ele><time>2026-05-02T10:42:42.288Z</time></trkpt><trkpt lat="42.2004267" lon="13.71468"><ele>1061.0</ele><time>2026-05-02T10:42:43.288Z</time></trkpt><trkpt lat="42.2004567" lon="13.7145783"><ele>1061.0</ele><time>2026-05-02T10:42:44.288Z</time></trkpt><trkpt lat="42.2004833" lon="13.71445"><ele>1061.0</ele><time>2026-05-02T10:42:45.288Z</time></trkpt><trkpt lat="42.2005017" lon="13.7143183"><ele>1061.0</ele><time>2026-05-02T10:42:46.289Z</time></trkpt><trkpt lat="42.200515" lon="13.7141767"><ele>1061.0</ele><time>2026-05-02T10:42:47.288Z</time></trkpt><trkpt lat="42.2005333" lon="13.7140417"><ele>1061.0</ele><time>2026-05-02T10:42:48.288Z</time></trkpt><trkpt lat="42.2005533" lon="13.7139033"><ele>1060.8</ele><time>2026-05-02T10:42:49.288Z</time></trkpt><trkpt lat="42.2005717" lon="13.7137617"><ele>1060.6</ele><time>2026-05-02T10:42:50.288Z</time></trkpt><trkpt lat="42.2005917" lon="13.71362"><ele>1060.4</ele><time>2026-05-02T10:42:51.288Z</time></trkpt><trkpt lat="42.2006117" lon="13.7134833"><ele>1060.2</ele><time>2026-05-02T10:42:52.288Z</time></trkpt><trkpt lat="42.200635" lon="13.7133517"><ele>1060.0</ele><time>2026-05-02T10:42:53.288Z</time></trkpt><trkpt lat="42.2006617" lon="13.7132283"><ele>1055.8</ele><time>2026-05-02T10:42:54.288Z</time></trkpt><trkpt lat="42.2007017" lon="13.7131083"><ele>1051.6</ele><time>2026-05-02T10:42:55.289Z</time></trkpt><trkpt lat="42.20075" lon="13.7129883"><ele>1047.4</ele><time>2026-05-02T10:42:56.288Z</time></trkpt><trkpt lat="42.2008" lon="13.7128667"><ele>1043.2</ele><time>2026-05-02T10:42:57.288Z</time></trkpt><trkpt lat="42.2008567" lon="13.7127333"><ele>1039.0</ele><time>2026-05-02T10:42:58.288Z</time></trkpt><trkpt lat="42.2008967" lon="13.71261"><ele>1038.5</ele><time>2026-05-02T10:42:59.288Z</time></trkpt><trkpt lat="42.2009283" lon="13.712495"><ele>1038.0</ele><time>2026-05-02T10:43:00.288Z</time></trkpt><trkpt lat="42.2009533" lon="13.71239"><ele>1037.5</ele><time>2026-05-02T10:43:01.288Z</time></trkpt><trkpt lat="42.2009767" lon="13.71229"><ele>1037.0</ele><time>2026-05-02T10:43:02.288Z</time></trkpt><trkpt lat="42.20101" lon="13.7121717"><ele>1036.5</ele><time>2026-05-02T10:43:03.288Z</time></trkpt><trkpt lat="42.201045" lon="13.7120383"><ele>1036.0</ele><time>2026-05-02T10:43:04.288Z</time></trkpt><trkpt lat="42.20106" lon="13.7119233"><ele>1035.5</ele><time>2026-05-02T10:43:05.288Z</time></trkpt><trkpt lat="42.2010767" lon="13.7118283"><ele>1035.0</ele><time>2026-05-02T10:43:06.288Z</time></trkpt><trkpt lat="42.2011017" lon="13.7117433"><ele>1034.5</ele><time>2026-05-02T10:43:07.288Z</time></trkpt><trkpt lat="42.2011233" lon="13.7116633"><ele>1034.0</ele><time>2026-05-02T10:43:08.288Z</time></trkpt><trkpt lat="42.2011417" lon="13.711565"><ele>1033.5</ele><time>2026-05-02T10:43:09.288Z</time></trkpt><trkpt lat="42.2011517" lon="13.7114083"><ele>1033.0</ele><time>2026-05-02T10:43:11.288Z</time></trkpt><trkpt lat="42.20115" lon="13.7113183"><ele>1033.0000000000002</ele><time>2026-05-02T10:43:12.288Z</time></trkpt><trkpt lat="42.2011317" lon="13.7112133"><ele>1033.0</ele><time>2026-05-02T10:43:13.288Z</time></trkpt><trkpt lat="42.2011233" lon="13.7111167"><ele>1033.0</ele><time>2026-05-02T10:43:14.288Z</time></trkpt><trkpt lat="42.2011083" lon="13.711015"><ele>1033.0</ele><time>2026-05-02T10:43:15.288Z</time></trkpt><trkpt lat="42.20109" lon="13.7109267"><ele>1033.0</ele><time>2026-05-02T10:43:16.288Z</time></trkpt><trkpt lat="42.201075" lon="13.7108367"><ele>1033.0000000000002</ele><time>2026-05-02T10:43:17.288Z</time></trkpt><trkpt lat="42.2010617" lon="13.7107433"><ele>1033.0</ele><time>2026-05-02T10:43:18.288Z</time></trkpt><trkpt lat="42.201055" lon="13.7106583"><ele>1032.3333333333333</ele><time>2026-05-02T10:43:19.288Z</time></trkpt><trkpt lat="42.20106" lon="13.7105733"><ele>1031.6666666666665</ele><time>2026-05-02T10:43:20.288Z</time></trkpt><trkpt lat="42.2010683" lon="13.7104833"><ele>1031.0</ele><time>2026-05-02T10:43:21.288Z</time></trkpt><trkpt lat="42.2010833" lon="13.7103883"><ele>1030.3333333333333</ele><time>2026-05-02T10:43:22.288Z</time></trkpt><trkpt lat="42.2010967" lon="13.710295"><ele>1029.6666666666667</ele><time>2026-05-02T10:43:23.288Z</time></trkpt><trkpt lat="42.2011267" lon="13.7101433"><ele>1029.0</ele><time>2026-05-02T10:43:25.288Z</time></trkpt><trkpt lat="42.2011433" lon="13.71006"><ele>1028.8333333333333</ele><time>2026-05-02T10:43:26.288Z</time></trkpt><trkpt lat="42.2011633" lon="13.7099633"><ele>1028.6666666666667</ele><time>2026-05-02T10:43:27.288Z</time></trkpt><trkpt lat="42.201185" lon="13.70986"><ele>1028.5</ele><time>2026-05-02T10:43:28.288Z</time></trkpt><trkpt lat="42.201205" lon="13.70974"><ele>1028.3333333333335</ele><time>2026-05-02T10:43:29.288Z</time></trkpt><trkpt lat="42.2012267" lon="13.7096233"><ele>1028.1666666666667</ele><time>2026-05-02T10:43:30.288Z</time></trkpt><trkpt lat="42.2012533" lon="13.709505"><ele>1028.0</ele><time>2026-05-02T10:43:31.288Z</time></trkpt><trkpt lat="42.20128" lon="13.709375"><ele>1028.2857142857142</ele><time>2026-05-02T10:43:32.288Z</time></trkpt><trkpt lat="42.2012952" lon="13.7092597"><ele>1028.5714285714287</ele><time>2026-05-02T10:43:33.289Z</time></trkpt><trkpt lat="42.201311" lon="13.7091495"><ele>1028.857142857143</ele><time>2026-05-02T10:43:34.288Z</time></trkpt><trkpt lat="42.2013224" lon="13.7090487"><ele>1029.142857142857</ele><time>2026-05-02T10:43:35.289Z</time></trkpt><trkpt lat="42.2013329" lon="13.7089564"><ele>1029.4285714285713</ele><time>2026-05-02T10:43:36.288Z</time></trkpt><trkpt lat="42.201351" lon="13.7088714"><ele>1029.7142857142858</ele><time>2026-05-02T10:43:37.288Z</time></trkpt><trkpt lat="42.2013745" lon="13.7087849"><ele>1030.0</ele><time>2026-05-02T10:43:38.288Z</time></trkpt><trkpt lat="42.2014019" lon="13.7086933"><ele>1030.0</ele><time>2026-05-02T10:43:39.288Z</time></trkpt><trkpt lat="42.2014302" lon="13.7085998"><ele>1030.0</ele><time>2026-05-02T10:43:40.288Z</time></trkpt><trkpt lat="42.2014545" lon="13.7085126"><ele>1030.0</ele><time>2026-05-02T10:43:41.288Z</time></trkpt><trkpt lat="42.2014766" lon="13.7084305"><ele>1030.0</ele><time>2026-05-02T10:43:42.289Z</time></trkpt><trkpt lat="42.2015156" lon="13.7082864"><ele>1030.0</ele><time>2026-05-02T10:43:44.288Z</time></trkpt><trkpt lat="42.2015431" lon="13.7081418"><ele>1030.0</ele><time>2026-05-02T10:43:46.288Z</time></trkpt><trkpt lat="42.201561" lon="13.7079931"><ele>1026.0</ele><time>2026-05-02T10:43:48.288Z</time></trkpt><trkpt lat="42.2015788" lon="13.707856"><ele>1022.0</ele><time>2026-05-02T10:43:50.288Z</time></trkpt><trkpt lat="42.2015987" lon="13.7077356"><ele>1018.0</ele><time>2026-05-02T10:43:52.288Z</time></trkpt><trkpt lat="42.2016269" lon="13.7076338"><ele>1014.0</ele><time>2026-05-02T10:43:54.288Z</time></trkpt><trkpt lat="42.2016584" lon="13.7075405"><ele>1009.9999999999999</ele><time>2026-05-02T10:43:56.288Z</time></trkpt><trkpt lat="42.201695" lon="13.707425"><ele>1006.0</ele><time>2026-05-02T10:43:59.288Z</time></trkpt><trkpt lat="42.201725" lon="13.7072467"><ele>1004.6666666666666</ele><time>2026-05-02T10:44:12.288Z</time></trkpt><trkpt lat="42.20173" lon="13.7071433"><ele>1003.3333333333333</ele><time>2026-05-02T10:44:16.288Z</time></trkpt><trkpt lat="42.2017233" lon="13.7070333"><ele>1002.0</ele><time>2026-05-02T10:44:20.288Z</time></trkpt><trkpt lat="42.2017314" lon="13.7069458"><ele>1000.6666666666667</ele><time>2026-05-02T10:44:27.383Z</time></trkpt><trkpt lat="42.2017676" lon="13.7068672"><ele>999.3333333333334</ele><time>2026-05-02T10:44:30.36Z</time></trkpt><trkpt lat="42.2018193" lon="13.7067799"><ele>998.0</ele><time>2026-05-02T10:44:34.295Z</time></trkpt><trkpt lat="42.2018638" lon="13.7066952"><ele>996.5999999999999</ele><time>2026-05-02T10:44:38.334Z</time></trkpt><trkpt lat="42.2018477" lon="13.7065346"><ele>995.1999999999999</ele><time>2026-05-02T10:44:54.389Z</time></trkpt><trkpt lat="42.2018485" lon="13.7064336"><ele>993.8</ele><time>2026-05-02T10:45:15.335Z</time></trkpt><trkpt lat="42.2018275" lon="13.7063193"><ele>992.4</ele><time>2026-05-02T10:45:17.355Z</time></trkpt><trkpt lat="42.2017643" lon="13.7062358"><ele>991.0</ele><time>2026-05-02T10:45:20.364Z</time></trkpt><trkpt lat="42.201644" lon="13.7061283"><ele>990.9999999999999</ele><time>2026-05-02T10:45:22.288Z</time></trkpt><trkpt lat="42.2015869" lon="13.7060837"><ele>991.0</ele><time>2026-05-02T10:45:23.289Z</time></trkpt><trkpt lat="42.2015264" lon="13.7059948"><ele>991.0</ele><time>2026-05-02T10:45:25.288Z</time></trkpt><trkpt lat="42.2015199" lon="13.7058599"><ele>991.0</ele><time>2026-05-02T10:45:27.288Z</time></trkpt><trkpt lat="42.2015517" lon="13.7057733"><ele>990.9999999999999</ele><time>2026-05-02T10:45:29.288Z</time></trkpt><trkpt lat="42.201515" lon="13.7056667"><ele>991.0</ele><time>2026-05-02T10:45:33.288Z</time></trkpt><trkpt lat="42.20147" lon="13.7055383"><ele>992.4</ele><time>2026-05-02T10:45:35.288Z</time></trkpt><trkpt lat="42.201425" lon="13.7054133"><ele>993.8</ele><time>2026-05-02T10:45:37.288Z</time></trkpt><trkpt lat="42.20139" lon="13.7052667"><ele>995.1999999999999</ele><time>2026-05-02T10:45:39.288Z</time></trkpt><trkpt lat="42.2013777" lon="13.7051195"><ele>996.5999999999999</ele><time>2026-05-02T10:45:41.288Z</time></trkpt><trkpt lat="42.2013569" lon="13.705035"><ele>998.0</ele><time>2026-05-02T10:45:42.288Z</time></trkpt><trkpt lat="42.2013506" lon="13.7049483"><ele>994.0</ele><time>2026-05-02T10:45:43.288Z</time></trkpt><trkpt lat="42.2013496" lon="13.7048633"><ele>990.0</ele><time>2026-05-02T10:45:44.288Z</time></trkpt><trkpt lat="42.2013464" lon="13.7047054"><ele>986.0</ele><time>2026-05-02T10:45:46.288Z</time></trkpt><trkpt lat="42.2013499" lon="13.7045673"><ele>982.0</ele><time>2026-05-02T10:45:48.288Z</time></trkpt><trkpt lat="42.2013607" lon="13.7044402"><ele>978.0</ele><time>2026-05-02T10:45:50.288Z</time></trkpt><trkpt lat="42.2013624" lon="13.7043379"><ele>974.5</ele><time>2026-05-02T10:45:52.288Z</time></trkpt><trkpt lat="42.2013596" lon="13.7042404"><ele>971.0</ele><time>2026-05-02T10:45:54.289Z</time></trkpt><trkpt lat="42.2013635" lon="13.7041336"><ele>967.5</ele><time>2026-05-02T10:45:56.288Z</time></trkpt><trkpt lat="42.2013753" lon="13.7040179"><ele>964.0</ele><time>2026-05-02T10:45:58.288Z</time></trkpt><trkpt lat="42.2013981" lon="13.7038973"><ele>960.5</ele><time>2026-05-02T10:46:00.288Z</time></trkpt><trkpt lat="42.2014301" lon="13.7037799"><ele>957.0</ele><time>2026-05-02T10:46:02.288Z</time></trkpt><trkpt lat="42.2014592" lon="13.7036582"><ele>960.4000000000001</ele><time>2026-05-02T10:46:04.288Z</time></trkpt><trkpt lat="42.2014772" lon="13.703517"><ele>963.8000000000001</ele><time>2026-05-02T10:46:06.288Z</time></trkpt><trkpt lat="42.2014916" lon="13.70337"><ele>967.2</ele><time>2026-05-02T10:46:08.288Z</time></trkpt><trkpt lat="42.2015028" lon="13.7032092"><ele>970.6</ele><time>2026-05-02T10:46:10.288Z</time></trkpt><trkpt lat="42.2014949" lon="13.7030709"><ele>974.0</ele><time>2026-05-02T10:46:12.288Z</time></trkpt><trkpt lat="42.2014459" lon="13.7030045"><ele>967.8333333333334</ele><time>2026-05-02T10:46:16.367Z</time></trkpt><trkpt lat="42.2014089" lon="13.7029316"><ele>961.6666666666667</ele><time>2026-05-02T10:46:20.407Z</time></trkpt><trkpt lat="42.2013617" lon="13.702865"><ele>955.5</ele><time>2026-05-02T10:47:31.288Z</time></trkpt><trkpt lat="42.2013103" lon="13.7027945"><ele>949.3333333333333</ele><time>2026-05-02T10:47:39.305Z</time></trkpt><trkpt lat="42.2012354" lon="13.7027436"><ele>943.1666666666666</ele><time>2026-05-02T10:47:42.269Z</time></trkpt><trkpt lat="42.2011384" lon="13.7026579"><ele>937.0</ele><time>2026-05-02T10:47:44.288Z</time></trkpt><trkpt lat="42.2010581" lon="13.7025688"><ele>936.9999999999999</ele><time>2026-05-02T10:47:45.288Z</time></trkpt><trkpt lat="42.2009874" lon="13.7024876"><ele>937.0</ele><time>2026-05-02T10:47:46.288Z</time></trkpt><trkpt lat="42.2009246" lon="13.7024258"><ele>937.0</ele><time>2026-05-02T10:47:47.288Z</time></trkpt><trkpt lat="42.2008671" lon="13.7023738"><ele>937.0</ele><time>2026-05-02T10:47:48.288Z</time></trkpt><trkpt lat="42.2008063" lon="13.7023331"><ele>936.9999999999999</ele><time>2026-05-02T10:47:49.288Z</time></trkpt><trkpt lat="42.2007464" lon="13.7023002"><ele>937.0</ele><time>2026-05-02T10:47:50.288Z</time></trkpt><trkpt lat="42.2006411" lon="13.7022603"><ele>931.0</ele><time>2026-05-02T10:47:52.288Z</time></trkpt><trkpt lat="42.2005419" lon="13.7022399"><ele>925.0</ele><time>2026-05-02T10:47:54.289Z</time></trkpt><trkpt lat="42.200435" lon="13.7022117"><ele>919.0</ele><time>2026-05-02T10:47:56.288Z</time></trkpt><trkpt lat="42.2003383" lon="13.702195"><ele>913.0</ele><time>2026-05-02T10:47:58.288Z</time></trkpt><trkpt lat="42.2002633" lon="13.7021883"><ele>907.0</ele><time>2026-05-02T10:48:00.288Z</time></trkpt><trkpt lat="42.2001967" lon="13.702155"><ele>906.9999999999999</ele><time>2026-05-02T10:48:03.288Z</time></trkpt><trkpt lat="42.20015" lon="13.70205"><ele>907.0</ele><time>2026-05-02T10:48:06.288Z</time></trkpt><trkpt lat="42.20013" lon="13.7019383"><ele>907.0</ele><time>2026-05-02T10:48:08.288Z</time></trkpt><trkpt lat="42.20011" lon="13.701835"><ele>907.0</ele><time>2026-05-02T10:48:10.288Z</time></trkpt><trkpt lat="42.2000917" lon="13.7017467"><ele>906.9999999999999</ele><time>2026-05-02T10:48:13.288Z</time></trkpt><trkpt lat="42.20007" lon="13.70161"><ele>907.0</ele><time>2026-05-02T10:48:38.288Z</time></trkpt><trkpt lat="42.2000183" lon="13.7015033"><ele>907.4999999999999</ele><time>2026-05-02T10:48:41.288Z</time></trkpt><trkpt lat="42.1999833" lon="13.7014283"><ele>908.0</ele><time>2026-05-02T10:48:45.288Z</time></trkpt><trkpt lat="42.20001" lon="13.7013167"><ele>908.5</ele><time>2026-05-02T10:48:49.289Z</time></trkpt><trkpt lat="42.200015" lon="13.7011967"><ele>909.0</ele><time>2026-05-02T10:48:51.288Z</time></trkpt><trkpt lat="42.2000167" lon="13.7010717"><ele>909.4999999999999</ele><time>2026-05-02T10:48:53.289Z</time></trkpt><trkpt lat="42.2000267" lon="13.7009683"><ele>910.0</ele><time>2026-05-02T10:48:55.288Z</time></trkpt><trkpt lat="42.20005" lon="13.700865"><ele>908.9999999999999</ele><time>2026-05-02T10:48:57.288Z</time></trkpt><trkpt lat="42.20007" lon="13.7007783"><ele>908.0</ele><time>2026-05-02T10:48:59.288Z</time></trkpt><trkpt lat="42.2000817" lon="13.700665"><ele>907.0</ele><time>2026-05-02T10:49:02.288Z</time></trkpt><trkpt lat="42.2000567" lon="13.7005717"><ele>906.0</ele><time>2026-05-02T10:49:04.288Z</time></trkpt><trkpt lat="42.2000267" lon="13.70047"><ele>904.9999999999999</ele><time>2026-05-02T10:49:06.289Z</time></trkpt><trkpt lat="42.2000183" lon="13.700365"><ele>904.0</ele><time>2026-05-02T10:49:08.288Z</time></trkpt><trkpt lat="42.2000167" lon="13.700255"><ele>903.8333333333333</ele><time>2026-05-02T10:49:10.288Z</time></trkpt><trkpt lat="42.2000267" lon="13.7001583"><ele>903.6666666666666</ele><time>2026-05-02T10:49:12.288Z</time></trkpt><trkpt lat="42.2000467" lon="13.7000583"><ele>903.5</ele><time>2026-05-02T10:49:14.288Z</time></trkpt><trkpt lat="42.2000417" lon="13.6999417"><ele>903.3333333333333</ele><time>2026-05-02T10:49:17.288Z</time></trkpt><trkpt lat="42.1999917" lon="13.6998783"><ele>903.1666666666666</ele><time>2026-05-02T10:49:19.288Z</time></trkpt><trkpt lat="42.1999317" lon="13.69983"><ele>903.0</ele><time>2026-05-02T10:49:21.288Z</time></trkpt><trkpt lat="42.19984" lon="13.6997667"><ele>894.3333333333334</ele><time>2026-05-02T10:49:24.288Z</time></trkpt><trkpt lat="42.1997817" lon="13.6996717"><ele>885.6666666666667</ele><time>2026-05-02T10:49:26.288Z</time></trkpt><trkpt lat="42.1997467" lon="13.6995583"><ele>877.0</ele><time>2026-05-02T10:49:28.288Z</time></trkpt><trkpt lat="42.199705" lon="13.69945"><ele>868.3333333333334</ele><time>2026-05-02T10:49:30.288Z</time></trkpt><trkpt lat="42.1996833" lon="13.69934"><ele>859.6666666666667</ele><time>2026-05-02T10:49:32.288Z</time></trkpt><trkpt lat="42.1996483" lon="13.6992333"><ele>851.0</ele><time>2026-05-02T10:49:34.288Z</time></trkpt><trkpt lat="42.1995933" lon="13.699135"><ele>851.0</ele><time>2026-05-02T10:49:36.289Z</time></trkpt><trkpt lat="42.1995433" lon="13.6990133"><ele>851.0</ele><time>2026-05-02T10:49:38.288Z</time></trkpt><trkpt lat="42.1995117" lon="13.6988783"><ele>851.0</ele><time>2026-05-02T10:49:40.288Z</time></trkpt><trkpt lat="42.1994967" lon="13.6987317"><ele>851.0</ele><time>2026-05-02T10:49:42.288Z</time></trkpt><trkpt lat="42.1995" lon="13.6985983"><ele>851.0</ele><time>2026-05-02T10:49:44.288Z</time></trkpt><trkpt lat="42.199485" lon="13.69847"><ele>851.8</ele><time>2026-05-02T10:49:46.288Z</time></trkpt><trkpt lat="42.19946" lon="13.6983633"><ele>852.5999999999999</ele><time>2026-05-02T10:49:48.288Z</time></trkpt><trkpt lat="42.1994367" lon="13.6982417"><ele>853.4</ele><time>2026-05-02T10:49:50.288Z</time></trkpt><trkpt lat="42.1994483" lon="13.6981"><ele>854.2</ele><time>2026-05-02T10:49:52.288Z</time></trkpt><trkpt lat="42.1994783" lon="13.6979767"><ele>855.0</ele><time>2026-05-02T10:49:54.288Z</time></trkpt><trkpt lat="42.1995217" lon="13.6978383"><ele>853.0</ele><time>2026-05-02T10:49:56.288Z</time></trkpt><trkpt lat="42.19956" lon="13.6977233"><ele>851.0</ele><time>2026-05-02T10:49:58.288Z</time></trkpt><trkpt lat="42.1996033" lon="13.6976217"><ele>849.0</ele><time>2026-05-02T10:50:00.288Z</time></trkpt><trkpt lat="42.1996283" lon="13.6975333"><ele>847.0</ele><time>2026-05-02T10:50:02.288Z</time></trkpt><trkpt lat="42.1996717" lon="13.6974333"><ele>845.0</ele><time>2026-05-02T10:50:04.288Z</time></trkpt><trkpt lat="42.1997317" lon="13.69734"><ele>843.0</ele><time>2026-05-02T10:50:06.288Z</time></trkpt><trkpt lat="42.1997883" lon="13.6972533"><ele>843.0</ele><time>2026-05-02T10:50:08.288Z</time></trkpt><trkpt lat="42.1998183" lon="13.6971717"><ele>843.0</ele><time>2026-05-02T10:50:10.288Z</time></trkpt><trkpt lat="42.1999" lon="13.6971183"><ele>843.0</ele><time>2026-05-02T10:50:13.288Z</time></trkpt><trkpt lat="42.19997" lon="13.6970933"><ele>843.0</ele><time>2026-05-02T10:50:15.288Z</time></trkpt><trkpt lat="42.2000433" lon="13.6970767"><ele>843.0</ele><time>2026-05-02T10:50:17.288Z</time></trkpt><trkpt lat="42.2001183" lon="13.6970583"><ele>843.0</ele><time>2026-05-02T10:50:19.288Z</time></trkpt><trkpt lat="42.20021" lon="13.6970083"><ele>843.5</ele><time>2026-05-02T10:50:21.288Z</time></trkpt><trkpt lat="42.2002833" lon="13.6969667"><ele>844.0</ele><time>2026-05-02T10:50:23.288Z</time></trkpt><trkpt lat="42.200365" lon="13.6969583"><ele>844.5</ele><time>2026-05-02T10:50:25.288Z</time></trkpt><trkpt lat="42.200435" lon="13.696945"><ele>845.0</ele><time>2026-05-02T10:50:27.288Z</time></trkpt><trkpt lat="42.2005033" lon="13.6969167"><ele>845.5</ele><time>2026-05-02T10:50:29.288Z</time></trkpt><trkpt lat="42.2005867" lon="13.6968683"><ele>846.0</ele><time>2026-05-02T10:50:31.288Z</time></trkpt><trkpt lat="42.20067" lon="13.69681"><ele>846.0</ele><time>2026-05-02T10:50:33.288Z</time></trkpt><trkpt lat="42.2007617" lon="13.6967483"><ele>846.0</ele><time>2026-05-02T10:50:35.288Z</time></trkpt><trkpt lat="42.2008283" lon="13.6966883"><ele>846.0</ele><time>2026-05-02T10:50:37.289Z</time></trkpt><trkpt lat="42.200835" lon="13.6965783"><ele>846.0</ele><time>2026-05-02T10:50:40.288Z</time></trkpt><trkpt lat="42.2007633" lon="13.6965333"><ele>846.0</ele><time>2026-05-02T10:50:43.288Z</time></trkpt><trkpt lat="42.2006967" lon="13.696575"><ele>846.0</ele><time>2026-05-02T10:50:46.288Z</time></trkpt><trkpt lat="42.2006067" lon="13.6965167"><ele>846.0</ele><time>2026-05-02T10:51:57.289Z</time></trkpt><trkpt lat="42.2005633" lon="13.6964533"><ele>846.0</ele><time>2026-05-02T10:52:01.288Z</time></trkpt><trkpt lat="42.2006267" lon="13.6965138"><ele>846.0</ele><time>2026-05-02T10:52:08.314Z</time></trkpt><trkpt lat="42.2005128" lon="13.69654"><ele>846.0</ele><time>2026-05-02T10:52:17.354Z</time></trkpt><trkpt lat="42.200456" lon="13.6964961"><ele>846.0</ele><time>2026-05-02T10:52:19.374Z</time></trkpt><trkpt lat="42.2004022" lon="13.6964282"><ele>846.0</ele><time>2026-05-02T10:52:21.395Z</time></trkpt><trkpt lat="42.2003451" lon="13.6963758"><ele>846.0</ele><time>2026-05-02T10:52:23.417Z</time></trkpt><trkpt lat="42.2001682" lon="13.6962884"><ele>846.0</ele><time>2026-05-02T10:52:25.329Z</time></trkpt><trkpt lat="42.200095" lon="13.6962533"><ele>846.0</ele><time>2026-05-02T10:53:08.288Z</time></trkpt><trkpt lat="42.2000217" lon="13.6962533"><ele>846.0</ele><time>2026-05-02T10:53:11.288Z</time></trkpt><trkpt lat="42.1999633" lon="13.6962917"><ele>846.0</ele><time>2026-05-02T10:53:13.288Z</time></trkpt><trkpt lat="42.1999" lon="13.6963483"><ele>846.0</ele><time>2026-05-02T10:53:15.288Z</time></trkpt><trkpt lat="42.1999594" lon="13.6962973"><ele>846.0</ele><time>2026-05-02T10:53:16.375Z</time></trkpt><trkpt lat="42.1998835" lon="13.6963516"><ele>846.0</ele><time>2026-05-02T10:53:17.294Z</time></trkpt><trkpt lat="42.1997244" lon="13.6963197"><ele>846.0</ele><time>2026-05-02T10:53:21.394Z</time></trkpt><trkpt lat="42.199648" lon="13.6962175"><ele>846.0</ele><time>2026-05-02T10:53:25.217Z</time></trkpt><trkpt lat="42.1996121" lon="13.6961303"><ele>837.5999999999999</ele><time>2026-05-02T10:53:27.194Z</time></trkpt><trkpt lat="42.1995395" lon="13.6959982"><ele>829.2</ele><time>2026-05-02T10:53:28.288Z</time></trkpt><trkpt lat="42.1994662" lon="13.6958755"><ele>820.8</ele><time>2026-05-02T10:53:30.289Z</time></trkpt><trkpt lat="42.1994117" lon="13.6957767"><ele>812.4000000000001</ele><time>2026-05-02T10:53:32.289Z</time></trkpt><trkpt lat="42.1993483" lon="13.6956617"><ele>804.0</ele><time>2026-05-02T10:53:34.288Z</time></trkpt><trkpt lat="42.199285" lon="13.695525"><ele>804.0</ele><time>2026-05-02T10:53:36.288Z</time></trkpt><trkpt lat="42.1992317" lon="13.69538"><ele>804.0</ele><time>2026-05-02T10:53:38.288Z</time></trkpt><trkpt lat="42.199195" lon="13.6952433"><ele>804.0</ele><time>2026-05-02T10:53:40.288Z</time></trkpt><trkpt lat="42.1991467" lon="13.6951217"><ele>804.0</ele><time>2026-05-02T10:53:42.288Z</time></trkpt><trkpt lat="42.1990967" lon="13.6950133"><ele>804.0</ele><time>2026-05-02T10:53:44.288Z</time></trkpt><trkpt lat="42.1990367" lon="13.6949333"><ele>799.8000000000001</ele><time>2026-05-02T10:53:46.288Z</time></trkpt><trkpt lat="42.1989467" lon="13.6949017"><ele>795.6</ele><time>2026-05-02T10:53:48.288Z</time></trkpt><trkpt lat="42.198875" lon="13.69494"><ele>791.4</ele><time>2026-05-02T10:53:50.288Z</time></trkpt><trkpt lat="42.19881" lon="13.6950467"><ele>787.2</ele><time>2026-05-02T10:53:52.288Z</time></trkpt><trkpt lat="42.1987533" lon="13.69519"><ele>783.0</ele><time>2026-05-02T10:53:54.288Z</time></trkpt><trkpt lat="42.1986917" lon="13.6953233"><ele>783.0</ele><time>2026-05-02T10:53:56.288Z</time></trkpt><trkpt lat="42.1986267" lon="13.6954367"><ele>783.0</ele><time>2026-05-02T10:53:58.288Z</time></trkpt><trkpt lat="42.1985683" lon="13.695535"><ele>783.0</ele><time>2026-05-02T10:54:00.288Z</time></trkpt><trkpt lat="42.1985" lon="13.69558"><ele>783.0</ele><time>2026-05-02T10:54:02.288Z</time></trkpt><trkpt lat="42.19843" lon="13.69555"><ele>783.0</ele><time>2026-05-02T10:54:04.288Z</time></trkpt><trkpt lat="42.1983717" lon="13.695485"><ele>783.0</ele><time>2026-05-02T10:54:06.288Z</time></trkpt><trkpt lat="42.1982917" lon="13.6954617"><ele>783.0</ele><time>2026-05-02T10:54:08.288Z</time></trkpt><trkpt lat="42.1981983" lon="13.6954433"><ele>783.0</ele><time>2026-05-02T10:54:10.288Z</time></trkpt><trkpt lat="42.1981233" lon="13.6954817"><ele>783.0</ele><time>2026-05-02T10:54:12.288Z</time></trkpt><trkpt lat="42.1980583" lon="13.6955483"><ele>783.0</ele><time>2026-05-02T10:54:14.289Z</time></trkpt><trkpt lat="42.1979817" lon="13.69561"><ele>783.0</ele><time>2026-05-02T10:54:16.288Z</time></trkpt><trkpt lat="42.1978783" lon="13.6956583"><ele>779.8333333333334</ele><time>2026-05-02T10:54:18.288Z</time></trkpt><trkpt lat="42.1977533" lon="13.6957017"><ele>776.6666666666666</ele><time>2026-05-02T10:54:20.289Z</time></trkpt><trkpt lat="42.1976783" lon="13.69573"><ele>773.5</ele><time>2026-05-02T10:54:21.288Z</time></trkpt><trkpt lat="42.1976067" lon="13.6957433"><ele>770.3333333333333</ele><time>2026-05-02T10:54:22.289Z</time></trkpt><trkpt lat="42.1975417" lon="13.6957633"><ele>767.1666666666666</ele><time>2026-05-02T10:54:23.288Z</time></trkpt><trkpt lat="42.197475" lon="13.695785"><ele>764.0</ele><time>2026-05-02T10:54:24.288Z</time></trkpt><trkpt lat="42.1974117" lon="13.695805"><ele>760.4000000000001</ele><time>2026-05-02T10:54:25.288Z</time></trkpt><trkpt lat="42.1973083" lon="13.6958367"><ele>756.8</ele><time>2026-05-02T10:54:27.288Z</time></trkpt><trkpt lat="42.19722" lon="13.6958767"><ele>753.2</ele><time>2026-05-02T10:54:29.288Z</time></trkpt><trkpt lat="42.19712" lon="13.695905"><ele>749.5999999999999</ele><time>2026-05-02T10:54:31.288Z</time></trkpt><trkpt lat="42.1970033" lon="13.6959417"><ele>746.0</ele><time>2026-05-02T10:54:33.288Z</time></trkpt><trkpt lat="42.1969383" lon="13.6959683"><ele>746.0</ele><time>2026-05-02T10:54:34.289Z</time></trkpt><trkpt lat="42.1968683" lon="13.6959933"><ele>746.0</ele><time>2026-05-02T10:54:35.288Z</time></trkpt><trkpt lat="42.1967983" lon="13.69602"><ele>746.0</ele><time>2026-05-02T10:54:36.288Z</time></trkpt><trkpt lat="42.196725" lon="13.696045"><ele>746.0</ele><time>2026-05-02T10:54:37.288Z</time></trkpt><trkpt lat="42.19666" lon="13.6960667"><ele>746.0</ele><time>2026-05-02T10:54:38.288Z</time></trkpt><trkpt lat="42.196565" lon="13.6961183"><ele>746.0</ele><time>2026-05-02T10:54:40.288Z</time></trkpt><trkpt lat="42.1965167" lon="13.6962283"><ele>743.3333333333333</ele><time>2026-05-02T10:54:43.288Z</time></trkpt><trkpt lat="42.1965017" lon="13.6963167"><ele>740.6666666666666</ele><time>2026-05-02T10:54:46.287Z</time></trkpt><trkpt lat="42.1964376" lon="13.696288"><ele>738.0</ele><time>2026-05-02T10:54:50.317Z</time></trkpt><trkpt lat="42.1964567" lon="13.6961839"><ele>735.3333333333334</ele><time>2026-05-02T10:54:53.401Z</time></trkpt><trkpt lat="42.1964267" lon="13.6960367"><ele>732.6666666666667</ele><time>2026-05-02T11:01:21.287Z</time></trkpt><trkpt lat="42.1964083" lon="13.69589"><ele>730.0</ele><time>2026-05-02T11:01:23.287Z</time></trkpt><trkpt lat="42.196395" lon="13.6957983"><ele>730.0</ele><time>2026-05-02T11:01:24.287Z</time></trkpt><trkpt lat="42.19638" lon="13.695715"><ele>730.0</ele><time>2026-05-02T11:01:25.287Z</time></trkpt><trkpt lat="42.196355" lon="13.6955583"><ele>730.0</ele><time>2026-05-02T11:01:27.287Z</time></trkpt><trkpt lat="42.1963367" lon="13.695475"><ele>730.0</ele><time>2026-05-02T11:01:28.287Z</time></trkpt><trkpt lat="42.1963183" lon="13.6953917"><ele>730.0</ele><time>2026-05-02T11:01:29.288Z</time></trkpt><trkpt lat="42.1963" lon="13.695295"><ele>730.0</ele><time>2026-05-02T11:01:30.287Z</time></trkpt><trkpt lat="42.1962883" lon="13.6951883"><ele>730.5</ele><time>2026-05-02T11:01:31.287Z</time></trkpt><trkpt lat="42.19627" lon="13.69509"><ele>731.0</ele><time>2026-05-02T11:01:32.287Z</time></trkpt><trkpt lat="42.1962483" lon="13.6949833"><ele>731.5</ele><time>2026-05-02T11:01:33.287Z</time></trkpt><trkpt lat="42.1962333" lon="13.694875"><ele>732.0</ele><time>2026-05-02T11:01:34.288Z</time></trkpt><trkpt lat="42.1962233" lon="13.6947583"><ele>732.5</ele><time>2026-05-02T11:01:35.287Z</time></trkpt><trkpt lat="42.196205" lon="13.6946517"><ele>733.0</ele><time>2026-05-02T11:01:36.287Z</time></trkpt><trkpt lat="42.1961783" lon="13.69455"><ele>733.0</ele><time>2026-05-02T11:01:37.287Z</time></trkpt><trkpt lat="42.1961517" lon="13.6944617"><ele>733.0</ele><time>2026-05-02T11:01:38.287Z</time></trkpt><trkpt lat="42.1961133" lon="13.6943233"><ele>733.0</ele><time>2026-05-02T11:01:40.287Z</time></trkpt><trkpt lat="42.196075" lon="13.6941733"><ele>733.0</ele><time>2026-05-02T11:01:42.287Z</time></trkpt><trkpt lat="42.1960383" lon="13.6940167"><ele>733.0</ele><time>2026-05-02T11:01:44.287Z</time></trkpt><trkpt lat="42.1960133" lon="13.693865"><ele>732.5999999999999</ele><time>2026-05-02T11:01:46.287Z</time></trkpt><trkpt lat="42.1959933" lon="13.69372"><ele>732.1999999999999</ele><time>2026-05-02T11:01:48.287Z</time></trkpt><trkpt lat="42.1959717" lon="13.6936"><ele>731.8</ele><time>2026-05-02T11:01:50.287Z</time></trkpt><trkpt lat="42.1959533" lon="13.6934667"><ele>731.4</ele><time>2026-05-02T11:01:52.288Z</time></trkpt><trkpt lat="42.19594" lon="13.6933517"><ele>731.0</ele><time>2026-05-02T11:01:54.287Z</time></trkpt><trkpt lat="42.1959517" lon="13.6931922"><ele>729.5999999999999</ele><time>2026-05-02T11:01:57.343Z</time></trkpt><trkpt lat="42.1959645" lon="13.6930991"><ele>728.2</ele><time>2026-05-02T11:01:58.445Z</time></trkpt><trkpt lat="42.19588" lon="13.692955"><ele>726.8</ele><time>2026-05-02T11:02:01.287Z</time></trkpt><trkpt lat="42.1958567" lon="13.6928117"><ele>725.4000000000001</ele><time>2026-05-02T11:02:03.287Z</time></trkpt><trkpt lat="42.1958383" lon="13.6926617"><ele>724.0</ele><time>2026-05-02T11:02:05.287Z</time></trkpt><trkpt lat="42.1958383" lon="13.692525"><ele>722.0</ele><time>2026-05-02T11:02:07.287Z</time></trkpt><trkpt lat="42.19584" lon="13.69237"><ele>720.0</ele><time>2026-05-02T11:02:09.287Z</time></trkpt><trkpt lat="42.19584" lon="13.6922233"><ele>718.0</ele><time>2026-05-02T11:02:11.287Z</time></trkpt><trkpt lat="42.1958433" lon="13.6920833"><ele>716.0</ele><time>2026-05-02T11:02:13.287Z</time></trkpt><trkpt lat="42.1958433" lon="13.6919333"><ele>714.0</ele><time>2026-05-02T11:02:15.287Z</time></trkpt><trkpt lat="42.1958433" lon="13.691785"><ele>712.6</ele><time>2026-05-02T11:02:17.287Z</time></trkpt><trkpt lat="42.1958417" lon="13.6916517"><ele>711.2</ele><time>2026-05-02T11:02:19.287Z</time></trkpt><trkpt lat="42.1958283" lon="13.691515"><ele>709.8000000000001</ele><time>2026-05-02T11:02:21.287Z</time></trkpt><trkpt lat="42.19578" lon="13.6913733"><ele>708.4000000000001</ele><time>2026-05-02T11:02:23.287Z</time></trkpt><trkpt lat="42.1957267" lon="13.69124"><ele>707.0</ele><time>2026-05-02T11:02:25.287Z</time></trkpt><trkpt lat="42.1956767" lon="13.69111"><ele>704.0</ele><time>2026-05-02T11:02:27.287Z</time></trkpt><trkpt lat="42.1956217" lon="13.6909833"><ele>701.0</ele><time>2026-05-02T11:02:29.287Z</time></trkpt><trkpt lat="42.195545" lon="13.690875"><ele>698.0</ele><time>2026-05-02T11:02:31.287Z</time></trkpt><trkpt lat="42.1954533" lon="13.6908017"><ele>695.0</ele><time>2026-05-02T11:02:33.287Z</time></trkpt><trkpt lat="42.1953467" lon="13.6907467"><ele>692.0</ele><time>2026-05-02T11:02:35.288Z</time></trkpt><trkpt lat="42.195235" lon="13.69071"><ele>692.0</ele><time>2026-05-02T11:02:37.287Z</time></trkpt><trkpt lat="42.1951317" lon="13.6906783"><ele>692.0</ele><time>2026-05-02T11:02:39.287Z</time></trkpt><trkpt lat="42.1950367" lon="13.6906317"><ele>692.0</ele><time>2026-05-02T11:02:41.287Z</time></trkpt><trkpt lat="42.1949167" lon="13.6905783"><ele>692.0</ele><time>2026-05-02T11:02:43.288Z</time></trkpt><trkpt lat="42.1948483" lon="13.690555"><ele>692.0</ele><time>2026-05-02T11:02:44.287Z</time></trkpt><trkpt lat="42.1947817" lon="13.6905333"><ele>689.6</ele><time>2026-05-02T11:02:45.287Z</time></trkpt><trkpt lat="42.1947133" lon="13.6905117"><ele>687.2</ele><time>2026-05-02T11:02:46.287Z</time></trkpt><trkpt lat="42.19465" lon="13.690495"><ele>684.8</ele><time>2026-05-02T11:02:47.287Z</time></trkpt><trkpt lat="42.194535" lon="13.6904667"><ele>682.4</ele><time>2026-05-02T11:02:49.287Z</time></trkpt><trkpt lat="42.1944367" lon="13.6904233"><ele>680.0</ele><time>2026-05-02T11:02:51.287Z</time></trkpt><trkpt lat="42.194345" lon="13.6903533"><ele>679.4</ele><time>2026-05-02T11:02:53.287Z</time></trkpt><trkpt lat="42.1942533" lon="13.690255"><ele>678.8</ele><time>2026-05-02T11:02:55.287Z</time></trkpt><trkpt lat="42.1941717" lon="13.6901333"><ele>678.2</ele><time>2026-05-02T11:02:57.287Z</time></trkpt><trkpt lat="42.19409" lon="13.6900133"><ele>677.6</ele><time>2026-05-02T11:02:59.287Z</time></trkpt><trkpt lat="42.1940467" lon="13.6899467"><ele>677.0</ele><time>2026-05-02T11:03:00.287Z</time></trkpt><trkpt lat="42.19398" lon="13.6898183"><ele>675.8</ele><time>2026-05-02T11:03:02.286Z</time></trkpt><trkpt lat="42.19393" lon="13.6896833"><ele>674.6</ele><time>2026-05-02T11:03:04.286Z</time></trkpt><trkpt lat="42.1938783" lon="13.68956"><ele>673.4</ele><time>2026-05-02T11:03:06.286Z</time></trkpt><trkpt lat="42.1938067" lon="13.6894717"><ele>672.1999999999999</ele><time>2026-05-02T11:03:08.287Z</time></trkpt><trkpt lat="42.19371" lon="13.6894267"><ele>671.0</ele><time>2026-05-02T11:03:10.287Z</time></trkpt><trkpt lat="42.1936283" lon="13.689425"><ele>671.0</ele><time>2026-05-02T11:03:12.286Z</time></trkpt><trkpt lat="42.1935383" lon="13.6894267"><ele>671.0</ele><time>2026-05-02T11:03:14.286Z</time></trkpt><trkpt lat="42.1934533" lon="13.6893933"><ele>671.0</ele><time>2026-05-02T11:03:17.286Z</time></trkpt><trkpt lat="42.19339" lon="13.6892783"><ele>671.0</ele><time>2026-05-02T11:03:19.286Z</time></trkpt><trkpt lat="42.1933433" lon="13.6891933"><ele>671.0</ele><time>2026-05-02T11:03:20.286Z</time></trkpt><trkpt lat="42.1932933" lon="13.68911"><ele>671.0</ele><time>2026-05-02T11:03:21.286Z</time></trkpt><trkpt lat="42.1932433" lon="13.6890417"><ele>671.0</ele><time>2026-05-02T11:03:22.287Z</time></trkpt><trkpt lat="42.1931933" lon="13.688985"><ele>671.0</ele><time>2026-05-02T11:03:23.286Z</time></trkpt><trkpt lat="42.1931617" lon="13.6889083"><ele>671.0</ele><time>2026-05-02T11:03:24.286Z</time></trkpt><trkpt lat="42.1931317" lon="13.6888317"><ele>671.0</ele><time>2026-05-02T11:03:25.287Z</time></trkpt><trkpt lat="42.193105" lon="13.6887483"><ele>671.0</ele><time>2026-05-02T11:03:26.286Z</time></trkpt><trkpt lat="42.1930783" lon="13.688655"><ele>671.0</ele><time>2026-05-02T11:03:27.286Z</time></trkpt><trkpt lat="42.1930567" lon="13.6885467"><ele>671.0</ele><time>2026-05-02T11:03:28.286Z</time></trkpt><trkpt lat="42.193035" lon="13.6884417"><ele>671.8333333333333</ele><time>2026-05-02T11:03:29.286Z</time></trkpt><trkpt lat="42.1930183" lon="13.688335"><ele>672.6666666666666</ele><time>2026-05-02T11:03:30.286Z</time></trkpt><trkpt lat="42.1930117" lon="13.68823"><ele>673.5</ele><time>2026-05-02T11:03:31.286Z</time></trkpt><trkpt lat="42.19302" lon="13.6881117"><ele>674.3333333333334</ele><time>2026-05-02T11:03:32.286Z</time></trkpt><trkpt lat="42.1930367" lon="13.6880017"><ele>675.1666666666667</ele><time>2026-05-02T11:03:33.287Z</time></trkpt><trkpt lat="42.1930533" lon="13.6878933"><ele>676.0</ele><time>2026-05-02T11:03:34.286Z</time></trkpt><trkpt lat="42.19306" lon="13.687785"><ele>676.1666666666667</ele><time>2026-05-02T11:03:35.286Z</time></trkpt><trkpt lat="42.1930483" lon="13.687665"><ele>676.3333333333334</ele><time>2026-05-02T11:03:36.286Z</time></trkpt><trkpt lat="42.1930217" lon="13.6875467"><ele>676.5</ele><time>2026-05-02T11:03:37.286Z</time></trkpt><trkpt lat="42.1929967" lon="13.6874417"><ele>676.6666666666666</ele><time>2026-05-02T11:03:38.286Z</time></trkpt><trkpt lat="42.192975" lon="13.6873483"><ele>676.8333333333333</ele><time>2026-05-02T11:03:39.287Z</time></trkpt><trkpt lat="42.1929567" lon="13.6872517"><ele>677.0</ele><time>2026-05-02T11:03:40.286Z</time></trkpt><trkpt lat="42.1929433" lon="13.6871583"><ele>677.0</ele><time>2026-05-02T11:03:41.286Z</time></trkpt><trkpt lat="42.1929517" lon="13.68705"><ele>677.0</ele><time>2026-05-02T11:03:42.286Z</time></trkpt><trkpt lat="42.19298" lon="13.6869217"><ele>677.0</ele><time>2026-05-02T11:03:43.286Z</time></trkpt><trkpt lat="42.19301" lon="13.6867767"><ele>677.0</ele><time>2026-05-02T11:03:44.286Z</time></trkpt><trkpt lat="42.193055" lon="13.6866267"><ele>677.0</ele><time>2026-05-02T11:03:45.286Z</time></trkpt><trkpt lat="42.193095" lon="13.68648"><ele>676.6</ele><time>2026-05-02T11:03:46.286Z</time></trkpt><trkpt lat="42.19313" lon="13.6863367"><ele>676.2</ele><time>2026-05-02T11:03:47.286Z</time></trkpt><trkpt lat="42.193165" lon="13.6862017"><ele>675.8</ele><time>2026-05-02T11:03:48.286Z</time></trkpt><trkpt lat="42.19319" lon="13.686075"><ele>675.4</ele><time>2026-05-02T11:03:49.286Z</time></trkpt><trkpt lat="42.19321" lon="13.685965"><ele>675.0</ele><time>2026-05-02T11:03:50.286Z</time></trkpt><trkpt lat="42.1932183" lon="13.68585"><ele>675.0</ele><time>2026-05-02T11:03:51.286Z</time></trkpt><trkpt lat="42.1932033" lon="13.68573"><ele>675.0</ele><time>2026-05-02T11:03:52.286Z</time></trkpt><trkpt lat="42.193185" lon="13.6856017"><ele>675.0</ele><time>2026-05-02T11:03:53.286Z</time></trkpt><trkpt lat="42.19317" lon="13.6854633"><ele>675.0</ele><time>2026-05-02T11:03:54.286Z</time></trkpt><trkpt lat="42.1931667" lon="13.6853417"><ele>675.0</ele><time>2026-05-02T11:03:55.286Z</time></trkpt><trkpt lat="42.1931717" lon="13.685225"><ele>674.5</ele><time>2026-05-02T11:03:56.287Z</time></trkpt><trkpt lat="42.1931783" lon="13.6851033"><ele>674.0</ele><time>2026-05-02T11:03:57.286Z</time></trkpt><trkpt lat="42.1930783" lon="13.688655"><ele>674.3333333333333</ele><time>2026-05-02T11:03:27.286Z</time></trkpt><trkpt lat="42.1930567" lon="13.6885467"><ele>674.6666666666666</ele><time>2026-05-02T11:03:28.286Z</time></trkpt><trkpt lat="42.193035" lon="13.6884417"><ele>675.0</ele><time>2026-05-02T11:03:29.286Z</time></trkpt><trkpt lat="42.1930183" lon="13.688335"><ele>675.3333333333334</ele><time>2026-05-02T11:03:30.286Z</time></trkpt><trkpt lat="42.1930117" lon="13.68823"><ele>675.6666666666667</ele><time>2026-05-02T11:03:31.286Z</time></trkpt><trkpt lat="42.19302" lon="13.6881117"><ele>676.0</ele><time>2026-05-02T11:03:32.286Z</time></trkpt><trkpt lat="42.1930367" lon="13.6880017"><ele>676.0</ele><time>2026-05-02T11:03:33.287Z</time></trkpt><trkpt lat="42.1930533" lon="13.6878933"><ele>676.0</ele><time>2026-05-02T11:03:34.286Z</time></trkpt><trkpt lat="42.19306" lon="13.687785"><ele>676.0</ele><time>2026-05-02T11:03:35.286Z</time></trkpt><trkpt lat="42.1930483" lon="13.687665"><ele>676.0</ele><time>2026-05-02T11:03:36.286Z</time></trkpt><trkpt lat="42.1930217" lon="13.6875467"><ele>676.0</ele><time>2026-05-02T11:03:37.286Z</time></trkpt><trkpt lat="42.1929967" lon="13.6874417"><ele>676.0</ele><time>2026-05-02T11:03:38.286Z</time></trkpt><trkpt lat="42.192975" lon="13.6873483"><ele>676.1666666666667</ele><time>2026-05-02T11:03:39.287Z</time></trkpt><trkpt lat="42.1929567" lon="13.6872517"><ele>676.3333333333334</ele><time>2026-05-02T11:03:40.286Z</time></trkpt><trkpt lat="42.1929433" lon="13.6871583"><ele>676.5</ele><time>2026-05-02T11:03:41.286Z</time></trkpt><trkpt lat="42.1929517" lon="13.68705"><ele>676.6666666666666</ele><time>2026-05-02T11:03:42.286Z</time></trkpt><trkpt lat="42.19298" lon="13.6869217"><ele>676.8333333333333</ele><time>2026-05-02T11:03:43.286Z</time></trkpt><trkpt lat="42.19301" lon="13.6867767"><ele>677.0</ele><time>2026-05-02T11:03:44.286Z</time></trkpt><trkpt lat="42.193055" lon="13.6866267"><ele>676.6</ele><time>2026-05-02T11:03:45.286Z</time></trkpt><trkpt lat="42.193095" lon="13.68648"><ele>676.2</ele><time>2026-05-02T11:03:46.286Z</time></trkpt><trkpt lat="42.19313" lon="13.6863367"><ele>675.8</ele><time>2026-05-02T11:03:47.286Z</time></trkpt><trkpt lat="42.193165" lon="13.6862017"><ele>675.4</ele><time>2026-05-02T11:03:48.286Z</time></trkpt><trkpt lat="42.19319" lon="13.686075"><ele>675.0</ele><time>2026-05-02T11:03:49.286Z</time></trkpt><trkpt lat="42.19321" lon="13.685965"><ele>675.0</ele><time>2026-05-02T11:03:50.286Z</time></trkpt><trkpt lat="42.1932183" lon="13.68585"><ele>675.0</ele><time>2026-05-02T11:03:51.286Z</time></trkpt><trkpt lat="42.1932033" lon="13.68573"><ele>675.0</ele><time>2026-05-02T11:03:52.286Z</time></trkpt><trkpt lat="42.193185" lon="13.6856017"><ele>675.0</ele><time>2026-05-02T11:03:53.286Z</time></trkpt><trkpt lat="42.19317" lon="13.6854633"><ele>675.0</ele><time>2026-05-02T11:03:54.286Z</time></trkpt><trkpt lat="42.1931667" lon="13.6853417"><ele>674.8333333333334</ele><time>2026-05-02T11:03:55.286Z</time></trkpt><trkpt lat="42.1931717" lon="13.685225"><ele>674.6666666666666</ele><time>2026-05-02T11:03:56.287Z</time></trkpt><trkpt lat="42.1931783" lon="13.6851033"><ele>674.5</ele><time>2026-05-02T11:03:57.286Z</time></trkpt><trkpt lat="42.1931883" lon="13.6849883"><ele>674.3333333333333</ele><time>2026-05-02T11:03:58.286Z</time></trkpt><trkpt lat="42.1931933" lon="13.6848767"><ele>674.1666666666666</ele><time>2026-05-02T11:03:59.286Z</time></trkpt><trkpt lat="42.1931833" lon="13.6847533"><ele>674.0</ele><time>2026-05-02T11:04:00.286Z</time></trkpt><trkpt lat="42.193165" lon="13.6846167"><ele>671.6</ele><time>2026-05-02T11:04:01.286Z</time></trkpt><trkpt lat="42.1931317" lon="13.6844683"><ele>669.2</ele><time>2026-05-02T11:04:02.286Z</time></trkpt><trkpt lat="42.1931033" lon="13.68433"><ele>666.8000000000001</ele><time>2026-05-02T11:04:03.286Z</time></trkpt><trkpt lat="42.1930733" lon="13.6841983"><ele>664.4000000000001</ele><time>2026-05-02T11:04:04.286Z</time></trkpt><trkpt lat="42.1930517" lon="13.684075"><ele>662.0</ele><time>2026-05-02T11:04:05.286Z</time></trkpt><trkpt lat="42.1930233" lon="13.683935"><ele>661.8</ele><time>2026-05-02T11:04:06.286Z</time></trkpt><trkpt lat="42.1929933" lon="13.6838067"><ele>661.6</ele><time>2026-05-02T11:04:07.286Z</time></trkpt><trkpt lat="42.1929633" lon="13.6836867"><ele>661.4</ele><time>2026-05-02T11:04:08.286Z</time></trkpt><trkpt lat="42.1929367" lon="13.68356"><ele>661.1999999999999</ele><time>2026-05-02T11:04:09.286Z</time></trkpt><trkpt lat="42.1929" lon="13.683415"><ele>661.0</ele><time>2026-05-02T11:04:10.286Z</time></trkpt><trkpt lat="42.1928683" lon="13.6832633"><ele>661.5999999999999</ele><time>2026-05-02T11:04:11.286Z</time></trkpt><trkpt lat="42.192845" lon="13.683125"><ele>662.2</ele><time>2026-05-02T11:04:12.286Z</time></trkpt><trkpt lat="42.19282" lon="13.6829833"><ele>662.8</ele><time>2026-05-02T11:04:13.286Z</time></trkpt><trkpt lat="42.1927983" lon="13.6828567"><ele>663.4000000000001</ele><time>2026-05-02T11:04:14.286Z</time></trkpt><trkpt lat="42.19277" lon="13.6827267"><ele>664.0</ele><time>2026-05-02T11:04:15.286Z</time></trkpt><trkpt lat="42.1927433" lon="13.6826083"><ele>664.1666666666667</ele><time>2026-05-02T11:04:16.286Z</time></trkpt><trkpt lat="42.19273" lon="13.682495"><ele>664.3333333333334</ele><time>2026-05-02T11:04:17.286Z</time></trkpt><trkpt lat="42.192715" lon="13.682405"><ele>664.5</ele><time>2026-05-02T11:04:18.286Z</time></trkpt><trkpt lat="42.192695" lon="13.682315"><ele>664.6666666666666</ele><time>2026-05-02T11:04:19.286Z</time></trkpt><trkpt lat="42.19264" lon="13.6821817"><ele>664.8333333333333</ele><time>2026-05-02T11:04:21.286Z</time></trkpt><trkpt lat="42.19263" lon="13.6820517"><ele>665.0</ele><time>2026-05-02T11:04:23.286Z</time></trkpt><trkpt lat="42.1926683" lon="13.6819083"><ele>665.0</ele><time>2026-05-02T11:04:25.286Z</time></trkpt><trkpt lat="42.192695" lon="13.68182"><ele>665.0</ele><time>2026-05-02T11:04:26.286Z</time></trkpt><trkpt lat="42.1927183" lon="13.6817367"><ele>665.0</ele><time>2026-05-02T11:04:27.286Z</time></trkpt><trkpt lat="42.1927533" lon="13.6815967"><ele>665.0</ele><time>2026-05-02T11:04:29.286Z</time></trkpt><trkpt lat="42.19276" lon="13.68144"><ele>665.0</ele><time>2026-05-02T11:04:31.286Z</time></trkpt><trkpt lat="42.19274" lon="13.6813017"><ele>665.0</ele><time>2026-05-02T11:04:33.287Z</time></trkpt><trkpt lat="42.192755" lon="13.6811567"><ele>665.0</ele><time>2026-05-02T11:04:35.286Z</time></trkpt><trkpt lat="42.1928117" lon="13.68105"><ele>665.0</ele><time>2026-05-02T11:04:37.287Z</time></trkpt><trkpt lat="42.19289" lon="13.6809767"><ele>665.0</ele><time>2026-05-02T11:04:39.286Z</time></trkpt><trkpt lat="42.192955" lon="13.6809083"><ele>665.0</ele><time>2026-05-02T11:04:42.286Z</time></trkpt><trkpt lat="42.1930283" lon="13.68085"><ele>662.8333333333333</ele><time>2026-05-02T11:04:45.286Z</time></trkpt><trkpt lat="42.193075" lon="13.68076"><ele>660.6666666666666</ele><time>2026-05-02T11:04:48.286Z</time></trkpt><trkpt lat="42.19305" lon="13.6806583"><ele>658.5</ele><time>2026-05-02T11:04:50.286Z</time></trkpt><trkpt lat="42.1930052" lon="13.6805801"><ele>656.3333333333334</ele><time>2026-05-02T11:04:52.424Z</time></trkpt><trkpt lat="42.1929788" lon="13.6803913"><ele>654.1666666666667</ele><time>2026-05-02T11:04:54.286Z</time></trkpt><trkpt lat="42.1929653" lon="13.6803059"><ele>652.0</ele><time>2026-05-02T11:04:55.286Z</time></trkpt><trkpt lat="42.1929553" lon="13.6801462"><ele>649.6666666666667</ele><time>2026-05-02T11:04:57.286Z</time></trkpt><trkpt lat="42.1929417" lon="13.6800307"><ele>647.3333333333334</ele><time>2026-05-02T11:04:59.286Z</time></trkpt><trkpt lat="42.19295" lon="13.67989"><ele>645.0</ele><time>2026-05-02T11:05:16.286Z</time></trkpt><trkpt lat="42.19296" lon="13.6797917"><ele>642.6666666666666</ele><time>2026-05-02T11:05:17.286Z</time></trkpt><trkpt lat="42.1929833" lon="13.6796883"><ele>640.3333333333333</ele><time>2026-05-02T11:05:18.286Z</time></trkpt><trkpt lat="42.1930117" lon="13.6795717"><ele>638.0</ele><time>2026-05-02T11:05:19.286Z</time></trkpt><trkpt lat="42.19306" lon="13.679455"><ele>637.75</ele><time>2026-05-02T11:05:20.286Z</time></trkpt><trkpt lat="42.1931183" lon="13.679325"><ele>637.5</ele><time>2026-05-02T11:05:21.286Z</time></trkpt><trkpt lat="42.1931917" lon="13.6791933"><ele>637.25</ele><time>2026-05-02T11:05:22.286Z</time></trkpt><trkpt lat="42.1932933" lon="13.6790617"><ele>637.0</ele><time>2026-05-02T11:05:23.286Z</time></trkpt><trkpt lat="42.1933983" lon="13.67889"><ele>637.6666666666667</ele><time>2026-05-02T11:05:24.286Z</time></trkpt><trkpt lat="42.1935167" lon="13.6787217"><ele>638.3333333333334</ele><time>2026-05-02T11:05:25.286Z</time></trkpt><trkpt lat="42.19363" lon="13.6785583"><ele>639.0</ele><time>2026-05-02T11:05:26.286Z</time></trkpt><trkpt lat="42.1937317" lon="13.6783767"><ele>639.0</ele><time>2026-05-02T11:05:27.286Z</time></trkpt><trkpt lat="42.193845" lon="13.6782"><ele>639.0</ele><time>2026-05-02T11:05:28.286Z</time></trkpt><trkpt lat="42.19397" lon="13.6780267"><ele>639.0</ele><time>2026-05-02T11:05:29.286Z</time></trkpt><trkpt lat="42.1941" lon="13.6778483"><ele>640.3333333333334</ele><time>2026-05-02T11:05:30.286Z</time></trkpt><trkpt lat="42.1942283" lon="13.677655"><ele>641.6666666666667</ele><time>2026-05-02T11:05:31.286Z</time></trkpt><trkpt lat="42.194355" lon="13.67746"><ele>643.0</ele><time>2026-05-02T11:05:32.286Z</time></trkpt><trkpt lat="42.194485" lon="13.6772683"><ele>643.0</ele><time>2026-05-02T11:05:33.286Z</time></trkpt><trkpt lat="42.1946033" lon="13.67706"><ele>643.0</ele><time>2026-05-02T11:05:34.286Z</time></trkpt><trkpt lat="42.1947117" lon="13.6768567"><ele>643.0</ele><time>2026-05-02T11:05:35.286Z</time></trkpt><trkpt lat="42.1948083" lon="13.676635"><ele>642.0</ele><time>2026-05-02T11:05:36.286Z</time></trkpt><trkpt lat="42.1948982" lon="13.6764179"><ele>641.0</ele><time>2026-05-02T11:05:37.286Z</time></trkpt><trkpt lat="42.1949769" lon="13.6762118"><ele>640.0</ele><time>2026-05-02T11:05:38.286Z</time></trkpt><trkpt lat="42.1950594" lon="13.6760272"><ele>640.0</ele><time>2026-05-02T11:05:39.286Z</time></trkpt><trkpt lat="42.1951433" lon="13.6758607"><ele>640.0</ele><time>2026-05-02T11:05:40.286Z</time></trkpt><trkpt lat="42.1952392" lon="13.6757172"><ele>640.0</ele><time>2026-05-02T11:05:41.286Z</time></trkpt><trkpt lat="42.195353" lon="13.6755886"><ele>640.0</ele><time>2026-05-02T11:05:42.286Z</time></trkpt><trkpt lat="42.1954872" lon="13.6754676"><ele>640.0</ele><time>2026-05-02T11:05:43.286Z</time></trkpt><trkpt lat="42.1956331" lon="13.6753493"><ele>640.0</ele><time>2026-05-02T11:05:44.286Z</time></trkpt><trkpt lat="42.195785" lon="13.6752213"><ele>640.0</ele><time>2026-05-02T11:05:45.286Z</time></trkpt><trkpt lat="42.1959377" lon="13.6750713"><ele>639.6666666666667</ele><time>2026-05-02T11:05:46.286Z</time></trkpt><trkpt lat="42.1960923" lon="13.6749016"><ele>639.3333333333334</ele><time>2026-05-02T11:05:47.286Z</time></trkpt><trkpt lat="42.1962366" lon="13.6747048"><ele>639.0</ele><time>2026-05-02T11:05:48.286Z</time></trkpt><trkpt lat="42.1963764" lon="13.6744868"><ele>638.0</ele><time>2026-05-02T11:05:49.286Z</time></trkpt><trkpt lat="42.1965177" lon="13.6742719"><ele>637.0</ele><time>2026-05-02T11:05:50.286Z</time></trkpt><trkpt lat="42.1966465" lon="13.6740541"><ele>636.0</ele><time>2026-05-02T11:05:51.286Z</time></trkpt><trkpt lat="42.1967727" lon="13.6738431"><ele>636.0</ele><time>2026-05-02T11:05:52.286Z</time></trkpt><trkpt lat="42.1968985" lon="13.673636"><ele>636.0</ele><time>2026-05-02T11:05:53.286Z</time></trkpt><trkpt lat="42.1970108" lon="13.6734358"><ele>636.0</ele><time>2026-05-02T11:05:54.286Z</time></trkpt><trkpt lat="42.1970977" lon="13.6732335"><ele>634.75</ele><time>2026-05-02T11:05:55.286Z</time></trkpt><trkpt lat="42.1971599" lon="13.6730359"><ele>633.5</ele><time>2026-05-02T11:05:56.286Z</time></trkpt><trkpt lat="42.1972105" lon="13.6728463"><ele>632.25</ele><time>2026-05-02T11:05:57.286Z</time></trkpt><trkpt lat="42.1972695" lon="13.6726768"><ele>631.0</ele><time>2026-05-02T11:05:58.286Z</time></trkpt><trkpt lat="42.1973435" lon="13.6725292"><ele>631.0</ele><time>2026-05-02T11:05:59.286Z</time></trkpt><trkpt lat="42.1974427" lon="13.672416"><ele>631.0</ele><time>2026-05-02T11:06:00.286Z</time></trkpt><trkpt lat="42.1975696" lon="13.6723409"><ele>631.0</ele><time>2026-05-02T11:06:01.286Z</time></trkpt><trkpt lat="42.1977091" lon="13.6723035"><ele>631.0</ele><time>2026-05-02T11:06:02.286Z</time></trkpt><trkpt lat="42.1978494" lon="13.6723197"><ele>631.0</ele><time>2026-05-02T11:06:03.286Z</time></trkpt><trkpt lat="42.1979768" lon="13.6723707"><ele>631.0</ele><time>2026-05-02T11:06:04.286Z</time></trkpt><trkpt lat="42.198101" lon="13.6724338"><ele>631.0</ele><time>2026-05-02T11:06:05.286Z</time></trkpt><trkpt lat="42.1982325" lon="13.6724826"><ele>631.0</ele><time>2026-05-02T11:06:06.286Z</time></trkpt><trkpt lat="42.1983601" lon="13.6724999"><ele>632.5</ele><time>2026-05-02T11:06:07.286Z</time></trkpt><trkpt lat="42.1984866" lon="13.6724819"><ele>634.0</ele><time>2026-05-02T11:06:08.287Z</time></trkpt><trkpt lat="42.1986026" lon="13.6724253"><ele>635.5</ele><time>2026-05-02T11:06:09.286Z</time></trkpt><trkpt lat="42.1986817" lon="13.672325"><ele>637.0</ele><time>2026-05-02T11:06:10.286Z</time></trkpt><trkpt lat="42.198725" lon="13.6722"><ele>637.0</ele><time>2026-05-02T11:06:11.286Z</time></trkpt><trkpt lat="42.198725" lon="13.6720633"><ele>637.0</ele><time>2026-05-02T11:06:12.286Z</time></trkpt><trkpt lat="42.198705" lon="13.671915"><ele>637.0</ele><time>2026-05-02T11:06:13.286Z</time></trkpt><trkpt lat="42.1986917" lon="13.67176"><ele>637.0</ele><time>2026-05-02T11:06:14.286Z</time></trkpt><trkpt lat="42.19871" lon="13.6715933"><ele>636.25</ele><time>2026-05-02T11:06:15.286Z</time></trkpt><trkpt lat="42.1987483" lon="13.6714283"><ele>635.5</ele><time>2026-05-02T11:06:16.286Z</time></trkpt><trkpt lat="42.198815" lon="13.6712783"><ele>634.75</ele><time>2026-05-02T11:06:17.286Z</time></trkpt><trkpt lat="42.1989233" lon="13.6711367"><ele>634.0</ele><time>2026-05-02T11:06:18.286Z</time></trkpt><trkpt lat="42.199055" lon="13.6709983"><ele>634.0</ele><time>2026-05-02T11:06:19.286Z</time></trkpt><trkpt lat="42.1991767" lon="13.670825"><ele>634.0</ele><time>2026-05-02T11:06:20.286Z</time></trkpt><trkpt lat="42.1992717" lon="13.6706133"><ele>634.0</ele><time>2026-05-02T11:06:21.286Z</time></trkpt><trkpt lat="42.199355" lon="13.6703917"><ele>629.3333333333334</ele><time>2026-05-02T11:06:22.287Z</time></trkpt><trkpt lat="42.1994317" lon="13.6701817"><ele>624.6666666666666</ele><time>2026-05-02T11:06:23.286Z</time></trkpt><trkpt lat="42.1995233" lon="13.669995"><ele>620.0</ele><time>2026-05-02T11:06:24.286Z</time></trkpt><trkpt lat="42.1996367" lon="13.6698217"><ele>620.0</ele><time>2026-05-02T11:06:25.286Z</time></trkpt><trkpt lat="42.19977" lon="13.66966"><ele>620.0</ele><time>2026-05-02T11:06:26.286Z</time></trkpt><trkpt lat="42.1999017" lon="13.6695117"><ele>620.0</ele><time>2026-05-02T11:06:27.286Z</time></trkpt><trkpt lat="42.20003" lon="13.66937"><ele>622.5</ele><time>2026-05-02T11:06:28.286Z</time></trkpt><trkpt lat="42.200145" lon="13.6692283"><ele>625.0</ele><time>2026-05-02T11:06:29.286Z</time></trkpt><trkpt lat="42.200245" lon="13.66908"><ele>627.5</ele><time>2026-05-02T11:06:30.286Z</time></trkpt><trkpt lat="42.2003183" lon="13.6689167"><ele>630.0</ele><time>2026-05-02T11:06:31.286Z</time></trkpt><trkpt lat="42.2003833" lon="13.668755"><ele>627.6</ele><time>2026-05-02T11:06:32.286Z</time></trkpt><trkpt lat="42.2004333" lon="13.6685933"><ele>625.2</ele><time>2026-05-02T11:06:33.287Z</time></trkpt><trkpt lat="42.2004783" lon="13.66846"><ele>622.8</ele><time>2026-05-02T11:06:34.286Z</time></trkpt><trkpt lat="42.2005033" lon="13.66837"><ele>620.4</ele><time>2026-05-02T11:06:35.286Z</time></trkpt><trkpt lat="42.20056" lon="13.668245"><ele>618.0</ele><time>2026-05-02T11:06:37.287Z</time></trkpt><trkpt lat="42.2006183" lon="13.6681517"><ele>618.0000000000001</ele><time>2026-05-02T11:06:39.286Z</time></trkpt><trkpt lat="42.2006683" lon="13.6680833"><ele>618.0</ele><time>2026-05-02T11:06:41.286Z</time></trkpt><trkpt lat="42.200735" lon="13.6680283"><ele>618.0</ele><time>2026-05-02T11:06:44.287Z</time></trkpt><trkpt lat="42.20079" lon="13.6679733"><ele>618.0</ele><time>2026-05-02T11:06:46.286Z</time></trkpt><trkpt lat="42.2007233" lon="13.6679833"><ele>618.0</ele><time>2026-05-02T11:06:52.286Z</time></trkpt><trkpt lat="42.20065" lon="13.66807"><ele>618.0000000000001</ele><time>2026-05-02T11:06:54.286Z</time></trkpt><trkpt lat="42.2006083" lon="13.668135"><ele>618.0</ele><time>2026-05-02T11:06:55.286Z</time></trkpt><trkpt lat="42.200565" lon="13.66821"><ele>618.0</ele><time>2026-05-02T11:06:56.286Z</time></trkpt><trkpt lat="42.200535" lon="13.6682883"><ele>618.0</ele><time>2026-05-02T11:06:57.286Z</time></trkpt><trkpt lat="42.2004733" lon="13.66841"><ele>618.0</ele><time>2026-05-02T11:06:59.287Z</time></trkpt><trkpt lat="42.2003417" lon="13.6684733"><ele>618.0</ele><time>2026-05-02T11:07:01.286Z</time></trkpt><trkpt lat="42.2002533" lon="13.6685133"><ele>618.0</ele><time>2026-05-02T11:07:02.286Z</time></trkpt><trkpt lat="42.2001733" lon="13.66856"><ele>620.4</ele><time>2026-05-02T11:07:03.286Z</time></trkpt><trkpt lat="42.200095" lon="13.66863"><ele>622.8</ele><time>2026-05-02T11:07:04.286Z</time></trkpt><trkpt lat="42.2000117" lon="13.66871"><ele>625.2</ele><time>2026-05-02T11:07:05.287Z</time></trkpt><trkpt lat="42.1999283" lon="13.66881"><ele>627.6</ele><time>2026-05-02T11:07:06.286Z</time></trkpt><trkpt lat="42.1998567" lon="13.6689133"><ele>630.0</ele><time>2026-05-02T11:07:07.286Z</time></trkpt><trkpt lat="42.1997883" lon="13.66901"><ele>628.0</ele><time>2026-05-02T11:07:08.286Z</time></trkpt><trkpt lat="42.1997267" lon="13.6691067"><ele>626.0</ele><time>2026-05-02T11:07:09.286Z</time></trkpt><trkpt lat="42.19967" lon="13.669205"><ele>624.0</ele><time>2026-05-02T11:07:10.286Z</time></trkpt><trkpt lat="42.19962" lon="13.6692967"><ele>622.0</ele><time>2026-05-02T11:07:11.286Z</time></trkpt><trkpt lat="42.1995783" lon="13.6693783"><ele>620.0</ele><time>2026-05-02T11:07:12.286Z</time></trkpt><trkpt lat="42.199505" lon="13.669485"><ele>620.0</ele><time>2026-05-02T11:07:14.286Z</time></trkpt><trkpt lat="42.1994283" lon="13.6695033"><ele>620.0</ele><time>2026-05-02T11:07:16.286Z</time></trkpt><trkpt lat="42.199365" lon="13.6694083"><ele>620.0</ele><time>2026-05-02T11:07:18.286Z</time></trkpt><trkpt lat="42.1993667" lon="13.6693217"><ele>620.0</ele><time>2026-05-02T11:07:19.286Z</time></trkpt><trkpt lat="42.1993883" lon="13.6692"><ele>620.0</ele><time>2026-05-02T11:07:20.286Z</time></trkpt><trkpt lat="42.1994133" lon="13.66906"><ele>620.0</ele><time>2026-05-02T11:07:21.286Z</time></trkpt><trkpt lat="42.19943" lon="13.668905"><ele>616.5</ele><time>2026-05-02T11:07:22.287Z</time></trkpt><trkpt lat="42.1994317" lon="13.6687483"><ele>613.0</ele><time>2026-05-02T11:07:23.286Z</time></trkpt><trkpt lat="42.19941" lon="13.6685967"><ele>609.5</ele><time>2026-05-02T11:07:24.286Z</time></trkpt><trkpt lat="42.1993867" lon="13.6684517"><ele>606.0</ele><time>2026-05-02T11:07:25.286Z</time></trkpt><trkpt lat="42.19935" lon="13.6683017"><ele>606.4</ele><time>2026-05-02T11:07:26.286Z</time></trkpt><trkpt lat="42.1993067" lon="13.668145"><ele>606.8</ele><time>2026-05-02T11:07:27.286Z</time></trkpt><trkpt lat="42.1992733" lon="13.668005"><ele>607.1999999999999</ele><time>2026-05-02T11:07:28.286Z</time></trkpt><trkpt lat="42.19924" lon="13.6678667"><ele>607.6</ele><time>2026-05-02T11:07:29.286Z</time></trkpt><trkpt lat="42.1992133" lon="13.66774"><ele>608.0</ele><time>2026-05-02T11:07:30.287Z</time></trkpt><trkpt lat="42.19919" lon="13.6676333"><ele>608.0</ele><time>2026-05-02T11:07:31.286Z</time></trkpt><trkpt lat="42.1991733" lon="13.6675417"><ele>608.0</ele><time>2026-05-02T11:07:32.286Z</time></trkpt><trkpt lat="42.1991633" lon="13.6673917"><ele>608.0</ele><time>2026-05-02T11:07:34.286Z</time></trkpt><trkpt lat="42.1991917" lon="13.6672783"><ele>608.0</ele><time>2026-05-02T11:07:36.286Z</time></trkpt><trkpt lat="42.1992367" lon="13.6671183"><ele>608.0</ele><time>2026-05-02T11:07:38.286Z</time></trkpt><trkpt lat="42.1992633" lon="13.6670267"><ele>608.1666666666666</ele><time>2026-05-02T11:07:39.286Z</time></trkpt><trkpt lat="42.1992767" lon="13.6669283"><ele>608.3333333333333</ele><time>2026-05-02T11:07:40.286Z</time></trkpt><trkpt lat="42.1992767" lon="13.6668167"><ele>608.5</ele><time>2026-05-02T11:07:41.286Z</time></trkpt><trkpt lat="42.1992617" lon="13.6666967"><ele>608.6666666666666</ele><time>2026-05-02T11:07:42.286Z</time></trkpt><trkpt lat="42.1992483" lon="13.666595"><ele>608.8333333333334</ele><time>2026-05-02T11:07:43.286Z</time></trkpt><trkpt lat="42.1992317" lon="13.6664283"><ele>609.0</ele><time>2026-05-02T11:07:45.286Z</time></trkpt><trkpt lat="42.1992383" lon="13.6662617"><ele>608.3333333333334</ele><time>2026-05-02T11:07:47.286Z</time></trkpt><trkpt lat="42.1992717" lon="13.6660867"><ele>607.6666666666666</ele><time>2026-05-02T11:07:49.286Z</time></trkpt><trkpt lat="42.1992917" lon="13.6659917"><ele>607.0</ele><time>2026-05-02T11:07:50.286Z</time></trkpt><trkpt lat="42.1993217" lon="13.6659033"><ele>606.3333333333333</ele><time>2026-05-02T11:07:51.286Z</time></trkpt><trkpt lat="42.1993583" lon="13.6658167"><ele>605.6666666666666</ele><time>2026-05-02T11:07:52.286Z</time></trkpt><trkpt lat="42.1993983" lon="13.665735"><ele>605.0</ele><time>2026-05-02T11:07:53.286Z</time></trkpt><trkpt lat="42.1994533" lon="13.6656433"><ele>605.0</ele><time>2026-05-02T11:07:54.287Z</time></trkpt><trkpt lat="42.1995033" lon="13.6655533"><ele>605.0</ele><time>2026-05-02T11:07:55.287Z</time></trkpt><trkpt lat="42.1995467" lon="13.66547"><ele>605.0</ele><time>2026-05-02T11:07:56.286Z</time></trkpt><trkpt lat="42.1995833" lon="13.6653917"><ele>605.0</ele><time>2026-05-02T11:07:57.286Z</time></trkpt><trkpt lat="42.19962" lon="13.6653183"><ele>605.0</ele><time>2026-05-02T11:07:58.286Z</time></trkpt><trkpt lat="42.1996717" lon="13.6652517"><ele>605.0</ele><time>2026-05-02T11:07:59.286Z</time></trkpt><trkpt lat="42.199725" lon="13.665185"><ele>605.0</ele><time>2026-05-02T11:08:00.287Z</time></trkpt><trkpt lat="42.1997783" lon="13.6651217"><ele>605.0</ele><time>2026-05-02T11:08:01.286Z</time></trkpt><trkpt lat="42.1998333" lon="13.6650617"><ele>605.0</ele><time>2026-05-02T11:08:02.286Z</time></trkpt><trkpt lat="42.1998917" lon="13.6650183"><ele>605.0</ele><time>2026-05-02T11:08:03.286Z</time></trkpt><trkpt lat="42.1999483" lon="13.66497"><ele>605.0</ele><time>2026-05-02T11:08:04.286Z</time></trkpt><trkpt lat="42.2000483" lon="13.6648917"><ele>605.0</ele><time>2026-05-02T11:08:06.286Z</time></trkpt><trkpt lat="42.2001533" lon="13.6648283"><ele>605.0</ele><time>2026-05-02T11:08:08.286Z</time></trkpt><trkpt lat="42.20026" lon="13.66479"><ele>605.0</ele><time>2026-05-02T11:08:10.286Z</time></trkpt><trkpt lat="42.2003533" lon="13.6647583"><ele>605.0</ele><time>2026-05-02T11:08:12.286Z</time></trkpt><trkpt lat="42.2004533" lon="13.6647033"><ele>605.0</ele><time>2026-05-02T11:08:14.286Z</time></trkpt><trkpt lat="42.20055" lon="13.6646383"><ele>605.0</ele><time>2026-05-02T11:08:16.286Z</time></trkpt><trkpt lat="42.2006367" lon="13.664585"><ele>605.0</ele><time>2026-05-02T11:08:18.286Z</time></trkpt><trkpt lat="42.2007283" lon="13.66453"><ele>604.0</ele><time>2026-05-02T11:08:20.286Z</time></trkpt><trkpt lat="42.2008167" lon="13.6644733"><ele>603.0</ele><time>2026-05-02T11:08:22.286Z</time></trkpt><trkpt lat="42.2008917" lon="13.6643933"><ele>602.0</ele><time>2026-05-02T11:08:24.286Z</time></trkpt><trkpt lat="42.2009733" lon="13.664285"><ele>601.0</ele><time>2026-05-02T11:08:26.286Z</time></trkpt><trkpt lat="42.2010683" lon="13.664175"><ele>600.0</ele><time>2026-05-02T11:08:28.286Z</time></trkpt><trkpt lat="42.2011667" lon="13.6641017"><ele>597.5</ele><time>2026-05-02T11:08:30.286Z</time></trkpt><trkpt lat="42.2012717" lon="13.66406"><ele>595.0</ele><time>2026-05-02T11:08:32.286Z</time></trkpt><trkpt lat="42.201335" lon="13.6640417"><ele>592.5</ele><time>2026-05-02T11:08:33.286Z</time></trkpt><trkpt lat="42.2014033" lon="13.6640267"><ele>590.0</ele><time>2026-05-02T11:08:34.286Z</time></trkpt><trkpt lat="42.2014733" lon="13.664005"><ele>587.5</ele><time>2026-05-02T11:08:35.286Z</time></trkpt><trkpt lat="42.20154" lon="13.6639833"><ele>585.0</ele><time>2026-05-02T11:08:36.287Z</time></trkpt><trkpt lat="42.2016117" lon="13.6639583"><ele>584.3333333333334</ele><time>2026-05-02T11:08:37.286Z</time></trkpt><trkpt lat="42.2016783" lon="13.6639317"><ele>583.6666666666666</ele><time>2026-05-02T11:08:38.286Z</time></trkpt><trkpt lat="42.20174" lon="13.6638967"><ele>583.0</ele><time>2026-05-02T11:08:39.286Z</time></trkpt><trkpt lat="42.20184" lon="13.66382"><ele>582.3333333333333</ele><time>2026-05-02T11:08:41.286Z</time></trkpt><trkpt lat="42.2019067" lon="13.6637083"><ele>581.6666666666666</ele><time>2026-05-02T11:08:43.286Z</time></trkpt><trkpt lat="42.2019467" lon="13.663635"><ele>581.0</ele><time>2026-05-02T11:08:44.287Z</time></trkpt><trkpt lat="42.2019767" lon="13.6635483"><ele>579.2857142857143</ele><time>2026-05-02T11:08:45.286Z</time></trkpt><trkpt lat="42.20201" lon="13.663455"><ele>577.5714285714286</ele><time>2026-05-02T11:08:46.287Z</time></trkpt><trkpt lat="42.2020433" lon="13.6633683"><ele>575.8571428571429</ele><time>2026-05-02T11:08:47.286Z</time></trkpt><trkpt lat="42.2020767" lon="13.663285"><ele>574.1428571428571</ele><time>2026-05-02T11:08:48.286Z</time></trkpt><trkpt lat="42.202115" lon="13.6632"><ele>572.4285714285714</ele><time>2026-05-02T11:08:49.286Z</time></trkpt><trkpt lat="42.2021517" lon="13.6631133"><ele>570.7142857142858</ele><time>2026-05-02T11:08:50.286Z</time></trkpt><trkpt lat="42.2021833" lon="13.6630333"><ele>569.0</ele><time>2026-05-02T11:08:51.286Z</time></trkpt><trkpt lat="42.202215" lon="13.66295"><ele>569.0</ele><time>2026-05-02T11:08:52.286Z</time></trkpt><trkpt lat="42.20225" lon="13.662855"><ele>569.0</ele><time>2026-05-02T11:08:53.286Z</time></trkpt><trkpt lat="42.2022817" lon="13.6627483"><ele>569.0</ele><time>2026-05-02T11:08:54.286Z</time></trkpt><trkpt lat="42.20231" lon="13.66263"><ele>569.0</ele><time>2026-05-02T11:08:55.286Z</time></trkpt><trkpt lat="42.2023383" lon="13.662525"><ele>569.0</ele><time>2026-05-02T11:08:56.286Z</time></trkpt><trkpt lat="42.2023667" lon="13.6624267"><ele>569.0</ele><time>2026-05-02T11:08:57.286Z</time></trkpt><trkpt lat="42.2023967" lon="13.6623183"><ele>569.0</ele><time>2026-05-02T11:08:58.286Z</time></trkpt><trkpt lat="42.2024283" lon="13.6621967"><ele>569.0</ele><time>2026-05-02T11:08:59.286Z</time></trkpt><trkpt lat="42.202465" lon="13.662085"><ele>569.0</ele><time>2026-05-02T11:09:00.287Z</time></trkpt><trkpt lat="42.2024983" lon="13.6619783"><ele>569.0</ele><time>2026-05-02T11:09:01.286Z</time></trkpt><trkpt lat="42.202525" lon="13.661875"><ele>569.0</ele><time>2026-05-02T11:09:02.286Z</time></trkpt><trkpt lat="42.20255" lon="13.661755"><ele>569.0</ele><time>2026-05-02T11:09:03.286Z</time></trkpt><trkpt lat="42.202575" lon="13.661635"><ele>568.3333333333333</ele><time>2026-05-02T11:09:04.286Z</time></trkpt><trkpt lat="42.2026" lon="13.6615317"><ele>567.6666666666666</ele><time>2026-05-02T11:09:05.286Z</time></trkpt><trkpt lat="42.2026333" lon="13.6614283"><ele>567.0</ele><time>2026-05-02T11:09:06.286Z</time></trkpt><trkpt lat="42.202675" lon="13.6613283"><ele>566.3333333333334</ele><time>2026-05-02T11:09:07.286Z</time></trkpt><trkpt lat="42.20272" lon="13.6612217"><ele>565.6666666666667</ele><time>2026-05-02T11:09:08.287Z</time></trkpt><trkpt lat="42.2027617" lon="13.661115"><ele>565.0</ele><time>2026-05-02T11:09:09.286Z</time></trkpt><trkpt lat="42.2027917" lon="13.6610167"><ele>564.3333333333334</ele><time>2026-05-02T11:09:10.286Z</time></trkpt><trkpt lat="42.2028183" lon="13.6609217"><ele>563.6666666666667</ele><time>2026-05-02T11:09:11.286Z</time></trkpt><trkpt lat="42.2028433" lon="13.6608433"><ele>563.0</ele><time>2026-05-02T11:09:12.286Z</time></trkpt><trkpt lat="42.20286" lon="13.6607567"><ele>562.3333333333334</ele><time>2026-05-02T11:09:13.286Z</time></trkpt><trkpt lat="42.202895" lon="13.6605933"><ele>561.6666666666666</ele><time>2026-05-02T11:09:15.286Z</time></trkpt><trkpt lat="42.2029233" lon="13.6604417"><ele>561.0</ele><time>2026-05-02T11:09:17.286Z</time></trkpt><trkpt lat="42.20295" lon="13.6602783"><ele>559.3333333333334</ele><time>2026-05-02T11:09:19.286Z</time></trkpt><trkpt lat="42.2029733" lon="13.6601917"><ele>557.6666666666666</ele><time>2026-05-02T11:09:20.286Z</time></trkpt><trkpt lat="42.2029933" lon="13.660105"><ele>556.0</ele><time>2026-05-02T11:09:21.286Z</time></trkpt><trkpt lat="42.2030467" lon="13.6599467"><ele>554.3333333333333</ele><time>2026-05-02T11:09:23.286Z</time></trkpt><trkpt lat="42.20308" lon="13.659865"><ele>552.6666666666666</ele><time>2026-05-02T11:09:24.286Z</time></trkpt><trkpt lat="42.2031133" lon="13.65979"><ele>551.0</ele><time>2026-05-02T11:09:25.286Z</time></trkpt><trkpt lat="42.2031633" lon="13.6596367"><ele>552.0</ele><time>2026-05-02T11:09:27.286Z</time></trkpt><trkpt lat="42.2031883" lon="13.6595583"><ele>553.0</ele><time>2026-05-02T11:09:28.286Z</time></trkpt><trkpt lat="42.2032283" lon="13.6593967"><ele>554.0</ele><time>2026-05-02T11:09:30.286Z</time></trkpt><trkpt lat="42.2032767" lon="13.6592583"><ele>555.0</ele><time>2026-05-02T11:09:32.287Z</time></trkpt><trkpt lat="42.2033367" lon="13.6591367"><ele>556.0</ele><time>2026-05-02T11:09:34.286Z</time></trkpt><trkpt lat="42.2034017" lon="13.6590067"><ele>553.6</ele><time>2026-05-02T11:09:36.286Z</time></trkpt><trkpt lat="42.2034617" lon="13.6588933"><ele>551.2</ele><time>2026-05-02T11:09:38.286Z</time></trkpt><trkpt lat="42.2035067" lon="13.658775"><ele>548.8</ele><time>2026-05-02T11:09:40.286Z</time></trkpt><trkpt lat="42.20353" lon="13.658685"><ele>546.4</ele><time>2026-05-02T11:09:42.286Z</time></trkpt><trkpt lat="42.20352" lon="13.6585717"><ele>544.0</ele><time>2026-05-02T11:09:46.286Z</time></trkpt><trkpt lat="42.2034217" lon="13.6585067"><ele>541.0</ele><time>2026-05-02T11:09:48.286Z</time></trkpt><trkpt lat="42.2033433" lon="13.6584833"><ele>538.0</ele><time>2026-05-02T11:09:49.286Z</time></trkpt><trkpt lat="42.2032433" lon="13.6584483"><ele>535.0</ele><time>2026-05-02T11:09:50.286Z</time></trkpt><trkpt lat="42.20312" lon="13.6584"><ele>532.0</ele><time>2026-05-02T11:09:51.286Z</time></trkpt><trkpt lat="42.202975" lon="13.6583317"><ele>531.6666666666667</ele><time>2026-05-02T11:09:52.286Z</time></trkpt><trkpt lat="42.2028267" lon="13.6582283"><ele>531.3333333333334</ele><time>2026-05-02T11:09:53.286Z</time></trkpt><trkpt lat="42.2026833" lon="13.6580917"><ele>531.0</ele><time>2026-05-02T11:09:54.286Z</time></trkpt><trkpt lat="42.202545" lon="13.6579517"><ele>531.0</ele><time>2026-05-02T11:09:55.286Z</time></trkpt><trkpt lat="42.2024117" lon="13.6578133"><ele>531.0</ele><time>2026-05-02T11:09:56.286Z</time></trkpt><trkpt lat="42.20229" lon="13.657685"><ele>531.0</ele><time>2026-05-02T11:09:57.286Z</time></trkpt><trkpt lat="42.2021683" lon="13.6575733"><ele>526.3333333333334</ele><time>2026-05-02T11:09:58.286Z</time></trkpt><trkpt lat="42.2020367" lon="13.657485"><ele>521.6666666666667</ele><time>2026-05-02T11:09:59.286Z</time></trkpt><trkpt lat="42.20189" lon="13.6574483"><ele>517.0</ele><time>2026-05-02T11:10:00.286Z</time></trkpt><trkpt lat="42.20173" lon="13.657455"><ele>517.0</ele><time>2026-05-02T11:10:01.286Z</time></trkpt><trkpt lat="42.2015633" lon="13.65748"><ele>517.0</ele><time>2026-05-02T11:10:02.286Z</time></trkpt><trkpt lat="42.2014083" lon="13.6575117"><ele>517.0</ele><time>2026-05-02T11:10:03.286Z</time></trkpt><trkpt lat="42.2012583" lon="13.6575533"><ele>518.0</ele><time>2026-05-02T11:10:04.286Z</time></trkpt><trkpt lat="42.201115" lon="13.657625"><ele>519.0</ele><time>2026-05-02T11:10:05.286Z</time></trkpt><trkpt lat="42.200995" lon="13.6577383"><ele>520.0</ele><time>2026-05-02T11:10:06.286Z</time></trkpt><trkpt lat="42.20089" lon="13.657885"><ele>520.0</ele><time>2026-05-02T11:10:07.286Z</time></trkpt><trkpt lat="42.2007783" lon="13.65803"><ele>520.0</ele><time>2026-05-02T11:10:08.286Z</time></trkpt><trkpt lat="42.2006567" lon="13.658145"><ele>520.0</ele><time>2026-05-02T11:10:09.286Z</time></trkpt><trkpt lat="42.2005233" lon="13.6582133"><ele>520.0</ele><time>2026-05-02T11:10:10.286Z</time></trkpt><trkpt lat="42.200375" lon="13.6582583"><ele>516.0</ele><time>2026-05-02T11:10:11.286Z</time></trkpt><trkpt lat="42.2002217" lon="13.6582983"><ele>512.0</ele><time>2026-05-02T11:10:12.286Z</time></trkpt><trkpt lat="42.2000633" lon="13.6583283"><ele>508.0</ele><time>2026-05-02T11:10:13.286Z</time></trkpt><trkpt lat="42.19991" lon="13.6583583"><ele>505.33333333333337</ele><time>2026-05-02T11:10:14.286Z</time></trkpt><trkpt lat="42.1997583" lon="13.6583983"><ele>502.66666666666663</ele><time>2026-05-02T11:10:15.286Z</time></trkpt><trkpt lat="42.1996133" lon="13.6584633"><ele>500.0</ele><time>2026-05-02T11:10:16.286Z</time></trkpt><trkpt lat="42.19947" lon="13.658585"><ele>502.66666666666663</ele><time>2026-05-02T11:10:17.286Z</time></trkpt><trkpt lat="42.1993383" lon="13.658715"><ele>505.33333333333337</ele><time>2026-05-02T11:10:18.286Z</time></trkpt><trkpt lat="42.1992183" lon="13.6588517"><ele>508.0</ele><time>2026-05-02T11:10:19.286Z</time></trkpt><trkpt lat="42.1991017" lon="13.658985"><ele>505.25</ele><time>2026-05-02T11:10:20.287Z</time></trkpt><trkpt lat="42.1989983" lon="13.6591"><ele>502.5</ele><time>2026-05-02T11:10:21.286Z</time></trkpt><trkpt lat="42.1988867" lon="13.6591933"><ele>499.75</ele><time>2026-05-02T11:10:22.286Z</time></trkpt><trkpt lat="42.1987717" lon="13.659255"><ele>497.0</ele><time>2026-05-02T11:10:23.286Z</time></trkpt><trkpt lat="42.198645" lon="13.6592817"><ele>497.0</ele><time>2026-05-02T11:10:24.286Z</time></trkpt><trkpt lat="42.198525" lon="13.65928"><ele>497.00000000000006</ele><time>2026-05-02T11:10:25.286Z</time></trkpt><trkpt lat="42.19842" lon="13.659255"><ele>497.00000000000006</ele><time>2026-05-02T11:10:26.286Z</time></trkpt><trkpt lat="42.1983167" lon="13.6592167"><ele>497.0</ele><time>2026-05-02T11:10:27.286Z</time></trkpt><trkpt lat="42.1982317" lon="13.65917"><ele>497.0</ele><time>2026-05-02T11:10:28.286Z</time></trkpt><trkpt lat="42.198165" lon="13.6591"><ele>496.6</ele><time>2026-05-02T11:10:29.286Z</time></trkpt><trkpt lat="42.1981183" lon="13.6590183"><ele>496.20000000000005</ele><time>2026-05-02T11:10:30.286Z</time></trkpt><trkpt lat="42.19808" lon="13.6588583"><ele>495.8</ele><time>2026-05-02T11:10:32.286Z</time></trkpt><trkpt lat="42.1980533" lon="13.6587467"><ele>495.4</ele><time>2026-05-02T11:10:33.286Z</time></trkpt><trkpt lat="42.1980133" lon="13.658625"><ele>495.0</ele><time>2026-05-02T11:10:34.287Z</time></trkpt><trkpt lat="42.1979633" lon="13.6584967"><ele>494.25</ele><time>2026-05-02T11:10:35.286Z</time></trkpt><trkpt lat="42.1979083" lon="13.658375"><ele>493.5</ele><time>2026-05-02T11:10:36.286Z</time></trkpt><trkpt lat="42.1978417" lon="13.6582417"><ele>492.75</ele><time>2026-05-02T11:10:37.287Z</time></trkpt><trkpt lat="42.1977667" lon="13.65811"><ele>492.0</ele><time>2026-05-02T11:10:38.286Z</time></trkpt><trkpt lat="42.19767" lon="13.6579583"><ele>492.0</ele><time>2026-05-02T11:10:39.286Z</time></trkpt><trkpt lat="42.197565" lon="13.6578017"><ele>492.0</ele><time>2026-05-02T11:10:40.286Z</time></trkpt><trkpt lat="42.1974567" lon="13.6576267"><ele>492.0</ele><time>2026-05-02T11:10:41.286Z</time></trkpt><trkpt lat="42.197345" lon="13.657455"><ele>492.33333333333337</ele><time>2026-05-02T11:10:42.286Z</time></trkpt><trkpt lat="42.1972217" lon="13.6572783"><ele>492.6666666666667</ele><time>2026-05-02T11:10:43.287Z</time></trkpt><trkpt lat="42.1970983" lon="13.6570933"><ele>493.0</ele><time>2026-05-02T11:10:44.286Z</time></trkpt><trkpt lat="42.19697" lon="13.656905"><ele>493.0</ele><time>2026-05-02T11:10:45.286Z</time></trkpt><trkpt lat="42.1968433" lon="13.6567033"><ele>493.0</ele><time>2026-05-02T11:10:46.286Z</time></trkpt><trkpt lat="42.1967133" lon="13.656505"><ele>493.0</ele><time>2026-05-02T11:10:47.286Z</time></trkpt><trkpt lat="42.1965867" lon="13.6562967"><ele>495.6666666666667</ele><time>2026-05-02T11:10:48.286Z</time></trkpt><trkpt lat="42.1964517" lon="13.656085"><ele>498.33333333333337</ele><time>2026-05-02T11:10:49.286Z</time></trkpt><trkpt lat="42.1963183" lon="13.6558767"><ele>501.0</ele><time>2026-05-02T11:10:50.286Z</time></trkpt><trkpt lat="42.1961833" lon="13.6556667"><ele>501.0</ele><time>2026-05-02T11:10:51.286Z</time></trkpt><trkpt lat="42.19604" lon="13.6554567"><ele>501.0</ele><time>2026-05-02T11:10:52.286Z</time></trkpt><trkpt lat="42.1959083" lon="13.6552633"><ele>501.0</ele><time>2026-05-02T11:10:53.286Z</time></trkpt><trkpt lat="42.1957917" lon="13.6550667"><ele>502.33333333333337</ele><time>2026-05-02T11:10:54.286Z</time></trkpt><trkpt lat="42.1956967" lon="13.6548767"><ele>503.6666666666667</ele><time>2026-05-02T11:10:55.286Z</time></trkpt><trkpt lat="42.1956283" lon="13.65469"><ele>505.0</ele><time>2026-05-02T11:10:56.286Z</time></trkpt><trkpt lat="42.1955883" lon="13.6545"><ele>511.0</ele><time>2026-05-02T11:10:57.286Z</time></trkpt><trkpt lat="42.195575" lon="13.6543017"><ele>517.0</ele><time>2026-05-02T11:10:58.286Z</time></trkpt><trkpt lat="42.1955833" lon="13.654105"><ele>523.0</ele><time>2026-05-02T11:10:59.286Z</time></trkpt><trkpt lat="42.1956117" lon="13.6539"><ele>529.0</ele><time>2026-05-02T11:11:00.287Z</time></trkpt><trkpt lat="42.1956467" lon="13.6537"><ele>526.3333333333334</ele><time>2026-05-02T11:11:01.286Z</time></trkpt><trkpt lat="42.1956817" lon="13.6534917"><ele>523.6666666666666</ele><time>2026-05-02T11:11:02.286Z</time></trkpt><trkpt lat="42.1957217" lon="13.653285"><ele>521.0</ele><time>2026-05-02T11:11:03.286Z</time></trkpt><trkpt lat="42.1957633" lon="13.6530733"><ele>521.0</ele><time>2026-05-02T11:11:04.286Z</time></trkpt><trkpt lat="42.1958" lon="13.652855"><ele>521.0</ele><time>2026-05-02T11:11:05.286Z</time></trkpt><trkpt lat="42.1958467" lon="13.6526233"><ele>521.0</ele><time>2026-05-02T11:11:06.286Z</time></trkpt><trkpt lat="42.1958767" lon="13.6523817"><ele>522.6666666666666</ele><time>2026-05-02T11:11:07.286Z</time></trkpt><trkpt lat="42.1959117" lon="13.6521417"><ele>524.3333333333334</ele><time>2026-05-02T11:11:08.286Z</time></trkpt><trkpt lat="42.1959517" lon="13.6519033"><ele>526.0</ele><time>2026-05-02T11:11:09.286Z</time></trkpt><trkpt lat="42.1959933" lon="13.6516517"><ele>527.6666666666667</ele><time>2026-05-02T11:11:10.287Z</time></trkpt><trkpt lat="42.196035" lon="13.6513933"><ele>529.3333333333334</ele><time>2026-05-02T11:11:11.287Z</time></trkpt><trkpt lat="42.196075" lon="13.6511333"><ele>531.0</ele><time>2026-05-02T11:11:12.286Z</time></trkpt><trkpt lat="42.1961167" lon="13.65087"><ele>532.3333333333334</ele><time>2026-05-02T11:11:13.286Z</time></trkpt><trkpt lat="42.1961583" lon="13.6506033"><ele>533.6666666666667</ele><time>2026-05-02T11:11:14.286Z</time></trkpt><trkpt lat="42.1962017" lon="13.650345"><ele>535.0</ele><time>2026-05-02T11:11:15.286Z</time></trkpt><trkpt lat="42.1962417" lon="13.650105"><ele>537.3333333333334</ele><time>2026-05-02T11:11:16.286Z</time></trkpt><trkpt lat="42.1962817" lon="13.649885"><ele>539.6666666666666</ele><time>2026-05-02T11:11:17.286Z</time></trkpt><trkpt lat="42.19632" lon="13.6496817"><ele>542.0</ele><time>2026-05-02T11:11:18.286Z</time></trkpt><trkpt lat="42.196355" lon="13.649475"><ele>543.6666666666666</ele><time>2026-05-02T11:11:19.286Z</time></trkpt><trkpt lat="42.1963933" lon="13.6492633"><ele>545.3333333333334</ele><time>2026-05-02T11:11:20.286Z</time></trkpt><trkpt lat="42.19643" lon="13.6490617"><ele>547.0</ele><time>2026-05-02T11:11:21.286Z</time></trkpt><trkpt lat="42.1964633" lon="13.6488417"><ele>547.0</ele><time>2026-05-02T11:11:22.286Z</time></trkpt><trkpt lat="42.196505" lon="13.64864"><ele>547.0</ele><time>2026-05-02T11:11:23.286Z</time></trkpt><trkpt lat="42.1965417" lon="13.648455"><ele>547.0</ele><time>2026-05-02T11:11:24.286Z</time></trkpt><trkpt lat="42.19657" lon="13.6483"><ele>547.0</ele><time>2026-05-02T11:11:25.287Z</time></trkpt><trkpt lat="42.19659" lon="13.64818"><ele>547.0</ele><time>2026-05-02T11:11:26.286Z</time></trkpt><trkpt lat="42.1965933" lon="13.6480783"><ele>547.0</ele><time>2026-05-02T11:11:27.286Z</time></trkpt><trkpt lat="42.1965417" lon="13.6479517"><ele>547.0</ele><time>2026-05-02T11:11:29.286Z</time></trkpt><trkpt lat="42.19645" lon="13.6479083"><ele>547.0</ele><time>2026-05-02T11:11:31.286Z</time></trkpt><trkpt lat="42.196385" lon="13.64791"><ele>547.0</ele><time>2026-05-02T11:11:32.286Z</time></trkpt><trkpt lat="42.1963217" lon="13.6479433"><ele>547.0</ele><time>2026-05-02T11:11:33.287Z</time></trkpt><trkpt lat="42.196255" lon="13.6480017"><ele>549.2</ele><time>2026-05-02T11:11:34.286Z</time></trkpt><trkpt lat="42.1961867" lon="13.6480817"><ele>551.4000000000001</ele><time>2026-05-02T11:11:35.286Z</time></trkpt><trkpt lat="42.196115" lon="13.648175"><ele>553.5999999999999</ele><time>2026-05-02T11:11:36.286Z</time></trkpt><trkpt lat="42.1960283" lon="13.6482633"><ele>555.8</ele><time>2026-05-02T11:11:37.286Z</time></trkpt><trkpt lat="42.1959433" lon="13.648355"><ele>558.0</ele><time>2026-05-02T11:11:38.286Z</time></trkpt><trkpt lat="42.195845" lon="13.64843"><ele>558.0</ele><time>2026-05-02T11:11:39.286Z</time></trkpt><trkpt lat="42.1957467" lon="13.6485"><ele>558.0</ele><time>2026-05-02T11:11:40.286Z</time></trkpt><trkpt lat="42.1956533" lon="13.6485583"><ele>558.0</ele><time>2026-05-02T11:11:41.286Z</time></trkpt><trkpt lat="42.1955633" lon="13.64861"><ele>558.0</ele><time>2026-05-02T11:11:42.286Z</time></trkpt><trkpt lat="42.195475" lon="13.6486633"><ele>558.0</ele><time>2026-05-02T11:11:43.286Z</time></trkpt><trkpt lat="42.1953867" lon="13.6487133"><ele>560.1999999999999</ele><time>2026-05-02T11:11:44.286Z</time></trkpt><trkpt lat="42.1952983" lon="13.6487817"><ele>562.4</ele><time>2026-05-02T11:11:45.287Z</time></trkpt><trkpt lat="42.195215" lon="13.6488817"><ele>564.5999999999999</ele><time>2026-05-02T11:11:46.286Z</time></trkpt><trkpt lat="42.195145" lon="13.6489917"><ele>566.8</ele><time>2026-05-02T11:11:47.287Z</time></trkpt><trkpt lat="42.195085" lon="13.64911"><ele>569.0</ele><time>2026-05-02T11:11:48.286Z</time></trkpt><trkpt lat="42.19503" lon="13.6492317"><ele>569.0</ele><time>2026-05-02T11:11:49.286Z</time></trkpt><trkpt lat="42.1949733" lon="13.6493567"><ele>569.0</ele><time>2026-05-02T11:11:50.286Z</time></trkpt><trkpt lat="42.194915" lon="13.6494817"><ele>569.0</ele><time>2026-05-02T11:11:51.286Z</time></trkpt><trkpt lat="42.194865" lon="13.64961"><ele>569.0</ele><time>2026-05-02T11:11:52.286Z</time></trkpt><trkpt lat="42.194805" lon="13.6497317"><ele>569.0</ele><time>2026-05-02T11:11:53.286Z</time></trkpt><trkpt lat="42.1947383" lon="13.649835"><ele>573.0</ele><time>2026-05-02T11:11:54.286Z</time></trkpt><trkpt lat="42.1946617" lon="13.6499333"><ele>577.0</ele><time>2026-05-02T11:11:55.286Z</time></trkpt><trkpt lat="42.1945733" lon="13.6500283"><ele>581.0</ele><time>2026-05-02T11:11:56.286Z</time></trkpt><trkpt lat="42.19447" lon="13.6501283"><ele>585.0</ele><time>2026-05-02T11:11:57.287Z</time></trkpt><trkpt lat="42.1943567" lon="13.6502267"><ele>586.75</ele><time>2026-05-02T11:11:58.286Z</time></trkpt><trkpt lat="42.1942367" lon="13.6503183"><ele>588.5</ele><time>2026-05-02T11:11:59.286Z</time></trkpt><trkpt lat="42.194115" lon="13.6503933"><ele>590.25</ele><time>2026-05-02T11:12:00.286Z</time></trkpt><trkpt lat="42.1939967" lon="13.6504717"><ele>592.0</ele><time>2026-05-02T11:12:01.286Z</time></trkpt><trkpt lat="42.1938833" lon="13.6505517"><ele>592.0</ele><time>2026-05-02T11:12:02.286Z</time></trkpt><trkpt lat="42.193765" lon="13.6506433"><ele>592.0</ele><time>2026-05-02T11:12:03.286Z</time></trkpt><trkpt lat="42.1936583" lon="13.6507383"><ele>592.0</ele><time>2026-05-02T11:12:04.286Z</time></trkpt><trkpt lat="42.1935617" lon="13.6508367"><ele>592.0</ele><time>2026-05-02T11:12:05.286Z</time></trkpt><trkpt lat="42.1934783" lon="13.65094"><ele>592.0</ele><time>2026-05-02T11:12:06.286Z</time></trkpt><trkpt lat="42.1934067" lon="13.651045"><ele>592.0</ele><time>2026-05-02T11:12:07.286Z</time></trkpt><trkpt lat="42.19334" lon="13.65116"><ele>592.0</ele><time>2026-05-02T11:12:08.286Z</time></trkpt><trkpt lat="42.193285" lon="13.6512883"><ele>592.0</ele><time>2026-05-02T11:12:09.286Z</time></trkpt><trkpt lat="42.1932467" lon="13.6514267"><ele>592.0</ele><time>2026-05-02T11:12:10.286Z</time></trkpt><trkpt lat="42.1932217" lon="13.6515717"><ele>591.0</ele><time>2026-05-02T11:12:11.286Z</time></trkpt><trkpt lat="42.1932217" lon="13.6517083"><ele>590.0</ele><time>2026-05-02T11:12:12.286Z</time></trkpt><trkpt lat="42.1932383" lon="13.6518533"><ele>589.0</ele><time>2026-05-02T11:12:13.287Z</time></trkpt><trkpt lat="42.19327" lon="13.65199"><ele>588.0</ele><time>2026-05-02T11:12:14.286Z</time></trkpt><trkpt lat="42.1933" lon="13.6521333"><ele>587.0</ele><time>2026-05-02T11:12:15.286Z</time></trkpt><trkpt lat="42.193315" lon="13.6522817"><ele>587.0</ele><time>2026-05-02T11:12:16.286Z</time></trkpt><trkpt lat="42.19331" lon="13.652445"><ele>587.0</ele><time>2026-05-02T11:12:17.286Z</time></trkpt><trkpt lat="42.1933017" lon="13.65262"><ele>587.0</ele><time>2026-05-02T11:12:18.286Z</time></trkpt><trkpt lat="42.1932767" lon="13.6528017"><ele>587.0</ele><time>2026-05-02T11:12:19.286Z</time></trkpt><trkpt lat="42.1932433" lon="13.6529633"><ele>586.1666666666666</ele><time>2026-05-02T11:12:20.287Z</time></trkpt><trkpt lat="42.1931967" lon="13.6530867"><ele>585.3333333333333</ele><time>2026-05-02T11:12:21.287Z</time></trkpt><trkpt lat="42.19313" lon="13.6531633"><ele>584.5</ele><time>2026-05-02T11:12:22.286Z</time></trkpt><trkpt lat="42.1930483" lon="13.6531867"><ele>583.6666666666666</ele><time>2026-05-02T11:12:23.286Z</time></trkpt><trkpt lat="42.1929783" lon="13.6531617"><ele>582.8333333333334</ele><time>2026-05-02T11:12:24.286Z</time></trkpt><trkpt lat="42.192945" lon="13.6530867"><ele>582.0</ele><time>2026-05-02T11:12:25.286Z</time></trkpt><trkpt lat="42.192935" lon="13.652975"><ele>584.75</ele><time>2026-05-02T11:12:26.286Z</time></trkpt><trkpt lat="42.1929633" lon="13.6528283"><ele>587.5</ele><time>2026-05-02T11:12:27.286Z</time></trkpt><trkpt lat="42.1929983" lon="13.652655"><ele>590.25</ele><time>2026-05-02T11:12:28.286Z</time></trkpt><trkpt lat="42.1930283" lon="13.65249"><ele>593.0</ele><time>2026-05-02T11:12:29.286Z</time></trkpt><trkpt lat="42.1930483" lon="13.652345"><ele>597.0</ele><time>2026-05-02T11:12:30.287Z</time></trkpt><trkpt lat="42.19306" lon="13.652235"><ele>601.0</ele><time>2026-05-02T11:12:31.286Z</time></trkpt><trkpt lat="42.193005" lon="13.6520967"><ele>605.0</ele><time>2026-05-02T11:12:33.286Z</time></trkpt><trkpt lat="42.192885" lon="13.6520767"><ele>609.0</ele><time>2026-05-02T11:12:35.286Z</time></trkpt><trkpt lat="42.1928367" lon="13.65215"><ele>613.0</ele><time>2026-05-02T11:12:36.286Z</time></trkpt><trkpt lat="42.1928033" lon="13.6522817"><ele>613.0</ele><time>2026-05-02T11:12:37.286Z</time></trkpt><trkpt lat="42.192775" lon="13.6524517"><ele>613.0</ele><time>2026-05-02T11:12:38.286Z</time></trkpt><trkpt lat="42.192725" lon="13.652615"><ele>613.0</ele><time>2026-05-02T11:12:39.286Z</time></trkpt><trkpt lat="42.1926417" lon="13.6527533"><ele>613.0</ele><time>2026-05-02T11:12:40.286Z</time></trkpt><trkpt lat="42.1925483" lon="13.6528417"><ele>613.0</ele><time>2026-05-02T11:12:41.286Z</time></trkpt><trkpt lat="42.1924517" lon="13.65289"><ele>613.0</ele><time>2026-05-02T11:12:42.286Z</time></trkpt><trkpt lat="42.19238" lon="13.652895"><ele>613.0</ele><time>2026-05-02T11:12:43.286Z</time></trkpt><trkpt lat="42.1923267" lon="13.6527417"><ele>613.0</ele><time>2026-05-02T11:12:45.286Z</time></trkpt><trkpt lat="42.19237" lon="13.652675"><ele>613.0</ele><time>2026-05-02T11:12:46.286Z</time></trkpt><trkpt lat="42.1924433" lon="13.6526033"><ele>613.0</ele><time>2026-05-02T11:12:47.286Z</time></trkpt><trkpt lat="42.1925267" lon="13.6525283"><ele>613.0</ele><time>2026-05-02T11:12:48.286Z</time></trkpt><trkpt lat="42.1925983" lon="13.6524417"><ele>613.0</ele><time>2026-05-02T11:12:49.287Z</time></trkpt><trkpt lat="42.1926417" lon="13.652335"><ele>613.0</ele><time>2026-05-02T11:12:50.286Z</time></trkpt><trkpt lat="42.1926217" lon="13.6522417"><ele>613.0</ele><time>2026-05-02T11:12:51.286Z</time></trkpt><trkpt lat="42.1925767" lon="13.652175"><ele>613.0</ele><time>2026-05-02T11:12:52.286Z</time></trkpt><trkpt lat="42.1925" lon="13.6521617"><ele>613.0</ele><time>2026-05-02T11:12:53.286Z</time></trkpt><trkpt lat="42.1924167" lon="13.6521933"><ele>613.0</ele><time>2026-05-02T11:12:54.286Z</time></trkpt><trkpt lat="42.192335" lon="13.652275"><ele>613.0</ele><time>2026-05-02T11:12:55.286Z</time></trkpt><trkpt lat="42.192245" lon="13.6523783"><ele>613.0</ele><time>2026-05-02T11:12:56.286Z</time></trkpt><trkpt lat="42.1921467" lon="13.652495"><ele>613.0</ele><time>2026-05-02T11:12:57.286Z</time></trkpt><trkpt lat="42.1920367" lon="13.6525983"><ele>616.5</ele><time>2026-05-02T11:12:58.286Z</time></trkpt><trkpt lat="42.1919117" lon="13.65267"><ele>620.0</ele><time>2026-05-02T11:12:59.286Z</time></trkpt><trkpt lat="42.19177" lon="13.6527083"><ele>623.5</ele><time>2026-05-02T11:13:00.286Z</time></trkpt><trkpt lat="42.191615" lon="13.6527317"><ele>627.0</ele><time>2026-05-02T11:13:01.287Z</time></trkpt><trkpt lat="42.19146" lon="13.652755"><ele>628.0</ele><time>2026-05-02T11:13:02.286Z</time></trkpt><trkpt lat="42.19131" lon="13.6528"><ele>629.0</ele><time>2026-05-02T11:13:03.286Z</time></trkpt><trkpt lat="42.1911767" lon="13.6528833"><ele>630.0</ele><time>2026-05-02T11:13:04.287Z</time></trkpt><trkpt lat="42.1910533" lon="13.653005"><ele>630.0</ele><time>2026-05-02T11:13:05.286Z</time></trkpt><trkpt lat="42.1909167" lon="13.6531383"><ele>630.0</ele><time>2026-05-02T11:13:06.286Z</time></trkpt><trkpt lat="42.190775" lon="13.653255"><ele>630.0</ele><time>2026-05-02T11:13:07.286Z</time></trkpt><trkpt lat="42.1906167" lon="13.653355"><ele>636.0</ele><time>2026-05-02T11:13:08.286Z</time></trkpt><trkpt lat="42.1904367" lon="13.6534467"><ele>642.0</ele><time>2026-05-02T11:13:09.286Z</time></trkpt><trkpt lat="42.1902733" lon="13.65353"><ele>648.0</ele><time>2026-05-02T11:13:10.286Z</time></trkpt><trkpt lat="42.1901117" lon="13.65361"><ele>649.0</ele><time>2026-05-02T11:13:11.286Z</time></trkpt><trkpt lat="42.189965" lon="13.6536717"><ele>650.0</ele><time>2026-05-02T11:13:12.286Z</time></trkpt><trkpt lat="42.1898417" lon="13.65373"><ele>651.0</ele><time>2026-05-02T11:13:13.287Z</time></trkpt><trkpt lat="42.189755" lon="13.65378"><ele>652.0</ele><time>2026-05-02T11:13:14.286Z</time></trkpt><trkpt lat="42.189695" lon="13.65387"><ele>652.0</ele><time>2026-05-02T11:13:15.286Z</time></trkpt><trkpt lat="42.18966" lon="13.6539767"><ele>652.0</ele><time>2026-05-02T11:13:16.286Z</time></trkpt><trkpt lat="42.1896483" lon="13.6541083"><ele>652.0</ele><time>2026-05-02T11:13:17.286Z</time></trkpt><trkpt lat="42.18969" lon="13.6542583"><ele>652.0</ele><time>2026-05-02T11:13:18.286Z</time></trkpt><trkpt lat="42.1897583" lon="13.65442"><ele>652.0</ele><time>2026-05-02T11:13:19.286Z</time></trkpt><trkpt lat="42.18982" lon="13.654595"><ele>650.2</ele><time>2026-05-02T11:13:20.286Z</time></trkpt><trkpt lat="42.1898833" lon="13.65475"><ele>648.4000000000001</ele><time>2026-05-02T11:13:21.286Z</time></trkpt><trkpt lat="42.189935" lon="13.6548917"><ele>646.5999999999999</ele><time>2026-05-02T11:13:22.286Z</time></trkpt><trkpt lat="42.1899567" lon="13.65501"><ele>644.8</ele><time>2026-05-02T11:13:23.286Z</time></trkpt><trkpt lat="42.18995" lon="13.6551217"><ele>643.0</ele><time>2026-05-02T11:13:24.286Z</time></trkpt><trkpt lat="42.189905" lon="13.65522"><ele>645.25</ele><time>2026-05-02T11:13:25.286Z</time></trkpt><trkpt lat="42.1898183" lon="13.6552867"><ele>647.5</ele><time>2026-05-02T11:13:26.287Z</time></trkpt><trkpt lat="42.189705" lon="13.65534"><ele>649.75</ele><time>2026-05-02T11:13:27.286Z</time></trkpt><trkpt lat="42.1895783" lon="13.6553933"><ele>652.0</ele><time>2026-05-02T11:13:28.286Z</time></trkpt><trkpt lat="42.18943" lon="13.6554583"><ele>652.0</ele><time>2026-05-02T11:13:29.286Z</time></trkpt><trkpt lat="42.18928" lon="13.6555367"><ele>652.0</ele><time>2026-05-02T11:13:30.286Z</time></trkpt><trkpt lat="42.1891333" lon="13.6556183"><ele>652.0</ele><time>2026-05-02T11:13:31.286Z</time></trkpt><trkpt lat="42.1889683" lon="13.655705"><ele>654.3333333333334</ele><time>2026-05-02T11:13:32.286Z</time></trkpt><trkpt lat="42.18879" lon="13.655785"><ele>656.6666666666666</ele><time>2026-05-02T11:13:33.287Z</time></trkpt><trkpt lat="42.1886217" lon="13.6558567"><ele>659.0</ele><time>2026-05-02T11:13:34.286Z</time></trkpt><trkpt lat="42.18847" lon="13.6559183"><ele>659.0</ele><time>2026-05-02T11:13:35.286Z</time></trkpt><trkpt lat="42.1883367" lon="13.6559633"><ele>659.0</ele><time>2026-05-02T11:13:36.286Z</time></trkpt><trkpt lat="42.1882367" lon="13.6560083"><ele>659.0</ele><time>2026-05-02T11:13:37.287Z</time></trkpt><trkpt lat="42.18817" lon="13.6560633"><ele>659.0</ele><time>2026-05-02T11:13:38.286Z</time></trkpt><trkpt lat="42.18811" lon="13.656215"><ele>659.0</ele><time>2026-05-02T11:13:40.286Z</time></trkpt><trkpt lat="42.1881683" lon="13.656355"><ele>660.5</ele><time>2026-05-02T11:13:42.286Z</time></trkpt><trkpt lat="42.1882567" lon="13.656395"><ele>662.0</ele><time>2026-05-02T11:13:43.286Z</time></trkpt><trkpt lat="42.188365" lon="13.6564083"><ele>663.5</ele><time>2026-05-02T11:13:44.286Z</time></trkpt><trkpt lat="42.1885" lon="13.6563983"><ele>665.0</ele><time>2026-05-02T11:13:45.286Z</time></trkpt><trkpt lat="42.1886567" lon="13.65638"><ele>665.0</ele><time>2026-05-02T11:13:46.286Z</time></trkpt><trkpt lat="42.1888417" lon="13.6563567"><ele>665.0</ele><time>2026-05-02T11:13:47.286Z</time></trkpt><trkpt lat="42.1890033" lon="13.6563217"><ele>665.0</ele><time>2026-05-02T11:13:48.286Z</time></trkpt><trkpt lat="42.1891417" lon="13.6562983"><ele>664.1666666666666</ele><time>2026-05-02T11:13:49.286Z</time></trkpt><trkpt lat="42.1892617" lon="13.656285"><ele>663.3333333333333</ele><time>2026-05-02T11:13:50.286Z</time></trkpt><trkpt lat="42.189355" lon="13.65628"><ele>662.5</ele><time>2026-05-02T11:13:51.286Z</time></trkpt><trkpt lat="42.18943" lon="13.65631"><ele>661.6666666666666</ele><time>2026-05-02T11:13:52.286Z</time></trkpt><trkpt lat="42.1894783" lon="13.6563733"><ele>660.8333333333334</ele><time>2026-05-02T11:13:53.286Z</time></trkpt><trkpt lat="42.189475" lon="13.65646"><ele>660.0</ele><time>2026-05-02T11:13:54.286Z</time></trkpt><trkpt lat="42.1894333" lon="13.656525"><ele>660.0</ele><time>2026-05-02T11:13:55.286Z</time></trkpt><trkpt lat="42.1893" lon="13.656555"><ele>660.0</ele><time>2026-05-02T11:13:57.286Z</time></trkpt><trkpt lat="42.189195" lon="13.6565483"><ele>660.0</ele><time>2026-05-02T11:13:58.286Z</time></trkpt><trkpt lat="42.18907" lon="13.6565467"><ele>660.0</ele><time>2026-05-02T11:13:59.287Z</time></trkpt><trkpt lat="42.188935" lon="13.6565367"><ele>661.25</ele><time>2026-05-02T11:14:00.286Z</time></trkpt><trkpt lat="42.1888067" lon="13.6565417"><ele>662.5</ele><time>2026-05-02T11:14:01.287Z</time></trkpt><trkpt lat="42.1886733" lon="13.6565483"><ele>663.75</ele><time>2026-05-02T11:14:02.286Z</time></trkpt><trkpt lat="42.1885383" lon="13.65656"><ele>665.0</ele><time>2026-05-02T11:14:03.286Z</time></trkpt><trkpt lat="42.1883967" lon="13.65657"><ele>665.0</ele><time>2026-05-02T11:14:04.286Z</time></trkpt><trkpt lat="42.188245" lon="13.656585"><ele>665.0</ele><time>2026-05-02T11:14:05.286Z</time></trkpt><trkpt lat="42.18809" lon="13.6566"><ele>665.0</ele><time>2026-05-02T11:14:06.286Z</time></trkpt><trkpt lat="42.187925" lon="13.656615"><ele>666.3333333333333</ele><time>2026-05-02T11:14:07.286Z</time></trkpt><trkpt lat="42.1877583" lon="13.6566417"><ele>667.6666666666666</ele><time>2026-05-02T11:14:08.286Z</time></trkpt><trkpt lat="42.18759" lon="13.6566767"><ele>669.0</ele><time>2026-05-02T11:14:09.286Z</time></trkpt><trkpt lat="42.1874283" lon="13.6567217"><ele>671.3333333333334</ele><time>2026-05-02T11:14:10.286Z</time></trkpt><trkpt lat="42.187265" lon="13.6567683"><ele>673.6666666666667</ele><time>2026-05-02T11:14:11.286Z</time></trkpt><trkpt lat="42.1871" lon="13.6568033"><ele>676.0</ele><time>2026-05-02T11:14:12.286Z</time></trkpt><trkpt lat="42.1869333" lon="13.6568367"><ele>676.0</ele><time>2026-05-02T11:14:13.287Z</time></trkpt><trkpt lat="42.18677" lon="13.6568767"><ele>676.0</ele><time>2026-05-02T11:14:14.286Z</time></trkpt><trkpt lat="42.1866033" lon="13.65692"><ele>676.0</ele><time>2026-05-02T11:14:15.286Z</time></trkpt><trkpt lat="42.1864417" lon="13.65696"><ele>682.6666666666667</ele><time>2026-05-02T11:14:16.286Z</time></trkpt><trkpt lat="42.18627" lon="13.6569967"><ele>689.3333333333334</ele><time>2026-05-02T11:14:17.286Z</time></trkpt><trkpt lat="42.1861017" lon="13.6570317"><ele>696.0</ele><time>2026-05-02T11:14:18.286Z</time></trkpt><trkpt lat="42.1859333" lon="13.6570733"><ele>696.0</ele><time>2026-05-02T11:14:19.287Z</time></trkpt><trkpt lat="42.1857733" lon="13.6571133"><ele>696.0</ele><time>2026-05-02T11:14:20.286Z</time></trkpt><trkpt lat="42.185625" lon="13.6571533"><ele>696.0</ele><time>2026-05-02T11:14:21.287Z</time></trkpt><trkpt lat="42.1854817" lon="13.6571883"><ele>694.5</ele><time>2026-05-02T11:14:22.286Z</time></trkpt><trkpt lat="42.18534" lon="13.657245"><ele>693.0</ele><time>2026-05-02T11:14:23.286Z</time></trkpt><trkpt lat="42.1852117" lon="13.6573183"><ele>691.5</ele><time>2026-05-02T11:14:24.286Z</time></trkpt><trkpt lat="42.1850883" lon="13.6574217"><ele>690.0</ele><time>2026-05-02T11:14:25.286Z</time></trkpt><trkpt lat="42.1849617" lon="13.6575317"><ele>690.0</ele><time>2026-05-02T11:14:26.286Z</time></trkpt><trkpt lat="42.1848467" lon="13.657665"><ele>690.0</ele><time>2026-05-02T11:14:27.286Z</time></trkpt><trkpt lat="42.18473" lon="13.6578"><ele>690.0</ele><time>2026-05-02T11:14:28.286Z</time></trkpt><trkpt lat="42.1846083" lon="13.6579317"><ele>688.6666666666666</ele><time>2026-05-02T11:14:29.286Z</time></trkpt><trkpt lat="42.18448" lon="13.658065"><ele>687.3333333333333</ele><time>2026-05-02T11:14:30.286Z</time></trkpt><trkpt lat="42.1843483" lon="13.6582067"><ele>686.0</ele><time>2026-05-02T11:14:31.286Z</time></trkpt><trkpt lat="42.1842033" lon="13.65833"><ele>686.0</ele><time>2026-05-02T11:14:32.286Z</time></trkpt><trkpt lat="42.1840567" lon="13.6584533"><ele>686.0</ele><time>2026-05-02T11:14:33.287Z</time></trkpt><trkpt lat="42.1838917" lon="13.6585783"><ele>686.0</ele><time>2026-05-02T11:14:34.287Z</time></trkpt><trkpt lat="42.1837217" lon="13.6586967"><ele>686.6666666666666</ele><time>2026-05-02T11:14:35.286Z</time></trkpt><trkpt lat="42.18354" lon="13.6588017"><ele>687.3333333333334</ele><time>2026-05-02T11:14:36.286Z</time></trkpt><trkpt lat="42.1833633" lon="13.658895"><ele>688.0</ele><time>2026-05-02T11:14:37.286Z</time></trkpt><trkpt lat="42.1831783" lon="13.6589917"><ele>688.0</ele><time>2026-05-02T11:14:38.286Z</time></trkpt><trkpt lat="42.1829967" lon="13.6590917"><ele>688.0</ele><time>2026-05-02T11:14:39.286Z</time></trkpt><trkpt lat="42.1828083" lon="13.6591917"><ele>688.0</ele><time>2026-05-02T11:14:40.286Z</time></trkpt><trkpt lat="42.1826133" lon="13.6592933"><ele>688.0</ele><time>2026-05-02T11:14:41.286Z</time></trkpt><trkpt lat="42.1824267" lon="13.6594"><ele>688.0</ele><time>2026-05-02T11:14:42.286Z</time></trkpt><trkpt lat="42.1822483" lon="13.6595133"><ele>688.0</ele><time>2026-05-02T11:14:43.286Z</time></trkpt><trkpt lat="42.18208" lon="13.659635"><ele>687.0</ele><time>2026-05-02T11:14:44.286Z</time></trkpt><trkpt lat="42.18191" lon="13.6597817"><ele>686.0</ele><time>2026-05-02T11:14:45.286Z</time></trkpt><trkpt lat="42.181755" lon="13.6599483"><ele>685.0</ele><time>2026-05-02T11:14:46.286Z</time></trkpt><trkpt lat="42.1815967" lon="13.660125"><ele>686.3333333333334</ele><time>2026-05-02T11:14:47.287Z</time></trkpt><trkpt lat="42.1814433" lon="13.66031"><ele>687.6666666666666</ele><time>2026-05-02T11:14:48.287Z</time></trkpt><trkpt lat="42.1812917" lon="13.6605"><ele>689.0</ele><time>2026-05-02T11:14:49.286Z</time></trkpt><trkpt lat="42.1811467" lon="13.660695"><ele>689.0</ele><time>2026-05-02T11:14:50.286Z</time></trkpt><trkpt lat="42.18101" lon="13.66088"><ele>689.0</ele><time>2026-05-02T11:14:51.286Z</time></trkpt><trkpt lat="42.180885" lon="13.6610617"><ele>689.0</ele><time>2026-05-02T11:14:52.287Z</time></trkpt><trkpt lat="42.1807767" lon="13.66123"><ele>689.3333333333333</ele><time>2026-05-02T11:14:53.286Z</time></trkpt><trkpt lat="42.1806583" lon="13.6613767"><ele>689.6666666666666</ele><time>2026-05-02T11:14:54.286Z</time></trkpt><trkpt lat="42.1805417" lon="13.661525"><ele>690.0</ele><time>2026-05-02T11:14:55.286Z</time></trkpt><trkpt lat="42.1804067" lon="13.66166"><ele>690.0</ele><time>2026-05-02T11:14:56.286Z</time></trkpt><trkpt lat="42.1802583" lon="13.661795"><ele>690.0</ele><time>2026-05-02T11:14:57.287Z</time></trkpt><trkpt lat="42.1801133" lon="13.661935"><ele>690.0</ele><time>2026-05-02T11:14:58.286Z</time></trkpt><trkpt lat="42.1799667" lon="13.6620967"><ele>688.6666666666666</ele><time>2026-05-02T11:14:59.287Z</time></trkpt><trkpt lat="42.17982" lon="13.6622767"><ele>687.3333333333333</ele><time>2026-05-02T11:15:00.286Z</time></trkpt><trkpt lat="42.179665" lon="13.6624583"><ele>686.0</ele><time>2026-05-02T11:15:01.287Z</time></trkpt><trkpt lat="42.1795117" lon="13.6626417"><ele>686.3333333333333</ele><time>2026-05-02T11:15:02.286Z</time></trkpt><trkpt lat="42.17937" lon="13.6628333"><ele>686.6666666666666</ele><time>2026-05-02T11:15:03.286Z</time></trkpt><trkpt lat="42.1792283" lon="13.66303"><ele>687.0</ele><time>2026-05-02T11:15:04.286Z</time></trkpt><trkpt lat="42.17909" lon="13.66323"><ele>688.6666666666666</ele><time>2026-05-02T11:15:05.286Z</time></trkpt><trkpt lat="42.178945" lon="13.6634167"><ele>690.3333333333333</ele><time>2026-05-02T11:15:06.286Z</time></trkpt><trkpt lat="42.1788033" lon="13.6635817"><ele>692.0</ele><time>2026-05-02T11:15:07.286Z</time></trkpt><trkpt lat="42.1786533" lon="13.6637517"><ele>692.6666666666666</ele><time>2026-05-02T11:15:08.286Z</time></trkpt><trkpt lat="42.1784917" lon="13.6639083"><ele>693.3333333333334</ele><time>2026-05-02T11:15:09.286Z</time></trkpt><trkpt lat="42.1783317" lon="13.6640483"><ele>694.0</ele><time>2026-05-02T11:15:10.286Z</time></trkpt><trkpt lat="42.1781667" lon="13.664175"><ele>695.3333333333334</ele><time>2026-05-02T11:15:11.286Z</time></trkpt><trkpt lat="42.1780067" lon="13.6643017"><ele>696.6666666666666</ele><time>2026-05-02T11:15:12.286Z</time></trkpt><trkpt lat="42.1778417" lon="13.6644217"><ele>698.0</ele><time>2026-05-02T11:15:13.287Z</time></trkpt><trkpt lat="42.1776917" lon="13.6645333"><ele>699.3333333333333</ele><time>2026-05-02T11:15:14.286Z</time></trkpt><trkpt lat="42.17755" lon="13.6646467"><ele>700.6666666666666</ele><time>2026-05-02T11:15:15.286Z</time></trkpt><trkpt lat="42.1774217" lon="13.66477"><ele>702.0</ele><time>2026-05-02T11:15:16.286Z</time></trkpt><trkpt lat="42.17729" lon="13.6649017"><ele>705.0</ele><time>2026-05-02T11:15:17.286Z</time></trkpt><trkpt lat="42.1771717" lon="13.66505"><ele>708.0</ele><time>2026-05-02T11:15:18.286Z</time></trkpt><trkpt lat="42.17706" lon="13.6652233"><ele>711.0</ele><time>2026-05-02T11:15:19.286Z</time></trkpt><trkpt lat="42.17694" lon="13.6653883"><ele>712.0</ele><time>2026-05-02T11:15:20.286Z</time></trkpt><trkpt lat="42.1768183" lon="13.6655383"><ele>713.0</ele><time>2026-05-02T11:15:21.286Z</time></trkpt><trkpt lat="42.1767017" lon="13.6656733"><ele>714.0</ele><time>2026-05-02T11:15:22.286Z</time></trkpt><trkpt lat="42.176595" lon="13.665785"><ele>716.2</ele><time>2026-05-02T11:15:23.286Z</time></trkpt><trkpt lat="42.1764917" lon="13.66589"><ele>718.4000000000001</ele><time>2026-05-02T11:15:24.286Z</time></trkpt><trkpt lat="42.1764017" lon="13.6659783"><ele>720.6</ele><time>2026-05-02T11:15:25.286Z</time></trkpt><trkpt lat="42.1763133" lon="13.6660533"><ele>722.8</ele><time>2026-05-02T11:15:26.286Z</time></trkpt><trkpt lat="42.176235" lon="13.6660933"><ele>725.0</ele><time>2026-05-02T11:15:27.286Z</time></trkpt><trkpt lat="42.1761483" lon="13.6661117"><ele>725.5</ele><time>2026-05-02T11:15:28.286Z</time></trkpt><trkpt lat="42.1760483" lon="13.6660917"><ele>726.0</ele><time>2026-05-02T11:15:29.286Z</time></trkpt><trkpt lat="42.1759333" lon="13.6660533"><ele>726.5</ele><time>2026-05-02T11:15:30.286Z</time></trkpt><trkpt lat="42.175805" lon="13.6660033"><ele>727.0</ele><time>2026-05-02T11:15:31.286Z</time></trkpt><trkpt lat="42.1756833" lon="13.6659583"><ele>729.25</ele><time>2026-05-02T11:15:32.286Z</time></trkpt><trkpt lat="42.1755683" lon="13.6659133"><ele>731.5</ele><time>2026-05-02T11:15:33.286Z</time></trkpt><trkpt lat="42.1754567" lon="13.665855"><ele>733.75</ele><time>2026-05-02T11:15:34.286Z</time></trkpt><trkpt lat="42.1753483" lon="13.6657917"><ele>736.0</ele><time>2026-05-02T11:15:35.287Z</time></trkpt><trkpt lat="42.1752333" lon="13.6657183"><ele>736.0</ele><time>2026-05-02T11:15:36.287Z</time></trkpt><trkpt lat="42.1751067" lon="13.6656317"><ele>736.0</ele><time>2026-05-02T11:15:37.287Z</time></trkpt><trkpt lat="42.1749683" lon="13.665545"><ele>736.0</ele><time>2026-05-02T11:15:38.286Z</time></trkpt><trkpt lat="42.174815" lon="13.665445"><ele>739.0</ele><time>2026-05-02T11:15:39.286Z</time></trkpt><trkpt lat="42.1746583" lon="13.6653383"><ele>742.0</ele><time>2026-05-02T11:15:40.286Z</time></trkpt><trkpt lat="42.1745033" lon="13.6652283"><ele>745.0</ele><time>2026-05-02T11:15:41.286Z</time></trkpt><trkpt lat="42.1743517" lon="13.6651217"><ele>746.3333333333334</ele><time>2026-05-02T11:15:42.286Z</time></trkpt><trkpt lat="42.1741833" lon="13.6650117"><ele>747.6666666666666</ele><time>2026-05-02T11:15:43.287Z</time></trkpt><trkpt lat="42.1740017" lon="13.66489"><ele>749.0</ele><time>2026-05-02T11:15:44.287Z</time></trkpt><trkpt lat="42.1738133" lon="13.664755"><ele>754.0</ele><time>2026-05-02T11:15:45.286Z</time></trkpt><trkpt lat="42.1736383" lon="13.6646383"><ele>759.0</ele><time>2026-05-02T11:15:46.286Z</time></trkpt><trkpt lat="42.1734717" lon="13.6645333"><ele>764.0</ele><time>2026-05-02T11:15:47.286Z</time></trkpt><trkpt lat="42.173315" lon="13.66443"><ele>768.6666666666666</ele><time>2026-05-02T11:15:48.286Z</time></trkpt><trkpt lat="42.1731717" lon="13.664325"><ele>773.3333333333333</ele><time>2026-05-02T11:15:49.286Z</time></trkpt><trkpt lat="42.1730233" lon="13.6642117"><ele>778.0</ele><time>2026-05-02T11:15:50.286Z</time></trkpt><trkpt lat="42.1728783" lon="13.6640933"><ele>778.0</ele><time>2026-05-02T11:15:51.286Z</time></trkpt><trkpt lat="42.1727467" lon="13.6639667"><ele>778.0</ele><time>2026-05-02T11:15:52.286Z</time></trkpt><trkpt lat="42.1726183" lon="13.6638383"><ele>778.0</ele><time>2026-05-02T11:15:53.286Z</time></trkpt><trkpt lat="42.1724917" lon="13.6637167"><ele>780.0</ele><time>2026-05-02T11:15:54.286Z</time></trkpt><trkpt lat="42.1723867" lon="13.6635933"><ele>782.0</ele><time>2026-05-02T11:15:55.286Z</time></trkpt><trkpt lat="42.1722883" lon="13.6634533"><ele>784.0</ele><time>2026-05-02T11:15:56.286Z</time></trkpt><trkpt lat="42.1722017" lon="13.663315"><ele>786.0</ele><time>2026-05-02T11:15:57.286Z</time></trkpt><trkpt lat="42.1721383" lon="13.6631633"><ele>787.0</ele><time>2026-05-02T11:15:58.286Z</time></trkpt><trkpt lat="42.1720817" lon="13.662995"><ele>788.0</ele><time>2026-05-02T11:15:59.286Z</time></trkpt><trkpt lat="42.17201" lon="13.66281"><ele>789.0</ele><time>2026-05-02T11:16:00.287Z</time></trkpt><trkpt lat="42.1719283" lon="13.6626267"><ele>790.0</ele><time>2026-05-02T11:16:01.286Z</time></trkpt><trkpt lat="42.1718433" lon="13.6624317"><ele>791.0</ele><time>2026-05-02T11:16:02.287Z</time></trkpt><trkpt lat="42.1717483" lon="13.6622383"><ele>792.0</ele><time>2026-05-02T11:16:03.286Z</time></trkpt><trkpt lat="42.1716467" lon="13.6620383"><ele>797.3333333333333</ele><time>2026-05-02T11:16:04.286Z</time></trkpt><trkpt lat="42.1715517" lon="13.6618367"><ele>802.6666666666666</ele><time>2026-05-02T11:16:05.286Z</time></trkpt><trkpt lat="42.1714583" lon="13.6616317"><ele>808.0</ele><time>2026-05-02T11:16:06.286Z</time></trkpt><trkpt lat="42.17138" lon="13.6614567"><ele>810.2</ele><time>2026-05-02T11:16:07.286Z</time></trkpt><trkpt lat="42.17132" lon="13.6613183"><ele>812.4</ele><time>2026-05-02T11:16:08.286Z</time></trkpt><trkpt lat="42.1712717" lon="13.6611983"><ele>814.6</ele><time>2026-05-02T11:16:09.286Z</time></trkpt><trkpt lat="42.1712233" lon="13.661095"><ele>816.8000000000001</ele><time>2026-05-02T11:16:10.286Z</time></trkpt><trkpt lat="42.171155" lon="13.661005"><ele>819.0</ele><time>2026-05-02T11:16:11.286Z</time></trkpt><trkpt lat="42.171065" lon="13.6609183"><ele>819.0</ele><time>2026-05-02T11:16:12.286Z</time></trkpt><trkpt lat="42.17095" lon="13.6608517"><ele>819.0</ele><time>2026-05-02T11:16:13.286Z</time></trkpt><trkpt lat="42.170825" lon="13.6607917"><ele>819.0</ele><time>2026-05-02T11:16:14.286Z</time></trkpt><trkpt lat="42.1706933" lon="13.660745"><ele>819.0</ele><time>2026-05-02T11:16:15.286Z</time></trkpt><trkpt lat="42.1705567" lon="13.660705"><ele>823.75</ele><time>2026-05-02T11:16:16.286Z</time></trkpt><trkpt lat="42.1704233" lon="13.660655"><ele>828.5</ele><time>2026-05-02T11:16:17.286Z</time></trkpt><trkpt lat="42.17029" lon="13.6605867"><ele>833.25</ele><time>2026-05-02T11:16:18.286Z</time></trkpt><trkpt lat="42.1701567" lon="13.66051"><ele>838.0</ele><time>2026-05-02T11:16:19.286Z</time></trkpt><trkpt lat="42.1700283" lon="13.6604217"><ele>838.0</ele><time>2026-05-02T11:16:20.286Z</time></trkpt><trkpt lat="42.1699167" lon="13.6603517"><ele>838.0</ele><time>2026-05-02T11:16:21.286Z</time></trkpt><trkpt lat="42.1698067" lon="13.6602933"><ele>838.0</ele><time>2026-05-02T11:16:22.287Z</time></trkpt><trkpt lat="42.1696883" lon="13.6602567"><ele>838.0</ele><time>2026-05-02T11:16:23.287Z</time></trkpt><trkpt lat="42.1695617" lon="13.6602233"><ele>843.0</ele><time>2026-05-02T11:16:24.286Z</time></trkpt><trkpt lat="42.1694267" lon="13.6601967"><ele>848.0</ele><time>2026-05-02T11:16:25.286Z</time></trkpt><trkpt lat="42.1692867" lon="13.6601617"><ele>853.0</ele><time>2026-05-02T11:16:26.286Z</time></trkpt><trkpt lat="42.1691483" lon="13.6600983"><ele>858.0</ele><time>2026-05-02T11:16:27.286Z</time></trkpt><trkpt lat="42.1690267" lon="13.6600333"><ele>860.8</ele><time>2026-05-02T11:16:28.286Z</time></trkpt><trkpt lat="42.1689233" lon="13.659975"><ele>863.5999999999999</ele><time>2026-05-02T11:16:29.286Z</time></trkpt><trkpt lat="42.16883" lon="13.6599333"><ele>866.4000000000001</ele><time>2026-05-02T11:16:30.286Z</time></trkpt><trkpt lat="42.1687333" lon="13.6599183"><ele>869.2</ele><time>2026-05-02T11:16:31.286Z</time></trkpt><trkpt lat="42.16864" lon="13.65994"><ele>872.0</ele><time>2026-05-02T11:16:32.286Z</time></trkpt><trkpt lat="42.1685333" lon="13.6599933"><ele>872.0</ele><time>2026-05-02T11:16:33.287Z</time></trkpt><trkpt lat="42.1684" lon="13.6600633"><ele>872.0</ele><time>2026-05-02T11:16:34.286Z</time></trkpt><trkpt lat="42.1682517" lon="13.66017"><ele>872.0</ele><time>2026-05-02T11:16:35.286Z</time></trkpt><trkpt lat="42.1681" lon="13.6602883"><ele>876.3333333333334</ele><time>2026-05-02T11:16:36.286Z</time></trkpt><trkpt lat="42.16796" lon="13.66042"><ele>880.6666666666667</ele><time>2026-05-02T11:16:37.286Z</time></trkpt><trkpt lat="42.167805" lon="13.660555"><ele>885.0</ele><time>2026-05-02T11:16:38.286Z</time></trkpt><trkpt lat="42.1676483" lon="13.6606983"><ele>885.0</ele><time>2026-05-02T11:16:39.286Z</time></trkpt><trkpt lat="42.1674783" lon="13.6608367"><ele>885.0</ele><time>2026-05-02T11:16:40.286Z</time></trkpt><trkpt lat="42.167305" lon="13.660965"><ele>885.0</ele><time>2026-05-02T11:16:41.287Z</time></trkpt><trkpt lat="42.1671483" lon="13.66108"><ele>888.6666666666667</ele><time>2026-05-02T11:16:42.286Z</time></trkpt><trkpt lat="42.16701" lon="13.6611967"><ele>892.3333333333334</ele><time>2026-05-02T11:16:43.286Z</time></trkpt><trkpt lat="42.1668817" lon="13.661315"><ele>896.0</ele><time>2026-05-02T11:16:44.286Z</time></trkpt><trkpt lat="42.1667583" lon="13.6614617"><ele>896.0</ele><time>2026-05-02T11:16:45.287Z</time></trkpt><trkpt lat="42.16665" lon="13.66162"><ele>896.0</ele><time>2026-05-02T11:16:46.286Z</time></trkpt><trkpt lat="42.1665517" lon="13.6617933"><ele>896.0</ele><time>2026-05-02T11:16:47.286Z</time></trkpt><trkpt lat="42.1664367" lon="13.6619717"><ele>897.25</ele><time>2026-05-02T11:16:48.286Z</time></trkpt><trkpt lat="42.1663233" lon="13.6621467"><ele>898.5</ele><time>2026-05-02T11:16:49.286Z</time></trkpt><trkpt lat="42.1662333" lon="13.6622917"><ele>899.75</ele><time>2026-05-02T11:16:50.286Z</time></trkpt><trkpt lat="42.16616" lon="13.6624133"><ele>901.0</ele><time>2026-05-02T11:16:51.286Z</time></trkpt><trkpt lat="42.1660983" lon="13.6624917"><ele>901.0</ele><time>2026-05-02T11:16:52.286Z</time></trkpt><trkpt lat="42.166015" lon="13.6625383"><ele>900.9999999999999</ele><time>2026-05-02T11:16:54.286Z</time></trkpt><trkpt lat="42.165935" lon="13.6625483"><ele>900.9999999999999</ele><time>2026-05-02T11:17:10.286Z</time></trkpt><trkpt lat="42.16588" lon="13.6626367"><ele>901.0</ele><time>2026-05-02T11:17:12.286Z</time></trkpt><trkpt lat="42.16578" lon="13.6627317"><ele>901.0</ele><time>2026-05-02T11:17:14.286Z</time></trkpt><trkpt lat="42.1656867" lon="13.6628217"><ele>904.0</ele><time>2026-05-02T11:17:16.287Z</time></trkpt><trkpt lat="42.165615" lon="13.662865"><ele>906.9999999999999</ele><time>2026-05-02T11:17:18.286Z</time></trkpt><trkpt lat="42.16554" lon="13.6628883"><ele>909.9999999999999</ele><time>2026-05-02T11:17:20.286Z</time></trkpt><trkpt lat="42.1654367" lon="13.66291"><ele>913.0</ele><time>2026-05-02T11:17:22.286Z</time></trkpt><trkpt lat="42.16531" lon="13.6629333"><ele>916.0</ele><time>2026-05-02T11:17:24.286Z</time></trkpt><trkpt lat="42.1652367" lon="13.6629333"><ele>915.9999999999999</ele><time>2026-05-02T11:17:25.286Z</time></trkpt><trkpt lat="42.1651617" lon="13.6629383"><ele>916.0</ele><time>2026-05-02T11:17:26.286Z</time></trkpt><trkpt lat="42.1650917" lon="13.6629567"><ele>916.0</ele><time>2026-05-02T11:17:27.286Z</time></trkpt><trkpt lat="42.1650267" lon="13.6629817"><ele>916.0</ele><time>2026-05-02T11:17:28.287Z</time></trkpt><trkpt lat="42.164965" lon="13.6630183"><ele>915.9999999999999</ele><time>2026-05-02T11:17:29.286Z</time></trkpt><trkpt lat="42.1648633" lon="13.6631083"><ele>916.0</ele><time>2026-05-02T11:17:31.286Z</time></trkpt><trkpt lat="42.16474" lon="13.6631783"><ele>917.1999999999999</ele><time>2026-05-02T11:17:33.286Z</time></trkpt><trkpt lat="42.16468" lon="13.6632083"><ele>918.3999999999999</ele><time>2026-05-02T11:17:34.286Z</time></trkpt><trkpt lat="42.164625" lon="13.66325"><ele>919.6</ele><time>2026-05-02T11:17:35.286Z</time></trkpt><trkpt lat="42.1645383" lon="13.6633417"><ele>920.8</ele><time>2026-05-02T11:17:37.286Z</time></trkpt><trkpt lat="42.1644533" lon="13.663445"><ele>922.0</ele><time>2026-05-02T11:17:39.286Z</time></trkpt><trkpt lat="42.1643567" lon="13.66357"><ele>923.1666666666666</ele><time>2026-05-02T11:17:41.286Z</time></trkpt><trkpt lat="42.1642917" lon="13.6636233"><ele>924.3333333333333</ele><time>2026-05-02T11:17:42.286Z</time></trkpt><trkpt lat="42.1642217" lon="13.6636733"><ele>925.5</ele><time>2026-05-02T11:17:43.286Z</time></trkpt><trkpt lat="42.1641433" lon="13.66372"><ele>926.6666666666667</ele><time>2026-05-02T11:17:44.286Z</time></trkpt><trkpt lat="42.16407" lon="13.66377"><ele>927.8333333333334</ele><time>2026-05-02T11:17:45.286Z</time></trkpt><trkpt lat="42.164005" lon="13.66382"><ele>929.0</ele><time>2026-05-02T11:17:46.286Z</time></trkpt><trkpt lat="42.16395" lon="13.663875"><ele>930.0000000000001</ele><time>2026-05-02T11:17:47.286Z</time></trkpt><trkpt lat="42.1639" lon="13.6639417"><ele>931.0</ele><time>2026-05-02T11:17:48.286Z</time></trkpt><trkpt lat="42.1638517" lon="13.6640167"><ele>932.0</ele><time>2026-05-02T11:17:49.286Z</time></trkpt><trkpt lat="42.1637917" lon="13.6640833"><ele>933.0</ele><time>2026-05-02T11:17:50.286Z</time></trkpt><trkpt lat="42.1637217" lon="13.664145"><ele>934.0000000000001</ele><time>2026-05-02T11:17:51.286Z</time></trkpt><trkpt lat="42.1636517" lon="13.6642083"><ele>935.0</ele><time>2026-05-02T11:17:52.286Z</time></trkpt><trkpt lat="42.16358" lon="13.66427"><ele>935.0000000000001</ele><time>2026-05-02T11:17:53.286Z</time></trkpt><trkpt lat="42.1635117" lon="13.6643333"><ele>935.0</ele><time>2026-05-02T11:17:54.286Z</time></trkpt><trkpt lat="42.1634567" lon="13.6644083"><ele>935.0</ele><time>2026-05-02T11:17:55.286Z</time></trkpt><trkpt lat="42.1634" lon="13.6644917"><ele>935.0</ele><time>2026-05-02T11:17:56.286Z</time></trkpt><trkpt lat="42.1633367" lon="13.664575"><ele>935.0000000000001</ele><time>2026-05-02T11:17:57.286Z</time></trkpt><trkpt lat="42.1632867" lon="13.66465"><ele>935.0</ele><time>2026-05-02T11:17:58.286Z</time></trkpt><trkpt lat="42.163235" lon="13.664725"><ele>937.0000000000001</ele><time>2026-05-02T11:17:59.286Z</time></trkpt><trkpt lat="42.1631833" lon="13.6647967"><ele>939.0</ele><time>2026-05-02T11:18:00.286Z</time></trkpt><trkpt lat="42.1631267" lon="13.66487"><ele>941.0000000000001</ele><time>2026-05-02T11:18:01.286Z</time></trkpt><trkpt lat="42.1630733" lon="13.6649417"><ele>943.0000000000001</ele><time>2026-05-02T11:18:02.286Z</time></trkpt><trkpt lat="42.1630283" lon="13.6650067"><ele>945.0</ele><time>2026-05-02T11:18:03.286Z</time></trkpt><trkpt lat="42.1629783" lon="13.66507"><ele>947.0000000000001</ele><time>2026-05-02T11:18:04.286Z</time></trkpt><trkpt lat="42.1629383" lon="13.6651433"><ele>949.0000000000001</ele><time>2026-05-02T11:18:05.286Z</time></trkpt><trkpt lat="42.162905" lon="13.6652217"><ele>946.9999999999999</ele><time>2026-05-02T11:18:06.286Z</time></trkpt><trkpt lat="42.1628667" lon="13.6653183"><ele>945.0</ele><time>2026-05-02T11:18:07.286Z</time></trkpt><trkpt lat="42.162825" lon="13.6654067"><ele>943.0</ele><time>2026-05-02T11:18:08.286Z</time></trkpt><trkpt lat="42.16278" lon="13.66551"><ele>941.0</ele><time>2026-05-02T11:18:09.286Z</time></trkpt><trkpt lat="42.1627333" lon="13.665615"><ele>938.9999999999999</ele><time>2026-05-02T11:18:10.286Z</time></trkpt><trkpt lat="42.1626967" lon="13.6657183"><ele>937.0</ele><time>2026-05-02T11:18:11.286Z</time></trkpt><trkpt lat="42.1626617" lon="13.6658233"><ele>937.0</ele><time>2026-05-02T11:18:12.287Z</time></trkpt><trkpt lat="42.1626217" lon="13.6659233"><ele>937.0</ele><time>2026-05-02T11:18:13.286Z</time></trkpt><trkpt lat="42.16258" lon="13.66599"><ele>937.0</ele><time>2026-05-02T11:18:14.286Z</time></trkpt><trkpt lat="42.16253" lon="13.6660533"><ele>937.0</ele><time>2026-05-02T11:18:15.287Z</time></trkpt><trkpt lat="42.1624667" lon="13.6661083"><ele>937.0</ele><time>2026-05-02T11:18:16.286Z</time></trkpt><trkpt lat="42.1623983" lon="13.6661583"><ele>937.0</ele><time>2026-05-02T11:18:17.286Z</time></trkpt><trkpt lat="42.16234" lon="13.66621"><ele>937.0</ele><time>2026-05-02T11:18:18.287Z</time></trkpt><trkpt lat="42.1622717" lon="13.6662617"><ele>939.2</ele><time>2026-05-02T11:18:19.286Z</time></trkpt><trkpt lat="42.16219" lon="13.6663067"><ele>941.4000000000001</ele><time>2026-05-02T11:18:20.286Z</time></trkpt><trkpt lat="42.1621067" lon="13.6663533"><ele>943.5999999999999</ele><time>2026-05-02T11:18:21.287Z</time></trkpt><trkpt lat="42.1620217" lon="13.6664017"><ele>945.8</ele><time>2026-05-02T11:18:22.286Z</time></trkpt><trkpt lat="42.1619417" lon="13.6664583"><ele>948.0</ele><time>2026-05-02T11:18:23.286Z</time></trkpt><trkpt lat="42.1618617" lon="13.66652"><ele>948.0</ele><time>2026-05-02T11:18:24.286Z</time></trkpt><trkpt lat="42.1617917" lon="13.6665983"><ele>948.0</ele><time>2026-05-02T11:18:25.286Z</time></trkpt><trkpt lat="42.1617183" lon="13.6666717"><ele>948.0</ele><time>2026-05-02T11:18:26.286Z</time></trkpt><trkpt lat="42.1616383" lon="13.6667433"><ele>948.0</ele><time>2026-05-02T11:18:27.286Z</time></trkpt><trkpt lat="42.1615517" lon="13.6668133"><ele>948.0</ele><time>2026-05-02T11:18:28.286Z</time></trkpt><trkpt lat="42.1614617" lon="13.6668883"><ele>949.4</ele><time>2026-05-02T11:18:29.286Z</time></trkpt><trkpt lat="42.1613733" lon="13.66696"><ele>950.8</ele><time>2026-05-02T11:18:30.287Z</time></trkpt><trkpt lat="42.1612917" lon="13.667025"><ele>952.2</ele><time>2026-05-02T11:18:31.286Z</time></trkpt><trkpt lat="42.1612117" lon="13.667105"><ele>953.6</ele><time>2026-05-02T11:18:32.287Z</time></trkpt><trkpt lat="42.1611417" lon="13.667195"><ele>955.0</ele><time>2026-05-02T11:18:33.286Z</time></trkpt><trkpt lat="42.161075" lon="13.6672883"><ele>955.0</ele><time>2026-05-02T11:18:34.286Z</time></trkpt><trkpt lat="42.161005" lon="13.6673883"><ele>955.0</ele><time>2026-05-02T11:18:35.287Z</time></trkpt><trkpt lat="42.1609383" lon="13.66748"><ele>955.0</ele><time>2026-05-02T11:18:36.286Z</time></trkpt><trkpt lat="42.1608733" lon="13.66756"><ele>955.0</ele><time>2026-05-02T11:18:37.286Z</time></trkpt><trkpt lat="42.1608083" lon="13.6676433"><ele>955.0</ele><time>2026-05-02T11:18:38.286Z</time></trkpt><trkpt lat="42.160745" lon="13.6677133"><ele>954.4999999999999</ele><time>2026-05-02T11:18:39.286Z</time></trkpt><trkpt lat="42.1606867" lon="13.667765"><ele>954.0</ele><time>2026-05-02T11:18:40.286Z</time></trkpt><trkpt lat="42.1606233" lon="13.6678117"><ele>953.5</ele><time>2026-05-02T11:18:42.286Z</time></trkpt><trkpt lat="42.1605583" lon="13.6678783"><ele>953.0</ele><time>2026-05-02T11:18:47.286Z</time></trkpt><trkpt lat="42.1604583" lon="13.6679783"><ele>952.4999999999999</ele><time>2026-05-02T11:18:49.286Z</time></trkpt><trkpt lat="42.1604017" lon="13.66803"><ele>952.0</ele><time>2026-05-02T11:18:50.286Z</time></trkpt><trkpt lat="42.1603417" lon="13.668075"><ele>951.9999999999999</ele><time>2026-05-02T11:18:51.287Z</time></trkpt><trkpt lat="42.16028" lon="13.6681283"><ele>952.0</ele><time>2026-05-02T11:18:52.287Z</time></trkpt><trkpt lat="42.16023" lon="13.6681817"><ele>952.0</ele><time>2026-05-02T11:18:53.286Z</time></trkpt><trkpt lat="42.1601783" lon="13.66824"><ele>952.0</ele><time>2026-05-02T11:18:54.286Z</time></trkpt><trkpt lat="42.160085" lon="13.6683583"><ele>951.9999999999999</ele><time>2026-05-02T11:18:56.286Z</time></trkpt><trkpt lat="42.1600367" lon="13.6684233"><ele>952.0</ele><time>2026-05-02T11:18:57.286Z</time></trkpt><trkpt lat="42.159985" lon="13.6684767"><ele>951.9999999999999</ele><time>2026-05-02T11:18:58.286Z</time></trkpt><trkpt lat="42.159875" lon="13.6685683"><ele>952.0</ele><time>2026-05-02T11:19:00.287Z</time></trkpt><trkpt lat="42.1598167" lon="13.6686183"><ele>952.0</ele><time>2026-05-02T11:19:01.286Z</time></trkpt><trkpt lat="42.15976" lon="13.6686683"><ele>952.0</ele><time>2026-05-02T11:19:02.286Z</time></trkpt><trkpt lat="42.1597067" lon="13.6687217"><ele>951.9999999999999</ele><time>2026-05-02T11:19:03.286Z</time></trkpt><trkpt lat="42.15961" lon="13.66881"><ele>952.0</ele><time>2026-05-02T11:19:05.286Z</time></trkpt><trkpt lat="42.1595333" lon="13.6689133"><ele>950.1666666666666</ele><time>2026-05-02T11:19:07.286Z</time></trkpt><trkpt lat="42.1594983" lon="13.6690217"><ele>948.3333333333333</ele><time>2026-05-02T11:19:09.286Z</time></trkpt><trkpt lat="42.1594883" lon="13.66915"><ele>946.5</ele><time>2026-05-02T11:19:11.286Z</time></trkpt><trkpt lat="42.159505" lon="13.6693067"><ele>944.6666666666667</ele><time>2026-05-02T11:19:13.286Z</time></trkpt><trkpt lat="42.1595033" lon="13.6693983"><ele>942.8333333333334</ele><time>2026-05-02T11:19:14.286Z</time></trkpt><trkpt lat="42.1594883" lon="13.6695033"><ele>941.0</ele><time>2026-05-02T11:19:15.286Z</time></trkpt><trkpt lat="42.159475" lon="13.669605"><ele>939.9999999999999</ele><time>2026-05-02T11:19:16.286Z</time></trkpt><trkpt lat="42.15946" lon="13.669695"><ele>939.0</ele><time>2026-05-02T11:19:17.286Z</time></trkpt><trkpt lat="42.1594417" lon="13.6697833"><ele>937.9999999999999</ele><time>2026-05-02T11:19:18.286Z</time></trkpt><trkpt lat="42.1594117" lon="13.6698617"><ele>936.9999999999999</ele><time>2026-05-02T11:19:19.286Z</time></trkpt><trkpt lat="42.15938" lon="13.6699383"><ele>936.0</ele><time>2026-05-02T11:19:20.286Z</time></trkpt><trkpt lat="42.1593367" lon="13.6700117"><ele>934.9999999999999</ele><time>2026-05-02T11:19:21.286Z</time></trkpt><trkpt lat="42.15929" lon="13.6700783"><ele>933.9999999999999</ele><time>2026-05-02T11:19:22.286Z</time></trkpt><trkpt lat="42.1592517" lon="13.6701533"><ele>933.9999999999999</ele><time>2026-05-02T11:19:23.286Z</time></trkpt><trkpt lat="42.1592167" lon="13.6702383"><ele>934.0</ele><time>2026-05-02T11:19:24.286Z</time></trkpt><trkpt lat="42.1591867" lon="13.67034"><ele>933.9999999999999</ele><time>2026-05-02T11:19:25.286Z</time></trkpt><trkpt lat="42.15917" lon="13.6704467"><ele>933.9999999999999</ele><time>2026-05-02T11:19:26.287Z</time></trkpt><trkpt lat="42.1591617" lon="13.6705367"><ele>934.0</ele><time>2026-05-02T11:19:27.286Z</time></trkpt><trkpt lat="42.1591617" lon="13.67063"><ele>933.9999999999999</ele><time>2026-05-02T11:19:28.286Z</time></trkpt><trkpt lat="42.1591617" lon="13.6707233"><ele>933.9999999999999</ele><time>2026-05-02T11:19:29.286Z</time></trkpt><trkpt lat="42.159165" lon="13.6708317"><ele>935.6</ele><time>2026-05-02T11:19:30.286Z</time></trkpt><trkpt lat="42.1591783" lon="13.6709417"><ele>937.2</ele><time>2026-05-02T11:19:31.286Z</time></trkpt><trkpt lat="42.1591867" lon="13.6710617"><ele>938.8000000000001</ele><time>2026-05-02T11:19:32.286Z</time></trkpt><trkpt lat="42.159195" lon="13.671195"><ele>940.4000000000001</ele><time>2026-05-02T11:19:33.286Z</time></trkpt><trkpt lat="42.1592083" lon="13.6713317"><ele>942.0</ele><time>2026-05-02T11:19:34.286Z</time></trkpt><trkpt lat="42.15921" lon="13.6714517"><ele>942.1428571428573</ele><time>2026-05-02T11:19:35.286Z</time></trkpt><trkpt lat="42.1592133" lon="13.6715583"><ele>942.2857142857143</ele><time>2026-05-02T11:19:36.286Z</time></trkpt><trkpt lat="42.159225" lon="13.67165"><ele>942.4285714285716</ele><time>2026-05-02T11:19:37.286Z</time></trkpt><trkpt lat="42.1592367" lon="13.6717383"><ele>942.5714285714287</ele><time>2026-05-02T11:19:38.286Z</time></trkpt><trkpt lat="42.159265" lon="13.6718217"><ele>942.7142857142858</ele><time>2026-05-02T11:19:39.286Z</time></trkpt><trkpt lat="42.1593083" lon="13.6718933"><ele>942.8571428571429</ele><time>2026-05-02T11:19:40.286Z</time></trkpt><trkpt lat="42.1593633" lon="13.6719483"><ele>943.0</ele><time>2026-05-02T11:19:41.287Z</time></trkpt><trkpt lat="42.1594217" lon="13.671995"><ele>941.8</ele><time>2026-05-02T11:19:42.286Z</time></trkpt><trkpt lat="42.1595233" lon="13.6720767"><ele>940.5999999999999</ele><time>2026-05-02T11:19:44.286Z</time></trkpt><trkpt lat="42.1595833" lon="13.672185"><ele>939.4000000000001</ele><time>2026-05-02T11:19:46.287Z</time></trkpt><trkpt lat="42.159605" lon="13.672335"><ele>938.2</ele><time>2026-05-02T11:19:48.286Z</time></trkpt><trkpt lat="42.159625" lon="13.6724333"><ele>937.0</ele><time>2026-05-02T11:19:49.287Z</time></trkpt><trkpt lat="42.1596417" lon="13.6725267"><ele>936.9999999999999</ele><time>2026-05-02T11:19:50.286Z</time></trkpt><trkpt lat="42.15966" lon="13.67261"><ele>937.0</ele><time>2026-05-02T11:19:51.286Z</time></trkpt><trkpt lat="42.15969" lon="13.6727033"><ele>937.0</ele><time>2026-05-02T11:19:52.286Z</time></trkpt><trkpt lat="42.1597233" lon="13.6728017"><ele>937.0</ele><time>2026-05-02T11:19:53.286Z</time></trkpt><trkpt lat="42.15976" lon="13.6729017"><ele>936.9999999999999</ele><time>2026-05-02T11:19:54.286Z</time></trkpt><trkpt lat="42.1597983" lon="13.6730033"><ele>937.0</ele><time>2026-05-02T11:19:55.286Z</time></trkpt><trkpt lat="42.15984" lon="13.6731067"><ele>939.1666666666666</ele><time>2026-05-02T11:19:56.286Z</time></trkpt><trkpt lat="42.1598817" lon="13.6732083"><ele>941.3333333333333</ele><time>2026-05-02T11:19:57.286Z</time></trkpt><trkpt lat="42.1599233" lon="13.6733"><ele>943.5</ele><time>2026-05-02T11:19:58.286Z</time></trkpt><trkpt lat="42.159965" lon="13.6733933"><ele>945.6666666666667</ele><time>2026-05-02T11:19:59.286Z</time></trkpt><trkpt lat="42.1600083" lon="13.6734983"><ele>947.8333333333334</ele><time>2026-05-02T11:20:00.286Z</time></trkpt><trkpt lat="42.1600483" lon="13.6736017"><ele>950.0</ele><time>2026-05-02T11:20:01.286Z</time></trkpt><trkpt lat="42.1600917" lon="13.6737117"><ele>950.0000000000001</ele><time>2026-05-02T11:20:02.286Z</time></trkpt><trkpt lat="42.1601333" lon="13.6738233"><ele>950.0</ele><time>2026-05-02T11:20:03.286Z</time></trkpt><trkpt lat="42.1601733" lon="13.6739367"><ele>950.0</ele><time>2026-05-02T11:20:04.286Z</time></trkpt><trkpt lat="42.1602117" lon="13.67404"><ele>950.0</ele><time>2026-05-02T11:20:05.286Z</time></trkpt><trkpt lat="42.1602533" lon="13.67413"><ele>950.0000000000001</ele><time>2026-05-02T11:20:06.286Z</time></trkpt><trkpt lat="42.1602933" lon="13.67421"><ele>950.0</ele><time>2026-05-02T11:20:07.286Z</time></trkpt><trkpt lat="42.16037" lon="13.6743317"><ele>950.0</ele><time>2026-05-02T11:20:09.286Z</time></trkpt><trkpt lat="42.1604883" lon="13.6744033"><ele>950.0</ele><time>2026-05-02T11:20:11.286Z</time></trkpt><trkpt lat="42.1605617" lon="13.6744333"><ele>950.0</ele><time>2026-05-02T11:20:12.287Z</time></trkpt><trkpt lat="42.1606433" lon="13.674465"><ele>950.0</ele><time>2026-05-02T11:20:13.286Z</time></trkpt><trkpt lat="42.1607133" lon="13.6745133"><ele>950.0</ele><time>2026-05-02T11:20:14.286Z</time></trkpt><trkpt lat="42.1607783" lon="13.674585"><ele>952.2</ele><time>2026-05-02T11:20:15.286Z</time></trkpt><trkpt lat="42.1608367" lon="13.6746633"><ele>954.4</ele><time>2026-05-02T11:20:16.286Z</time></trkpt><trkpt lat="42.16089" lon="13.6747517"><ele>956.5999999999999</ele><time>2026-05-02T11:20:17.286Z</time></trkpt><trkpt lat="42.1609517" lon="13.674855"><ele>958.8</ele><time>2026-05-02T11:20:18.287Z</time></trkpt><trkpt lat="42.1610117" lon="13.6749617"><ele>961.0</ele><time>2026-05-02T11:20:19.287Z</time></trkpt><trkpt lat="42.1610717" lon="13.6750583"><ele>960.9999999999999</ele><time>2026-05-02T11:20:20.286Z</time></trkpt><trkpt lat="42.161125" lon="13.6751617"><ele>961.0</ele><time>2026-05-02T11:20:21.286Z</time></trkpt><trkpt lat="42.16117" lon="13.67526"><ele>961.0</ele><time>2026-05-02T11:20:22.286Z</time></trkpt><trkpt lat="42.16122" lon="13.67535"><ele>961.0</ele><time>2026-05-02T11:20:23.287Z</time></trkpt><trkpt lat="42.1612683" lon="13.675455"><ele>960.9999999999999</ele><time>2026-05-02T11:20:24.286Z</time></trkpt><trkpt lat="42.1613133" lon="13.675565"><ele>961.0</ele><time>2026-05-02T11:20:25.286Z</time></trkpt><trkpt lat="42.16137" lon="13.675685"><ele>962.1666666666666</ele><time>2026-05-02T11:20:26.286Z</time></trkpt><trkpt lat="42.1614217" lon="13.6757833"><ele>963.3333333333333</ele><time>2026-05-02T11:20:27.286Z</time></trkpt><trkpt lat="42.161465" lon="13.675855"><ele>964.5</ele><time>2026-05-02T11:20:28.287Z</time></trkpt><trkpt lat="42.1615217" lon="13.6760033"><ele>965.6666666666667</ele><time>2026-05-02T11:20:30.286Z</time></trkpt><trkpt lat="42.1615467" lon="13.676085"><ele>966.8333333333334</ele><time>2026-05-02T11:20:31.286Z</time></trkpt><trkpt lat="42.1615717" lon="13.6761767"><ele>968.0</ele><time>2026-05-02T11:20:32.286Z</time></trkpt><trkpt lat="42.1615867" lon="13.6762783"><ele>968.0000000000001</ele><time>2026-05-02T11:20:33.286Z</time></trkpt><trkpt lat="42.1616133" lon="13.6763833"><ele>968.0</ele><time>2026-05-02T11:20:34.286Z</time></trkpt><trkpt lat="42.1616417" lon="13.6764817"><ele>968.0</ele><time>2026-05-02T11:20:35.286Z</time></trkpt><trkpt lat="42.1616733" lon="13.67657"><ele>968.0</ele><time>2026-05-02T11:20:36.287Z</time></trkpt><trkpt lat="42.1616983" lon="13.6766617"><ele>968.0000000000001</ele><time>2026-05-02T11:20:37.287Z</time></trkpt><trkpt lat="42.16173" lon="13.676805"><ele>968.0</ele><time>2026-05-02T11:20:39.286Z</time></trkpt><trkpt lat="42.16175" lon="13.6769333"><ele>966.5999999999999</ele><time>2026-05-02T11:20:41.286Z</time></trkpt><trkpt lat="42.1617683" lon="13.6770767"><ele>965.1999999999999</ele><time>2026-05-02T11:20:43.287Z</time></trkpt><trkpt lat="42.1617833" lon="13.6772417"><ele>963.8</ele><time>2026-05-02T11:20:45.286Z</time></trkpt><trkpt lat="42.16179" lon="13.6773317"><ele>962.4</ele><time>2026-05-02T11:20:46.287Z</time></trkpt><trkpt lat="42.1618033" lon="13.67749"><ele>961.0</ele><time>2026-05-02T11:20:48.286Z</time></trkpt><trkpt lat="42.1618117" lon="13.6775783"><ele>961.0</ele><time>2026-05-02T11:20:49.286Z</time></trkpt><trkpt lat="42.1618183" lon="13.6776733"><ele>960.9999999999999</ele><time>2026-05-02T11:20:50.286Z</time></trkpt><trkpt lat="42.1618217" lon="13.67777"><ele>961.0</ele><time>2026-05-02T11:20:51.286Z</time></trkpt><trkpt lat="42.1618233" lon="13.677875"><ele>961.0</ele><time>2026-05-02T11:20:52.286Z</time></trkpt><trkpt lat="42.161825" lon="13.6779783"><ele>960.9999999999999</ele><time>2026-05-02T11:20:53.286Z</time></trkpt><trkpt lat="42.1618367" lon="13.67807"><ele>961.0</ele><time>2026-05-02T11:20:54.286Z</time></trkpt><trkpt lat="42.1618483" lon="13.6781683"><ele>961.0</ele><time>2026-05-02T11:20:55.287Z</time></trkpt><trkpt lat="42.1618567" lon="13.67827"><ele>959.1428571428571</ele><time>2026-05-02T11:20:56.286Z</time></trkpt><trkpt lat="42.1618667" lon="13.6783717"><ele>957.2857142857142</ele><time>2026-05-02T11:20:57.286Z</time></trkpt><trkpt lat="42.161875" lon="13.67847"><ele>955.4285714285713</ele><time>2026-05-02T11:20:58.287Z</time></trkpt><trkpt lat="42.1618817" lon="13.6785667"><ele>953.5714285714284</ele><time>2026-05-02T11:20:59.286Z</time></trkpt><trkpt lat="42.1618883" lon="13.6786567"><ele>951.7142857142857</ele><time>2026-05-02T11:21:00.286Z</time></trkpt><trkpt lat="42.16189" lon="13.678745"><ele>949.8571428571427</ele><time>2026-05-02T11:21:01.287Z</time></trkpt><trkpt lat="42.1618933" lon="13.67883"><ele>947.9999999999999</ele><time>2026-05-02T11:21:02.286Z</time></trkpt><trkpt lat="42.1618933" lon="13.6789233"><ele>946.5714285714284</ele><time>2026-05-02T11:21:03.286Z</time></trkpt><trkpt lat="42.161895" lon="13.6790267"><ele>945.1428571428571</ele><time>2026-05-02T11:21:04.286Z</time></trkpt><trkpt lat="42.161885" lon="13.6791367"><ele>943.7142857142857</ele><time>2026-05-02T11:21:05.286Z</time></trkpt><trkpt lat="42.1618683" lon="13.6792383"><ele>942.2857142857142</ele><time>2026-05-02T11:21:06.286Z</time></trkpt><trkpt lat="42.1618517" lon="13.679335"><ele>940.8571428571429</ele><time>2026-05-02T11:21:07.286Z</time></trkpt><trkpt lat="42.161835" lon="13.6794183"><ele>939.4285714285714</ele><time>2026-05-02T11:21:08.286Z</time></trkpt><trkpt lat="42.16182" lon="13.6795033"><ele>938.0</ele><time>2026-05-02T11:21:09.286Z</time></trkpt><trkpt lat="42.1617983" lon="13.6796417"><ele>936.6666666666667</ele><time>2026-05-02T11:21:11.286Z</time></trkpt><trkpt lat="42.16178" lon="13.6797583"><ele>935.3333333333334</ele><time>2026-05-02T11:21:13.286Z</time></trkpt><trkpt lat="42.1617633" lon="13.6798733"><ele>934.0</ele><time>2026-05-02T11:21:15.286Z</time></trkpt><trkpt lat="42.1617533" lon="13.67998"><ele>932.6666666666667</ele><time>2026-05-02T11:21:17.286Z</time></trkpt><trkpt lat="42.161725" lon="13.6800717"><ele>931.3333333333334</ele><time>2026-05-02T11:21:27.286Z</time></trkpt><trkpt lat="42.161645" lon="13.6801133"><ele>930.0</ele><time>2026-05-02T11:21:30.286Z</time></trkpt><trkpt lat="42.161585" lon="13.6800617"><ele>930.0</ele><time>2026-05-02T11:21:32.286Z</time></trkpt><trkpt lat="42.16155" lon="13.6799283"><ele>930.0</ele><time>2026-05-02T11:21:34.286Z</time></trkpt><trkpt lat="42.1615317" lon="13.6797967"><ele>930.0</ele><time>2026-05-02T11:21:36.286Z</time></trkpt><trkpt lat="42.1615133" lon="13.6797"><ele>930.0</ele><time>2026-05-02T11:21:38.286Z</time></trkpt><trkpt lat="42.1615" lon="13.6795783"><ele>930.0</ele><time>2026-05-02T11:21:40.286Z</time></trkpt><trkpt lat="42.1614933" lon="13.6794633"><ele>931.0</ele><time>2026-05-02T11:21:42.286Z</time></trkpt><trkpt lat="42.16148" lon="13.6793483"><ele>932.0</ele><time>2026-05-02T11:21:44.286Z</time></trkpt><trkpt lat="42.1614383" lon="13.6792683"><ele>933.0</ele><time>2026-05-02T11:21:46.286Z</time></trkpt><trkpt lat="42.1613317" lon="13.6792517"><ele>934.0</ele><time>2026-05-02T11:21:48.286Z</time></trkpt><trkpt lat="42.161265" lon="13.67927"><ele>935.0</ele><time>2026-05-02T11:21:49.286Z</time></trkpt><trkpt lat="42.1611967" lon="13.6792967"><ele>936.0</ele><time>2026-05-02T11:21:50.286Z</time></trkpt><trkpt lat="42.1611183" lon="13.6793233"><ele>936.0</ele><time>2026-05-02T11:21:51.286Z</time></trkpt><trkpt lat="42.1610533" lon="13.679345"><ele>936.0</ele><time>2026-05-02T11:21:52.286Z</time></trkpt><trkpt lat="42.160935" lon="13.6793967"><ele>936.0</ele><time>2026-05-02T11:21:54.286Z</time></trkpt><trkpt lat="42.1608683" lon="13.679415"><ele>936.0</ele><time>2026-05-02T11:21:55.286Z</time></trkpt><trkpt lat="42.160795" lon="13.6794267"><ele>936.0</ele><time>2026-05-02T11:21:56.286Z</time></trkpt><trkpt lat="42.1607167" lon="13.6794333"><ele>936.0</ele><time>2026-05-02T11:21:57.286Z</time></trkpt><trkpt lat="42.1606417" lon="13.67945"><ele>932.7142857142858</ele><time>2026-05-02T11:21:58.286Z</time></trkpt><trkpt lat="42.1605683" lon="13.6794633"><ele>929.4285714285716</ele><time>2026-05-02T11:21:59.286Z</time></trkpt><trkpt lat="42.160495" lon="13.679485"><ele>926.1428571428571</ele><time>2026-05-02T11:22:00.286Z</time></trkpt><trkpt lat="42.16043" lon="13.679515"><ele>922.8571428571429</ele><time>2026-05-02T11:22:01.286Z</time></trkpt><trkpt lat="42.1603717" lon="13.6795483"><ele>919.5714285714286</ele><time>2026-05-02T11:22:02.286Z</time></trkpt><trkpt lat="42.1603083" lon="13.67959"><ele>916.2857142857142</ele><time>2026-05-02T11:22:03.286Z</time></trkpt><trkpt lat="42.1602433" lon="13.6796317"><ele>912.9999999999999</ele><time>2026-05-02T11:22:04.286Z</time></trkpt><trkpt lat="42.1601767" lon="13.6796633"><ele>913.0</ele><time>2026-05-02T11:22:05.286Z</time></trkpt><trkpt lat="42.1601167" lon="13.679695"><ele>913.0</ele><time>2026-05-02T11:22:06.286Z</time></trkpt><trkpt lat="42.160015" lon="13.67974"><ele>913.0</ele><time>2026-05-02T11:22:08.286Z</time></trkpt><trkpt lat="42.1599267" lon="13.6798267"><ele>913.0</ele><time>2026-05-02T11:22:10.286Z</time></trkpt><trkpt lat="42.1598517" lon="13.6799283"><ele>913.0</ele><time>2026-05-02T11:22:12.286Z</time></trkpt><trkpt lat="42.1597817" lon="13.6800083"><ele>908.8333333333333</ele><time>2026-05-02T11:22:14.286Z</time></trkpt><trkpt lat="42.1597117" lon="13.6800483"><ele>904.6666666666666</ele><time>2026-05-02T11:22:16.286Z</time></trkpt><trkpt lat="42.159645" lon="13.6800217"><ele>900.5</ele><time>2026-05-02T11:22:18.286Z</time></trkpt><trkpt lat="42.15959" lon="13.679965"><ele>896.3333333333333</ele><time>2026-05-02T11:22:20.286Z</time></trkpt><trkpt lat="42.15953" lon="13.679875"><ele>892.1666666666666</ele><time>2026-05-02T11:22:23.286Z</time></trkpt><trkpt lat="42.1594817" lon="13.6797983"><ele>888.0</ele><time>2026-05-02T11:22:26.287Z</time></trkpt><trkpt lat="42.1594433" lon="13.6797117"><ele>888.0</ele><time>2026-05-02T11:22:29.286Z</time></trkpt><trkpt lat="42.159405" lon="13.6796183"><ele>888.0</ele><time>2026-05-02T11:22:32.286Z</time></trkpt><trkpt lat="42.1593583" lon="13.679505"><ele>888.0</ele><time>2026-05-02T11:22:35.286Z</time></trkpt><trkpt lat="42.159335" lon="13.6794233"><ele>888.0</ele><time>2026-05-02T11:22:37.286Z</time></trkpt><trkpt lat="42.159315" lon="13.6793133"><ele>888.0</ele><time>2026-05-02T11:22:40.286Z</time></trkpt><trkpt lat="42.1592967" lon="13.6792283"><ele>888.0</ele><time>2026-05-02T11:22:42.286Z</time></trkpt><trkpt lat="42.15926" lon="13.67909"><ele>889.5</ele><time>2026-05-02T11:22:55.286Z</time></trkpt><trkpt lat="42.1592333" lon="13.6789983"><ele>891.0</ele><time>2026-05-02T11:22:57.287Z</time></trkpt><trkpt lat="42.1592067" lon="13.6789033"><ele>892.5</ele><time>2026-05-02T11:22:59.286Z</time></trkpt><trkpt lat="42.15918" lon="13.6788117"><ele>894.0</ele><time>2026-05-02T11:23:01.286Z</time></trkpt><trkpt lat="42.159155" lon="13.678695"><ele>895.5</ele><time>2026-05-02T11:23:03.286Z</time></trkpt><trkpt lat="42.15912" lon="13.6785717"><ele>897.0</ele><time>2026-05-02T11:23:05.286Z</time></trkpt><trkpt lat="42.1590783" lon="13.678455"><ele>888.2</ele><time>2026-05-02T11:23:07.286Z</time></trkpt><trkpt lat="42.1590333" lon="13.6783233"><ele>879.4000000000001</ele><time>2026-05-02T11:23:09.286Z</time></trkpt><trkpt lat="42.1589967" lon="13.6781717"><ele>870.5999999999999</ele><time>2026-05-02T11:23:11.286Z</time></trkpt><trkpt lat="42.1589617" lon="13.6780367"><ele>861.8</ele><time>2026-05-02T11:23:13.286Z</time></trkpt><trkpt lat="42.158925" lon="13.6779067"><ele>853.0</ele><time>2026-05-02T11:23:15.286Z</time></trkpt><trkpt lat="42.1588833" lon="13.6777967"><ele>857.5</ele><time>2026-05-02T11:23:17.286Z</time></trkpt><trkpt lat="42.1588383" lon="13.6776667"><ele>862.0</ele><time>2026-05-02T11:23:19.286Z</time></trkpt><trkpt lat="42.1587883" lon="13.6775233"><ele>866.5</ele><time>2026-05-02T11:23:21.286Z</time></trkpt><trkpt lat="42.15874" lon="13.6773717"><ele>871.0</ele><time>2026-05-02T11:23:23.286Z</time></trkpt><trkpt lat="42.1586917" lon="13.677245"><ele>871.0</ele><time>2026-05-02T11:23:25.286Z</time></trkpt><trkpt lat="42.1586433" lon="13.6771283"><ele>870.9999999999999</ele><time>2026-05-02T11:23:27.286Z</time></trkpt><trkpt lat="42.1585867" lon="13.67701"><ele>870.9999999999999</ele><time>2026-05-02T11:23:29.286Z</time></trkpt><trkpt lat="42.15853" lon="13.67689"><ele>871.0</ele><time>2026-05-02T11:23:31.287Z</time></trkpt><trkpt lat="42.1584783" lon="13.6767633"><ele>871.0</ele><time>2026-05-02T11:23:33.287Z</time></trkpt><trkpt lat="42.158425" lon="13.676645"><ele>874.0</ele><time>2026-05-02T11:23:35.286Z</time></trkpt><trkpt lat="42.1583617" lon="13.67653"><ele>876.9999999999999</ele><time>2026-05-02T11:23:37.287Z</time></trkpt><trkpt lat="42.1582883" lon="13.67639"><ele>879.9999999999999</ele><time>2026-05-02T11:23:39.286Z</time></trkpt><trkpt lat="42.1582467" lon="13.6763233"><ele>883.0</ele><time>2026-05-02T11:23:40.286Z</time></trkpt><trkpt lat="42.15821" lon="13.67625"><ele>886.0</ele><time>2026-05-02T11:23:41.286Z</time></trkpt><trkpt lat="42.1581517" lon="13.6761233"><ele>878.5999999999999</ele><time>2026-05-02T11:23:43.286Z</time></trkpt><trkpt lat="42.158095" lon="13.6760133"><ele>871.1999999999999</ele><time>2026-05-02T11:23:45.286Z</time></trkpt><trkpt lat="42.1580317" lon="13.6758983"><ele>863.8</ele><time>2026-05-02T11:23:47.286Z</time></trkpt><trkpt lat="42.1579833" lon="13.6757867"><ele>856.4000000000001</ele><time>2026-05-02T11:23:49.286Z</time></trkpt><trkpt lat="42.15793" lon="13.6756917"><ele>849.0</ele><time>2026-05-02T11:23:51.287Z</time></trkpt><trkpt lat="42.1578683" lon="13.6756017"><ele>849.0</ele><time>2026-05-02T11:23:53.286Z</time></trkpt><trkpt lat="42.1578183" lon="13.6755117"><ele>849.0</ele><time>2026-05-02T11:23:55.286Z</time></trkpt><trkpt lat="42.157775" lon="13.6754383"><ele>849.0</ele><time>2026-05-02T11:23:57.286Z</time></trkpt><trkpt lat="42.1577267" lon="13.6753267"><ele>849.0</ele><time>2026-05-02T11:24:00.286Z</time></trkpt><trkpt lat="42.15769" lon="13.67522"><ele>849.0</ele><time>2026-05-02T11:24:02.286Z</time></trkpt><trkpt lat="42.1576517" lon="13.6751183"><ele>849.0</ele><time>2026-05-02T11:24:04.287Z</time></trkpt><trkpt lat="42.15764" lon="13.6750333"><ele>849.3333333333334</ele><time>2026-05-02T11:24:06.286Z</time></trkpt><trkpt lat="42.1576183" lon="13.6749417"><ele>849.6666666666667</ele><time>2026-05-02T11:24:11.286Z</time></trkpt><trkpt lat="42.1576117" lon="13.674835"><ele>850.0</ele><time>2026-05-02T11:24:15.286Z</time></trkpt><trkpt lat="42.1576067" lon="13.67471"><ele>850.3333333333334</ele><time>2026-05-02T11:24:18.287Z</time></trkpt><trkpt lat="42.157605" lon="13.67459"><ele>850.6666666666667</ele><time>2026-05-02T11:24:20.286Z</time></trkpt><trkpt lat="42.1576067" lon="13.6744817"><ele>851.0</ele><time>2026-05-02T11:24:22.286Z</time></trkpt><trkpt lat="42.1576367" lon="13.6743667"><ele>851.0000000000001</ele><time>2026-05-02T11:24:24.286Z</time></trkpt><trkpt lat="42.1576783" lon="13.6742833"><ele>851.0</ele><time>2026-05-02T11:24:26.286Z</time></trkpt><trkpt lat="42.157605" lon="13.6742667"><ele>851.0</ele><time>2026-05-02T11:24:30.286Z</time></trkpt><trkpt lat="42.1575433" lon="13.6743467"><ele>851.0</ele><time>2026-05-02T11:24:32.286Z</time></trkpt><trkpt lat="42.1574967" lon="13.674425"><ele>851.0000000000001</ele><time>2026-05-02T11:24:34.286Z</time></trkpt><trkpt lat="42.1574517" lon="13.67451"><ele>851.0</ele><time>2026-05-02T11:24:36.286Z</time></trkpt><trkpt lat="42.157425" lon="13.6746267"><ele>851.6666666666667</ele><time>2026-05-02T11:24:39.286Z</time></trkpt><trkpt lat="42.1574133" lon="13.6747283"><ele>852.3333333333334</ele><time>2026-05-02T11:24:41.287Z</time></trkpt><trkpt lat="42.1573983" lon="13.6748317"><ele>853.0</ele><time>2026-05-02T11:24:43.286Z</time></trkpt><trkpt lat="42.15739" lon="13.6749283"><ele>853.6666666666667</ele><time>2026-05-02T11:24:45.286Z</time></trkpt><trkpt lat="42.15736" lon="13.675025"><ele>854.3333333333334</ele><time>2026-05-02T11:24:48.286Z</time></trkpt><trkpt lat="42.1572867" lon="13.6750117"><ele>855.0</ele><time>2026-05-02T11:24:51.286Z</time></trkpt><trkpt lat="42.157248" lon="13.6749094"><ele>850.1428571428572</ele><time>2026-05-02T11:24:54.437Z</time></trkpt><trkpt lat="42.1572304" lon="13.6748179"><ele>845.2857142857142</ele><time>2026-05-02T11:24:56.391Z</time></trkpt><trkpt lat="42.1572126" lon="13.6747242"><ele>840.4285714285714</ele><time>2026-05-02T11:24:58.305Z</time></trkpt><trkpt lat="42.1571957" lon="13.6746306"><ele>835.5714285714287</ele><time>2026-05-02T11:25:00.325Z</time></trkpt><trkpt lat="42.1571886" lon="13.6745391"><ele>830.7142857142858</ele><time>2026-05-02T11:25:02.345Z</time></trkpt><trkpt lat="42.1571858" lon="13.6744503"><ele>825.8571428571429</ele><time>2026-05-02T11:25:04.365Z</time></trkpt><trkpt lat="42.1571888" lon="13.6743545"><ele>821.0</ele><time>2026-05-02T11:25:06.374Z</time></trkpt><trkpt lat="42.1571911" lon="13.6742287"><ele>821.0000000000001</ele><time>2026-05-02T11:25:09.356Z</time></trkpt><trkpt lat="42.15719" lon="13.6741041"><ele>821.0</ele><time>2026-05-02T11:25:12.34Z</time></trkpt><trkpt lat="42.1572204" lon="13.6739915"><ele>821.0</ele><time>2026-05-02T11:25:14.36Z</time></trkpt><trkpt lat="42.1571695" lon="13.6739021"><ele>821.0</ele><time>2026-05-02T11:25:17.393Z</time></trkpt><trkpt lat="42.1570936" lon="13.6738866"><ele>821.0000000000001</ele><time>2026-05-02T11:25:19.358Z</time></trkpt><trkpt lat="42.1570318" lon="13.6739268"><ele>821.0</ele><time>2026-05-02T11:25:21.378Z</time></trkpt><trkpt lat="42.1569841" lon="13.6739923"><ele>821.0</ele><time>2026-05-02T11:25:23.398Z</time></trkpt><trkpt lat="42.156907" lon="13.6740495"><ele>821.0</ele><time>2026-05-02T11:25:26.376Z</time></trkpt><trkpt lat="42.1568483" lon="13.67418"><ele>821.0</ele><time>2026-05-02T11:26:04.286Z</time></trkpt><trkpt lat="42.1568517" lon="13.67432"><ele>821.0</ele><time>2026-05-02T11:26:16.286Z</time></trkpt><trkpt lat="42.15685" lon="13.6744917"><ele>821.0</ele><time>2026-05-02T11:26:25.286Z</time></trkpt><trkpt lat="42.1568217" lon="13.6745883"><ele>819.3333333333334</ele><time>2026-05-02T11:26:29.286Z</time></trkpt><trkpt lat="42.1567733" lon="13.6747017"><ele>817.6666666666667</ele><time>2026-05-02T11:26:53.286Z</time></trkpt><trkpt lat="42.1567467" lon="13.6747867"><ele>816.0</ele><time>2026-05-02T11:26:55.286Z</time></trkpt><trkpt lat="42.1567017" lon="13.67489"><ele>814.3333333333333</ele><time>2026-05-02T11:26:58.286Z</time></trkpt><trkpt lat="42.1566683" lon="13.6750067"><ele>812.6666666666666</ele><time>2026-05-02T11:27:01.286Z</time></trkpt><trkpt lat="42.1566383" lon="13.6750983"><ele>811.0</ele><time>2026-05-02T11:27:03.287Z</time></trkpt><trkpt lat="42.1566017" lon="13.675185"><ele>809.4</ele><time>2026-05-02T11:27:05.286Z</time></trkpt><trkpt lat="42.1565617" lon="13.6753033"><ele>807.8</ele><time>2026-05-02T11:27:07.286Z</time></trkpt><trkpt lat="42.15653" lon="13.6754333"><ele>806.1999999999999</ele><time>2026-05-02T11:27:09.286Z</time></trkpt><trkpt lat="42.1565083" lon="13.67555"><ele>804.5999999999999</ele><time>2026-05-02T11:27:11.286Z</time></trkpt><trkpt lat="42.1564817" lon="13.675665"><ele>803.0</ele><time>2026-05-02T11:27:13.286Z</time></trkpt><trkpt lat="42.1564417" lon="13.675775"><ele>806.25</ele><time>2026-05-02T11:27:15.286Z</time></trkpt><trkpt lat="42.1564017" lon="13.6758617"><ele>809.5</ele><time>2026-05-02T11:27:17.286Z</time></trkpt><trkpt lat="42.1563683" lon="13.6759524"><ele>812.75</ele><time>2026-05-02T11:27:19.286Z</time></trkpt><trkpt lat="42.1563817" lon="13.67623"><ele>816.0</ele><time>2026-05-02T11:27:22.286Z</time></trkpt><trkpt lat="42.1563883" lon="13.676355"><ele>816.0</ele><time>2026-05-02T11:27:23.286Z</time></trkpt><trkpt lat="42.1563917" lon="13.676475"><ele>816.0</ele><time>2026-05-02T11:27:24.287Z</time></trkpt><trkpt lat="42.156405" lon="13.6766033"><ele>816.0</ele><time>2026-05-02T11:27:25.287Z</time></trkpt><trkpt lat="42.1564117" lon="13.6767133"><ele>816.0</ele><time>2026-05-02T11:27:26.286Z</time></trkpt><trkpt lat="42.156435" lon="13.6768133"><ele>816.0</ele><time>2026-05-02T11:27:27.286Z</time></trkpt><trkpt lat="42.15645" lon="13.6768983"><ele>816.0</ele><time>2026-05-02T11:27:28.286Z</time></trkpt><trkpt lat="42.156475" lon="13.676985"><ele>816.0</ele><time>2026-05-02T11:27:29.286Z</time></trkpt><trkpt lat="42.1565117" lon="13.6770667"><ele>816.0</ele><time>2026-05-02T11:27:30.286Z</time></trkpt><trkpt lat="42.1565583" lon="13.67717"><ele>816.0</ele><time>2026-05-02T11:27:31.286Z</time></trkpt><trkpt lat="42.1566133" lon="13.6772767"><ele>816.0</ele><time>2026-05-02T11:27:32.286Z</time></trkpt><trkpt lat="42.1566683" lon="13.6773883"><ele>816.0</ele><time>2026-05-02T11:27:33.286Z</time></trkpt><trkpt lat="42.15672" lon="13.67752"><ele>807.25</ele><time>2026-05-02T11:27:34.286Z</time></trkpt><trkpt lat="42.156755" lon="13.6776767"><ele>798.5</ele><time>2026-05-02T11:27:35.286Z</time></trkpt><trkpt lat="42.1567967" lon="13.67786"><ele>789.75</ele><time>2026-05-02T11:27:36.286Z</time></trkpt><trkpt lat="42.1568367" lon="13.6780667"><ele>781.0</ele><time>2026-05-02T11:27:37.286Z</time></trkpt><trkpt lat="42.1568983" lon="13.6782717"><ele>780.25</ele><time>2026-05-02T11:27:38.286Z</time></trkpt><trkpt lat="42.1569483" lon="13.6784633"><ele>779.5</ele><time>2026-05-02T11:27:39.286Z</time></trkpt><trkpt lat="42.1569967" lon="13.6786333"><ele>778.75</ele><time>2026-05-02T11:27:40.286Z</time></trkpt><trkpt lat="42.1570367" lon="13.6787967"><ele>778.0</ele><time>2026-05-02T11:27:41.286Z</time></trkpt><trkpt lat="42.1570683" lon="13.6789467"><ele>778.0</ele><time>2026-05-02T11:27:42.286Z</time></trkpt><trkpt lat="42.1571" lon="13.679075"><ele>778.0</ele><time>2026-05-02T11:27:43.286Z</time></trkpt><trkpt lat="42.1571367" lon="13.679195"><ele>778.0</ele><time>2026-05-02T11:27:44.286Z</time></trkpt><trkpt lat="42.15718" lon="13.67931"><ele>778.0</ele><time>2026-05-02T11:27:45.286Z</time></trkpt><trkpt lat="42.15721" lon="13.6794233"><ele>778.0</ele><time>2026-05-02T11:27:46.286Z</time></trkpt><trkpt lat="42.15722" lon="13.6795417"><ele>774.5</ele><time>2026-05-02T11:27:47.286Z</time></trkpt><trkpt lat="42.15721" lon="13.6796783"><ele>771.0</ele><time>2026-05-02T11:27:48.286Z</time></trkpt><trkpt lat="42.1572" lon="13.6798267"><ele>767.5</ele><time>2026-05-02T11:27:49.286Z</time></trkpt><trkpt lat="42.1571767" lon="13.67999"><ele>764.0</ele><time>2026-05-02T11:27:50.286Z</time></trkpt><trkpt lat="42.1571517" lon="13.6801533"><ele>759.25</ele><time>2026-05-02T11:27:51.286Z</time></trkpt><trkpt lat="42.15713" lon="13.68031"><ele>754.5</ele><time>2026-05-02T11:27:52.286Z</time></trkpt><trkpt lat="42.15709" lon="13.680465"><ele>749.75</ele><time>2026-05-02T11:27:53.287Z</time></trkpt><trkpt lat="42.1570367" lon="13.6806133"><ele>745.0</ele><time>2026-05-02T11:27:54.286Z</time></trkpt><trkpt lat="42.15698" lon="13.680755"><ele>745.0</ele><time>2026-05-02T11:27:55.286Z</time></trkpt><trkpt lat="42.15692" lon="13.6808783"><ele>745.0</ele><time>2026-05-02T11:27:56.287Z</time></trkpt><trkpt lat="42.1568467" lon="13.680995"><ele>745.0</ele><time>2026-05-02T11:27:57.286Z</time></trkpt><trkpt lat="42.1567517" lon="13.6811217"><ele>745.0</ele><time>2026-05-02T11:27:58.286Z</time></trkpt><trkpt lat="42.1566583" lon="13.681255"><ele>743.5</ele><time>2026-05-02T11:27:59.286Z</time></trkpt><trkpt lat="42.1565683" lon="13.6813883"><ele>742.0</ele><time>2026-05-02T11:28:00.286Z</time></trkpt><trkpt lat="42.1564733" lon="13.68152"><ele>740.5</ele><time>2026-05-02T11:28:01.286Z</time></trkpt><trkpt lat="42.1563767" lon="13.6816317"><ele>739.0</ele><time>2026-05-02T11:28:02.286Z</time></trkpt><trkpt lat="42.1562617" lon="13.6817467"><ele>737.25</ele><time>2026-05-02T11:28:03.287Z</time></trkpt><trkpt lat="42.1561433" lon="13.68186"><ele>735.5</ele><time>2026-05-02T11:28:04.286Z</time></trkpt><trkpt lat="42.1560217" lon="13.6819767"><ele>733.75</ele><time>2026-05-02T11:28:05.286Z</time></trkpt><trkpt lat="42.1559" lon="13.6820867"><ele>732.0</ele><time>2026-05-02T11:28:06.286Z</time></trkpt><trkpt lat="42.1557867" lon="13.6821933"><ele>727.75</ele><time>2026-05-02T11:28:07.286Z</time></trkpt><trkpt lat="42.15566" lon="13.6823133"><ele>723.5</ele><time>2026-05-02T11:28:08.286Z</time></trkpt><trkpt lat="42.1555433" lon="13.6824167"><ele>719.25</ele><time>2026-05-02T11:28:09.286Z</time></trkpt><trkpt lat="42.15543" lon="13.6825117"><ele>715.0</ele><time>2026-05-02T11:28:10.286Z</time></trkpt><trkpt lat="42.1553233" lon="13.68261"><ele>715.0</ele><time>2026-05-02T11:28:11.286Z</time></trkpt><trkpt lat="42.15522" lon="13.6827133"><ele>715.0</ele><time>2026-05-02T11:28:12.286Z</time></trkpt><trkpt lat="42.1551083" lon="13.6828267"><ele>715.0</ele><time>2026-05-02T11:28:13.286Z</time></trkpt><trkpt lat="42.155" lon="13.6829417"><ele>715.0</ele><time>2026-05-02T11:28:14.287Z</time></trkpt><trkpt lat="42.1549183" lon="13.683055"><ele>712.8</ele><time>2026-05-02T11:28:15.286Z</time></trkpt><trkpt lat="42.1548367" lon="13.6831617"><ele>710.6</ele><time>2026-05-02T11:28:16.286Z</time></trkpt><trkpt lat="42.1547633" lon="13.68325"><ele>708.4000000000001</ele><time>2026-05-02T11:28:17.286Z</time></trkpt><trkpt lat="42.154685" lon="13.6833317"><ele>706.2</ele><time>2026-05-02T11:28:18.286Z</time></trkpt><trkpt lat="42.1546233" lon="13.6834167"><ele>704.0</ele><time>2026-05-02T11:28:19.286Z</time></trkpt><trkpt lat="42.15456" lon="13.68349"><ele>704.0</ele><time>2026-05-02T11:28:20.286Z</time></trkpt><trkpt lat="42.1545" lon="13.6835567"><ele>704.0</ele><time>2026-05-02T11:28:21.286Z</time></trkpt><trkpt lat="42.1544083" lon="13.6836483"><ele>704.0</ele><time>2026-05-02T11:28:23.286Z</time></trkpt><trkpt lat="42.1543433" lon="13.683665"><ele>704.0</ele><time>2026-05-02T11:28:25.286Z</time></trkpt><trkpt lat="42.1542933" lon="13.6836117"><ele>704.0</ele><time>2026-05-02T11:28:27.286Z</time></trkpt><trkpt lat="42.15421" lon="13.6835867"><ele>704.0</ele><time>2026-05-02T11:29:13.285Z</time></trkpt><trkpt lat="42.1541283" lon="13.6836383"><ele>702.8000000000001</ele><time>2026-05-02T11:29:15.285Z</time></trkpt><trkpt lat="42.1540367" lon="13.6837267"><ele>701.6</ele><time>2026-05-02T11:29:17.285Z</time></trkpt><trkpt lat="42.1539667" lon="13.68384"><ele>700.4</ele><time>2026-05-02T11:29:19.285Z</time></trkpt><trkpt lat="42.153965" lon="13.6839717"><ele>699.2</ele><time>2026-05-02T11:29:21.285Z</time></trkpt><trkpt lat="42.1540433" lon="13.6840783"><ele>698.0</ele><time>2026-05-02T11:29:23.285Z</time></trkpt><trkpt lat="42.1541117" lon="13.68421"><ele>698.0</ele><time>2026-05-02T11:29:25.285Z</time></trkpt><trkpt lat="42.1541183" lon="13.6843167"><ele>698.0</ele><time>2026-05-02T11:29:26.285Z</time></trkpt><trkpt lat="42.1541067" lon="13.6844483"><ele>698.0</ele><time>2026-05-02T11:29:27.285Z</time></trkpt><trkpt lat="42.154065" lon="13.6845883"><ele>698.0</ele><time>2026-05-02T11:29:28.285Z</time></trkpt><trkpt lat="42.1540083" lon="13.68476"><ele>698.0</ele><time>2026-05-02T11:29:29.285Z</time></trkpt><trkpt lat="42.1539583" lon="13.6849433"><ele>696.3333333333333</ele><time>2026-05-02T11:29:30.285Z</time></trkpt><trkpt lat="42.1539033" lon="13.68517"><ele>694.6666666666666</ele><time>2026-05-02T11:29:31.285Z</time></trkpt><trkpt lat="42.1538383" lon="13.685425"><ele>693.0</ele><time>2026-05-02T11:29:32.285Z</time></trkpt><trkpt lat="42.1537783" lon="13.68568"><ele>693.0</ele><time>2026-05-02T11:29:33.285Z</time></trkpt><trkpt lat="42.1537217" lon="13.6859183"><ele>693.0</ele><time>2026-05-02T11:29:34.285Z</time></trkpt><trkpt lat="42.1536617" lon="13.6861517"><ele>693.0</ele><time>2026-05-02T11:29:35.285Z</time></trkpt><trkpt lat="42.15361" lon="13.68638"><ele>690.25</ele><time>2026-05-02T11:29:36.285Z</time></trkpt><trkpt lat="42.1535633" lon="13.686585"><ele>687.5</ele><time>2026-05-02T11:29:37.285Z</time></trkpt><trkpt lat="42.1535217" lon="13.686765"><ele>684.75</ele><time>2026-05-02T11:29:38.285Z</time></trkpt><trkpt lat="42.1534833" lon="13.6869383"><ele>682.0</ele><time>2026-05-02T11:29:39.285Z</time></trkpt><trkpt lat="42.153455" lon="13.68711"><ele>680.6</ele><time>2026-05-02T11:29:40.285Z</time></trkpt><trkpt lat="42.1534317" lon="13.68726"><ele>679.2</ele><time>2026-05-02T11:29:41.285Z</time></trkpt><trkpt lat="42.15341" lon="13.6873867"><ele>677.8</ele><time>2026-05-02T11:29:42.286Z</time></trkpt><trkpt lat="42.153395" lon="13.6874933"><ele>676.4</ele><time>2026-05-02T11:29:43.285Z</time></trkpt><trkpt lat="42.1533817" lon="13.6875917"><ele>675.0</ele><time>2026-05-02T11:29:44.285Z</time></trkpt><trkpt lat="42.1533533" lon="13.6877233"><ele>675.0</ele><time>2026-05-02T11:29:46.285Z</time></trkpt><trkpt lat="42.153235" lon="13.68773"><ele>675.0</ele><time>2026-05-02T11:29:49.285Z</time></trkpt><trkpt lat="42.1531583" lon="13.6877233"><ele>675.0</ele><time>2026-05-02T11:29:50.285Z</time></trkpt><trkpt lat="42.1530717" lon="13.68774"><ele>675.0</ele><time>2026-05-02T11:29:51.286Z</time></trkpt><trkpt lat="42.152975" lon="13.6877883"><ele>675.0</ele><time>2026-05-02T11:29:52.286Z</time></trkpt><trkpt lat="42.1528683" lon="13.68785"><ele>673.4</ele><time>2026-05-02T11:29:53.286Z</time></trkpt><trkpt lat="42.1527583" lon="13.687915"><ele>671.8</ele><time>2026-05-02T11:29:54.285Z</time></trkpt><trkpt lat="42.152655" lon="13.68798"><ele>670.2</ele><time>2026-05-02T11:29:55.285Z</time></trkpt><trkpt lat="42.1525733" lon="13.6880517"><ele>668.6</ele><time>2026-05-02T11:29:56.285Z</time></trkpt><trkpt lat="42.152505" lon="13.6881467"><ele>667.0</ele><time>2026-05-02T11:29:57.285Z</time></trkpt><trkpt lat="42.15244" lon="13.6882633"><ele>668.0</ele><time>2026-05-02T11:29:58.285Z</time></trkpt><trkpt lat="42.1523683" lon="13.6884133"><ele>669.0</ele><time>2026-05-02T11:29:59.285Z</time></trkpt><trkpt lat="42.1523033" lon="13.6885533"><ele>670.0</ele><time>2026-05-02T11:30:00.285Z</time></trkpt><trkpt lat="42.1522367" lon="13.6886717"><ele>671.0</ele><time>2026-05-02T11:30:01.285Z</time></trkpt><trkpt lat="42.1521583" lon="13.6887717"><ele>669.0</ele><time>2026-05-02T11:30:02.285Z</time></trkpt><trkpt lat="42.1520683" lon="13.6888567"><ele>667.0</ele><time>2026-05-02T11:30:03.285Z</time></trkpt><trkpt lat="42.151955" lon="13.6889533"><ele>665.0</ele><time>2026-05-02T11:30:04.285Z</time></trkpt><trkpt lat="42.1518383" lon="13.6890433"><ele>663.0</ele><time>2026-05-02T11:30:05.285Z</time></trkpt><trkpt lat="42.1517183" lon="13.689135"><ele>663.0</ele><time>2026-05-02T11:30:06.285Z</time></trkpt><trkpt lat="42.1516" lon="13.6892183"><ele>663.0</ele><time>2026-05-02T11:30:07.285Z</time></trkpt><trkpt lat="42.1514933" lon="13.689295"><ele>663.0</ele><time>2026-05-02T11:30:08.285Z</time></trkpt><trkpt lat="42.1514033" lon="13.6893517"><ele>663.0</ele><time>2026-05-02T11:30:09.285Z</time></trkpt><trkpt lat="42.15133" lon="13.6894017"><ele>663.0</ele><time>2026-05-02T11:30:10.285Z</time></trkpt><trkpt lat="42.1512667" lon="13.6894417"><ele>662.5999999999999</ele><time>2026-05-02T11:30:11.285Z</time></trkpt><trkpt lat="42.1511833" lon="13.6895083"><ele>662.1999999999999</ele><time>2026-05-02T11:30:13.285Z</time></trkpt><trkpt lat="42.151125" lon="13.6896467"><ele>661.8</ele><time>2026-05-02T11:30:15.285Z</time></trkpt><trkpt lat="42.1511017" lon="13.6897467"><ele>661.4</ele><time>2026-05-02T11:30:16.285Z</time></trkpt><trkpt lat="42.1510783" lon="13.68992"><ele>661.0</ele><time>2026-05-02T11:30:17.285Z</time></trkpt><trkpt lat="42.1510367" lon="13.690125"><ele>661.3333333333334</ele><time>2026-05-02T11:30:18.285Z</time></trkpt><trkpt lat="42.1509933" lon="13.6903133"><ele>661.6666666666666</ele><time>2026-05-02T11:30:19.285Z</time></trkpt><trkpt lat="42.1509383" lon="13.690505"><ele>662.0</ele><time>2026-05-02T11:30:20.285Z</time></trkpt><trkpt lat="42.1508633" lon="13.69072"><ele>662.0</ele><time>2026-05-02T11:30:21.285Z</time></trkpt><trkpt lat="42.1508" lon="13.6909317"><ele>662.0</ele><time>2026-05-02T11:30:22.285Z</time></trkpt><trkpt lat="42.1507385" lon="13.6911329"><ele>662.0</ele><time>2026-05-02T11:30:23.285Z</time></trkpt><trkpt lat="42.1506799" lon="13.6913178"><ele>661.5</ele><time>2026-05-02T11:30:24.285Z</time></trkpt><trkpt lat="42.1506229" lon="13.6914894"><ele>661.0</ele><time>2026-05-02T11:30:25.285Z</time></trkpt><trkpt lat="42.1505665" lon="13.6916556"><ele>660.5</ele><time>2026-05-02T11:30:26.285Z</time></trkpt><trkpt lat="42.1505123" lon="13.6918021"><ele>660.0</ele><time>2026-05-02T11:30:27.286Z</time></trkpt><trkpt lat="42.1504504" lon="13.6919402"><ele>660.0</ele><time>2026-05-02T11:30:28.285Z</time></trkpt><trkpt lat="42.1503797" lon="13.692093"><ele>660.0</ele><time>2026-05-02T11:30:29.285Z</time></trkpt><trkpt lat="42.150314" lon="13.6922476"><ele>660.0</ele><time>2026-05-02T11:30:30.286Z</time></trkpt><trkpt lat="42.1502587" lon="13.6923981"><ele>660.0</ele><time>2026-05-02T11:30:31.285Z</time></trkpt><trkpt lat="42.1502117" lon="13.6925379"><ele>660.0</ele><time>2026-05-02T11:30:32.285Z</time></trkpt><trkpt lat="42.1501702" lon="13.6926564"><ele>660.0</ele><time>2026-05-02T11:30:33.285Z</time></trkpt><trkpt lat="42.1501217" lon="13.6927461"><ele>660.0</ele><time>2026-05-02T11:30:34.285Z</time></trkpt><trkpt lat="42.150057" lon="13.6928202"><ele>660.0</ele><time>2026-05-02T11:30:35.285Z</time></trkpt><trkpt lat="42.1499825" lon="13.692877"><ele>660.0</ele><time>2026-05-02T11:30:36.285Z</time></trkpt><trkpt lat="42.1499118" lon="13.6929333"><ele>660.0</ele><time>2026-05-02T11:30:37.285Z</time></trkpt><trkpt lat="42.1498487" lon="13.6930006"><ele>658.0</ele><time>2026-05-02T11:30:38.286Z</time></trkpt><trkpt lat="42.1497886" lon="13.6930799"><ele>656.0</ele><time>2026-05-02T11:30:39.285Z</time></trkpt><trkpt lat="42.1497315" lon="13.6931885"><ele>654.0</ele><time>2026-05-02T11:30:40.285Z</time></trkpt><trkpt lat="42.1496711" lon="13.6933292"><ele>652.0</ele><time>2026-05-02T11:30:41.285Z</time></trkpt><trkpt lat="42.1496055" lon="13.6934831"><ele>650.0</ele><time>2026-05-02T11:30:42.285Z</time></trkpt><trkpt lat="42.1495361" lon="13.6936443"><ele>650.0</ele><time>2026-05-02T11:30:43.285Z</time></trkpt><trkpt lat="42.1494598" lon="13.6938045"><ele>650.0</ele><time>2026-05-02T11:30:44.285Z</time></trkpt><trkpt lat="42.1493853" lon="13.6939589"><ele>650.0</ele><time>2026-05-02T11:30:45.285Z</time></trkpt><trkpt lat="42.1493107" lon="13.6941052"><ele>650.0</ele><time>2026-05-02T11:30:46.285Z</time></trkpt><trkpt lat="42.1492431" lon="13.6942448"><ele>650.0</ele><time>2026-05-02T11:30:47.285Z</time></trkpt><trkpt lat="42.1491756" lon="13.6943695"><ele>650.0</ele><time>2026-05-02T11:30:48.285Z</time></trkpt><trkpt lat="42.1491042" lon="13.6944774"><ele>650.0</ele><time>2026-05-02T11:30:49.286Z</time></trkpt><trkpt lat="42.1490345" lon="13.6945834"><ele>650.0</ele><time>2026-05-02T11:30:50.286Z</time></trkpt><trkpt lat="42.148957" lon="13.6946969"><ele>650.0</ele><time>2026-05-02T11:30:51.285Z</time></trkpt><trkpt lat="42.1488914" lon="13.6948137"><ele>650.0</ele><time>2026-05-02T11:30:52.285Z</time></trkpt><trkpt lat="42.148838" lon="13.6949307"><ele>650.0</ele><time>2026-05-02T11:30:53.285Z</time></trkpt><trkpt lat="42.1487864" lon="13.6950368"><ele>650.0</ele><time>2026-05-02T11:30:54.285Z</time></trkpt><trkpt lat="42.1487276" lon="13.695126"><ele>650.0</ele><time>2026-05-02T11:30:55.285Z</time></trkpt><trkpt lat="42.1486526" lon="13.6952005"><ele>650.0</ele><time>2026-05-02T11:30:56.285Z</time></trkpt><trkpt lat="42.1485633" lon="13.6952655"><ele>650.4</ele><time>2026-05-02T11:30:57.285Z</time></trkpt><trkpt lat="42.1484789" lon="13.695318"><ele>650.8</ele><time>2026-05-02T11:30:58.285Z</time></trkpt><trkpt lat="42.1484016" lon="13.6953895"><ele>651.2</ele><time>2026-05-02T11:30:59.285Z</time></trkpt><trkpt lat="42.1483355" lon="13.6954763"><ele>651.6</ele><time>2026-05-02T11:31:00.285Z</time></trkpt><trkpt lat="42.1482834" lon="13.6955777"><ele>652.0</ele><time>2026-05-02T11:31:01.286Z</time></trkpt><trkpt lat="42.1482431" lon="13.6956847"><ele>651.5</ele><time>2026-05-02T11:31:02.285Z</time></trkpt><trkpt lat="42.148206" lon="13.6957803"><ele>651.0</ele><time>2026-05-02T11:31:03.285Z</time></trkpt><trkpt lat="42.1481632" lon="13.6958557"><ele>650.5</ele><time>2026-05-02T11:31:04.285Z</time></trkpt><trkpt lat="42.1481058" lon="13.6959207"><ele>650.0</ele><time>2026-05-02T11:31:05.285Z</time></trkpt><trkpt lat="42.1480374" lon="13.6959689"><ele>649.5</ele><time>2026-05-02T11:31:06.286Z</time></trkpt><trkpt lat="42.1479626" lon="13.695999"><ele>649.0</ele><time>2026-05-02T11:31:07.285Z</time></trkpt><trkpt lat="42.1478648" lon="13.6960237"><ele>649.0</ele><time>2026-05-02T11:31:08.285Z</time></trkpt><trkpt lat="42.1477564" lon="13.6960409"><ele>649.0</ele><time>2026-05-02T11:31:09.285Z</time></trkpt><trkpt lat="42.1476356" lon="13.6960628"><ele>649.0</ele><time>2026-05-02T11:31:10.286Z</time></trkpt><trkpt lat="42.1475122" lon="13.6960834"><ele>649.0</ele><time>2026-05-02T11:31:11.285Z</time></trkpt><trkpt lat="42.1473969" lon="13.6961027"><ele>648.1666666666667</ele><time>2026-05-02T11:31:12.285Z</time></trkpt><trkpt lat="42.1472883" lon="13.6961216"><ele>647.3333333333334</ele><time>2026-05-02T11:31:13.285Z</time></trkpt><trkpt lat="42.147197" lon="13.696137"><ele>646.5</ele><time>2026-05-02T11:31:14.285Z</time></trkpt><trkpt lat="42.1471204" lon="13.6961338"><ele>645.6666666666666</ele><time>2026-05-02T11:31:15.285Z</time></trkpt><trkpt lat="42.1470562" lon="13.696115"><ele>644.8333333333333</ele><time>2026-05-02T11:31:16.285Z</time></trkpt><trkpt lat="42.1469891" lon="13.6960763"><ele>644.0</ele><time>2026-05-02T11:31:17.285Z</time></trkpt><trkpt lat="42.1469126" lon="13.6960253"><ele>644.0</ele><time>2026-05-02T11:31:18.285Z</time></trkpt><trkpt lat="42.1468273" lon="13.6959777"><ele>644.0</ele><time>2026-05-02T11:31:19.285Z</time></trkpt><trkpt lat="42.1467384" lon="13.6959379"><ele>644.0</ele><time>2026-05-02T11:31:20.285Z</time></trkpt><trkpt lat="42.1466494" lon="13.6959085"><ele>644.0</ele><time>2026-05-02T11:31:21.285Z</time></trkpt><trkpt lat="42.1465629" lon="13.6958857"><ele>644.0</ele><time>2026-05-02T11:31:22.285Z</time></trkpt><trkpt lat="42.1464761" lon="13.6958598"><ele>641.6</ele><time>2026-05-02T11:31:23.286Z</time></trkpt><trkpt lat="42.1463845" lon="13.6958363"><ele>639.2</ele><time>2026-05-02T11:31:24.285Z</time></trkpt><trkpt lat="42.146295" lon="13.6958242"><ele>636.8000000000001</ele><time>2026-05-02T11:31:25.285Z</time></trkpt><trkpt lat="42.1462075" lon="13.6958221"><ele>634.4000000000001</ele><time>2026-05-02T11:31:26.285Z</time></trkpt><trkpt lat="42.1461136" lon="13.6958361"><ele>632.0</ele><time>2026-05-02T11:31:27.285Z</time></trkpt><trkpt lat="42.1460099" lon="13.6958633"><ele>632.0</ele><time>2026-05-02T11:31:28.285Z</time></trkpt><trkpt lat="42.14591" lon="13.695905"><ele>632.0</ele><time>2026-05-02T11:31:29.285Z</time></trkpt><trkpt lat="42.1458" lon="13.69595"><ele>632.0</ele><time>2026-05-02T11:31:30.285Z</time></trkpt><trkpt lat="42.1456817" lon="13.6960033"><ele>632.0</ele><time>2026-05-02T11:31:31.286Z</time></trkpt><trkpt lat="42.14557" lon="13.6960583"><ele>629.0</ele><time>2026-05-02T11:31:32.285Z</time></trkpt><trkpt lat="42.145455" lon="13.696115"><ele>626.0</ele><time>2026-05-02T11:31:33.285Z</time></trkpt><trkpt lat="42.14534" lon="13.69618"><ele>623.0</ele><time>2026-05-02T11:31:34.285Z</time></trkpt><trkpt lat="42.1452117" lon="13.6962267"><ele>620.0</ele><time>2026-05-02T11:31:35.285Z</time></trkpt><trkpt lat="42.1450833" lon="13.6962617"><ele>620.0</ele><time>2026-05-02T11:31:36.286Z</time></trkpt><trkpt lat="42.1449517" lon="13.696285"><ele>620.0</ele><time>2026-05-02T11:31:37.285Z</time></trkpt><trkpt lat="42.14482" lon="13.6963033"><ele>620.0</ele><time>2026-05-02T11:31:38.285Z</time></trkpt><trkpt lat="42.1447033" lon="13.6963183"><ele>620.0</ele><time>2026-05-02T11:31:39.285Z</time></trkpt><trkpt lat="42.1445917" lon="13.69633"><ele>617.8</ele><time>2026-05-02T11:31:40.285Z</time></trkpt><trkpt lat="42.1444817" lon="13.6963483"><ele>615.6</ele><time>2026-05-02T11:31:41.285Z</time></trkpt><trkpt lat="42.1443833" lon="13.6963733"><ele>613.4</ele><time>2026-05-02T11:31:42.285Z</time></trkpt><trkpt lat="42.1442933" lon="13.6964083"><ele>611.2</ele><time>2026-05-02T11:31:43.285Z</time></trkpt><trkpt lat="42.1442117" lon="13.6964583"><ele>609.0</ele><time>2026-05-02T11:31:44.285Z</time></trkpt><trkpt lat="42.1441217" lon="13.6965217"><ele>606.25</ele><time>2026-05-02T11:31:45.285Z</time></trkpt><trkpt lat="42.1440333" lon="13.6966017"><ele>603.5</ele><time>2026-05-02T11:31:46.285Z</time></trkpt><trkpt lat="42.1439367" lon="13.696695"><ele>600.75</ele><time>2026-05-02T11:31:47.285Z</time></trkpt><trkpt lat="42.1438283" lon="13.69679"><ele>598.0</ele><time>2026-05-02T11:31:48.285Z</time></trkpt><trkpt lat="42.1437083" lon="13.6968683"><ele>597.25</ele><time>2026-05-02T11:31:49.285Z</time></trkpt><trkpt lat="42.1435833" lon="13.696945"><ele>596.5</ele><time>2026-05-02T11:31:50.285Z</time></trkpt><trkpt lat="42.1434567" lon="13.6970217"><ele>595.75</ele><time>2026-05-02T11:31:51.285Z</time></trkpt><trkpt lat="42.1433283" lon="13.697105"><ele>595.0</ele><time>2026-05-02T11:31:52.285Z</time></trkpt><trkpt lat="42.1432" lon="13.6972017"><ele>593.75</ele><time>2026-05-02T11:31:53.285Z</time></trkpt><trkpt lat="42.1430733" lon="13.6973067"><ele>592.5</ele><time>2026-05-02T11:31:54.286Z</time></trkpt><trkpt lat="42.142945" lon="13.6974217"><ele>591.25</ele><time>2026-05-02T11:31:55.285Z</time></trkpt><trkpt lat="42.1428217" lon="13.6975267"><ele>590.0</ele><time>2026-05-02T11:31:56.285Z</time></trkpt><trkpt lat="42.1426983" lon="13.69762"><ele>590.0</ele><time>2026-05-02T11:31:57.285Z</time></trkpt><trkpt lat="42.14258" lon="13.6977033"><ele>590.0</ele><time>2026-05-02T11:31:58.285Z</time></trkpt><trkpt lat="42.1424683" lon="13.69778"><ele>590.0</ele><time>2026-05-02T11:31:59.285Z</time></trkpt><trkpt lat="42.1423633" lon="13.6978483"><ele>590.0</ele><time>2026-05-02T11:32:00.285Z</time></trkpt><trkpt lat="42.142255" lon="13.6979133"><ele>587.4</ele><time>2026-05-02T11:32:01.286Z</time></trkpt><trkpt lat="42.1421533" lon="13.6979733"><ele>584.8</ele><time>2026-05-02T11:32:02.285Z</time></trkpt><trkpt lat="42.1420517" lon="13.6980183"><ele>582.2</ele><time>2026-05-02T11:32:03.285Z</time></trkpt><trkpt lat="42.141945" lon="13.6980617"><ele>579.6</ele><time>2026-05-02T11:32:04.285Z</time></trkpt><trkpt lat="42.1418483" lon="13.6980883"><ele>577.0</ele><time>2026-05-02T11:32:05.285Z</time></trkpt><trkpt lat="42.1417517" lon="13.6981017"><ele>577.0</ele><time>2026-05-02T11:32:06.286Z</time></trkpt><trkpt lat="42.14166" lon="13.69811"><ele>577.0</ele><time>2026-05-02T11:32:07.285Z</time></trkpt><trkpt lat="42.14157" lon="13.698105"><ele>577.0</ele><time>2026-05-02T11:32:08.285Z</time></trkpt><trkpt lat="42.141485" lon="13.69809"><ele>577.0</ele><time>2026-05-02T11:32:09.285Z</time></trkpt><trkpt lat="42.1414083" lon="13.69807"><ele>577.0</ele><time>2026-05-02T11:32:10.285Z</time></trkpt><trkpt lat="42.141325" lon="13.6980417"><ele>577.0</ele><time>2026-05-02T11:32:11.285Z</time></trkpt><trkpt lat="42.1412367" lon="13.6980083"><ele>575.0</ele><time>2026-05-02T11:32:12.285Z</time></trkpt><trkpt lat="42.1411583" lon="13.6979667"><ele>573.0</ele><time>2026-05-02T11:32:13.285Z</time></trkpt><trkpt lat="42.1410867" lon="13.6979167"><ele>571.0</ele><time>2026-05-02T11:32:14.286Z</time></trkpt><trkpt lat="42.1410317" lon="13.6978567"><ele>569.0</ele><time>2026-05-02T11:32:15.285Z</time></trkpt><trkpt lat="42.14098" lon="13.6977983"><ele>567.0</ele><time>2026-05-02T11:32:16.286Z</time></trkpt><trkpt lat="42.1409283" lon="13.6976817"><ele>565.0</ele><time>2026-05-02T11:32:18.285Z</time></trkpt><trkpt lat="42.1408683" lon="13.697625"><ele>565.0</ele><time>2026-05-02T11:32:21.285Z</time></trkpt><trkpt lat="42.14081" lon="13.697695"><ele>565.0</ele><time>2026-05-02T11:32:23.285Z</time></trkpt><trkpt lat="42.14078" lon="13.6977733"><ele>565.0</ele><time>2026-05-02T11:32:24.285Z</time></trkpt><trkpt lat="42.1407483" lon="13.69786"><ele>565.0</ele><time>2026-05-02T11:32:25.285Z</time></trkpt><trkpt lat="42.1407067" lon="13.6979517"><ele>565.0</ele><time>2026-05-02T11:32:26.285Z</time></trkpt><trkpt lat="42.1406667" lon="13.6980367"><ele>565.0</ele><time>2026-05-02T11:32:27.285Z</time></trkpt><trkpt lat="42.1405967" lon="13.6981417"><ele>565.3333333333334</ele><time>2026-05-02T11:32:29.285Z</time></trkpt><trkpt lat="42.1405183" lon="13.6981367"><ele>565.6666666666667</ele><time>2026-05-02T11:32:31.285Z</time></trkpt><trkpt lat="42.1404617" lon="13.6980267"><ele>566.0</ele><time>2026-05-02T11:32:33.285Z</time></trkpt><trkpt lat="42.14043" lon="13.697945"><ele>566.3333333333334</ele><time>2026-05-02T11:32:34.286Z</time></trkpt><trkpt lat="42.1403833" lon="13.6978433"><ele>566.6666666666666</ele><time>2026-05-02T11:32:35.285Z</time></trkpt><trkpt lat="42.1403333" lon="13.6977433"><ele>567.0</ele><time>2026-05-02T11:32:36.286Z</time></trkpt><trkpt lat="42.140275" lon="13.697655"><ele>567.0</ele><time>2026-05-02T11:32:37.285Z</time></trkpt><trkpt lat="42.14021" lon="13.697575"><ele>567.0</ele><time>2026-05-02T11:32:38.286Z</time></trkpt><trkpt lat="42.1401467" lon="13.6974933"><ele>567.0</ele><time>2026-05-02T11:32:39.285Z</time></trkpt><trkpt lat="42.14009" lon="13.6974433"><ele>567.0</ele><time>2026-05-02T11:32:40.285Z</time></trkpt><trkpt lat="42.1399883" lon="13.69739"><ele>567.0</ele><time>2026-05-02T11:32:42.285Z</time></trkpt><trkpt lat="42.13989" lon="13.6973967"><ele>568.4</ele><time>2026-05-02T11:32:44.285Z</time></trkpt><trkpt lat="42.1397617" lon="13.6974233"><ele>569.8000000000001</ele><time>2026-05-02T11:32:46.285Z</time></trkpt><trkpt lat="42.1396983" lon="13.6974217"><ele>571.2</ele><time>2026-05-02T11:32:47.286Z</time></trkpt><trkpt lat="42.1396017" lon="13.6974067"><ele>572.6</ele><time>2026-05-02T11:32:49.285Z</time></trkpt><trkpt lat="42.1394883" lon="13.69733"><ele>574.0</ele><time>2026-05-02T11:32:51.285Z</time></trkpt><trkpt lat="42.1394167" lon="13.6973017"><ele>574.0</ele><time>2026-05-02T11:32:52.286Z</time></trkpt><trkpt lat="42.1393433" lon="13.6972833"><ele>574.0</ele><time>2026-05-02T11:32:53.285Z</time></trkpt><trkpt lat="42.1392617" lon="13.697275"><ele>574.0</ele><time>2026-05-02T11:32:54.285Z</time></trkpt><trkpt lat="42.1391817" lon="13.697275"><ele>574.0</ele><time>2026-05-02T11:32:55.286Z</time></trkpt><trkpt lat="42.1391117" lon="13.6972633"><ele>574.0</ele><time>2026-05-02T11:32:56.285Z</time></trkpt><trkpt lat="42.139045" lon="13.697235"><ele>574.0</ele><time>2026-05-02T11:32:57.285Z</time></trkpt><trkpt lat="42.138985" lon="13.697195"><ele>574.0</ele><time>2026-05-02T11:32:58.286Z</time></trkpt><trkpt lat="42.13892" lon="13.69714"><ele>575.5714285714286</ele><time>2026-05-02T11:32:59.285Z</time></trkpt><trkpt lat="42.13885" lon="13.697075"><ele>577.1428571428571</ele><time>2026-05-02T11:33:00.285Z</time></trkpt><trkpt lat="42.1387983" lon="13.697005"><ele>578.7142857142858</ele><time>2026-05-02T11:33:01.286Z</time></trkpt><trkpt lat="42.1387533" lon="13.696935"><ele>580.2857142857142</ele><time>2026-05-02T11:33:02.285Z</time></trkpt><trkpt lat="42.13871" lon="13.69687"><ele>581.8571428571429</ele><time>2026-05-02T11:33:03.285Z</time></trkpt><trkpt lat="42.138655" lon="13.69681"><ele>583.4285714285714</ele><time>2026-05-02T11:33:04.286Z</time></trkpt><trkpt lat="42.1385817" lon="13.6967567"><ele>585.0</ele><time>2026-05-02T11:33:05.285Z</time></trkpt><trkpt lat="42.1384983" lon="13.6967083"><ele>585.0</ele><time>2026-05-02T11:33:06.285Z</time></trkpt><trkpt lat="42.1384067" lon="13.69666"><ele>585.0</ele><time>2026-05-02T11:33:07.286Z</time></trkpt><trkpt lat="42.1383167" lon="13.6966217"><ele>585.0</ele><time>2026-05-02T11:33:08.285Z</time></trkpt><trkpt lat="42.1382383" lon="13.696585"><ele>585.0</ele><time>2026-05-02T11:33:09.286Z</time></trkpt><trkpt lat="42.1381583" lon="13.6965517"><ele>585.0</ele><time>2026-05-02T11:33:10.285Z</time></trkpt><trkpt lat="42.1380767" lon="13.6965233"><ele>585.0</ele><time>2026-05-02T11:33:11.285Z</time></trkpt><trkpt lat="42.1379933" lon="13.6964917"><ele>586.0</ele><time>2026-05-02T11:33:12.285Z</time></trkpt><trkpt lat="42.13791" lon="13.6964583"><ele>587.0</ele><time>2026-05-02T11:33:13.285Z</time></trkpt><trkpt lat="42.1378383" lon="13.69643"><ele>588.0</ele><time>2026-05-02T11:33:14.286Z</time></trkpt><trkpt lat="42.137735" lon="13.6963683"><ele>589.0</ele><time>2026-05-02T11:33:16.285Z</time></trkpt><trkpt lat="42.1376367" lon="13.6962867"><ele>590.0</ele><time>2026-05-02T11:33:18.286Z</time></trkpt><trkpt lat="42.1375833" lon="13.696235"><ele>590.0000000000001</ele><time>2026-05-02T11:33:19.285Z</time></trkpt><trkpt lat="42.13752" lon="13.69619"><ele>590.0</ele><time>2026-05-02T11:33:20.285Z</time></trkpt><trkpt lat="42.13746" lon="13.6961533"><ele>590.0</ele><time>2026-05-02T11:33:21.286Z</time></trkpt><trkpt lat="42.1373983" lon="13.6961283"><ele>590.0</ele><time>2026-05-02T11:33:22.285Z</time></trkpt><trkpt lat="42.137335" lon="13.6961033"><ele>590.0</ele><time>2026-05-02T11:33:23.285Z</time></trkpt><trkpt lat="42.137245" lon="13.6960817"><ele>590.0000000000001</ele><time>2026-05-02T11:33:25.285Z</time></trkpt><trkpt lat="42.1371583" lon="13.69608"><ele>590.0</ele><time>2026-05-02T11:33:27.286Z</time></trkpt><trkpt lat="42.13706" lon="13.696105"><ele>590.8571428571429</ele><time>2026-05-02T11:33:29.285Z</time></trkpt><trkpt lat="42.136995" lon="13.69612"><ele>591.7142857142858</ele><time>2026-05-02T11:33:30.285Z</time></trkpt><trkpt lat="42.1369317" lon="13.6961367"><ele>592.5714285714286</ele><time>2026-05-02T11:33:31.285Z</time></trkpt><trkpt lat="42.1368617" lon="13.6961417"><ele>593.4285714285714</ele><time>2026-05-02T11:33:32.285Z</time></trkpt><trkpt lat="42.1367883" lon="13.6961417"><ele>594.2857142857142</ele><time>2026-05-02T11:33:33.285Z</time></trkpt><trkpt lat="42.1367117" lon="13.6961367"><ele>595.1428571428571</ele><time>2026-05-02T11:33:34.286Z</time></trkpt><trkpt lat="42.13664" lon="13.69613"><ele>596.0</ele><time>2026-05-02T11:33:35.286Z</time></trkpt><trkpt lat="42.136565" lon="13.6961133"><ele>596.5</ele><time>2026-05-02T11:33:36.285Z</time></trkpt><trkpt lat="42.13649" lon="13.6960983"><ele>597.0</ele><time>2026-05-02T11:33:37.285Z</time></trkpt><trkpt lat="42.1364083" lon="13.696085"><ele>597.5</ele><time>2026-05-02T11:33:38.285Z</time></trkpt><trkpt lat="42.1363317" lon="13.6960867"><ele>598.0</ele><time>2026-05-02T11:33:39.285Z</time></trkpt><trkpt lat="42.1362467" lon="13.6960933"><ele>598.5</ele><time>2026-05-02T11:33:40.285Z</time></trkpt><trkpt lat="42.1361567" lon="13.6961033"><ele>599.0</ele><time>2026-05-02T11:33:41.285Z</time></trkpt><trkpt lat="42.1360583" lon="13.6961117"><ele>599.0</ele><time>2026-05-02T11:33:42.285Z</time></trkpt><trkpt lat="42.135965" lon="13.6961083"><ele>599.0</ele><time>2026-05-02T11:33:43.285Z</time></trkpt><trkpt lat="42.135895" lon="13.696105"><ele>599.0</ele><time>2026-05-02T11:33:44.285Z</time></trkpt><trkpt lat="42.1358217" lon="13.696095"><ele>599.0</ele><time>2026-05-02T11:33:45.285Z</time></trkpt><trkpt lat="42.1357433" lon="13.696075"><ele>599.0</ele><time>2026-05-02T11:33:46.285Z</time></trkpt><trkpt lat="42.1356667" lon="13.6960483"><ele>599.0</ele><time>2026-05-02T11:33:47.285Z</time></trkpt><trkpt lat="42.1355717" lon="13.6959983"><ele>601.3333333333333</ele><time>2026-05-02T11:33:48.285Z</time></trkpt><trkpt lat="42.135475" lon="13.6959417"><ele>603.6666666666666</ele><time>2026-05-02T11:33:49.286Z</time></trkpt><trkpt lat="42.1353783" lon="13.695905"><ele>606.0</ele><time>2026-05-02T11:33:50.285Z</time></trkpt><trkpt lat="42.135295" lon="13.6958767"><ele>608.3333333333334</ele><time>2026-05-02T11:33:51.285Z</time></trkpt><trkpt lat="42.1352233" lon="13.695865"><ele>610.6666666666667</ele><time>2026-05-02T11:33:52.285Z</time></trkpt><trkpt lat="42.1351567" lon="13.69587"><ele>613.0</ele><time>2026-05-02T11:33:53.285Z</time></trkpt><trkpt lat="42.1350833" lon="13.6958833"><ele>613.0</ele><time>2026-05-02T11:33:54.286Z</time></trkpt><trkpt lat="42.135" lon="13.6959067"><ele>613.0</ele><time>2026-05-02T11:33:55.285Z</time></trkpt><trkpt lat="42.1349167" lon="13.6959267"><ele>613.0</ele><time>2026-05-02T11:33:56.285Z</time></trkpt><trkpt lat="42.1348217" lon="13.69594"><ele>613.0</ele><time>2026-05-02T11:33:57.285Z</time></trkpt><trkpt lat="42.1347367" lon="13.6959433"><ele>613.0</ele><time>2026-05-02T11:33:58.285Z</time></trkpt><trkpt lat="42.1346567" lon="13.6959483"><ele>613.0</ele><time>2026-05-02T11:33:59.286Z</time></trkpt><trkpt lat="42.1345767" lon="13.695965"><ele>613.0</ele><time>2026-05-02T11:34:00.285Z</time></trkpt><trkpt lat="42.13451" lon="13.6959833"><ele>613.0</ele><time>2026-05-02T11:34:01.286Z</time></trkpt><trkpt lat="42.13442" lon="13.6960367"><ele>613.0</ele><time>2026-05-02T11:34:03.285Z</time></trkpt><trkpt lat="42.1343417" lon="13.6961017"><ele>613.0</ele><time>2026-05-02T11:34:05.285Z</time></trkpt><trkpt lat="42.1342517" lon="13.69623"><ele>613.0</ele><time>2026-05-02T11:34:07.285Z</time></trkpt><trkpt lat="42.134205" lon="13.6963133"><ele>613.0</ele><time>2026-05-02T11:34:08.285Z</time></trkpt><trkpt lat="42.1341667" lon="13.6963833"><ele>613.0</ele><time>2026-05-02T11:34:09.285Z</time></trkpt><trkpt lat="42.1340783" lon="13.6965083"><ele>613.0</ele><time>2026-05-02T11:34:11.285Z</time></trkpt><trkpt lat="42.1340267" lon="13.69657"><ele>613.0</ele><time>2026-05-02T11:34:12.285Z</time></trkpt><trkpt lat="42.133915" lon="13.6966783"><ele>613.0</ele><time>2026-05-02T11:34:14.285Z</time></trkpt><trkpt lat="42.13385" lon="13.6967467"><ele>613.1428571428571</ele><time>2026-05-02T11:34:15.286Z</time></trkpt><trkpt lat="42.1337883" lon="13.6968167"><ele>613.2857142857142</ele><time>2026-05-02T11:34:16.286Z</time></trkpt><trkpt lat="42.1337267" lon="13.69689"><ele>613.4285714285713</ele><time>2026-05-02T11:34:17.285Z</time></trkpt><trkpt lat="42.1336733" lon="13.6969617"><ele>613.5714285714286</ele><time>2026-05-02T11:34:18.285Z</time></trkpt><trkpt lat="42.1336267" lon="13.6970267"><ele>613.7142857142857</ele><time>2026-05-02T11:34:19.285Z</time></trkpt><trkpt lat="42.1335783" lon="13.6970917"><ele>613.8571428571428</ele><time>2026-05-02T11:34:20.285Z</time></trkpt><trkpt lat="42.13353" lon="13.69716"><ele>614.0</ele><time>2026-05-02T11:34:21.285Z</time></trkpt><trkpt lat="42.1334733" lon="13.6972433"><ele>614.6</ele><time>2026-05-02T11:34:22.285Z</time></trkpt><trkpt lat="42.133415" lon="13.69732"><ele>615.2</ele><time>2026-05-02T11:34:23.286Z</time></trkpt><trkpt lat="42.1333517" lon="13.69741"><ele>615.8000000000001</ele><time>2026-05-02T11:34:24.285Z</time></trkpt><trkpt lat="42.1332833" lon="13.6975"><ele>616.4</ele><time>2026-05-02T11:34:25.286Z</time></trkpt><trkpt lat="42.133215" lon="13.69758"><ele>617.0</ele><time>2026-05-02T11:34:26.286Z</time></trkpt><trkpt lat="42.133145" lon="13.6976617"><ele>616.2</ele><time>2026-05-02T11:34:27.285Z</time></trkpt><trkpt lat="42.1330683" lon="13.6977567"><ele>615.4000000000001</ele><time>2026-05-02T11:34:28.285Z</time></trkpt><trkpt lat="42.1329883" lon="13.69786"><ele>614.5999999999999</ele><time>2026-05-02T11:34:29.285Z</time></trkpt><trkpt lat="42.13291" lon="13.697965"><ele>613.8</ele><time>2026-05-02T11:34:30.285Z</time></trkpt><trkpt lat="42.1328233" lon="13.6980633"><ele>613.0</ele><time>2026-05-02T11:34:31.285Z</time></trkpt><trkpt lat="42.1327367" lon="13.6981483"><ele>613.0</ele><time>2026-05-02T11:34:32.285Z</time></trkpt><trkpt lat="42.1326617" lon="13.6982267"><ele>613.0</ele><time>2026-05-02T11:34:33.285Z</time></trkpt><trkpt lat="42.1325967" lon="13.69832"><ele>613.0</ele><time>2026-05-02T11:34:34.285Z</time></trkpt><trkpt lat="42.1325417" lon="13.6984183"><ele>613.0</ele><time>2026-05-02T11:34:35.285Z</time></trkpt><trkpt lat="42.13249" lon="13.6985333"><ele>613.0</ele><time>2026-05-02T11:34:36.285Z</time></trkpt><trkpt lat="42.132445" lon="13.6986633"><ele>612.75</ele><time>2026-05-02T11:34:37.285Z</time></trkpt><trkpt lat="42.1324017" lon="13.6987967"><ele>612.5</ele><time>2026-05-02T11:34:38.285Z</time></trkpt><trkpt lat="42.1323617" lon="13.6989367"><ele>612.25</ele><time>2026-05-02T11:34:39.286Z</time></trkpt><trkpt lat="42.1323033" lon="13.6990933"><ele>612.0</ele><time>2026-05-02T11:34:40.285Z</time></trkpt><trkpt lat="42.1322317" lon="13.6992417"><ele>612.6</ele><time>2026-05-02T11:34:41.286Z</time></trkpt><trkpt lat="42.13216" lon="13.6993683"><ele>613.2</ele><time>2026-05-02T11:34:42.285Z</time></trkpt><trkpt lat="42.1320933" lon="13.6994783"><ele>613.8</ele><time>2026-05-02T11:34:43.285Z</time></trkpt><trkpt lat="42.1320167" lon="13.699585"><ele>614.4</ele><time>2026-05-02T11:34:44.285Z</time></trkpt><trkpt lat="42.1319467" lon="13.69969"><ele>615.0</ele><time>2026-05-02T11:34:45.285Z</time></trkpt><trkpt lat="42.1318683" lon="13.6997983"><ele>615.0</ele><time>2026-05-02T11:34:46.285Z</time></trkpt><trkpt lat="42.1317833" lon="13.69991"><ele>615.0</ele><time>2026-05-02T11:34:47.285Z</time></trkpt><trkpt lat="42.13169" lon="13.7000267"><ele>615.0</ele><time>2026-05-02T11:34:48.285Z</time></trkpt><trkpt lat="42.131595" lon="13.7001267"><ele>615.0</ele><time>2026-05-02T11:34:49.285Z</time></trkpt><trkpt lat="42.1314967" lon="13.700205"><ele>615.5</ele><time>2026-05-02T11:34:50.285Z</time></trkpt><trkpt lat="42.1314033" lon="13.7002817"><ele>616.0</ele><time>2026-05-02T11:34:51.285Z</time></trkpt><trkpt lat="42.1313233" lon="13.7003817"><ele>616.5</ele><time>2026-05-02T11:34:52.286Z</time></trkpt><trkpt lat="42.1312517" lon="13.7005"><ele>617.0</ele><time>2026-05-02T11:34:53.285Z</time></trkpt><trkpt lat="42.131175" lon="13.700645"><ele>617.0</ele><time>2026-05-02T11:34:54.285Z</time></trkpt><trkpt lat="42.1310967" lon="13.7007733"><ele>617.0</ele><time>2026-05-02T11:34:55.285Z</time></trkpt><trkpt lat="42.1310067" lon="13.7008817"><ele>617.0</ele><time>2026-05-02T11:34:56.285Z</time></trkpt><trkpt lat="42.1309033" lon="13.70098"><ele>617.0</ele><time>2026-05-02T11:34:57.285Z</time></trkpt><trkpt lat="42.1307967" lon="13.7010733"><ele>620.0</ele><time>2026-05-02T11:34:58.285Z</time></trkpt><trkpt lat="42.1306883" lon="13.7011817"><ele>623.0</ele><time>2026-05-02T11:34:59.285Z</time></trkpt><trkpt lat="42.13058" lon="13.7013"><ele>626.0</ele><time>2026-05-02T11:35:00.285Z</time></trkpt><trkpt lat="42.130475" lon="13.7014217"><ele>629.0</ele><time>2026-05-02T11:35:01.285Z</time></trkpt><trkpt lat="42.130385" lon="13.7015217"><ele>629.0</ele><time>2026-05-02T11:35:02.285Z</time></trkpt><trkpt lat="42.1303067" lon="13.701605"><ele>629.0</ele><time>2026-05-02T11:35:03.285Z</time></trkpt><trkpt lat="42.130245" lon="13.7016683"><ele>629.0</ele><time>2026-05-02T11:35:04.285Z</time></trkpt><trkpt lat="42.1301633" lon="13.7017217"><ele>629.0</ele><time>2026-05-02T11:35:06.285Z</time></trkpt><trkpt lat="42.1300967" lon="13.7016317"><ele>629.0</ele><time>2026-05-02T11:35:09.285Z</time></trkpt><trkpt lat="42.130035" lon="13.7014883"><ele>629.0</ele><time>2026-05-02T11:35:11.285Z</time></trkpt><trkpt lat="42.129995" lon="13.7014033"><ele>629.0</ele><time>2026-05-02T11:35:12.285Z</time></trkpt><trkpt lat="42.12995" lon="13.701315"><ele>629.0</ele><time>2026-05-02T11:35:13.285Z</time></trkpt><trkpt lat="42.129905" lon="13.7012267"><ele>629.0</ele><time>2026-05-02T11:35:14.286Z</time></trkpt><trkpt lat="42.129865" lon="13.7011267"><ele>629.0</ele><time>2026-05-02T11:35:15.285Z</time></trkpt><trkpt lat="42.1298283" lon="13.7010233"><ele>629.0</ele><time>2026-05-02T11:35:16.285Z</time></trkpt><trkpt lat="42.1297917" lon="13.70091"><ele>632.2</ele><time>2026-05-02T11:35:17.285Z</time></trkpt><trkpt lat="42.12973" lon="13.7007783"><ele>635.4</ele><time>2026-05-02T11:35:18.285Z</time></trkpt><trkpt lat="42.12967" lon="13.7006467"><ele>638.6</ele><time>2026-05-02T11:35:19.285Z</time></trkpt><trkpt lat="42.1296183" lon="13.70052"><ele>641.8</ele><time>2026-05-02T11:35:20.285Z</time></trkpt><trkpt lat="42.1295633" lon="13.7004017"><ele>645.0</ele><time>2026-05-02T11:35:21.285Z</time></trkpt><trkpt lat="42.1295067" lon="13.7002933"><ele>647.0</ele><time>2026-05-02T11:35:22.286Z</time></trkpt><trkpt lat="42.1294617" lon="13.70019"><ele>649.0</ele><time>2026-05-02T11:35:23.285Z</time></trkpt><trkpt lat="42.12942" lon="13.7000933"><ele>651.0</ele><time>2026-05-02T11:35:24.285Z</time></trkpt><trkpt lat="42.1293767" lon="13.7000217"><ele>653.0</ele><time>2026-05-02T11:35:25.285Z</time></trkpt><trkpt lat="42.12931" lon="13.6999067"><ele>655.0</ele><time>2026-05-02T11:35:27.285Z</time></trkpt><trkpt lat="42.1292033" lon="13.6998617"><ele>655.0</ele><time>2026-05-02T11:35:29.285Z</time></trkpt><trkpt lat="42.1291083" lon="13.6998767"><ele>655.0</ele><time>2026-05-02T11:35:31.285Z</time></trkpt><trkpt lat="42.129025" lon="13.6999183"><ele>655.0</ele><time>2026-05-02T11:35:33.285Z</time></trkpt><trkpt lat="42.1289333" lon="13.6999933"><ele>655.0</ele><time>2026-05-02T11:35:35.285Z</time></trkpt><trkpt lat="42.128845" lon="13.7000133"><ele>655.0</ele><time>2026-05-02T11:35:37.286Z</time></trkpt><trkpt lat="42.1287633" lon="13.6999483"><ele>656.3333333333334</ele><time>2026-05-02T11:35:39.285Z</time></trkpt><trkpt lat="42.12865" lon="13.6999117"><ele>657.6666666666667</ele><time>2026-05-02T11:35:41.285Z</time></trkpt><trkpt lat="42.1285783" lon="13.699925"><ele>659.0</ele><time>2026-05-02T11:35:42.286Z</time></trkpt><trkpt lat="42.1285" lon="13.6999433"><ele>660.3333333333334</ele><time>2026-05-02T11:35:43.285Z</time></trkpt><trkpt lat="42.1284233" lon="13.6999567"><ele>661.6666666666666</ele><time>2026-05-02T11:35:44.285Z</time></trkpt><trkpt lat="42.1283533" lon="13.699975"><ele>663.0</ele><time>2026-05-02T11:35:45.285Z</time></trkpt><trkpt lat="42.128275" lon="13.7"><ele>665.5999999999999</ele><time>2026-05-02T11:35:46.285Z</time></trkpt><trkpt lat="42.1281883" lon="13.70003"><ele>668.1999999999999</ele><time>2026-05-02T11:35:47.285Z</time></trkpt><trkpt lat="42.1280817" lon="13.7000683"><ele>670.8</ele><time>2026-05-02T11:35:48.285Z</time></trkpt><trkpt lat="42.1279917" lon="13.7000817"><ele>673.4</ele><time>2026-05-02T11:35:49.285Z</time></trkpt><trkpt lat="42.1278983" lon="13.7001017"><ele>676.0</ele><time>2026-05-02T11:35:50.285Z</time></trkpt><trkpt lat="42.1278183" lon="13.70012"><ele>676.0</ele><time>2026-05-02T11:35:51.285Z</time></trkpt><trkpt lat="42.1277333" lon="13.7001533"><ele>676.0</ele><time>2026-05-02T11:35:52.285Z</time></trkpt><trkpt lat="42.127635" lon="13.700165"><ele>676.0</ele><time>2026-05-02T11:35:53.285Z</time></trkpt><trkpt lat="42.1275367" lon="13.7001633"><ele>676.0</ele><time>2026-05-02T11:35:54.285Z</time></trkpt><trkpt lat="42.12745" lon="13.7001567"><ele>676.0</ele><time>2026-05-02T11:35:55.285Z</time></trkpt><trkpt lat="42.12737" lon="13.7001617"><ele>674.0</ele><time>2026-05-02T11:35:56.286Z</time></trkpt><trkpt lat="42.1272483" lon="13.70018"><ele>672.0</ele><time>2026-05-02T11:35:58.285Z</time></trkpt><trkpt lat="42.127085" lon="13.70017"><ele>670.0</ele><time>2026-05-02T11:36:01.285Z</time></trkpt><trkpt lat="42.1270117" lon="13.7001067"><ele>668.0</ele><time>2026-05-02T11:36:03.285Z</time></trkpt><trkpt lat="42.1269433" lon="13.7000683"><ele>666.0</ele><time>2026-05-02T11:36:06.285Z</time></trkpt><trkpt lat="42.1268867" lon="13.6999567"><ele>666.0</ele><time>2026-05-02T11:36:17.285Z</time></trkpt><trkpt lat="42.1268417" lon="13.699885"><ele>666.0</ele><time>2026-05-02T11:36:19.285Z</time></trkpt><trkpt lat="42.1267833" lon="13.699765"><ele>666.0</ele><time>2026-05-02T11:36:21.285Z</time></trkpt><trkpt lat="42.12675" lon="13.6996683"><ele>666.0</ele><time>2026-05-02T11:36:23.285Z</time></trkpt><trkpt lat="42.12672" lon="13.699575"><ele>666.0</ele><time>2026-05-02T11:36:25.285Z</time></trkpt><trkpt lat="42.1266717" lon="13.69947"><ele>666.0</ele><time>2026-05-02T11:36:28.285Z</time></trkpt><trkpt lat="42.1265667" lon="13.6994433"><ele>664.8</ele><time>2026-05-02T11:36:31.285Z</time></trkpt><trkpt lat="42.1264867" lon="13.6994333"><ele>663.5999999999999</ele><time>2026-05-02T11:36:33.285Z</time></trkpt><trkpt lat="42.1264033" lon="13.6994267"><ele>662.4</ele><time>2026-05-02T11:36:35.285Z</time></trkpt><trkpt lat="42.12633" lon="13.699375"><ele>661.2</ele><time>2026-05-02T11:36:37.285Z</time></trkpt><trkpt lat="42.1262683" lon="13.6992533"><ele>660.0</ele><time>2026-05-02T11:36:39.285Z</time></trkpt><trkpt lat="42.12621" lon="13.6991117"><ele>660.0</ele><time>2026-05-02T11:36:41.285Z</time></trkpt><trkpt lat="42.126145" lon="13.6990233"><ele>660.0</ele><time>2026-05-02T11:36:43.285Z</time></trkpt><trkpt lat="42.1260917" lon="13.698925"><ele>660.0</ele><time>2026-05-02T11:36:45.285Z</time></trkpt><trkpt lat="42.12607" lon="13.6987733"><ele>660.0</ele><time>2026-05-02T11:36:47.285Z</time></trkpt><trkpt lat="42.126065" lon="13.6986783"><ele>660.0</ele><time>2026-05-02T11:36:48.285Z</time></trkpt><trkpt lat="42.12607" lon="13.6985733"><ele>660.0</ele><time>2026-05-02T11:36:49.285Z</time></trkpt><trkpt lat="42.126085" lon="13.6984683"><ele>661.2</ele><time>2026-05-02T11:36:50.285Z</time></trkpt><trkpt lat="42.1260967" lon="13.6983567"><ele>662.4</ele><time>2026-05-02T11:36:51.286Z</time></trkpt><trkpt lat="42.1261067" lon="13.6982433"><ele>663.5999999999999</ele><time>2026-05-02T11:36:52.285Z</time></trkpt><trkpt lat="42.126115" lon="13.698115"><ele>664.8</ele><time>2026-05-02T11:36:53.285Z</time></trkpt><trkpt lat="42.126125" lon="13.6979867"><ele>666.0</ele><time>2026-05-02T11:36:54.285Z</time></trkpt><trkpt lat="42.1261083" lon="13.6978483"><ele>668.1999999999999</ele><time>2026-05-02T11:36:55.285Z</time></trkpt><trkpt lat="42.1261033" lon="13.6977067"><ele>670.4</ele><time>2026-05-02T11:36:56.286Z</time></trkpt><trkpt lat="42.1260817" lon="13.6975667"><ele>672.6</ele><time>2026-05-02T11:36:57.285Z</time></trkpt><trkpt lat="42.126065" lon="13.6974317"><ele>674.8</ele><time>2026-05-02T11:36:58.285Z</time></trkpt><trkpt lat="42.1260333" lon="13.6972967"><ele>677.0</ele><time>2026-05-02T11:36:59.285Z</time></trkpt><trkpt lat="42.1259983" lon="13.6971683"><ele>677.0</ele><time>2026-05-02T11:37:00.285Z</time></trkpt><trkpt lat="42.1259633" lon="13.6970483"><ele>677.0</ele><time>2026-05-02T11:37:01.285Z</time></trkpt><trkpt lat="42.1259383" lon="13.696935"><ele>677.0</ele><time>2026-05-02T11:37:02.285Z</time></trkpt><trkpt lat="42.125905" lon="13.6968283"><ele>677.0</ele><time>2026-05-02T11:37:03.285Z</time></trkpt><trkpt lat="42.1258817" lon="13.6967117"><ele>677.0</ele><time>2026-05-02T11:37:04.285Z</time></trkpt><trkpt lat="42.1258633" lon="13.6965933"><ele>677.0</ele><time>2026-05-02T11:37:05.285Z</time></trkpt><trkpt lat="42.1258417" lon="13.696475"><ele>680.0</ele><time>2026-05-02T11:37:06.285Z</time></trkpt><trkpt lat="42.1258183" lon="13.6963267"><ele>683.0</ele><time>2026-05-02T11:37:07.285Z</time></trkpt><trkpt lat="42.1257933" lon="13.6961667"><ele>686.0</ele><time>2026-05-02T11:37:08.285Z</time></trkpt><trkpt lat="42.1257617" lon="13.6959867"><ele>689.0</ele><time>2026-05-02T11:37:09.285Z</time></trkpt><trkpt lat="42.1257267" lon="13.6958083"><ele>694.25</ele><time>2026-05-02T11:37:10.285Z</time></trkpt><trkpt lat="42.1256933" lon="13.69563"><ele>699.5</ele><time>2026-05-02T11:37:11.285Z</time></trkpt><trkpt lat="42.1256633" lon="13.695465"><ele>704.75</ele><time>2026-05-02T11:37:12.285Z</time></trkpt><trkpt lat="42.12563" lon="13.69531"><ele>710.0</ele><time>2026-05-02T11:37:13.285Z</time></trkpt><trkpt lat="42.1256017" lon="13.6951683"><ele>713.8</ele><time>2026-05-02T11:37:14.285Z</time></trkpt><trkpt lat="42.12558" lon="13.6950467"><ele>717.6</ele><time>2026-05-02T11:37:15.285Z</time></trkpt><trkpt lat="42.12556" lon="13.6949267"><ele>721.4000000000001</ele><time>2026-05-02T11:37:16.285Z</time></trkpt><trkpt lat="42.1255333" lon="13.6948033"><ele>725.2</ele><time>2026-05-02T11:37:17.285Z</time></trkpt><trkpt lat="42.1255117" lon="13.694685"><ele>729.0</ele><time>2026-05-02T11:37:18.286Z</time></trkpt><trkpt lat="42.1254817" lon="13.694555"><ele>729.0</ele><time>2026-05-02T11:37:19.285Z</time></trkpt><trkpt lat="42.1254467" lon="13.694425"><ele>729.0</ele><time>2026-05-02T11:37:20.285Z</time></trkpt><trkpt lat="42.1254117" lon="13.6943033"><ele>729.0</ele><time>2026-05-02T11:37:21.285Z</time></trkpt><trkpt lat="42.12537" lon="13.6941767"><ele>729.0</ele><time>2026-05-02T11:37:22.285Z</time></trkpt><trkpt lat="42.1253183" lon="13.69407"><ele>729.0</ele><time>2026-05-02T11:37:23.285Z</time></trkpt><trkpt lat="42.1252733" lon="13.69396"><ele>729.7142857142858</ele><time>2026-05-02T11:37:24.285Z</time></trkpt><trkpt lat="42.1252217" lon="13.6938583"><ele>730.4285714285713</ele><time>2026-05-02T11:37:25.285Z</time></trkpt><trkpt lat="42.1251867" lon="13.6937683"><ele>731.1428571428571</ele><time>2026-05-02T11:37:26.285Z</time></trkpt><trkpt lat="42.1251517" lon="13.6936783"><ele>731.8571428571429</ele><time>2026-05-02T11:37:27.285Z</time></trkpt><trkpt lat="42.1251217" lon="13.6935983"><ele>732.5714285714287</ele><time>2026-05-02T11:37:28.285Z</time></trkpt><trkpt lat="42.1250933" lon="13.6935183"><ele>733.2857142857142</ele><time>2026-05-02T11:37:29.285Z</time></trkpt><trkpt lat="42.1250583" lon="13.6934383"><ele>734.0</ele><time>2026-05-02T11:37:30.285Z</time></trkpt><trkpt lat="42.125025" lon="13.6933633"><ele>735.3333333333333</ele><time>2026-05-02T11:37:31.285Z</time></trkpt><trkpt lat="42.1249733" lon="13.6932633"><ele>736.6666666666666</ele><time>2026-05-02T11:37:33.285Z</time></trkpt><trkpt lat="42.1249217" lon="13.6931917"><ele>738.0</ele><time>2026-05-02T11:37:35.285Z</time></trkpt><trkpt lat="42.124875" lon="13.69311"><ele>739.3333333333334</ele><time>2026-05-02T11:37:46.285Z</time></trkpt><trkpt lat="42.124825" lon="13.693055"><ele>740.6666666666667</ele><time>2026-05-02T11:37:48.286Z</time></trkpt><trkpt lat="42.12474" lon="13.6930167"><ele>742.0</ele><time>2026-05-02T11:38:18.286Z</time></trkpt><trkpt lat="42.1247017" lon="13.6929217"><ele>746.8</ele><time>2026-05-02T11:38:45.285Z</time></trkpt><trkpt lat="42.1246633" lon="13.6928533"><ele>751.6</ele><time>2026-05-02T11:38:47.286Z</time></trkpt><trkpt lat="42.1246083" lon="13.6927617"><ele>756.4</ele><time>2026-05-02T11:38:49.285Z</time></trkpt><trkpt lat="42.12454" lon="13.69266"><ele>761.1999999999999</ele><time>2026-05-02T11:38:51.285Z</time></trkpt><trkpt lat="42.1244683" lon="13.6925517"><ele>766.0</ele><time>2026-05-02T11:38:53.285Z</time></trkpt><trkpt lat="42.12442" lon="13.6924433"><ele>766.1666666666667</ele><time>2026-05-02T11:38:55.285Z</time></trkpt><trkpt lat="42.1243883" lon="13.6923417"><ele>766.3333333333334</ele><time>2026-05-02T11:38:57.285Z</time></trkpt><trkpt lat="42.124375" lon="13.6922183"><ele>766.5</ele><time>2026-05-02T11:38:59.285Z</time></trkpt><trkpt lat="42.1243583" lon="13.6921267"><ele>766.6666666666666</ele><time>2026-05-02T11:39:01.285Z</time></trkpt><trkpt lat="42.1243117" lon="13.69205"><ele>766.8333333333333</ele><time>2026-05-02T11:39:03.285Z</time></trkpt><trkpt lat="42.12423" lon="13.6920117"><ele>767.0</ele><time>2026-05-02T11:39:05.286Z</time></trkpt><trkpt lat="42.1241517" lon="13.6920417"><ele>767.0</ele><time>2026-05-02T11:39:07.285Z</time></trkpt><trkpt lat="42.124085" lon="13.6921417"><ele>767.0</ele><time>2026-05-02T11:39:09.285Z</time></trkpt><trkpt lat="42.124065" lon="13.6922833"><ele>767.0</ele><time>2026-05-02T11:39:11.285Z</time></trkpt><trkpt lat="42.1240567" lon="13.69237"><ele>767.0</ele><time>2026-05-02T11:39:12.285Z</time></trkpt><trkpt lat="42.1240433" lon="13.6925517"><ele>767.0</ele><time>2026-05-02T11:39:14.285Z</time></trkpt><trkpt lat="42.124035" lon="13.69266"><ele>770.3333333333333</ele><time>2026-05-02T11:39:15.285Z</time></trkpt><trkpt lat="42.1240233" lon="13.692765"><ele>773.6666666666666</ele><time>2026-05-02T11:39:16.285Z</time></trkpt><trkpt lat="42.12401" lon="13.6928733"><ele>777.0</ele><time>2026-05-02T11:39:17.285Z</time></trkpt><trkpt lat="42.1240017" lon="13.6929767"><ele>780.3333333333333</ele><time>2026-05-02T11:39:18.286Z</time></trkpt><trkpt lat="42.124" lon="13.69308"><ele>783.6666666666666</ele><time>2026-05-02T11:39:19.285Z</time></trkpt><trkpt lat="42.1240017" lon="13.6931833"><ele>787.0</ele><time>2026-05-02T11:39:20.285Z</time></trkpt><trkpt lat="42.12398" lon="13.6932733"><ele>787.0</ele><time>2026-05-02T11:39:21.285Z</time></trkpt><trkpt lat="42.1239833" lon="13.6933583"><ele>787.0</ele><time>2026-05-02T11:39:22.285Z</time></trkpt><trkpt lat="42.1239633" lon="13.6935083"><ele>787.0</ele><time>2026-05-02T11:39:24.285Z</time></trkpt><trkpt lat="42.1238817" lon="13.69364"><ele>787.0</ele><time>2026-05-02T11:39:26.285Z</time></trkpt><trkpt lat="42.12382" lon="13.6937017"><ele>787.0</ele><time>2026-05-02T11:39:27.285Z</time></trkpt><trkpt lat="42.123745" lon="13.6937633"><ele>784.9999999999999</ele><time>2026-05-02T11:39:28.285Z</time></trkpt><trkpt lat="42.1236617" lon="13.6938133"><ele>783.0</ele><time>2026-05-02T11:39:29.286Z</time></trkpt><trkpt lat="42.12358" lon="13.6938583"><ele>781.0</ele><time>2026-05-02T11:39:30.286Z</time></trkpt><trkpt lat="42.1235017" lon="13.6938917"><ele>779.0</ele><time>2026-05-02T11:39:31.285Z</time></trkpt><trkpt lat="42.1234233" lon="13.6939267"><ele>776.9999999999999</ele><time>2026-05-02T11:39:32.285Z</time></trkpt><trkpt lat="42.1233533" lon="13.69395"><ele>775.0</ele><time>2026-05-02T11:39:33.286Z</time></trkpt><trkpt lat="42.1232933" lon="13.69398"><ele>778.6666666666666</ele><time>2026-05-02T11:39:34.285Z</time></trkpt><trkpt lat="42.1231867" lon="13.69405"><ele>782.3333333333333</ele><time>2026-05-02T11:39:36.286Z</time></trkpt><trkpt lat="42.1231367" lon="13.6941033"><ele>786.0</ele><time>2026-05-02T11:39:37.285Z</time></trkpt><trkpt lat="42.123085" lon="13.69417"><ele>789.6666666666667</ele><time>2026-05-02T11:39:38.285Z</time></trkpt><trkpt lat="42.1230367" lon="13.69424"><ele>793.3333333333334</ele><time>2026-05-02T11:39:39.285Z</time></trkpt><trkpt lat="42.1229933" lon="13.6943083"><ele>797.0</ele><time>2026-05-02T11:39:40.285Z</time></trkpt><trkpt lat="42.12294" lon="13.6943633"><ele>797.0</ele><time>2026-05-02T11:39:41.285Z</time></trkpt><trkpt lat="42.1228817" lon="13.6944117"><ele>797.0</ele><time>2026-05-02T11:39:42.285Z</time></trkpt><trkpt lat="42.1228233" lon="13.6944667"><ele>797.0</ele><time>2026-05-02T11:39:43.285Z</time></trkpt><trkpt lat="42.1227533" lon="13.6945183"><ele>797.0</ele><time>2026-05-02T11:39:44.285Z</time></trkpt><trkpt lat="42.12269" lon="13.6945617"><ele>797.0</ele><time>2026-05-02T11:39:45.286Z</time></trkpt><trkpt lat="42.1226217" lon="13.694585"><ele>797.0</ele><time>2026-05-02T11:39:46.285Z</time></trkpt><trkpt lat="42.12255" lon="13.6946067"><ele>797.0</ele><time>2026-05-02T11:39:47.285Z</time></trkpt><trkpt lat="42.122475" lon="13.69463"><ele>796.8333333333334</ele><time>2026-05-02T11:39:48.286Z</time></trkpt><trkpt lat="42.1224033" lon="13.6946417"><ele>796.6666666666667</ele><time>2026-05-02T11:39:49.285Z</time></trkpt><trkpt lat="42.1223333" lon="13.69465"><ele>796.5</ele><time>2026-05-02T11:39:50.285Z</time></trkpt><trkpt lat="42.1222683" lon="13.69465"><ele>796.3333333333333</ele><time>2026-05-02T11:39:51.285Z</time></trkpt><trkpt lat="42.1221483" lon="13.69463"><ele>796.1666666666666</ele><time>2026-05-02T11:39:53.285Z</time></trkpt><trkpt lat="42.1220467" lon="13.6946"><ele>796.0</ele><time>2026-05-02T11:39:55.285Z</time></trkpt><trkpt lat="42.122005" lon="13.6945167"><ele>796.0</ele><time>2026-05-02T11:39:59.285Z</time></trkpt><trkpt lat="42.122075" lon="13.6944233"><ele>796.0</ele><time>2026-05-02T11:40:01.285Z</time></trkpt><trkpt lat="42.1221267" lon="13.6943517"><ele>796.0</ele><time>2026-05-02T11:40:02.285Z</time></trkpt><trkpt lat="42.1221767" lon="13.694255"><ele>796.0</ele><time>2026-05-02T11:40:03.285Z</time></trkpt><trkpt lat="42.1222267" lon="13.6941317"><ele>796.0</ele><time>2026-05-02T11:40:04.285Z</time></trkpt><trkpt lat="42.1222767" lon="13.69399"><ele>798.1999999999999</ele><time>2026-05-02T11:40:05.285Z</time></trkpt><trkpt lat="42.122325" lon="13.69385"><ele>800.4</ele><time>2026-05-02T11:40:06.285Z</time></trkpt><trkpt lat="42.12238" lon="13.693705"><ele>802.6</ele><time>2026-05-02T11:40:07.285Z</time></trkpt><trkpt lat="42.1224233" lon="13.693575"><ele>804.8</ele><time>2026-05-02T11:40:08.285Z</time></trkpt><trkpt lat="42.1224667" lon="13.6934583"><ele>807.0</ele><time>2026-05-02T11:40:09.285Z</time></trkpt><trkpt lat="42.12251" lon="13.6933433"><ele>807.0</ele><time>2026-05-02T11:40:10.285Z</time></trkpt><trkpt lat="42.122555" lon="13.6932217"><ele>807.0</ele><time>2026-05-02T11:40:11.285Z</time></trkpt><trkpt lat="42.1225917" lon="13.6931"><ele>807.0</ele><time>2026-05-02T11:40:12.285Z</time></trkpt><trkpt lat="42.12261" lon="13.6929983"><ele>807.0</ele><time>2026-05-02T11:40:13.285Z</time></trkpt><trkpt lat="42.122625" lon="13.6929033"><ele>807.0</ele><time>2026-05-02T11:40:14.285Z</time></trkpt><trkpt lat="42.1226083" lon="13.6928033"><ele>807.0</ele><time>2026-05-02T11:40:16.285Z</time></trkpt><trkpt lat="42.12249" lon="13.69279"><ele>807.0</ele><time>2026-05-02T11:40:18.285Z</time></trkpt><trkpt lat="42.122425" lon="13.6928"><ele>807.0</ele><time>2026-05-02T11:40:19.285Z</time></trkpt><trkpt lat="42.12235" lon="13.69282"><ele>807.0</ele><time>2026-05-02T11:40:20.285Z</time></trkpt><trkpt lat="42.1222717" lon="13.692855"><ele>807.0</ele><time>2026-05-02T11:40:21.285Z</time></trkpt><trkpt lat="42.1221833" lon="13.6929033"><ele>807.0</ele><time>2026-05-02T11:40:22.285Z</time></trkpt><trkpt lat="42.1220783" lon="13.6929667"><ele>807.0</ele><time>2026-05-02T11:40:23.285Z</time></trkpt><trkpt lat="42.1219583" lon="13.693065"><ele>813.6666666666667</ele><time>2026-05-02T11:40:24.285Z</time></trkpt><trkpt lat="42.1218283" lon="13.69316"><ele>820.3333333333334</ele><time>2026-05-02T11:40:25.285Z</time></trkpt><trkpt lat="42.12168" lon="13.6932633"><ele>827.0</ele><time>2026-05-02T11:40:26.285Z</time></trkpt><trkpt lat="42.12154" lon="13.6933417"><ele>832.25</ele><time>2026-05-02T11:40:27.285Z</time></trkpt><trkpt lat="42.1214117" lon="13.6934117"><ele>837.5</ele><time>2026-05-02T11:40:28.285Z</time></trkpt><trkpt lat="42.1212833" lon="13.6934733"><ele>842.75</ele><time>2026-05-02T11:40:29.285Z</time></trkpt><trkpt lat="42.1211383" lon="13.6935283"><ele>848.0</ele><time>2026-05-02T11:40:30.286Z</time></trkpt><trkpt lat="42.1209867" lon="13.6935833"><ele>845.0</ele><time>2026-05-02T11:40:31.285Z</time></trkpt><trkpt lat="42.1208267" lon="13.6936417"><ele>842.0</ele><time>2026-05-02T11:40:32.285Z</time></trkpt><trkpt lat="42.120655" lon="13.6937083"><ele>839.0</ele><time>2026-05-02T11:40:33.285Z</time></trkpt><trkpt lat="42.1204667" lon="13.6937783"><ele>839.0</ele><time>2026-05-02T11:40:34.285Z</time></trkpt><trkpt lat="42.1202717" lon="13.6938583"><ele>839.0</ele><time>2026-05-02T11:40:35.285Z</time></trkpt><trkpt lat="42.1201033" lon="13.6939383"><ele>839.0</ele><time>2026-05-02T11:40:36.285Z</time></trkpt><trkpt lat="42.1199533" lon="13.6940183"><ele>845.25</ele><time>2026-05-02T11:40:37.285Z</time></trkpt><trkpt lat="42.119815" lon="13.6940767"><ele>851.5</ele><time>2026-05-02T11:40:38.285Z</time></trkpt><trkpt lat="42.11969" lon="13.6941383"><ele>857.75</ele><time>2026-05-02T11:40:39.285Z</time></trkpt><trkpt lat="42.11955" lon="13.694205"><ele>864.0</ele><time>2026-05-02T11:40:40.285Z</time></trkpt><trkpt lat="42.119395" lon="13.6942583"><ele>864.0</ele><time>2026-05-02T11:40:41.286Z</time></trkpt><trkpt lat="42.1192267" lon="13.6943017"><ele>864.0</ele><time>2026-05-02T11:40:42.285Z</time></trkpt><trkpt lat="42.11906" lon="13.6943383"><ele>864.0</ele><time>2026-05-02T11:40:43.285Z</time></trkpt><trkpt lat="42.1188917" lon="13.694395"><ele>861.6666666666667</ele><time>2026-05-02T11:40:44.285Z</time></trkpt><trkpt lat="42.1187183" lon="13.6944833"><ele>859.3333333333334</ele><time>2026-05-02T11:40:45.285Z</time></trkpt><trkpt lat="42.11854" lon="13.6945933"><ele>857.0</ele><time>2026-05-02T11:40:46.285Z</time></trkpt><trkpt lat="42.11836" lon="13.6946983"><ele>867.0</ele><time>2026-05-02T11:40:47.285Z</time></trkpt><trkpt lat="42.1181917" lon="13.694805"><ele>877.0</ele><time>2026-05-02T11:40:48.286Z</time></trkpt><trkpt lat="42.1180433" lon="13.6949017"><ele>887.0</ele><time>2026-05-02T11:40:49.286Z</time></trkpt><trkpt lat="42.1178983" lon="13.6950033"><ele>887.0</ele><time>2026-05-02T11:40:50.285Z</time></trkpt><trkpt lat="42.117755" lon="13.6950883"><ele>887.0</ele><time>2026-05-02T11:40:51.285Z</time></trkpt><trkpt lat="42.1176067" lon="13.6951683"><ele>887.0</ele><time>2026-05-02T11:40:52.285Z</time></trkpt><trkpt lat="42.117445" lon="13.695215"><ele>879.0</ele><time>2026-05-02T11:40:53.285Z</time></trkpt><trkpt lat="42.1172667" lon="13.695265"><ele>871.0</ele><time>2026-05-02T11:40:54.285Z</time></trkpt><trkpt lat="42.117075" lon="13.6952933"><ele>863.0</ele><time>2026-05-02T11:40:55.285Z</time></trkpt><trkpt lat="42.1168783" lon="13.695335"><ele>863.0</ele><time>2026-05-02T11:40:56.285Z</time></trkpt><trkpt lat="42.1166767" lon="13.695375"><ele>863.0</ele><time>2026-05-02T11:40:57.286Z</time></trkpt><trkpt lat="42.1164667" lon="13.695425"><ele>863.0</ele><time>2026-05-02T11:40:58.285Z</time></trkpt><trkpt lat="42.1162567" lon="13.69548"><ele>870.0</ele><time>2026-05-02T11:40:59.285Z</time></trkpt><trkpt lat="42.1160517" lon="13.6955367"><ele>877.0</ele><time>2026-05-02T11:41:00.285Z</time></trkpt><trkpt lat="42.1158633" lon="13.695595"><ele>884.0</ele><time>2026-05-02T11:41:01.285Z</time></trkpt><trkpt lat="42.1156917" lon="13.6956467"><ele>890.6666666666667</ele><time>2026-05-02T11:41:02.286Z</time></trkpt><trkpt lat="42.11552" lon="13.69569"><ele>897.3333333333333</ele><time>2026-05-02T11:41:03.285Z</time></trkpt><trkpt lat="42.115345" lon="13.6957383"><ele>904.0</ele><time>2026-05-02T11:41:04.286Z</time></trkpt><trkpt lat="42.1151683" lon="13.69577"><ele>904.0</ele><time>2026-05-02T11:41:05.285Z</time></trkpt><trkpt lat="42.1149883" lon="13.6958233"><ele>904.0</ele><time>2026-05-02T11:41:06.286Z</time></trkpt><trkpt lat="42.1148" lon="13.6958683"><ele>904.0</ele><time>2026-05-02T11:41:07.285Z</time></trkpt><trkpt lat="42.1146083" lon="13.6959083"><ele>910.0</ele><time>2026-05-02T11:41:08.285Z</time></trkpt><trkpt lat="42.1144033" lon="13.69595"><ele>916.0</ele><time>2026-05-02T11:41:09.285Z</time></trkpt><trkpt lat="42.114195" lon="13.6960083"><ele>922.0</ele><time>2026-05-02T11:41:10.285Z</time></trkpt><trkpt lat="42.1139917" lon="13.69606"><ele>913.0</ele><time>2026-05-02T11:41:11.285Z</time></trkpt><trkpt lat="42.1138033" lon="13.69612"><ele>904.0</ele><time>2026-05-02T11:41:12.285Z</time></trkpt><trkpt lat="42.1136283" lon="13.696175"><ele>895.0</ele><time>2026-05-02T11:41:13.285Z</time></trkpt><trkpt lat="42.11347" lon="13.69622"><ele>895.0</ele><time>2026-05-02T11:41:14.285Z</time></trkpt><trkpt lat="42.1133233" lon="13.6962567"><ele>895.0</ele><time>2026-05-02T11:41:15.285Z</time></trkpt><trkpt lat="42.113185" lon="13.6962983"><ele>895.0</ele><time>2026-05-02T11:41:16.285Z</time></trkpt><trkpt lat="42.1130483" lon="13.6963567"><ele>895.0</ele><time>2026-05-02T11:41:17.285Z</time></trkpt><trkpt lat="42.112905" lon="13.6964133"><ele>902.6666666666666</ele><time>2026-05-02T11:41:18.285Z</time></trkpt><trkpt lat="42.1127533" lon="13.6964817"><ele>910.3333333333333</ele><time>2026-05-02T11:41:19.285Z</time></trkpt><trkpt lat="42.1125883" lon="13.6965667"><ele>918.0</ele><time>2026-05-02T11:41:20.285Z</time></trkpt><trkpt lat="42.112415" lon="13.6966733"><ele>914.6666666666667</ele><time>2026-05-02T11:41:21.285Z</time></trkpt><trkpt lat="42.1122317" lon="13.6967883"><ele>911.3333333333334</ele><time>2026-05-02T11:41:22.285Z</time></trkpt><trkpt lat="42.1120583" lon="13.696895"><ele>908.0</ele><time>2026-05-02T11:41:23.285Z</time></trkpt><trkpt lat="42.1119" lon="13.6969867"><ele>908.0</ele><time>2026-05-02T11:41:24.286Z</time></trkpt><trkpt lat="42.1117567" lon="13.697075"><ele>908.0</ele><time>2026-05-02T11:41:25.285Z</time></trkpt><trkpt lat="42.1116117" lon="13.6971533"><ele>908.0</ele><time>2026-05-02T11:41:26.285Z</time></trkpt><trkpt lat="42.1114583" lon="13.697235"><ele>918.0</ele><time>2026-05-02T11:41:27.285Z</time></trkpt><trkpt lat="42.1113" lon="13.6973067"><ele>928.0</ele><time>2026-05-02T11:41:28.285Z</time></trkpt><trkpt lat="42.1111367" lon="13.6973783"><ele>938.0</ele><time>2026-05-02T11:41:29.285Z</time></trkpt><trkpt lat="42.1109717" lon="13.6974583"><ele>938.0</ele><time>2026-05-02T11:41:30.285Z</time></trkpt><trkpt lat="42.11081" lon="13.69755"><ele>938.0</ele><time>2026-05-02T11:41:31.286Z</time></trkpt><trkpt lat="42.1106517" lon="13.6976617"><ele>938.0</ele><time>2026-05-02T11:41:32.285Z</time></trkpt><trkpt lat="42.1104967" lon="13.6977833"><ele>936.3333333333334</ele><time>2026-05-02T11:41:33.285Z</time></trkpt><trkpt lat="42.1103367" lon="13.697905"><ele>934.6666666666667</ele><time>2026-05-02T11:41:34.285Z</time></trkpt><trkpt lat="42.1101783" lon="13.6980033"><ele>933.0</ele><time>2026-05-02T11:41:35.285Z</time></trkpt><trkpt lat="42.1100117" lon="13.69809"><ele>941.3333333333333</ele><time>2026-05-02T11:41:36.285Z</time></trkpt><trkpt lat="42.1098333" lon="13.6981717"><ele>949.6666666666666</ele><time>2026-05-02T11:41:37.285Z</time></trkpt><trkpt lat="42.109655" lon="13.698255"><ele>958.0</ele><time>2026-05-02T11:41:38.285Z</time></trkpt><trkpt lat="42.1094767" lon="13.6983367"><ele>958.0</ele><time>2026-05-02T11:41:39.285Z</time></trkpt><trkpt lat="42.109305" lon="13.69841"><ele>958.0</ele><time>2026-05-02T11:41:40.285Z</time></trkpt><trkpt lat="42.10914" lon="13.6984617"><ele>958.0</ele><time>2026-05-02T11:41:41.285Z</time></trkpt><trkpt lat="42.1089917" lon="13.6985033"><ele>957.8</ele><time>2026-05-02T11:41:42.285Z</time></trkpt><trkpt lat="42.1088633" lon="13.6985367"><ele>957.5999999999999</ele><time>2026-05-02T11:41:43.285Z</time></trkpt><trkpt lat="42.1087467" lon="13.6985733"><ele>957.4000000000001</ele><time>2026-05-02T11:41:44.285Z</time></trkpt><trkpt lat="42.1086483" lon="13.69859"><ele>957.2</ele><time>2026-05-02T11:41:45.285Z</time></trkpt><trkpt lat="42.1085583" lon="13.6985767"><ele>957.0</ele><time>2026-05-02T11:41:46.286Z</time></trkpt><trkpt lat="42.1084767" lon="13.6985467"><ele>957.0</ele><time>2026-05-02T11:41:47.285Z</time></trkpt><trkpt lat="42.1084083" lon="13.6984917"><ele>957.0</ele><time>2026-05-02T11:41:48.285Z</time></trkpt><trkpt lat="42.1083583" lon="13.698395"><ele>957.0</ele><time>2026-05-02T11:41:49.285Z</time></trkpt><trkpt lat="42.1083183" lon="13.698265"><ele>957.0</ele><time>2026-05-02T11:41:50.285Z</time></trkpt><trkpt lat="42.1082833" lon="13.6981183"><ele>957.0</ele><time>2026-05-02T11:41:51.285Z</time></trkpt><trkpt lat="42.1082417" lon="13.6979883"><ele>955.8</ele><time>2026-05-02T11:41:52.285Z</time></trkpt><trkpt lat="42.1081967" lon="13.697885"><ele>954.6</ele><time>2026-05-02T11:41:53.285Z</time></trkpt><trkpt lat="42.108155" lon="13.6978033"><ele>953.3999999999999</ele><time>2026-05-02T11:41:54.285Z</time></trkpt><trkpt lat="42.108115" lon="13.69773"><ele>952.1999999999999</ele><time>2026-05-02T11:41:55.285Z</time></trkpt><trkpt lat="42.1080483" lon="13.69759"><ele>951.0</ele><time>2026-05-02T11:41:57.285Z</time></trkpt><trkpt lat="42.1079883" lon="13.6974767"><ele>951.0</ele><time>2026-05-02T11:41:59.285Z</time></trkpt><trkpt lat="42.107935" lon="13.6973083"><ele>950.9999999999999</ele><time>2026-05-02T11:42:01.285Z</time></trkpt><trkpt lat="42.1079167" lon="13.6971883"><ele>950.9999999999999</ele><time>2026-05-02T11:42:02.286Z</time></trkpt><trkpt lat="42.1078967" lon="13.6970767"><ele>951.0</ele><time>2026-05-02T11:42:03.285Z</time></trkpt><trkpt lat="42.107885" lon="13.6969783"><ele>951.0</ele><time>2026-05-02T11:42:04.285Z</time></trkpt><trkpt lat="42.1078683" lon="13.6968833"><ele>950.6666666666666</ele><time>2026-05-02T11:42:05.285Z</time></trkpt><trkpt lat="42.10785" lon="13.6967967"><ele>950.3333333333333</ele><time>2026-05-02T11:42:06.285Z</time></trkpt><trkpt lat="42.1078367" lon="13.6967083"><ele>950.0</ele><time>2026-05-02T11:42:07.285Z</time></trkpt><trkpt lat="42.1078183" lon="13.6966217"><ele>949.6666666666666</ele><time>2026-05-02T11:42:08.285Z</time></trkpt><trkpt lat="42.1077867" lon="13.6964483"><ele>949.3333333333333</ele><time>2026-05-02T11:42:10.285Z</time></trkpt><trkpt lat="42.1077667" lon="13.6963483"><ele>949.0</ele><time>2026-05-02T11:42:11.285Z</time></trkpt><trkpt lat="42.1077467" lon="13.6962433"><ele>948.9999999999999</ele><time>2026-05-02T11:42:12.285Z</time></trkpt><trkpt lat="42.1077283" lon="13.69614"><ele>949.0</ele><time>2026-05-02T11:42:13.285Z</time></trkpt><trkpt lat="42.10771" lon="13.696035"><ele>949.0</ele><time>2026-05-02T11:42:14.285Z</time></trkpt><trkpt lat="42.1076933" lon="13.69593"><ele>949.0</ele><time>2026-05-02T11:42:15.286Z</time></trkpt><trkpt lat="42.1076733" lon="13.6958233"><ele>948.9999999999999</ele><time>2026-05-02T11:42:16.285Z</time></trkpt><trkpt lat="42.1076617" lon="13.6957083"><ele>949.0</ele><time>2026-05-02T11:42:17.285Z</time></trkpt><trkpt lat="42.107645" lon="13.695595"><ele>948.3333333333333</ele><time>2026-05-02T11:42:18.286Z</time></trkpt><trkpt lat="42.10763" lon="13.6954833"><ele>947.6666666666666</ele><time>2026-05-02T11:42:19.285Z</time></trkpt><trkpt lat="42.1076083" lon="13.6953767"><ele>947.0</ele><time>2026-05-02T11:42:20.285Z</time></trkpt><trkpt lat="42.1075917" lon="13.6952733"><ele>946.3333333333333</ele><time>2026-05-02T11:42:21.285Z</time></trkpt><trkpt lat="42.1075767" lon="13.695175"><ele>945.6666666666666</ele><time>2026-05-02T11:42:22.285Z</time></trkpt><trkpt lat="42.10756" lon="13.6950733"><ele>945.0</ele><time>2026-05-02T11:42:23.285Z</time></trkpt><trkpt lat="42.107545" lon="13.6949733"><ele>944.6666666666666</ele><time>2026-05-02T11:42:24.285Z</time></trkpt><trkpt lat="42.10753" lon="13.6948767"><ele>944.3333333333333</ele><time>2026-05-02T11:42:25.285Z</time></trkpt><trkpt lat="42.1075167" lon="13.6947883"><ele>944.0</ele><time>2026-05-02T11:42:26.285Z</time></trkpt><trkpt lat="42.1075017" lon="13.694705"><ele>943.6666666666666</ele><time>2026-05-02T11:42:27.285Z</time></trkpt><trkpt lat="42.1074833" lon="13.6946167"><ele>943.3333333333333</ele><time>2026-05-02T11:42:28.285Z</time></trkpt><trkpt lat="42.1074367" lon="13.69449"><ele>943.0</ele><time>2026-05-02T11:42:30.285Z</time></trkpt><trkpt lat="42.10736" lon="13.6944017"><ele>940.1666666666666</ele><time>2026-05-02T11:42:32.285Z</time></trkpt><trkpt lat="42.1072417" lon="13.6943633"><ele>937.3333333333333</ele><time>2026-05-02T11:42:34.285Z</time></trkpt><trkpt lat="42.1071783" lon="13.6943583"><ele>934.5</ele><time>2026-05-02T11:42:35.285Z</time></trkpt><trkpt lat="42.1071083" lon="13.6943517"><ele>931.6666666666667</ele><time>2026-05-02T11:42:36.285Z</time></trkpt><trkpt lat="42.1070333" lon="13.6943417"><ele>928.8333333333334</ele><time>2026-05-02T11:42:37.285Z</time></trkpt><trkpt lat="42.1069583" lon="13.694335"><ele>926.0</ele><time>2026-05-02T11:42:38.285Z</time></trkpt><trkpt lat="42.106875" lon="13.69433"><ele>926.0000000000001</ele><time>2026-05-02T11:42:39.285Z</time></trkpt><trkpt lat="42.106795" lon="13.6943183"><ele>926.0</ele><time>2026-05-02T11:42:40.285Z</time></trkpt><trkpt lat="42.1067167" lon="13.6942933"><ele>926.0</ele><time>2026-05-02T11:42:41.285Z</time></trkpt><trkpt lat="42.1066333" lon="13.6942683"><ele>926.0</ele><time>2026-05-02T11:42:42.285Z</time></trkpt><trkpt lat="42.1065583" lon="13.69424"><ele>926.0000000000001</ele><time>2026-05-02T11:42:43.285Z</time></trkpt><trkpt lat="42.1064817" lon="13.6942233"><ele>926.0</ele><time>2026-05-02T11:42:44.285Z</time></trkpt><trkpt lat="42.1064067" lon="13.6942017"><ele>924.0000000000001</ele><time>2026-05-02T11:42:45.285Z</time></trkpt><trkpt lat="42.1063333" lon="13.69419"><ele>922.0</ele><time>2026-05-02T11:42:46.285Z</time></trkpt><trkpt lat="42.1062583" lon="13.6941733"><ele>920.0</ele><time>2026-05-02T11:42:47.285Z</time></trkpt><trkpt lat="42.106175" lon="13.6941533"><ele>918.0</ele><time>2026-05-02T11:42:48.285Z</time></trkpt><trkpt lat="42.10609" lon="13.6941367"><ele>916.0000000000001</ele><time>2026-05-02T11:42:49.285Z</time></trkpt><trkpt lat="42.10601" lon="13.69412"><ele>914.0</ele><time>2026-05-02T11:42:50.285Z</time></trkpt><trkpt lat="42.105935" lon="13.6941"><ele>914.0000000000001</ele><time>2026-05-02T11:42:51.285Z</time></trkpt><trkpt lat="42.105855" lon="13.6940867"><ele>914.0</ele><time>2026-05-02T11:42:52.286Z</time></trkpt><trkpt lat="42.1057683" lon="13.6940717"><ele>914.0</ele><time>2026-05-02T11:42:53.285Z</time></trkpt><trkpt lat="42.105685" lon="13.6940467"><ele>914.0</ele><time>2026-05-02T11:42:54.285Z</time></trkpt><trkpt lat="42.105605" lon="13.69402"><ele>914.0000000000001</ele><time>2026-05-02T11:42:55.285Z</time></trkpt><trkpt lat="42.105525" lon="13.6939933"><ele>914.0</ele><time>2026-05-02T11:42:56.285Z</time></trkpt><trkpt lat="42.1054433" lon="13.6939667"><ele>912.4000000000001</ele><time>2026-05-02T11:42:57.286Z</time></trkpt><trkpt lat="42.1053683" lon="13.693945"><ele>910.8000000000001</ele><time>2026-05-02T11:42:58.285Z</time></trkpt><trkpt lat="42.1052983" lon="13.69392"><ele>909.1999999999999</ele><time>2026-05-02T11:42:59.285Z</time></trkpt><trkpt lat="42.10519" lon="13.69388"><ele>907.5999999999999</ele><time>2026-05-02T11:43:01.285Z</time></trkpt><trkpt lat="42.1051083" lon="13.693815"><ele>906.0</ele><time>2026-05-02T11:43:03.285Z</time></trkpt><trkpt lat="42.1050367" lon="13.6936883"><ele>906.0</ele><time>2026-05-02T11:43:05.285Z</time></trkpt><trkpt lat="42.104995" lon="13.6936067"><ele>906.0</ele><time>2026-05-02T11:43:06.285Z</time></trkpt><trkpt lat="42.1049567" lon="13.69352"><ele>906.0</ele><time>2026-05-02T11:43:07.286Z</time></trkpt><trkpt lat="42.104915" lon="13.6934433"><ele>906.0</ele><time>2026-05-02T11:43:08.285Z</time></trkpt><trkpt lat="42.104875" lon="13.6933717"><ele>906.0</ele><time>2026-05-02T11:43:09.285Z</time></trkpt><trkpt lat="42.104795" lon="13.6932867"><ele>906.0</ele><time>2026-05-02T11:43:11.285Z</time></trkpt><trkpt lat="42.1046733" lon="13.6932783"><ele>908.1666666666666</ele><time>2026-05-02T11:43:13.285Z</time></trkpt><trkpt lat="42.104595" lon="13.6932967"><ele>910.3333333333333</ele><time>2026-05-02T11:43:14.285Z</time></trkpt><trkpt lat="42.1045117" lon="13.6933017"><ele>912.5</ele><time>2026-05-02T11:43:15.285Z</time></trkpt><trkpt lat="42.1044333" lon="13.6932883"><ele>914.6666666666666</ele><time>2026-05-02T11:43:16.285Z</time></trkpt><trkpt lat="42.1043583" lon="13.69327"><ele>916.8333333333333</ele><time>2026-05-02T11:43:17.285Z</time></trkpt><trkpt lat="42.104285" lon="13.6932583"><ele>919.0</ele><time>2026-05-02T11:43:18.285Z</time></trkpt><trkpt lat="42.10422" lon="13.693265"><ele>918.9999999999999</ele><time>2026-05-02T11:43:19.285Z</time></trkpt><trkpt lat="42.1041217" lon="13.69334"><ele>919.0</ele><time>2026-05-02T11:43:21.285Z</time></trkpt><trkpt lat="42.1040583" lon="13.6934817"><ele>919.0</ele><time>2026-05-02T11:43:23.286Z</time></trkpt><trkpt lat="42.1040417" lon="13.693575"><ele>919.0</ele><time>2026-05-02T11:43:24.285Z</time></trkpt><trkpt lat="42.1040333" lon="13.6936733"><ele>918.9999999999999</ele><time>2026-05-02T11:43:25.285Z</time></trkpt><trkpt lat="42.1040183" lon="13.6937567"><ele>919.0</ele><time>2026-05-02T11:43:26.285Z</time></trkpt><trkpt lat="42.1039767" lon="13.6938883"><ele>919.6666666666666</ele><time>2026-05-02T11:43:28.285Z</time></trkpt><trkpt lat="42.1039067" lon="13.6940033"><ele>920.3333333333333</ele><time>2026-05-02T11:43:30.286Z</time></trkpt><trkpt lat="42.1038167" lon="13.6940967"><ele>921.0</ele><time>2026-05-02T11:43:32.285Z</time></trkpt><trkpt lat="42.10375" lon="13.69412"><ele>921.6666666666667</ele><time>2026-05-02T11:43:33.285Z</time></trkpt><trkpt lat="42.1036767" lon="13.6941283"><ele>922.3333333333334</ele><time>2026-05-02T11:43:34.285Z</time></trkpt><trkpt lat="42.1036033" lon="13.6941217"><ele>923.0</ele><time>2026-05-02T11:43:35.285Z</time></trkpt><trkpt lat="42.1035233" lon="13.694105"><ele>923.0000000000001</ele><time>2026-05-02T11:43:36.285Z</time></trkpt><trkpt lat="42.1034433" lon="13.6940883"><ele>923.0</ele><time>2026-05-02T11:43:37.286Z</time></trkpt><trkpt lat="42.10336" lon="13.69408"><ele>923.0</ele><time>2026-05-02T11:43:38.285Z</time></trkpt><trkpt lat="42.1032733" lon="13.6940783"><ele>923.0</ele><time>2026-05-02T11:43:39.285Z</time></trkpt><trkpt lat="42.103185" lon="13.694095"><ele>923.0000000000001</ele><time>2026-05-02T11:43:40.286Z</time></trkpt><trkpt lat="42.1030967" lon="13.6941067"><ele>923.0</ele><time>2026-05-02T11:43:41.285Z</time></trkpt><trkpt lat="42.10301" lon="13.6941233"><ele>923.6666666666667</ele><time>2026-05-02T11:43:42.286Z</time></trkpt><trkpt lat="42.1029233" lon="13.69414"><ele>924.3333333333334</ele><time>2026-05-02T11:43:43.285Z</time></trkpt><trkpt lat="42.102845" lon="13.69415"><ele>925.0</ele><time>2026-05-02T11:43:44.285Z</time></trkpt><trkpt lat="42.1027733" lon="13.6941583"><ele>925.6666666666667</ele><time>2026-05-02T11:43:45.285Z</time></trkpt><trkpt lat="42.1026967" lon="13.694155"><ele>926.3333333333334</ele><time>2026-05-02T11:43:46.285Z</time></trkpt><trkpt lat="42.102615" lon="13.69414"><ele>927.0</ele><time>2026-05-02T11:43:47.285Z</time></trkpt><trkpt lat="42.1025267" lon="13.6941233"><ele>927.0</ele><time>2026-05-02T11:43:48.285Z</time></trkpt><trkpt lat="42.102435" lon="13.6941133"><ele>927.0</ele><time>2026-05-02T11:43:49.286Z</time></trkpt><trkpt lat="42.1023533" lon="13.694105"><ele>927.0</ele><time>2026-05-02T11:43:50.286Z</time></trkpt><trkpt lat="42.102275" lon="13.6940917"><ele>927.0</ele><time>2026-05-02T11:43:51.286Z</time></trkpt><trkpt lat="42.1021933" lon="13.694085"><ele>927.0</ele><time>2026-05-02T11:43:52.285Z</time></trkpt><trkpt lat="42.1021233" lon="13.69407"><ele>927.0</ele><time>2026-05-02T11:43:53.285Z</time></trkpt><trkpt lat="42.10205" lon="13.6940483"><ele>928.0</ele><time>2026-05-02T11:43:54.285Z</time></trkpt><trkpt lat="42.101985" lon="13.6940117"><ele>929.0</ele><time>2026-05-02T11:43:55.285Z</time></trkpt><trkpt lat="42.1019233" lon="13.69396"><ele>930.0</ele><time>2026-05-02T11:43:56.285Z</time></trkpt><trkpt lat="42.10187" lon="13.6938883"><ele>931.0</ele><time>2026-05-02T11:43:57.285Z</time></trkpt><trkpt lat="42.101825" lon="13.6938067"><ele>932.0</ele><time>2026-05-02T11:43:58.285Z</time></trkpt><trkpt lat="42.1017767" lon="13.6937217"><ele>933.0</ele><time>2026-05-02T11:43:59.285Z</time></trkpt><trkpt lat="42.1016817" lon="13.6936067"><ele>934.1428571428571</ele><time>2026-05-02T11:44:01.285Z</time></trkpt><trkpt lat="42.1016167" lon="13.6935633"><ele>935.2857142857142</ele><time>2026-05-02T11:44:02.286Z</time></trkpt><trkpt lat="42.1015567" lon="13.69353"><ele>936.4285714285713</ele><time>2026-05-02T11:44:03.285Z</time></trkpt><trkpt lat="42.1014933" lon="13.6935017"><ele>937.5714285714284</ele><time>2026-05-02T11:44:04.285Z</time></trkpt><trkpt lat="42.10143" lon="13.693485"><ele>938.7142857142857</ele><time>2026-05-02T11:44:05.285Z</time></trkpt><trkpt lat="42.1013667" lon="13.6934917"><ele>939.8571428571427</ele><time>2026-05-02T11:44:06.285Z</time></trkpt><trkpt lat="42.10127" lon="13.6935667"><ele>940.9999999999999</ele><time>2026-05-02T11:44:08.285Z</time></trkpt><trkpt lat="42.101235" lon="13.6936417"><ele>942.0000000000001</ele><time>2026-05-02T11:44:09.286Z</time></trkpt><trkpt lat="42.1012" lon="13.6937283"><ele>943.0</ele><time>2026-05-02T11:44:10.285Z</time></trkpt><trkpt lat="42.1011517" lon="13.6938267"><ele>944.0</ele><time>2026-05-02T11:44:11.285Z</time></trkpt><trkpt lat="42.1011" lon="13.693915"><ele>945.0</ele><time>2026-05-02T11:44:12.286Z</time></trkpt><trkpt lat="42.10104" lon="13.693995"><ele>946.0000000000001</ele><time>2026-05-02T11:44:13.285Z</time></trkpt><trkpt lat="42.100975" lon="13.6940633"><ele>947.0</ele><time>2026-05-02T11:44:14.285Z</time></trkpt><trkpt lat="42.1009133" lon="13.694125"><ele>947.0000000000001</ele><time>2026-05-02T11:44:15.285Z</time></trkpt><trkpt lat="42.1008533" lon="13.694175"><ele>947.0</ele><time>2026-05-02T11:44:16.285Z</time></trkpt><trkpt lat="42.1007983" lon="13.6942433"><ele>947.0</ele><time>2026-05-02T11:44:17.286Z</time></trkpt><trkpt lat="42.100745" lon="13.6942983"><ele>947.0</ele><time>2026-05-02T11:44:18.285Z</time></trkpt><trkpt lat="42.1006333" lon="13.6943667"><ele>947.0000000000001</ele><time>2026-05-02T11:44:20.285Z</time></trkpt><trkpt lat="42.1005717" lon="13.6943883"><ele>947.0</ele><time>2026-05-02T11:44:21.285Z</time></trkpt><trkpt lat="42.1004683" lon="13.6943633"><ele>949.8</ele><time>2026-05-02T11:44:23.285Z</time></trkpt><trkpt lat="42.1003517" lon="13.69429"><ele>952.6</ele><time>2026-05-02T11:44:25.285Z</time></trkpt><trkpt lat="42.10029" lon="13.6942717"><ele>955.3999999999999</ele><time>2026-05-02T11:44:26.285Z</time></trkpt><trkpt lat="42.1002" lon="13.6942833"><ele>958.1999999999999</ele><time>2026-05-02T11:44:28.285Z</time></trkpt><trkpt lat="42.1001333" lon="13.694275"><ele>961.0</ele><time>2026-05-02T11:44:37.285Z</time></trkpt><trkpt lat="42.10004" lon="13.6942217"><ele>961.0</ele><time>2026-05-02T11:44:39.285Z</time></trkpt><trkpt lat="42.0999183" lon="13.694165"><ele>960.9999999999999</ele><time>2026-05-02T11:44:41.285Z</time></trkpt><trkpt lat="42.0998533" lon="13.6941317"><ele>960.9999999999999</ele><time>2026-05-02T11:44:42.285Z</time></trkpt><trkpt lat="42.0997967" lon="13.6940933"><ele>961.0</ele><time>2026-05-02T11:44:43.285Z</time></trkpt><trkpt lat="42.0997267" lon="13.6939767"><ele>961.0</ele><time>2026-05-02T11:44:45.285Z</time></trkpt><trkpt lat="42.0996833" lon="13.693815"><ele>963.8333333333333</ele><time>2026-05-02T11:44:47.285Z</time></trkpt><trkpt lat="42.0996617" lon="13.6937333"><ele>966.6666666666666</ele><time>2026-05-02T11:44:48.285Z</time></trkpt><trkpt lat="42.0996383" lon="13.69365"><ele>969.5</ele><time>2026-05-02T11:44:49.285Z</time></trkpt><trkpt lat="42.0996117" lon="13.6935683"><ele>972.3333333333333</ele><time>2026-05-02T11:44:50.285Z</time></trkpt><trkpt lat="42.0995567" lon="13.69343"><ele>975.1666666666666</ele><time>2026-05-02T11:44:52.285Z</time></trkpt><trkpt lat="42.0994733" lon="13.6933267"><ele>978.0</ele><time>2026-05-02T11:44:54.285Z</time></trkpt><trkpt lat="42.0993783" lon="13.6932467"><ele>979.8</ele><time>2026-05-02T11:44:56.285Z</time></trkpt><trkpt lat="42.0992717" lon="13.6931983"><ele>981.5999999999999</ele><time>2026-05-02T11:44:58.285Z</time></trkpt><trkpt lat="42.099155" lon="13.6932033"><ele>983.4000000000001</ele><time>2026-05-02T11:45:00.285Z</time></trkpt><trkpt lat="42.0990517" lon="13.6932517"><ele>985.2</ele><time>2026-05-02T11:45:02.286Z</time></trkpt><trkpt lat="42.098965" lon="13.6933267"><ele>987.0</ele><time>2026-05-02T11:45:04.285Z</time></trkpt><trkpt lat="42.09891" lon="13.6934517"><ele>990.4000000000001</ele><time>2026-05-02T11:45:06.286Z</time></trkpt><trkpt lat="42.0988833" lon="13.6936217"><ele>993.8000000000001</ele><time>2026-05-02T11:45:08.285Z</time></trkpt><trkpt lat="42.098885" lon="13.6937117"><ele>997.2</ele><time>2026-05-02T11:45:09.285Z</time></trkpt><trkpt lat="42.0988967" lon="13.6938167"><ele>1000.6</ele><time>2026-05-02T11:45:10.285Z</time></trkpt><trkpt lat="42.0988967" lon="13.69391"><ele>1004.0</ele><time>2026-05-02T11:45:11.285Z</time></trkpt><trkpt lat="42.098865" lon="13.694065"><ele>1004.0</ele><time>2026-05-02T11:45:13.286Z</time></trkpt><trkpt lat="42.0988017" lon="13.69416"><ele>1004.0000000000001</ele><time>2026-05-02T11:45:15.285Z</time></trkpt><trkpt lat="42.0987117" lon="13.694205"><ele>1004.0000000000001</ele><time>2026-05-02T11:45:17.285Z</time></trkpt><trkpt lat="42.0986033" lon="13.6942817"><ele>1004.0</ele><time>2026-05-02T11:45:19.285Z</time></trkpt><trkpt lat="42.0985467" lon="13.694335"><ele>1004.0</ele><time>2026-05-02T11:45:20.285Z</time></trkpt><trkpt lat="42.09849" lon="13.694395"><ele>1004.0000000000001</ele><time>2026-05-02T11:45:21.285Z</time></trkpt><trkpt lat="42.09843" lon="13.6944717"><ele>1004.0</ele><time>2026-05-02T11:45:22.286Z</time></trkpt><trkpt lat="42.098375" lon="13.694555"><ele>1004.0</ele><time>2026-05-02T11:45:23.285Z</time></trkpt><trkpt lat="42.0983217" lon="13.69464"><ele>1004.0</ele><time>2026-05-02T11:45:24.285Z</time></trkpt><trkpt lat="42.098285" lon="13.694735"><ele>1004.0000000000001</ele><time>2026-05-02T11:45:25.286Z</time></trkpt><trkpt lat="42.0982467" lon="13.6948367"><ele>1004.0</ele><time>2026-05-02T11:45:26.285Z</time></trkpt><trkpt lat="42.0982067" lon="13.6949333"><ele>1004.0000000000001</ele><time>2026-05-02T11:45:27.285Z</time></trkpt><trkpt lat="42.0981517" lon="13.69502"><ele>1004.0</ele><time>2026-05-02T11:45:28.286Z</time></trkpt><trkpt lat="42.0981" lon="13.69511"><ele>1004.0</ele><time>2026-05-02T11:45:29.285Z</time></trkpt><trkpt lat="42.0980617" lon="13.6951983"><ele>1004.0</ele><time>2026-05-02T11:45:30.285Z</time></trkpt><trkpt lat="42.09802" lon="13.6952833"><ele>1004.0000000000001</ele><time>2026-05-02T11:45:31.285Z</time></trkpt><trkpt lat="42.0979817" lon="13.6953567"><ele>1004.0</ele><time>2026-05-02T11:45:32.285Z</time></trkpt><trkpt lat="42.0979367" lon="13.69542"><ele>1002.6666666666667</ele><time>2026-05-02T11:45:33.285Z</time></trkpt><trkpt lat="42.09788" lon="13.695475"><ele>1001.3333333333334</ele><time>2026-05-02T11:45:34.285Z</time></trkpt><trkpt lat="42.09781" lon="13.695525"><ele>1000.0</ele><time>2026-05-02T11:45:35.285Z</time></trkpt><trkpt lat="42.0977283" lon="13.6955583"><ele>998.6666666666667</ele><time>2026-05-02T11:45:36.285Z</time></trkpt><trkpt lat="42.097635" lon="13.695595"><ele>997.3333333333334</ele><time>2026-05-02T11:45:37.285Z</time></trkpt><trkpt lat="42.0975383" lon="13.6956333"><ele>996.0</ele><time>2026-05-02T11:45:38.285Z</time></trkpt><trkpt lat="42.0974483" lon="13.69567"><ele>996.4</ele><time>2026-05-02T11:45:39.285Z</time></trkpt><trkpt lat="42.0973533" lon="13.695715"><ele>996.8</ele><time>2026-05-02T11:45:40.286Z</time></trkpt><trkpt lat="42.0972617" lon="13.6957667"><ele>997.1999999999999</ele><time>2026-05-02T11:45:41.286Z</time></trkpt><trkpt lat="42.0971883" lon="13.6958133"><ele>997.5999999999999</ele><time>2026-05-02T11:45:42.285Z</time></trkpt><trkpt lat="42.0971083" lon="13.69585"><ele>998.0</ele><time>2026-05-02T11:45:43.285Z</time></trkpt><trkpt lat="42.09702" lon="13.6958733"><ele>998.0000000000001</ele><time>2026-05-02T11:45:44.285Z</time></trkpt><trkpt lat="42.0969333" lon="13.6958867"><ele>998.0</ele><time>2026-05-02T11:45:45.285Z</time></trkpt><trkpt lat="42.0968483" lon="13.6958917"><ele>998.0</ele><time>2026-05-02T11:45:46.285Z</time></trkpt><trkpt lat="42.096775" lon="13.6958833"><ele>998.0</ele><time>2026-05-02T11:45:47.285Z</time></trkpt><trkpt lat="42.0967117" lon="13.69587"><ele>998.0000000000001</ele><time>2026-05-02T11:45:48.285Z</time></trkpt><trkpt lat="42.09662" lon="13.6957983"><ele>998.0</ele><time>2026-05-02T11:45:50.285Z</time></trkpt><trkpt lat="42.0965317" lon="13.6957117"><ele>997.6666666666667</ele><time>2026-05-02T11:45:52.285Z</time></trkpt><trkpt lat="42.0964417" lon="13.6956667"><ele>997.3333333333334</ele><time>2026-05-02T11:45:54.286Z</time></trkpt><trkpt lat="42.09634" lon="13.69569"><ele>997.0</ele><time>2026-05-02T11:45:56.285Z</time></trkpt><trkpt lat="42.0962767" lon="13.6957333"><ele>996.6666666666667</ele><time>2026-05-02T11:45:57.285Z</time></trkpt><trkpt lat="42.0962067" lon="13.6957767"><ele>996.3333333333334</ele><time>2026-05-02T11:45:58.285Z</time></trkpt><trkpt lat="42.0961333" lon="13.6958217"><ele>996.0</ele><time>2026-05-02T11:45:59.285Z</time></trkpt><trkpt lat="42.0960633" lon="13.695865"><ele>996.0</ele><time>2026-05-02T11:46:00.285Z</time></trkpt><trkpt lat="42.0959967" lon="13.6958917"><ele>996.0</ele><time>2026-05-02T11:46:01.285Z</time></trkpt><trkpt lat="42.0958733" lon="13.6958867"><ele>996.0</ele><time>2026-05-02T11:46:03.285Z</time></trkpt><trkpt lat="42.0958117" lon="13.6958517"><ele>996.0</ele><time>2026-05-02T11:46:04.285Z</time></trkpt><trkpt lat="42.0957417" lon="13.6958017"><ele>996.0</ele><time>2026-05-02T11:46:05.285Z</time></trkpt><trkpt lat="42.0956633" lon="13.6957583"><ele>996.0</ele><time>2026-05-02T11:46:06.285Z</time></trkpt><trkpt lat="42.0955867" lon="13.695725"><ele>997.1666666666666</ele><time>2026-05-02T11:46:07.285Z</time></trkpt><trkpt lat="42.0955133" lon="13.6957033"><ele>998.3333333333333</ele><time>2026-05-02T11:46:08.285Z</time></trkpt><trkpt lat="42.0954417" lon="13.695705"><ele>999.5</ele><time>2026-05-02T11:46:09.286Z</time></trkpt><trkpt lat="42.0953617" lon="13.695725"><ele>1000.6666666666666</ele><time>2026-05-02T11:46:10.285Z</time></trkpt><trkpt lat="42.0952833" lon="13.6957533"><ele>1001.8333333333333</ele><time>2026-05-02T11:46:11.285Z</time></trkpt><trkpt lat="42.0952017" lon="13.6958"><ele>1003.0</ele><time>2026-05-02T11:46:12.285Z</time></trkpt><trkpt lat="42.0951317" lon="13.6958417"><ele>1002.9999999999999</ele><time>2026-05-02T11:46:13.285Z</time></trkpt><trkpt lat="42.09504" lon="13.69591"><ele>1003.0</ele><time>2026-05-02T11:46:15.285Z</time></trkpt><trkpt lat="42.0949267" lon="13.6959733"><ele>1003.0</ele><time>2026-05-02T11:46:17.285Z</time></trkpt><trkpt lat="42.09486" lon="13.696"><ele>1003.0</ele><time>2026-05-02T11:46:18.285Z</time></trkpt><trkpt lat="42.0947883" lon="13.6960283"><ele>1002.9999999999999</ele><time>2026-05-02T11:46:19.285Z</time></trkpt><trkpt lat="42.0947183" lon="13.6960583"><ele>1003.0</ele><time>2026-05-02T11:46:20.285Z</time></trkpt><trkpt lat="42.0946483" lon="13.6960967"><ele>1002.1666666666666</ele><time>2026-05-02T11:46:21.285Z</time></trkpt><trkpt lat="42.0945667" lon="13.6961483"><ele>1001.3333333333333</ele><time>2026-05-02T11:46:22.286Z</time></trkpt><trkpt lat="42.0944917" lon="13.6961983"><ele>1000.5</ele><time>2026-05-02T11:46:23.285Z</time></trkpt><trkpt lat="42.0944183" lon="13.69625"><ele>999.6666666666667</ele><time>2026-05-02T11:46:24.285Z</time></trkpt><trkpt lat="42.0943367" lon="13.6962883"><ele>998.8333333333334</ele><time>2026-05-02T11:46:25.285Z</time></trkpt><trkpt lat="42.094255" lon="13.6963117"><ele>998.0</ele><time>2026-05-02T11:46:26.286Z</time></trkpt><trkpt lat="42.094165" lon="13.6963417"><ele>999.6666666666667</ele><time>2026-05-02T11:46:27.285Z</time></trkpt><trkpt lat="42.0940833" lon="13.6963733"><ele>1001.3333333333334</ele><time>2026-05-02T11:46:28.285Z</time></trkpt><trkpt lat="42.094005" lon="13.6963917"><ele>1003.0</ele><time>2026-05-02T11:46:29.285Z</time></trkpt><trkpt lat="42.0939283" lon="13.6964017"><ele>1004.6666666666667</ele><time>2026-05-02T11:46:30.285Z</time></trkpt><trkpt lat="42.09385" lon="13.6964383"><ele>1006.3333333333334</ele><time>2026-05-02T11:46:31.285Z</time></trkpt><trkpt lat="42.0937733" lon="13.6964867"><ele>1008.0</ele><time>2026-05-02T11:46:32.285Z</time></trkpt><trkpt lat="42.0937017" lon="13.6965533"><ele>1008.0</ele><time>2026-05-02T11:46:33.285Z</time></trkpt><trkpt lat="42.0936383" lon="13.69663"><ele>1008.0</ele><time>2026-05-02T11:46:34.285Z</time></trkpt><trkpt lat="42.0935867" lon="13.6967117"><ele>1008.0</ele><time>2026-05-02T11:46:35.285Z</time></trkpt><trkpt lat="42.0935317" lon="13.6967917"><ele>1008.0</ele><time>2026-05-02T11:46:36.285Z</time></trkpt><trkpt lat="42.0934767" lon="13.6968833"><ele>1008.0</ele><time>2026-05-02T11:46:37.285Z</time></trkpt><trkpt lat="42.0934217" lon="13.69698"><ele>1008.0</ele><time>2026-05-02T11:46:38.286Z</time></trkpt><trkpt lat="42.0933733" lon="13.6970767"><ele>1007.4285714285714</ele><time>2026-05-02T11:46:39.285Z</time></trkpt><trkpt lat="42.0933267" lon="13.6971633"><ele>1006.8571428571429</ele><time>2026-05-02T11:46:40.285Z</time></trkpt><trkpt lat="42.0932867" lon="13.6972383"><ele>1006.2857142857142</ele><time>2026-05-02T11:46:41.285Z</time></trkpt><trkpt lat="42.0932483" lon="13.6973167"><ele>1005.7142857142857</ele><time>2026-05-02T11:46:42.285Z</time></trkpt><trkpt lat="42.0932083" lon="13.697395"><ele>1005.1428571428571</ele><time>2026-05-02T11:46:43.285Z</time></trkpt><trkpt lat="42.09317" lon="13.6974783"><ele>1004.5714285714284</ele><time>2026-05-02T11:46:44.285Z</time></trkpt><trkpt lat="42.0931283" lon="13.6975633"><ele>1003.9999999999999</ele><time>2026-05-02T11:46:45.285Z</time></trkpt><trkpt lat="42.0930817" lon="13.6976417"><ele>1003.8571428571427</ele><time>2026-05-02T11:46:46.285Z</time></trkpt><trkpt lat="42.0930283" lon="13.6977117"><ele>1003.7142857142857</ele><time>2026-05-02T11:46:47.286Z</time></trkpt><trkpt lat="42.0929667" lon="13.6977733"><ele>1003.5714285714284</ele><time>2026-05-02T11:46:48.285Z</time></trkpt><trkpt lat="42.0929033" lon="13.697805"><ele>1003.4285714285713</ele><time>2026-05-02T11:46:49.285Z</time></trkpt><trkpt lat="42.092835" lon="13.6978017"><ele>1003.2857142857142</ele><time>2026-05-02T11:46:50.285Z</time></trkpt><trkpt lat="42.0927733" lon="13.6977767"><ele>1003.1428571428571</ele><time>2026-05-02T11:46:51.285Z</time></trkpt><trkpt lat="42.0927033" lon="13.6977383"><ele>1003.0</ele><time>2026-05-02T11:46:52.286Z</time></trkpt><trkpt lat="42.0926333" lon="13.69771"><ele>1002.9999999999999</ele><time>2026-05-02T11:46:53.285Z</time></trkpt><trkpt lat="42.0925567" lon="13.6976933"><ele>1003.0</ele><time>2026-05-02T11:46:54.285Z</time></trkpt><trkpt lat="42.0924717" lon="13.6976933"><ele>1003.0</ele><time>2026-05-02T11:46:55.285Z</time></trkpt><trkpt lat="42.0923817" lon="13.6977117"><ele>1003.0</ele><time>2026-05-02T11:46:56.285Z</time></trkpt><trkpt lat="42.09229" lon="13.697745"><ele>1002.9999999999999</ele><time>2026-05-02T11:46:57.285Z</time></trkpt><trkpt lat="42.092205" lon="13.6977783"><ele>1003.0</ele><time>2026-05-02T11:46:58.285Z</time></trkpt><trkpt lat="42.09212" lon="13.697805"><ele>1001.4</ele><time>2026-05-02T11:46:59.285Z</time></trkpt><trkpt lat="42.0920333" lon="13.697825"><ele>999.8</ele><time>2026-05-02T11:47:00.285Z</time></trkpt><trkpt lat="42.0919383" lon="13.6978233"><ele>998.2</ele><time>2026-05-02T11:47:01.285Z</time></trkpt><trkpt lat="42.0918433" lon="13.697825"><ele>996.6</ele><time>2026-05-02T11:47:02.285Z</time></trkpt><trkpt lat="42.0917517" lon="13.6978417"><ele>995.0</ele><time>2026-05-02T11:47:03.285Z</time></trkpt><trkpt lat="42.0916633" lon="13.697875"><ele>994.4</ele><time>2026-05-02T11:47:04.285Z</time></trkpt><trkpt lat="42.0915783" lon="13.6979267"><ele>993.8</ele><time>2026-05-02T11:47:05.285Z</time></trkpt><trkpt lat="42.0914933" lon="13.6979783"><ele>993.2</ele><time>2026-05-02T11:47:06.286Z</time></trkpt><trkpt lat="42.0914067" lon="13.6980417"><ele>992.6</ele><time>2026-05-02T11:47:07.286Z</time></trkpt><trkpt lat="42.0913217" lon="13.698095"><ele>992.0</ele><time>2026-05-02T11:47:08.285Z</time></trkpt><trkpt lat="42.09124" lon="13.6981533"><ele>992.0</ele><time>2026-05-02T11:47:09.285Z</time></trkpt><trkpt lat="42.0911633" lon="13.6982017"><ele>992.0000000000001</ele><time>2026-05-02T11:47:10.285Z</time></trkpt><trkpt lat="42.0910917" lon="13.6982333"><ele>992.0</ele><time>2026-05-02T11:47:11.285Z</time></trkpt><trkpt lat="42.0910217" lon="13.6982617"><ele>992.0</ele><time>2026-05-02T11:47:12.285Z</time></trkpt><trkpt lat="42.09096" lon="13.6983"><ele>992.0000000000001</ele><time>2026-05-02T11:47:13.285Z</time></trkpt><trkpt lat="42.0909033" lon="13.6983467"><ele>992.0</ele><time>2026-05-02T11:47:14.285Z</time></trkpt><trkpt lat="42.0908583" lon="13.698415"><ele>992.0</ele><time>2026-05-02T11:47:15.285Z</time></trkpt><trkpt lat="42.09083" lon="13.6984967"><ele>992.6</ele><time>2026-05-02T11:47:16.286Z</time></trkpt><trkpt lat="42.0908167" lon="13.69867"><ele>993.2</ele><time>2026-05-02T11:47:18.285Z</time></trkpt><trkpt lat="42.090815" lon="13.6987733"><ele>993.8</ele><time>2026-05-02T11:47:19.285Z</time></trkpt><trkpt lat="42.0907867" lon="13.69887"><ele>994.4</ele><time>2026-05-02T11:47:20.285Z</time></trkpt><trkpt lat="42.090745" lon="13.6989583"><ele>995.0</ele><time>2026-05-02T11:47:21.285Z</time></trkpt><trkpt lat="42.0906383" lon="13.699045"><ele>995.4</ele><time>2026-05-02T11:47:23.285Z</time></trkpt><trkpt lat="42.0905333" lon="13.699155"><ele>995.8</ele><time>2026-05-02T11:47:25.285Z</time></trkpt><trkpt lat="42.090455" lon="13.6992167"><ele>996.2</ele><time>2026-05-02T11:47:26.285Z</time></trkpt><trkpt lat="42.09037" lon="13.6992767"><ele>996.6</ele><time>2026-05-02T11:47:27.285Z</time></trkpt><trkpt lat="42.090285" lon="13.699335"><ele>997.0</ele><time>2026-05-02T11:47:28.285Z</time></trkpt><trkpt lat="42.0901967" lon="13.6994"><ele>997.4999999999999</ele><time>2026-05-02T11:47:29.285Z</time></trkpt><trkpt lat="42.0901167" lon="13.6994667"><ele>998.0</ele><time>2026-05-02T11:47:30.285Z</time></trkpt><trkpt lat="42.0900433" lon="13.6995333"><ele>998.5</ele><time>2026-05-02T11:47:31.285Z</time></trkpt><trkpt lat="42.0899617" lon="13.6995917"><ele>999.0</ele><time>2026-05-02T11:47:32.285Z</time></trkpt><trkpt lat="42.0898883" lon="13.6996317"><ele>999.4999999999999</ele><time>2026-05-02T11:47:33.285Z</time></trkpt><trkpt lat="42.0898217" lon="13.69965"><ele>1000.0</ele><time>2026-05-02T11:47:34.285Z</time></trkpt><trkpt lat="42.08972" lon="13.6995967"><ele>999.9999999999999</ele><time>2026-05-02T11:47:36.285Z</time></trkpt><trkpt lat="42.08966" lon="13.699475"><ele>1000.0</ele><time>2026-05-02T11:47:38.285Z</time></trkpt><trkpt lat="42.0896283" lon="13.6993917"><ele>1000.0</ele><time>2026-05-02T11:47:39.285Z</time></trkpt><trkpt lat="42.0895983" lon="13.6992867"><ele>1000.0</ele><time>2026-05-02T11:47:40.285Z</time></trkpt><trkpt lat="42.0895733" lon="13.6991933"><ele>999.9999999999999</ele><time>2026-05-02T11:47:41.285Z</time></trkpt><trkpt lat="42.0895517" lon="13.6991017"><ele>1000.0</ele><time>2026-05-02T11:47:42.285Z</time></trkpt><trkpt lat="42.089535" lon="13.6990183"><ele>1000.0</ele><time>2026-05-02T11:47:43.285Z</time></trkpt><trkpt lat="42.08952" lon="13.698855"><ele>1000.0</ele><time>2026-05-02T11:47:45.285Z</time></trkpt><trkpt lat="42.0895233" lon="13.6987"><ele>1000.0</ele><time>2026-05-02T11:47:47.285Z</time></trkpt><trkpt lat="42.0895417" lon="13.6985583"><ele>1000.0</ele><time>2026-05-02T11:47:49.285Z</time></trkpt><trkpt lat="42.089545" lon="13.69847"><ele>1000.0</ele><time>2026-05-02T11:47:50.285Z</time></trkpt><trkpt lat="42.0895333" lon="13.6983783"><ele>999.0</ele><time>2026-05-02T11:47:51.285Z</time></trkpt><trkpt lat="42.0894733" lon="13.6982283"><ele>998.0</ele><time>2026-05-02T11:47:53.285Z</time></trkpt><trkpt lat="42.0894317" lon="13.69814"><ele>997.0</ele><time>2026-05-02T11:47:54.285Z</time></trkpt><trkpt lat="42.0893833" lon="13.698065"><ele>996.0</ele><time>2026-05-02T11:47:55.285Z</time></trkpt><trkpt lat="42.0893283" lon="13.6980183"><ele>995.0</ele><time>2026-05-02T11:47:56.285Z</time></trkpt><trkpt lat="42.0892117" lon="13.698015"><ele>995.0000000000001</ele><time>2026-05-02T11:47:58.285Z</time></trkpt><trkpt lat="42.0891333" lon="13.6980533"><ele>995.0</ele><time>2026-05-02T11:47:59.285Z</time></trkpt><trkpt lat="42.08905" lon="13.6981183"><ele>995.0</ele><time>2026-05-02T11:48:00.285Z</time></trkpt><trkpt lat="42.0889717" lon="13.698195"><ele>995.0</ele><time>2026-05-02T11:48:01.285Z</time></trkpt><trkpt lat="42.0889" lon="13.6982733"><ele>995.0000000000001</ele><time>2026-05-02T11:48:02.285Z</time></trkpt><trkpt lat="42.0888383" lon="13.698335"><ele>995.0</ele><time>2026-05-02T11:48:03.285Z</time></trkpt><trkpt lat="42.0887667" lon="13.698385"><ele>995.0</ele><time>2026-05-02T11:48:04.285Z</time></trkpt><trkpt lat="42.0886883" lon="13.6984417"><ele>995.0</ele><time>2026-05-02T11:48:05.285Z</time></trkpt><trkpt lat="42.0886033" lon="13.698495"><ele>995.0</ele><time>2026-05-02T11:48:06.285Z</time></trkpt><trkpt lat="42.0885183" lon="13.69855"><ele>995.0</ele><time>2026-05-02T11:48:07.285Z</time></trkpt><trkpt lat="42.088435" lon="13.6985967"><ele>995.0</ele><time>2026-05-02T11:48:08.285Z</time></trkpt><trkpt lat="42.088355" lon="13.6986483"><ele>994.8</ele><time>2026-05-02T11:48:09.285Z</time></trkpt><trkpt lat="42.0882783" lon="13.6987"><ele>994.6</ele><time>2026-05-02T11:48:10.286Z</time></trkpt><trkpt lat="42.0881983" lon="13.6987683"><ele>994.4000000000001</ele><time>2026-05-02T11:48:11.285Z</time></trkpt><trkpt lat="42.0881233" lon="13.6988517"><ele>994.2</ele><time>2026-05-02T11:48:12.285Z</time></trkpt><trkpt lat="42.0880483" lon="13.6989467"><ele>994.0</ele><time>2026-05-02T11:48:13.285Z</time></trkpt><trkpt lat="42.0879883" lon="13.6990467"><ele>993.4999999999999</ele><time>2026-05-02T11:48:14.285Z</time></trkpt><trkpt lat="42.08794" lon="13.6991367"><ele>993.0</ele><time>2026-05-02T11:48:15.285Z</time></trkpt><trkpt lat="42.0879" lon="13.699225"><ele>992.5</ele><time>2026-05-02T11:48:16.285Z</time></trkpt><trkpt lat="42.0878767" lon="13.69931"><ele>992.0</ele><time>2026-05-02T11:48:17.285Z</time></trkpt><trkpt lat="42.0878683" lon="13.6994167"><ele>991.4999999999999</ele><time>2026-05-02T11:48:18.285Z</time></trkpt><trkpt lat="42.0878667" lon="13.69953"><ele>991.0</ele><time>2026-05-02T11:48:19.285Z</time></trkpt><trkpt lat="42.0878783" lon="13.6996483"><ele>989.3333333333333</ele><time>2026-05-02T11:48:20.285Z</time></trkpt><trkpt lat="42.0878767" lon="13.6997767"><ele>987.6666666666666</ele><time>2026-05-02T11:48:21.285Z</time></trkpt><trkpt lat="42.0878683" lon="13.6998983"><ele>986.0</ele><time>2026-05-02T11:48:22.285Z</time></trkpt><trkpt lat="42.087825" lon="13.6999983"><ele>984.3333333333333</ele><time>2026-05-02T11:48:23.285Z</time></trkpt><trkpt lat="42.0877683" lon="13.70007"><ele>982.6666666666666</ele><time>2026-05-02T11:48:24.285Z</time></trkpt><trkpt lat="42.087695" lon="13.70012"><ele>981.0</ele><time>2026-05-02T11:48:25.285Z</time></trkpt><trkpt lat="42.08761" lon="13.7001417"><ele>981.0</ele><time>2026-05-02T11:48:26.285Z</time></trkpt><trkpt lat="42.087525" lon="13.7001717"><ele>980.9999999999999</ele><time>2026-05-02T11:48:27.285Z</time></trkpt><trkpt lat="42.08745" lon="13.7001983"><ele>980.9999999999999</ele><time>2026-05-02T11:48:28.285Z</time></trkpt><trkpt lat="42.0873683" lon="13.7002417"><ele>981.0</ele><time>2026-05-02T11:48:29.285Z</time></trkpt><trkpt lat="42.0872867" lon="13.7003"><ele>981.0</ele><time>2026-05-02T11:48:30.285Z</time></trkpt><trkpt lat="42.087195" lon="13.7003767"><ele>980.5</ele><time>2026-05-02T11:48:31.285Z</time></trkpt><trkpt lat="42.0871117" lon="13.7004467"><ele>980.0</ele><time>2026-05-02T11:48:32.285Z</time></trkpt><trkpt lat="42.0870367" lon="13.7005017"><ele>979.5</ele><time>2026-05-02T11:48:33.286Z</time></trkpt><trkpt lat="42.0869683" lon="13.70056"><ele>979.0</ele><time>2026-05-02T11:48:34.285Z</time></trkpt><trkpt lat="42.0869017" lon="13.7006083"><ele>978.5</ele><time>2026-05-02T11:48:35.285Z</time></trkpt><trkpt lat="42.0868333" lon="13.700655"><ele>978.0</ele><time>2026-05-02T11:48:36.285Z</time></trkpt><trkpt lat="42.086765" lon="13.7007117"><ele>978.0</ele><time>2026-05-02T11:48:37.285Z</time></trkpt><trkpt lat="42.0867" lon="13.7007683"><ele>978.0</ele><time>2026-05-02T11:48:38.285Z</time></trkpt><trkpt lat="42.0866367" lon="13.700835"><ele>978.0</ele><time>2026-05-02T11:48:39.285Z</time></trkpt><trkpt lat="42.0865833" lon="13.700895"><ele>978.0</ele><time>2026-05-02T11:48:40.285Z</time></trkpt><trkpt lat="42.08652" lon="13.701005"><ele>978.0</ele><time>2026-05-02T11:48:42.285Z</time></trkpt><trkpt lat="42.0864333" lon="13.7011233"><ele>977.2</ele><time>2026-05-02T11:48:44.285Z</time></trkpt><trkpt lat="42.086395" lon="13.7012117"><ele>976.4</ele><time>2026-05-02T11:48:45.285Z</time></trkpt><trkpt lat="42.0863596" lon="13.701318"><ele>975.6000000000001</ele><time>2026-05-02T11:48:46.285Z</time></trkpt><trkpt lat="42.0863202" lon="13.7014471"><ele>974.8000000000001</ele><time>2026-05-02T11:48:47.285Z</time></trkpt><trkpt lat="42.0862652" lon="13.7015719"><ele>974.0</ele><time>2026-05-02T11:48:48.285Z</time></trkpt><trkpt lat="42.0862126" lon="13.7016791"><ele>974.0000000000001</ele><time>2026-05-02T11:48:49.285Z</time></trkpt><trkpt lat="42.0861625" lon="13.7017659"><ele>974.0</ele><time>2026-05-02T11:48:50.285Z</time></trkpt><trkpt lat="42.086119" lon="13.7018483"><ele>974.0</ele><time>2026-05-02T11:48:51.286Z</time></trkpt><trkpt lat="42.0860753" lon="13.7019503"><ele>974.0</ele><time>2026-05-02T11:48:52.285Z</time></trkpt><trkpt lat="42.0860273" lon="13.7020596"><ele>974.0000000000001</ele><time>2026-05-02T11:48:53.285Z</time></trkpt><trkpt lat="42.085975" lon="13.7021742"><ele>974.0</ele><time>2026-05-02T11:48:54.285Z</time></trkpt><trkpt lat="42.0859252" lon="13.7022874"><ele>973.4000000000001</ele><time>2026-05-02T11:48:55.285Z</time></trkpt><trkpt lat="42.0858782" lon="13.7023985"><ele>972.8000000000001</ele><time>2026-05-02T11:48:56.285Z</time></trkpt><trkpt lat="42.0858383" lon="13.702508"><ele>972.1999999999999</ele><time>2026-05-02T11:48:57.285Z</time></trkpt><trkpt lat="42.0857983" lon="13.7026191"><ele>971.5999999999999</ele><time>2026-05-02T11:48:58.285Z</time></trkpt><trkpt lat="42.0857569" lon="13.7027266"><ele>971.0</ele><time>2026-05-02T11:48:59.285Z</time></trkpt><trkpt lat="42.0857135" lon="13.7028247"><ele>969.8</ele><time>2026-05-02T11:49:00.285Z</time></trkpt><trkpt lat="42.0856589" lon="13.7029268"><ele>968.5999999999999</ele><time>2026-05-02T11:49:01.285Z</time></trkpt><trkpt lat="42.0855979" lon="13.7030228"><ele>967.4</ele><time>2026-05-02T11:49:02.285Z</time></trkpt><trkpt lat="42.0855329" lon="13.7031243"><ele>966.2</ele><time>2026-05-02T11:49:03.286Z</time></trkpt><trkpt lat="42.0854671" lon="13.7032226"><ele>965.0</ele><time>2026-05-02T11:49:04.286Z</time></trkpt><trkpt lat="42.0853933" lon="13.7033158"><ele>965.0</ele><time>2026-05-02T11:49:05.285Z</time></trkpt><trkpt lat="42.0853195" lon="13.7034058"><ele>965.0</ele><time>2026-05-02T11:49:06.285Z</time></trkpt><trkpt lat="42.0852424" lon="13.7034866"><ele>965.0</ele><time>2026-05-02T11:49:07.285Z</time></trkpt><trkpt lat="42.0851631" lon="13.7035626"><ele>965.0</ele><time>2026-05-02T11:49:08.285Z</time></trkpt><trkpt lat="42.0850863" lon="13.7036289"><ele>965.0</ele><time>2026-05-02T11:49:09.285Z</time></trkpt><trkpt lat="42.085011" lon="13.7036892"><ele>965.2</ele><time>2026-05-02T11:49:10.285Z</time></trkpt><trkpt lat="42.0849357" lon="13.7037547"><ele>965.4</ele><time>2026-05-02T11:49:11.285Z</time></trkpt><trkpt lat="42.0848589" lon="13.7038203"><ele>965.5999999999999</ele><time>2026-05-02T11:49:12.285Z</time></trkpt><trkpt lat="42.0847751" lon="13.7038874"><ele>965.8</ele><time>2026-05-02T11:49:13.285Z</time></trkpt><trkpt lat="42.0846883" lon="13.7039591"><ele>966.0</ele><time>2026-05-02T11:49:14.285Z</time></trkpt><trkpt lat="42.0846053" lon="13.7040379"><ele>966.0</ele><time>2026-05-02T11:49:15.285Z</time></trkpt><trkpt lat="42.0845272" lon="13.7041273"><ele>965.9999999999999</ele><time>2026-05-02T11:49:16.285Z</time></trkpt><trkpt lat="42.0844569" lon="13.7042088"><ele>965.9999999999999</ele><time>2026-05-02T11:49:17.285Z</time></trkpt><trkpt lat="42.0843965" lon="13.7042775"><ele>966.0</ele><time>2026-05-02T11:49:18.285Z</time></trkpt><trkpt lat="42.08433" lon="13.70435"><ele>966.0</ele><time>2026-05-02T11:49:19.286Z</time></trkpt><trkpt lat="42.08426" lon="13.7044267"><ele>966.3333333333334</ele><time>2026-05-02T11:49:20.285Z</time></trkpt><trkpt lat="42.0841933" lon="13.7044983"><ele>966.6666666666667</ele><time>2026-05-02T11:49:21.286Z</time></trkpt><trkpt lat="42.0841217" lon="13.7045717"><ele>967.0</ele><time>2026-05-02T11:49:22.286Z</time></trkpt><trkpt lat="42.08406" lon="13.704655"><ele>967.3333333333334</ele><time>2026-05-02T11:49:23.285Z</time></trkpt><trkpt lat="42.083995" lon="13.7047417"><ele>967.6666666666667</ele><time>2026-05-02T11:49:24.285Z</time></trkpt><trkpt lat="42.0839317" lon="13.7048233"><ele>968.0</ele><time>2026-05-02T11:49:25.285Z</time></trkpt><trkpt lat="42.0838617" lon="13.7048967"><ele>968.0000000000001</ele><time>2026-05-02T11:49:26.285Z</time></trkpt><trkpt lat="42.0837867" lon="13.7049767"><ele>968.0</ele><time>2026-05-02T11:49:27.285Z</time></trkpt><trkpt lat="42.0837117" lon="13.7050467"><ele>968.0</ele><time>2026-05-02T11:49:28.285Z</time></trkpt><trkpt lat="42.0836433" lon="13.7050967"><ele>968.0</ele><time>2026-05-02T11:49:29.285Z</time></trkpt><trkpt lat="42.08358" lon="13.7051533"><ele>968.0000000000001</ele><time>2026-05-02T11:49:30.285Z</time></trkpt><trkpt lat="42.0835183" lon="13.705195"><ele>968.0</ele><time>2026-05-02T11:49:31.286Z</time></trkpt><trkpt lat="42.08346" lon="13.7052467"><ele>967.0</ele><time>2026-05-02T11:49:32.285Z</time></trkpt><trkpt lat="42.08336" lon="13.705345"><ele>966.0</ele><time>2026-05-02T11:49:34.285Z</time></trkpt><trkpt lat="42.0832833" lon="13.7054433"><ele>965.0</ele><time>2026-05-02T11:49:36.285Z</time></trkpt><trkpt lat="42.08322" lon="13.7055433"><ele>964.0</ele><time>2026-05-02T11:49:38.285Z</time></trkpt><trkpt lat="42.083145" lon="13.70568"><ele>964.7142857142858</ele><time>2026-05-02T11:49:40.285Z</time></trkpt><trkpt lat="42.08311" lon="13.7057567"><ele>965.4285714285716</ele><time>2026-05-02T11:49:41.285Z</time></trkpt><trkpt lat="42.0830717" lon="13.705835"><ele>966.1428571428571</ele><time>2026-05-02T11:49:42.285Z</time></trkpt><trkpt lat="42.0830267" lon="13.7059133"><ele>966.8571428571429</ele><time>2026-05-02T11:49:43.285Z</time></trkpt><trkpt lat="42.082985" lon="13.70598"><ele>967.5714285714286</ele><time>2026-05-02T11:49:44.285Z</time></trkpt><trkpt lat="42.0829367" lon="13.7060433"><ele>968.2857142857142</ele><time>2026-05-02T11:49:45.285Z</time></trkpt><trkpt lat="42.08289" lon="13.7061083"><ele>968.9999999999999</ele><time>2026-05-02T11:49:46.285Z</time></trkpt><trkpt lat="42.0828467" lon="13.7061767"><ele>969.0</ele><time>2026-05-02T11:49:47.285Z</time></trkpt><trkpt lat="42.0828033" lon="13.7062417"><ele>969.0</ele><time>2026-05-02T11:49:48.285Z</time></trkpt><trkpt lat="42.0827483" lon="13.7063117"><ele>969.0</ele><time>2026-05-02T11:49:49.285Z</time></trkpt><trkpt lat="42.0826883" lon="13.7063983"><ele>969.0</ele><time>2026-05-02T11:49:50.285Z</time></trkpt><trkpt lat="42.0826233" lon="13.7065"><ele>969.0</ele><time>2026-05-02T11:49:51.285Z</time></trkpt><trkpt lat="42.08255" lon="13.7066183"><ele>969.0</ele><time>2026-05-02T11:49:52.285Z</time></trkpt><trkpt lat="42.0824633" lon="13.706765"><ele>974.6666666666667</ele><time>2026-05-02T11:49:53.285Z</time></trkpt><trkpt lat="42.08236" lon="13.7069367"><ele>980.3333333333334</ele><time>2026-05-02T11:49:54.285Z</time></trkpt><trkpt lat="42.082255" lon="13.707115"><ele>986.0</ele><time>2026-05-02T11:49:55.285Z</time></trkpt><trkpt lat="42.08214" lon="13.7073133"><ele>986.0</ele><time>2026-05-02T11:49:56.285Z</time></trkpt><trkpt lat="42.0820083" lon="13.7075333"><ele>986.0</ele><time>2026-05-02T11:49:57.285Z</time></trkpt><trkpt lat="42.0818683" lon="13.70776"><ele>986.0</ele><time>2026-05-02T11:49:58.285Z</time></trkpt><trkpt lat="42.081735" lon="13.707945"><ele>987.3333333333334</ele><time>2026-05-02T11:49:59.285Z</time></trkpt><trkpt lat="42.0816117" lon="13.7080933"><ele>988.6666666666667</ele><time>2026-05-02T11:50:00.285Z</time></trkpt><trkpt lat="42.0814933" lon="13.7082217"><ele>990.0</ele><time>2026-05-02T11:50:01.285Z</time></trkpt><trkpt lat="42.08136" lon="13.70834"><ele>990.0</ele><time>2026-05-02T11:50:02.285Z</time></trkpt><trkpt lat="42.0812117" lon="13.7084417"><ele>990.0</ele><time>2026-05-02T11:50:03.285Z</time></trkpt><trkpt lat="42.0810517" lon="13.7085483"><ele>990.0</ele><time>2026-05-02T11:50:04.285Z</time></trkpt><trkpt lat="42.0808817" lon="13.708655"><ele>985.6666666666667</ele><time>2026-05-02T11:50:05.285Z</time></trkpt><trkpt lat="42.080695" lon="13.7087767"><ele>981.3333333333334</ele><time>2026-05-02T11:50:06.285Z</time></trkpt><trkpt lat="42.0805033" lon="13.7089"><ele>977.0</ele><time>2026-05-02T11:50:07.285Z</time></trkpt><trkpt lat="42.080305" lon="13.709015"><ele>977.0</ele><time>2026-05-02T11:50:08.285Z</time></trkpt><trkpt lat="42.080135" lon="13.70913"><ele>977.0</ele><time>2026-05-02T11:50:09.285Z</time></trkpt><trkpt lat="42.07998" lon="13.7092317"><ele>977.0</ele><time>2026-05-02T11:50:10.286Z</time></trkpt><trkpt lat="42.079835" lon="13.70932"><ele>978.75</ele><time>2026-05-02T11:50:11.285Z</time></trkpt><trkpt lat="42.0796967" lon="13.709395"><ele>980.5</ele><time>2026-05-02T11:50:12.286Z</time></trkpt><trkpt lat="42.07957" lon="13.7094633"><ele>982.25</ele><time>2026-05-02T11:50:13.285Z</time></trkpt><trkpt lat="42.0794517" lon="13.7095033"><ele>984.0</ele><time>2026-05-02T11:50:14.285Z</time></trkpt><trkpt lat="42.0793283" lon="13.7095067"><ele>978.5</ele><time>2026-05-02T11:50:15.285Z</time></trkpt><trkpt lat="42.0791983" lon="13.709465"><ele>973.0</ele><time>2026-05-02T11:50:16.285Z</time></trkpt><trkpt lat="42.0790883" lon="13.7093983"><ele>967.5</ele><time>2026-05-02T11:50:17.285Z</time></trkpt><trkpt lat="42.0789967" lon="13.70929"><ele>962.0</ele><time>2026-05-02T11:50:18.285Z</time></trkpt><trkpt lat="42.0789233" lon="13.7091483"><ele>961.0</ele><time>2026-05-02T11:50:19.285Z</time></trkpt><trkpt lat="42.07886" lon="13.7089833"><ele>960.0</ele><time>2026-05-02T11:50:20.286Z</time></trkpt><trkpt lat="42.0787867" lon="13.708805"><ele>959.0</ele><time>2026-05-02T11:50:21.285Z</time></trkpt><trkpt lat="42.0787117" lon="13.7086167"><ele>958.0</ele><time>2026-05-02T11:50:22.285Z</time></trkpt><trkpt lat="42.078655" lon="13.7084167"><ele>962.25</ele><time>2026-05-02T11:50:23.285Z</time></trkpt><trkpt lat="42.0786133" lon="13.70822"><ele>966.5</ele><time>2026-05-02T11:50:24.285Z</time></trkpt><trkpt lat="42.07858" lon="13.708035"><ele>970.75</ele><time>2026-05-02T11:50:25.285Z</time></trkpt><trkpt lat="42.0785533" lon="13.7078717"><ele>975.0</ele><time>2026-05-02T11:50:26.285Z</time></trkpt><trkpt lat="42.0785267" lon="13.70772"><ele>977.8</ele><time>2026-05-02T11:50:27.286Z</time></trkpt><trkpt lat="42.0785067" lon="13.7075783"><ele>980.6</ele><time>2026-05-02T11:50:28.285Z</time></trkpt><trkpt lat="42.0784867" lon="13.70744"><ele>983.4000000000001</ele><time>2026-05-02T11:50:29.285Z</time></trkpt><trkpt lat="42.078465" lon="13.7073017"><ele>986.2</ele><time>2026-05-02T11:50:30.285Z</time></trkpt><trkpt lat="42.0784417" lon="13.7071833"><ele>989.0</ele><time>2026-05-02T11:50:31.285Z</time></trkpt><trkpt lat="42.07842" lon="13.7070767"><ele>989.0000000000001</ele><time>2026-05-02T11:50:32.285Z</time></trkpt><trkpt lat="42.0784017" lon="13.7069817"><ele>989.0</ele><time>2026-05-02T11:50:33.285Z</time></trkpt><trkpt lat="42.07837" lon="13.7068933"><ele>989.0</ele><time>2026-05-02T11:50:34.285Z</time></trkpt><trkpt lat="42.0783217" lon="13.7068233"><ele>989.0</ele><time>2026-05-02T11:50:35.285Z</time></trkpt><trkpt lat="42.0782583" lon="13.70677"><ele>989.0000000000001</ele><time>2026-05-02T11:50:36.285Z</time></trkpt><trkpt lat="42.078175" lon="13.706755"><ele>989.0</ele><time>2026-05-02T11:50:37.285Z</time></trkpt><trkpt lat="42.07809" lon="13.706785"><ele>992.0</ele><time>2026-05-02T11:50:38.285Z</time></trkpt><trkpt lat="42.0780033" lon="13.7068767"><ele>995.0</ele><time>2026-05-02T11:50:39.285Z</time></trkpt><trkpt lat="42.07791" lon="13.7070183"><ele>998.0</ele><time>2026-05-02T11:50:40.285Z</time></trkpt><trkpt lat="42.0778133" lon="13.7071967"><ele>1001.0</ele><time>2026-05-02T11:50:41.286Z</time></trkpt><trkpt lat="42.07771" lon="13.70737"><ele>1001.0</ele><time>2026-05-02T11:50:42.285Z</time></trkpt><trkpt lat="42.0776117" lon="13.70754"><ele>1001.0</ele><time>2026-05-02T11:50:43.285Z</time></trkpt><trkpt lat="42.0775267" lon="13.7076867"><ele>1001.0</ele><time>2026-05-02T11:50:44.285Z</time></trkpt><trkpt lat="42.0774467" lon="13.7078133"><ele>1001.0</ele><time>2026-05-02T11:50:45.285Z</time></trkpt><trkpt lat="42.077365" lon="13.7079117"><ele>995.75</ele><time>2026-05-02T11:50:46.285Z</time></trkpt><trkpt lat="42.0772733" lon="13.7079783"><ele>990.5</ele><time>2026-05-02T11:50:47.285Z</time></trkpt><trkpt lat="42.0771717" lon="13.708"><ele>985.25</ele><time>2026-05-02T11:50:48.285Z</time></trkpt><trkpt lat="42.07705" lon="13.7079833"><ele>980.0</ele><time>2026-05-02T11:50:49.285Z</time></trkpt><trkpt lat="42.0769217" lon="13.7079483"><ele>980.0</ele><time>2026-05-02T11:50:50.285Z</time></trkpt><trkpt lat="42.0767783" lon="13.707905"><ele>980.0</ele><time>2026-05-02T11:50:51.285Z</time></trkpt><trkpt lat="42.0766233" lon="13.70786"><ele>980.0</ele><time>2026-05-02T11:50:52.285Z</time></trkpt><trkpt lat="42.0764583" lon="13.7078083"><ele>977.6666666666667</ele><time>2026-05-02T11:50:53.285Z</time></trkpt><trkpt lat="42.0762833" lon="13.7077483"><ele>975.3333333333333</ele><time>2026-05-02T11:50:54.285Z</time></trkpt><trkpt lat="42.0760967" lon="13.7076833"><ele>973.0</ele><time>2026-05-02T11:50:55.285Z</time></trkpt><trkpt lat="42.0759133" lon="13.7076267"><ele>980.6666666666666</ele><time>2026-05-02T11:50:56.285Z</time></trkpt><trkpt lat="42.075745" lon="13.7075667"><ele>988.3333333333333</ele><time>2026-05-02T11:50:57.286Z</time></trkpt><trkpt lat="42.0755817" lon="13.70749"><ele>996.0</ele><time>2026-05-02T11:50:58.285Z</time></trkpt><trkpt lat="42.0754283" lon="13.7073833"><ele>996.0</ele><time>2026-05-02T11:50:59.285Z</time></trkpt><trkpt lat="42.0752717" lon="13.7072533"><ele>996.0</ele><time>2026-05-02T11:51:00.285Z</time></trkpt><trkpt lat="42.07511" lon="13.7071083"><ele>996.0</ele><time>2026-05-02T11:51:01.285Z</time></trkpt><trkpt lat="42.0749517" lon="13.7069567"><ele>998.3333333333333</ele><time>2026-05-02T11:51:02.285Z</time></trkpt><trkpt lat="42.0747967" lon="13.7067983"><ele>1000.6666666666666</ele><time>2026-05-02T11:51:03.285Z</time></trkpt><trkpt lat="42.0746483" lon="13.7066233"><ele>1003.0</ele><time>2026-05-02T11:51:04.285Z</time></trkpt><trkpt lat="42.0745" lon="13.70643"><ele>1003.0</ele><time>2026-05-02T11:51:05.285Z</time></trkpt><trkpt lat="42.07436" lon="13.7062283"><ele>1003.0</ele><time>2026-05-02T11:51:06.285Z</time></trkpt><trkpt lat="42.0742167" lon="13.7060233"><ele>1003.0</ele><time>2026-05-02T11:51:07.285Z</time></trkpt><trkpt lat="42.0740733" lon="13.705825"><ele>1006.6666666666666</ele><time>2026-05-02T11:51:08.285Z</time></trkpt><trkpt lat="42.0739333" lon="13.7056417"><ele>1010.3333333333333</ele><time>2026-05-02T11:51:09.285Z</time></trkpt><trkpt lat="42.0738067" lon="13.7054717"><ele>1014.0</ele><time>2026-05-02T11:51:10.285Z</time></trkpt><trkpt lat="42.0737017" lon="13.7053417"><ele>1014.0</ele><time>2026-05-02T11:51:11.285Z</time></trkpt><trkpt lat="42.0735983" lon="13.705255"><ele>1014.0</ele><time>2026-05-02T11:51:12.285Z</time></trkpt><trkpt lat="42.0734883" lon="13.7051967"><ele>1014.0</ele><time>2026-05-02T11:51:13.286Z</time></trkpt><trkpt lat="42.07336" lon="13.7051867"><ele>1014.0</ele><time>2026-05-02T11:51:14.285Z</time></trkpt><trkpt lat="42.0732167" lon="13.7051967"><ele>1014.0</ele><time>2026-05-02T11:51:15.285Z</time></trkpt><trkpt lat="42.0730583" lon="13.705225"><ele>1014.0</ele><time>2026-05-02T11:51:16.285Z</time></trkpt><trkpt lat="42.0728917" lon="13.7052383"><ele>1014.0</ele><time>2026-05-02T11:51:17.285Z</time></trkpt><trkpt lat="42.0727133" lon="13.705255"><ele>1014.0</ele><time>2026-05-02T11:51:18.285Z</time></trkpt><trkpt lat="42.072525" lon="13.7052767"><ele>1014.0</ele><time>2026-05-02T11:51:19.285Z</time></trkpt><trkpt lat="42.0723433" lon="13.7052917"><ele>1014.0</ele><time>2026-05-02T11:51:20.285Z</time></trkpt><trkpt lat="42.072155" lon="13.7053167"><ele>1017.6666666666667</ele><time>2026-05-02T11:51:21.285Z</time></trkpt><trkpt lat="42.0719633" lon="13.7053517"><ele>1021.3333333333334</ele><time>2026-05-02T11:51:22.285Z</time></trkpt><trkpt lat="42.0717867" lon="13.7053983"><ele>1025.0</ele><time>2026-05-02T11:51:23.285Z</time></trkpt><trkpt lat="42.071635" lon="13.7054867"><ele>1030.3333333333335</ele><time>2026-05-02T11:51:24.285Z</time></trkpt><trkpt lat="42.071505" lon="13.705615"><ele>1035.6666666666667</ele><time>2026-05-02T11:51:25.285Z</time></trkpt><trkpt lat="42.0714033" lon="13.7057683"><ele>1041.0</ele><time>2026-05-02T11:51:26.285Z</time></trkpt><trkpt lat="42.0713183" lon="13.7059233"><ele>1041.0</ele><time>2026-05-02T11:51:27.285Z</time></trkpt><trkpt lat="42.07122" lon="13.7060717"><ele>1041.0</ele><time>2026-05-02T11:51:28.285Z</time></trkpt><trkpt lat="42.071105" lon="13.7061867"><ele>1041.0</ele><time>2026-05-02T11:51:29.285Z</time></trkpt><trkpt lat="42.070965" lon="13.7062683"><ele>1041.0</ele><time>2026-05-02T11:51:30.285Z</time></trkpt><trkpt lat="42.070815" lon="13.7063167"><ele>1037.75</ele><time>2026-05-02T11:51:31.285Z</time></trkpt><trkpt lat="42.0706617" lon="13.7063517"><ele>1034.5</ele><time>2026-05-02T11:51:32.285Z</time></trkpt><trkpt lat="42.0705217" lon="13.706365"><ele>1031.25</ele><time>2026-05-02T11:51:33.286Z</time></trkpt><trkpt lat="42.0703983" lon="13.70636"><ele>1028.0</ele><time>2026-05-02T11:51:34.285Z</time></trkpt><trkpt lat="42.0702933" lon="13.7063317"><ele>1028.0</ele><time>2026-05-02T11:51:35.285Z</time></trkpt><trkpt lat="42.07021" lon="13.7062717"><ele>1028.0</ele><time>2026-05-02T11:51:36.285Z</time></trkpt><trkpt lat="42.0701617" lon="13.7061717"><ele>1028.0</ele><time>2026-05-02T11:51:37.285Z</time></trkpt><trkpt lat="42.0701533" lon="13.7060617"><ele>1028.0</ele><time>2026-05-02T11:51:38.285Z</time></trkpt><trkpt lat="42.0701783" lon="13.705955"><ele>1028.0</ele><time>2026-05-02T11:51:39.285Z</time></trkpt><trkpt lat="42.070255" lon="13.7058833"><ele>1028.0</ele><time>2026-05-02T11:51:40.286Z</time></trkpt><trkpt lat="42.0703567" lon="13.7058533"><ele>1030.6</ele><time>2026-05-02T11:51:41.285Z</time></trkpt><trkpt lat="42.0704667" lon="13.7058583"><ele>1033.1999999999998</ele><time>2026-05-02T11:51:42.286Z</time></trkpt><trkpt lat="42.0705833" lon="13.7058733"><ele>1035.8</ele><time>2026-05-02T11:51:43.286Z</time></trkpt><trkpt lat="42.0706967" lon="13.70589"><ele>1038.3999999999999</ele><time>2026-05-02T11:51:44.285Z</time></trkpt><trkpt lat="42.0708033" lon="13.7058983"><ele>1041.0</ele><time>2026-05-02T11:51:45.285Z</time></trkpt><trkpt lat="42.0709" lon="13.7058917"><ele>1041.0</ele><time>2026-05-02T11:51:46.285Z</time></trkpt><trkpt lat="42.0709783" lon="13.7058717"><ele>1041.0</ele><time>2026-05-02T11:51:47.285Z</time></trkpt><trkpt lat="42.0710383" lon="13.7058417"><ele>1041.0</ele><time>2026-05-02T11:51:48.286Z</time></trkpt><trkpt lat="42.07109" lon="13.70579"><ele>1041.0</ele><time>2026-05-02T11:51:49.285Z</time></trkpt><trkpt lat="42.0711433" lon="13.7057183"><ele>1041.0</ele><time>2026-05-02T11:51:50.285Z</time></trkpt><trkpt lat="42.0711983" lon="13.7056317"><ele>1041.0</ele><time>2026-05-02T11:51:51.285Z</time></trkpt><trkpt lat="42.0712533" lon="13.7055367"><ele>1041.0</ele><time>2026-05-02T11:51:52.285Z</time></trkpt><trkpt lat="42.0713083" lon="13.705435"><ele>1041.0</ele><time>2026-05-02T11:51:53.285Z</time></trkpt><trkpt lat="42.0713683" lon="13.7053267"><ele>1041.0</ele><time>2026-05-02T11:51:54.285Z</time></trkpt><trkpt lat="42.07144" lon="13.70522"><ele>1041.0</ele><time>2026-05-02T11:51:55.285Z</time></trkpt><trkpt lat="42.0715267" lon="13.70513"><ele>1041.0</ele><time>2026-05-02T11:51:56.286Z</time></trkpt><trkpt lat="42.0716183" lon="13.70505"><ele>1041.8333333333333</ele><time>2026-05-02T11:51:57.285Z</time></trkpt><trkpt lat="42.0717033" lon="13.7049783"><ele>1042.6666666666667</ele><time>2026-05-02T11:51:58.285Z</time></trkpt><trkpt lat="42.071775" lon="13.7049217"><ele>1043.5</ele><time>2026-05-02T11:51:59.286Z</time></trkpt><trkpt lat="42.0718367" lon="13.7048617"><ele>1044.3333333333335</ele><time>2026-05-02T11:52:00.285Z</time></trkpt><trkpt lat="42.0718967" lon="13.704805"><ele>1045.1666666666667</ele><time>2026-05-02T11:52:01.285Z</time></trkpt><trkpt lat="42.071965" lon="13.7047433"><ele>1046.0</ele><time>2026-05-02T11:52:02.285Z</time></trkpt><trkpt lat="42.072035" lon="13.704675"><ele>1046.0</ele><time>2026-05-02T11:52:03.285Z</time></trkpt><trkpt lat="42.0721083" lon="13.7045967"><ele>1046.0</ele><time>2026-05-02T11:52:04.285Z</time></trkpt><trkpt lat="42.0721917" lon="13.7045133"><ele>1046.0</ele><time>2026-05-02T11:52:05.285Z</time></trkpt><trkpt lat="42.0722733" lon="13.704415"><ele>1046.0</ele><time>2026-05-02T11:52:06.285Z</time></trkpt><trkpt lat="42.0723467" lon="13.70431"><ele>1046.0</ele><time>2026-05-02T11:52:07.285Z</time></trkpt><trkpt lat="42.0724133" lon="13.7041967"><ele>1047.0</ele><time>2026-05-02T11:52:08.285Z</time></trkpt><trkpt lat="42.0724717" lon="13.70409"><ele>1048.0</ele><time>2026-05-02T11:52:09.285Z</time></trkpt><trkpt lat="42.07253" lon="13.703995"><ele>1049.0</ele><time>2026-05-02T11:52:10.285Z</time></trkpt><trkpt lat="42.07258" lon="13.7039083"><ele>1050.0</ele><time>2026-05-02T11:52:11.285Z</time></trkpt><trkpt lat="42.0726233" lon="13.70383"><ele>1051.0</ele><time>2026-05-02T11:52:12.285Z</time></trkpt><trkpt lat="42.072675" lon="13.7037167"><ele>1052.0</ele><time>2026-05-02T11:52:14.285Z</time></trkpt><trkpt lat="42.0727083" lon="13.703635"><ele>1054.3333333333335</ele><time>2026-05-02T11:52:17.285Z</time></trkpt><trkpt lat="42.0727117" lon="13.703535"><ele>1056.6666666666667</ele><time>2026-05-02T11:53:36.285Z</time></trkpt><trkpt lat="42.0726717" lon="13.70339"><ele>1059.0</ele><time>2026-05-02T11:53:38.285Z</time></trkpt><trkpt lat="42.0726283" lon="13.7033183"><ele>1061.3333333333333</ele><time>2026-05-02T11:53:39.285Z</time></trkpt><trkpt lat="42.072555" lon="13.7032867"><ele>1063.6666666666665</ele><time>2026-05-02T11:53:40.285Z</time></trkpt><trkpt lat="42.0724633" lon="13.7033083"><ele>1066.0</ele><time>2026-05-02T11:53:41.285Z</time></trkpt><trkpt lat="42.0723767" lon="13.7033817"><ele>1065.5</ele><time>2026-05-02T11:53:42.286Z</time></trkpt><trkpt lat="42.0723033" lon="13.7035067"><ele>1065.0</ele><time>2026-05-02T11:53:43.285Z</time></trkpt><trkpt lat="42.0722133" lon="13.703655"><ele>1064.5</ele><time>2026-05-02T11:53:44.285Z</time></trkpt><trkpt lat="42.0721067" lon="13.703795"><ele>1064.0</ele><time>2026-05-02T11:53:45.285Z</time></trkpt><trkpt lat="42.0720083" lon="13.7039283"><ele>1064.0</ele><time>2026-05-02T11:53:46.285Z</time></trkpt><trkpt lat="42.0719167" lon="13.7040467"><ele>1064.0</ele><time>2026-05-02T11:53:47.285Z</time></trkpt><trkpt lat="42.071815" lon="13.704155"><ele>1064.0</ele><time>2026-05-02T11:53:48.285Z</time></trkpt><trkpt lat="42.0717" lon="13.7042517"><ele>1064.0</ele><time>2026-05-02T11:53:49.285Z</time></trkpt><trkpt lat="42.0715733" lon="13.7043283"><ele>1066.5</ele><time>2026-05-02T11:53:50.285Z</time></trkpt><trkpt lat="42.07143" lon="13.704365"><ele>1069.0</ele><time>2026-05-02T11:53:51.285Z</time></trkpt><trkpt lat="42.0712817" lon="13.7043767"><ele>1071.5</ele><time>2026-05-02T11:53:52.285Z</time></trkpt><trkpt lat="42.0711383" lon="13.704375"><ele>1074.0</ele><time>2026-05-02T11:53:53.285Z</time></trkpt><trkpt lat="42.0709883" lon="13.7043633"><ele>1074.0</ele><time>2026-05-02T11:53:54.285Z</time></trkpt><trkpt lat="42.0708283" lon="13.7043533"><ele>1074.0</ele><time>2026-05-02T11:53:55.285Z</time></trkpt><trkpt lat="42.0706583" lon="13.70435"><ele>1074.0</ele><time>2026-05-02T11:53:56.285Z</time></trkpt><trkpt lat="42.070495" lon="13.7043567"><ele>1072.3333333333333</ele><time>2026-05-02T11:53:57.285Z</time></trkpt><trkpt lat="42.0703417" lon="13.7043817"><ele>1070.6666666666665</ele><time>2026-05-02T11:53:58.285Z</time></trkpt><trkpt lat="42.0701933" lon="13.7044433"><ele>1069.0</ele><time>2026-05-02T11:53:59.285Z</time></trkpt><trkpt lat="42.0700533" lon="13.7045517"><ele>1080.3333333333333</ele><time>2026-05-02T11:54:00.286Z</time></trkpt><trkpt lat="42.0699233" lon="13.704695"><ele>1091.6666666666667</ele><time>2026-05-02T11:54:01.286Z</time></trkpt><trkpt lat="42.0698" lon="13.7048517"><ele>1103.0</ele><time>2026-05-02T11:54:02.285Z</time></trkpt><trkpt lat="42.069675" lon="13.705015"><ele>1103.0</ele><time>2026-05-02T11:54:03.285Z</time></trkpt><trkpt lat="42.069545" lon="13.7051717"><ele>1103.0</ele><time>2026-05-02T11:54:04.285Z</time></trkpt><trkpt lat="42.069415" lon="13.7053033"><ele>1103.0</ele><time>2026-05-02T11:54:05.285Z</time></trkpt><trkpt lat="42.0692767" lon="13.7054267"><ele>1098.3333333333335</ele><time>2026-05-02T11:54:06.285Z</time></trkpt><trkpt lat="42.069135" lon="13.7055317"><ele>1093.6666666666667</ele><time>2026-05-02T11:54:07.285Z</time></trkpt><trkpt lat="42.068985" lon="13.7056267"><ele>1089.0</ele><time>2026-05-02T11:54:08.285Z</time></trkpt><trkpt lat="42.0688317" lon="13.7057167"><ele>1089.0</ele><time>2026-05-02T11:54:09.285Z</time></trkpt><trkpt lat="42.0686683" lon="13.705785"><ele>1089.0</ele><time>2026-05-02T11:54:10.285Z</time></trkpt><trkpt lat="42.0684933" lon="13.7058467"><ele>1089.0</ele><time>2026-05-02T11:54:11.286Z</time></trkpt><trkpt lat="42.068305" lon="13.70589"><ele>1093.6666666666667</ele><time>2026-05-02T11:54:12.285Z</time></trkpt><trkpt lat="42.0681117" lon="13.7059283"><ele>1098.3333333333335</ele><time>2026-05-02T11:54:13.285Z</time></trkpt><trkpt lat="42.0679167" lon="13.70597"><ele>1103.0</ele><time>2026-05-02T11:54:14.285Z</time></trkpt><trkpt lat="42.0677133" lon="13.7060133"><ele>1103.0</ele><time>2026-05-02T11:54:15.285Z</time></trkpt><trkpt lat="42.0675083" lon="13.70604"><ele>1103.0</ele><time>2026-05-02T11:54:16.285Z</time></trkpt><trkpt lat="42.0672983" lon="13.7060583"><ele>1103.0</ele><time>2026-05-02T11:54:17.285Z</time></trkpt><trkpt lat="42.0670833" lon="13.7060767"><ele>1096.3333333333335</ele><time>2026-05-02T11:54:18.285Z</time></trkpt><trkpt lat="42.06687" lon="13.7060833"><ele>1089.6666666666667</ele><time>2026-05-02T11:54:19.285Z</time></trkpt><trkpt lat="42.0666567" lon="13.7060917"><ele>1083.0</ele><time>2026-05-02T11:54:20.285Z</time></trkpt><trkpt lat="42.0664417" lon="13.70611"><ele>1083.0</ele><time>2026-05-02T11:54:21.285Z</time></trkpt><trkpt lat="42.0662383" lon="13.7061567"><ele>1083.0</ele><time>2026-05-02T11:54:22.285Z</time></trkpt><trkpt lat="42.0660433" lon="13.7062083"><ele>1083.0</ele><time>2026-05-02T11:54:23.285Z</time></trkpt><trkpt lat="42.06584" lon="13.70625"><ele>1086.6666666666667</ele><time>2026-05-02T11:54:24.285Z</time></trkpt><trkpt lat="42.06563" lon="13.7062517"><ele>1090.3333333333335</ele><time>2026-05-02T11:54:25.286Z</time></trkpt><trkpt lat="42.06541" lon="13.7062233"><ele>1094.0</ele><time>2026-05-02T11:54:26.285Z</time></trkpt><trkpt lat="42.065185" lon="13.7061967"><ele>1094.0</ele><time>2026-05-02T11:54:27.285Z</time></trkpt><trkpt lat="42.0649783" lon="13.70617"><ele>1094.0</ele><time>2026-05-02T11:54:28.285Z</time></trkpt><trkpt lat="42.06478" lon="13.7061533"><ele>1094.0</ele><time>2026-05-02T11:54:29.285Z</time></trkpt><trkpt lat="42.0645983" lon="13.7061417"><ele>1098.25</ele><time>2026-05-02T11:54:30.285Z</time></trkpt><trkpt lat="42.0644333" lon="13.706125"><ele>1102.5</ele><time>2026-05-02T11:54:31.285Z</time></trkpt><trkpt lat="42.0642917" lon="13.7061067"><ele>1106.75</ele><time>2026-05-02T11:54:32.286Z</time></trkpt><trkpt lat="42.06417" lon="13.7060583"><ele>1111.0</ele><time>2026-05-02T11:54:33.285Z</time></trkpt><trkpt lat="42.0640617" lon="13.70599"><ele>1111.25</ele><time>2026-05-02T11:54:34.285Z</time></trkpt><trkpt lat="42.0639617" lon="13.7058917"><ele>1111.5</ele><time>2026-05-02T11:54:35.285Z</time></trkpt><trkpt lat="42.063875" lon="13.7057767"><ele>1111.75</ele><time>2026-05-02T11:54:36.285Z</time></trkpt><trkpt lat="42.0637883" lon="13.7056517"><ele>1112.0</ele><time>2026-05-02T11:54:37.285Z</time></trkpt><trkpt lat="42.0637017" lon="13.705515"><ele>1112.0</ele><time>2026-05-02T11:54:38.285Z</time></trkpt><trkpt lat="42.063615" lon="13.70537"><ele>1112.0</ele><time>2026-05-02T11:54:39.285Z</time></trkpt><trkpt lat="42.063525" lon="13.70522"><ele>1112.0</ele><time>2026-05-02T11:54:40.285Z</time></trkpt><trkpt lat="42.0634383" lon="13.7050667"><ele>1112.0</ele><time>2026-05-02T11:54:41.285Z</time></trkpt><trkpt lat="42.06336" lon="13.7049283"><ele>1110.6</ele><time>2026-05-02T11:54:42.285Z</time></trkpt><trkpt lat="42.0633" lon="13.7048117"><ele>1109.2</ele><time>2026-05-02T11:54:43.285Z</time></trkpt><trkpt lat="42.0632583" lon="13.7046983"><ele>1107.8</ele><time>2026-05-02T11:54:44.285Z</time></trkpt><trkpt lat="42.0632233" lon="13.70459"><ele>1106.4</ele><time>2026-05-02T11:54:45.285Z</time></trkpt><trkpt lat="42.0631983" lon="13.7044783"><ele>1105.0</ele><time>2026-05-02T11:54:46.285Z</time></trkpt><trkpt lat="42.0631817" lon="13.7043633"><ele>1100.8</ele><time>2026-05-02T11:54:47.286Z</time></trkpt><trkpt lat="42.0631683" lon="13.7042433"><ele>1096.6</ele><time>2026-05-02T11:54:48.285Z</time></trkpt><trkpt lat="42.063145" lon="13.7041183"><ele>1092.4</ele><time>2026-05-02T11:54:49.285Z</time></trkpt><trkpt lat="42.0631183" lon="13.7039883"><ele>1088.2</ele><time>2026-05-02T11:54:50.285Z</time></trkpt><trkpt lat="42.06309" lon="13.703855"><ele>1084.0</ele><time>2026-05-02T11:54:51.285Z</time></trkpt><trkpt lat="42.0630633" lon="13.703715"><ele>1085.8</ele><time>2026-05-02T11:54:52.285Z</time></trkpt><trkpt lat="42.0630383" lon="13.7035767"><ele>1087.6000000000001</ele><time>2026-05-02T11:54:53.285Z</time></trkpt><trkpt lat="42.063005" lon="13.703455"><ele>1089.4</ele><time>2026-05-02T11:54:54.285Z</time></trkpt><trkpt lat="42.0629817" lon="13.7033533"><ele>1091.2</ele><time>2026-05-02T11:54:55.285Z</time></trkpt><trkpt lat="42.06294" lon="13.7032317"><ele>1093.0</ele><time>2026-05-02T11:54:57.285Z</time></trkpt><trkpt lat="42.0628917" lon="13.7031633"><ele>1093.0</ele><time>2026-05-02T11:55:00.285Z</time></trkpt><trkpt lat="42.06286" lon="13.7032367"><ele>1093.0</ele><time>2026-05-02T11:55:04.285Z</time></trkpt><trkpt lat="42.0629283" lon="13.70338"><ele>1093.0</ele><time>2026-05-02T11:55:06.286Z</time></trkpt><trkpt lat="42.0629717" lon="13.7034967"><ele>1093.0</ele><time>2026-05-02T11:55:07.286Z</time></trkpt><trkpt lat="42.06302" lon="13.7036367"><ele>1093.0</ele><time>2026-05-02T11:55:08.285Z</time></trkpt><trkpt lat="42.0630633" lon="13.70381"><ele>1090.75</ele><time>2026-05-02T11:55:09.285Z</time></trkpt><trkpt lat="42.063095" lon="13.703985"><ele>1088.5</ele><time>2026-05-02T11:55:10.286Z</time></trkpt><trkpt lat="42.06312" lon="13.70416"><ele>1086.25</ele><time>2026-05-02T11:55:11.285Z</time></trkpt><trkpt lat="42.06315" lon="13.7043217"><ele>1084.0</ele><time>2026-05-02T11:55:12.285Z</time></trkpt><trkpt lat="42.063175" lon="13.7044817"><ele>1084.0</ele><time>2026-05-02T11:55:13.285Z</time></trkpt><trkpt lat="42.06321" lon="13.704645"><ele>1084.0</ele><time>2026-05-02T11:55:14.285Z</time></trkpt><trkpt lat="42.0632583" lon="13.70481"><ele>1084.0</ele><time>2026-05-02T11:55:15.285Z</time></trkpt><trkpt lat="42.0633383" lon="13.70497"><ele>1084.0</ele><time>2026-05-02T11:55:16.286Z</time></trkpt><trkpt lat="42.0634267" lon="13.7051167"><ele>1088.2</ele><time>2026-05-02T11:55:17.285Z</time></trkpt><trkpt lat="42.0634967" lon="13.7052383"><ele>1092.4</ele><time>2026-05-02T11:55:18.285Z</time></trkpt><trkpt lat="42.0635517" lon="13.7053333"><ele>1096.6</ele><time>2026-05-02T11:55:19.285Z</time></trkpt><trkpt lat="42.0635933" lon="13.7054083"><ele>1100.8</ele><time>2026-05-02T11:55:20.285Z</time></trkpt><trkpt lat="42.0636583" lon="13.7055117"><ele>1105.0</ele><time>2026-05-02T11:55:22.285Z</time></trkpt><trkpt lat="42.06371" lon="13.70559"><ele>1106.1666666666665</ele><time>2026-05-02T11:55:28.285Z</time></trkpt><trkpt lat="42.0637717" lon="13.705675"><ele>1107.3333333333333</ele><time>2026-05-02T11:55:31.285Z</time></trkpt><trkpt lat="42.0637833" lon="13.7057683"><ele>1108.5</ele><time>2026-05-02T11:55:35.285Z</time></trkpt><trkpt lat="42.0637017" lon="13.7057883"><ele>1109.6666666666667</ele><time>2026-05-02T11:55:39.285Z</time></trkpt><trkpt lat="42.0636233" lon="13.7057117"><ele>1110.8333333333335</ele><time>2026-05-02T11:55:41.285Z</time></trkpt><trkpt lat="42.06354" lon="13.7056183"><ele>1112.0</ele><time>2026-05-02T11:55:43.285Z</time></trkpt><trkpt lat="42.0634567" lon="13.7055267"><ele>1112.0</ele><time>2026-05-02T11:55:45.285Z</time></trkpt><trkpt lat="42.063375" lon="13.705425"><ele>1112.0</ele><time>2026-05-02T11:55:47.285Z</time></trkpt><trkpt lat="42.0632867" lon="13.70534"><ele>1112.0</ele><time>2026-05-02T11:55:49.286Z</time></trkpt><trkpt lat="42.0631933" lon="13.705255"><ele>1112.0</ele><time>2026-05-02T11:55:51.285Z</time></trkpt><trkpt lat="42.0631117" lon="13.70519"><ele>1112.0</ele><time>2026-05-02T11:55:53.285Z</time></trkpt><trkpt lat="42.0630333" lon="13.7051317"><ele>1107.3333333333335</ele><time>2026-05-02T11:55:55.285Z</time></trkpt><trkpt lat="42.0629467" lon="13.7050783"><ele>1102.6666666666667</ele><time>2026-05-02T11:55:57.286Z</time></trkpt><trkpt lat="42.0628567" lon="13.7050183"><ele>1098.0</ele><time>2026-05-02T11:55:59.285Z</time></trkpt><trkpt lat="42.0627783" lon="13.7049783"><ele>1093.3333333333333</ele><time>2026-05-02T11:56:01.285Z</time></trkpt><trkpt lat="42.062675" lon="13.704955"><ele>1088.6666666666665</ele><time>2026-05-02T11:56:03.285Z</time></trkpt><trkpt lat="42.06261" lon="13.70495"><ele>1084.0</ele><time>2026-05-02T11:56:04.285Z</time></trkpt><trkpt lat="42.0625467" lon="13.7049417"><ele>1084.0</ele><time>2026-05-02T11:56:05.285Z</time></trkpt><trkpt lat="42.0624767" lon="13.7049317"><ele>1084.0</ele><time>2026-05-02T11:56:06.285Z</time></trkpt><trkpt lat="42.0624017" lon="13.7049283"><ele>1084.0</ele><time>2026-05-02T11:56:07.285Z</time></trkpt><trkpt lat="42.0623167" lon="13.704925"><ele>1084.0</ele><time>2026-05-02T11:56:08.285Z</time></trkpt><trkpt lat="42.0622283" lon="13.704915"><ele>1084.0</ele><time>2026-05-02T11:56:09.285Z</time></trkpt><trkpt lat="42.0621367" lon="13.7049117"><ele>1084.0</ele><time>2026-05-02T11:56:10.285Z</time></trkpt><trkpt lat="42.06206" lon="13.7049033"><ele>1082.3333333333333</ele><time>2026-05-02T11:56:11.285Z</time></trkpt><trkpt lat="42.061985" lon="13.704895"><ele>1080.6666666666665</ele><time>2026-05-02T11:56:12.285Z</time></trkpt><trkpt lat="42.061915" lon="13.7048833"><ele>1079.0</ele><time>2026-05-02T11:56:13.285Z</time></trkpt><trkpt lat="42.061805" lon="13.7048517"><ele>1077.3333333333333</ele><time>2026-05-02T11:56:15.285Z</time></trkpt><trkpt lat="42.0617117" lon="13.7047667"><ele>1075.6666666666667</ele><time>2026-05-02T11:56:17.285Z</time></trkpt><trkpt lat="42.061655" lon="13.7046983"><ele>1074.0</ele><time>2026-05-02T11:56:18.285Z</time></trkpt><trkpt lat="42.0616" lon="13.7046233"><ele>1074.0</ele><time>2026-05-02T11:56:19.285Z</time></trkpt><trkpt lat="42.0615433" lon="13.7045433"><ele>1074.0</ele><time>2026-05-02T11:56:20.285Z</time></trkpt><trkpt lat="42.0614967" lon="13.7044667"><ele>1074.0</ele><time>2026-05-02T11:56:21.285Z</time></trkpt><trkpt lat="42.0614533" lon="13.7043867"><ele>1074.0</ele><time>2026-05-02T11:56:22.286Z</time></trkpt><trkpt lat="42.0614033" lon="13.7043"><ele>1074.0</ele><time>2026-05-02T11:56:23.285Z</time></trkpt><trkpt lat="42.06135" lon="13.7042017"><ele>1074.0</ele><time>2026-05-02T11:56:24.285Z</time></trkpt><trkpt lat="42.061305" lon="13.7041167"><ele>1073.0</ele><time>2026-05-02T11:56:25.286Z</time></trkpt><trkpt lat="42.0612567" lon="13.70404"><ele>1072.0</ele><time>2026-05-02T11:56:26.286Z</time></trkpt><trkpt lat="42.06121" lon="13.7039667"><ele>1071.0</ele><time>2026-05-02T11:56:27.285Z</time></trkpt><trkpt lat="42.0611567" lon="13.70388"><ele>1070.0</ele><time>2026-05-02T11:56:28.285Z</time></trkpt><trkpt lat="42.0611" lon="13.70379"><ele>1069.0</ele><time>2026-05-02T11:56:29.285Z</time></trkpt><trkpt lat="42.0610467" lon="13.703695"><ele>1068.0</ele><time>2026-05-02T11:56:30.285Z</time></trkpt><trkpt lat="42.0609917" lon="13.7036017"><ele>1068.5</ele><time>2026-05-02T11:56:31.285Z</time></trkpt><trkpt lat="42.0609333" lon="13.7035133"><ele>1069.0</ele><time>2026-05-02T11:56:32.286Z</time></trkpt><trkpt lat="42.0608783" lon="13.70342"><ele>1069.5</ele><time>2026-05-02T11:56:33.285Z</time></trkpt><trkpt lat="42.0608167" lon="13.70332"><ele>1070.0</ele><time>2026-05-02T11:56:34.285Z</time></trkpt><trkpt lat="42.06076" lon="13.7032217"><ele>1070.5</ele><time>2026-05-02T11:56:35.285Z</time></trkpt><trkpt lat="42.0607133" lon="13.7031317"><ele>1071.0</ele><time>2026-05-02T11:56:36.285Z</time></trkpt><trkpt lat="42.0606633" lon="13.7030367"><ele>1071.0</ele><time>2026-05-02T11:56:37.285Z</time></trkpt><trkpt lat="42.0606167" lon="13.7029483"><ele>1071.0</ele><time>2026-05-02T11:56:38.285Z</time></trkpt><trkpt lat="42.0605617" lon="13.70285"><ele>1071.0</ele><time>2026-05-02T11:56:39.286Z</time></trkpt><trkpt lat="42.060505" lon="13.70275"><ele>1071.0</ele><time>2026-05-02T11:56:40.285Z</time></trkpt><trkpt lat="42.0604517" lon="13.7026567"><ele>1071.0</ele><time>2026-05-02T11:56:41.285Z</time></trkpt><trkpt lat="42.0604083" lon="13.70256"><ele>1071.0</ele><time>2026-05-02T11:56:42.286Z</time></trkpt><trkpt lat="42.0603567" lon="13.702465"><ele>1070.0</ele><time>2026-05-02T11:56:43.286Z</time></trkpt><trkpt lat="42.0603067" lon="13.7023733"><ele>1069.0</ele><time>2026-05-02T11:56:44.285Z</time></trkpt><trkpt lat="42.0602467" lon="13.7022783"><ele>1068.0</ele><time>2026-05-02T11:56:45.286Z</time></trkpt><trkpt lat="42.0601867" lon="13.70218"><ele>1067.0</ele><time>2026-05-02T11:56:46.285Z</time></trkpt><trkpt lat="42.0601283" lon="13.7020917"><ele>1066.0</ele><time>2026-05-02T11:56:47.285Z</time></trkpt><trkpt lat="42.060075" lon="13.7019967"><ele>1065.0</ele><time>2026-05-02T11:56:48.285Z</time></trkpt><trkpt lat="42.0600217" lon="13.7018983"><ele>1064.2</ele><time>2026-05-02T11:56:49.285Z</time></trkpt><trkpt lat="42.0599633" lon="13.7017933"><ele>1063.4</ele><time>2026-05-02T11:56:50.285Z</time></trkpt><trkpt lat="42.0599033" lon="13.701685"><ele>1062.6</ele><time>2026-05-02T11:56:51.285Z</time></trkpt><trkpt lat="42.05985" lon="13.701585"><ele>1061.8</ele><time>2026-05-02T11:56:52.285Z</time></trkpt><trkpt lat="42.0598033" lon="13.7014933"><ele>1061.0</ele><time>2026-05-02T11:56:53.285Z</time></trkpt><trkpt lat="42.0597483" lon="13.7014017"><ele>1061.0</ele><time>2026-05-02T11:56:54.285Z</time></trkpt><trkpt lat="42.0596967" lon="13.70131"><ele>1061.0</ele><time>2026-05-02T11:56:55.285Z</time></trkpt><trkpt lat="42.0596467" lon="13.7012167"><ele>1061.0</ele><time>2026-05-02T11:56:56.285Z</time></trkpt><trkpt lat="42.0595983" lon="13.7011317"><ele>1061.0</ele><time>2026-05-02T11:56:57.285Z</time></trkpt><trkpt lat="42.0595533" lon="13.7010483"><ele>1061.0</ele><time>2026-05-02T11:56:58.285Z</time></trkpt><trkpt lat="42.0595083" lon="13.7009717"><ele>1061.0</ele><time>2026-05-02T11:56:59.285Z</time></trkpt><trkpt lat="42.0594583" lon="13.7008983"><ele>1061.0000000000002</ele><time>2026-05-02T11:57:00.285Z</time></trkpt><trkpt lat="42.0594017" lon="13.7008267"><ele>1061.0</ele><time>2026-05-02T11:57:01.285Z</time></trkpt><trkpt lat="42.0593433" lon="13.70076"><ele>1061.0</ele><time>2026-05-02T11:57:02.285Z</time></trkpt><trkpt lat="42.05929" lon="13.700705"><ele>1061.0</ele><time>2026-05-02T11:57:03.285Z</time></trkpt><trkpt lat="42.0592283" lon="13.7006567"><ele>1061.0</ele><time>2026-05-02T11:57:04.285Z</time></trkpt><trkpt lat="42.05917" lon="13.7006117"><ele>1061.0000000000002</ele><time>2026-05-02T11:57:05.285Z</time></trkpt><trkpt lat="42.0591033" lon="13.70057"><ele>1061.0</ele><time>2026-05-02T11:57:06.285Z</time></trkpt><trkpt lat="42.059025" lon="13.70053"><ele>1060.3333333333335</ele><time>2026-05-02T11:57:07.285Z</time></trkpt><trkpt lat="42.0589433" lon="13.7004933"><ele>1059.6666666666667</ele><time>2026-05-02T11:57:08.285Z</time></trkpt><trkpt lat="42.0588667" lon="13.7004633"><ele>1059.0</ele><time>2026-05-02T11:57:09.286Z</time></trkpt><trkpt lat="42.05879" lon="13.7004417"><ele>1058.3333333333333</ele><time>2026-05-02T11:57:10.285Z</time></trkpt><trkpt lat="42.05871" lon="13.7004317"><ele>1057.6666666666665</ele><time>2026-05-02T11:57:11.285Z</time></trkpt><trkpt lat="42.05863" lon="13.70042"><ele>1057.0</ele><time>2026-05-02T11:57:12.285Z</time></trkpt><trkpt lat="42.058545" lon="13.7004083"><ele>1057.0</ele><time>2026-05-02T11:57:13.285Z</time></trkpt><trkpt lat="42.0584633" lon="13.7004033"><ele>1057.0</ele><time>2026-05-02T11:57:14.285Z</time></trkpt><trkpt lat="42.0583767" lon="13.7003933"><ele>1057.0</ele><time>2026-05-02T11:57:15.285Z</time></trkpt><trkpt lat="42.0583" lon="13.7003833"><ele>1057.0</ele><time>2026-05-02T11:57:16.285Z</time></trkpt><trkpt lat="42.05822" lon="13.7003733"><ele>1057.0</ele><time>2026-05-02T11:57:17.285Z</time></trkpt><trkpt lat="42.0581417" lon="13.7003683"><ele>1057.0</ele><time>2026-05-02T11:57:18.286Z</time></trkpt><trkpt lat="42.0580667" lon="13.7003667"><ele>1056.1666666666665</ele><time>2026-05-02T11:57:19.285Z</time></trkpt><trkpt lat="42.057995" lon="13.7003633"><ele>1055.3333333333333</ele><time>2026-05-02T11:57:20.285Z</time></trkpt><trkpt lat="42.0579267" lon="13.70036"><ele>1054.5</ele><time>2026-05-02T11:57:21.285Z</time></trkpt><trkpt lat="42.0578183" lon="13.70034"><ele>1053.6666666666667</ele><time>2026-05-02T11:57:23.285Z</time></trkpt><trkpt lat="42.057705" lon="13.7003083"><ele>1052.8333333333335</ele><time>2026-05-02T11:57:25.285Z</time></trkpt><trkpt lat="42.05764" lon="13.700305"><ele>1052.0</ele><time>2026-05-02T11:57:26.286Z</time></trkpt><trkpt lat="42.0575167" lon="13.7002967"><ele>1051.857142857143</ele><time>2026-05-02T11:57:28.285Z</time></trkpt><trkpt lat="42.0574517" lon="13.70029"><ele>1051.7142857142856</ele><time>2026-05-02T11:57:29.285Z</time></trkpt><trkpt lat="42.0573867" lon="13.7002767"><ele>1051.5714285714284</ele><time>2026-05-02T11:57:30.285Z</time></trkpt><trkpt lat="42.0573217" lon="13.700265"><ele>1051.4285714285713</ele><time>2026-05-02T11:57:31.285Z</time></trkpt><trkpt lat="42.0572417" lon="13.7002617"><ele>1051.2857142857142</ele><time>2026-05-02T11:57:32.285Z</time></trkpt><trkpt lat="42.0571683" lon="13.7002583"><ele>1051.142857142857</ele><time>2026-05-02T11:57:33.285Z</time></trkpt><trkpt lat="42.0570967" lon="13.7002483"><ele>1051.0</ele><time>2026-05-02T11:57:34.285Z</time></trkpt><trkpt lat="42.057025" lon="13.70024"><ele>1051.0</ele><time>2026-05-02T11:57:35.285Z</time></trkpt><trkpt lat="42.0569583" lon="13.70023"><ele>1051.0</ele><time>2026-05-02T11:57:36.285Z</time></trkpt><trkpt lat="42.05683" lon="13.700205"><ele>1051.0</ele><time>2026-05-02T11:57:38.285Z</time></trkpt><trkpt lat="42.05676" lon="13.7001883"><ele>1051.0</ele><time>2026-05-02T11:57:39.285Z</time></trkpt><trkpt lat="42.0566833" lon="13.7001717"><ele>1051.0</ele><time>2026-05-02T11:57:40.285Z</time></trkpt><trkpt lat="42.0566083" lon="13.7001633"><ele>1051.0</ele><time>2026-05-02T11:57:41.285Z</time></trkpt><trkpt lat="42.0565233" lon="13.700155"><ele>1051.1666666666665</ele><time>2026-05-02T11:57:42.285Z</time></trkpt><trkpt lat="42.0564483" lon="13.7001383"><ele>1051.3333333333333</ele><time>2026-05-02T11:57:43.285Z</time></trkpt><trkpt lat="42.056365" lon="13.7001183"><ele>1051.5</ele><time>2026-05-02T11:57:44.285Z</time></trkpt><trkpt lat="42.0562867" lon="13.7000983"><ele>1051.6666666666667</ele><time>2026-05-02T11:57:45.285Z</time></trkpt><trkpt lat="42.0562117" lon="13.7000883"><ele>1051.8333333333335</ele><time>2026-05-02T11:57:46.285Z</time></trkpt><trkpt lat="42.056135" lon="13.70008"><ele>1052.0</ele><time>2026-05-02T11:57:47.285Z</time></trkpt><trkpt lat="42.05602" lon="13.7000567"><ele>1052.0</ele><time>2026-05-02T11:57:49.285Z</time></trkpt><trkpt lat="42.0559" lon="13.7000333"><ele>1052.0</ele><time>2026-05-02T11:57:51.286Z</time></trkpt><trkpt lat="42.0558333" lon="13.7000233"><ele>1052.0</ele><time>2026-05-02T11:57:52.285Z</time></trkpt><trkpt lat="42.05576" lon="13.7000067"><ele>1052.0</ele><time>2026-05-02T11:57:53.285Z</time></trkpt><trkpt lat="42.0556883" lon="13.6999883"><ele>1052.0</ele><time>2026-05-02T11:57:54.285Z</time></trkpt><trkpt lat="42.05562" lon="13.6999833"><ele>1052.0</ele><time>2026-05-02T11:57:55.285Z</time></trkpt><trkpt lat="42.0555517" lon="13.69997"><ele>1051.6</ele><time>2026-05-02T11:57:56.285Z</time></trkpt><trkpt lat="42.05548" lon="13.699965"><ele>1051.2</ele><time>2026-05-02T11:57:57.285Z</time></trkpt><trkpt lat="42.0554017" lon="13.6999567"><ele>1050.8</ele><time>2026-05-02T11:57:58.285Z</time></trkpt><trkpt lat="42.05533" lon="13.6999467"><ele>1050.4</ele><time>2026-05-02T11:57:59.285Z</time></trkpt><trkpt lat="42.0552133" lon="13.699915"><ele>1050.0</ele><time>2026-05-02T11:58:01.285Z</time></trkpt><trkpt lat="42.0550867" lon="13.6998617"><ele>1050.0</ele><time>2026-05-02T11:58:03.285Z</time></trkpt><trkpt lat="42.0550183" lon="13.6998267"><ele>1050.0</ele><time>2026-05-02T11:58:04.285Z</time></trkpt><trkpt lat="42.0549517" lon="13.6997933"><ele>1050.0</ele><time>2026-05-02T11:58:05.285Z</time></trkpt><trkpt lat="42.05484" lon="13.6997417"><ele>1050.0</ele><time>2026-05-02T11:58:07.285Z</time></trkpt><trkpt lat="42.05474" lon="13.6996833"><ele>1050.0</ele><time>2026-05-02T11:58:09.285Z</time></trkpt><trkpt lat="42.05465" lon="13.699625"><ele>1049.6</ele><time>2026-05-02T11:58:11.285Z</time></trkpt><trkpt lat="42.0545517" lon="13.6995983"><ele>1049.2</ele><time>2026-05-02T11:58:13.286Z</time></trkpt><trkpt lat="42.0544483" lon="13.699575"><ele>1048.8</ele><time>2026-05-02T11:58:15.286Z</time></trkpt><trkpt lat="42.0543633" lon="13.6995483"><ele>1048.4</ele><time>2026-05-02T11:58:17.285Z</time></trkpt><trkpt lat="42.054265" lon="13.6995183"><ele>1048.0</ele><time>2026-05-02T11:58:19.285Z</time></trkpt><trkpt lat="42.0541567" lon="13.69945"><ele>1048.6666666666665</ele><time>2026-05-02T11:58:21.285Z</time></trkpt><trkpt lat="42.0540567" lon="13.6993933"><ele>1049.3333333333333</ele><time>2026-05-02T11:58:23.285Z</time></trkpt><trkpt lat="42.05394" lon="13.6993233"><ele>1050.0</ele><time>2026-05-02T11:58:25.285Z</time></trkpt><trkpt lat="42.0538767" lon="13.6992933"><ele>1050.6666666666667</ele><time>2026-05-02T11:58:26.285Z</time></trkpt><trkpt lat="42.053805" lon="13.6992683"><ele>1051.3333333333335</ele><time>2026-05-02T11:58:27.285Z</time></trkpt><trkpt lat="42.0537433" lon="13.6992383"><ele>1052.0</ele><time>2026-05-02T11:58:28.285Z</time></trkpt><trkpt lat="42.0536683" lon="13.6991967"><ele>1052.0</ele><time>2026-05-02T11:58:29.286Z</time></trkpt><trkpt lat="42.0536" lon="13.6991633"><ele>1052.0</ele><time>2026-05-02T11:58:30.285Z</time></trkpt><trkpt lat="42.053525" lon="13.699125"><ele>1052.0</ele><time>2026-05-02T11:58:31.285Z</time></trkpt><trkpt lat="42.0534583" lon="13.6990883"><ele>1052.0</ele><time>2026-05-02T11:58:32.285Z</time></trkpt><trkpt lat="42.0533933" lon="13.6990583"><ele>1052.0</ele><time>2026-05-02T11:58:33.285Z</time></trkpt><trkpt lat="42.053325" lon="13.699035"><ele>1052.0</ele><time>2026-05-02T11:58:34.285Z</time></trkpt><trkpt lat="42.0532517" lon="13.6989917"><ele>1052.0</ele><time>2026-05-02T11:58:35.285Z</time></trkpt><trkpt lat="42.05319" lon="13.6989433"><ele>1052.3333333333335</ele><time>2026-05-02T11:58:36.285Z</time></trkpt><trkpt lat="42.05312" lon="13.69889"><ele>1052.6666666666667</ele><time>2026-05-02T11:58:37.286Z</time></trkpt><trkpt lat="42.05306" lon="13.6988317"><ele>1053.0</ele><time>2026-05-02T11:58:38.285Z</time></trkpt><trkpt lat="42.0530033" lon="13.6987683"><ele>1053.3333333333333</ele><time>2026-05-02T11:58:39.285Z</time></trkpt><trkpt lat="42.0529367" lon="13.6987017"><ele>1053.6666666666665</ele><time>2026-05-02T11:58:40.285Z</time></trkpt><trkpt lat="42.0528783" lon="13.698635"><ele>1054.0</ele><time>2026-05-02T11:58:41.285Z</time></trkpt><trkpt lat="42.0528167" lon="13.69857"><ele>1054.3333333333333</ele><time>2026-05-02T11:58:42.285Z</time></trkpt><trkpt lat="42.0527517" lon="13.6984967"><ele>1054.6666666666665</ele><time>2026-05-02T11:58:43.285Z</time></trkpt><trkpt lat="42.0526933" lon="13.6984333"><ele>1055.0</ele><time>2026-05-02T11:58:44.285Z</time></trkpt><trkpt lat="42.0526217" lon="13.6983667"><ele>1055.3333333333333</ele><time>2026-05-02T11:58:45.285Z</time></trkpt><trkpt lat="42.0525483" lon="13.6982933"><ele>1055.6666666666667</ele><time>2026-05-02T11:58:46.285Z</time></trkpt><trkpt lat="42.05248" lon="13.69822"><ele>1056.0</ele><time>2026-05-02T11:58:47.286Z</time></trkpt><trkpt lat="42.052415" lon="13.6981483"><ele>1056.0</ele><time>2026-05-02T11:58:48.285Z</time></trkpt><trkpt lat="42.052355" lon="13.698085"><ele>1056.0</ele><time>2026-05-02T11:58:49.286Z</time></trkpt><trkpt lat="42.05229" lon="13.6980183"><ele>1056.0</ele><time>2026-05-02T11:58:50.285Z</time></trkpt><trkpt lat="42.0522217" lon="13.6979483"><ele>1056.0</ele><time>2026-05-02T11:58:51.285Z</time></trkpt><trkpt lat="42.0521567" lon="13.6978717"><ele>1056.0</ele><time>2026-05-02T11:58:52.285Z</time></trkpt><trkpt lat="42.0520917" lon="13.6977933"><ele>1056.0</ele><time>2026-05-02T11:58:53.285Z</time></trkpt><trkpt lat="42.052035" lon="13.6977133"><ele>1056.0</ele><time>2026-05-02T11:58:54.285Z</time></trkpt><trkpt lat="42.0519683" lon="13.6976233"><ele>1056.0</ele><time>2026-05-02T11:58:55.285Z</time></trkpt><trkpt lat="42.0519117" lon="13.6975433"><ele>1056.0</ele><time>2026-05-02T11:58:56.285Z</time></trkpt><trkpt lat="42.0518483" lon="13.697465"><ele>1056.0</ele><time>2026-05-02T11:58:57.286Z</time></trkpt><trkpt lat="42.0517833" lon="13.6973867"><ele>1056.0</ele><time>2026-05-02T11:58:58.285Z</time></trkpt><trkpt lat="42.0517183" lon="13.6973217"><ele>1056.0</ele><time>2026-05-02T11:58:59.285Z</time></trkpt><trkpt lat="42.051655" lon="13.697255"><ele>1055.8333333333333</ele><time>2026-05-02T11:59:00.285Z</time></trkpt><trkpt lat="42.05159" lon="13.69719"><ele>1055.6666666666667</ele><time>2026-05-02T11:59:01.285Z</time></trkpt><trkpt lat="42.051525" lon="13.69712"><ele>1055.5</ele><time>2026-05-02T11:59:02.285Z</time></trkpt><trkpt lat="42.0514617" lon="13.6970483"><ele>1055.3333333333335</ele><time>2026-05-02T11:59:03.285Z</time></trkpt><trkpt lat="42.0513967" lon="13.696985"><ele>1055.1666666666667</ele><time>2026-05-02T11:59:04.285Z</time></trkpt><trkpt lat="42.051325" lon="13.69691"><ele>1055.0</ele><time>2026-05-02T11:59:05.285Z</time></trkpt><trkpt lat="42.0512633" lon="13.69685"><ele>1055.0</ele><time>2026-05-02T11:59:06.285Z</time></trkpt><trkpt lat="42.0511967" lon="13.6967683"><ele>1055.0</ele><time>2026-05-02T11:59:07.285Z</time></trkpt><trkpt lat="42.0511283" lon="13.6966783"><ele>1055.0</ele><time>2026-05-02T11:59:08.285Z</time></trkpt><trkpt lat="42.05106" lon="13.696595"><ele>1055.0</ele><time>2026-05-02T11:59:09.285Z</time></trkpt><trkpt lat="42.0509867" lon="13.69651"><ele>1055.0</ele><time>2026-05-02T11:59:10.285Z</time></trkpt><trkpt lat="42.05092" lon="13.69643"><ele>1055.0</ele><time>2026-05-02T11:59:11.285Z</time></trkpt><trkpt lat="42.0508517" lon="13.6963383"><ele>1055.0</ele><time>2026-05-02T11:59:12.285Z</time></trkpt><trkpt lat="42.0507983" lon="13.696255"><ele>1055.0</ele><time>2026-05-02T11:59:13.286Z</time></trkpt><trkpt lat="42.050745" lon="13.6961783"><ele>1055.0</ele><time>2026-05-02T11:59:14.285Z</time></trkpt><trkpt lat="42.0506883" lon="13.6961083"><ele>1055.0</ele><time>2026-05-02T11:59:15.285Z</time></trkpt><trkpt lat="42.0506367" lon="13.69604"><ele>1055.0</ele><time>2026-05-02T11:59:16.285Z</time></trkpt><trkpt lat="42.050575" lon="13.695965"><ele>1054.3333333333335</ele><time>2026-05-02T11:59:17.285Z</time></trkpt><trkpt lat="42.050515" lon="13.6958883"><ele>1053.6666666666667</ele><time>2026-05-02T11:59:18.285Z</time></trkpt><trkpt lat="42.050455" lon="13.6958033"><ele>1053.0</ele><time>2026-05-02T11:59:19.285Z</time></trkpt><trkpt lat="42.0504017" lon="13.6957333"><ele>1052.3333333333333</ele><time>2026-05-02T11:59:20.285Z</time></trkpt><trkpt lat="42.0503417" lon="13.6956717"><ele>1051.6666666666665</ele><time>2026-05-02T11:59:21.285Z</time></trkpt><trkpt lat="42.0502967" lon="13.6956083"><ele>1051.0</ele><time>2026-05-02T11:59:22.285Z</time></trkpt><trkpt lat="42.05024" lon="13.6955333"><ele>1051.0</ele><time>2026-05-02T11:59:23.285Z</time></trkpt><trkpt lat="42.05018" lon="13.69546"><ele>1051.0</ele><time>2026-05-02T11:59:24.285Z</time></trkpt><trkpt lat="42.0501117" lon="13.6953717"><ele>1051.0</ele><time>2026-05-02T11:59:25.286Z</time></trkpt><trkpt lat="42.050045" lon="13.6952833"><ele>1051.0</ele><time>2026-05-02T11:59:26.285Z</time></trkpt><trkpt lat="42.0499883" lon="13.6952033"><ele>1051.0</ele><time>2026-05-02T11:59:27.285Z</time></trkpt><trkpt lat="42.0499317" lon="13.6951183"><ele>1051.0</ele><time>2026-05-02T11:59:28.285Z</time></trkpt><trkpt lat="42.0498767" lon="13.6950383"><ele>1051.8333333333333</ele><time>2026-05-02T11:59:29.285Z</time></trkpt><trkpt lat="42.0498233" lon="13.69496"><ele>1052.6666666666665</ele><time>2026-05-02T11:59:30.285Z</time></trkpt><trkpt lat="42.0497783" lon="13.6948867"><ele>1053.5</ele><time>2026-05-02T11:59:31.285Z</time></trkpt><trkpt lat="42.0497117" lon="13.6948033"><ele>1054.3333333333333</ele><time>2026-05-02T11:59:32.286Z</time></trkpt><trkpt lat="42.0496467" lon="13.6947317"><ele>1055.1666666666667</ele><time>2026-05-02T11:59:33.286Z</time></trkpt><trkpt lat="42.049595" lon="13.6946633"><ele>1056.0</ele><time>2026-05-02T11:59:34.285Z</time></trkpt><trkpt lat="42.0495467" lon="13.6945917"><ele>1056.0</ele><time>2026-05-02T11:59:35.285Z</time></trkpt><trkpt lat="42.0495" lon="13.69452"><ele>1056.0</ele><time>2026-05-02T11:59:36.285Z</time></trkpt><trkpt lat="42.04945" lon="13.69445"><ele>1056.0</ele><time>2026-05-02T11:59:37.285Z</time></trkpt><trkpt lat="42.049395" lon="13.6943817"><ele>1056.0</ele><time>2026-05-02T11:59:38.285Z</time></trkpt><trkpt lat="42.0493383" lon="13.69431"><ele>1056.0</ele><time>2026-05-02T11:59:39.285Z</time></trkpt><trkpt lat="42.0492633" lon="13.6942283"><ele>1056.0</ele><time>2026-05-02T11:59:40.285Z</time></trkpt><trkpt lat="42.04919" lon="13.6941533"><ele>1055.8</ele><time>2026-05-02T11:59:41.285Z</time></trkpt><trkpt lat="42.0491133" lon="13.6940733"><ele>1055.6</ele><time>2026-05-02T11:59:42.285Z</time></trkpt><trkpt lat="42.0490367" lon="13.6939967"><ele>1055.4</ele><time>2026-05-02T11:59:43.285Z</time></trkpt><trkpt lat="42.048965" lon="13.6939167"><ele>1055.2</ele><time>2026-05-02T11:59:44.285Z</time></trkpt><trkpt lat="42.048895" lon="13.6938383"><ele>1055.0</ele><time>2026-05-02T11:59:45.285Z</time></trkpt><trkpt lat="42.0488283" lon="13.6937617"><ele>1055.0</ele><time>2026-05-02T11:59:46.285Z</time></trkpt><trkpt lat="42.04877" lon="13.6936867"><ele>1055.0</ele><time>2026-05-02T11:59:47.285Z</time></trkpt><trkpt lat="42.0487067" lon="13.6936183"><ele>1055.0</ele><time>2026-05-02T11:59:48.285Z</time></trkpt><trkpt lat="42.0486383" lon="13.69354"><ele>1055.0</ele><time>2026-05-02T11:59:49.285Z</time></trkpt><trkpt lat="42.0485717" lon="13.69347"><ele>1055.0</ele><time>2026-05-02T11:59:50.285Z</time></trkpt><trkpt lat="42.0485033" lon="13.6934017"><ele>1055.0</ele><time>2026-05-02T11:59:51.285Z</time></trkpt><trkpt lat="42.0484383" lon="13.6933433"><ele>1054.6666666666667</ele><time>2026-05-02T11:59:52.285Z</time></trkpt><trkpt lat="42.0483833" lon="13.693285"><ele>1054.3333333333335</ele><time>2026-05-02T11:59:53.285Z</time></trkpt><trkpt lat="42.0483233" lon="13.693225"><ele>1054.0</ele><time>2026-05-02T11:59:54.285Z</time></trkpt><trkpt lat="42.04826" lon="13.6931617"><ele>1053.6666666666667</ele><time>2026-05-02T11:59:55.285Z</time></trkpt><trkpt lat="42.0482017" lon="13.693095"><ele>1053.3333333333333</ele><time>2026-05-02T11:59:56.285Z</time></trkpt><trkpt lat="42.048145" lon="13.6930267"><ele>1053.0</ele><time>2026-05-02T11:59:57.285Z</time></trkpt><trkpt lat="42.0480874" lon="13.6929627"><ele>1053.0</ele><time>2026-05-02T11:59:58.285Z</time></trkpt><trkpt lat="42.0480303" lon="13.6928934"><ele>1053.0</ele><time>2026-05-02T11:59:59.285Z</time></trkpt><trkpt lat="42.0479671" lon="13.6928205"><ele>1053.0</ele><time>2026-05-02T12:00:00.285Z</time></trkpt><trkpt lat="42.0478971" lon="13.6927417"><ele>1053.0</ele><time>2026-05-02T12:00:01.285Z</time></trkpt><trkpt lat="42.0478274" lon="13.6926663"><ele>1053.0</ele><time>2026-05-02T12:00:02.285Z</time></trkpt><trkpt lat="42.0477596" lon="13.6925938"><ele>1053.0</ele><time>2026-05-02T12:00:03.285Z</time></trkpt><trkpt lat="42.0476936" lon="13.6925257"><ele>1050.6666666666667</ele><time>2026-05-02T12:00:04.285Z</time></trkpt><trkpt lat="42.047628" lon="13.6924599"><ele>1048.3333333333333</ele><time>2026-05-02T12:00:05.285Z</time></trkpt><trkpt lat="42.047557" lon="13.6923907"><ele>1046.0</ele><time>2026-05-02T12:00:06.285Z</time></trkpt><trkpt lat="42.0474832" lon="13.6923186"><ele>1043.6666666666665</ele><time>2026-05-02T12:00:07.285Z</time></trkpt><trkpt lat="42.047411" lon="13.6922461"><ele>1041.3333333333333</ele><time>2026-05-02T12:00:08.285Z</time></trkpt><trkpt lat="42.0473415" lon="13.6921779"><ele>1039.0</ele><time>2026-05-02T12:00:09.285Z</time></trkpt><trkpt lat="42.0472684" lon="13.6921076"><ele>1039.0</ele><time>2026-05-02T12:00:10.285Z</time></trkpt><trkpt lat="42.0471913" lon="13.6920349"><ele>1039.0</ele><time>2026-05-02T12:00:11.286Z</time></trkpt><trkpt lat="42.0471204" lon="13.6919684"><ele>1039.0</ele><time>2026-05-02T12:00:12.286Z</time></trkpt><trkpt lat="42.0470503" lon="13.6919093"><ele>1039.0</ele><time>2026-05-02T12:00:13.285Z</time></trkpt><trkpt lat="42.0469866" lon="13.691853"><ele>1039.0</ele><time>2026-05-02T12:00:14.285Z</time></trkpt><trkpt lat="42.0469213" lon="13.6918005"><ele>1039.0</ele><time>2026-05-02T12:00:15.285Z</time></trkpt><trkpt lat="42.0468522" lon="13.691745"><ele>1036.7142857142856</ele><time>2026-05-02T12:00:16.285Z</time></trkpt><trkpt lat="42.0467775" lon="13.6916921"><ele>1034.4285714285713</ele><time>2026-05-02T12:00:17.285Z</time></trkpt><trkpt lat="42.0467099" lon="13.6916429"><ele>1032.142857142857</ele><time>2026-05-02T12:00:18.285Z</time></trkpt><trkpt lat="42.0466459" lon="13.6915954"><ele>1029.8571428571427</ele><time>2026-05-02T12:00:19.285Z</time></trkpt><trkpt lat="42.046587" lon="13.691551"><ele>1027.5714285714284</ele><time>2026-05-02T12:00:20.285Z</time></trkpt><trkpt lat="42.0465269" lon="13.6915058"><ele>1025.2857142857142</ele><time>2026-05-02T12:00:21.285Z</time></trkpt><trkpt lat="42.046467" lon="13.6914603"><ele>1023.0</ele><time>2026-05-02T12:00:22.285Z</time></trkpt><trkpt lat="42.0464057" lon="13.6914203"><ele>1023.0</ele><time>2026-05-02T12:00:23.285Z</time></trkpt><trkpt lat="42.0463447" lon="13.6913759"><ele>1023.0</ele><time>2026-05-02T12:00:24.285Z</time></trkpt><trkpt lat="42.046286" lon="13.6913279"><ele>1023.0</ele><time>2026-05-02T12:00:25.285Z</time></trkpt><trkpt lat="42.0462253" lon="13.691275"><ele>1023.0</ele><time>2026-05-02T12:00:26.286Z</time></trkpt><trkpt lat="42.0461614" lon="13.6912199"><ele>1023.0</ele><time>2026-05-02T12:00:27.286Z</time></trkpt><trkpt lat="42.0460892" lon="13.6911605"><ele>1023.0</ele><time>2026-05-02T12:00:28.285Z</time></trkpt><trkpt lat="42.0460198" lon="13.6910995"><ele>1022.0</ele><time>2026-05-02T12:00:29.285Z</time></trkpt><trkpt lat="42.0459567" lon="13.6910319"><ele>1021.0</ele><time>2026-05-02T12:00:30.285Z</time></trkpt><trkpt lat="42.04589" lon="13.690965"><ele>1020.0</ele><time>2026-05-02T12:00:31.285Z</time></trkpt><trkpt lat="42.0458267" lon="13.6909133"><ele>1019.0</ele><time>2026-05-02T12:00:32.285Z</time></trkpt><trkpt lat="42.045765" lon="13.6908533"><ele>1018.0</ele><time>2026-05-02T12:00:33.286Z</time></trkpt><trkpt lat="42.0457017" lon="13.6907867"><ele>1017.0</ele><time>2026-05-02T12:00:34.285Z</time></trkpt><trkpt lat="42.04564" lon="13.6907217"><ele>1017.0</ele><time>2026-05-02T12:00:35.285Z</time></trkpt><trkpt lat="42.0455783" lon="13.6906483"><ele>1017.0</ele><time>2026-05-02T12:00:36.285Z</time></trkpt><trkpt lat="42.0455183" lon="13.6905733"><ele>1017.0</ele><time>2026-05-02T12:00:37.285Z</time></trkpt><trkpt lat="42.0454583" lon="13.690485"><ele>1017.0</ele><time>2026-05-02T12:00:38.285Z</time></trkpt><trkpt lat="42.04541" lon="13.6903967"><ele>1017.0</ele><time>2026-05-02T12:00:39.285Z</time></trkpt><trkpt lat="42.0453617" lon="13.6903"><ele>1017.0</ele><time>2026-05-02T12:00:40.285Z</time></trkpt><trkpt lat="42.0453167" lon="13.6902217"><ele>1014.8333333333334</ele><time>2026-05-02T12:00:41.285Z</time></trkpt><trkpt lat="42.0452783" lon="13.690125"><ele>1012.6666666666667</ele><time>2026-05-02T12:00:42.286Z</time></trkpt><trkpt lat="42.0452433" lon="13.6900517"><ele>1010.5</ele><time>2026-05-02T12:00:43.285Z</time></trkpt><trkpt lat="42.045205" lon="13.689975"><ele>1008.3333333333334</ele><time>2026-05-02T12:00:44.285Z</time></trkpt><trkpt lat="42.0451333" lon="13.6898467"><ele>1006.1666666666667</ele><time>2026-05-02T12:00:46.286Z</time></trkpt><trkpt lat="42.045075" lon="13.6897183"><ele>1004.0</ele><time>2026-05-02T12:00:48.285Z</time></trkpt><trkpt lat="42.045045" lon="13.68964"><ele>1004.0000000000001</ele><time>2026-05-02T12:00:49.285Z</time></trkpt><trkpt lat="42.0450167" lon="13.68955"><ele>1004.0</ele><time>2026-05-02T12:00:50.285Z</time></trkpt><trkpt lat="42.044985" lon="13.689465"><ele>1004.0</ele><time>2026-05-02T12:00:51.285Z</time></trkpt><trkpt lat="42.04495" lon="13.6893783"><ele>1004.0</ele><time>2026-05-02T12:00:52.285Z</time></trkpt><trkpt lat="42.0449217" lon="13.68927"><ele>1004.0000000000001</ele><time>2026-05-02T12:00:53.285Z</time></trkpt><trkpt lat="42.044895" lon="13.6891633"><ele>1004.0</ele><time>2026-05-02T12:00:54.285Z</time></trkpt><trkpt lat="42.0448633" lon="13.68907"><ele>1003.142857142857</ele><time>2026-05-02T12:00:55.285Z</time></trkpt><trkpt lat="42.0448283" lon="13.68899"><ele>1002.2857142857142</ele><time>2026-05-02T12:00:56.285Z</time></trkpt><trkpt lat="42.044795" lon="13.6889033"><ele>1001.4285714285714</ele><time>2026-05-02T12:00:57.285Z</time></trkpt><trkpt lat="42.0447617" lon="13.688815"><ele>1000.5714285714286</ele><time>2026-05-02T12:00:58.285Z</time></trkpt><trkpt lat="42.0447233" lon="13.688735"><ele>999.7142857142858</ele><time>2026-05-02T12:00:59.285Z</time></trkpt><trkpt lat="42.044685" lon="13.68866"><ele>998.857142857143</ele><time>2026-05-02T12:01:00.285Z</time></trkpt><trkpt lat="42.0446517" lon="13.6885767"><ele>998.0000000000001</ele><time>2026-05-02T12:01:01.285Z</time></trkpt><trkpt lat="42.04459" lon="13.68841"><ele>998.0</ele><time>2026-05-02T12:01:03.285Z</time></trkpt><trkpt lat="42.04453" lon="13.68826"><ele>998.0</ele><time>2026-05-02T12:01:05.285Z</time></trkpt><trkpt lat="42.0444633" lon="13.6881383"><ele>998.0</ele><time>2026-05-02T12:01:07.286Z</time></trkpt><trkpt lat="42.0443917" lon="13.6880217"><ele>998.0</ele><time>2026-05-02T12:01:09.285Z</time></trkpt><trkpt lat="42.0443267" lon="13.6878917"><ele>998.0</ele><time>2026-05-02T12:01:11.285Z</time></trkpt><trkpt lat="42.044265" lon="13.68778"><ele>998.0</ele><time>2026-05-02T12:01:13.285Z</time></trkpt><trkpt lat="42.044215" lon="13.6876583"><ele>998.0</ele><time>2026-05-02T12:01:15.285Z</time></trkpt><trkpt lat="42.044175" lon="13.68754"><ele>998.0</ele><time>2026-05-02T12:01:17.285Z</time></trkpt><trkpt lat="42.0441367" lon="13.6874467"><ele>998.0</ele><time>2026-05-02T12:01:19.285Z</time></trkpt><trkpt lat="42.0440983" lon="13.687365"><ele>997.5999999999999</ele><time>2026-05-02T12:01:21.285Z</time></trkpt><trkpt lat="42.0440588" lon="13.687282"><ele>997.1999999999999</ele><time>2026-05-02T12:01:25.262Z</time></trkpt><trkpt lat="42.0440001" lon="13.687196"><ele>996.8</ele><time>2026-05-02T12:01:29.423Z</time></trkpt><trkpt lat="42.0439117" lon="13.6870533"><ele>996.4</ele><time>2026-05-02T12:01:31.285Z</time></trkpt><trkpt lat="42.0438567" lon="13.68698"><ele>996.0</ele><time>2026-05-02T12:01:34.285Z</time></trkpt><trkpt lat="42.0437983" lon="13.6869017"><ele>992.0</ele><time>2026-05-02T12:01:37.285Z</time></trkpt><trkpt lat="42.0437375" lon="13.6868305"><ele>988.0</ele><time>2026-05-02T12:01:43.342Z</time></trkpt><trkpt lat="42.0436679" lon="13.6867629"><ele>984.0</ele><time>2026-05-02T12:01:46.355Z</time></trkpt><trkpt lat="42.0436057" lon="13.6866801"><ele>980.0</ele><time>2026-05-02T12:01:48.285Z</time></trkpt><trkpt lat="42.0435588" lon="13.6865904"><ele>976.0</ele><time>2026-05-02T12:01:49.286Z</time></trkpt><trkpt lat="42.0435173" lon="13.6864945"><ele>972.0</ele><time>2026-05-02T12:01:50.285Z</time></trkpt><trkpt lat="42.0434717" lon="13.68636"><ele>972.0</ele><time>2026-05-02T12:01:51.285Z</time></trkpt><trkpt lat="42.04343" lon="13.6862467"><ele>972.0</ele><time>2026-05-02T12:01:53.285Z</time></trkpt><trkpt lat="42.043395" lon="13.6861267"><ele>972.0</ele><time>2026-05-02T12:01:55.285Z</time></trkpt><trkpt lat="42.043355" lon="13.6860267"><ele>972.0</ele><time>2026-05-02T12:01:57.285Z</time></trkpt><trkpt lat="42.043305" lon="13.68592"><ele>972.0</ele><time>2026-05-02T12:01:59.285Z</time></trkpt><trkpt lat="42.0432567" lon="13.68581"><ele>973.0</ele><time>2026-05-02T12:02:01.285Z</time></trkpt><trkpt lat="42.0432033" lon="13.6857183"><ele>974.0</ele><time>2026-05-02T12:02:03.285Z</time></trkpt><trkpt lat="42.04315" lon="13.6856333"><ele>975.0</ele><time>2026-05-02T12:02:05.285Z</time></trkpt><trkpt lat="42.0431133" lon="13.6855417"><ele>976.0</ele><time>2026-05-02T12:02:07.285Z</time></trkpt><trkpt lat="42.0430767" lon="13.68544"><ele>977.0</ele><time>2026-05-02T12:02:09.285Z</time></trkpt><trkpt lat="42.0430167" lon="13.6853517"><ele>978.0</ele><time>2026-05-02T12:02:11.285Z</time></trkpt><trkpt lat="42.0429567" lon="13.6852783"><ele>972.4</ele><time>2026-05-02T12:02:13.285Z</time></trkpt><trkpt lat="42.0429" lon="13.685175"><ele>966.8</ele><time>2026-05-02T12:02:15.285Z</time></trkpt><trkpt lat="42.0428367" lon="13.6850767"><ele>961.2</ele><time>2026-05-02T12:02:17.286Z</time></trkpt><trkpt lat="42.0427817" lon="13.68498"><ele>955.6</ele><time>2026-05-02T12:02:19.285Z</time></trkpt><trkpt lat="42.04273" lon="13.6848733"><ele>950.0</ele><time>2026-05-02T12:02:21.285Z</time></trkpt><trkpt lat="42.0426867" lon="13.6847783"><ele>950.0</ele><time>2026-05-02T12:02:23.285Z</time></trkpt><trkpt lat="42.0426133" lon="13.6846717"><ele>950.0</ele><time>2026-05-02T12:02:25.285Z</time></trkpt><trkpt lat="42.0425767" lon="13.6846"><ele>950.0</ele><time>2026-05-02T12:02:26.285Z</time></trkpt><trkpt lat="42.0424867" lon="13.684505"><ele>950.0</ele><time>2026-05-02T12:02:28.285Z</time></trkpt><trkpt lat="42.0424233" lon="13.6843983"><ele>950.0</ele><time>2026-05-02T12:02:30.285Z</time></trkpt><trkpt lat="42.042375" lon="13.6842967"><ele>948.2</ele><time>2026-05-02T12:02:32.286Z</time></trkpt><trkpt lat="42.0423033" lon="13.6842017"><ele>946.4</ele><time>2026-05-02T12:02:34.285Z</time></trkpt><trkpt lat="42.042235" lon="13.6841133"><ele>944.5999999999999</ele><time>2026-05-02T12:02:36.285Z</time></trkpt><trkpt lat="42.0421717" lon="13.6840217"><ele>942.8</ele><time>2026-05-02T12:02:38.285Z</time></trkpt><trkpt lat="42.042115" lon="13.6839333"><ele>941.0</ele><time>2026-05-02T12:02:40.285Z</time></trkpt><trkpt lat="42.0420467" lon="13.683845"><ele>941.0</ele><time>2026-05-02T12:02:42.285Z</time></trkpt><trkpt lat="42.0419667" lon="13.68374"><ele>940.9999999999999</ele><time>2026-05-02T12:02:44.285Z</time></trkpt><trkpt lat="42.0419067" lon="13.6836417"><ele>940.9999999999999</ele><time>2026-05-02T12:02:46.285Z</time></trkpt><trkpt lat="42.0418517" lon="13.68352"><ele>941.0</ele><time>2026-05-02T12:02:48.285Z</time></trkpt><trkpt lat="42.0417817" lon="13.6834017"><ele>941.0</ele><time>2026-05-02T12:02:50.285Z</time></trkpt><trkpt lat="42.0417367" lon="13.68333"><ele>938.4</ele><time>2026-05-02T12:02:51.285Z</time></trkpt><trkpt lat="42.04166" lon="13.6832117"><ele>935.8</ele><time>2026-05-02T12:02:53.285Z</time></trkpt><trkpt lat="42.0415917" lon="13.6830817"><ele>933.1999999999999</ele><time>2026-05-02T12:02:55.285Z</time></trkpt><trkpt lat="42.0415083" lon="13.6829517"><ele>930.5999999999999</ele><time>2026-05-02T12:02:57.286Z</time></trkpt><trkpt lat="42.0414667" lon="13.6828767"><ele>928.0</ele><time>2026-05-02T12:02:58.285Z</time></trkpt><trkpt lat="42.04143" lon="13.6827983"><ele>923.8333333333333</ele><time>2026-05-02T12:02:59.286Z</time></trkpt><trkpt lat="42.0413917" lon="13.6827283"><ele>919.6666666666666</ele><time>2026-05-02T12:03:00.285Z</time></trkpt><trkpt lat="42.04135" lon="13.682655"><ele>915.5</ele><time>2026-05-02T12:03:01.285Z</time></trkpt><trkpt lat="42.0413083" lon="13.6825817"><ele>911.3333333333333</ele><time>2026-05-02T12:03:02.285Z</time></trkpt><trkpt lat="42.0412283" lon="13.6824383"><ele>907.1666666666666</ele><time>2026-05-02T12:03:04.285Z</time></trkpt><trkpt lat="42.0411967" lon="13.6823567"><ele>903.0</ele><time>2026-05-02T12:03:05.285Z</time></trkpt><trkpt lat="42.0411517" lon="13.6822783"><ele>903.0</ele><time>2026-05-02T12:03:06.286Z</time></trkpt><trkpt lat="42.0411117" lon="13.682205"><ele>903.0</ele><time>2026-05-02T12:03:07.285Z</time></trkpt><trkpt lat="42.0410617" lon="13.68213"><ele>903.0</ele><time>2026-05-02T12:03:08.285Z</time></trkpt><trkpt lat="42.04102" lon="13.6820533"><ele>903.0</ele><time>2026-05-02T12:03:09.285Z</time></trkpt><trkpt lat="42.0409683" lon="13.68197"><ele>903.0</ele><time>2026-05-02T12:03:10.285Z</time></trkpt><trkpt lat="42.04092" lon="13.6818833"><ele>903.0</ele><time>2026-05-02T12:03:11.285Z</time></trkpt><trkpt lat="42.040865" lon="13.6817967"><ele>902.0</ele><time>2026-05-02T12:03:12.285Z</time></trkpt><trkpt lat="42.0408083" lon="13.6817233"><ele>901.0</ele><time>2026-05-02T12:03:13.285Z</time></trkpt><trkpt lat="42.040745" lon="13.68164"><ele>900.0</ele><time>2026-05-02T12:03:14.285Z</time></trkpt><trkpt lat="42.0406933" lon="13.6815683"><ele>899.0</ele><time>2026-05-02T12:03:15.286Z</time></trkpt><trkpt lat="42.040645" lon="13.6814817"><ele>898.0</ele><time>2026-05-02T12:03:16.285Z</time></trkpt><trkpt lat="42.0405833" lon="13.6813967"><ele>897.0</ele><time>2026-05-02T12:03:17.285Z</time></trkpt><trkpt lat="42.04052" lon="13.6812983"><ele>897.0</ele><time>2026-05-02T12:03:18.286Z</time></trkpt><trkpt lat="42.040455" lon="13.681215"><ele>897.0</ele><time>2026-05-02T12:03:19.286Z</time></trkpt><trkpt lat="42.0404" lon="13.68113"><ele>897.0</ele><time>2026-05-02T12:03:20.285Z</time></trkpt><trkpt lat="42.0403483" lon="13.68105"><ele>897.0</ele><time>2026-05-02T12:03:21.286Z</time></trkpt><trkpt lat="42.040295" lon="13.680965"><ele>897.0</ele><time>2026-05-02T12:03:22.285Z</time></trkpt><trkpt lat="42.0402417" lon="13.68089"><ele>897.0</ele><time>2026-05-02T12:03:23.285Z</time></trkpt><trkpt lat="42.0401933" lon="13.6807967"><ele>898.0</ele><time>2026-05-02T12:03:24.285Z</time></trkpt><trkpt lat="42.0401467" lon="13.6807067"><ele>899.0</ele><time>2026-05-02T12:03:25.285Z</time></trkpt><trkpt lat="42.0401067" lon="13.68063"><ele>900.0</ele><time>2026-05-02T12:03:26.286Z</time></trkpt><trkpt lat="42.0400617" lon="13.6805533"><ele>901.0</ele><time>2026-05-02T12:03:27.285Z</time></trkpt><trkpt lat="42.040025" lon="13.6804717"><ele>902.0</ele><time>2026-05-02T12:03:28.285Z</time></trkpt><trkpt lat="42.0399867" lon="13.6803883"><ele>903.0</ele><time>2026-05-02T12:03:29.285Z</time></trkpt><trkpt lat="42.0399433" lon="13.6803167"><ele>904.0</ele><time>2026-05-02T12:03:30.285Z</time></trkpt><trkpt lat="42.039905" lon="13.6802467"><ele>900.9999999999999</ele><time>2026-05-02T12:03:31.285Z</time></trkpt><trkpt lat="42.0398567" lon="13.680165"><ele>898.0</ele><time>2026-05-02T12:03:32.286Z</time></trkpt><trkpt lat="42.0398067" lon="13.6800883"><ele>895.0</ele><time>2026-05-02T12:03:33.285Z</time></trkpt><trkpt lat="42.03976" lon="13.6800133"><ele>892.0</ele><time>2026-05-02T12:03:34.285Z</time></trkpt><trkpt lat="42.03971" lon="13.679935"><ele>888.9999999999999</ele><time>2026-05-02T12:03:35.285Z</time></trkpt><trkpt lat="42.0396583" lon="13.6798567"><ele>886.0</ele><time>2026-05-02T12:03:36.286Z</time></trkpt><trkpt lat="42.0396133" lon="13.679775"><ele>886.0</ele><time>2026-05-02T12:03:37.285Z</time></trkpt><trkpt lat="42.03957" lon="13.6796967"><ele>886.0</ele><time>2026-05-02T12:03:38.285Z</time></trkpt><trkpt lat="42.0395267" lon="13.679605"><ele>886.0</ele><time>2026-05-02T12:03:39.285Z</time></trkpt><trkpt lat="42.0394833" lon="13.6795217"><ele>886.0</ele><time>2026-05-02T12:03:40.285Z</time></trkpt><trkpt lat="42.0394417" lon="13.6794383"><ele>886.0</ele><time>2026-05-02T12:03:41.285Z</time></trkpt><trkpt lat="42.0394017" lon="13.679365"><ele>886.0</ele><time>2026-05-02T12:03:42.285Z</time></trkpt><trkpt lat="42.0393633" lon="13.6792967"><ele>886.0</ele><time>2026-05-02T12:03:43.285Z</time></trkpt><trkpt lat="42.0393333" lon="13.6792117"><ele>886.4999999999999</ele><time>2026-05-02T12:03:44.285Z</time></trkpt><trkpt lat="42.03926" lon="13.67909"><ele>887.0</ele><time>2026-05-02T12:03:46.285Z</time></trkpt><trkpt lat="42.0392133" lon="13.6790033"><ele>887.5</ele><time>2026-05-02T12:03:47.286Z</time></trkpt><trkpt lat="42.039175" lon="13.6789217"><ele>888.0</ele><time>2026-05-02T12:03:48.285Z</time></trkpt><trkpt lat="42.0391317" lon="13.6788317"><ele>888.4999999999999</ele><time>2026-05-02T12:03:49.285Z</time></trkpt><trkpt lat="42.0390917" lon="13.6787433"><ele>889.0</ele><time>2026-05-02T12:03:50.285Z</time></trkpt><trkpt lat="42.0390433" lon="13.6786733"><ele>889.0</ele><time>2026-05-02T12:03:51.285Z</time></trkpt><trkpt lat="42.039" lon="13.6786033"><ele>889.0</ele><time>2026-05-02T12:03:52.285Z</time></trkpt><trkpt lat="42.03896" lon="13.67853"><ele>889.0</ele><time>2026-05-02T12:03:53.285Z</time></trkpt><trkpt lat="42.03891" lon="13.678455"><ele>889.0</ele><time>2026-05-02T12:03:54.285Z</time></trkpt><trkpt lat="42.0388633" lon="13.6783683"><ele>889.0</ele><time>2026-05-02T12:03:55.285Z</time></trkpt><trkpt lat="42.0388183" lon="13.6782883"><ele>889.0</ele><time>2026-05-02T12:03:56.285Z</time></trkpt><trkpt lat="42.0387767" lon="13.6781883"><ele>889.0</ele><time>2026-05-02T12:03:57.285Z</time></trkpt><trkpt lat="42.0387183" lon="13.6781067"><ele>886.1666666666666</ele><time>2026-05-02T12:03:58.285Z</time></trkpt><trkpt lat="42.03867" lon="13.6780317"><ele>883.3333333333333</ele><time>2026-05-02T12:03:59.285Z</time></trkpt><trkpt lat="42.0386133" lon="13.677945"><ele>880.5</ele><time>2026-05-02T12:04:00.285Z</time></trkpt><trkpt lat="42.0385633" lon="13.67787"><ele>877.6666666666667</ele><time>2026-05-02T12:04:01.285Z</time></trkpt><trkpt lat="42.0385117" lon="13.6777833"><ele>874.8333333333334</ele><time>2026-05-02T12:04:02.285Z</time></trkpt><trkpt lat="42.0384633" lon="13.6776967"><ele>872.0</ele><time>2026-05-02T12:04:03.285Z</time></trkpt><trkpt lat="42.038415" lon="13.6776133"><ele>870.3333333333334</ele><time>2026-05-02T12:04:04.285Z</time></trkpt><trkpt lat="42.038365" lon="13.6775283"><ele>868.6666666666667</ele><time>2026-05-02T12:04:05.285Z</time></trkpt><trkpt lat="42.0383183" lon="13.6774433"><ele>867.0</ele><time>2026-05-02T12:04:06.285Z</time></trkpt><trkpt lat="42.0382633" lon="13.6773633"><ele>865.3333333333333</ele><time>2026-05-02T12:04:07.285Z</time></trkpt><trkpt lat="42.0382067" lon="13.6773"><ele>863.6666666666666</ele><time>2026-05-02T12:04:08.285Z</time></trkpt><trkpt lat="42.0381367" lon="13.6772367"><ele>862.0</ele><time>2026-05-02T12:04:09.285Z</time></trkpt><trkpt lat="42.0380683" lon="13.6771583"><ele>861.9999999999999</ele><time>2026-05-02T12:04:10.285Z</time></trkpt><trkpt lat="42.0380067" lon="13.6770667"><ele>862.0</ele><time>2026-05-02T12:04:11.285Z</time></trkpt><trkpt lat="42.0379417" lon="13.6769983"><ele>862.0</ele><time>2026-05-02T12:04:12.285Z</time></trkpt><trkpt lat="42.037875" lon="13.6769167"><ele>862.0</ele><time>2026-05-02T12:04:13.285Z</time></trkpt><trkpt lat="42.0378083" lon="13.6768433"><ele>861.9999999999999</ele><time>2026-05-02T12:04:14.285Z</time></trkpt><trkpt lat="42.0377517" lon="13.676775"><ele>862.0</ele><time>2026-05-02T12:04:15.285Z</time></trkpt><trkpt lat="42.0377" lon="13.676695"><ele>860.1428571428572</ele><time>2026-05-02T12:04:16.285Z</time></trkpt><trkpt lat="42.0376483" lon="13.67663"><ele>858.2857142857142</ele><time>2026-05-02T12:04:17.285Z</time></trkpt><trkpt lat="42.0375967" lon="13.6765617"><ele>856.4285714285714</ele><time>2026-05-02T12:04:18.285Z</time></trkpt><trkpt lat="42.0375317" lon="13.6765067"><ele>854.5714285714287</ele><time>2026-05-02T12:04:19.285Z</time></trkpt><trkpt lat="42.0374733" lon="13.676435"><ele>852.7142857142858</ele><time>2026-05-02T12:04:20.285Z</time></trkpt><trkpt lat="42.03742" lon="13.6763667"><ele>850.8571428571429</ele><time>2026-05-02T12:04:21.285Z</time></trkpt><trkpt lat="42.0373783" lon="13.67628"><ele>849.0</ele><time>2026-05-02T12:04:22.285Z</time></trkpt><trkpt lat="42.0373383" lon="13.6761883"><ele>849.0</ele><time>2026-05-02T12:04:23.285Z</time></trkpt><trkpt lat="42.037295" lon="13.6761117"><ele>849.0</ele><time>2026-05-02T12:04:24.285Z</time></trkpt><trkpt lat="42.0372383" lon="13.6760383"><ele>849.0</ele><time>2026-05-02T12:04:25.285Z</time></trkpt><trkpt lat="42.0371817" lon="13.67598"><ele>849.0</ele><time>2026-05-02T12:04:26.285Z</time></trkpt><trkpt lat="42.03712" lon="13.6759167"><ele>849.0</ele><time>2026-05-02T12:04:27.285Z</time></trkpt><trkpt lat="42.0370567" lon="13.6758467"><ele>849.0</ele><time>2026-05-02T12:04:28.285Z</time></trkpt><trkpt lat="42.0369933" lon="13.675785"><ele>847.4285714285714</ele><time>2026-05-02T12:04:29.285Z</time></trkpt><trkpt lat="42.03693" lon="13.6757183"><ele>845.8571428571429</ele><time>2026-05-02T12:04:30.285Z</time></trkpt><trkpt lat="42.036865" lon="13.675665"><ele>844.2857142857142</ele><time>2026-05-02T12:04:31.285Z</time></trkpt><trkpt lat="42.0367967" lon="13.6756033"><ele>842.7142857142858</ele><time>2026-05-02T12:04:32.285Z</time></trkpt><trkpt lat="42.0367333" lon="13.675555"><ele>841.1428571428571</ele><time>2026-05-02T12:04:33.285Z</time></trkpt><trkpt lat="42.036675" lon="13.675505"><ele>839.5714285714286</ele><time>2026-05-02T12:04:34.285Z</time></trkpt><trkpt lat="42.0366183" lon="13.6754633"><ele>838.0</ele><time>2026-05-02T12:04:35.285Z</time></trkpt><trkpt lat="42.03656" lon="13.675425"><ele>838.0</ele><time>2026-05-02T12:04:36.285Z</time></trkpt><trkpt lat="42.0364983" lon="13.67538"><ele>838.0</ele><time>2026-05-02T12:04:37.285Z</time></trkpt><trkpt lat="42.0363967" lon="13.67529"><ele>838.0</ele><time>2026-05-02T12:04:39.285Z</time></trkpt><trkpt lat="42.03629" lon="13.6752367"><ele>838.0</ele><time>2026-05-02T12:04:41.285Z</time></trkpt><trkpt lat="42.0361683" lon="13.67524"><ele>838.0</ele><time>2026-05-02T12:04:43.285Z</time></trkpt><trkpt lat="42.0361033" lon="13.67524"><ele>836.4999999999999</ele><time>2026-05-02T12:04:44.285Z</time></trkpt><trkpt lat="42.0360367" lon="13.6752383"><ele>835.0</ele><time>2026-05-02T12:04:45.285Z</time></trkpt><trkpt lat="42.0359667" lon="13.6752183"><ele>833.5</ele><time>2026-05-02T12:04:46.285Z</time></trkpt><trkpt lat="42.035855" lon="13.6751983"><ele>832.0</ele><time>2026-05-02T12:04:48.285Z</time></trkpt><trkpt lat="42.0357583" lon="13.675175"><ele>830.4999999999999</ele><time>2026-05-02T12:04:50.285Z</time></trkpt><trkpt lat="42.0356683" lon="13.67518"><ele>829.0</ele><time>2026-05-02T12:04:52.285Z</time></trkpt><trkpt lat="42.0355783" lon="13.6751417"><ele>828.25</ele><time>2026-05-02T12:04:54.285Z</time></trkpt><trkpt lat="42.0355083" lon="13.6750117"><ele>827.5</ele><time>2026-05-02T12:04:56.285Z</time></trkpt><trkpt lat="42.03544" lon="13.6748683"><ele>826.75</ele><time>2026-05-02T12:04:58.285Z</time></trkpt><trkpt lat="42.0353733" lon="13.67476"><ele>826.0</ele><time>2026-05-02T12:05:00.285Z</time></trkpt><trkpt lat="42.0352667" lon="13.6747083"><ele>826.0</ele><time>2026-05-02T12:05:02.285Z</time></trkpt><trkpt lat="42.0351683" lon="13.6747"><ele>826.0</ele><time>2026-05-02T12:05:04.285Z</time></trkpt><trkpt lat="42.0350633" lon="13.6746817"><ele>826.0</ele><time>2026-05-02T12:05:06.286Z</time></trkpt><trkpt lat="42.034965" lon="13.674645"><ele>826.0</ele><time>2026-05-02T12:05:08.285Z</time></trkpt><trkpt lat="42.0348833" lon="13.6746"><ele>826.0</ele><time>2026-05-02T12:05:10.285Z</time></trkpt><trkpt lat="42.0348083" lon="13.6745333"><ele>822.1999999999999</ele><time>2026-05-02T12:05:12.285Z</time></trkpt><trkpt lat="42.03476" lon="13.674425"><ele>818.4</ele><time>2026-05-02T12:05:14.285Z</time></trkpt><trkpt lat="42.0347283" lon="13.6742817"><ele>814.6</ele><time>2026-05-02T12:05:16.285Z</time></trkpt><trkpt lat="42.0347167" lon="13.6741933"><ele>810.8</ele><time>2026-05-02T12:05:17.285Z</time></trkpt><trkpt lat="42.0346983" lon="13.6740233"><ele>807.0</ele><time>2026-05-02T12:05:19.285Z</time></trkpt><trkpt lat="42.0346817" lon="13.67386"><ele>807.0</ele><time>2026-05-02T12:05:21.285Z</time></trkpt><trkpt lat="42.034715" lon="13.6737"><ele>807.0</ele><time>2026-05-02T12:05:23.285Z</time></trkpt><trkpt lat="42.03474" lon="13.6736183"><ele>807.0</ele><time>2026-05-02T12:05:24.285Z</time></trkpt><trkpt lat="42.03477" lon="13.67354"><ele>807.0</ele><time>2026-05-02T12:05:25.285Z</time></trkpt><trkpt lat="42.0348017" lon="13.6734517"><ele>807.0</ele><time>2026-05-02T12:05:26.285Z</time></trkpt><trkpt lat="42.0348383" lon="13.673355"><ele>807.0</ele><time>2026-05-02T12:05:27.285Z</time></trkpt><trkpt lat="42.0348683" lon="13.6732433"><ele>808.5</ele><time>2026-05-02T12:05:28.285Z</time></trkpt><trkpt lat="42.0349083" lon="13.673115"><ele>810.0</ele><time>2026-05-02T12:05:29.285Z</time></trkpt><trkpt lat="42.0349317" lon="13.6730083"><ele>811.5</ele><time>2026-05-02T12:05:30.285Z</time></trkpt><trkpt lat="42.0349633" lon="13.67292"><ele>813.0</ele><time>2026-05-02T12:05:31.285Z</time></trkpt><trkpt lat="42.0350017" lon="13.672825"><ele>814.5</ele><time>2026-05-02T12:05:32.285Z</time></trkpt><trkpt lat="42.0350433" lon="13.6727233"><ele>816.0</ele><time>2026-05-02T12:05:33.285Z</time></trkpt><trkpt lat="42.0350917" lon="13.6726217"><ele>818.3333333333334</ele><time>2026-05-02T12:05:34.285Z</time></trkpt><trkpt lat="42.0351367" lon="13.6725183"><ele>820.6666666666667</ele><time>2026-05-02T12:05:35.285Z</time></trkpt><trkpt lat="42.0351817" lon="13.6724133"><ele>823.0</ele><time>2026-05-02T12:05:36.285Z</time></trkpt><trkpt lat="42.0352267" lon="13.672315"><ele>825.3333333333334</ele><time>2026-05-02T12:05:37.285Z</time></trkpt><trkpt lat="42.0352683" lon="13.6722283"><ele>827.6666666666667</ele><time>2026-05-02T12:05:38.285Z</time></trkpt><trkpt lat="42.0353083" lon="13.6721333"><ele>830.0</ele><time>2026-05-02T12:05:39.285Z</time></trkpt><trkpt lat="42.03534" lon="13.6720217"><ele>831.0</ele><time>2026-05-02T12:05:40.285Z</time></trkpt><trkpt lat="42.0353683" lon="13.6718917"><ele>832.0</ele><time>2026-05-02T12:05:41.285Z</time></trkpt><trkpt lat="42.035395" lon="13.6717833"><ele>833.0</ele><time>2026-05-02T12:05:42.285Z</time></trkpt><trkpt lat="42.03542" lon="13.6716633"><ele>834.0</ele><time>2026-05-02T12:05:43.285Z</time></trkpt><trkpt lat="42.0354417" lon="13.6715533"><ele>835.0</ele><time>2026-05-02T12:05:44.285Z</time></trkpt><trkpt lat="42.0354767" lon="13.67143"><ele>835.0</ele><time>2026-05-02T12:05:45.285Z</time></trkpt><trkpt lat="42.0355083" lon="13.6713233"><ele>835.0</ele><time>2026-05-02T12:05:46.285Z</time></trkpt><trkpt lat="42.0355333" lon="13.6712067"><ele>835.0</ele><time>2026-05-02T12:05:47.285Z</time></trkpt><trkpt lat="42.0355583" lon="13.6710883"><ele>835.0</ele><time>2026-05-02T12:05:48.285Z</time></trkpt><trkpt lat="42.0355783" lon="13.6709583"><ele>835.0</ele><time>2026-05-02T12:05:49.285Z</time></trkpt><trkpt lat="42.0355967" lon="13.670845"><ele>836.2</ele><time>2026-05-02T12:05:50.285Z</time></trkpt><trkpt lat="42.0356067" lon="13.670685"><ele>837.4</ele><time>2026-05-02T12:05:51.285Z</time></trkpt><trkpt lat="42.0356267" lon="13.67054"><ele>838.5999999999999</ele><time>2026-05-02T12:05:52.285Z</time></trkpt><trkpt lat="42.0356417" lon="13.6703983"><ele>839.8</ele><time>2026-05-02T12:05:53.286Z</time></trkpt><trkpt lat="42.0356533" lon="13.6702933"><ele>841.0</ele><time>2026-05-02T12:05:54.286Z</time></trkpt><trkpt lat="42.0356533" lon="13.67017"><ele>841.4</ele><time>2026-05-02T12:05:55.286Z</time></trkpt><trkpt lat="42.0356567" lon="13.670055"><ele>841.8</ele><time>2026-05-02T12:05:56.285Z</time></trkpt><trkpt lat="42.0356417" lon="13.6699133"><ele>842.1999999999999</ele><time>2026-05-02T12:05:57.285Z</time></trkpt><trkpt lat="42.0356217" lon="13.6697867"><ele>842.5999999999999</ele><time>2026-05-02T12:05:58.285Z</time></trkpt><trkpt lat="42.035605" lon="13.669665"><ele>843.0</ele><time>2026-05-02T12:05:59.285Z</time></trkpt><trkpt lat="42.0355917" lon="13.6695483"><ele>843.1666666666666</ele><time>2026-05-02T12:06:00.286Z</time></trkpt><trkpt lat="42.035585" lon="13.66944"><ele>843.3333333333333</ele><time>2026-05-02T12:06:01.286Z</time></trkpt><trkpt lat="42.0356033" lon="13.6693583"><ele>843.5</ele><time>2026-05-02T12:06:02.285Z</time></trkpt><trkpt lat="42.0356383" lon="13.6692667"><ele>843.6666666666666</ele><time>2026-05-02T12:06:03.285Z</time></trkpt><trkpt lat="42.0356933" lon="13.6691933"><ele>843.8333333333333</ele><time>2026-05-02T12:06:04.286Z</time></trkpt><trkpt lat="42.0357567" lon="13.669115"><ele>844.0</ele><time>2026-05-02T12:06:05.285Z</time></trkpt><trkpt lat="42.0358283" lon="13.6690417"><ele>843.4999999999999</ele><time>2026-05-02T12:06:06.285Z</time></trkpt><trkpt lat="42.0359067" lon="13.6689733"><ele>843.0</ele><time>2026-05-02T12:06:07.285Z</time></trkpt><trkpt lat="42.0359833" lon="13.6689083"><ele>842.5</ele><time>2026-05-02T12:06:08.285Z</time></trkpt><trkpt lat="42.0360517" lon="13.668835"><ele>842.0</ele><time>2026-05-02T12:06:09.285Z</time></trkpt><trkpt lat="42.0361233" lon="13.668775"><ele>841.4999999999999</ele><time>2026-05-02T12:06:10.285Z</time></trkpt><trkpt lat="42.0361933" lon="13.668735"><ele>841.0</ele><time>2026-05-02T12:06:11.285Z</time></trkpt><trkpt lat="42.0362817" lon="13.668655"><ele>840.9999999999999</ele><time>2026-05-02T12:06:13.285Z</time></trkpt><trkpt lat="42.0363283" lon="13.6685867"><ele>841.0</ele><time>2026-05-02T12:06:15.286Z</time></trkpt><trkpt lat="42.0364167" lon="13.66856"><ele>841.0</ele><time>2026-05-02T12:06:18.285Z</time></trkpt><trkpt lat="42.0364817" lon="13.6685967"><ele>841.0</ele><time>2026-05-02T12:06:19.285Z</time></trkpt><trkpt lat="42.0365633" lon="13.66863"><ele>840.9999999999999</ele><time>2026-05-02T12:06:20.285Z</time></trkpt><trkpt lat="42.0366467" lon="13.668655"><ele>841.0</ele><time>2026-05-02T12:06:21.285Z</time></trkpt><trkpt lat="42.0367367" lon="13.6686833"><ele>842.4999999999999</ele><time>2026-05-02T12:06:22.285Z</time></trkpt><trkpt lat="42.036825" lon="13.6687133"><ele>844.0</ele><time>2026-05-02T12:06:23.285Z</time></trkpt><trkpt lat="42.03693" lon="13.6687533"><ele>845.5</ele><time>2026-05-02T12:06:24.286Z</time></trkpt><trkpt lat="42.0370117" lon="13.668775"><ele>847.0</ele><time>2026-05-02T12:06:25.285Z</time></trkpt><trkpt lat="42.0370817" lon="13.6688"><ele>848.4999999999999</ele><time>2026-05-02T12:06:26.285Z</time></trkpt><trkpt lat="42.0371617" lon="13.66882"><ele>850.0</ele><time>2026-05-02T12:06:28.286Z</time></trkpt><trkpt lat="42.0372183" lon="13.66878"><ele>849.9999999999999</ele><time>2026-05-02T12:06:31.285Z</time></trkpt><trkpt lat="42.03726" lon="13.6686767"><ele>850.0</ele><time>2026-05-02T12:06:33.285Z</time></trkpt><trkpt lat="42.0373117" lon="13.6685483"><ele>850.0</ele><time>2026-05-02T12:06:35.285Z</time></trkpt><trkpt lat="42.0373383" lon="13.668405"><ele>850.0</ele><time>2026-05-02T12:06:37.285Z</time></trkpt><trkpt lat="42.0373517" lon="13.6683167"><ele>849.9999999999999</ele><time>2026-05-02T12:06:38.285Z</time></trkpt><trkpt lat="42.0373683" lon="13.668225"><ele>850.0</ele><time>2026-05-02T12:06:39.285Z</time></trkpt><trkpt lat="42.0373868" lon="13.6681244"><ele>850.1666666666666</ele><time>2026-05-02T12:06:40.285Z</time></trkpt><trkpt lat="42.0374063" lon="13.6680221"><ele>850.3333333333333</ele><time>2026-05-02T12:06:41.285Z</time></trkpt><trkpt lat="42.0374277" lon="13.6679116"><ele>850.5</ele><time>2026-05-02T12:06:42.285Z</time></trkpt><trkpt lat="42.037448" lon="13.6678047"><ele>850.6666666666667</ele><time>2026-05-02T12:06:43.285Z</time></trkpt><trkpt lat="42.0374651" lon="13.6676948"><ele>850.8333333333334</ele><time>2026-05-02T12:06:44.285Z</time></trkpt><trkpt lat="42.0374786" lon="13.6675878"><ele>851.0</ele><time>2026-05-02T12:06:45.285Z</time></trkpt><trkpt lat="42.0374899" lon="13.6674743"><ele>851.3333333333334</ele><time>2026-05-02T12:06:46.285Z</time></trkpt><trkpt lat="42.0374997" lon="13.6673626"><ele>851.6666666666667</ele><time>2026-05-02T12:06:47.286Z</time></trkpt><trkpt lat="42.0375121" lon="13.6672529"><ele>852.0</ele><time>2026-05-02T12:06:48.285Z</time></trkpt><trkpt lat="42.0375309" lon="13.6671447"><ele>852.3333333333333</ele><time>2026-05-02T12:06:49.285Z</time></trkpt><trkpt lat="42.0375525" lon="13.6670296"><ele>852.6666666666666</ele><time>2026-05-02T12:06:50.285Z</time></trkpt><trkpt lat="42.0375839" lon="13.6669199"><ele>853.0</ele><time>2026-05-02T12:06:51.285Z</time></trkpt><trkpt lat="42.0376355" lon="13.6668165"><ele>853.0</ele><time>2026-05-02T12:06:52.285Z</time></trkpt><trkpt lat="42.0377011" lon="13.6667094"><ele>853.0</ele><time>2026-05-02T12:06:53.285Z</time></trkpt><trkpt lat="42.0377708" lon="13.6666"><ele>853.0</ele><time>2026-05-02T12:06:54.285Z</time></trkpt><trkpt lat="42.0378363" lon="13.6664806"><ele>853.0</ele><time>2026-05-02T12:06:55.286Z</time></trkpt><trkpt lat="42.0378898" lon="13.6663429"><ele>853.0</ele><time>2026-05-02T12:06:56.285Z</time></trkpt><trkpt lat="42.0379313" lon="13.666187"><ele>853.0</ele><time>2026-05-02T12:06:57.285Z</time></trkpt><trkpt lat="42.0379629" lon="13.6660269"><ele>853.0</ele><time>2026-05-02T12:06:58.285Z</time></trkpt><trkpt lat="42.0379922" lon="13.6658634"><ele>853.0</ele><time>2026-05-02T12:06:59.285Z</time></trkpt><trkpt lat="42.038017" lon="13.665702"><ele>853.0</ele><time>2026-05-02T12:07:00.285Z</time></trkpt><trkpt lat="42.0380401" lon="13.6655341"><ele>853.0</ele><time>2026-05-02T12:07:01.286Z</time></trkpt><trkpt lat="42.0380554" lon="13.6653598"><ele>853.0</ele><time>2026-05-02T12:07:02.285Z</time></trkpt><trkpt lat="42.0380758" lon="13.665189"><ele>853.0</ele><time>2026-05-02T12:07:03.285Z</time></trkpt><trkpt lat="42.0381067" lon="13.6650272"><ele>853.0</ele><time>2026-05-02T12:07:04.285Z</time></trkpt><trkpt lat="42.0381417" lon="13.6648641"><ele>853.25</ele><time>2026-05-02T12:07:05.285Z</time></trkpt><trkpt lat="42.0381811" lon="13.6647045"><ele>853.5</ele><time>2026-05-02T12:07:06.285Z</time></trkpt><trkpt lat="42.0382196" lon="13.6645433"><ele>853.75</ele><time>2026-05-02T12:07:07.285Z</time></trkpt><trkpt lat="42.0382603" lon="13.6643849"><ele>854.0</ele><time>2026-05-02T12:07:08.286Z</time></trkpt><trkpt lat="42.0383002" lon="13.6642304"><ele>854.5</ele><time>2026-05-02T12:07:09.285Z</time></trkpt><trkpt lat="42.0383369" lon="13.6640769"><ele>855.0</ele><time>2026-05-02T12:07:10.285Z</time></trkpt><trkpt lat="42.0383692" lon="13.6639234"><ele>855.5</ele><time>2026-05-02T12:07:11.286Z</time></trkpt><trkpt lat="42.0383972" lon="13.6637665"><ele>856.0</ele><time>2026-05-02T12:07:12.285Z</time></trkpt><trkpt lat="42.038425" lon="13.6636033"><ele>856.25</ele><time>2026-05-02T12:07:13.285Z</time></trkpt><trkpt lat="42.0384517" lon="13.663435"><ele>856.5</ele><time>2026-05-02T12:07:14.285Z</time></trkpt><trkpt lat="42.0384817" lon="13.6632767"><ele>856.75</ele><time>2026-05-02T12:07:15.285Z</time></trkpt><trkpt lat="42.0385167" lon="13.6631283"><ele>857.0</ele><time>2026-05-02T12:07:16.285Z</time></trkpt><trkpt lat="42.0385617" lon="13.6629917"><ele>857.0</ele><time>2026-05-02T12:07:17.285Z</time></trkpt><trkpt lat="42.03861" lon="13.6628517"><ele>857.0</ele><time>2026-05-02T12:07:18.285Z</time></trkpt><trkpt lat="42.03866" lon="13.66272"><ele>857.0</ele><time>2026-05-02T12:07:19.285Z</time></trkpt><trkpt lat="42.0387" lon="13.662565"><ele>857.0</ele><time>2026-05-02T12:07:20.285Z</time></trkpt><trkpt lat="42.0387367" lon="13.6624217"><ele>857.6</ele><time>2026-05-02T12:07:21.285Z</time></trkpt><trkpt lat="42.0387817" lon="13.6622967"><ele>858.2</ele><time>2026-05-02T12:07:22.285Z</time></trkpt><trkpt lat="42.0388183" lon="13.66216"><ele>858.8</ele><time>2026-05-02T12:07:23.285Z</time></trkpt><trkpt lat="42.0388517" lon="13.66201"><ele>859.4</ele><time>2026-05-02T12:07:24.285Z</time></trkpt><trkpt lat="42.038885" lon="13.661855"><ele>860.0</ele><time>2026-05-02T12:07:25.285Z</time></trkpt><trkpt lat="42.0389283" lon="13.6616983"><ele>859.75</ele><time>2026-05-02T12:07:26.285Z</time></trkpt><trkpt lat="42.0389817" lon="13.6615383"><ele>859.5</ele><time>2026-05-02T12:07:27.285Z</time></trkpt><trkpt lat="42.0390367" lon="13.6613867"><ele>859.25</ele><time>2026-05-02T12:07:28.285Z</time></trkpt><trkpt lat="42.0390933" lon="13.6612367"><ele>859.0</ele><time>2026-05-02T12:07:29.286Z</time></trkpt><trkpt lat="42.0391517" lon="13.6610767"><ele>859.0</ele><time>2026-05-02T12:07:30.285Z</time></trkpt><trkpt lat="42.0391983" lon="13.66094"><ele>859.0</ele><time>2026-05-02T12:07:31.285Z</time></trkpt><trkpt lat="42.0392467" lon="13.660785"><ele>859.0</ele><time>2026-05-02T12:07:32.285Z</time></trkpt><trkpt lat="42.0393133" lon="13.6606417"><ele>859.0</ele><time>2026-05-02T12:07:33.285Z</time></trkpt><trkpt lat="42.0393683" lon="13.6604633"><ele>859.0</ele><time>2026-05-02T12:07:34.286Z</time></trkpt><trkpt lat="42.0394167" lon="13.6602867"><ele>859.0</ele><time>2026-05-02T12:07:35.285Z</time></trkpt><trkpt lat="42.03946" lon="13.6601067"><ele>859.0</ele><time>2026-05-02T12:07:36.285Z</time></trkpt><trkpt lat="42.0395067" lon="13.6599483"><ele>859.0</ele><time>2026-05-02T12:07:37.285Z</time></trkpt><trkpt lat="42.0395583" lon="13.6597817"><ele>859.0</ele><time>2026-05-02T12:07:38.285Z</time></trkpt><trkpt lat="42.0396067" lon="13.6596133"><ele>859.0</ele><time>2026-05-02T12:07:39.285Z</time></trkpt><trkpt lat="42.0396683" lon="13.659475"><ele>859.0</ele><time>2026-05-02T12:07:40.285Z</time></trkpt><trkpt lat="42.039725" lon="13.6593417"><ele>859.0</ele><time>2026-05-02T12:07:41.285Z</time></trkpt><trkpt lat="42.0397867" lon="13.6592033"><ele>859.2</ele><time>2026-05-02T12:07:42.286Z</time></trkpt><trkpt lat="42.039845" lon="13.6590717"><ele>859.4000000000001</ele><time>2026-05-02T12:07:43.285Z</time></trkpt><trkpt lat="42.0399033" lon="13.658955"><ele>859.6</ele><time>2026-05-02T12:07:44.285Z</time></trkpt><trkpt lat="42.0399683" lon="13.6588517"><ele>859.8</ele><time>2026-05-02T12:07:45.285Z</time></trkpt><trkpt lat="42.0400517" lon="13.6587667"><ele>860.0</ele><time>2026-05-02T12:07:46.285Z</time></trkpt><trkpt lat="42.0401433" lon="13.6586817"><ele>859.25</ele><time>2026-05-02T12:07:47.285Z</time></trkpt><trkpt lat="42.040245" lon="13.6585983"><ele>858.5</ele><time>2026-05-02T12:07:48.285Z</time></trkpt><trkpt lat="42.0403517" lon="13.65852"><ele>857.75</ele><time>2026-05-02T12:07:49.285Z</time></trkpt><trkpt lat="42.0404583" lon="13.658435"><ele>857.0</ele><time>2026-05-02T12:07:50.285Z</time></trkpt><trkpt lat="42.040575" lon="13.6583417"><ele>857.0</ele><time>2026-05-02T12:07:51.285Z</time></trkpt><trkpt lat="42.0406967" lon="13.65826"><ele>857.0</ele><time>2026-05-02T12:07:52.285Z</time></trkpt><trkpt lat="42.0408167" lon="13.6581733"><ele>857.0</ele><time>2026-05-02T12:07:53.285Z</time></trkpt><trkpt lat="42.04094" lon="13.6580833"><ele>857.0</ele><time>2026-05-02T12:07:54.285Z</time></trkpt><trkpt lat="42.0410633" lon="13.6579983"><ele>857.25</ele><time>2026-05-02T12:07:55.285Z</time></trkpt><trkpt lat="42.0411783" lon="13.6579067"><ele>857.5</ele><time>2026-05-02T12:07:56.285Z</time></trkpt><trkpt lat="42.0412817" lon="13.6578267"><ele>857.75</ele><time>2026-05-02T12:07:57.285Z</time></trkpt><trkpt lat="42.041395" lon="13.65776"><ele>858.0</ele><time>2026-05-02T12:07:58.285Z</time></trkpt><trkpt lat="42.0415" lon="13.6576983"><ele>858.0</ele><time>2026-05-02T12:07:59.285Z</time></trkpt><trkpt lat="42.0416133" lon="13.65763"><ele>858.0</ele><time>2026-05-02T12:08:00.285Z</time></trkpt><trkpt lat="42.0417283" lon="13.6575667"><ele>858.0</ele><time>2026-05-02T12:08:01.285Z</time></trkpt><trkpt lat="42.0418383" lon="13.6574917"><ele>858.0</ele><time>2026-05-02T12:08:02.285Z</time></trkpt><trkpt lat="42.04195" lon="13.6574333"><ele>858.4</ele><time>2026-05-02T12:08:03.285Z</time></trkpt><trkpt lat="42.042055" lon="13.6573833"><ele>858.8</ele><time>2026-05-02T12:08:04.285Z</time></trkpt><trkpt lat="42.0421433" lon="13.6573267"><ele>859.2</ele><time>2026-05-02T12:08:05.285Z</time></trkpt><trkpt lat="42.0422217" lon="13.65728"><ele>859.6</ele><time>2026-05-02T12:08:06.285Z</time></trkpt><trkpt lat="42.0422867" lon="13.6572533"><ele>860.0</ele><time>2026-05-02T12:08:07.285Z</time></trkpt><trkpt lat="42.0424" lon="13.657235"><ele>859.75</ele><time>2026-05-02T12:08:09.285Z</time></trkpt><trkpt lat="42.0424967" lon="13.6572867"><ele>859.5</ele><time>2026-05-02T12:08:11.285Z</time></trkpt><trkpt lat="42.0425583" lon="13.657425"><ele>859.25</ele><time>2026-05-02T12:08:13.285Z</time></trkpt><trkpt lat="42.042605" lon="13.6575783"><ele>859.0</ele><time>2026-05-02T12:08:15.285Z</time></trkpt><trkpt lat="42.04263" lon="13.6577567"><ele>858.9999999999999</ele><time>2026-05-02T12:08:17.285Z</time></trkpt><trkpt lat="42.0426533" lon="13.6578533"><ele>859.0</ele><time>2026-05-02T12:08:18.285Z</time></trkpt><trkpt lat="42.0426733" lon="13.6579483"><ele>859.0</ele><time>2026-05-02T12:08:19.285Z</time></trkpt><trkpt lat="42.0427133" lon="13.6581"><ele>859.0</ele><time>2026-05-02T12:08:21.285Z</time></trkpt><trkpt lat="42.0427783" lon="13.6581917"><ele>858.9999999999999</ele><time>2026-05-02T12:08:23.285Z</time></trkpt><trkpt lat="42.0428583" lon="13.65819"><ele>859.0</ele><time>2026-05-02T12:08:25.285Z</time></trkpt><trkpt lat="42.0429133" lon="13.658145"><ele>858.9999999999999</ele><time>2026-05-02T12:08:26.285Z</time></trkpt><trkpt lat="42.0429783" lon="13.658115"><ele>859.0</ele><time>2026-05-02T12:08:27.285Z</time></trkpt><trkpt lat="42.0430483" lon="13.658065"><ele>859.0</ele><time>2026-05-02T12:08:28.285Z</time></trkpt><trkpt lat="42.0431233" lon="13.6580167"><ele>859.0</ele><time>2026-05-02T12:08:29.285Z</time></trkpt><trkpt lat="42.0432017" lon="13.657965"><ele>858.9999999999999</ele><time>2026-05-02T12:08:30.285Z</time></trkpt><trkpt lat="42.0432817" lon="13.65791"><ele>859.0</ele><time>2026-05-02T12:08:31.285Z</time></trkpt><trkpt lat="42.04337" lon="13.6578567"><ele>859.2</ele><time>2026-05-02T12:08:32.285Z</time></trkpt><trkpt lat="42.04346" lon="13.65781"><ele>859.4000000000001</ele><time>2026-05-02T12:08:33.285Z</time></trkpt><trkpt lat="42.043555" lon="13.6577533"><ele>859.6</ele><time>2026-05-02T12:08:34.285Z</time></trkpt><trkpt lat="42.043645" lon="13.65771"><ele>859.8</ele><time>2026-05-02T12:08:35.286Z</time></trkpt><trkpt lat="42.0437333" lon="13.6576683"><ele>860.0</ele><time>2026-05-02T12:08:36.286Z</time></trkpt><trkpt lat="42.0438167" lon="13.6576333"><ele>860.1666666666667</ele><time>2026-05-02T12:08:37.285Z</time></trkpt><trkpt lat="42.043895" lon="13.6575883"><ele>860.3333333333334</ele><time>2026-05-02T12:08:38.285Z</time></trkpt><trkpt lat="42.0439667" lon="13.6575483"><ele>860.5</ele><time>2026-05-02T12:08:39.285Z</time></trkpt><trkpt lat="42.0440333" lon="13.65754"><ele>860.6666666666667</ele><time>2026-05-02T12:08:40.285Z</time></trkpt><trkpt lat="42.0441067" lon="13.6575417"><ele>860.8333333333334</ele><time>2026-05-02T12:08:41.286Z</time></trkpt><trkpt lat="42.04418" lon="13.6575633"><ele>861.0</ele><time>2026-05-02T12:08:42.285Z</time></trkpt><trkpt lat="42.044265" lon="13.65758"><ele>861.0</ele><time>2026-05-02T12:08:43.285Z</time></trkpt><trkpt lat="42.0443533" lon="13.6575717"><ele>861.0</ele><time>2026-05-02T12:08:44.285Z</time></trkpt><trkpt lat="42.0444467" lon="13.6575433"><ele>861.0</ele><time>2026-05-02T12:08:45.285Z</time></trkpt><trkpt lat="42.0445317" lon="13.6575083"><ele>861.0</ele><time>2026-05-02T12:08:46.286Z</time></trkpt><trkpt lat="42.0446117" lon="13.6574733"><ele>861.0</ele><time>2026-05-02T12:08:47.285Z</time></trkpt><trkpt lat="42.0446833" lon="13.65745"><ele>861.0</ele><time>2026-05-02T12:08:48.285Z</time></trkpt><trkpt lat="42.0447483" lon="13.6574167"><ele>861.0</ele><time>2026-05-02T12:08:49.285Z</time></trkpt><trkpt lat="42.0448167" lon="13.657375"><ele>861.0</ele><time>2026-05-02T12:08:50.285Z</time></trkpt><trkpt lat="42.044895" lon="13.6573517"><ele>861.0</ele><time>2026-05-02T12:08:51.285Z</time></trkpt><trkpt lat="42.0449867" lon="13.6573283"><ele>861.0</ele><time>2026-05-02T12:08:52.285Z</time></trkpt><trkpt lat="42.0450767" lon="13.6573083"><ele>861.0</ele><time>2026-05-02T12:08:53.285Z</time></trkpt><trkpt lat="42.0451433" lon="13.6572817"><ele>861.0</ele><time>2026-05-02T12:08:54.285Z</time></trkpt><trkpt lat="42.04521" lon="13.6572767"><ele>861.4</ele><time>2026-05-02T12:08:55.285Z</time></trkpt><trkpt lat="42.0452867" lon="13.657265"><ele>861.8</ele><time>2026-05-02T12:08:56.285Z</time></trkpt><trkpt lat="42.045355" lon="13.6572583"><ele>862.1999999999999</ele><time>2026-05-02T12:08:57.285Z</time></trkpt><trkpt lat="42.0454367" lon="13.657235"><ele>862.5999999999999</ele><time>2026-05-02T12:08:58.285Z</time></trkpt><trkpt lat="42.045535" lon="13.6572"><ele>863.0</ele><time>2026-05-02T12:08:59.285Z</time></trkpt><trkpt lat="42.0456483" lon="13.6571483"><ele>863.0</ele><time>2026-05-02T12:09:00.286Z</time></trkpt><trkpt lat="42.0457483" lon="13.6570983"><ele>863.0</ele><time>2026-05-02T12:09:01.285Z</time></trkpt><trkpt lat="42.0458517" lon="13.65706"><ele>863.0</ele><time>2026-05-02T12:09:02.285Z</time></trkpt><trkpt lat="42.045935" lon="13.6570217"><ele>863.0</ele><time>2026-05-02T12:09:03.285Z</time></trkpt><trkpt lat="42.046005" lon="13.6569617"><ele>863.0</ele><time>2026-05-02T12:09:04.285Z</time></trkpt><trkpt lat="42.0460733" lon="13.6569017"><ele>862.1666666666667</ele><time>2026-05-02T12:09:05.285Z</time></trkpt><trkpt lat="42.0461333" lon="13.6568333"><ele>861.3333333333334</ele><time>2026-05-02T12:09:06.285Z</time></trkpt><trkpt lat="42.046205" lon="13.6567783"><ele>860.5</ele><time>2026-05-02T12:09:07.285Z</time></trkpt><trkpt lat="42.046285" lon="13.6567217"><ele>859.6666666666667</ele><time>2026-05-02T12:09:08.285Z</time></trkpt><trkpt lat="42.0463667" lon="13.6566733"><ele>858.8333333333334</ele><time>2026-05-02T12:09:09.285Z</time></trkpt><trkpt lat="42.0464533" lon="13.6566117"><ele>858.0</ele><time>2026-05-02T12:09:10.285Z</time></trkpt><trkpt lat="42.0465367" lon="13.6565283"><ele>858.0</ele><time>2026-05-02T12:09:11.285Z</time></trkpt><trkpt lat="42.0466183" lon="13.6564517"><ele>858.0</ele><time>2026-05-02T12:09:12.285Z</time></trkpt><trkpt lat="42.0467" lon="13.6563717"><ele>858.0</ele><time>2026-05-02T12:09:13.285Z</time></trkpt><trkpt lat="42.04679" lon="13.6563083"><ele>858.0</ele><time>2026-05-02T12:09:14.286Z</time></trkpt><trkpt lat="42.046875" lon="13.65626"><ele>858.0</ele><time>2026-05-02T12:09:15.286Z</time></trkpt><trkpt lat="42.0469683" lon="13.65621"><ele>857.8</ele><time>2026-05-02T12:09:16.285Z</time></trkpt><trkpt lat="42.0470667" lon="13.65614"><ele>857.5999999999999</ele><time>2026-05-02T12:09:17.285Z</time></trkpt><trkpt lat="42.0471667" lon="13.6560717"><ele>857.4000000000001</ele><time>2026-05-02T12:09:18.285Z</time></trkpt><trkpt lat="42.0472667" lon="13.655995"><ele>857.2</ele><time>2026-05-02T12:09:19.285Z</time></trkpt><trkpt lat="42.047355" lon="13.65592"><ele>857.0</ele><time>2026-05-02T12:09:20.285Z</time></trkpt><trkpt lat="42.04744" lon="13.655835"><ele>858.0</ele><time>2026-05-02T12:09:21.285Z</time></trkpt><trkpt lat="42.0475167" lon="13.655765"><ele>859.0</ele><time>2026-05-02T12:09:22.285Z</time></trkpt><trkpt lat="42.0475917" lon="13.6556883"><ele>860.0</ele><time>2026-05-02T12:09:23.285Z</time></trkpt><trkpt lat="42.0476633" lon="13.6556167"><ele>861.0</ele><time>2026-05-02T12:09:24.285Z</time></trkpt><trkpt lat="42.047735" lon="13.6555433"><ele>862.0</ele><time>2026-05-02T12:09:25.285Z</time></trkpt><trkpt lat="42.0478067" lon="13.6554517"><ele>862.0</ele><time>2026-05-02T12:09:26.285Z</time></trkpt><trkpt lat="42.04789" lon="13.6553533"><ele>862.0</ele><time>2026-05-02T12:09:27.285Z</time></trkpt><trkpt lat="42.0479733" lon="13.6552383"><ele>862.0</ele><time>2026-05-02T12:09:28.285Z</time></trkpt><trkpt lat="42.0480517" lon="13.6551267"><ele>862.0</ele><time>2026-05-02T12:09:29.285Z</time></trkpt><trkpt lat="42.0481333" lon="13.65501"><ele>861.8</ele><time>2026-05-02T12:09:30.286Z</time></trkpt><trkpt lat="42.0482067" lon="13.654905"><ele>861.6</ele><time>2026-05-02T12:09:31.285Z</time></trkpt><trkpt lat="42.0482733" lon="13.6548117"><ele>861.3999999999999</ele><time>2026-05-02T12:09:32.285Z</time></trkpt><trkpt lat="42.0483333" lon="13.65472"><ele>861.1999999999999</ele><time>2026-05-02T12:09:33.285Z</time></trkpt><trkpt lat="42.04838" lon="13.6546283"><ele>861.0</ele><time>2026-05-02T12:09:34.285Z</time></trkpt><trkpt lat="42.0484317" lon="13.65454"><ele>860.6666666666666</ele><time>2026-05-02T12:09:35.285Z</time></trkpt><trkpt lat="42.0484883" lon="13.6544517"><ele>860.3333333333333</ele><time>2026-05-02T12:09:36.285Z</time></trkpt><trkpt lat="42.0485467" lon="13.65437"><ele>860.0</ele><time>2026-05-02T12:09:37.285Z</time></trkpt><trkpt lat="42.048615" lon="13.6542933"><ele>859.6666666666666</ele><time>2026-05-02T12:09:38.286Z</time></trkpt><trkpt lat="42.04868" lon="13.654225"><ele>859.3333333333333</ele><time>2026-05-02T12:09:39.285Z</time></trkpt><trkpt lat="42.0487483" lon="13.6541667"><ele>859.0</ele><time>2026-05-02T12:09:40.285Z</time></trkpt><trkpt lat="42.048815" lon="13.6540617"><ele>859.0</ele><time>2026-05-02T12:09:41.285Z</time></trkpt><trkpt lat="42.04889" lon="13.6539667"><ele>859.0000000000001</ele><time>2026-05-02T12:09:42.285Z</time></trkpt><trkpt lat="42.048965" lon="13.653875"><ele>859.0000000000001</ele><time>2026-05-02T12:09:43.285Z</time></trkpt><trkpt lat="42.0490317" lon="13.6538067"><ele>859.0</ele><time>2026-05-02T12:09:44.285Z</time></trkpt><trkpt lat="42.04911" lon="13.65374"><ele>859.0</ele><time>2026-05-02T12:09:45.285Z</time></trkpt><trkpt lat="42.04919" lon="13.6536767"><ele>858.6</ele><time>2026-05-02T12:09:46.286Z</time></trkpt><trkpt lat="42.049255" lon="13.6536"><ele>858.2</ele><time>2026-05-02T12:09:47.285Z</time></trkpt><trkpt lat="42.0493167" lon="13.6535133"><ele>857.8000000000001</ele><time>2026-05-02T12:09:48.285Z</time></trkpt><trkpt lat="42.0493817" lon="13.653415"><ele>857.4000000000001</ele><time>2026-05-02T12:09:49.285Z</time></trkpt><trkpt lat="42.04945" lon="13.6533167"><ele>857.0</ele><time>2026-05-02T12:09:50.285Z</time></trkpt><trkpt lat="42.0495167" lon="13.6532317"><ele>857.0</ele><time>2026-05-02T12:09:51.286Z</time></trkpt><trkpt lat="42.04958" lon="13.653145"><ele>857.0</ele><time>2026-05-02T12:09:52.286Z</time></trkpt><trkpt lat="42.0496317" lon="13.6530683"><ele>857.0</ele><time>2026-05-02T12:09:53.285Z</time></trkpt><trkpt lat="42.04968" lon="13.6530017"><ele>857.0</ele><time>2026-05-02T12:09:54.286Z</time></trkpt><trkpt lat="42.0497167" lon="13.6529133"><ele>857.0</ele><time>2026-05-02T12:09:55.285Z</time></trkpt><trkpt lat="42.0497467" lon="13.6528333"><ele>857.0</ele><time>2026-05-02T12:09:56.285Z</time></trkpt><trkpt lat="42.0497783" lon="13.652755"><ele>857.0</ele><time>2026-05-02T12:09:57.285Z</time></trkpt><trkpt lat="42.0498117" lon="13.6526717"><ele>857.1428571428571</ele><time>2026-05-02T12:09:58.286Z</time></trkpt><trkpt lat="42.0498433" lon="13.6525983"><ele>857.2857142857142</ele><time>2026-05-02T12:09:59.285Z</time></trkpt><trkpt lat="42.0498833" lon="13.6525233"><ele>857.4285714285714</ele><time>2026-05-02T12:10:00.285Z</time></trkpt><trkpt lat="42.0499317" lon="13.6524583"><ele>857.5714285714286</ele><time>2026-05-02T12:10:01.285Z</time></trkpt><trkpt lat="42.0499783" lon="13.6523683"><ele>857.7142857142858</ele><time>2026-05-02T12:10:02.285Z</time></trkpt><trkpt lat="42.0500333" lon="13.6523133"><ele>857.8571428571429</ele><time>2026-05-02T12:10:03.285Z</time></trkpt><trkpt lat="42.0500933" lon="13.65225"><ele>858.0</ele><time>2026-05-02T12:10:04.285Z</time></trkpt><trkpt lat="42.05015" lon="13.652185"><ele>858.0</ele><time>2026-05-02T12:10:05.285Z</time></trkpt><trkpt lat="42.050205" lon="13.6521317"><ele>858.0</ele><time>2026-05-02T12:10:06.285Z</time></trkpt><trkpt lat="42.0502733" lon="13.652085"><ele>858.0</ele><time>2026-05-02T12:10:07.286Z</time></trkpt><trkpt lat="42.050335" lon="13.6520333"><ele>858.0</ele><time>2026-05-02T12:10:08.286Z</time></trkpt><trkpt lat="42.050395" lon="13.6519833"><ele>858.0</ele><time>2026-05-02T12:10:09.285Z</time></trkpt><trkpt lat="42.0504533" lon="13.6519417"><ele>858.0</ele><time>2026-05-02T12:10:10.285Z</time></trkpt><trkpt lat="42.0505117" lon="13.6519083"><ele>858.0</ele><time>2026-05-02T12:10:11.285Z</time></trkpt><trkpt lat="42.0505783" lon="13.651865"><ele>857.5</ele><time>2026-05-02T12:10:12.285Z</time></trkpt><trkpt lat="42.05065" lon="13.6518333"><ele>857.0</ele><time>2026-05-02T12:10:13.285Z</time></trkpt><trkpt lat="42.0507167" lon="13.6517883"><ele>856.5</ele><time>2026-05-02T12:10:14.286Z</time></trkpt><trkpt lat="42.0507833" lon="13.6517267"><ele>856.0</ele><time>2026-05-02T12:10:15.285Z</time></trkpt><trkpt lat="42.0508417" lon="13.6516633"><ele>855.5</ele><time>2026-05-02T12:10:16.285Z</time></trkpt><trkpt lat="42.0509" lon="13.6515483"><ele>855.0</ele><time>2026-05-02T12:10:18.285Z</time></trkpt><trkpt lat="42.0509267" lon="13.65144"><ele>855.5</ele><time>2026-05-02T12:10:19.285Z</time></trkpt><trkpt lat="42.0509467" lon="13.6513333"><ele>856.0</ele><time>2026-05-02T12:10:20.285Z</time></trkpt><trkpt lat="42.05097" lon="13.6512233"><ele>856.5</ele><time>2026-05-02T12:10:21.285Z</time></trkpt><trkpt lat="42.0509733" lon="13.6511217"><ele>857.0</ele><time>2026-05-02T12:10:22.285Z</time></trkpt><trkpt lat="42.0509683" lon="13.6509983"><ele>857.5</ele><time>2026-05-02T12:10:23.285Z</time></trkpt><trkpt lat="42.0509417" lon="13.6509033"><ele>858.0</ele><time>2026-05-02T12:10:24.285Z</time></trkpt><trkpt lat="42.0509133" lon="13.6507883"><ele>858.0</ele><time>2026-05-02T12:10:25.286Z</time></trkpt><trkpt lat="42.0508883" lon="13.65068"><ele>858.0</ele><time>2026-05-02T12:10:26.285Z</time></trkpt><trkpt lat="42.0508667" lon="13.650575"><ele>858.0</ele><time>2026-05-02T12:10:27.285Z</time></trkpt><trkpt lat="42.050855" lon="13.6504733"><ele>858.0</ele><time>2026-05-02T12:10:28.285Z</time></trkpt><trkpt lat="42.0508633" lon="13.6503883"><ele>858.0</ele><time>2026-05-02T12:10:29.285Z</time></trkpt><trkpt lat="42.0508967" lon="13.6502917"><ele>858.0</ele><time>2026-05-02T12:10:30.285Z</time></trkpt><trkpt lat="42.0509367" lon="13.6502017"><ele>857.0</ele><time>2026-05-02T12:10:31.285Z</time></trkpt><trkpt lat="42.0509967" lon="13.6501083"><ele>856.0</ele><time>2026-05-02T12:10:32.285Z</time></trkpt><trkpt lat="42.0510617" lon="13.6500167"><ele>855.0</ele><time>2026-05-02T12:10:33.285Z</time></trkpt><trkpt lat="42.0511383" lon="13.64995"><ele>854.0</ele><time>2026-05-02T12:10:34.286Z</time></trkpt><trkpt lat="42.0512033" lon="13.6498533"><ele>853.0</ele><time>2026-05-02T12:10:35.285Z</time></trkpt><trkpt lat="42.051265" lon="13.6497567"><ele>853.0</ele><time>2026-05-02T12:10:36.285Z</time></trkpt><trkpt lat="42.05133" lon="13.6496617"><ele>853.0</ele><time>2026-05-02T12:10:37.285Z</time></trkpt><trkpt lat="42.051405" lon="13.6495767"><ele>853.0</ele><time>2026-05-02T12:10:38.285Z</time></trkpt><trkpt lat="42.0514733" lon="13.6494617"><ele>853.0</ele><time>2026-05-02T12:10:39.285Z</time></trkpt><trkpt lat="42.0515317" lon="13.64933"><ele>853.0</ele><time>2026-05-02T12:10:40.286Z</time></trkpt><trkpt lat="42.05158" lon="13.6491933"><ele>852.8</ele><time>2026-05-02T12:10:41.285Z</time></trkpt><trkpt lat="42.0516167" lon="13.6490467"><ele>852.5999999999999</ele><time>2026-05-02T12:10:42.285Z</time></trkpt><trkpt lat="42.0516583" lon="13.6489183"><ele>852.4000000000001</ele><time>2026-05-02T12:10:43.286Z</time></trkpt><trkpt lat="42.0517017" lon="13.6487883"><ele>852.2</ele><time>2026-05-02T12:10:44.286Z</time></trkpt><trkpt lat="42.0517683" lon="13.648685"><ele>852.0</ele><time>2026-05-02T12:10:45.285Z</time></trkpt><trkpt lat="42.051855" lon="13.64857"><ele>852.0</ele><time>2026-05-02T12:10:46.285Z</time></trkpt><trkpt lat="42.0519483" lon="13.6484483"><ele>852.0</ele><time>2026-05-02T12:10:47.285Z</time></trkpt><trkpt lat="42.05204" lon="13.64835"><ele>852.0</ele><time>2026-05-02T12:10:48.285Z</time></trkpt><trkpt lat="42.05213" lon="13.6482383"><ele>852.0</ele><time>2026-05-02T12:10:49.285Z</time></trkpt><trkpt lat="42.0522217" lon="13.64811"><ele>852.0</ele><time>2026-05-02T12:10:50.285Z</time></trkpt><trkpt lat="42.05232" lon="13.6480017"><ele>852.0</ele><time>2026-05-02T12:10:51.285Z</time></trkpt><trkpt lat="42.0524083" lon="13.6479"><ele>852.0</ele><time>2026-05-02T12:10:52.285Z</time></trkpt><trkpt lat="42.0525033" lon="13.6478033"><ele>852.0</ele><time>2026-05-02T12:10:53.285Z</time></trkpt><trkpt lat="42.0525917" lon="13.6477117"><ele>852.2</ele><time>2026-05-02T12:10:54.285Z</time></trkpt><trkpt lat="42.0526833" lon="13.647605"><ele>852.4000000000001</ele><time>2026-05-02T12:10:55.285Z</time></trkpt><trkpt lat="42.0527633" lon="13.6475083"><ele>852.5999999999999</ele><time>2026-05-02T12:10:56.285Z</time></trkpt><trkpt lat="42.052835" lon="13.64741"><ele>852.8</ele><time>2026-05-02T12:10:57.285Z</time></trkpt><trkpt lat="42.0529033" lon="13.647315"><ele>853.0</ele><time>2026-05-02T12:10:58.285Z</time></trkpt><trkpt lat="42.0529817" lon="13.64723"><ele>853.0</ele><time>2026-05-02T12:10:59.285Z</time></trkpt><trkpt lat="42.053065" lon="13.6471433"><ele>853.0</ele><time>2026-05-02T12:11:00.285Z</time></trkpt><trkpt lat="42.0531567" lon="13.647055"><ele>853.0</ele><time>2026-05-02T12:11:01.286Z</time></trkpt><trkpt lat="42.0532433" lon="13.6469717"><ele>853.0</ele><time>2026-05-02T12:11:02.285Z</time></trkpt><trkpt lat="42.0533417" lon="13.6468933"><ele>853.0</ele><time>2026-05-02T12:11:03.285Z</time></trkpt><trkpt lat="42.0534367" lon="13.646805"><ele>853.5</ele><time>2026-05-02T12:11:04.285Z</time></trkpt><trkpt lat="42.0535317" lon="13.6467067"><ele>854.0</ele><time>2026-05-02T12:11:05.285Z</time></trkpt><trkpt lat="42.0536283" lon="13.64661"><ele>854.5</ele><time>2026-05-02T12:11:06.285Z</time></trkpt><trkpt lat="42.0537233" lon="13.6465067"><ele>855.0</ele><time>2026-05-02T12:11:07.285Z</time></trkpt><trkpt lat="42.05381" lon="13.6464083"><ele>855.0</ele><time>2026-05-02T12:11:08.286Z</time></trkpt><trkpt lat="42.0539017" lon="13.6463067"><ele>855.0</ele><time>2026-05-02T12:11:09.285Z</time></trkpt><trkpt lat="42.0539867" lon="13.6461967"><ele>855.0</ele><time>2026-05-02T12:11:10.285Z</time></trkpt><trkpt lat="42.0540717" lon="13.6460883"><ele>855.0</ele><time>2026-05-02T12:11:11.285Z</time></trkpt><trkpt lat="42.0541583" lon="13.64598"><ele>854.5</ele><time>2026-05-02T12:11:12.285Z</time></trkpt><trkpt lat="42.054245" lon="13.6458933"><ele>854.0</ele><time>2026-05-02T12:11:13.285Z</time></trkpt><trkpt lat="42.054335" lon="13.6457933"><ele>853.5</ele><time>2026-05-02T12:11:14.285Z</time></trkpt><trkpt lat="42.0544217" lon="13.6457067"><ele>853.0</ele><time>2026-05-02T12:11:15.286Z</time></trkpt><trkpt lat="42.054515" lon="13.6455967"><ele>853.0</ele><time>2026-05-02T12:11:16.286Z</time></trkpt><trkpt lat="42.0546083" lon="13.645495"><ele>853.0</ele><time>2026-05-02T12:11:17.285Z</time></trkpt><trkpt lat="42.05469" lon="13.6453833"><ele>853.0</ele><time>2026-05-02T12:11:18.285Z</time></trkpt><trkpt lat="42.0547667" lon="13.645265"><ele>853.0</ele><time>2026-05-02T12:11:19.285Z</time></trkpt><trkpt lat="42.0548467" lon="13.64515"><ele>853.2</ele><time>2026-05-02T12:11:20.285Z</time></trkpt><trkpt lat="42.0549133" lon="13.6450317"><ele>853.4</ele><time>2026-05-02T12:11:21.285Z</time></trkpt><trkpt lat="42.054955" lon="13.6449183"><ele>853.6000000000001</ele><time>2026-05-02T12:11:22.285Z</time></trkpt><trkpt lat="42.0549933" lon="13.6448033"><ele>853.8000000000001</ele><time>2026-05-02T12:11:23.285Z</time></trkpt><trkpt lat="42.055025" lon="13.6446917"><ele>854.0</ele><time>2026-05-02T12:11:24.285Z</time></trkpt><trkpt lat="42.05505" lon="13.6445717"><ele>854.0</ele><time>2026-05-02T12:11:25.285Z</time></trkpt><trkpt lat="42.055065" lon="13.6444633"><ele>854.0000000000001</ele><time>2026-05-02T12:11:26.285Z</time></trkpt><trkpt lat="42.0550683" lon="13.6443717"><ele>854.0000000000001</ele><time>2026-05-02T12:11:27.285Z</time></trkpt><trkpt lat="42.0550983" lon="13.64423"><ele>854.0</ele><time>2026-05-02T12:11:29.285Z</time></trkpt><trkpt lat="42.0551483" lon="13.6440933"><ele>854.0</ele><time>2026-05-02T12:11:31.285Z</time></trkpt><trkpt lat="42.0551817" lon="13.64399"><ele>853.6</ele><time>2026-05-02T12:11:32.285Z</time></trkpt><trkpt lat="42.0552167" lon="13.643845"><ele>853.2</ele><time>2026-05-02T12:11:33.285Z</time></trkpt><trkpt lat="42.0552483" lon="13.6436975"><ele>852.8000000000001</ele><time>2026-05-02T12:11:34.285Z</time></trkpt><trkpt lat="42.0552715" lon="13.643555"><ele>852.4000000000001</ele><time>2026-05-02T12:11:35.286Z</time></trkpt><trkpt lat="42.0552929" lon="13.643415"><ele>852.0</ele><time>2026-05-02T12:11:36.285Z</time></trkpt><trkpt lat="42.055312" lon="13.6432821"><ele>852.0</ele><time>2026-05-02T12:11:37.285Z</time></trkpt><trkpt lat="42.0553345" lon="13.6431456"><ele>852.0</ele><time>2026-05-02T12:11:38.286Z</time></trkpt><trkpt lat="42.0553589" lon="13.6430077"><ele>852.0</ele><time>2026-05-02T12:11:39.285Z</time></trkpt><trkpt lat="42.055392" lon="13.6428689"><ele>852.0</ele><time>2026-05-02T12:11:40.285Z</time></trkpt><trkpt lat="42.0554382" lon="13.6427465"><ele>852.0</ele><time>2026-05-02T12:11:41.285Z</time></trkpt><trkpt lat="42.0554866" lon="13.6426398"><ele>851.8333333333334</ele><time>2026-05-02T12:11:42.286Z</time></trkpt><trkpt lat="42.0555342" lon="13.6425374"><ele>851.6666666666667</ele><time>2026-05-02T12:11:43.285Z</time></trkpt><trkpt lat="42.055577" lon="13.6424383"><ele>851.5</ele><time>2026-05-02T12:11:44.286Z</time></trkpt><trkpt lat="42.0556213" lon="13.6423564"><ele>851.3333333333334</ele><time>2026-05-02T12:11:45.285Z</time></trkpt><trkpt lat="42.0556753" lon="13.642289"><ele>851.1666666666667</ele><time>2026-05-02T12:11:46.285Z</time></trkpt><trkpt lat="42.0557466" lon="13.6422335"><ele>851.0</ele><time>2026-05-02T12:11:47.285Z</time></trkpt><trkpt lat="42.0558431" lon="13.6421895"><ele>852.5</ele><time>2026-05-02T12:11:48.285Z</time></trkpt><trkpt lat="42.0559556" lon="13.6421463"><ele>854.0</ele><time>2026-05-02T12:11:49.285Z</time></trkpt><trkpt lat="42.0560695" lon="13.6421136"><ele>855.5</ele><time>2026-05-02T12:11:50.285Z</time></trkpt><trkpt lat="42.0561797" lon="13.6420712"><ele>857.0</ele><time>2026-05-02T12:11:51.285Z</time></trkpt><trkpt lat="42.0562905" lon="13.6420071"><ele>856.0</ele><time>2026-05-02T12:11:52.285Z</time></trkpt><trkpt lat="42.0564118" lon="13.64194"><ele>855.0</ele><time>2026-05-02T12:11:53.285Z</time></trkpt><trkpt lat="42.0565387" lon="13.6418823"><ele>854.0</ele><time>2026-05-02T12:11:54.285Z</time></trkpt><trkpt lat="42.056672" lon="13.6418323"><ele>853.0</ele><time>2026-05-02T12:11:55.285Z</time></trkpt><trkpt lat="42.0568005" lon="13.641779"><ele>853.0</ele><time>2026-05-02T12:11:56.285Z</time></trkpt><trkpt lat="42.0569108" lon="13.6417386"><ele>853.0</ele><time>2026-05-02T12:11:57.286Z</time></trkpt><trkpt lat="42.057012" lon="13.6417144"><ele>853.0</ele><time>2026-05-02T12:11:58.285Z</time></trkpt><trkpt lat="42.0571101" lon="13.6417147"><ele>853.0</ele><time>2026-05-02T12:11:59.285Z</time></trkpt><trkpt lat="42.0572108" lon="13.6417396"><ele>853.0</ele><time>2026-05-02T12:12:00.285Z</time></trkpt><trkpt lat="42.057317" lon="13.6417759"><ele>853.0</ele><time>2026-05-02T12:12:01.285Z</time></trkpt><trkpt lat="42.0574286" lon="13.6417953"><ele>853.0</ele><time>2026-05-02T12:12:02.285Z</time></trkpt><trkpt lat="42.0575407" lon="13.641801"><ele>853.0</ele><time>2026-05-02T12:12:03.285Z</time></trkpt><trkpt lat="42.0576451" lon="13.6417922"><ele>853.0</ele><time>2026-05-02T12:12:04.285Z</time></trkpt><trkpt lat="42.0577509" lon="13.6417626"><ele>853.0</ele><time>2026-05-02T12:12:05.285Z</time></trkpt><trkpt lat="42.0578635" lon="13.6417009"><ele>853.5</ele><time>2026-05-02T12:12:06.285Z</time></trkpt><trkpt lat="42.0579683" lon="13.6416167"><ele>854.0</ele><time>2026-05-02T12:12:07.285Z</time></trkpt><trkpt lat="42.0580783" lon="13.64157"><ele>854.5</ele><time>2026-05-02T12:12:08.285Z</time></trkpt><trkpt lat="42.0581883" lon="13.6415217"><ele>855.0</ele><time>2026-05-02T12:12:09.285Z</time></trkpt><trkpt lat="42.0582883" lon="13.6414733"><ele>855.4</ele><time>2026-05-02T12:12:10.285Z</time></trkpt><trkpt lat="42.0583867" lon="13.641435"><ele>855.8</ele><time>2026-05-02T12:12:11.285Z</time></trkpt><trkpt lat="42.0584917" lon="13.6413867"><ele>856.2</ele><time>2026-05-02T12:12:12.285Z</time></trkpt><trkpt lat="42.0585883" lon="13.6413367"><ele>856.6</ele><time>2026-05-02T12:12:13.285Z</time></trkpt><trkpt lat="42.0586817" lon="13.6412833"><ele>857.0</ele><time>2026-05-02T12:12:14.285Z</time></trkpt><trkpt lat="42.05877" lon="13.6412283"><ele>857.0</ele><time>2026-05-02T12:12:15.286Z</time></trkpt><trkpt lat="42.0588667" lon="13.6412217"><ele>857.0</ele><time>2026-05-02T12:12:16.285Z</time></trkpt><trkpt lat="42.058975" lon="13.6412083"><ele>857.0</ele><time>2026-05-02T12:12:17.285Z</time></trkpt><trkpt lat="42.0590683" lon="13.6412"><ele>857.0</ele><time>2026-05-02T12:12:18.285Z</time></trkpt><trkpt lat="42.0591767" lon="13.6412083"><ele>857.0</ele><time>2026-05-02T12:12:19.285Z</time></trkpt><trkpt lat="42.05928" lon="13.6412133"><ele>857.4000000000001</ele><time>2026-05-02T12:12:20.286Z</time></trkpt><trkpt lat="42.0593883" lon="13.6412017"><ele>857.8000000000001</ele><time>2026-05-02T12:12:21.285Z</time></trkpt><trkpt lat="42.0594883" lon="13.6411867"><ele>858.2</ele><time>2026-05-02T12:12:22.285Z</time></trkpt><trkpt lat="42.059605" lon="13.641185"><ele>858.6</ele><time>2026-05-02T12:12:23.285Z</time></trkpt><trkpt lat="42.0597133" lon="13.64116"><ele>859.0</ele><time>2026-05-02T12:12:24.285Z</time></trkpt><trkpt lat="42.05982" lon="13.64115"><ele>859.0</ele><time>2026-05-02T12:12:25.285Z</time></trkpt><trkpt lat="42.0599317" lon="13.6411517"><ele>859.0000000000001</ele><time>2026-05-02T12:12:26.285Z</time></trkpt><trkpt lat="42.0600383" lon="13.641175"><ele>859.0000000000001</ele><time>2026-05-02T12:12:27.285Z</time></trkpt><trkpt lat="42.0601383" lon="13.641195"><ele>859.0</ele><time>2026-05-02T12:12:28.285Z</time></trkpt><trkpt lat="42.0602333" lon="13.6412083"><ele>859.0</ele><time>2026-05-02T12:12:29.285Z</time></trkpt><trkpt lat="42.0603317" lon="13.64122"><ele>859.2</ele><time>2026-05-02T12:12:30.285Z</time></trkpt><trkpt lat="42.060425" lon="13.641225"><ele>859.4000000000001</ele><time>2026-05-02T12:12:31.285Z</time></trkpt><trkpt lat="42.06052" lon="13.6412417"><ele>859.6</ele><time>2026-05-02T12:12:32.285Z</time></trkpt><trkpt lat="42.0606083" lon="13.6412283"><ele>859.8</ele><time>2026-05-02T12:12:33.285Z</time></trkpt><trkpt lat="42.0607017" lon="13.6412167"><ele>860.0</ele><time>2026-05-02T12:12:34.285Z</time></trkpt><trkpt lat="42.060805" lon="13.6412117"><ele>860.0</ele><time>2026-05-02T12:12:35.285Z</time></trkpt><trkpt lat="42.0609167" lon="13.64119"><ele>860.0</ele><time>2026-05-02T12:12:36.285Z</time></trkpt><trkpt lat="42.0610283" lon="13.6411783"><ele>860.0</ele><time>2026-05-02T12:12:37.285Z</time></trkpt><trkpt lat="42.0611417" lon="13.6411517"><ele>860.0</ele><time>2026-05-02T12:12:38.285Z</time></trkpt><trkpt lat="42.0612533" lon="13.641115"><ele>860.0</ele><time>2026-05-02T12:12:39.285Z</time></trkpt><trkpt lat="42.0613567" lon="13.6410767"><ele>860.0</ele><time>2026-05-02T12:12:40.285Z</time></trkpt><trkpt lat="42.0614533" lon="13.641045"><ele>860.0</ele><time>2026-05-02T12:12:41.285Z</time></trkpt><trkpt lat="42.06155" lon="13.64102"><ele>860.0</ele><time>2026-05-02T12:12:42.285Z</time></trkpt><trkpt lat="42.0616517" lon="13.6409733"><ele>860.0</ele><time>2026-05-02T12:12:43.285Z</time></trkpt><trkpt lat="42.06175" lon="13.6409167"><ele>861.75</ele><time>2026-05-02T12:12:44.285Z</time></trkpt><trkpt lat="42.061855" lon="13.6408583"><ele>863.5</ele><time>2026-05-02T12:12:45.285Z</time></trkpt><trkpt lat="42.0619583" lon="13.6407783"><ele>865.25</ele><time>2026-05-02T12:12:46.285Z</time></trkpt><trkpt lat="42.0620567" lon="13.6406917"><ele>867.0</ele><time>2026-05-02T12:12:47.285Z</time></trkpt><trkpt lat="42.0621517" lon="13.6406"><ele>867.0</ele><time>2026-05-02T12:12:48.285Z</time></trkpt><trkpt lat="42.062235" lon="13.6404967"><ele>867.0</ele><time>2026-05-02T12:12:49.285Z</time></trkpt><trkpt lat="42.062315" lon="13.6403933"><ele>867.0</ele><time>2026-05-02T12:12:50.286Z</time></trkpt><trkpt lat="42.0623933" lon="13.6402933"><ele>867.0</ele><time>2026-05-02T12:12:51.285Z</time></trkpt><trkpt lat="42.062465" lon="13.6402"><ele>867.0</ele><time>2026-05-02T12:12:52.285Z</time></trkpt><trkpt lat="42.0625383" lon="13.6400967"><ele>867.0</ele><time>2026-05-02T12:12:53.285Z</time></trkpt><trkpt lat="42.0626083" lon="13.640005"><ele>867.0</ele><time>2026-05-02T12:12:54.285Z</time></trkpt><trkpt lat="42.0626783" lon="13.6399283"><ele>867.0</ele><time>2026-05-02T12:12:55.285Z</time></trkpt><trkpt lat="42.06276" lon="13.6398533"><ele>867.0</ele><time>2026-05-02T12:12:56.285Z</time></trkpt><trkpt lat="42.062865" lon="13.6397867"><ele>867.0</ele><time>2026-05-02T12:12:57.285Z</time></trkpt><trkpt lat="42.0629817" lon="13.6397033"><ele>867.0</ele><time>2026-05-02T12:12:58.285Z</time></trkpt><trkpt lat="42.063105" lon="13.6396217"><ele>867.0</ele><time>2026-05-02T12:12:59.285Z</time></trkpt><trkpt lat="42.0632233" lon="13.6395283"><ele>867.0</ele><time>2026-05-02T12:13:00.285Z</time></trkpt><trkpt lat="42.06334" lon="13.6394483"><ele>867.0</ele><time>2026-05-02T12:13:01.285Z</time></trkpt><trkpt lat="42.0634483" lon="13.63935"><ele>866.5</ele><time>2026-05-02T12:13:02.285Z</time></trkpt><trkpt lat="42.0635633" lon="13.63926"><ele>866.0</ele><time>2026-05-02T12:13:03.285Z</time></trkpt><trkpt lat="42.0636833" lon="13.6391783"><ele>865.5</ele><time>2026-05-02T12:13:04.285Z</time></trkpt><trkpt lat="42.06379" lon="13.63909"><ele>865.0</ele><time>2026-05-02T12:13:05.285Z</time></trkpt><trkpt lat="42.0639017" lon="13.6389833"><ele>865.0</ele><time>2026-05-02T12:13:06.285Z</time></trkpt><trkpt lat="42.064015" lon="13.6388733"><ele>865.0</ele><time>2026-05-02T12:13:07.285Z</time></trkpt><trkpt lat="42.064125" lon="13.6387633"><ele>865.0</ele><time>2026-05-02T12:13:08.285Z</time></trkpt><trkpt lat="42.064235" lon="13.6386533"><ele>865.0</ele><time>2026-05-02T12:13:09.285Z</time></trkpt><trkpt lat="42.0643517" lon="13.638555"><ele>864.75</ele><time>2026-05-02T12:13:10.285Z</time></trkpt><trkpt lat="42.064465" lon="13.63846"><ele>864.5</ele><time>2026-05-02T12:13:11.285Z</time></trkpt><trkpt lat="42.0645867" lon="13.6383367"><ele>864.25</ele><time>2026-05-02T12:13:12.285Z</time></trkpt><trkpt lat="42.0647133" lon="13.6382"><ele>864.0</ele><time>2026-05-02T12:13:13.285Z</time></trkpt><trkpt lat="42.0648283" lon="13.63806"><ele>864.3333333333333</ele><time>2026-05-02T12:13:14.285Z</time></trkpt><trkpt lat="42.0649633" lon="13.63791"><ele>864.6666666666666</ele><time>2026-05-02T12:13:15.285Z</time></trkpt><trkpt lat="42.0650817" lon="13.637765"><ele>865.0</ele><time>2026-05-02T12:13:16.285Z</time></trkpt><trkpt lat="42.0652067" lon="13.63764"><ele>865.0</ele><time>2026-05-02T12:13:17.285Z</time></trkpt><trkpt lat="42.0653117" lon="13.6375083"><ele>865.0</ele><time>2026-05-02T12:13:18.285Z</time></trkpt><trkpt lat="42.0654133" lon="13.6373817"><ele>865.0</ele><time>2026-05-02T12:13:19.285Z</time></trkpt><trkpt lat="42.0655133" lon="13.637285"><ele>865.0</ele><time>2026-05-02T12:13:20.285Z</time></trkpt><trkpt lat="42.0656117" lon="13.6372033"><ele>865.0</ele><time>2026-05-02T12:13:21.286Z</time></trkpt><trkpt lat="42.06571" lon="13.6371333"><ele>865.0</ele><time>2026-05-02T12:13:22.285Z</time></trkpt><trkpt lat="42.065805" lon="13.6370617"><ele>865.0</ele><time>2026-05-02T12:13:23.285Z</time></trkpt><trkpt lat="42.0659" lon="13.636985"><ele>865.0</ele><time>2026-05-02T12:13:24.286Z</time></trkpt><trkpt lat="42.0659933" lon="13.6368967"><ele>865.0</ele><time>2026-05-02T12:13:25.285Z</time></trkpt><trkpt lat="42.0660967" lon="13.6368083"><ele>865.25</ele><time>2026-05-02T12:13:26.285Z</time></trkpt><trkpt lat="42.06621" lon="13.636715"><ele>865.5</ele><time>2026-05-02T12:13:27.285Z</time></trkpt><trkpt lat="42.0663283" lon="13.6366333"><ele>865.75</ele><time>2026-05-02T12:13:28.285Z</time></trkpt><trkpt lat="42.06645" lon="13.6365283"><ele>866.0</ele><time>2026-05-02T12:13:29.285Z</time></trkpt><trkpt lat="42.0665567" lon="13.63642"><ele>867.0</ele><time>2026-05-02T12:13:30.285Z</time></trkpt><trkpt lat="42.066675" lon="13.6363483"><ele>867.9999999999999</ele><time>2026-05-02T12:13:31.285Z</time></trkpt><trkpt lat="42.0667733" lon="13.6362633"><ele>868.9999999999999</ele><time>2026-05-02T12:13:32.285Z</time></trkpt><trkpt lat="42.0668617" lon="13.636195"><ele>870.0</ele><time>2026-05-02T12:13:33.285Z</time></trkpt><trkpt lat="42.066945" lon="13.6361283"><ele>871.0</ele><time>2026-05-02T12:13:34.285Z</time></trkpt><trkpt lat="42.0670117" lon="13.6360667"><ele>871.0</ele><time>2026-05-02T12:13:35.285Z</time></trkpt><trkpt lat="42.0670767" lon="13.6360117"><ele>871.0</ele><time>2026-05-02T12:13:36.285Z</time></trkpt><trkpt lat="42.0671317" lon="13.6359567"><ele>871.0</ele><time>2026-05-02T12:13:37.285Z</time></trkpt><trkpt lat="42.0671967" lon="13.6359217"><ele>871.0</ele><time>2026-05-02T12:13:38.285Z</time></trkpt><trkpt lat="42.0672683" lon="13.635895"><ele>871.0</ele><time>2026-05-02T12:13:39.285Z</time></trkpt><trkpt lat="42.067345" lon="13.635885"><ele>871.0</ele><time>2026-05-02T12:13:40.285Z</time></trkpt><trkpt lat="42.0674217" lon="13.63587"><ele>871.0</ele><time>2026-05-02T12:13:41.285Z</time></trkpt><trkpt lat="42.067505" lon="13.635835"><ele>872.5999999999999</ele><time>2026-05-02T12:13:42.285Z</time></trkpt><trkpt lat="42.0675867" lon="13.6357817"><ele>874.1999999999999</ele><time>2026-05-02T12:13:43.285Z</time></trkpt><trkpt lat="42.0676617" lon="13.6357083"><ele>875.8000000000001</ele><time>2026-05-02T12:13:44.285Z</time></trkpt><trkpt lat="42.0677517" lon="13.6356217"><ele>877.4000000000001</ele><time>2026-05-02T12:13:45.285Z</time></trkpt><trkpt lat="42.0678433" lon="13.635525"><ele>879.0</ele><time>2026-05-02T12:13:46.285Z</time></trkpt><trkpt lat="42.0679317" lon="13.6354467"><ele>879.0</ele><time>2026-05-02T12:13:47.285Z</time></trkpt><trkpt lat="42.0680217" lon="13.6353533"><ele>879.0000000000001</ele><time>2026-05-02T12:13:48.286Z</time></trkpt><trkpt lat="42.0681083" lon="13.63527"><ele>879.0000000000001</ele><time>2026-05-02T12:13:49.286Z</time></trkpt><trkpt lat="42.0681933" lon="13.63518"><ele>879.0</ele><time>2026-05-02T12:13:50.285Z</time></trkpt><trkpt lat="42.0682883" lon="13.6350817"><ele>879.0</ele><time>2026-05-02T12:13:51.285Z</time></trkpt><trkpt lat="42.0683733" lon="13.6349967"><ele>880.2</ele><time>2026-05-02T12:13:52.286Z</time></trkpt><trkpt lat="42.0684617" lon="13.6349117"><ele>881.4000000000001</ele><time>2026-05-02T12:13:53.285Z</time></trkpt><trkpt lat="42.0685467" lon="13.63482"><ele>882.6</ele><time>2026-05-02T12:13:54.285Z</time></trkpt><trkpt lat="42.0686283" lon="13.6347217"><ele>883.8</ele><time>2026-05-02T12:13:55.285Z</time></trkpt><trkpt lat="42.06871" lon="13.6346183"><ele>885.0</ele><time>2026-05-02T12:13:56.285Z</time></trkpt><trkpt lat="42.068795" lon="13.6345217"><ele>884.4</ele><time>2026-05-02T12:13:57.285Z</time></trkpt><trkpt lat="42.068875" lon="13.6344167"><ele>883.8</ele><time>2026-05-02T12:13:58.285Z</time></trkpt><trkpt lat="42.068965" lon="13.6343333"><ele>883.2</ele><time>2026-05-02T12:13:59.285Z</time></trkpt><trkpt lat="42.0690483" lon="13.6342583"><ele>882.6</ele><time>2026-05-02T12:14:00.285Z</time></trkpt><trkpt lat="42.069115" lon="13.6341783"><ele>882.0</ele><time>2026-05-02T12:14:01.285Z</time></trkpt><trkpt lat="42.0691767" lon="13.634095"><ele>883.0</ele><time>2026-05-02T12:14:02.285Z</time></trkpt><trkpt lat="42.069225" lon="13.634"><ele>884.0</ele><time>2026-05-02T12:14:03.285Z</time></trkpt><trkpt lat="42.0692783" lon="13.6339367"><ele>885.0</ele><time>2026-05-02T12:14:04.285Z</time></trkpt><trkpt lat="42.06933" lon="13.6338867"><ele>886.0</ele><time>2026-05-02T12:14:05.285Z</time></trkpt><trkpt lat="42.06939" lon="13.6338583"><ele>887.0</ele><time>2026-05-02T12:14:06.285Z</time></trkpt><trkpt lat="42.06949" lon="13.6339083"><ele>888.0</ele><time>2026-05-02T12:14:08.285Z</time></trkpt><trkpt lat="42.06959" lon="13.633975"><ele>888.0</ele><time>2026-05-02T12:14:10.285Z</time></trkpt><trkpt lat="42.0696583" lon="13.6340167"><ele>888.0</ele><time>2026-05-02T12:14:12.285Z</time></trkpt><trkpt lat="42.069685" lon="13.634125"><ele>888.0</ele><time>2026-05-02T12:14:15.285Z</time></trkpt><trkpt lat="42.06972" lon="13.634295"><ele>888.0</ele><time>2026-05-02T12:14:17.286Z</time></trkpt><trkpt lat="42.0697667" lon="13.6344217"><ele>888.0</ele><time>2026-05-02T12:14:18.285Z</time></trkpt><trkpt lat="42.0698317" lon="13.63454"><ele>888.25</ele><time>2026-05-02T12:14:19.285Z</time></trkpt><trkpt lat="42.0699183" lon="13.634695"><ele>888.5</ele><time>2026-05-02T12:14:20.286Z</time></trkpt><trkpt lat="42.0700083" lon="13.6348367"><ele>888.75</ele><time>2026-05-02T12:14:21.285Z</time></trkpt><trkpt lat="42.0701017" lon="13.6350133"><ele>889.0</ele><time>2026-05-02T12:14:22.285Z</time></trkpt><trkpt lat="42.0701983" lon="13.635185"><ele>893.0</ele><time>2026-05-02T12:14:23.285Z</time></trkpt><trkpt lat="42.07029" lon="13.6353267"><ele>897.0</ele><time>2026-05-02T12:14:24.285Z</time></trkpt><trkpt lat="42.0703717" lon="13.6354683"><ele>901.0</ele><time>2026-05-02T12:14:25.285Z</time></trkpt><trkpt lat="42.07045" lon="13.6356083"><ele>905.0</ele><time>2026-05-02T12:14:26.285Z</time></trkpt><trkpt lat="42.0705283" lon="13.635745"><ele>905.0</ele><time>2026-05-02T12:14:27.285Z</time></trkpt><trkpt lat="42.0706067" lon="13.6358967"><ele>905.0</ele><time>2026-05-02T12:14:28.285Z</time></trkpt><trkpt lat="42.0706867" lon="13.6360433"><ele>905.0</ele><time>2026-05-02T12:14:29.285Z</time></trkpt><trkpt lat="42.0707767" lon="13.63621"><ele>905.0</ele><time>2026-05-02T12:14:30.286Z</time></trkpt><trkpt lat="42.0708633" lon="13.6363683"><ele>905.0</ele><time>2026-05-02T12:14:31.285Z</time></trkpt><trkpt lat="42.0709567" lon="13.6365233"><ele>905.0</ele><time>2026-05-02T12:14:32.285Z</time></trkpt><trkpt lat="42.071055" lon="13.6366683"><ele>905.0</ele><time>2026-05-02T12:14:33.286Z</time></trkpt><trkpt lat="42.071175" lon="13.6367817"><ele>905.0</ele><time>2026-05-02T12:14:34.285Z</time></trkpt><trkpt lat="42.071305" lon="13.63692"><ele>904.3333333333334</ele><time>2026-05-02T12:14:35.285Z</time></trkpt><trkpt lat="42.0714333" lon="13.637065"><ele>903.6666666666667</ele><time>2026-05-02T12:14:36.285Z</time></trkpt><trkpt lat="42.07154" lon="13.6372033"><ele>903.0</ele><time>2026-05-02T12:14:37.285Z</time></trkpt><trkpt lat="42.0716517" lon="13.6373433"><ele>903.0</ele><time>2026-05-02T12:14:38.286Z</time></trkpt><trkpt lat="42.071765" lon="13.6374717"><ele>903.0</ele><time>2026-05-02T12:14:39.285Z</time></trkpt><trkpt lat="42.0719133" lon="13.6375817"><ele>903.0</ele><time>2026-05-02T12:14:40.285Z</time></trkpt><trkpt lat="42.0720517" lon="13.6377033"><ele>903.0</ele><time>2026-05-02T12:14:41.285Z</time></trkpt><trkpt lat="42.0722017" lon="13.6378"><ele>903.0</ele><time>2026-05-02T12:14:42.285Z</time></trkpt><trkpt lat="42.07234" lon="13.63791"><ele>903.0</ele><time>2026-05-02T12:14:43.285Z</time></trkpt><trkpt lat="42.0724667" lon="13.6379783"><ele>904.75</ele><time>2026-05-02T12:14:44.285Z</time></trkpt><trkpt lat="42.0725883" lon="13.6380583"><ele>906.5</ele><time>2026-05-02T12:14:45.286Z</time></trkpt><trkpt lat="42.0727117" lon="13.6381233"><ele>908.25</ele><time>2026-05-02T12:14:46.285Z</time></trkpt><trkpt lat="42.0728233" lon="13.63819"><ele>910.0</ele><time>2026-05-02T12:14:47.285Z</time></trkpt><trkpt lat="42.0729317" lon="13.6382633"><ele>910.0</ele><time>2026-05-02T12:14:48.286Z</time></trkpt><trkpt lat="42.07304" lon="13.6383317"><ele>910.0</ele><time>2026-05-02T12:14:49.285Z</time></trkpt><trkpt lat="42.0731317" lon="13.63843"><ele>910.0</ele><time>2026-05-02T12:14:50.285Z</time></trkpt><trkpt lat="42.0732217" lon="13.6385533"><ele>910.0</ele><time>2026-05-02T12:14:51.285Z</time></trkpt><trkpt lat="42.0733033" lon="13.638695"><ele>911.75</ele><time>2026-05-02T12:14:52.285Z</time></trkpt><trkpt lat="42.0733917" lon="13.6388533"><ele>913.5</ele><time>2026-05-02T12:14:53.285Z</time></trkpt><trkpt lat="42.0734783" lon="13.63901"><ele>915.25</ele><time>2026-05-02T12:14:54.286Z</time></trkpt><trkpt lat="42.0735717" lon="13.6391617"><ele>917.0</ele><time>2026-05-02T12:14:55.285Z</time></trkpt><trkpt lat="42.07367" lon="13.6393083"><ele>917.0</ele><time>2026-05-02T12:14:56.285Z</time></trkpt><trkpt lat="42.0737767" lon="13.6394367"><ele>917.0</ele><time>2026-05-02T12:14:57.285Z</time></trkpt><trkpt lat="42.073895" lon="13.63956"><ele>917.0</ele><time>2026-05-02T12:14:58.285Z</time></trkpt><trkpt lat="42.074015" lon="13.6396867"><ele>917.0</ele><time>2026-05-02T12:14:59.286Z</time></trkpt><trkpt lat="42.0741233" lon="13.639805"><ele>918.25</ele><time>2026-05-02T12:15:00.285Z</time></trkpt><trkpt lat="42.0742383" lon="13.6399267"><ele>919.5</ele><time>2026-05-02T12:15:01.285Z</time></trkpt><trkpt lat="42.0743483" lon="13.6400533"><ele>920.75</ele><time>2026-05-02T12:15:02.285Z</time></trkpt><trkpt lat="42.074455" lon="13.6401783"><ele>922.0</ele><time>2026-05-02T12:15:03.285Z</time></trkpt><trkpt lat="42.07458" lon="13.6403217"><ele>924.0</ele><time>2026-05-02T12:15:04.285Z</time></trkpt><trkpt lat="42.0747067" lon="13.6404733"><ele>926.0</ele><time>2026-05-02T12:15:05.285Z</time></trkpt><trkpt lat="42.074835" lon="13.6406417"><ele>928.0</ele><time>2026-05-02T12:15:06.285Z</time></trkpt><trkpt lat="42.0749583" lon="13.640825"><ele>928.0</ele><time>2026-05-02T12:15:07.285Z</time></trkpt><trkpt lat="42.0750733" lon="13.6410017"><ele>928.0</ele><time>2026-05-02T12:15:08.285Z</time></trkpt><trkpt lat="42.0751833" lon="13.64117"><ele>928.0</ele><time>2026-05-02T12:15:09.285Z</time></trkpt><trkpt lat="42.0752733" lon="13.6413267"><ele>930.6666666666666</ele><time>2026-05-02T12:15:10.285Z</time></trkpt><trkpt lat="42.0753767" lon="13.6414933"><ele>933.3333333333333</ele><time>2026-05-02T12:15:11.285Z</time></trkpt><trkpt lat="42.0754633" lon="13.64165"><ele>936.0</ele><time>2026-05-02T12:15:12.285Z</time></trkpt><trkpt lat="42.07557" lon="13.6418083"><ele>936.0</ele><time>2026-05-02T12:15:13.286Z</time></trkpt><trkpt lat="42.07569" lon="13.6419583"><ele>936.0</ele><time>2026-05-02T12:15:14.285Z</time></trkpt><trkpt lat="42.0758167" lon="13.6421067"><ele>936.0</ele><time>2026-05-02T12:15:15.285Z</time></trkpt><trkpt lat="42.0759567" lon="13.6422467"><ele>936.0</ele><time>2026-05-02T12:15:16.285Z</time></trkpt><trkpt lat="42.0761083" lon="13.6423967"><ele>936.0</ele><time>2026-05-02T12:15:17.285Z</time></trkpt><trkpt lat="42.0762633" lon="13.642565"><ele>936.0</ele><time>2026-05-02T12:15:18.285Z</time></trkpt><trkpt lat="42.07641" lon="13.64275"><ele>938.0</ele><time>2026-05-02T12:15:19.285Z</time></trkpt><trkpt lat="42.0765567" lon="13.6429483"><ele>940.0</ele><time>2026-05-02T12:15:20.285Z</time></trkpt><trkpt lat="42.0767" lon="13.6431483"><ele>942.0</ele><time>2026-05-02T12:15:21.286Z</time></trkpt><trkpt lat="42.0768333" lon="13.6433467"><ele>942.0</ele><time>2026-05-02T12:15:22.286Z</time></trkpt><trkpt lat="42.0769583" lon="13.6435433"><ele>942.0</ele><time>2026-05-02T12:15:23.285Z</time></trkpt><trkpt lat="42.077085" lon="13.6437367"><ele>942.0</ele><time>2026-05-02T12:15:24.285Z</time></trkpt><trkpt lat="42.077225" lon="13.6439117"><ele>944.3333333333333</ele><time>2026-05-02T12:15:25.285Z</time></trkpt><trkpt lat="42.0773617" lon="13.6440617"><ele>946.6666666666666</ele><time>2026-05-02T12:15:26.285Z</time></trkpt><trkpt lat="42.077495" lon="13.6442067"><ele>949.0</ele><time>2026-05-02T12:15:27.285Z</time></trkpt><trkpt lat="42.07763" lon="13.6443417"><ele>953.3333333333333</ele><time>2026-05-02T12:15:28.286Z</time></trkpt><trkpt lat="42.0777533" lon="13.6444667"><ele>957.6666666666667</ele><time>2026-05-02T12:15:29.285Z</time></trkpt><trkpt lat="42.0778617" lon="13.6446033"><ele>962.0</ele><time>2026-05-02T12:15:30.285Z</time></trkpt><trkpt lat="42.0779617" lon="13.6447617"><ele>962.0</ele><time>2026-05-02T12:15:31.285Z</time></trkpt><trkpt lat="42.07804" lon="13.6449367"><ele>962.0</ele><time>2026-05-02T12:15:32.285Z</time></trkpt><trkpt lat="42.0781217" lon="13.6451133"><ele>962.0</ele><time>2026-05-02T12:15:33.285Z</time></trkpt><trkpt lat="42.0782183" lon="13.6452883"><ele>961.5</ele><time>2026-05-02T12:15:34.285Z</time></trkpt><trkpt lat="42.0783083" lon="13.6454517"><ele>961.0</ele><time>2026-05-02T12:15:35.285Z</time></trkpt><trkpt lat="42.0783917" lon="13.6456033"><ele>960.5</ele><time>2026-05-02T12:15:36.285Z</time></trkpt><trkpt lat="42.0784883" lon="13.6457467"><ele>960.0</ele><time>2026-05-02T12:15:37.286Z</time></trkpt><trkpt lat="42.0786" lon="13.6458633"><ele>960.0</ele><time>2026-05-02T12:15:38.285Z</time></trkpt><trkpt lat="42.0787317" lon="13.6459933"><ele>960.0</ele><time>2026-05-02T12:15:39.285Z</time></trkpt><trkpt lat="42.0788783" lon="13.6461133"><ele>960.0</ele><time>2026-05-02T12:15:40.285Z</time></trkpt><trkpt lat="42.0790017" lon="13.64625"><ele>960.3333333333333</ele><time>2026-05-02T12:15:41.285Z</time></trkpt><trkpt lat="42.079115" lon="13.6464"><ele>960.6666666666666</ele><time>2026-05-02T12:15:42.285Z</time></trkpt><trkpt lat="42.07921" lon="13.64656"><ele>961.0</ele><time>2026-05-02T12:15:43.285Z</time></trkpt><trkpt lat="42.0792933" lon="13.6467333"><ele>961.0</ele><time>2026-05-02T12:15:44.285Z</time></trkpt><trkpt lat="42.0793783" lon="13.6469"><ele>961.0</ele><time>2026-05-02T12:15:45.285Z</time></trkpt><trkpt lat="42.07944" lon="13.6470283"><ele>961.0</ele><time>2026-05-02T12:15:46.285Z</time></trkpt><trkpt lat="42.0794933" lon="13.6471467"><ele>961.0</ele><time>2026-05-02T12:15:47.285Z</time></trkpt><trkpt lat="42.07956" lon="13.6472567"><ele>960.5999999999999</ele><time>2026-05-02T12:15:48.285Z</time></trkpt><trkpt lat="42.0796317" lon="13.6473633"><ele>960.1999999999999</ele><time>2026-05-02T12:15:49.285Z</time></trkpt><trkpt lat="42.0797083" lon="13.64744"><ele>959.8000000000001</ele><time>2026-05-02T12:15:50.285Z</time></trkpt><trkpt lat="42.079805" lon="13.6475367"><ele>959.4000000000001</ele><time>2026-05-02T12:15:51.285Z</time></trkpt><trkpt lat="42.0798967" lon="13.6475883"><ele>959.0</ele><time>2026-05-02T12:15:52.285Z</time></trkpt><trkpt lat="42.0799883" lon="13.647675"><ele>959.0</ele><time>2026-05-02T12:15:53.285Z</time></trkpt><trkpt lat="42.0800817" lon="13.647735"><ele>959.0000000000001</ele><time>2026-05-02T12:15:54.285Z</time></trkpt><trkpt lat="42.0801783" lon="13.6477733"><ele>959.0000000000001</ele><time>2026-05-02T12:15:55.285Z</time></trkpt><trkpt lat="42.08028" lon="13.6478333"><ele>959.0</ele><time>2026-05-02T12:15:56.285Z</time></trkpt><trkpt lat="42.0803833" lon="13.6478467"><ele>959.0</ele><time>2026-05-02T12:15:57.285Z</time></trkpt><trkpt lat="42.0804833" lon="13.647855"><ele>959.0</ele><time>2026-05-02T12:15:58.285Z</time></trkpt><trkpt lat="42.080575" lon="13.647835"><ele>959.0000000000001</ele><time>2026-05-02T12:15:59.285Z</time></trkpt><trkpt lat="42.0806767" lon="13.6477933"><ele>959.0000000000001</ele><time>2026-05-02T12:16:00.285Z</time></trkpt><trkpt lat="42.080775" lon="13.6477367"><ele>959.0</ele><time>2026-05-02T12:16:01.285Z</time></trkpt><trkpt lat="42.0808867" lon="13.64769"><ele>959.0</ele><time>2026-05-02T12:16:02.285Z</time></trkpt><trkpt lat="42.0810017" lon="13.6476367"><ele>960.25</ele><time>2026-05-02T12:16:03.285Z</time></trkpt><trkpt lat="42.0811133" lon="13.647575"><ele>961.5</ele><time>2026-05-02T12:16:04.285Z</time></trkpt><trkpt lat="42.0812317" lon="13.6475067"><ele>962.75</ele><time>2026-05-02T12:16:05.285Z</time></trkpt><trkpt lat="42.08134" lon="13.64743"><ele>964.0</ele><time>2026-05-02T12:16:06.285Z</time></trkpt><trkpt lat="42.081445" lon="13.6473483"><ele>964.0</ele><time>2026-05-02T12:16:07.285Z</time></trkpt><trkpt lat="42.0815467" lon="13.6472517"><ele>964.0</ele><time>2026-05-02T12:16:08.285Z</time></trkpt><trkpt lat="42.08165" lon="13.6471467"><ele>964.0</ele><time>2026-05-02T12:16:09.285Z</time></trkpt><trkpt lat="42.0817417" lon="13.6470383"><ele>964.0</ele><time>2026-05-02T12:16:10.285Z</time></trkpt><trkpt lat="42.0818367" lon="13.64691"><ele>966.5</ele><time>2026-05-02T12:16:11.285Z</time></trkpt><trkpt lat="42.0819217" lon="13.646815"><ele>969.0</ele><time>2026-05-02T12:16:12.286Z</time></trkpt><trkpt lat="42.082005" lon="13.6466883"><ele>971.5</ele><time>2026-05-02T12:16:13.286Z</time></trkpt><trkpt lat="42.0820783" lon="13.6465783"><ele>974.0</ele><time>2026-05-02T12:16:14.285Z</time></trkpt><trkpt lat="42.0821567" lon="13.6464633"><ele>974.0</ele><time>2026-05-02T12:16:15.285Z</time></trkpt><trkpt lat="42.0822367" lon="13.646365"><ele>974.0</ele><time>2026-05-02T12:16:16.285Z</time></trkpt><trkpt lat="42.08233" lon="13.6462767"><ele>974.0</ele><time>2026-05-02T12:16:17.286Z</time></trkpt><trkpt lat="42.0824267" lon="13.646195"><ele>974.0</ele><time>2026-05-02T12:16:18.285Z</time></trkpt><trkpt lat="42.082535" lon="13.64612"><ele>976.25</ele><time>2026-05-02T12:16:19.285Z</time></trkpt><trkpt lat="42.0826517" lon="13.6460733"><ele>978.5</ele><time>2026-05-02T12:16:20.285Z</time></trkpt><trkpt lat="42.0827683" lon="13.64602"><ele>980.75</ele><time>2026-05-02T12:16:21.285Z</time></trkpt><trkpt lat="42.0828767" lon="13.6459667"><ele>983.0</ele><time>2026-05-02T12:16:22.285Z</time></trkpt><trkpt lat="42.0829883" lon="13.6459067"><ele>983.0</ele><time>2026-05-02T12:16:23.285Z</time></trkpt><trkpt lat="42.0830967" lon="13.6458417"><ele>983.0</ele><time>2026-05-02T12:16:24.285Z</time></trkpt><trkpt lat="42.083205" lon="13.64575"><ele>983.0</ele><time>2026-05-02T12:16:25.285Z</time></trkpt><trkpt lat="42.0833133" lon="13.6456617"><ele>983.0</ele><time>2026-05-02T12:16:26.285Z</time></trkpt><trkpt lat="42.0834183" lon="13.6455683"><ele>985.5</ele><time>2026-05-02T12:16:27.285Z</time></trkpt><trkpt lat="42.08352" lon="13.6454583"><ele>988.0</ele><time>2026-05-02T12:16:28.285Z</time></trkpt><trkpt lat="42.0836267" lon="13.6453533"><ele>990.5</ele><time>2026-05-02T12:16:29.285Z</time></trkpt><trkpt lat="42.08373" lon="13.645245"><ele>993.0</ele><time>2026-05-02T12:16:30.285Z</time></trkpt><trkpt lat="42.0838217" lon="13.6451333"><ele>994.0</ele><time>2026-05-02T12:16:31.285Z</time></trkpt><trkpt lat="42.0839" lon="13.645035"><ele>995.0</ele><time>2026-05-02T12:16:32.286Z</time></trkpt><trkpt lat="42.0839767" lon="13.6448983"><ele>996.0</ele><time>2026-05-02T12:16:33.285Z</time></trkpt><trkpt lat="42.0840333" lon="13.644765"><ele>997.0</ele><time>2026-05-02T12:16:34.285Z</time></trkpt><trkpt lat="42.08407" lon="13.64461"><ele>999.0</ele><time>2026-05-02T12:16:35.285Z</time></trkpt><trkpt lat="42.0841083" lon="13.6444483"><ele>1001.0</ele><time>2026-05-02T12:16:36.285Z</time></trkpt><trkpt lat="42.0841317" lon="13.6442883"><ele>1003.0</ele><time>2026-05-02T12:16:37.285Z</time></trkpt><trkpt lat="42.0841733" lon="13.6441467"><ele>1005.0</ele><time>2026-05-02T12:16:38.285Z</time></trkpt><trkpt lat="42.0842033" lon="13.6439983"><ele>1005.0</ele><time>2026-05-02T12:16:39.285Z</time></trkpt><trkpt lat="42.0842417" lon="13.6438583"><ele>1005.0</ele><time>2026-05-02T12:16:40.285Z</time></trkpt><trkpt lat="42.0843" lon="13.643725"><ele>1005.0</ele><time>2026-05-02T12:16:41.285Z</time></trkpt><trkpt lat="42.0843567" lon="13.643585"><ele>1005.0</ele><time>2026-05-02T12:16:42.285Z</time></trkpt><trkpt lat="42.0844133" lon="13.643435"><ele>1006.5</ele><time>2026-05-02T12:16:43.285Z</time></trkpt><trkpt lat="42.08446" lon="13.6432867"><ele>1008.0</ele><time>2026-05-02T12:16:44.285Z</time></trkpt><trkpt lat="42.0845183" lon="13.643135"><ele>1009.5</ele><time>2026-05-02T12:16:45.285Z</time></trkpt><trkpt lat="42.0845733" lon="13.6429917"><ele>1011.0</ele><time>2026-05-02T12:16:46.285Z</time></trkpt><trkpt lat="42.0846383" lon="13.64285"><ele>1011.8</ele><time>2026-05-02T12:16:47.285Z</time></trkpt><trkpt lat="42.0847133" lon="13.6427467"><ele>1012.5999999999999</ele><time>2026-05-02T12:16:48.285Z</time></trkpt><trkpt lat="42.0847783" lon="13.6426267"><ele>1013.4</ele><time>2026-05-02T12:16:49.285Z</time></trkpt><trkpt lat="42.08484" lon="13.6424983"><ele>1014.2</ele><time>2026-05-02T12:16:50.285Z</time></trkpt><trkpt lat="42.0848817" lon="13.642355"><ele>1015.0</ele><time>2026-05-02T12:16:51.285Z</time></trkpt><trkpt lat="42.084915" lon="13.64222"><ele>1016.75</ele><time>2026-05-02T12:16:52.285Z</time></trkpt><trkpt lat="42.0849333" lon="13.6420867"><ele>1018.5</ele><time>2026-05-02T12:16:53.285Z</time></trkpt><trkpt lat="42.08495" lon="13.6419283"><ele>1020.25</ele><time>2026-05-02T12:16:54.285Z</time></trkpt><trkpt lat="42.084965" lon="13.6417733"><ele>1022.0</ele><time>2026-05-02T12:16:55.285Z</time></trkpt><trkpt lat="42.0849967" lon="13.6416183"><ele>1023.75</ele><time>2026-05-02T12:16:56.285Z</time></trkpt><trkpt lat="42.0850417" lon="13.6414583"><ele>1025.5</ele><time>2026-05-02T12:16:57.285Z</time></trkpt><trkpt lat="42.0850933" lon="13.6413067"><ele>1027.25</ele><time>2026-05-02T12:16:58.285Z</time></trkpt><trkpt lat="42.085135" lon="13.6411533"><ele>1029.0</ele><time>2026-05-02T12:16:59.285Z</time></trkpt><trkpt lat="42.08516" lon="13.6410067"><ele>1030.4</ele><time>2026-05-02T12:17:00.285Z</time></trkpt><trkpt lat="42.085205" lon="13.6408667"><ele>1031.8000000000002</ele><time>2026-05-02T12:17:01.285Z</time></trkpt><trkpt lat="42.0852267" lon="13.6407233"><ele>1033.1999999999998</ele><time>2026-05-02T12:17:02.285Z</time></trkpt><trkpt lat="42.08524" lon="13.6405783"><ele>1034.6</ele><time>2026-05-02T12:17:03.285Z</time></trkpt><trkpt lat="42.08524" lon="13.6404317"><ele>1036.0</ele><time>2026-05-02T12:17:04.285Z</time></trkpt><trkpt lat="42.085205" lon="13.640305"><ele>1036.8333333333333</ele><time>2026-05-02T12:17:05.285Z</time></trkpt><trkpt lat="42.0851817" lon="13.6402017"><ele>1037.6666666666665</ele><time>2026-05-02T12:17:06.285Z</time></trkpt><trkpt lat="42.0851633" lon="13.6400883"><ele>1038.5</ele><time>2026-05-02T12:17:07.285Z</time></trkpt><trkpt lat="42.0851683" lon="13.63998"><ele>1039.3333333333333</ele><time>2026-05-02T12:17:08.285Z</time></trkpt><trkpt lat="42.0851933" lon="13.6398683"><ele>1040.1666666666667</ele><time>2026-05-02T12:17:09.285Z</time></trkpt><trkpt lat="42.0852433" lon="13.63976"><ele>1041.0</ele><time>2026-05-02T12:17:10.285Z</time></trkpt><trkpt lat="42.0852867" lon="13.6396633"><ele>1041.0</ele><time>2026-05-02T12:17:11.285Z</time></trkpt><trkpt lat="42.0853283" lon="13.6395833"><ele>1041.0</ele><time>2026-05-02T12:17:12.285Z</time></trkpt><trkpt lat="42.085365" lon="13.6395033"><ele>1041.0</ele><time>2026-05-02T12:17:13.285Z</time></trkpt><trkpt lat="42.0853917" lon="13.6394117"><ele>1041.0</ele><time>2026-05-02T12:17:14.285Z</time></trkpt><trkpt lat="42.085405" lon="13.6393033"><ele>1041.0</ele><time>2026-05-02T12:17:15.285Z</time></trkpt><trkpt lat="42.0853767" lon="13.6390967"><ele>1042.1666666666667</ele><time>2026-05-02T12:17:17.285Z</time></trkpt><trkpt lat="42.0853417" lon="13.6389983"><ele>1043.3333333333333</ele><time>2026-05-02T12:17:18.285Z</time></trkpt><trkpt lat="42.0853033" lon="13.6388767"><ele>1044.5</ele><time>2026-05-02T12:17:19.286Z</time></trkpt><trkpt lat="42.0852683" lon="13.63877"><ele>1045.6666666666665</ele><time>2026-05-02T12:17:20.286Z</time></trkpt><trkpt lat="42.085245" lon="13.6386483"><ele>1046.8333333333333</ele><time>2026-05-02T12:17:21.285Z</time></trkpt><trkpt lat="42.0852333" lon="13.6385417"><ele>1048.0</ele><time>2026-05-02T12:17:22.285Z</time></trkpt><trkpt lat="42.0852083" lon="13.6384067"><ele>1049.8</ele><time>2026-05-02T12:17:23.285Z</time></trkpt><trkpt lat="42.0851867" lon="13.63827"><ele>1051.6</ele><time>2026-05-02T12:17:24.285Z</time></trkpt><trkpt lat="42.0851583" lon="13.6381367"><ele>1053.4</ele><time>2026-05-02T12:17:25.285Z</time></trkpt><trkpt lat="42.0851233" lon="13.6380167"><ele>1055.2</ele><time>2026-05-02T12:17:26.285Z</time></trkpt><trkpt lat="42.085095" lon="13.6378833"><ele>1057.0</ele><time>2026-05-02T12:17:27.285Z</time></trkpt><trkpt lat="42.0850933" lon="13.6377583"><ele>1058.2</ele><time>2026-05-02T12:17:28.285Z</time></trkpt><trkpt lat="42.0850717" lon="13.6376167"><ele>1059.4</ele><time>2026-05-02T12:17:29.285Z</time></trkpt><trkpt lat="42.0850667" lon="13.6374833"><ele>1060.6</ele><time>2026-05-02T12:17:30.285Z</time></trkpt><trkpt lat="42.0850667" lon="13.637355"><ele>1061.8</ele><time>2026-05-02T12:17:31.285Z</time></trkpt><trkpt lat="42.085065" lon="13.6371983"><ele>1063.0</ele><time>2026-05-02T12:17:32.285Z</time></trkpt><trkpt lat="42.0850533" lon="13.6370467"><ele>1064.4</ele><time>2026-05-02T12:17:33.285Z</time></trkpt><trkpt lat="42.08502" lon="13.6369133"><ele>1065.8</ele><time>2026-05-02T12:17:34.285Z</time></trkpt><trkpt lat="42.0849717" lon="13.6367867"><ele>1067.2</ele><time>2026-05-02T12:17:35.285Z</time></trkpt><trkpt lat="42.0849133" lon="13.6366633"><ele>1068.6</ele><time>2026-05-02T12:17:36.285Z</time></trkpt><trkpt lat="42.0848417" lon="13.6365367"><ele>1070.0</ele><time>2026-05-02T12:17:37.285Z</time></trkpt><trkpt lat="42.084765" lon="13.63642"><ele>1070.25</ele><time>2026-05-02T12:17:38.285Z</time></trkpt><trkpt lat="42.08468" lon="13.6362883"><ele>1070.5</ele><time>2026-05-02T12:17:39.285Z</time></trkpt><trkpt lat="42.0846117" lon="13.636155"><ele>1070.75</ele><time>2026-05-02T12:17:40.285Z</time></trkpt><trkpt lat="42.0845217" lon="13.6360417"><ele>1071.0</ele><time>2026-05-02T12:17:41.285Z</time></trkpt><trkpt lat="42.08443" lon="13.6359267"><ele>1072.1666666666667</ele><time>2026-05-02T12:17:42.285Z</time></trkpt><trkpt lat="42.0843533" lon="13.6358283"><ele>1073.3333333333333</ele><time>2026-05-02T12:17:43.285Z</time></trkpt><trkpt lat="42.084295" lon="13.63576"><ele>1074.5</ele><time>2026-05-02T12:17:44.285Z</time></trkpt><trkpt lat="42.0842467" lon="13.6357"><ele>1075.6666666666665</ele><time>2026-05-02T12:17:45.285Z</time></trkpt><trkpt lat="42.0842017" lon="13.63562"><ele>1076.8333333333333</ele><time>2026-05-02T12:17:46.285Z</time></trkpt><trkpt lat="42.084175" lon="13.6355233"><ele>1078.0</ele><time>2026-05-02T12:17:47.285Z</time></trkpt><trkpt lat="42.0841533" lon="13.6354083"><ele>1079.2</ele><time>2026-05-02T12:17:48.285Z</time></trkpt><trkpt lat="42.0841383" lon="13.6352833"><ele>1080.4</ele><time>2026-05-02T12:17:49.285Z</time></trkpt><trkpt lat="42.0841233" lon="13.6351617"><ele>1081.6000000000001</ele><time>2026-05-02T12:17:50.285Z</time></trkpt><trkpt lat="42.0841033" lon="13.6350333"><ele>1082.8</ele><time>2026-05-02T12:17:51.285Z</time></trkpt><trkpt lat="42.084075" lon="13.6348933"><ele>1084.0</ele><time>2026-05-02T12:17:52.285Z</time></trkpt><trkpt lat="42.0840417" lon="13.6347683"><ele>1084.0</ele><time>2026-05-02T12:17:53.285Z</time></trkpt><trkpt lat="42.0840033" lon="13.6346483"><ele>1084.0</ele><time>2026-05-02T12:17:54.285Z</time></trkpt><trkpt lat="42.0839817" lon="13.6345317"><ele>1084.0</ele><time>2026-05-02T12:17:55.285Z</time></trkpt><trkpt lat="42.083975" lon="13.634425"><ele>1084.0</ele><time>2026-05-02T12:17:56.285Z</time></trkpt><trkpt lat="42.0839617" lon="13.6342917"><ele>1084.0</ele><time>2026-05-02T12:17:57.285Z</time></trkpt><trkpt lat="42.0839717" lon="13.634205"><ele>1084.0</ele><time>2026-05-02T12:17:58.285Z</time></trkpt><trkpt lat="42.0840117" lon="13.6341167"><ele>1084.3333333333333</ele><time>2026-05-02T12:17:59.285Z</time></trkpt><trkpt lat="42.0840667" lon="13.63403"><ele>1084.6666666666665</ele><time>2026-05-02T12:18:00.285Z</time></trkpt><trkpt lat="42.0841317" lon="13.6339667"><ele>1085.0</ele><time>2026-05-02T12:18:01.285Z</time></trkpt><trkpt lat="42.0842067" lon="13.6339183"><ele>1085.3333333333333</ele><time>2026-05-02T12:18:02.285Z</time></trkpt><trkpt lat="42.0842867" lon="13.633885"><ele>1085.6666666666667</ele><time>2026-05-02T12:18:03.285Z</time></trkpt><trkpt lat="42.084375" lon="13.6338567"><ele>1086.0</ele><time>2026-05-02T12:18:04.285Z</time></trkpt><trkpt lat="42.0844433" lon="13.6338117"><ele>1086.0</ele><time>2026-05-02T12:18:05.285Z</time></trkpt><trkpt lat="42.0845117" lon="13.6337433"><ele>1086.0</ele><time>2026-05-02T12:18:06.285Z</time></trkpt><trkpt lat="42.08457" lon="13.6336567"><ele>1086.0</ele><time>2026-05-02T12:18:07.285Z</time></trkpt><trkpt lat="42.0846333" lon="13.63356"><ele>1086.0</ele><time>2026-05-02T12:18:08.286Z</time></trkpt><trkpt lat="42.084685" lon="13.633435"><ele>1086.0</ele><time>2026-05-02T12:18:09.285Z</time></trkpt><trkpt lat="42.0847583" lon="13.6333217"><ele>1085.8</ele><time>2026-05-02T12:18:10.285Z</time></trkpt><trkpt lat="42.084835" lon="13.6332183"><ele>1085.6</ele><time>2026-05-02T12:18:11.285Z</time></trkpt><trkpt lat="42.0849067" lon="13.6331217"><ele>1085.4</ele><time>2026-05-02T12:18:12.285Z</time></trkpt><trkpt lat="42.084985" lon="13.6330317"><ele>1085.2</ele><time>2026-05-02T12:18:13.285Z</time></trkpt><trkpt lat="42.0850533" lon="13.6329467"><ele>1085.0</ele><time>2026-05-02T12:18:14.286Z</time></trkpt><trkpt lat="42.0851217" lon="13.6328767"><ele>1088.2</ele><time>2026-05-02T12:18:15.286Z</time></trkpt><trkpt lat="42.08518" lon="13.6327867"><ele>1091.4</ele><time>2026-05-02T12:18:16.286Z</time></trkpt><trkpt lat="42.0852183" lon="13.632685"><ele>1094.6</ele><time>2026-05-02T12:18:17.285Z</time></trkpt><trkpt lat="42.0852417" lon="13.63255"><ele>1097.8</ele><time>2026-05-02T12:18:18.285Z</time></trkpt><trkpt lat="42.085245" lon="13.6324183"><ele>1101.0</ele><time>2026-05-02T12:18:19.285Z</time></trkpt><trkpt lat="42.085235" lon="13.6322583"><ele>1101.0</ele><time>2026-05-02T12:18:20.285Z</time></trkpt><trkpt lat="42.08522" lon="13.632105"><ele>1101.0</ele><time>2026-05-02T12:18:21.285Z</time></trkpt><trkpt lat="42.0852117" lon="13.6319633"><ele>1101.0</ele><time>2026-05-02T12:18:22.285Z</time></trkpt><trkpt lat="42.0852283" lon="13.6318467"><ele>1101.0</ele><time>2026-05-02T12:18:23.285Z</time></trkpt><trkpt lat="42.08526" lon="13.631735"><ele>1101.0</ele><time>2026-05-02T12:18:24.285Z</time></trkpt><trkpt lat="42.0852983" lon="13.6316017"><ele>1101.6666666666667</ele><time>2026-05-02T12:18:25.285Z</time></trkpt><trkpt lat="42.0853683" lon="13.631485"><ele>1102.3333333333333</ele><time>2026-05-02T12:18:26.285Z</time></trkpt><trkpt lat="42.0854317" lon="13.6313933"><ele>1103.0</ele><time>2026-05-02T12:18:27.285Z</time></trkpt><trkpt lat="42.085485" lon="13.6313217"><ele>1103.6666666666665</ele><time>2026-05-02T12:18:28.285Z</time></trkpt><trkpt lat="42.0855167" lon="13.6312317"><ele>1104.3333333333333</ele><time>2026-05-02T12:18:29.285Z</time></trkpt><trkpt lat="42.0855383" lon="13.6311167"><ele>1105.0</ele><time>2026-05-02T12:18:30.285Z</time></trkpt><trkpt lat="42.0855417" lon="13.6310067"><ele>1106.0</ele><time>2026-05-02T12:18:31.285Z</time></trkpt><trkpt lat="42.085525" lon="13.630875"><ele>1107.0</ele><time>2026-05-02T12:18:32.286Z</time></trkpt><trkpt lat="42.0855033" lon="13.6307317"><ele>1108.0</ele><time>2026-05-02T12:18:33.285Z</time></trkpt><trkpt lat="42.0854917" lon="13.6305767"><ele>1109.0</ele><time>2026-05-02T12:18:34.285Z</time></trkpt><trkpt lat="42.0854833" lon="13.6304133"><ele>1110.0</ele><time>2026-05-02T12:18:35.285Z</time></trkpt><trkpt lat="42.08548" lon="13.6302433"><ele>1111.5</ele><time>2026-05-02T12:18:36.285Z</time></trkpt><trkpt lat="42.08547" lon="13.6300717"><ele>1113.0</ele><time>2026-05-02T12:18:37.285Z</time></trkpt><trkpt lat="42.085465" lon="13.6299183"><ele>1114.5</ele><time>2026-05-02T12:18:38.285Z</time></trkpt><trkpt lat="42.085475" lon="13.62977"><ele>1116.0</ele><time>2026-05-02T12:18:39.286Z</time></trkpt><trkpt lat="42.0854967" lon="13.6296417"><ele>1116.0</ele><time>2026-05-02T12:18:40.285Z</time></trkpt><trkpt lat="42.0855333" lon="13.6295033"><ele>1116.0</ele><time>2026-05-02T12:18:41.285Z</time></trkpt><trkpt lat="42.0855667" lon="13.629355"><ele>1116.0</ele><time>2026-05-02T12:18:42.285Z</time></trkpt><trkpt lat="42.0856117" lon="13.6291933"><ele>1116.0</ele><time>2026-05-02T12:18:43.285Z</time></trkpt><trkpt lat="42.0856433" lon="13.6290267"><ele>1116.75</ele><time>2026-05-02T12:18:44.285Z</time></trkpt><trkpt lat="42.0856833" lon="13.6288483"><ele>1117.5</ele><time>2026-05-02T12:18:45.286Z</time></trkpt><trkpt lat="42.08571" lon="13.62866"><ele>1118.25</ele><time>2026-05-02T12:18:46.285Z</time></trkpt><trkpt lat="42.0857333" lon="13.6285217"><ele>1119.0</ele><time>2026-05-02T12:18:47.285Z</time></trkpt><trkpt lat="42.085765" lon="13.62841"><ele>1121.6000000000001</ele><time>2026-05-02T12:18:48.285Z</time></trkpt><trkpt lat="42.0858067" lon="13.62831"><ele>1124.2</ele><time>2026-05-02T12:18:49.285Z</time></trkpt><trkpt lat="42.0858667" lon="13.6282167"><ele>1126.8000000000002</ele><time>2026-05-02T12:18:50.286Z</time></trkpt><trkpt lat="42.0859367" lon="13.62812"><ele>1129.4</ele><time>2026-05-02T12:18:51.285Z</time></trkpt><trkpt lat="42.08599" lon="13.628015"><ele>1132.0</ele><time>2026-05-02T12:18:52.285Z</time></trkpt><trkpt lat="42.0860333" lon="13.6279033"><ele>1133.0</ele><time>2026-05-02T12:18:53.285Z</time></trkpt><trkpt lat="42.0860667" lon="13.62779"><ele>1134.0</ele><time>2026-05-02T12:18:54.285Z</time></trkpt><trkpt lat="42.0860967" lon="13.6276517"><ele>1135.0</ele><time>2026-05-02T12:18:55.285Z</time></trkpt><trkpt lat="42.086125" lon="13.6275267"><ele>1136.0</ele><time>2026-05-02T12:18:56.285Z</time></trkpt><trkpt lat="42.0861617" lon="13.6273867"><ele>1137.0</ele><time>2026-05-02T12:18:57.285Z</time></trkpt><trkpt lat="42.0862083" lon="13.62725"><ele>1137.0</ele><time>2026-05-02T12:18:58.286Z</time></trkpt><trkpt lat="42.0862617" lon="13.627115"><ele>1137.0</ele><time>2026-05-02T12:18:59.285Z</time></trkpt><trkpt lat="42.0863267" lon="13.626985"><ele>1137.0</ele><time>2026-05-02T12:19:00.285Z</time></trkpt><trkpt lat="42.08637" lon="13.6268433"><ele>1137.0</ele><time>2026-05-02T12:19:01.285Z</time></trkpt><trkpt lat="42.0864033" lon="13.6266883"><ele>1137.6</ele><time>2026-05-02T12:19:02.285Z</time></trkpt><trkpt lat="42.08643" lon="13.6265383"><ele>1138.2</ele><time>2026-05-02T12:19:03.285Z</time></trkpt><trkpt lat="42.0864483" lon="13.6263967"><ele>1138.8</ele><time>2026-05-02T12:19:04.285Z</time></trkpt><trkpt lat="42.0864467" lon="13.6262433"><ele>1139.4</ele><time>2026-05-02T12:19:05.285Z</time></trkpt><trkpt lat="42.08644" lon="13.626095"><ele>1140.0</ele><time>2026-05-02T12:19:06.285Z</time></trkpt><trkpt lat="42.086425" lon="13.6259283"><ele>1141.25</ele><time>2026-05-02T12:19:07.285Z</time></trkpt><trkpt lat="42.086395" lon="13.6257483"><ele>1142.5</ele><time>2026-05-02T12:19:08.285Z</time></trkpt><trkpt lat="42.0863583" lon="13.62557"><ele>1143.75</ele><time>2026-05-02T12:19:09.285Z</time></trkpt><trkpt lat="42.0863133" lon="13.6253667"><ele>1145.0</ele><time>2026-05-02T12:19:10.285Z</time></trkpt><trkpt lat="42.0862583" lon="13.62518"><ele>1147.5</ele><time>2026-05-02T12:19:11.285Z</time></trkpt><trkpt lat="42.086215" lon="13.6250017"><ele>1150.0</ele><time>2026-05-02T12:19:12.285Z</time></trkpt><trkpt lat="42.0861883" lon="13.6248183"><ele>1152.5</ele><time>2026-05-02T12:19:13.285Z</time></trkpt><trkpt lat="42.0861683" lon="13.6246733"><ele>1155.0</ele><time>2026-05-02T12:19:14.285Z</time></trkpt><trkpt lat="42.0861567" lon="13.6245233"><ele>1156.0</ele><time>2026-05-02T12:19:15.285Z</time></trkpt><trkpt lat="42.0861367" lon="13.6243783"><ele>1157.0</ele><time>2026-05-02T12:19:16.285Z</time></trkpt><trkpt lat="42.08613" lon="13.6242283"><ele>1158.0</ele><time>2026-05-02T12:19:17.285Z</time></trkpt><trkpt lat="42.0861233" lon="13.62406"><ele>1159.0</ele><time>2026-05-02T12:19:18.285Z</time></trkpt><trkpt lat="42.0861017" lon="13.6239083"><ele>1159.0</ele><time>2026-05-02T12:19:19.285Z</time></trkpt><trkpt lat="42.0860733" lon="13.6237583"><ele>1159.0</ele><time>2026-05-02T12:19:20.285Z</time></trkpt><trkpt lat="42.0860367" lon="13.6236367"><ele>1159.0</ele><time>2026-05-02T12:19:21.285Z</time></trkpt><trkpt lat="42.0859933" lon="13.6235283"><ele>1159.0</ele><time>2026-05-02T12:19:22.285Z</time></trkpt><trkpt lat="42.0859467" lon="13.623425"><ele>1159.0</ele><time>2026-05-02T12:19:23.285Z</time></trkpt><trkpt lat="42.0859033" lon="13.6233183"><ele>1160.4285714285716</ele><time>2026-05-02T12:19:24.285Z</time></trkpt><trkpt lat="42.0858583" lon="13.6232433"><ele>1161.857142857143</ele><time>2026-05-02T12:19:25.285Z</time></trkpt><trkpt lat="42.0858067" lon="13.6231917"><ele>1163.2857142857142</ele><time>2026-05-02T12:19:26.285Z</time></trkpt><trkpt lat="42.0857467" lon="13.6231633"><ele>1164.7142857142858</ele><time>2026-05-02T12:19:27.285Z</time></trkpt><trkpt lat="42.0856417" lon="13.6231383"><ele>1166.142857142857</ele><time>2026-05-02T12:19:29.285Z</time></trkpt><trkpt lat="42.0855767" lon="13.623155"><ele>1167.5714285714287</ele><time>2026-05-02T12:19:30.285Z</time></trkpt><trkpt lat="42.085505" lon="13.62319"><ele>1169.0</ele><time>2026-05-02T12:19:31.285Z</time></trkpt><trkpt lat="42.085425" lon="13.6232433"><ele>1169.6000000000001</ele><time>2026-05-02T12:19:32.285Z</time></trkpt><trkpt lat="42.0853333" lon="13.6233083"><ele>1170.2</ele><time>2026-05-02T12:19:33.286Z</time></trkpt><trkpt lat="42.0852333" lon="13.6233667"><ele>1170.8000000000002</ele><time>2026-05-02T12:19:34.285Z</time></trkpt><trkpt lat="42.08513" lon="13.6234383"><ele>1171.4</ele><time>2026-05-02T12:19:35.285Z</time></trkpt><trkpt lat="42.0850267" lon="13.623505"><ele>1172.0</ele><time>2026-05-02T12:19:36.285Z</time></trkpt><trkpt lat="42.0849133" lon="13.6235683"><ele>1171.25</ele><time>2026-05-02T12:19:37.286Z</time></trkpt><trkpt lat="42.084805" lon="13.623645"><ele>1170.5</ele><time>2026-05-02T12:19:38.285Z</time></trkpt><trkpt lat="42.0846867" lon="13.62373"><ele>1169.75</ele><time>2026-05-02T12:19:39.285Z</time></trkpt><trkpt lat="42.0845733" lon="13.6238283"><ele>1169.0</ele><time>2026-05-02T12:19:40.286Z</time></trkpt><trkpt lat="42.084485" lon="13.6238933"><ele>1169.0</ele><time>2026-05-02T12:19:41.286Z</time></trkpt><trkpt lat="42.0844033" lon="13.6239433"><ele>1169.0</ele><time>2026-05-02T12:19:42.286Z</time></trkpt><trkpt lat="42.0843317" lon="13.6239867"><ele>1169.0</ele><time>2026-05-02T12:19:43.285Z</time></trkpt><trkpt lat="42.0842633" lon="13.6240433"><ele>1169.0</ele><time>2026-05-02T12:19:44.285Z</time></trkpt><trkpt lat="42.0841983" lon="13.624105"><ele>1169.0</ele><time>2026-05-02T12:19:45.285Z</time></trkpt><trkpt lat="42.08414" lon="13.6241817"><ele>1169.0</ele><time>2026-05-02T12:19:46.285Z</time></trkpt><trkpt lat="42.0840967" lon="13.6242733"><ele>1169.8333333333335</ele><time>2026-05-02T12:19:47.285Z</time></trkpt><trkpt lat="42.0840617" lon="13.6243717"><ele>1170.6666666666667</ele><time>2026-05-02T12:19:48.285Z</time></trkpt><trkpt lat="42.0840333" lon="13.6244917"><ele>1171.5</ele><time>2026-05-02T12:19:49.285Z</time></trkpt><trkpt lat="42.08401" lon="13.6246083"><ele>1172.3333333333333</ele><time>2026-05-02T12:19:50.285Z</time></trkpt><trkpt lat="42.08399" lon="13.6247233"><ele>1173.1666666666665</ele><time>2026-05-02T12:19:51.285Z</time></trkpt><trkpt lat="42.0839733" lon="13.624835"><ele>1174.0</ele><time>2026-05-02T12:19:52.285Z</time></trkpt><trkpt lat="42.0839583" lon="13.62494"><ele>1172.3333333333333</ele><time>2026-05-02T12:19:53.285Z</time></trkpt><trkpt lat="42.0839467" lon="13.6250467"><ele>1170.6666666666665</ele><time>2026-05-02T12:19:54.285Z</time></trkpt><trkpt lat="42.0839417" lon="13.6251517"><ele>1169.0</ele><time>2026-05-02T12:19:55.285Z</time></trkpt><trkpt lat="42.083925" lon="13.6252533"><ele>1167.3333333333333</ele><time>2026-05-02T12:19:56.285Z</time></trkpt><trkpt lat="42.083915" lon="13.625355"><ele>1165.6666666666667</ele><time>2026-05-02T12:19:57.285Z</time></trkpt><trkpt lat="42.0838967" lon="13.62545"><ele>1164.0</ele><time>2026-05-02T12:19:58.285Z</time></trkpt><trkpt lat="42.083885" lon="13.6255567"><ele>1162.7142857142858</ele><time>2026-05-02T12:19:59.285Z</time></trkpt><trkpt lat="42.0838733" lon="13.6256583"><ele>1161.4285714285713</ele><time>2026-05-02T12:20:00.285Z</time></trkpt><trkpt lat="42.0838517" lon="13.625765"><ele>1160.142857142857</ele><time>2026-05-02T12:20:01.285Z</time></trkpt><trkpt lat="42.083835" lon="13.6258633"><ele>1158.857142857143</ele><time>2026-05-02T12:20:02.285Z</time></trkpt><trkpt lat="42.0838317" lon="13.625955"><ele>1157.5714285714284</ele><time>2026-05-02T12:20:03.285Z</time></trkpt><trkpt lat="42.0838233" lon="13.6260467"><ele>1156.2857142857142</ele><time>2026-05-02T12:20:04.285Z</time></trkpt><trkpt lat="42.0838133" lon="13.6261333"><ele>1155.0</ele><time>2026-05-02T12:20:05.285Z</time></trkpt><trkpt lat="42.0838017" lon="13.6262233"><ele>1153.1666666666667</ele><time>2026-05-02T12:20:06.285Z</time></trkpt><trkpt lat="42.0837833" lon="13.6263267"><ele>1151.3333333333333</ele><time>2026-05-02T12:20:07.285Z</time></trkpt><trkpt lat="42.0837683" lon="13.6264217"><ele>1149.5</ele><time>2026-05-02T12:20:08.285Z</time></trkpt><trkpt lat="42.083755" lon="13.62653"><ele>1147.6666666666665</ele><time>2026-05-02T12:20:09.285Z</time></trkpt><trkpt lat="42.0837383" lon="13.626635"><ele>1145.8333333333333</ele><time>2026-05-02T12:20:10.285Z</time></trkpt><trkpt lat="42.08372" lon="13.6267467"><ele>1144.0</ele><time>2026-05-02T12:20:11.285Z</time></trkpt><trkpt lat="42.0836967" lon="13.6268633"><ele>1143.9999999999998</ele><time>2026-05-02T12:20:12.285Z</time></trkpt><trkpt lat="42.0836733" lon="13.62697"><ele>1144.0</ele><time>2026-05-02T12:20:13.285Z</time></trkpt><trkpt lat="42.0836517" lon="13.6270633"><ele>1144.0</ele><time>2026-05-02T12:20:14.285Z</time></trkpt><trkpt lat="42.0836367" lon="13.62716"><ele>1144.0</ele><time>2026-05-02T12:20:15.285Z</time></trkpt><trkpt lat="42.0836217" lon="13.6272533"><ele>1144.0</ele><time>2026-05-02T12:20:16.285Z</time></trkpt><trkpt lat="42.0836017" lon="13.627335"><ele>1143.9999999999998</ele><time>2026-05-02T12:20:17.285Z</time></trkpt><trkpt lat="42.0835683" lon="13.627425"><ele>1144.0</ele><time>2026-05-02T12:20:18.285Z</time></trkpt><trkpt lat="42.0835283" lon="13.62751"><ele>1142.4</ele><time>2026-05-02T12:20:19.285Z</time></trkpt><trkpt lat="42.083455" lon="13.6276383"><ele>1140.8000000000002</ele><time>2026-05-02T12:20:21.285Z</time></trkpt><trkpt lat="42.08339" lon="13.6276983"><ele>1139.1999999999998</ele><time>2026-05-02T12:20:22.285Z</time></trkpt><trkpt lat="42.083315" lon="13.6277567"><ele>1137.6</ele><time>2026-05-02T12:20:23.285Z</time></trkpt><trkpt lat="42.083225" lon="13.62782"><ele>1136.0</ele><time>2026-05-02T12:20:24.285Z</time></trkpt><trkpt lat="42.0831317" lon="13.6278867"><ele>1134.1666666666667</ele><time>2026-05-02T12:20:25.285Z</time></trkpt><trkpt lat="42.0830433" lon="13.627945"><ele>1132.3333333333335</ele><time>2026-05-02T12:20:26.285Z</time></trkpt><trkpt lat="42.08296" lon="13.628005"><ele>1130.5</ele><time>2026-05-02T12:20:27.285Z</time></trkpt><trkpt lat="42.0828917" lon="13.628055"><ele>1128.6666666666667</ele><time>2026-05-02T12:20:28.285Z</time></trkpt><trkpt lat="42.0828267" lon="13.6280983"><ele>1126.8333333333333</ele><time>2026-05-02T12:20:29.285Z</time></trkpt><trkpt lat="42.0827583" lon="13.6281567"><ele>1125.0</ele><time>2026-05-02T12:20:30.285Z</time></trkpt><trkpt lat="42.0826783" lon="13.6282067"><ele>1125.0</ele><time>2026-05-02T12:20:31.285Z</time></trkpt><trkpt lat="42.0826017" lon="13.6282533"><ele>1125.0</ele><time>2026-05-02T12:20:32.285Z</time></trkpt><trkpt lat="42.0825283" lon="13.6283033"><ele>1125.0</ele><time>2026-05-02T12:20:33.285Z</time></trkpt><trkpt lat="42.0824667" lon="13.6283583"><ele>1125.0</ele><time>2026-05-02T12:20:34.285Z</time></trkpt><trkpt lat="42.0824017" lon="13.628415"><ele>1125.0</ele><time>2026-05-02T12:20:35.285Z</time></trkpt><trkpt lat="42.0823417" lon="13.6284417"><ele>1125.0</ele><time>2026-05-02T12:20:36.285Z</time></trkpt><trkpt lat="42.0822783" lon="13.62848"><ele>1123.6</ele><time>2026-05-02T12:20:37.286Z</time></trkpt><trkpt lat="42.082215" lon="13.6285117"><ele>1122.2</ele><time>2026-05-02T12:20:38.285Z</time></trkpt><trkpt lat="42.08215" lon="13.6285467"><ele>1120.8</ele><time>2026-05-02T12:20:39.285Z</time></trkpt><trkpt lat="42.0820233" lon="13.6286067"><ele>1119.4</ele><time>2026-05-02T12:20:41.285Z</time></trkpt><trkpt lat="42.0818983" lon="13.628635"><ele>1118.0</ele><time>2026-05-02T12:20:43.285Z</time></trkpt><trkpt lat="42.0818267" lon="13.6286367"><ele>1118.0</ele><time>2026-05-02T12:20:44.285Z</time></trkpt><trkpt lat="42.0817517" lon="13.628615"><ele>1118.0</ele><time>2026-05-02T12:20:45.285Z</time></trkpt><trkpt lat="42.0816817" lon="13.62859"><ele>1118.0</ele><time>2026-05-02T12:20:46.285Z</time></trkpt><trkpt lat="42.0816117" lon="13.6285567"><ele>1118.0</ele><time>2026-05-02T12:20:47.285Z</time></trkpt><trkpt lat="42.0814817" lon="13.6285017"><ele>1118.0</ele><time>2026-05-02T12:20:49.285Z</time></trkpt><trkpt lat="42.081415" lon="13.6284617"><ele>1118.0</ele><time>2026-05-02T12:20:50.285Z</time></trkpt><trkpt lat="42.0813517" lon="13.62842"><ele>1114.8</ele><time>2026-05-02T12:20:51.285Z</time></trkpt><trkpt lat="42.0812533" lon="13.6283733"><ele>1111.6</ele><time>2026-05-02T12:20:53.285Z</time></trkpt><trkpt lat="42.081195" lon="13.6283267"><ele>1108.4</ele><time>2026-05-02T12:20:54.285Z</time></trkpt><trkpt lat="42.0810967" lon="13.6282333"><ele>1105.2</ele><time>2026-05-02T12:20:56.285Z</time></trkpt><trkpt lat="42.0810067" lon="13.62809"><ele>1102.0</ele><time>2026-05-02T12:20:58.285Z</time></trkpt><trkpt lat="42.080945" lon="13.6280117"><ele>1102.0</ele><time>2026-05-02T12:20:59.285Z</time></trkpt><trkpt lat="42.0808783" lon="13.627925"><ele>1102.0</ele><time>2026-05-02T12:21:00.285Z</time></trkpt><trkpt lat="42.0808117" lon="13.6278283"><ele>1102.0</ele><time>2026-05-02T12:21:01.285Z</time></trkpt><trkpt lat="42.0807433" lon="13.62773"><ele>1102.0</ele><time>2026-05-02T12:21:02.285Z</time></trkpt><trkpt lat="42.080675" lon="13.62762"><ele>1102.0</ele><time>2026-05-02T12:21:03.285Z</time></trkpt><trkpt lat="42.0806" lon="13.6275067"><ele>1100.4</ele><time>2026-05-02T12:21:04.285Z</time></trkpt><trkpt lat="42.0805333" lon="13.6273933"><ele>1098.8000000000002</ele><time>2026-05-02T12:21:05.286Z</time></trkpt><trkpt lat="42.080475" lon="13.62729"><ele>1097.2</ele><time>2026-05-02T12:21:06.285Z</time></trkpt><trkpt lat="42.0804267" lon="13.6271883"><ele>1095.6000000000001</ele><time>2026-05-02T12:21:07.285Z</time></trkpt><trkpt lat="42.08039" lon="13.6270883"><ele>1094.0</ele><time>2026-05-02T12:21:08.285Z</time></trkpt><trkpt lat="42.0803583" lon="13.6269767"><ele>1094.0</ele><time>2026-05-02T12:21:09.285Z</time></trkpt><trkpt lat="42.0803467" lon="13.6268367"><ele>1094.0</ele><time>2026-05-02T12:21:10.285Z</time></trkpt><trkpt lat="42.0803433" lon="13.6267167"><ele>1094.0</ele><time>2026-05-02T12:21:11.285Z</time></trkpt><trkpt lat="42.0803483" lon="13.6265917"><ele>1094.0</ele><time>2026-05-02T12:21:12.285Z</time></trkpt><trkpt lat="42.0803767" lon="13.62646"><ele>1094.0</ele><time>2026-05-02T12:21:13.285Z</time></trkpt><trkpt lat="42.0804033" lon="13.6263233"><ele>1094.0</ele><time>2026-05-02T12:21:14.285Z</time></trkpt><trkpt lat="42.08043" lon="13.6262017"><ele>1094.0</ele><time>2026-05-02T12:21:15.285Z</time></trkpt><trkpt lat="42.0804383" lon="13.6260733"><ele>1094.0</ele><time>2026-05-02T12:21:16.285Z</time></trkpt><trkpt lat="42.0804317" lon="13.6259267"><ele>1094.0</ele><time>2026-05-02T12:21:17.285Z</time></trkpt><trkpt lat="42.0804133" lon="13.6257967"><ele>1094.0</ele><time>2026-05-02T12:21:18.285Z</time></trkpt><trkpt lat="42.0803883" lon="13.62568"><ele>1094.4</ele><time>2026-05-02T12:21:19.285Z</time></trkpt><trkpt lat="42.0803733" lon="13.625555"><ele>1094.8000000000002</ele><time>2026-05-02T12:21:20.285Z</time></trkpt><trkpt lat="42.080365" lon="13.62543"><ele>1095.1999999999998</ele><time>2026-05-02T12:21:21.285Z</time></trkpt><trkpt lat="42.08036" lon="13.6253"><ele>1095.6</ele><time>2026-05-02T12:21:22.285Z</time></trkpt><trkpt lat="42.080355" lon="13.62517"><ele>1096.0</ele><time>2026-05-02T12:21:23.285Z</time></trkpt><trkpt lat="42.0803533" lon="13.6250217"><ele>1096.6</ele><time>2026-05-02T12:21:24.285Z</time></trkpt><trkpt lat="42.0803533" lon="13.6248883"><ele>1097.1999999999998</ele><time>2026-05-02T12:21:25.285Z</time></trkpt><trkpt lat="42.0803467" lon="13.624745"><ele>1097.8000000000002</ele><time>2026-05-02T12:21:26.285Z</time></trkpt><trkpt lat="42.0803467" lon="13.6246067"><ele>1098.4</ele><time>2026-05-02T12:21:27.285Z</time></trkpt><trkpt lat="42.0803667" lon="13.62448"><ele>1099.0</ele><time>2026-05-02T12:21:28.285Z</time></trkpt><trkpt lat="42.0803917" lon="13.6243633"><ele>1099.0</ele><time>2026-05-02T12:21:29.285Z</time></trkpt><trkpt lat="42.0804217" lon="13.62425"><ele>1099.0</ele><time>2026-05-02T12:21:30.285Z</time></trkpt><trkpt lat="42.08044" lon="13.6241367"><ele>1099.0</ele><time>2026-05-02T12:21:31.285Z</time></trkpt><trkpt lat="42.0804467" lon="13.6240167"><ele>1099.0</ele><time>2026-05-02T12:21:32.285Z</time></trkpt><trkpt lat="42.08044" lon="13.62388"><ele>1099.0</ele><time>2026-05-02T12:21:33.285Z</time></trkpt><trkpt lat="42.0804217" lon="13.6237383"><ele>1099.8</ele><time>2026-05-02T12:21:34.286Z</time></trkpt><trkpt lat="42.0804017" lon="13.6236133"><ele>1100.6000000000001</ele><time>2026-05-02T12:21:35.285Z</time></trkpt><trkpt lat="42.08039" lon="13.6234667"><ele>1101.4</ele><time>2026-05-02T12:21:36.285Z</time></trkpt><trkpt lat="42.080385" lon="13.6233417"><ele>1102.2</ele><time>2026-05-02T12:21:37.285Z</time></trkpt><trkpt lat="42.0803767" lon="13.62319"><ele>1103.0</ele><time>2026-05-02T12:21:38.285Z</time></trkpt><trkpt lat="42.080385" lon="13.6230583"><ele>1103.0</ele><time>2026-05-02T12:21:39.286Z</time></trkpt><trkpt lat="42.0803983" lon="13.62293"><ele>1103.0</ele><time>2026-05-02T12:21:40.285Z</time></trkpt><trkpt lat="42.0804167" lon="13.6228183"><ele>1103.0</ele><time>2026-05-02T12:21:41.285Z</time></trkpt><trkpt lat="42.0804333" lon="13.6227067"><ele>1103.0</ele><time>2026-05-02T12:21:42.285Z</time></trkpt><trkpt lat="42.0804483" lon="13.622595"><ele>1103.0</ele><time>2026-05-02T12:21:43.285Z</time></trkpt><trkpt lat="42.0804567" lon="13.6224883"><ele>1103.0</ele><time>2026-05-02T12:21:44.285Z</time></trkpt><trkpt lat="42.0804817" lon="13.6223783"><ele>1102.6666666666667</ele><time>2026-05-02T12:21:45.285Z</time></trkpt><trkpt lat="42.0805117" lon="13.6222783"><ele>1102.3333333333335</ele><time>2026-05-02T12:21:46.285Z</time></trkpt><trkpt lat="42.0805567" lon="13.6221667"><ele>1102.0</ele><time>2026-05-02T12:21:47.285Z</time></trkpt><trkpt lat="42.0806067" lon="13.622055"><ele>1101.6666666666667</ele><time>2026-05-02T12:21:48.285Z</time></trkpt><trkpt lat="42.0806633" lon="13.6219583"><ele>1101.3333333333333</ele><time>2026-05-02T12:21:49.285Z</time></trkpt><trkpt lat="42.08072" lon="13.62187"><ele>1101.0</ele><time>2026-05-02T12:21:50.285Z</time></trkpt><trkpt lat="42.080785" lon="13.6217867"><ele>1103.0</ele><time>2026-05-02T12:21:51.285Z</time></trkpt><trkpt lat="42.0808417" lon="13.6217233"><ele>1105.0</ele><time>2026-05-02T12:21:52.285Z</time></trkpt><trkpt lat="42.0808833" lon="13.6216467"><ele>1107.0</ele><time>2026-05-02T12:21:53.285Z</time></trkpt><trkpt lat="42.08093" lon="13.6215583"><ele>1109.0</ele><time>2026-05-02T12:21:54.285Z</time></trkpt><trkpt lat="42.080965" lon="13.6214567"><ele>1111.0</ele><time>2026-05-02T12:21:55.285Z</time></trkpt><trkpt lat="42.0809967" lon="13.6213417"><ele>1113.0</ele><time>2026-05-02T12:21:56.285Z</time></trkpt><trkpt lat="42.081035" lon="13.6212217"><ele>1112.2</ele><time>2026-05-02T12:21:57.285Z</time></trkpt><trkpt lat="42.0810833" lon="13.6211033"><ele>1111.4</ele><time>2026-05-02T12:21:58.286Z</time></trkpt><trkpt lat="42.081135" lon="13.62099"><ele>1110.6000000000001</ele><time>2026-05-02T12:21:59.285Z</time></trkpt><trkpt lat="42.0811767" lon="13.6208867"><ele>1109.8</ele><time>2026-05-02T12:22:00.285Z</time></trkpt><trkpt lat="42.0812033" lon="13.62078"><ele>1109.0</ele><time>2026-05-02T12:22:01.285Z</time></trkpt><trkpt lat="42.0812333" lon="13.6206633"><ele>1109.0</ele><time>2026-05-02T12:22:02.285Z</time></trkpt><trkpt lat="42.08126" lon="13.6205567"><ele>1109.0</ele><time>2026-05-02T12:22:03.285Z</time></trkpt><trkpt lat="42.081285" lon="13.620435"><ele>1109.0</ele><time>2026-05-02T12:22:04.285Z</time></trkpt><trkpt lat="42.081315" lon="13.6203167"><ele>1109.0</ele><time>2026-05-02T12:22:05.285Z</time></trkpt><trkpt lat="42.08134" lon="13.6202183"><ele>1109.0</ele><time>2026-05-02T12:22:06.285Z</time></trkpt><trkpt lat="42.08137" lon="13.6201317"><ele>1109.0</ele><time>2026-05-02T12:22:07.285Z</time></trkpt><trkpt lat="42.081395" lon="13.6200367"><ele>1107.9999999999998</ele><time>2026-05-02T12:22:08.285Z</time></trkpt><trkpt lat="42.0814217" lon="13.61994"><ele>1107.0</ele><time>2026-05-02T12:22:09.285Z</time></trkpt><trkpt lat="42.0814417" lon="13.6198367"><ele>1106.0</ele><time>2026-05-02T12:22:10.285Z</time></trkpt><trkpt lat="42.0814667" lon="13.61973"><ele>1105.0</ele><time>2026-05-02T12:22:11.285Z</time></trkpt><trkpt lat="42.0814883" lon="13.619635"><ele>1104.0</ele><time>2026-05-02T12:22:12.285Z</time></trkpt><trkpt lat="42.0815083" lon="13.6195467"><ele>1102.9999999999998</ele><time>2026-05-02T12:22:13.286Z</time></trkpt><trkpt lat="42.081535" lon="13.6194633"><ele>1102.0</ele><time>2026-05-02T12:22:14.285Z</time></trkpt><trkpt lat="42.08158" lon="13.6193017"><ele>1103.1666666666665</ele><time>2026-05-02T12:22:16.285Z</time></trkpt><trkpt lat="42.0816083" lon="13.6192117"><ele>1104.3333333333333</ele><time>2026-05-02T12:22:17.285Z</time></trkpt><trkpt lat="42.0816283" lon="13.61913"><ele>1105.5</ele><time>2026-05-02T12:22:18.285Z</time></trkpt><trkpt lat="42.0816567" lon="13.61903"><ele>1106.6666666666667</ele><time>2026-05-02T12:22:19.285Z</time></trkpt><trkpt lat="42.081685" lon="13.6189233"><ele>1107.8333333333335</ele><time>2026-05-02T12:22:20.285Z</time></trkpt><trkpt lat="42.0817267" lon="13.6188217"><ele>1109.0</ele><time>2026-05-02T12:22:21.285Z</time></trkpt><trkpt lat="42.0817667" lon="13.6187067"><ele>1107.1666666666667</ele><time>2026-05-02T12:22:22.286Z</time></trkpt><trkpt lat="42.081805" lon="13.61862"><ele>1105.3333333333335</ele><time>2026-05-02T12:22:23.285Z</time></trkpt><trkpt lat="42.0818267" lon="13.618525"><ele>1103.5</ele><time>2026-05-02T12:22:24.285Z</time></trkpt><trkpt lat="42.0818733" lon="13.6183633"><ele>1101.6666666666667</ele><time>2026-05-02T12:22:26.285Z</time></trkpt><trkpt lat="42.0819033" lon="13.6182667"><ele>1099.8333333333333</ele><time>2026-05-02T12:22:27.285Z</time></trkpt><trkpt lat="42.0819333" lon="13.6181683"><ele>1098.0</ele><time>2026-05-02T12:22:28.285Z</time></trkpt><trkpt lat="42.0819633" lon="13.618065"><ele>1098.0</ele><time>2026-05-02T12:22:29.285Z</time></trkpt><trkpt lat="42.08199" lon="13.6179617"><ele>1098.0</ele><time>2026-05-02T12:22:30.286Z</time></trkpt><trkpt lat="42.0820183" lon="13.61786"><ele>1098.0</ele><time>2026-05-02T12:22:31.285Z</time></trkpt><trkpt lat="42.08204" lon="13.6177633"><ele>1098.0</ele><time>2026-05-02T12:22:32.285Z</time></trkpt><trkpt lat="42.082065" lon="13.61768"><ele>1098.0</ele><time>2026-05-02T12:22:33.285Z</time></trkpt><trkpt lat="42.08209" lon="13.6175833"><ele>1098.0</ele><time>2026-05-02T12:22:34.286Z</time></trkpt><trkpt lat="42.0821067" lon="13.6174683"><ele>1096.1666666666667</ele><time>2026-05-02T12:22:35.285Z</time></trkpt><trkpt lat="42.0821283" lon="13.6173667"><ele>1094.3333333333333</ele><time>2026-05-02T12:22:36.285Z</time></trkpt><trkpt lat="42.0821533" lon="13.6172483"><ele>1092.5</ele><time>2026-05-02T12:22:37.285Z</time></trkpt><trkpt lat="42.08217" lon="13.6171317"><ele>1090.6666666666665</ele><time>2026-05-02T12:22:38.285Z</time></trkpt><trkpt lat="42.082195" lon="13.6170183"><ele>1088.8333333333333</ele><time>2026-05-02T12:22:39.285Z</time></trkpt><trkpt lat="42.0822117" lon="13.6169067"><ele>1087.0</ele><time>2026-05-02T12:22:40.285Z</time></trkpt><trkpt lat="42.08223" lon="13.61681"><ele>1085.8333333333333</ele><time>2026-05-02T12:22:41.285Z</time></trkpt><trkpt lat="42.0822333" lon="13.6167167"><ele>1084.6666666666665</ele><time>2026-05-02T12:22:42.285Z</time></trkpt><trkpt lat="42.0822317" lon="13.6166267"><ele>1083.5</ele><time>2026-05-02T12:22:43.285Z</time></trkpt><trkpt lat="42.0822233" lon="13.6165333"><ele>1082.3333333333333</ele><time>2026-05-02T12:22:44.285Z</time></trkpt><trkpt lat="42.082215" lon="13.616415"><ele>1081.1666666666667</ele><time>2026-05-02T12:22:45.285Z</time></trkpt><trkpt lat="42.0822083" lon="13.6162883"><ele>1080.0</ele><time>2026-05-02T12:22:46.285Z</time></trkpt><trkpt lat="42.082205" lon="13.6161617"><ele>1078.4</ele><time>2026-05-02T12:22:47.285Z</time></trkpt><trkpt lat="42.0822017" lon="13.6160417"><ele>1076.8</ele><time>2026-05-02T12:22:48.286Z</time></trkpt><trkpt lat="42.082205" lon="13.6159267"><ele>1075.2</ele><time>2026-05-02T12:22:49.285Z</time></trkpt><trkpt lat="42.08221" lon="13.61582"><ele>1073.6</ele><time>2026-05-02T12:22:50.285Z</time></trkpt><trkpt lat="42.0822117" lon="13.6157267"><ele>1072.0</ele><time>2026-05-02T12:22:51.285Z</time></trkpt><trkpt lat="42.082215" lon="13.615555"><ele>1072.0</ele><time>2026-05-02T12:22:53.285Z</time></trkpt><trkpt lat="42.0822083" lon="13.6154333"><ele>1072.0</ele><time>2026-05-02T12:22:55.285Z</time></trkpt><trkpt lat="42.0821983" lon="13.6153183"><ele>1072.0</ele><time>2026-05-02T12:22:57.285Z</time></trkpt><trkpt lat="42.0821967" lon="13.6151783"><ele>1072.0</ele><time>2026-05-02T12:22:59.285Z</time></trkpt><trkpt lat="42.0821883" lon="13.6150933"><ele>1072.0</ele><time>2026-05-02T12:23:00.285Z</time></trkpt><trkpt lat="42.08219" lon="13.6150083"><ele>1072.0</ele><time>2026-05-02T12:23:01.285Z</time></trkpt><trkpt lat="42.0821867" lon="13.6149183"><ele>1070.8</ele><time>2026-05-02T12:23:02.285Z</time></trkpt><trkpt lat="42.0821817" lon="13.614735"><ele>1069.6</ele><time>2026-05-02T12:23:04.285Z</time></trkpt><trkpt lat="42.08218" lon="13.6146267"><ele>1068.3999999999999</ele><time>2026-05-02T12:23:05.285Z</time></trkpt><trkpt lat="42.0821783" lon="13.6145083"><ele>1067.2</ele><time>2026-05-02T12:23:06.285Z</time></trkpt><trkpt lat="42.08217" lon="13.6144"><ele>1066.0</ele><time>2026-05-02T12:23:07.285Z</time></trkpt><trkpt lat="42.0821617" lon="13.6142967"><ele>1065.0</ele><time>2026-05-02T12:23:08.286Z</time></trkpt><trkpt lat="42.082155" lon="13.6142083"><ele>1064.0</ele><time>2026-05-02T12:23:09.285Z</time></trkpt><trkpt lat="42.082155" lon="13.614115"><ele>1063.0</ele><time>2026-05-02T12:23:10.285Z</time></trkpt><trkpt lat="42.082155" lon="13.61402"><ele>1062.0</ele><time>2026-05-02T12:23:11.285Z</time></trkpt><trkpt lat="42.08215" lon="13.6139083"><ele>1061.0</ele><time>2026-05-02T12:23:12.285Z</time></trkpt><trkpt lat="42.0821467" lon="13.6138033"><ele>1060.0</ele><time>2026-05-02T12:23:13.286Z</time></trkpt><trkpt lat="42.0821383" lon="13.6136983"><ele>1059.0</ele><time>2026-05-02T12:23:14.285Z</time></trkpt><trkpt lat="42.0821283" lon="13.6135933"><ele>1058.1666666666667</ele><time>2026-05-02T12:23:15.285Z</time></trkpt><trkpt lat="42.082115" lon="13.613475"><ele>1057.3333333333333</ele><time>2026-05-02T12:23:16.285Z</time></trkpt><trkpt lat="42.0821067" lon="13.6133483"><ele>1056.5</ele><time>2026-05-02T12:23:17.285Z</time></trkpt><trkpt lat="42.0821033" lon="13.6132267"><ele>1055.6666666666665</ele><time>2026-05-02T12:23:18.285Z</time></trkpt><trkpt lat="42.082095" lon="13.6131083"><ele>1054.8333333333333</ele><time>2026-05-02T12:23:19.285Z</time></trkpt><trkpt lat="42.082095" lon="13.6130017"><ele>1054.0</ele><time>2026-05-02T12:23:20.285Z</time></trkpt><trkpt lat="42.08209" lon="13.6128933"><ele>1053.2857142857144</ele><time>2026-05-02T12:23:21.285Z</time></trkpt><trkpt lat="42.0820833" lon="13.6127817"><ele>1052.5714285714287</ele><time>2026-05-02T12:23:22.286Z</time></trkpt><trkpt lat="42.0820833" lon="13.6126833"><ele>1051.857142857143</ele><time>2026-05-02T12:23:23.285Z</time></trkpt><trkpt lat="42.082085" lon="13.61259"><ele>1051.1428571428573</ele><time>2026-05-02T12:23:24.285Z</time></trkpt><trkpt lat="42.0820833" lon="13.6125"><ele>1050.4285714285716</ele><time>2026-05-02T12:23:25.285Z</time></trkpt><trkpt lat="42.08208" lon="13.6124133"><ele>1049.7142857142858</ele><time>2026-05-02T12:23:26.285Z</time></trkpt><trkpt lat="42.0820683" lon="13.6123233"><ele>1049.0</ele><time>2026-05-02T12:23:27.285Z</time></trkpt><trkpt lat="42.0820583" lon="13.61223"><ele>1049.0</ele><time>2026-05-02T12:23:28.285Z</time></trkpt><trkpt lat="42.0820517" lon="13.6121417"><ele>1049.0</ele><time>2026-05-02T12:23:29.285Z</time></trkpt><trkpt lat="42.0820533" lon="13.6120467"><ele>1049.0</ele><time>2026-05-02T12:23:30.285Z</time></trkpt><trkpt lat="42.0820467" lon="13.61195"><ele>1049.0</ele><time>2026-05-02T12:23:31.285Z</time></trkpt><trkpt lat="42.0820433" lon="13.6118617"><ele>1049.0</ele><time>2026-05-02T12:23:32.286Z</time></trkpt><trkpt lat="42.082035" lon="13.6117717"><ele>1049.0</ele><time>2026-05-02T12:23:33.285Z</time></trkpt><trkpt lat="42.0820317" lon="13.6116867"><ele>1049.0</ele><time>2026-05-02T12:23:34.285Z</time></trkpt><trkpt lat="42.0820317" lon="13.6115183"><ele>1048.0</ele><time>2026-05-02T12:23:36.285Z</time></trkpt><trkpt lat="42.08203" lon="13.61143"><ele>1047.0</ele><time>2026-05-02T12:23:37.285Z</time></trkpt><trkpt lat="42.082025" lon="13.6113433"><ele>1046.0</ele><time>2026-05-02T12:23:38.285Z</time></trkpt><trkpt lat="42.0820183" lon="13.61125"><ele>1045.0</ele><time>2026-05-02T12:23:39.285Z</time></trkpt><trkpt lat="42.0820183" lon="13.6111617"><ele>1044.0</ele><time>2026-05-02T12:23:40.285Z</time></trkpt><trkpt lat="42.0820233" lon="13.6110717"><ele>1043.0</ele><time>2026-05-02T12:23:41.285Z</time></trkpt><trkpt lat="42.0820283" lon="13.6109833"><ele>1042.0</ele><time>2026-05-02T12:23:42.285Z</time></trkpt><trkpt lat="42.082055" lon="13.610815"><ele>1039.25</ele><time>2026-05-02T12:23:44.285Z</time></trkpt><trkpt lat="42.0821033" lon="13.6106667"><ele>1036.5</ele><time>2026-05-02T12:23:46.285Z</time></trkpt><trkpt lat="42.0821817" lon="13.6105433"><ele>1033.75</ele><time>2026-05-02T12:23:48.286Z</time></trkpt><trkpt lat="42.0822733" lon="13.610475"><ele>1031.0</ele><time>2026-05-02T12:23:50.285Z</time></trkpt><trkpt lat="42.08238" lon="13.6104533"><ele>1031.8</ele><time>2026-05-02T12:23:52.285Z</time></trkpt><trkpt lat="42.082495" lon="13.6104433"><ele>1032.6</ele><time>2026-05-02T12:23:54.285Z</time></trkpt><trkpt lat="42.08261" lon="13.6104367"><ele>1033.4</ele><time>2026-05-02T12:23:56.285Z</time></trkpt><trkpt lat="42.0827033" lon="13.6103967"><ele>1034.2</ele><time>2026-05-02T12:23:58.286Z</time></trkpt><trkpt lat="42.08278" lon="13.610325"><ele>1035.0</ele><time>2026-05-02T12:24:00.285Z</time></trkpt><trkpt lat="42.0828283" lon="13.6102467"><ele>1035.0</ele><time>2026-05-02T12:24:02.285Z</time></trkpt><trkpt lat="42.0828267" lon="13.61016"><ele>1035.0</ele><time>2026-05-02T12:24:05.285Z</time></trkpt><trkpt lat="42.0827383" lon="13.6101367"><ele>1035.0</ele><time>2026-05-02T12:24:38.285Z</time></trkpt><trkpt lat="42.08266" lon="13.6101"><ele>1035.0</ele><time>2026-05-02T12:24:41.285Z</time></trkpt><trkpt lat="42.0825883" lon="13.6100767"><ele>1035.0</ele><time>2026-05-02T12:24:44.285Z</time></trkpt><trkpt lat="42.0824917" lon="13.6100733"><ele>1035.0</ele><time>2026-05-02T12:24:47.285Z</time></trkpt><trkpt lat="42.0824067" lon="13.6100483"><ele>1031.5</ele><time>2026-05-02T12:24:49.285Z</time></trkpt><trkpt lat="42.0822967" lon="13.6100233"><ele>1028.0</ele><time>2026-05-02T12:24:51.286Z</time></trkpt><trkpt lat="42.0821783" lon="13.6100033"><ele>1024.5</ele><time>2026-05-02T12:24:53.285Z</time></trkpt><trkpt lat="42.0820617" lon="13.6099883"><ele>1021.0</ele><time>2026-05-02T12:24:55.285Z</time></trkpt><trkpt lat="42.0819583" lon="13.61"><ele>1021.0</ele><time>2026-05-02T12:24:57.285Z</time></trkpt><trkpt lat="42.0818567" lon="13.6100167"><ele>1020.9999999999999</ele><time>2026-05-02T12:24:59.285Z</time></trkpt><trkpt lat="42.0817567" lon="13.6100317"><ele>1020.9999999999999</ele><time>2026-05-02T12:25:01.285Z</time></trkpt><trkpt lat="42.0816667" lon="13.6100283"><ele>1021.0</ele><time>2026-05-02T12:25:03.285Z</time></trkpt><trkpt lat="42.08158" lon="13.6100317"><ele>1021.0</ele><time>2026-05-02T12:25:05.285Z</time></trkpt><trkpt lat="42.08149" lon="13.610075"><ele>1018.9999999999999</ele><time>2026-05-02T12:25:07.285Z</time></trkpt><trkpt lat="42.0814033" lon="13.6101217"><ele>1017.0</ele><time>2026-05-02T12:25:09.285Z</time></trkpt><trkpt lat="42.0813233" lon="13.6101667"><ele>1015.0</ele><time>2026-05-02T12:25:11.285Z</time></trkpt><trkpt lat="42.0812367" lon="13.610225"><ele>1013.0</ele><time>2026-05-02T12:25:13.285Z</time></trkpt><trkpt lat="42.08116" lon="13.610275"><ele>1010.9999999999999</ele><time>2026-05-02T12:25:15.285Z</time></trkpt><trkpt lat="42.0810917" lon="13.6102933"><ele>1009.0</ele><time>2026-05-02T12:25:17.285Z</time></trkpt><trkpt lat="42.081025" lon="13.6102883"><ele>1009.0</ele><time>2026-05-02T12:25:19.285Z</time></trkpt><trkpt lat="42.0809417" lon="13.6102517"><ele>1009.0000000000001</ele><time>2026-05-02T12:25:21.285Z</time></trkpt><trkpt lat="42.0808467" lon="13.6102217"><ele>1009.0000000000001</ele><time>2026-05-02T12:25:23.285Z</time></trkpt><trkpt lat="42.0807583" lon="13.610215"><ele>1009.0</ele><time>2026-05-02T12:25:25.286Z</time></trkpt><trkpt lat="42.0806833" lon="13.6102217"><ele>1009.0</ele><time>2026-05-02T12:25:27.285Z</time></trkpt><trkpt lat="42.0805817" lon="13.6102517"><ele>1007.0</ele><time>2026-05-02T12:25:29.285Z</time></trkpt><trkpt lat="42.08047" lon="13.6102783"><ele>1005.0000000000001</ele><time>2026-05-02T12:25:31.285Z</time></trkpt><trkpt lat="42.080365" lon="13.6103033"><ele>1003.0000000000001</ele><time>2026-05-02T12:25:33.286Z</time></trkpt><trkpt lat="42.0802567" lon="13.610325"><ele>1001.0</ele><time>2026-05-02T12:25:35.285Z</time></trkpt><trkpt lat="42.0801533" lon="13.61033"><ele>999.0</ele><time>2026-05-02T12:25:37.285Z</time></trkpt><trkpt lat="42.0800367" lon="13.6103367"><ele>996.4000000000001</ele><time>2026-05-02T12:25:39.286Z</time></trkpt><trkpt lat="42.0799267" lon="13.61035"><ele>993.8000000000001</ele><time>2026-05-02T12:25:41.285Z</time></trkpt><trkpt lat="42.0798133" lon="13.6103867"><ele>991.1999999999999</ele><time>2026-05-02T12:25:43.285Z</time></trkpt><trkpt lat="42.0797033" lon="13.61042"><ele>988.5999999999999</ele><time>2026-05-02T12:25:45.285Z</time></trkpt><trkpt lat="42.0796019" lon="13.6104434"><ele>986.0</ele><time>2026-05-02T12:25:47.285Z</time></trkpt><trkpt lat="42.0795067" lon="13.6104411"><ele>986.0</ele><time>2026-05-02T12:25:49.285Z</time></trkpt><trkpt lat="42.0794196" lon="13.6104036"><ele>985.9999999999999</ele><time>2026-05-02T12:25:51.285Z</time></trkpt><trkpt lat="42.0793285" lon="13.6103442"><ele>985.9999999999999</ele><time>2026-05-02T12:25:53.285Z</time></trkpt><trkpt lat="42.0792219" lon="13.6102992"><ele>986.0</ele><time>2026-05-02T12:25:55.285Z</time></trkpt><trkpt lat="42.0791277" lon="13.6102618"><ele>986.0</ele><time>2026-05-02T12:25:57.285Z</time></trkpt><trkpt lat="42.0790322" lon="13.6102384"><ele>983.0</ele><time>2026-05-02T12:25:59.285Z</time></trkpt><trkpt lat="42.0789118" lon="13.6102394"><ele>979.9999999999999</ele><time>2026-05-02T12:26:01.285Z</time></trkpt><trkpt lat="42.078846" lon="13.6102471"><ele>976.9999999999999</ele><time>2026-05-02T12:26:02.285Z</time></trkpt><trkpt lat="42.0787832" lon="13.610259"><ele>974.0</ele><time>2026-05-02T12:26:03.285Z</time></trkpt><trkpt lat="42.0786731" lon="13.6102761"><ele>971.0</ele><time>2026-05-02T12:26:05.285Z</time></trkpt><trkpt lat="42.078573" lon="13.6102676"><ele>971.0</ele><time>2026-05-02T12:26:07.285Z</time></trkpt><trkpt lat="42.078459" lon="13.6102529"><ele>970.9999999999999</ele><time>2026-05-02T12:26:09.285Z</time></trkpt><trkpt lat="42.078348" lon="13.6102321"><ele>970.9999999999999</ele><time>2026-05-02T12:26:11.285Z</time></trkpt><trkpt lat="42.0782391" lon="13.6102419"><ele>971.0</ele><time>2026-05-02T12:26:13.285Z</time></trkpt><trkpt lat="42.0781485" lon="13.6102649"><ele>971.0</ele><time>2026-05-02T12:26:15.285Z</time></trkpt><trkpt lat="42.07807" lon="13.610295"><ele>968.8</ele><time>2026-05-02T12:26:17.285Z</time></trkpt><trkpt lat="42.0779517" lon="13.6103067"><ele>966.5999999999999</ele><time>2026-05-02T12:26:19.285Z</time></trkpt><trkpt lat="42.0778817" lon="13.6103067"><ele>964.4</ele><time>2026-05-02T12:26:20.286Z</time></trkpt><trkpt lat="42.0778167" lon="13.6102983"><ele>962.2</ele><time>2026-05-02T12:26:21.285Z</time></trkpt><trkpt lat="42.077705" lon="13.6102833"><ele>960.0</ele><time>2026-05-02T12:26:23.285Z</time></trkpt><trkpt lat="42.0775967" lon="13.6103183"><ele>960.2</ele><time>2026-05-02T12:26:25.285Z</time></trkpt><trkpt lat="42.0774917" lon="13.61034"><ele>960.4</ele><time>2026-05-02T12:26:27.285Z</time></trkpt><trkpt lat="42.077405" lon="13.61034"><ele>960.5999999999999</ele><time>2026-05-02T12:26:29.285Z</time></trkpt><trkpt lat="42.0773083" lon="13.6103533"><ele>960.8</ele><time>2026-05-02T12:26:31.286Z</time></trkpt><trkpt lat="42.077205" lon="13.6103917"><ele>961.0</ele><time>2026-05-02T12:26:33.285Z</time></trkpt><trkpt lat="42.0771183" lon="13.610435"><ele>958.1999999999999</ele><time>2026-05-02T12:26:35.285Z</time></trkpt><trkpt lat="42.07702" lon="13.61042"><ele>955.3999999999999</ele><time>2026-05-02T12:26:37.285Z</time></trkpt><trkpt lat="42.0769067" lon="13.6104"><ele>952.6</ele><time>2026-05-02T12:26:39.285Z</time></trkpt><trkpt lat="42.0768417" lon="13.6103867"><ele>949.8</ele><time>2026-05-02T12:26:40.285Z</time></trkpt><trkpt lat="42.0767417" lon="13.6103967"><ele>947.0</ele><time>2026-05-02T12:26:42.285Z</time></trkpt><trkpt lat="42.0766383" lon="13.6104067"><ele>943.8</ele><time>2026-05-02T12:26:44.285Z</time></trkpt><trkpt lat="42.0765417" lon="13.6104083"><ele>940.6</ele><time>2026-05-02T12:26:46.285Z</time></trkpt><trkpt lat="42.0764317" lon="13.6104117"><ele>937.3999999999999</ele><time>2026-05-02T12:26:48.285Z</time></trkpt><trkpt lat="42.076315" lon="13.6104283"><ele>934.1999999999999</ele><time>2026-05-02T12:26:50.285Z</time></trkpt><trkpt lat="42.0762517" lon="13.6104417"><ele>931.0</ele><time>2026-05-02T12:26:51.285Z</time></trkpt><trkpt lat="42.0761517" lon="13.6104639"><ele>930.9999999999999</ele><time>2026-05-02T12:26:53.285Z</time></trkpt><trkpt lat="42.0760815" lon="13.6105272"><ele>931.0</ele><time>2026-05-02T12:26:55.285Z</time></trkpt><trkpt lat="42.0760317" lon="13.6106092"><ele>931.0</ele><time>2026-05-02T12:26:57.285Z</time></trkpt><trkpt lat="42.0759686" lon="13.6106901"><ele>931.0</ele><time>2026-05-02T12:26:59.285Z</time></trkpt><trkpt lat="42.0758899" lon="13.6107515"><ele>930.9999999999999</ele><time>2026-05-02T12:27:01.286Z</time></trkpt><trkpt lat="42.0758167" lon="13.6107983"><ele>931.0</ele><time>2026-05-02T12:27:03.285Z</time></trkpt><trkpt lat="42.0757633" lon="13.610845"><ele>929.2857142857142</ele><time>2026-05-02T12:27:05.285Z</time></trkpt><trkpt lat="42.075695" lon="13.6108933"><ele>927.5714285714286</ele><time>2026-05-02T12:27:08.285Z</time></trkpt><trkpt lat="42.0756267" lon="13.61096"><ele>925.8571428571429</ele><time>2026-05-02T12:27:11.285Z</time></trkpt><trkpt lat="42.0755609" lon="13.610994"><ele>924.1428571428571</ele><time>2026-05-02T12:27:17.419Z</time></trkpt><trkpt lat="42.0755032" lon="13.6110482"><ele>922.4285714285713</ele><time>2026-05-02T12:27:21.452Z</time></trkpt><trkpt lat="42.0754324" lon="13.6110752"><ele>920.7142857142857</ele><time>2026-05-02T12:27:26.35Z</time></trkpt><trkpt lat="42.0753626" lon="13.6110806"><ele>919.0</ele><time>2026-05-02T12:27:31.347Z</time></trkpt><trkpt lat="42.0752932" lon="13.6110884"><ele>919.0</ele><time>2026-05-02T12:27:36.345Z</time></trkpt><trkpt lat="42.0752155" lon="13.6111176"><ele>918.9999999999999</ele><time>2026-05-02T12:29:17.354Z</time></trkpt><trkpt lat="42.0752929" lon="13.6111315"><ele>919.0</ele><time>2026-05-02T12:29:18.311Z</time></trkpt><trkpt lat="42.0753619" lon="13.6111273"><ele>919.0</ele><time>2026-05-02T12:29:22.351Z</time></trkpt><trkpt lat="42.0754164" lon="13.6110757"><ele>918.9999999999999</ele><time>2026-05-02T12:29:27.348Z</time></trkpt><trkpt lat="42.0754842" lon="13.6110642"><ele>919.0</ele><time>2026-05-02T12:29:38.406Z</time></trkpt><trkpt lat="42.0755482" lon="13.6110262"><ele>919.0</ele><time>2026-05-02T12:29:48.369Z</time></trkpt><trkpt lat="42.0756103" lon="13.6109976"><ele>919.0</ele><time>2026-05-02T12:29:53.291Z</time></trkpt><trkpt lat="42.0756642" lon="13.6109479"><ele>918.9999999999999</ele><time>2026-05-02T12:30:00.416Z</time></trkpt><trkpt lat="42.0757234" lon="13.610914"><ele>919.0</ele><time>2026-05-02T12:30:11.453Z</time></trkpt><trkpt lat="42.0757776" lon="13.6109615"><ele>919.0</ele><time>2026-05-02T12:30:20.404Z</time></trkpt><trkpt lat="42.0758111" lon="13.6110352"><ele>918.9999999999999</ele><time>2026-05-02T12:30:27.421Z</time></trkpt><trkpt lat="42.0758639" lon="13.6109541"><ele>919.0</ele><time>2026-05-02T12:31:46.418Z</time></trkpt><trkpt lat="42.0758048" lon="13.6109223"><ele>919.0</ele><time>2026-05-02T12:59:04.343Z</time></trkpt><trkpt lat="42.0758607" lon="13.6109666"><ele>919.0</ele><time>2026-05-02T12:59:13.331Z</time></trkpt><trkpt lat="42.0758069" lon="13.6109102"><ele>918.9999999999999</ele><time>2026-05-02T13:02:18.376Z</time></trkpt><trkpt lat="42.075752" lon="13.6108682"><ele>919.0</ele><time>2026-05-02T13:02:27.391Z</time></trkpt><trkpt lat="42.0756873" lon="13.6109114"><ele>919.0</ele><time>2026-05-02T13:02:34.324Z</time></trkpt><trkpt lat="42.0756172" lon="13.6109642"><ele>918.9999999999999</ele><time>2026-05-02T13:02:39.322Z</time></trkpt><trkpt lat="42.0755495" lon="13.6109753"><ele>919.0</ele><time>2026-05-02T13:02:43.31Z</time></trkpt><trkpt lat="42.0754809" lon="13.6110067"><ele>919.0</ele><time>2026-05-02T13:02:48.358Z</time></trkpt><trkpt lat="42.0754168" lon="13.6110287"><ele>918.9999999999999</ele><time>2026-05-02T13:02:56.332Z</time></trkpt><trkpt lat="42.0754134" lon="13.6109345"><ele>919.0</ele><time>2026-05-02T13:03:07.286Z</time></trkpt><trkpt lat="42.0753418" lon="13.6109594"><ele>919.0</ele><time>2026-05-02T13:04:19.31Z</time></trkpt><trkpt lat="42.0752929" lon="13.6110188"><ele>919.0</ele><time>2026-05-02T13:04:23.406Z</time></trkpt><trkpt lat="42.0752543" lon="13.6110947"><ele>918.9999999999999</ele><time>2026-05-02T13:04:31.373Z</time></trkpt><trkpt lat="42.0752087" lon="13.6111583"><ele>919.0</ele><time>2026-05-02T13:04:36.377Z</time></trkpt><trkpt lat="42.0751017" lon="13.6112083"><ele>918.8333333333333</ele><time>2026-05-02T13:09:03.287Z</time></trkpt><trkpt lat="42.0750333" lon="13.6112117"><ele>918.6666666666666</ele><time>2026-05-02T13:09:06.287Z</time></trkpt><trkpt lat="42.07497" lon="13.6112"><ele>918.5</ele><time>2026-05-02T13:09:08.287Z</time></trkpt><trkpt lat="42.0749033" lon="13.61119"><ele>918.3333333333333</ele><time>2026-05-02T13:09:10.287Z</time></trkpt><trkpt lat="42.0748317" lon="13.6111783"><ele>918.1666666666666</ele><time>2026-05-02T13:09:12.287Z</time></trkpt><trkpt lat="42.074731" lon="13.6111476"><ele>918.0</ele><time>2026-05-02T13:09:15.36Z</time></trkpt><trkpt lat="42.0746595" lon="13.6111165"><ele>916.6666666666666</ele><time>2026-05-02T13:09:17.37Z</time></trkpt><trkpt lat="42.0745928" lon="13.6111327"><ele>915.3333333333333</ele><time>2026-05-02T13:09:19.39Z</time></trkpt><trkpt lat="42.0745428" lon="13.6112029"><ele>914.0</ele><time>2026-05-02T13:09:21.41Z</time></trkpt><trkpt lat="42.074483" lon="13.6112316"><ele>912.6666666666666</ele><time>2026-05-02T13:09:23.324Z</time></trkpt><trkpt lat="42.0743689" lon="13.6111564"><ele>911.3333333333333</ele><time>2026-05-02T13:09:25.287Z</time></trkpt><trkpt lat="42.0742788" lon="13.6111027"><ele>910.0</ele><time>2026-05-02T13:09:26.288Z</time></trkpt><trkpt lat="42.0741846" lon="13.6110508"><ele>908.6666666666666</ele><time>2026-05-02T13:09:27.287Z</time></trkpt><trkpt lat="42.0740911" lon="13.6109976"><ele>907.3333333333333</ele><time>2026-05-02T13:09:28.287Z</time></trkpt><trkpt lat="42.0740059" lon="13.6109433"><ele>906.0</ele><time>2026-05-02T13:09:29.287Z</time></trkpt><trkpt lat="42.073929" lon="13.6108934"><ele>904.6666666666667</ele><time>2026-05-02T13:09:30.287Z</time></trkpt><trkpt lat="42.0738584" lon="13.6108373"><ele>903.3333333333334</ele><time>2026-05-02T13:09:31.287Z</time></trkpt><trkpt lat="42.0737922" lon="13.6107841"><ele>902.0</ele><time>2026-05-02T13:09:32.287Z</time></trkpt><trkpt lat="42.0737278" lon="13.6107382"><ele>902.0000000000001</ele><time>2026-05-02T13:09:33.287Z</time></trkpt><trkpt lat="42.0736642" lon="13.6106835"><ele>902.0</ele><time>2026-05-02T13:09:34.287Z</time></trkpt><trkpt lat="42.0735931" lon="13.610627"><ele>902.0</ele><time>2026-05-02T13:09:35.288Z</time></trkpt><trkpt lat="42.0735181" lon="13.6105639"><ele>902.0</ele><time>2026-05-02T13:09:36.287Z</time></trkpt><trkpt lat="42.0734399" lon="13.6104868"><ele>902.0000000000001</ele><time>2026-05-02T13:09:37.287Z</time></trkpt><trkpt lat="42.0733639" lon="13.6104045"><ele>902.0</ele><time>2026-05-02T13:09:38.288Z</time></trkpt><trkpt lat="42.0732881" lon="13.6103204"><ele>899.8</ele><time>2026-05-02T13:09:39.287Z</time></trkpt><trkpt lat="42.0732056" lon="13.6102356"><ele>897.6</ele><time>2026-05-02T13:09:40.287Z</time></trkpt><trkpt lat="42.0731169" lon="13.6101417"><ele>895.3999999999999</ele><time>2026-05-02T13:09:41.287Z</time></trkpt><trkpt lat="42.0730292" lon="13.6100405"><ele>893.1999999999999</ele><time>2026-05-02T13:09:42.287Z</time></trkpt><trkpt lat="42.0729406" lon="13.6099402"><ele>891.0</ele><time>2026-05-02T13:09:43.287Z</time></trkpt><trkpt lat="42.0728557" lon="13.6098388"><ele>891.0</ele><time>2026-05-02T13:09:44.287Z</time></trkpt><trkpt lat="42.0727749" lon="13.6097386"><ele>890.9999999999999</ele><time>2026-05-02T13:09:45.287Z</time></trkpt><trkpt lat="42.0726927" lon="13.6096378"><ele>890.9999999999999</ele><time>2026-05-02T13:09:46.287Z</time></trkpt><trkpt lat="42.0726114" lon="13.6095405"><ele>891.0</ele><time>2026-05-02T13:09:47.287Z</time></trkpt><trkpt lat="42.0725304" lon="13.6094453"><ele>891.0</ele><time>2026-05-02T13:09:48.287Z</time></trkpt><trkpt lat="42.0724545" lon="13.6093545"><ele>889.3333333333334</ele><time>2026-05-02T13:09:49.287Z</time></trkpt><trkpt lat="42.0723801" lon="13.6092719"><ele>887.6666666666667</ele><time>2026-05-02T13:09:50.288Z</time></trkpt><trkpt lat="42.0723125" lon="13.6091942"><ele>886.0</ele><time>2026-05-02T13:09:51.287Z</time></trkpt><trkpt lat="42.0722547" lon="13.6091188"><ele>884.3333333333334</ele><time>2026-05-02T13:09:52.287Z</time></trkpt><trkpt lat="42.0722069" lon="13.6090301"><ele>882.6666666666667</ele><time>2026-05-02T13:09:53.287Z</time></trkpt><trkpt lat="42.0721717" lon="13.6089247"><ele>881.0</ele><time>2026-05-02T13:09:54.287Z</time></trkpt><trkpt lat="42.0721523" lon="13.6087875"><ele>880.25</ele><time>2026-05-02T13:09:55.287Z</time></trkpt><trkpt lat="42.0721352" lon="13.6086238"><ele>879.5</ele><time>2026-05-02T13:09:56.287Z</time></trkpt><trkpt lat="42.0721139" lon="13.6084546"><ele>878.75</ele><time>2026-05-02T13:09:57.287Z</time></trkpt><trkpt lat="42.0720893" lon="13.6082907"><ele>878.0</ele><time>2026-05-02T13:09:58.287Z</time></trkpt><trkpt lat="42.0720691" lon="13.6081289"><ele>878.0</ele><time>2026-05-02T13:09:59.287Z</time></trkpt><trkpt lat="42.0720591" lon="13.6079558"><ele>878.0</ele><time>2026-05-02T13:10:00.287Z</time></trkpt><trkpt lat="42.0720599" lon="13.6077774"><ele>878.0</ele><time>2026-05-02T13:10:01.287Z</time></trkpt><trkpt lat="42.072069" lon="13.607606"><ele>878.0</ele><time>2026-05-02T13:10:02.288Z</time></trkpt><trkpt lat="42.0720767" lon="13.6074467"><ele>876.8</ele><time>2026-05-02T13:10:03.287Z</time></trkpt><trkpt lat="42.0720817" lon="13.6073"><ele>875.5999999999999</ele><time>2026-05-02T13:10:04.287Z</time></trkpt><trkpt lat="42.0720733" lon="13.607155"><ele>874.4000000000001</ele><time>2026-05-02T13:10:05.287Z</time></trkpt><trkpt lat="42.0720567" lon="13.6070217"><ele>873.2</ele><time>2026-05-02T13:10:06.287Z</time></trkpt><trkpt lat="42.0720233" lon="13.60689"><ele>872.0</ele><time>2026-05-02T13:10:07.287Z</time></trkpt><trkpt lat="42.0719783" lon="13.6067617"><ele>869.75</ele><time>2026-05-02T13:10:08.287Z</time></trkpt><trkpt lat="42.0719083" lon="13.6066367"><ele>867.5</ele><time>2026-05-02T13:10:09.287Z</time></trkpt><trkpt lat="42.0718217" lon="13.6065167"><ele>865.25</ele><time>2026-05-02T13:10:10.287Z</time></trkpt><trkpt lat="42.07172" lon="13.6063967"><ele>863.0</ele><time>2026-05-02T13:10:11.287Z</time></trkpt><trkpt lat="42.071615" lon="13.6062917"><ele>861.75</ele><time>2026-05-02T13:10:12.287Z</time></trkpt><trkpt lat="42.071515" lon="13.6062067"><ele>860.5</ele><time>2026-05-02T13:10:13.287Z</time></trkpt><trkpt lat="42.0714117" lon="13.6061383"><ele>859.25</ele><time>2026-05-02T13:10:14.287Z</time></trkpt><trkpt lat="42.0713017" lon="13.60608"><ele>858.0</ele><time>2026-05-02T13:10:15.287Z</time></trkpt><trkpt lat="42.07119" lon="13.6060167"><ele>855.5</ele><time>2026-05-02T13:10:16.287Z</time></trkpt><trkpt lat="42.0710867" lon="13.6059433"><ele>853.0</ele><time>2026-05-02T13:10:17.287Z</time></trkpt><trkpt lat="42.0709917" lon="13.60585"><ele>850.5</ele><time>2026-05-02T13:10:18.287Z</time></trkpt><trkpt lat="42.0708967" lon="13.6057567"><ele>848.0</ele><time>2026-05-02T13:10:19.287Z</time></trkpt><trkpt lat="42.070805" lon="13.6056583"><ele>845.25</ele><time>2026-05-02T13:10:20.287Z</time></trkpt><trkpt lat="42.0707033" lon="13.6055617"><ele>842.5</ele><time>2026-05-02T13:10:21.287Z</time></trkpt><trkpt lat="42.070595" lon="13.6054667"><ele>839.75</ele><time>2026-05-02T13:10:22.287Z</time></trkpt><trkpt lat="42.0704867" lon="13.6053733"><ele>837.0</ele><time>2026-05-02T13:10:23.287Z</time></trkpt><trkpt lat="42.0703817" lon="13.6052767"><ele>835.75</ele><time>2026-05-02T13:10:24.287Z</time></trkpt><trkpt lat="42.0702767" lon="13.6051733"><ele>834.5</ele><time>2026-05-02T13:10:25.287Z</time></trkpt><trkpt lat="42.0701717" lon="13.6050683"><ele>833.25</ele><time>2026-05-02T13:10:26.287Z</time></trkpt><trkpt lat="42.0700683" lon="13.6049683"><ele>832.0</ele><time>2026-05-02T13:10:27.287Z</time></trkpt><trkpt lat="42.0699617" lon="13.6048683"><ele>829.0</ele><time>2026-05-02T13:10:28.288Z</time></trkpt><trkpt lat="42.0698533" lon="13.6047667"><ele>826.0</ele><time>2026-05-02T13:10:29.288Z</time></trkpt><trkpt lat="42.0697333" lon="13.60466"><ele>823.0</ele><time>2026-05-02T13:10:30.287Z</time></trkpt><trkpt lat="42.0696167" lon="13.6045467"><ele>820.0</ele><time>2026-05-02T13:10:31.288Z</time></trkpt><trkpt lat="42.0694933" lon="13.6044333"><ele>818.25</ele><time>2026-05-02T13:10:32.287Z</time></trkpt><trkpt lat="42.069375" lon="13.604315"><ele>816.5</ele><time>2026-05-02T13:10:33.287Z</time></trkpt><trkpt lat="42.0692617" lon="13.6041933"><ele>814.75</ele><time>2026-05-02T13:10:34.287Z</time></trkpt><trkpt lat="42.0691517" lon="13.6040717"><ele>813.0</ele><time>2026-05-02T13:10:35.288Z</time></trkpt><trkpt lat="42.0690433" lon="13.60395"><ele>811.75</ele><time>2026-05-02T13:10:36.287Z</time></trkpt><trkpt lat="42.0689433" lon="13.6038417"><ele>810.5</ele><time>2026-05-02T13:10:37.287Z</time></trkpt><trkpt lat="42.0688533" lon="13.60374"><ele>809.25</ele><time>2026-05-02T13:10:38.287Z</time></trkpt><trkpt lat="42.0687667" lon="13.6036417"><ele>808.0</ele><time>2026-05-02T13:10:39.287Z</time></trkpt><trkpt lat="42.0686833" lon="13.6035483"><ele>807.9999999999999</ele><time>2026-05-02T13:10:40.288Z</time></trkpt><trkpt lat="42.0686083" lon="13.6034783"><ele>808.0</ele><time>2026-05-02T13:10:41.287Z</time></trkpt><trkpt lat="42.0685417" lon="13.603415"><ele>808.0</ele><time>2026-05-02T13:10:42.287Z</time></trkpt><trkpt lat="42.0684767" lon="13.6033683"><ele>808.0</ele><time>2026-05-02T13:10:43.287Z</time></trkpt><trkpt lat="42.0683583" lon="13.6033333"><ele>807.9999999999999</ele><time>2026-05-02T13:10:45.288Z</time></trkpt><trkpt lat="42.0682883" lon="13.6033617"><ele>808.0</ele><time>2026-05-02T13:10:46.287Z</time></trkpt><trkpt lat="42.068215" lon="13.6034283"><ele>809.4999999999999</ele><time>2026-05-02T13:10:47.288Z</time></trkpt><trkpt lat="42.068145" lon="13.6034817"><ele>811.0</ele><time>2026-05-02T13:10:48.287Z</time></trkpt><trkpt lat="42.0680683" lon="13.6035183"><ele>812.5</ele><time>2026-05-02T13:10:49.287Z</time></trkpt><trkpt lat="42.06799" lon="13.6035167"><ele>814.0</ele><time>2026-05-02T13:10:50.287Z</time></trkpt><trkpt lat="42.0678967" lon="13.6035133"><ele>815.4999999999999</ele><time>2026-05-02T13:10:51.287Z</time></trkpt><trkpt lat="42.0677917" lon="13.60351"><ele>817.0</ele><time>2026-05-02T13:10:52.287Z</time></trkpt><trkpt lat="42.0676783" lon="13.603505"><ele>817.0</ele><time>2026-05-02T13:10:53.287Z</time></trkpt><trkpt lat="42.06757" lon="13.6035083"><ele>817.0</ele><time>2026-05-02T13:10:54.287Z</time></trkpt><trkpt lat="42.06747" lon="13.6035067"><ele>817.0</ele><time>2026-05-02T13:10:55.287Z</time></trkpt><trkpt lat="42.0673667" lon="13.6035083"><ele>817.0</ele><time>2026-05-02T13:10:56.287Z</time></trkpt><trkpt lat="42.0672533" lon="13.6035083"><ele>817.0</ele><time>2026-05-02T13:10:57.287Z</time></trkpt><trkpt lat="42.067145" lon="13.6034967"><ele>818.0</ele><time>2026-05-02T13:10:58.287Z</time></trkpt><trkpt lat="42.06702" lon="13.603475"><ele>819.0</ele><time>2026-05-02T13:10:59.287Z</time></trkpt><trkpt lat="42.0668983" lon="13.6034467"><ele>820.0</ele><time>2026-05-02T13:11:00.287Z</time></trkpt><trkpt lat="42.0667817" lon="13.6034033"><ele>821.0</ele><time>2026-05-02T13:11:01.287Z</time></trkpt><trkpt lat="42.0666567" lon="13.60337"><ele>822.75</ele><time>2026-05-02T13:11:02.288Z</time></trkpt><trkpt lat="42.06654" lon="13.60334"><ele>824.5</ele><time>2026-05-02T13:11:03.287Z</time></trkpt><trkpt lat="42.0664183" lon="13.6033233"><ele>826.25</ele><time>2026-05-02T13:11:04.287Z</time></trkpt><trkpt lat="42.0663083" lon="13.6033117"><ele>828.0</ele><time>2026-05-02T13:11:05.287Z</time></trkpt><trkpt lat="42.0662033" lon="13.6033083"><ele>828.0</ele><time>2026-05-02T13:11:06.288Z</time></trkpt><trkpt lat="42.066095" lon="13.6033183"><ele>828.0</ele><time>2026-05-02T13:11:07.287Z</time></trkpt><trkpt lat="42.0660117" lon="13.6033333"><ele>828.0</ele><time>2026-05-02T13:11:08.288Z</time></trkpt><trkpt lat="42.065945" lon="13.603345"><ele>828.0</ele><time>2026-05-02T13:11:09.287Z</time></trkpt><trkpt lat="42.0658783" lon="13.6033533"><ele>828.0</ele><time>2026-05-02T13:11:10.287Z</time></trkpt><trkpt lat="42.065795" lon="13.6033483"><ele>828.0</ele><time>2026-05-02T13:11:12.287Z</time></trkpt><trkpt lat="42.0657367" lon="13.6033033"><ele>828.1666666666666</ele><time>2026-05-02T13:11:14.287Z</time></trkpt><trkpt lat="42.06571" lon="13.6031567"><ele>828.3333333333333</ele><time>2026-05-02T13:11:16.287Z</time></trkpt><trkpt lat="42.0656933" lon="13.6030583"><ele>828.5</ele><time>2026-05-02T13:11:17.287Z</time></trkpt><trkpt lat="42.0656733" lon="13.6029617"><ele>828.6666666666666</ele><time>2026-05-02T13:11:18.288Z</time></trkpt><trkpt lat="42.0656667" lon="13.6028583"><ele>828.8333333333333</ele><time>2026-05-02T13:11:19.287Z</time></trkpt><trkpt lat="42.0656717" lon="13.602755"><ele>829.0</ele><time>2026-05-02T13:11:20.287Z</time></trkpt><trkpt lat="42.065695" lon="13.6026667"><ele>829.4000000000001</ele><time>2026-05-02T13:11:21.287Z</time></trkpt><trkpt lat="42.065745" lon="13.6025933"><ele>829.8</ele><time>2026-05-02T13:11:22.288Z</time></trkpt><trkpt lat="42.0657967" lon="13.6025017"><ele>830.2</ele><time>2026-05-02T13:11:23.287Z</time></trkpt><trkpt lat="42.065845" lon="13.602375"><ele>830.5999999999999</ele><time>2026-05-02T13:11:24.287Z</time></trkpt><trkpt lat="42.0658833" lon="13.6022233"><ele>831.0</ele><time>2026-05-02T13:11:25.288Z</time></trkpt><trkpt lat="42.0659167" lon="13.602065"><ele>830.25</ele><time>2026-05-02T13:11:26.287Z</time></trkpt><trkpt lat="42.06595" lon="13.601905"><ele>829.5</ele><time>2026-05-02T13:11:27.287Z</time></trkpt><trkpt lat="42.06598" lon="13.6017567"><ele>828.75</ele><time>2026-05-02T13:11:28.287Z</time></trkpt><trkpt lat="42.0660067" lon="13.6016167"><ele>828.0</ele><time>2026-05-02T13:11:29.287Z</time></trkpt><trkpt lat="42.0660333" lon="13.6014783"><ele>828.0</ele><time>2026-05-02T13:11:30.287Z</time></trkpt><trkpt lat="42.0660467" lon="13.6013367"><ele>828.0</ele><time>2026-05-02T13:11:31.287Z</time></trkpt><trkpt lat="42.0660483" lon="13.60119"><ele>828.0</ele><time>2026-05-02T13:11:32.288Z</time></trkpt><trkpt lat="42.0660533" lon="13.601055"><ele>828.0</ele><time>2026-05-02T13:11:33.287Z</time></trkpt><trkpt lat="42.0660533" lon="13.600925"><ele>828.0</ele><time>2026-05-02T13:11:34.287Z</time></trkpt><trkpt lat="42.0660633" lon="13.6008183"><ele>828.0</ele><time>2026-05-02T13:11:35.287Z</time></trkpt><trkpt lat="42.0660783" lon="13.6007083"><ele>828.0</ele><time>2026-05-02T13:11:36.287Z</time></trkpt><trkpt lat="42.0660983" lon="13.600595"><ele>828.0</ele><time>2026-05-02T13:11:37.287Z</time></trkpt><trkpt lat="42.066115" lon="13.600485"><ele>828.0</ele><time>2026-05-02T13:11:38.287Z</time></trkpt><trkpt lat="42.0661367" lon="13.600345"><ele>828.0</ele><time>2026-05-02T13:11:40.287Z</time></trkpt><trkpt lat="42.06611" lon="13.6002467"><ele>828.0</ele><time>2026-05-02T13:11:43.288Z</time></trkpt><trkpt lat="42.0660217" lon="13.6002083"><ele>828.0000000000001</ele><time>2026-05-02T13:11:45.287Z</time></trkpt><trkpt lat="42.065955" lon="13.60021"><ele>828.0</ele><time>2026-05-02T13:11:46.287Z</time></trkpt><trkpt lat="42.0658833" lon="13.600215"><ele>828.0</ele><time>2026-05-02T13:11:47.287Z</time></trkpt><trkpt lat="42.0658128" lon="13.6002122"><ele>828.0</ele><time>2026-05-02T13:11:48.287Z</time></trkpt><trkpt lat="42.0657398" lon="13.6002072"><ele>828.0</ele><time>2026-05-02T13:11:49.287Z</time></trkpt><trkpt lat="42.0656637" lon="13.6002078"><ele>828.0000000000001</ele><time>2026-05-02T13:11:50.287Z</time></trkpt><trkpt lat="42.0655832" lon="13.6002013"><ele>828.0</ele><time>2026-05-02T13:11:51.287Z</time></trkpt><trkpt lat="42.0654936" lon="13.6001956"><ele>826.2</ele><time>2026-05-02T13:11:52.287Z</time></trkpt><trkpt lat="42.0654031" lon="13.6001893"><ele>824.4</ele><time>2026-05-02T13:11:53.287Z</time></trkpt><trkpt lat="42.0653056" lon="13.6001768"><ele>822.6</ele><time>2026-05-02T13:11:54.287Z</time></trkpt><trkpt lat="42.0652019" lon="13.6001695"><ele>820.8000000000001</ele><time>2026-05-02T13:11:55.287Z</time></trkpt><trkpt lat="42.0650892" lon="13.6001601"><ele>819.0</ele><time>2026-05-02T13:11:56.287Z</time></trkpt><trkpt lat="42.0649738" lon="13.600145"><ele>817.2</ele><time>2026-05-02T13:11:57.287Z</time></trkpt><trkpt lat="42.0648585" lon="13.6001375"><ele>815.4000000000001</ele><time>2026-05-02T13:11:58.287Z</time></trkpt><trkpt lat="42.0647498" lon="13.6001365"><ele>813.6</ele><time>2026-05-02T13:11:59.288Z</time></trkpt><trkpt lat="42.0646443" lon="13.6001339"><ele>811.8</ele><time>2026-05-02T13:12:00.288Z</time></trkpt><trkpt lat="42.0645441" lon="13.6001444"><ele>810.0</ele><time>2026-05-02T13:12:01.287Z</time></trkpt><trkpt lat="42.0644531" lon="13.6001472"><ele>810.0</ele><time>2026-05-02T13:12:02.287Z</time></trkpt><trkpt lat="42.0643661" lon="13.6001462"><ele>810.0</ele><time>2026-05-02T13:12:03.287Z</time></trkpt><trkpt lat="42.0642788" lon="13.6001412"><ele>810.0</ele><time>2026-05-02T13:12:04.287Z</time></trkpt><trkpt lat="42.0641922" lon="13.6001134"><ele>810.0</ele><time>2026-05-02T13:12:05.287Z</time></trkpt><trkpt lat="42.0641014" lon="13.6000863"><ele>810.0</ele><time>2026-05-02T13:12:06.287Z</time></trkpt><trkpt lat="42.0640114" lon="13.600056"><ele>810.0</ele><time>2026-05-02T13:12:07.287Z</time></trkpt><trkpt lat="42.0639313" lon="13.6000289"><ele>808.6666666666666</ele><time>2026-05-02T13:12:08.287Z</time></trkpt><trkpt lat="42.063867" lon="13.6000074"><ele>807.3333333333333</ele><time>2026-05-02T13:12:09.287Z</time></trkpt><trkpt lat="42.063768" lon="13.5999733"><ele>806.0</ele><time>2026-05-02T13:12:11.287Z</time></trkpt><trkpt lat="42.063695" lon="13.5999733"><ele>804.6666666666666</ele><time>2026-05-02T13:12:13.287Z</time></trkpt><trkpt lat="42.063615" lon="13.5999683"><ele>803.3333333333333</ele><time>2026-05-02T13:12:16.287Z</time></trkpt><trkpt lat="42.0635633" lon="13.6000192"><ele>802.0</ele><time>2026-05-02T13:18:01.318Z</time></trkpt><trkpt lat="42.0636168" lon="13.5999441"><ele>802.0</ele><time>2026-05-02T13:18:05.323Z</time></trkpt><trkpt lat="42.0636827" lon="13.5998997"><ele>802.0</ele><time>2026-05-02T13:19:59.297Z</time></trkpt><trkpt lat="42.0637293" lon="13.5998291"><ele>802.0</ele><time>2026-05-02T13:20:02.38Z</time></trkpt><trkpt lat="42.0637801" lon="13.5997483"><ele>802.0</ele><time>2026-05-02T13:20:04.34Z</time></trkpt><trkpt lat="42.0638457" lon="13.5995196"><ele>802.0</ele><time>2026-05-02T13:20:05.287Z</time></trkpt><trkpt lat="42.063884" lon="13.5993938"><ele>802.3333333333333</ele><time>2026-05-02T13:20:06.287Z</time></trkpt><trkpt lat="42.0639071" lon="13.5992966"><ele>802.6666666666666</ele><time>2026-05-02T13:20:07.287Z</time></trkpt><trkpt lat="42.0639393" lon="13.5992058"><ele>803.0</ele><time>2026-05-02T13:20:08.288Z</time></trkpt><trkpt lat="42.0639678" lon="13.5991277"><ele>803.3333333333333</ele><time>2026-05-02T13:20:09.287Z</time></trkpt><trkpt lat="42.0640034" lon="13.5990216"><ele>803.6666666666666</ele><time>2026-05-02T13:20:11.288Z</time></trkpt><trkpt lat="42.0640691" lon="13.5989681"><ele>804.0</ele><time>2026-05-02T13:20:14.287Z</time></trkpt><trkpt lat="42.0642112" lon="13.5989586"><ele>804.0</ele><time>2026-05-02T13:20:16.287Z</time></trkpt><trkpt lat="42.0643383" lon="13.5989683"><ele>804.0</ele><time>2026-05-02T13:20:17.287Z</time></trkpt><trkpt lat="42.064485" lon="13.5989767"><ele>804.0</ele><time>2026-05-02T13:20:18.287Z</time></trkpt><trkpt lat="42.0646433" lon="13.5989717"><ele>804.0</ele><time>2026-05-02T13:20:19.287Z</time></trkpt><trkpt lat="42.0647967" lon="13.598985"><ele>806.75</ele><time>2026-05-02T13:20:20.287Z</time></trkpt><trkpt lat="42.0649483" lon="13.5989883"><ele>809.5</ele><time>2026-05-02T13:20:21.287Z</time></trkpt><trkpt lat="42.0650783" lon="13.5989917"><ele>812.25</ele><time>2026-05-02T13:20:22.287Z</time></trkpt><trkpt lat="42.0651967" lon="13.599005"><ele>815.0</ele><time>2026-05-02T13:20:23.287Z</time></trkpt><trkpt lat="42.0653167" lon="13.5990117"><ele>815.0</ele><time>2026-05-02T13:20:24.287Z</time></trkpt><trkpt lat="42.0654283" lon="13.5990067"><ele>815.0</ele><time>2026-05-02T13:20:25.287Z</time></trkpt><trkpt lat="42.06554" lon="13.5990133"><ele>815.0</ele><time>2026-05-02T13:20:26.287Z</time></trkpt><trkpt lat="42.0656317" lon="13.5990183"><ele>815.0</ele><time>2026-05-02T13:20:27.287Z</time></trkpt><trkpt lat="42.065705" lon="13.5990217"><ele>815.0</ele><time>2026-05-02T13:20:28.287Z</time></trkpt><trkpt lat="42.06577" lon="13.5990233"><ele>816.6666666666667</ele><time>2026-05-02T13:20:29.287Z</time></trkpt><trkpt lat="42.0658383" lon="13.5990267"><ele>818.3333333333334</ele><time>2026-05-02T13:20:30.287Z</time></trkpt><trkpt lat="42.06592" lon="13.5990317"><ele>820.0</ele><time>2026-05-02T13:20:31.287Z</time></trkpt><trkpt lat="42.066015" lon="13.5990383"><ele>821.6666666666667</ele><time>2026-05-02T13:20:32.287Z</time></trkpt><trkpt lat="42.0661083" lon="13.5990467"><ele>823.3333333333334</ele><time>2026-05-02T13:20:33.287Z</time></trkpt><trkpt lat="42.066195" lon="13.5990517"><ele>825.0</ele><time>2026-05-02T13:20:34.287Z</time></trkpt><trkpt lat="42.0662667" lon="13.59907"><ele>825.0</ele><time>2026-05-02T13:20:35.287Z</time></trkpt><trkpt lat="42.0663567" lon="13.5990983"><ele>825.0</ele><time>2026-05-02T13:20:37.287Z</time></trkpt><trkpt lat="42.0664367" lon="13.599"><ele>825.0</ele><time>2026-05-02T13:20:41.287Z</time></trkpt><trkpt lat="42.0664683" lon="13.5988983"><ele>825.0</ele><time>2026-05-02T13:20:42.287Z</time></trkpt><trkpt lat="42.0665117" lon="13.5987533"><ele>825.0</ele><time>2026-05-02T13:20:43.287Z</time></trkpt><trkpt lat="42.0665533" lon="13.598595"><ele>825.6666666666666</ele><time>2026-05-02T13:20:44.287Z</time></trkpt><trkpt lat="42.0666067" lon="13.598455"><ele>826.3333333333333</ele><time>2026-05-02T13:20:45.287Z</time></trkpt><trkpt lat="42.0666583" lon="13.59835"><ele>827.0</ele><time>2026-05-02T13:20:46.287Z</time></trkpt><trkpt lat="42.0667033" lon="13.5982667"><ele>827.6666666666666</ele><time>2026-05-02T13:20:47.287Z</time></trkpt><trkpt lat="42.06675" lon="13.598185"><ele>828.3333333333333</ele><time>2026-05-02T13:20:48.287Z</time></trkpt><trkpt lat="42.0667867" lon="13.5981033"><ele>829.0</ele><time>2026-05-02T13:20:49.286Z</time></trkpt><trkpt lat="42.066835" lon="13.5979733"><ele>829.0</ele><time>2026-05-02T13:20:51.287Z</time></trkpt><trkpt lat="42.066915" lon="13.5979367"><ele>829.0</ele><time>2026-05-02T13:20:53.286Z</time></trkpt><trkpt lat="42.0670667" lon="13.5979283"><ele>829.0</ele><time>2026-05-02T13:20:55.287Z</time></trkpt><trkpt lat="42.0671767" lon="13.597935"><ele>829.0</ele><time>2026-05-02T13:20:56.286Z</time></trkpt><trkpt lat="42.067295" lon="13.59795"><ele>829.0</ele><time>2026-05-02T13:20:57.287Z</time></trkpt><trkpt lat="42.067415" lon="13.5979733"><ele>829.0</ele><time>2026-05-02T13:20:58.287Z</time></trkpt><trkpt lat="42.0675317" lon="13.5980083"><ele>829.0</ele><time>2026-05-02T13:20:59.286Z</time></trkpt><trkpt lat="42.06765" lon="13.598045"><ele>829.0</ele><time>2026-05-02T13:21:00.286Z</time></trkpt><trkpt lat="42.067765" lon="13.598085"><ele>831.75</ele><time>2026-05-02T13:21:01.286Z</time></trkpt><trkpt lat="42.0678817" lon="13.5981217"><ele>834.5</ele><time>2026-05-02T13:21:02.286Z</time></trkpt><trkpt lat="42.068015" lon="13.5981517"><ele>837.25</ele><time>2026-05-02T13:21:03.286Z</time></trkpt><trkpt lat="42.0681733" lon="13.5981983"><ele>840.0</ele><time>2026-05-02T13:21:04.286Z</time></trkpt><trkpt lat="42.06833" lon="13.5982417"><ele>842.6666666666667</ele><time>2026-05-02T13:21:05.286Z</time></trkpt><trkpt lat="42.0684917" lon="13.5982833"><ele>845.3333333333334</ele><time>2026-05-02T13:21:06.286Z</time></trkpt><trkpt lat="42.0686467" lon="13.59833"><ele>848.0</ele><time>2026-05-02T13:21:07.286Z</time></trkpt><trkpt lat="42.0687883" lon="13.5983583"><ele>848.0</ele><time>2026-05-02T13:21:08.286Z</time></trkpt><trkpt lat="42.0689083" lon="13.59839"><ele>848.0</ele><time>2026-05-02T13:21:09.286Z</time></trkpt><trkpt lat="42.0690267" lon="13.5984233"><ele>848.0</ele><time>2026-05-02T13:21:10.286Z</time></trkpt><trkpt lat="42.0691367" lon="13.59846"><ele>848.0</ele><time>2026-05-02T13:21:11.286Z</time></trkpt><trkpt lat="42.0692317" lon="13.5984917"><ele>850.0</ele><time>2026-05-02T13:21:12.286Z</time></trkpt><trkpt lat="42.0692967" lon="13.59853"><ele>852.0</ele><time>2026-05-02T13:21:13.286Z</time></trkpt><trkpt lat="42.0693483" lon="13.5986283"><ele>854.0</ele><time>2026-05-02T13:21:15.286Z</time></trkpt><trkpt lat="42.0693317" lon="13.5988017"><ele>856.0</ele><time>2026-05-02T13:21:17.286Z</time></trkpt><trkpt lat="42.0693083" lon="13.5989367"><ele>858.0</ele><time>2026-05-02T13:21:18.286Z</time></trkpt><trkpt lat="42.0692883" lon="13.5991"><ele>858.5999999999999</ele><time>2026-05-02T13:21:19.286Z</time></trkpt><trkpt lat="42.0692817" lon="13.5992717"><ele>859.1999999999999</ele><time>2026-05-02T13:21:20.286Z</time></trkpt><trkpt lat="42.069285" lon="13.599435"><ele>859.8</ele><time>2026-05-02T13:21:21.286Z</time></trkpt><trkpt lat="42.0692883" lon="13.5995633"><ele>860.4</ele><time>2026-05-02T13:21:22.286Z</time></trkpt><trkpt lat="42.0692983" lon="13.599665"><ele>861.0</ele><time>2026-05-02T13:21:23.286Z</time></trkpt><trkpt lat="42.0693167" lon="13.5997483"><ele>861.4</ele><time>2026-05-02T13:21:24.286Z</time></trkpt><trkpt lat="42.0693683" lon="13.59986"><ele>861.8</ele><time>2026-05-02T13:21:26.286Z</time></trkpt><trkpt lat="42.0694167" lon="13.5999217"><ele>862.1999999999999</ele><time>2026-05-02T13:21:28.286Z</time></trkpt><trkpt lat="42.0695133" lon="13.5999267"><ele>862.5999999999999</ele><time>2026-05-02T13:21:30.286Z</time></trkpt><trkpt lat="42.0695933" lon="13.5998967"><ele>863.0</ele><time>2026-05-02T13:21:31.287Z</time></trkpt><trkpt lat="42.0696967" lon="13.59985"><ele>863.0</ele><time>2026-05-02T13:21:32.286Z</time></trkpt><trkpt lat="42.0698233" lon="13.5998033"><ele>863.0</ele><time>2026-05-02T13:21:33.286Z</time></trkpt><trkpt lat="42.0699733" lon="13.59978"><ele>863.0</ele><time>2026-05-02T13:21:34.286Z</time></trkpt><trkpt lat="42.070145" lon="13.599765"><ele>865.3333333333334</ele><time>2026-05-02T13:21:35.286Z</time></trkpt><trkpt lat="42.07032" lon="13.5997433"><ele>867.6666666666667</ele><time>2026-05-02T13:21:36.286Z</time></trkpt><trkpt lat="42.0704967" lon="13.5997117"><ele>870.0</ele><time>2026-05-02T13:21:37.286Z</time></trkpt><trkpt lat="42.0706667" lon="13.599665"><ele>870.0</ele><time>2026-05-02T13:21:38.286Z</time></trkpt><trkpt lat="42.0708333" lon="13.5996033"><ele>870.0</ele><time>2026-05-02T13:21:39.286Z</time></trkpt><trkpt lat="42.0709867" lon="13.599535"><ele>870.0</ele><time>2026-05-02T13:21:40.286Z</time></trkpt><trkpt lat="42.0711333" lon="13.5994667"><ele>872.0</ele><time>2026-05-02T13:21:41.286Z</time></trkpt><trkpt lat="42.0712767" lon="13.5994033"><ele>874.0</ele><time>2026-05-02T13:21:42.286Z</time></trkpt><trkpt lat="42.0714283" lon="13.5993367"><ele>876.0</ele><time>2026-05-02T13:21:43.286Z</time></trkpt><trkpt lat="42.0715867" lon="13.5992683"><ele>878.3333333333333</ele><time>2026-05-02T13:21:44.286Z</time></trkpt><trkpt lat="42.0717467" lon="13.5991967"><ele>880.6666666666666</ele><time>2026-05-02T13:21:45.286Z</time></trkpt><trkpt lat="42.071905" lon="13.5991283"><ele>883.0</ele><time>2026-05-02T13:21:46.286Z</time></trkpt><trkpt lat="42.072065" lon="13.5990567"><ele>883.0</ele><time>2026-05-02T13:21:47.286Z</time></trkpt><trkpt lat="42.072225" lon="13.598985"><ele>883.0</ele><time>2026-05-02T13:21:48.286Z</time></trkpt><trkpt lat="42.0723933" lon="13.59891"><ele>883.0</ele><time>2026-05-02T13:21:49.286Z</time></trkpt><trkpt lat="42.0725667" lon="13.5988367"><ele>885.3333333333333</ele><time>2026-05-02T13:21:50.286Z</time></trkpt><trkpt lat="42.0727367" lon="13.5987583"><ele>887.6666666666667</ele><time>2026-05-02T13:21:51.286Z</time></trkpt><trkpt lat="42.0729017" lon="13.59868"><ele>890.0</ele><time>2026-05-02T13:21:52.286Z</time></trkpt><trkpt lat="42.073065" lon="13.598605"><ele>892.0</ele><time>2026-05-02T13:21:53.287Z</time></trkpt><trkpt lat="42.073225" lon="13.5985333"><ele>894.0</ele><time>2026-05-02T13:21:54.286Z</time></trkpt><trkpt lat="42.0733883" lon="13.598455"><ele>896.0</ele><time>2026-05-02T13:21:55.287Z</time></trkpt><trkpt lat="42.0735567" lon="13.5983733"><ele>898.6666666666667</ele><time>2026-05-02T13:21:56.286Z</time></trkpt><trkpt lat="42.0737333" lon="13.5982967"><ele>901.3333333333333</ele><time>2026-05-02T13:21:57.286Z</time></trkpt><trkpt lat="42.07392" lon="13.5982317"><ele>904.0</ele><time>2026-05-02T13:21:58.287Z</time></trkpt><trkpt lat="42.074115" lon="13.59819"><ele>907.0</ele><time>2026-05-02T13:21:59.286Z</time></trkpt><trkpt lat="42.0743117" lon="13.5981733"><ele>910.0</ele><time>2026-05-02T13:22:00.286Z</time></trkpt><trkpt lat="42.0745117" lon="13.5981683"><ele>913.0</ele><time>2026-05-02T13:22:01.287Z</time></trkpt><trkpt lat="42.074685" lon="13.5981733"><ele>913.0</ele><time>2026-05-02T13:22:02.286Z</time></trkpt><trkpt lat="42.0748533" lon="13.598185"><ele>913.0</ele><time>2026-05-02T13:22:03.286Z</time></trkpt><trkpt lat="42.0750217" lon="13.5981983"><ele>913.0</ele><time>2026-05-02T13:22:04.286Z</time></trkpt><trkpt lat="42.0751917" lon="13.5982117"><ele>916.6666666666666</ele><time>2026-05-02T13:22:05.286Z</time></trkpt><trkpt lat="42.0753633" lon="13.5982133"><ele>920.3333333333333</ele><time>2026-05-02T13:22:06.286Z</time></trkpt><trkpt lat="42.0755333" lon="13.5982217"><ele>924.0</ele><time>2026-05-02T13:22:07.286Z</time></trkpt><trkpt lat="42.0757017" lon="13.59823"><ele>927.3333333333333</ele><time>2026-05-02T13:22:08.286Z</time></trkpt><trkpt lat="42.0758683" lon="13.5982233"><ele>930.6666666666666</ele><time>2026-05-02T13:22:09.286Z</time></trkpt><trkpt lat="42.0760217" lon="13.5982117"><ele>934.0</ele><time>2026-05-02T13:22:10.286Z</time></trkpt><trkpt lat="42.0761667" lon="13.5981867"><ele>934.0</ele><time>2026-05-02T13:22:11.286Z</time></trkpt><trkpt lat="42.0762967" lon="13.5981383"><ele>934.0</ele><time>2026-05-02T13:22:12.286Z</time></trkpt><trkpt lat="42.0764067" lon="13.59805"><ele>934.0</ele><time>2026-05-02T13:22:13.286Z</time></trkpt><trkpt lat="42.076505" lon="13.5979433"><ele>934.0</ele><time>2026-05-02T13:22:14.287Z</time></trkpt><trkpt lat="42.0765833" lon="13.59781"><ele>937.5</ele><time>2026-05-02T13:22:15.286Z</time></trkpt><trkpt lat="42.0766617" lon="13.59766"><ele>941.0</ele><time>2026-05-02T13:22:16.286Z</time></trkpt><trkpt lat="42.076735" lon="13.5975183"><ele>944.5</ele><time>2026-05-02T13:22:17.286Z</time></trkpt><trkpt lat="42.0768167" lon="13.59741"><ele>948.0</ele><time>2026-05-02T13:22:18.287Z</time></trkpt><trkpt lat="42.076915" lon="13.59734"><ele>948.0</ele><time>2026-05-02T13:22:19.286Z</time></trkpt><trkpt lat="42.077025" lon="13.5973033"><ele>948.0</ele><time>2026-05-02T13:22:20.286Z</time></trkpt><trkpt lat="42.07712" lon="13.5973117"><ele>948.0</ele><time>2026-05-02T13:22:21.286Z</time></trkpt><trkpt lat="42.0772017" lon="13.5973633"><ele>948.0</ele><time>2026-05-02T13:22:22.287Z</time></trkpt><trkpt lat="42.077275" lon="13.597455"><ele>948.0</ele><time>2026-05-02T13:22:23.287Z</time></trkpt><trkpt lat="42.07732" lon="13.5975833"><ele>948.0</ele><time>2026-05-02T13:22:24.287Z</time></trkpt><trkpt lat="42.07736" lon="13.5977333"><ele>948.0</ele><time>2026-05-02T13:22:25.286Z</time></trkpt><trkpt lat="42.0773967" lon="13.5978617"><ele>948.0</ele><time>2026-05-02T13:22:26.286Z</time></trkpt><trkpt lat="42.077435" lon="13.5979717"><ele>948.0</ele><time>2026-05-02T13:22:27.286Z</time></trkpt><trkpt lat="42.0774867" lon="13.59804"><ele>948.0</ele><time>2026-05-02T13:22:28.287Z</time></trkpt><trkpt lat="42.0775533" lon="13.5980517"><ele>949.4</ele><time>2026-05-02T13:22:29.286Z</time></trkpt><trkpt lat="42.077615" lon="13.5980067"><ele>950.8</ele><time>2026-05-02T13:22:30.286Z</time></trkpt><trkpt lat="42.0776683" lon="13.5979383"><ele>952.2</ele><time>2026-05-02T13:22:31.287Z</time></trkpt><trkpt lat="42.077655" lon="13.59775"><ele>953.6</ele><time>2026-05-02T13:22:33.286Z</time></trkpt><trkpt lat="42.0776067" lon="13.5976167"><ele>955.0</ele><time>2026-05-02T13:22:34.287Z</time></trkpt><trkpt lat="42.077535" lon="13.597445"><ele>955.3333333333333</ele><time>2026-05-02T13:22:35.286Z</time></trkpt><trkpt lat="42.0774583" lon="13.5972683"><ele>955.6666666666667</ele><time>2026-05-02T13:22:36.286Z</time></trkpt><trkpt lat="42.0773783" lon="13.59708"><ele>956.0</ele><time>2026-05-02T13:22:37.286Z</time></trkpt><trkpt lat="42.0772967" lon="13.59689"><ele>956.0</ele><time>2026-05-02T13:22:38.286Z</time></trkpt><trkpt lat="42.07723" lon="13.5967033"><ele>956.0</ele><time>2026-05-02T13:22:39.286Z</time></trkpt><trkpt lat="42.0771617" lon="13.5965233"><ele>956.0</ele><time>2026-05-02T13:22:40.286Z</time></trkpt><trkpt lat="42.0771033" lon="13.5963633"><ele>956.0</ele><time>2026-05-02T13:22:41.286Z</time></trkpt><trkpt lat="42.0770783" lon="13.596215"><ele>955.8</ele><time>2026-05-02T13:22:42.286Z</time></trkpt><trkpt lat="42.0770783" lon="13.59608"><ele>955.5999999999999</ele><time>2026-05-02T13:22:43.286Z</time></trkpt><trkpt lat="42.07711" lon="13.59595"><ele>955.4</ele><time>2026-05-02T13:22:44.286Z</time></trkpt><trkpt lat="42.077155" lon="13.5958217"><ele>955.2</ele><time>2026-05-02T13:22:45.286Z</time></trkpt><trkpt lat="42.077215" lon="13.595695"><ele>955.0</ele><time>2026-05-02T13:22:46.286Z</time></trkpt><trkpt lat="42.0772967" lon="13.595575"><ele>955.0</ele><time>2026-05-02T13:22:47.286Z</time></trkpt><trkpt lat="42.0773983" lon="13.595455"><ele>955.0</ele><time>2026-05-02T13:22:48.286Z</time></trkpt><trkpt lat="42.0775133" lon="13.5953367"><ele>955.0</ele><time>2026-05-02T13:22:49.286Z</time></trkpt><trkpt lat="42.0776333" lon="13.5952"><ele>955.0</ele><time>2026-05-02T13:22:50.286Z</time></trkpt><trkpt lat="42.0777567" lon="13.5950617"><ele>958.5</ele><time>2026-05-02T13:22:51.287Z</time></trkpt><trkpt lat="42.077875" lon="13.594925"><ele>962.0</ele><time>2026-05-02T13:22:52.286Z</time></trkpt><trkpt lat="42.0779933" lon="13.59481"><ele>965.5</ele><time>2026-05-02T13:22:53.286Z</time></trkpt><trkpt lat="42.0781133" lon="13.59473"><ele>969.0</ele><time>2026-05-02T13:22:54.286Z</time></trkpt><trkpt lat="42.0782233" lon="13.5946483"><ele>972.4000000000001</ele><time>2026-05-02T13:22:55.286Z</time></trkpt><trkpt lat="42.07831" lon="13.5945533"><ele>975.8000000000001</ele><time>2026-05-02T13:22:56.286Z</time></trkpt><trkpt lat="42.0783567" lon="13.59443"><ele>979.1999999999999</ele><time>2026-05-02T13:22:57.286Z</time></trkpt><trkpt lat="42.078355" lon="13.5942917"><ele>982.5999999999999</ele><time>2026-05-02T13:22:58.286Z</time></trkpt><trkpt lat="42.0783317" lon="13.5941517"><ele>986.0</ele><time>2026-05-02T13:22:59.286Z</time></trkpt><trkpt lat="42.07831" lon="13.5940033"><ele>986.0</ele><time>2026-05-02T13:23:00.286Z</time></trkpt><trkpt lat="42.0783083" lon="13.5938633"><ele>985.9999999999999</ele><time>2026-05-02T13:23:01.287Z</time></trkpt><trkpt lat="42.07834" lon="13.5937367"><ele>985.9999999999999</ele><time>2026-05-02T13:23:02.286Z</time></trkpt><trkpt lat="42.078405" lon="13.59364"><ele>986.0</ele><time>2026-05-02T13:23:03.286Z</time></trkpt><trkpt lat="42.078495" lon="13.5935583"><ele>986.0</ele><time>2026-05-02T13:23:04.286Z</time></trkpt><trkpt lat="42.0785933" lon="13.593465"><ele>983.5</ele><time>2026-05-02T13:23:05.286Z</time></trkpt><trkpt lat="42.0786917" lon="13.593365"><ele>981.0</ele><time>2026-05-02T13:23:06.286Z</time></trkpt><trkpt lat="42.0787917" lon="13.5932633"><ele>978.5</ele><time>2026-05-02T13:23:07.286Z</time></trkpt><trkpt lat="42.078895" lon="13.5931683"><ele>976.0</ele><time>2026-05-02T13:23:08.286Z</time></trkpt><trkpt lat="42.0789983" lon="13.5930683"><ele>979.5</ele><time>2026-05-02T13:23:09.287Z</time></trkpt><trkpt lat="42.0791033" lon="13.59297"><ele>983.0</ele><time>2026-05-02T13:23:10.286Z</time></trkpt><trkpt lat="42.0792133" lon="13.5928733"><ele>986.5</ele><time>2026-05-02T13:23:11.286Z</time></trkpt><trkpt lat="42.0793183" lon="13.592775"><ele>990.0</ele><time>2026-05-02T13:23:12.286Z</time></trkpt><trkpt lat="42.0794217" lon="13.5926817"><ele>990.0</ele><time>2026-05-02T13:23:13.286Z</time></trkpt><trkpt lat="42.0795183" lon="13.5926017"><ele>990.0</ele><time>2026-05-02T13:23:14.287Z</time></trkpt><trkpt lat="42.0796083" lon="13.5925183"><ele>990.0</ele><time>2026-05-02T13:23:15.286Z</time></trkpt><trkpt lat="42.0796933" lon="13.5924383"><ele>990.0</ele><time>2026-05-02T13:23:16.286Z</time></trkpt><trkpt lat="42.0797833" lon="13.5923583"><ele>990.0</ele><time>2026-05-02T13:23:17.286Z</time></trkpt><trkpt lat="42.0798667" lon="13.592275"><ele>992.8</ele><time>2026-05-02T13:23:18.286Z</time></trkpt><trkpt lat="42.0799533" lon="13.5922017"><ele>995.6</ele><time>2026-05-02T13:23:19.286Z</time></trkpt><trkpt lat="42.080035" lon="13.592125"><ele>998.4000000000001</ele><time>2026-05-02T13:23:20.286Z</time></trkpt><trkpt lat="42.0801233" lon="13.592045"><ele>1001.2</ele><time>2026-05-02T13:23:21.286Z</time></trkpt><trkpt lat="42.0802183" lon="13.5919717"><ele>1004.0</ele><time>2026-05-02T13:23:22.286Z</time></trkpt><trkpt lat="42.0803233" lon="13.5918933"><ele>1004.0</ele><time>2026-05-02T13:23:23.286Z</time></trkpt><trkpt lat="42.080425" lon="13.591815"><ele>1004.0000000000001</ele><time>2026-05-02T13:23:24.286Z</time></trkpt><trkpt lat="42.08051" lon="13.5917417"><ele>1004.0000000000001</ele><time>2026-05-02T13:23:25.286Z</time></trkpt><trkpt lat="42.08059" lon="13.5916767"><ele>1004.0</ele><time>2026-05-02T13:23:26.286Z</time></trkpt><trkpt lat="42.080645" lon="13.59161"><ele>1004.0</ele><time>2026-05-02T13:23:27.286Z</time></trkpt><trkpt lat="42.080685" lon="13.5915383"><ele>1004.0000000000001</ele><time>2026-05-02T13:23:28.286Z</time></trkpt><trkpt lat="42.08072" lon="13.5914233"><ele>1004.0</ele><time>2026-05-02T13:23:30.286Z</time></trkpt><trkpt lat="42.0807167" lon="13.5912967"><ele>1004.0</ele><time>2026-05-02T13:23:33.286Z</time></trkpt><trkpt lat="42.0806283" lon="13.5911933"><ele>1004.0</ele><time>2026-05-02T13:23:35.286Z</time></trkpt><trkpt lat="42.080565" lon="13.5911467"><ele>1004.0000000000001</ele><time>2026-05-02T13:23:36.286Z</time></trkpt><trkpt lat="42.080505" lon="13.5911033"><ele>1004.0</ele><time>2026-05-02T13:23:37.286Z</time></trkpt><trkpt lat="42.0804467" lon="13.591065"><ele>1005.0</ele><time>2026-05-02T13:23:38.286Z</time></trkpt><trkpt lat="42.080365" lon="13.5910033"><ele>1006.0000000000001</ele><time>2026-05-02T13:23:40.286Z</time></trkpt><trkpt lat="42.080285" lon="13.5909533"><ele>1007.0000000000001</ele><time>2026-05-02T13:23:42.286Z</time></trkpt><trkpt lat="42.080175" lon="13.5908733"><ele>1008.0</ele><time>2026-05-02T13:23:44.286Z</time></trkpt><trkpt lat="42.0801083" lon="13.59082"><ele>1009.0</ele><time>2026-05-02T13:23:45.286Z</time></trkpt><trkpt lat="42.0800467" lon="13.5907667"><ele>1009.0</ele><time>2026-05-02T13:23:46.286Z</time></trkpt><trkpt lat="42.07999" lon="13.5907183"><ele>1009.0000000000001</ele><time>2026-05-02T13:23:47.286Z</time></trkpt><trkpt lat="42.0798983" lon="13.5906517"><ele>1009.0000000000001</ele><time>2026-05-02T13:23:49.287Z</time></trkpt><trkpt lat="42.0798267" lon="13.59061"><ele>1009.0</ele><time>2026-05-02T13:23:52.286Z</time></trkpt><trkpt lat="42.0799067" lon="13.5907233"><ele>1009.0</ele><time>2026-05-02T13:24:03.286Z</time></trkpt><trkpt lat="42.080035" lon="13.5907833"><ele>1009.0</ele><time>2026-05-02T13:24:05.286Z</time></trkpt><trkpt lat="42.0801167" lon="13.59084"><ele>1009.0000000000001</ele><time>2026-05-02T13:24:06.286Z</time></trkpt><trkpt lat="42.0801983" lon="13.5908967"><ele>1009.0000000000001</ele><time>2026-05-02T13:24:07.286Z</time></trkpt><trkpt lat="42.08028" lon="13.5909517"><ele>1009.0</ele><time>2026-05-02T13:24:08.286Z</time></trkpt><trkpt lat="42.0803583" lon="13.5910033"><ele>1009.0</ele><time>2026-05-02T13:24:09.286Z</time></trkpt><trkpt lat="42.0804367" lon="13.591065"><ele>1008.9999999999999</ele><time>2026-05-02T13:24:10.286Z</time></trkpt><trkpt lat="42.0805167" lon="13.5911283"><ele>1009.0</ele><time>2026-05-02T13:24:11.286Z</time></trkpt><trkpt lat="42.08058" lon="13.59118"><ele>1009.0</ele><time>2026-05-02T13:24:12.286Z</time></trkpt><trkpt lat="42.0806583" lon="13.5912317"><ele>1009.0</ele><time>2026-05-02T13:24:14.286Z</time></trkpt><trkpt lat="42.0807517" lon="13.5912783"><ele>1008.9999999999999</ele><time>2026-05-02T13:24:22.286Z</time></trkpt><trkpt lat="42.0807933" lon="13.5912067"><ele>1009.0</ele><time>2026-05-02T13:24:24.286Z</time></trkpt><trkpt lat="42.0807933" lon="13.5911117"><ele>1009.0</ele><time>2026-05-02T13:24:26.286Z</time></trkpt><trkpt lat="42.0807533" lon="13.5910083"><ele>1009.0000000000001</ele><time>2026-05-02T13:24:28.286Z</time></trkpt><trkpt lat="42.0806683" lon="13.59089"><ele>1009.0000000000001</ele><time>2026-05-02T13:24:30.286Z</time></trkpt><trkpt lat="42.0806133" lon="13.5908433"><ele>1009.0</ele><time>2026-05-02T13:24:31.286Z</time></trkpt><trkpt lat="42.08056" lon="13.59079"><ele>1009.0</ele><time>2026-05-02T13:24:32.286Z</time></trkpt><trkpt lat="42.0804517" lon="13.5906983"><ele>1008.9999999999999</ele><time>2026-05-02T13:24:34.286Z</time></trkpt><trkpt lat="42.080395" lon="13.590655"><ele>1009.0</ele><time>2026-05-02T13:24:35.286Z</time></trkpt><trkpt lat="42.0803383" lon="13.5906033"><ele>1009.0</ele><time>2026-05-02T13:24:36.286Z</time></trkpt><trkpt lat="42.0802833" lon="13.5905617"><ele>1009.0</ele><time>2026-05-02T13:24:37.286Z</time></trkpt><trkpt lat="42.0802017" lon="13.5905083"><ele>1008.9999999999999</ele><time>2026-05-02T13:24:39.286Z</time></trkpt><trkpt lat="42.0801233" lon="13.5904417"><ele>1009.0</ele><time>2026-05-02T13:24:42.286Z</time></trkpt><trkpt lat="42.08008" lon="13.5903383"><ele>1009.0</ele><time>2026-05-02T13:24:45.286Z</time></trkpt><trkpt lat="42.0801933" lon="13.5902767"><ele>1009.0000000000001</ele><time>2026-05-02T13:24:57.286Z</time></trkpt><trkpt lat="42.0802817" lon="13.5903367"><ele>1009.0000000000001</ele><time>2026-05-02T13:24:59.286Z</time></trkpt><trkpt lat="42.0803633" lon="13.5903767"><ele>1009.0</ele><time>2026-05-02T13:25:01.286Z</time></trkpt><trkpt lat="42.0804717" lon="13.5904183"><ele>1009.0</ele><time>2026-05-02T13:25:03.286Z</time></trkpt><trkpt lat="42.08059" lon="13.59046"><ele>1009.0</ele><time>2026-05-02T13:25:05.286Z</time></trkpt><trkpt lat="42.0807" lon="13.5904817"><ele>1009.0000000000001</ele><time>2026-05-02T13:25:07.286Z</time></trkpt><trkpt lat="42.0807867" lon="13.5905117"><ele>1009.0000000000001</ele><time>2026-05-02T13:25:09.286Z</time></trkpt><trkpt lat="42.080865" lon="13.590545"><ele>1009.0</ele><time>2026-05-02T13:25:11.286Z</time></trkpt><trkpt lat="42.0809517" lon="13.5905583"><ele>1009.0</ele><time>2026-05-02T13:25:13.286Z</time></trkpt><trkpt lat="42.08104" lon="13.5906"><ele>1010.8333333333333</ele><time>2026-05-02T13:25:15.286Z</time></trkpt><trkpt lat="42.081115" lon="13.5906467"><ele>1012.6666666666666</ele><time>2026-05-02T13:25:17.286Z</time></trkpt><trkpt lat="42.0812" lon="13.5906367"><ele>1014.5</ele><time>2026-05-02T13:25:22.286Z</time></trkpt><trkpt lat="42.0812783" lon="13.5906067"><ele>1016.3333333333333</ele><time>2026-05-02T13:25:25.287Z</time></trkpt><trkpt lat="42.0813183" lon="13.5905117"><ele>1018.1666666666666</ele><time>2026-05-02T13:25:27.286Z</time></trkpt><trkpt lat="42.08134" lon="13.5904083"><ele>1020.0</ele><time>2026-05-02T13:25:30.287Z</time></trkpt><trkpt lat="42.081345" lon="13.5903133"><ele>1020.6</ele><time>2026-05-02T13:25:32.286Z</time></trkpt><trkpt lat="42.0813533" lon="13.5902083"><ele>1021.2</ele><time>2026-05-02T13:25:34.286Z</time></trkpt><trkpt lat="42.0813883" lon="13.5901233"><ele>1021.8</ele><time>2026-05-02T13:25:38.287Z</time></trkpt><trkpt lat="42.08149" lon="13.5901133"><ele>1022.4</ele><time>2026-05-02T13:25:40.286Z</time></trkpt><trkpt lat="42.0815933" lon="13.5900917"><ele>1023.0</ele><time>2026-05-02T13:25:42.286Z</time></trkpt><trkpt lat="42.081705" lon="13.5900167"><ele>1023.4</ele><time>2026-05-02T13:25:44.286Z</time></trkpt><trkpt lat="42.0818" lon="13.5899317"><ele>1023.8</ele><time>2026-05-02T13:25:46.287Z</time></trkpt><trkpt lat="42.0819083" lon="13.589835"><ele>1024.2</ele><time>2026-05-02T13:25:48.286Z</time></trkpt><trkpt lat="42.0819667" lon="13.5897983"><ele>1024.6</ele><time>2026-05-02T13:25:49.286Z</time></trkpt><trkpt lat="42.082075" lon="13.589755"><ele>1025.0</ele><time>2026-05-02T13:25:51.286Z</time></trkpt><trkpt lat="42.0821833" lon="13.5897183"><ele>1025.0</ele><time>2026-05-02T13:25:53.286Z</time></trkpt><trkpt lat="42.0822833" lon="13.589705"><ele>1025.0</ele><time>2026-05-02T13:25:55.286Z</time></trkpt><trkpt lat="42.0823917" lon="13.58968"><ele>1025.0</ele><time>2026-05-02T13:25:57.286Z</time></trkpt><trkpt lat="42.08252" lon="13.5896717"><ele>1025.0</ele><time>2026-05-02T13:25:59.287Z</time></trkpt><trkpt lat="42.0825867" lon="13.5896867"><ele>1025.0</ele><time>2026-05-02T13:26:00.286Z</time></trkpt><trkpt lat="42.0826567" lon="13.5897133"><ele>1025.6</ele><time>2026-05-02T13:26:01.286Z</time></trkpt><trkpt lat="42.0827583" lon="13.5897667"><ele>1026.2</ele><time>2026-05-02T13:26:03.286Z</time></trkpt><trkpt lat="42.0828267" lon="13.58975"><ele>1026.8</ele><time>2026-05-02T13:26:15.287Z</time></trkpt><trkpt lat="42.0827583" lon="13.589665"><ele>1027.4</ele><time>2026-05-02T13:26:18.286Z</time></trkpt><trkpt lat="42.0826983" lon="13.58958"><ele>1028.0</ele><time>2026-05-02T13:26:20.287Z</time></trkpt><trkpt lat="42.0826983" lon="13.589425"><ele>1024.0</ele><time>2026-05-02T13:26:22.286Z</time></trkpt><trkpt lat="42.0826983" lon="13.5893383"><ele>1020.0</ele><time>2026-05-02T13:26:23.286Z</time></trkpt><trkpt lat="42.0826583" lon="13.5891867"><ele>1016.0</ele><time>2026-05-02T13:26:25.286Z</time></trkpt><trkpt lat="42.0826383" lon="13.5890433"><ele>1012.0</ele><time>2026-05-02T13:26:27.286Z</time></trkpt><trkpt lat="42.08261" lon="13.5889233"><ele>1008.0</ele><time>2026-05-02T13:26:29.286Z</time></trkpt><trkpt lat="42.0825983" lon="13.588835"><ele>1008.0</ele><time>2026-05-02T13:26:31.286Z</time></trkpt><trkpt lat="42.08268" lon="13.5888583"><ele>1008.0</ele><time>2026-05-02T13:26:34.286Z</time></trkpt><trkpt lat="42.082765" lon="13.588935"><ele>1008.0</ele><time>2026-05-02T13:26:36.287Z</time></trkpt><trkpt lat="42.082855" lon="13.58901"><ele>1008.0</ele><time>2026-05-02T13:26:38.286Z</time></trkpt><trkpt lat="42.0829233" lon="13.5890467"><ele>1008.0</ele><time>2026-05-02T13:26:40.286Z</time></trkpt><trkpt lat="42.0829817" lon="13.58912"><ele>1008.0</ele><time>2026-05-02T13:26:43.286Z</time></trkpt><trkpt lat="42.0830533" lon="13.5892233"><ele>1008.0</ele><time>2026-05-02T13:26:45.286Z</time></trkpt><trkpt lat="42.08312" lon="13.5892767"><ele>1008.0</ele><time>2026-05-02T13:26:47.286Z</time></trkpt><trkpt lat="42.083135" lon="13.5891917"><ele>1008.0</ele><time>2026-05-02T13:26:51.286Z</time></trkpt><trkpt lat="42.0830267" lon="13.5891417"><ele>1008.0</ele><time>2026-05-02T13:26:53.286Z</time></trkpt><trkpt lat="42.082955" lon="13.5891"><ele>1008.0</ele><time>2026-05-02T13:26:54.286Z</time></trkpt><trkpt lat="42.0828817" lon="13.5890417"><ele>1008.0</ele><time>2026-05-02T13:26:55.286Z</time></trkpt><trkpt lat="42.08281" lon="13.5889817"><ele>1008.0</ele><time>2026-05-02T13:26:56.286Z</time></trkpt><trkpt lat="42.08275" lon="13.5889183"><ele>1008.0</ele><time>2026-05-02T13:26:57.286Z</time></trkpt><trkpt lat="42.0826833" lon="13.5888683"><ele>1008.0</ele><time>2026-05-02T13:26:58.286Z</time></trkpt><trkpt lat="42.0826183" lon="13.5888283"><ele>1008.0</ele><time>2026-05-02T13:26:59.286Z</time></trkpt><trkpt lat="42.082525" lon="13.5887583"><ele>1008.0</ele><time>2026-05-02T13:27:01.286Z</time></trkpt><trkpt lat="42.0825617" lon="13.5886833"><ele>1008.0</ele><time>2026-05-02T13:27:05.286Z</time></trkpt><trkpt lat="42.0826817" lon="13.5887067"><ele>1008.0</ele><time>2026-05-02T13:27:07.286Z</time></trkpt><trkpt lat="42.08275" lon="13.588725"><ele>1008.0</ele><time>2026-05-02T13:27:08.286Z</time></trkpt><trkpt lat="42.0828183" lon="13.5887483"><ele>1008.0</ele><time>2026-05-02T13:27:09.286Z</time></trkpt><trkpt lat="42.08294" lon="13.5887817"><ele>1008.0</ele><time>2026-05-02T13:27:11.286Z</time></trkpt><trkpt lat="42.0830617" lon="13.5888017"><ele>1008.0</ele><time>2026-05-02T13:27:13.286Z</time></trkpt><trkpt lat="42.0831783" lon="13.5888167"><ele>1006.2</ele><time>2026-05-02T13:27:15.286Z</time></trkpt><trkpt lat="42.0832967" lon="13.5888367"><ele>1004.4</ele><time>2026-05-02T13:27:17.286Z</time></trkpt><trkpt lat="42.08336" lon="13.5888467"><ele>1002.6000000000001</ele><time>2026-05-02T13:27:18.286Z</time></trkpt><trkpt lat="42.0834883" lon="13.5888617"><ele>1000.8000000000001</ele><time>2026-05-02T13:27:20.286Z</time></trkpt><trkpt lat="42.0835633" lon="13.588855"><ele>999.0</ele><time>2026-05-02T13:27:21.286Z</time></trkpt><trkpt lat="42.0836333" lon="13.588855"><ele>999.0</ele><time>2026-05-02T13:27:22.286Z</time></trkpt><trkpt lat="42.0837083" lon="13.58885"><ele>999.0</ele><time>2026-05-02T13:27:23.286Z</time></trkpt><trkpt lat="42.0837717" lon="13.5888367"><ele>999.0</ele><time>2026-05-02T13:27:24.286Z</time></trkpt><trkpt lat="42.0839" lon="13.5888433"><ele>999.0</ele><time>2026-05-02T13:27:26.286Z</time></trkpt><trkpt lat="42.0839633" lon="13.5888517"><ele>999.0</ele><time>2026-05-02T13:27:27.286Z</time></trkpt><trkpt lat="42.08408" lon="13.5888533"><ele>999.0</ele><time>2026-05-02T13:27:29.286Z</time></trkpt><trkpt lat="42.084175" lon="13.58884"><ele>997.0</ele><time>2026-05-02T13:27:31.286Z</time></trkpt><trkpt lat="42.0842817" lon="13.5888333"><ele>995.0000000000001</ele><time>2026-05-02T13:27:33.286Z</time></trkpt><trkpt lat="42.0843817" lon="13.5888333"><ele>993.0000000000001</ele><time>2026-05-02T13:27:35.286Z</time></trkpt><trkpt lat="42.08449" lon="13.5888133"><ele>991.0</ele><time>2026-05-02T13:27:37.286Z</time></trkpt><trkpt lat="42.0845983" lon="13.588795"><ele>989.0</ele><time>2026-05-02T13:27:39.286Z</time></trkpt><trkpt lat="42.084695" lon="13.588795"><ele>989.0000000000001</ele><time>2026-05-02T13:27:41.286Z</time></trkpt><trkpt lat="42.0847733" lon="13.5887933"><ele>989.0</ele><time>2026-05-02T13:27:43.286Z</time></trkpt><trkpt lat="42.084795" lon="13.5886833"><ele>989.0</ele><time>2026-05-02T13:27:46.286Z</time></trkpt><trkpt lat="42.0846757" lon="13.5885908"><ele>989.0</ele><time>2026-05-02T13:27:50.328Z</time></trkpt><trkpt lat="42.0846056" lon="13.5886081"><ele>989.0000000000001</ele><time>2026-05-02T13:27:51.287Z</time></trkpt><trkpt lat="42.0845401" lon="13.5886198"><ele>989.0</ele><time>2026-05-02T13:27:52.286Z</time></trkpt><trkpt lat="42.0844353" lon="13.5885633"><ele>985.5000000000001</ele><time>2026-05-02T13:27:54.286Z</time></trkpt><trkpt lat="42.0843847" lon="13.5885091"><ele>982.0</ele><time>2026-05-02T13:27:55.286Z</time></trkpt><trkpt lat="42.0843329" lon="13.5884535"><ele>978.5</ele><time>2026-05-02T13:27:56.287Z</time></trkpt><trkpt lat="42.0842813" lon="13.5884001"><ele>975.0</ele><time>2026-05-02T13:27:57.286Z</time></trkpt><trkpt lat="42.0841999" lon="13.588299"><ele>971.5000000000001</ele><time>2026-05-02T13:27:59.286Z</time></trkpt><trkpt lat="42.0841624" lon="13.5882041"><ele>968.0</ele><time>2026-05-02T13:28:01.286Z</time></trkpt><trkpt lat="42.0841629" lon="13.5881085"><ele>968.0</ele><time>2026-05-02T13:28:03.287Z</time></trkpt><trkpt lat="42.0842046" lon="13.5880319"><ele>968.0</ele><time>2026-05-02T13:28:05.286Z</time></trkpt><trkpt lat="42.0842984" lon="13.5879962"><ele>968.0</ele><time>2026-05-02T13:28:08.353Z</time></trkpt><trkpt lat="42.0843891" lon="13.5879049"><ele>968.0</ele><time>2026-05-02T13:28:10.374Z</time></trkpt><trkpt lat="42.08445" lon="13.5878233"><ele>968.0</ele><time>2026-05-02T13:28:12.286Z</time></trkpt><trkpt lat="42.084515" lon="13.5877217"><ele>965.8333333333334</ele><time>2026-05-02T13:28:14.286Z</time></trkpt><trkpt lat="42.0845817" lon="13.5875933"><ele>963.6666666666667</ele><time>2026-05-02T13:28:16.286Z</time></trkpt><trkpt lat="42.08463" lon="13.5875217"><ele>961.5</ele><time>2026-05-02T13:28:17.286Z</time></trkpt><trkpt lat="42.0846883" lon="13.5874483"><ele>959.3333333333333</ele><time>2026-05-02T13:28:18.286Z</time></trkpt><trkpt lat="42.084745" lon="13.58738"><ele>957.1666666666666</ele><time>2026-05-02T13:28:19.286Z</time></trkpt><trkpt lat="42.08481" lon="13.5873133"><ele>955.0</ele><time>2026-05-02T13:28:20.287Z</time></trkpt><trkpt lat="42.0848867" lon="13.5872433"><ele>954.2</ele><time>2026-05-02T13:28:21.286Z</time></trkpt><trkpt lat="42.08497" lon="13.58718"><ele>953.4</ele><time>2026-05-02T13:28:22.286Z</time></trkpt><trkpt lat="42.0850617" lon="13.5871333"><ele>952.5999999999999</ele><time>2026-05-02T13:28:23.286Z</time></trkpt><trkpt lat="42.0851517" lon="13.5871"><ele>951.8</ele><time>2026-05-02T13:28:24.286Z</time></trkpt><trkpt lat="42.0852367" lon="13.5870733"><ele>951.0</ele><time>2026-05-02T13:28:25.286Z</time></trkpt><trkpt lat="42.0853167" lon="13.5870467"><ele>951.0</ele><time>2026-05-02T13:28:26.286Z</time></trkpt><trkpt lat="42.0853867" lon="13.5870133"><ele>950.9999999999999</ele><time>2026-05-02T13:28:27.286Z</time></trkpt><trkpt lat="42.085475" lon="13.58691"><ele>950.9999999999999</ele><time>2026-05-02T13:28:29.286Z</time></trkpt><trkpt lat="42.0855383" lon="13.5867683"><ele>951.0</ele><time>2026-05-02T13:28:31.286Z</time></trkpt><trkpt lat="42.08555" lon="13.58661"><ele>951.0</ele><time>2026-05-02T13:28:33.286Z</time></trkpt><trkpt lat="42.0855167" lon="13.5865367"><ele>950.0</ele><time>2026-05-02T13:28:34.286Z</time></trkpt><trkpt lat="42.0854817" lon="13.58646"><ele>949.0</ele><time>2026-05-02T13:28:35.286Z</time></trkpt><trkpt lat="42.085425" lon="13.5863233"><ele>948.0</ele><time>2026-05-02T13:28:37.286Z</time></trkpt><trkpt lat="42.0854033" lon="13.58622"><ele>947.0</ele><time>2026-05-02T13:28:40.286Z</time></trkpt><trkpt lat="42.08537" lon="13.5860883"><ele>946.0</ele><time>2026-05-02T13:28:42.286Z</time></trkpt><trkpt lat="42.0853583" lon="13.585995"><ele>945.0</ele><time>2026-05-02T13:28:43.286Z</time></trkpt><trkpt lat="42.0853667" lon="13.58587"><ele>944.8</ele><time>2026-05-02T13:28:45.286Z</time></trkpt><trkpt lat="42.0853983" lon="13.5857367"><ele>944.6</ele><time>2026-05-02T13:28:47.286Z</time></trkpt><trkpt lat="42.0854383" lon="13.5855917"><ele>944.4000000000001</ele><time>2026-05-02T13:28:49.286Z</time></trkpt><trkpt lat="42.0854867" lon="13.5854683"><ele>944.2</ele><time>2026-05-02T13:28:51.286Z</time></trkpt><trkpt lat="42.085535" lon="13.5853517"><ele>944.0</ele><time>2026-05-02T13:28:53.286Z</time></trkpt><trkpt lat="42.0855867" lon="13.5852133"><ele>943.7142857142857</ele><time>2026-05-02T13:28:55.286Z</time></trkpt><trkpt lat="42.0856183" lon="13.5851367"><ele>943.4285714285716</ele><time>2026-05-02T13:28:56.286Z</time></trkpt><trkpt lat="42.08565" lon="13.5850583"><ele>943.1428571428572</ele><time>2026-05-02T13:28:57.286Z</time></trkpt><trkpt lat="42.0856833" lon="13.5849733"><ele>942.8571428571429</ele><time>2026-05-02T13:28:58.286Z</time></trkpt><trkpt lat="42.0857233" lon="13.5848933"><ele>942.5714285714287</ele><time>2026-05-02T13:28:59.286Z</time></trkpt><trkpt lat="42.0857583" lon="13.5848083"><ele>942.2857142857144</ele><time>2026-05-02T13:29:00.286Z</time></trkpt><trkpt lat="42.08579" lon="13.5847267"><ele>942.0000000000001</ele><time>2026-05-02T13:29:01.286Z</time></trkpt><trkpt lat="42.0858233" lon="13.58465"><ele>945.8</ele><time>2026-05-02T13:29:02.286Z</time></trkpt><trkpt lat="42.0859017" lon="13.5845283"><ele>949.6</ele><time>2026-05-02T13:29:04.287Z</time></trkpt><trkpt lat="42.0859933" lon="13.5844217"><ele>953.3999999999999</ele><time>2026-05-02T13:29:06.286Z</time></trkpt><trkpt lat="42.0860783" lon="13.584365"><ele>957.1999999999999</ele><time>2026-05-02T13:29:08.286Z</time></trkpt><trkpt lat="42.086145" lon="13.5843067"><ele>961.0</ele><time>2026-05-02T13:29:11.286Z</time></trkpt><trkpt lat="42.0861283" lon="13.5841783"><ele>961.5999999999999</ele><time>2026-05-02T13:29:14.286Z</time></trkpt><trkpt lat="42.0860933" lon="13.584015"><ele>962.1999999999999</ele><time>2026-05-02T13:29:16.286Z</time></trkpt><trkpt lat="42.0860683" lon="13.5839"><ele>962.8000000000001</ele><time>2026-05-02T13:29:17.286Z</time></trkpt><trkpt lat="42.0860433" lon="13.5837767"><ele>963.4000000000001</ele><time>2026-05-02T13:29:18.286Z</time></trkpt><trkpt lat="42.08601" lon="13.58364"><ele>964.0</ele><time>2026-05-02T13:29:19.287Z</time></trkpt><trkpt lat="42.085965" lon="13.5834983"><ele>964.75</ele><time>2026-05-02T13:29:20.286Z</time></trkpt><trkpt lat="42.0859067" lon="13.5833583"><ele>965.5</ele><time>2026-05-02T13:29:21.287Z</time></trkpt><trkpt lat="42.0858483" lon="13.5832183"><ele>966.25</ele><time>2026-05-02T13:29:22.286Z</time></trkpt><trkpt lat="42.0857767" lon="13.58309"><ele>967.0</ele><time>2026-05-02T13:29:23.286Z</time></trkpt><trkpt lat="42.0857067" lon="13.58296"><ele>965.25</ele><time>2026-05-02T13:29:24.286Z</time></trkpt><trkpt lat="42.0856433" lon="13.5828317"><ele>963.5</ele><time>2026-05-02T13:29:25.286Z</time></trkpt><trkpt lat="42.0855817" lon="13.58271"><ele>961.75</ele><time>2026-05-02T13:29:26.286Z</time></trkpt><trkpt lat="42.085525" lon="13.5825783"><ele>960.0</ele><time>2026-05-02T13:29:27.286Z</time></trkpt><trkpt lat="42.08548" lon="13.5824317"><ele>960.0</ele><time>2026-05-02T13:29:28.286Z</time></trkpt><trkpt lat="42.08543" lon="13.5822783"><ele>960.0</ele><time>2026-05-02T13:29:29.286Z</time></trkpt><trkpt lat="42.085385" lon="13.5821333"><ele>960.0</ele><time>2026-05-02T13:29:30.286Z</time></trkpt><trkpt lat="42.085325" lon="13.58198"><ele>960.0</ele><time>2026-05-02T13:29:31.286Z</time></trkpt><trkpt lat="42.085275" lon="13.581825"><ele>962.25</ele><time>2026-05-02T13:29:32.286Z</time></trkpt><trkpt lat="42.0852233" lon="13.5816717"><ele>964.5</ele><time>2026-05-02T13:29:33.286Z</time></trkpt><trkpt lat="42.0851667" lon="13.5815233"><ele>966.75</ele><time>2026-05-02T13:29:34.287Z</time></trkpt><trkpt lat="42.085115" lon="13.5813883"><ele>969.0</ele><time>2026-05-02T13:29:35.287Z</time></trkpt><trkpt lat="42.0850733" lon="13.5812517"><ele>970.2</ele><time>2026-05-02T13:29:36.286Z</time></trkpt><trkpt lat="42.0850367" lon="13.58112"><ele>971.4000000000001</ele><time>2026-05-02T13:29:37.287Z</time></trkpt><trkpt lat="42.085" lon="13.5809917"><ele>972.6</ele><time>2026-05-02T13:29:38.286Z</time></trkpt><trkpt lat="42.0849667" lon="13.5808783"><ele>973.8</ele><time>2026-05-02T13:29:39.286Z</time></trkpt><trkpt lat="42.0849383" lon="13.5807767"><ele>975.0</ele><time>2026-05-02T13:29:40.286Z</time></trkpt><trkpt lat="42.0849067" lon="13.58068"><ele>975.0</ele><time>2026-05-02T13:29:41.286Z</time></trkpt><trkpt lat="42.084885" lon="13.5805983"><ele>975.0</ele><time>2026-05-02T13:29:42.286Z</time></trkpt><trkpt lat="42.0848567" lon="13.580455"><ele>975.0</ele><time>2026-05-02T13:29:44.286Z</time></trkpt><trkpt lat="42.0848483" lon="13.58032"><ele>975.0</ele><time>2026-05-02T13:29:46.286Z</time></trkpt><trkpt lat="42.0848433" lon="13.5801817"><ele>975.0</ele><time>2026-05-02T13:29:48.286Z</time></trkpt><trkpt lat="42.0848383" lon="13.5800233"><ele>975.6</ele><time>2026-05-02T13:29:50.286Z</time></trkpt><trkpt lat="42.0848517" lon="13.579875"><ele>976.2</ele><time>2026-05-02T13:29:52.286Z</time></trkpt><trkpt lat="42.0848883" lon="13.5797383"><ele>976.8</ele><time>2026-05-02T13:29:54.286Z</time></trkpt><trkpt lat="42.08494" lon="13.579615"><ele>977.4</ele><time>2026-05-02T13:29:56.286Z</time></trkpt><trkpt lat="42.0849933" lon="13.579495"><ele>978.0</ele><time>2026-05-02T13:29:58.286Z</time></trkpt><trkpt lat="42.085055" lon="13.579395"><ele>975.6666666666666</ele><time>2026-05-02T13:30:00.286Z</time></trkpt><trkpt lat="42.0851383" lon="13.5792833"><ele>973.3333333333333</ele><time>2026-05-02T13:30:02.286Z</time></trkpt><trkpt lat="42.0851817" lon="13.57922"><ele>971.0</ele><time>2026-05-02T13:30:03.286Z</time></trkpt><trkpt lat="42.0852333" lon="13.5791533"><ele>968.6666666666666</ele><time>2026-05-02T13:30:04.286Z</time></trkpt><trkpt lat="42.085285" lon="13.57908"><ele>966.3333333333333</ele><time>2026-05-02T13:30:05.286Z</time></trkpt><trkpt lat="42.085335" lon="13.5790217"><ele>964.0</ele><time>2026-05-02T13:30:06.287Z</time></trkpt><trkpt lat="42.0853867" lon="13.5789633"><ele>964.0</ele><time>2026-05-02T13:30:07.286Z</time></trkpt><trkpt lat="42.0854317" lon="13.5788983"><ele>964.0000000000001</ele><time>2026-05-02T13:30:08.286Z</time></trkpt><trkpt lat="42.0854767" lon="13.57882"><ele>964.0000000000001</ele><time>2026-05-02T13:30:09.286Z</time></trkpt><trkpt lat="42.08552" lon="13.578745"><ele>964.0</ele><time>2026-05-02T13:30:10.286Z</time></trkpt><trkpt lat="42.085605" lon="13.5786217"><ele>964.0</ele><time>2026-05-02T13:30:12.286Z</time></trkpt><trkpt lat="42.085685" lon="13.5784967"><ele>963.6</ele><time>2026-05-02T13:30:14.286Z</time></trkpt><trkpt lat="42.08575" lon="13.5783733"><ele>963.2</ele><time>2026-05-02T13:30:16.286Z</time></trkpt><trkpt lat="42.08582" lon="13.5782533"><ele>962.8000000000001</ele><time>2026-05-02T13:30:18.286Z</time></trkpt><trkpt lat="42.0858883" lon="13.5781333"><ele>962.4000000000001</ele><time>2026-05-02T13:30:20.286Z</time></trkpt><trkpt lat="42.0859317" lon="13.5780083"><ele>962.0</ele><time>2026-05-02T13:30:22.286Z</time></trkpt><trkpt lat="42.08595" lon="13.5778783"><ele>959.5000000000001</ele><time>2026-05-02T13:30:24.286Z</time></trkpt><trkpt lat="42.085965" lon="13.5777517"><ele>957.0</ele><time>2026-05-02T13:30:26.286Z</time></trkpt><trkpt lat="42.08599" lon="13.577645"><ele>954.5</ele><time>2026-05-02T13:30:28.286Z</time></trkpt><trkpt lat="42.0860267" lon="13.577555"><ele>952.0</ele><time>2026-05-02T13:30:30.286Z</time></trkpt><trkpt lat="42.0860467" lon="13.5774667"><ele>949.5000000000001</ele><time>2026-05-02T13:30:33.286Z</time></trkpt><trkpt lat="42.0859983" lon="13.5773917"><ele>947.0</ele><time>2026-05-02T13:30:36.286Z</time></trkpt><trkpt lat="42.0859357" lon="13.5773824"><ele>947.0</ele><time>2026-05-02T13:30:39.298Z</time></trkpt><trkpt lat="42.0858409" lon="13.5773953"><ele>947.0</ele><time>2026-05-02T13:30:42.382Z</time></trkpt><trkpt lat="42.0857372" lon="13.5773987"><ele>947.0</ele><time>2026-05-02T13:30:44.593Z</time></trkpt><trkpt lat="42.0856318" lon="13.5773871"><ele>947.0</ele><time>2026-05-02T13:30:46.855Z</time></trkpt><trkpt lat="42.0855428" lon="13.5773687"><ele>947.0</ele><time>2026-05-02T13:30:49.213Z</time></trkpt><trkpt lat="42.0854584" lon="13.5773601"><ele>944.2</ele><time>2026-05-02T13:30:51.316Z</time></trkpt><trkpt lat="42.0853722" lon="13.5773666"><ele>941.4000000000001</ele><time>2026-05-02T13:30:53.286Z</time></trkpt><trkpt lat="42.0852767" lon="13.5773717"><ele>938.5999999999999</ele><time>2026-05-02T13:30:55.286Z</time></trkpt><trkpt lat="42.0851733" lon="13.57737"><ele>935.8</ele><time>2026-05-02T13:30:57.286Z</time></trkpt><trkpt lat="42.0850783" lon="13.57736"><ele>933.0</ele><time>2026-05-02T13:30:59.286Z</time></trkpt><trkpt lat="42.0850033" lon="13.5773067"><ele>933.0</ele><time>2026-05-02T13:31:01.287Z</time></trkpt><trkpt lat="42.084975" lon="13.5772033"><ele>933.0</ele><time>2026-05-02T13:31:03.286Z</time></trkpt><trkpt lat="42.085" lon="13.577085"><ele>933.0</ele><time>2026-05-02T13:31:05.286Z</time></trkpt><trkpt lat="42.0850321" lon="13.5770068"><ele>933.0</ele><time>2026-05-02T13:31:08.319Z</time></trkpt><trkpt lat="42.0850799" lon="13.576936"><ele>933.0</ele><time>2026-05-02T13:31:09.302Z</time></trkpt><trkpt lat="42.0851708" lon="13.5768774"><ele>933.0</ele><time>2026-05-02T13:31:12.36Z</time></trkpt><trkpt lat="42.0852396" lon="13.5768242"><ele>930.5</ele><time>2026-05-02T13:31:14.343Z</time></trkpt><trkpt lat="42.0853063" lon="13.5767987"><ele>928.0</ele><time>2026-05-02T13:31:16.294Z</time></trkpt><trkpt lat="42.0853927" lon="13.5767798"><ele>925.5</ele><time>2026-05-02T13:31:18.384Z</time></trkpt><trkpt lat="42.08545" lon="13.576714"><ele>923.0</ele><time>2026-05-02T13:31:20.335Z</time></trkpt><trkpt lat="42.0854467" lon="13.5766067"><ele>920.5</ele><time>2026-05-02T13:31:22.285Z</time></trkpt><trkpt lat="42.0854117" lon="13.576505"><ele>918.0</ele><time>2026-05-02T13:31:25.285Z</time></trkpt><trkpt lat="42.0853236" lon="13.5764472"><ele>918.0</ele><time>2026-05-02T13:31:28.427Z</time></trkpt><trkpt lat="42.0852502" lon="13.5764657"><ele>918.0</ele><time>2026-05-02T13:31:31.288Z</time></trkpt><trkpt lat="42.0851726" lon="13.5765029"><ele>918.0</ele><time>2026-05-02T13:31:35.328Z</time></trkpt><trkpt lat="42.0850033" lon="13.5763967"><ele>918.0</ele><time>2026-05-02T13:31:38.285Z</time></trkpt><trkpt lat="42.08493" lon="13.5763633"><ele>918.0</ele><time>2026-05-02T13:31:40.285Z</time></trkpt><trkpt lat="42.0848517" lon="13.5763367"><ele>916.8333333333334</ele><time>2026-05-02T13:31:42.285Z</time></trkpt><trkpt lat="42.0847767" lon="13.5763033"><ele>915.6666666666667</ele><time>2026-05-02T13:31:44.285Z</time></trkpt><trkpt lat="42.0846933" lon="13.5762683"><ele>914.5</ele><time>2026-05-02T13:31:46.285Z</time></trkpt><trkpt lat="42.084605" lon="13.576235"><ele>913.3333333333334</ele><time>2026-05-02T13:31:48.285Z</time></trkpt><trkpt lat="42.08453" lon="13.5762233"><ele>912.1666666666667</ele><time>2026-05-02T13:31:50.285Z</time></trkpt><trkpt lat="42.0844333" lon="13.576215"><ele>911.0</ele><time>2026-05-02T13:31:53.285Z</time></trkpt><trkpt lat="42.0843617" lon="13.5762083"><ele>911.0</ele><time>2026-05-02T13:31:55.285Z</time></trkpt><trkpt lat="42.0842883" lon="13.576195"><ele>911.0</ele><time>2026-05-02T13:31:57.285Z</time></trkpt><trkpt lat="42.0842267" lon="13.5761733"><ele>911.0</ele><time>2026-05-02T13:31:59.285Z</time></trkpt><trkpt lat="42.0841567" lon="13.5761533"><ele>911.0</ele><time>2026-05-02T13:32:01.285Z</time></trkpt><trkpt lat="42.0840917" lon="13.5761333"><ele>911.0</ele><time>2026-05-02T13:32:03.285Z</time></trkpt><trkpt lat="42.0840267" lon="13.5761167"><ele>911.0</ele><time>2026-05-02T13:32:05.285Z</time></trkpt><trkpt lat="42.08396" lon="13.5761033"><ele>911.0</ele><time>2026-05-02T13:32:07.285Z</time></trkpt><trkpt lat="42.0838967" lon="13.5760917"><ele>908.0000000000001</ele><time>2026-05-02T13:32:09.285Z</time></trkpt><trkpt lat="42.0838217" lon="13.576095"><ele>905.0</ele><time>2026-05-02T13:32:11.285Z</time></trkpt><trkpt lat="42.0837333" lon="13.5760867"><ele>902.0</ele><time>2026-05-02T13:32:13.285Z</time></trkpt><trkpt lat="42.0836517" lon="13.5760717"><ele>899.0</ele><time>2026-05-02T13:32:15.285Z</time></trkpt><trkpt lat="42.083575" lon="13.5760017"><ele>896.0000000000001</ele><time>2026-05-02T13:32:18.285Z</time></trkpt><trkpt lat="42.0835167" lon="13.5759383"><ele>893.0</ele><time>2026-05-02T13:32:20.286Z</time></trkpt><trkpt lat="42.0834617" lon="13.57586"><ele>893.0000000000001</ele><time>2026-05-02T13:32:22.285Z</time></trkpt><trkpt lat="42.0834083" lon="13.5757833"><ele>893.0</ele><time>2026-05-02T13:32:24.285Z</time></trkpt><trkpt lat="42.08337" lon="13.5757033"><ele>893.0</ele><time>2026-05-02T13:32:26.285Z</time></trkpt><trkpt lat="42.0833333" lon="13.5756233"><ele>893.0</ele><time>2026-05-02T13:32:28.285Z</time></trkpt><trkpt lat="42.0832867" lon="13.5755404"><ele>893.0000000000001</ele><time>2026-05-02T13:32:30.311Z</time></trkpt><trkpt lat="42.0832347" lon="13.5754282"><ele>893.0</ele><time>2026-05-02T13:32:32.285Z</time></trkpt><trkpt lat="42.0831711" lon="13.5752936"><ele>891.4</ele><time>2026-05-02T13:32:34.285Z</time></trkpt><trkpt lat="42.083135" lon="13.57516"><ele>889.8</ele><time>2026-05-02T13:32:36.285Z</time></trkpt><trkpt lat="42.0831" lon="13.5750083"><ele>888.2</ele><time>2026-05-02T13:32:38.285Z</time></trkpt><trkpt lat="42.08306" lon="13.5748683"><ele>886.6</ele><time>2026-05-02T13:32:40.285Z</time></trkpt><trkpt lat="42.0830233" lon="13.5747433"><ele>885.0</ele><time>2026-05-02T13:32:42.285Z</time></trkpt><trkpt lat="42.0829717" lon="13.5746167"><ele>885.0</ele><time>2026-05-02T13:32:44.285Z</time></trkpt><trkpt lat="42.0829317" lon="13.574545"><ele>885.0</ele><time>2026-05-02T13:32:45.285Z</time></trkpt><trkpt lat="42.0828967" lon="13.5744717"><ele>885.0</ele><time>2026-05-02T13:32:46.285Z</time></trkpt><trkpt lat="42.0828217" lon="13.5743517"><ele>885.0</ele><time>2026-05-02T13:32:48.285Z</time></trkpt><trkpt lat="42.0827767" lon="13.5742467"><ele>885.0</ele><time>2026-05-02T13:32:50.285Z</time></trkpt><trkpt lat="42.0827333" lon="13.5741467"><ele>885.0</ele><time>2026-05-02T13:32:52.286Z</time></trkpt><trkpt lat="42.0826583" lon="13.5740233"><ele>883.8</ele><time>2026-05-02T13:32:54.285Z</time></trkpt><trkpt lat="42.0825917" lon="13.573915"><ele>882.6</ele><time>2026-05-02T13:32:56.285Z</time></trkpt><trkpt lat="42.0825417" lon="13.57383"><ele>881.4000000000001</ele><time>2026-05-02T13:32:58.285Z</time></trkpt><trkpt lat="42.082495" lon="13.5737467"><ele>880.2</ele><time>2026-05-02T13:33:00.286Z</time></trkpt><trkpt lat="42.0824383" lon="13.5736533"><ele>879.0</ele><time>2026-05-02T13:33:03.285Z</time></trkpt><trkpt lat="42.0823733" lon="13.5735317"><ele>878.3333333333334</ele><time>2026-05-02T13:33:26.285Z</time></trkpt><trkpt lat="42.0823233" lon="13.5734317"><ele>877.6666666666667</ele><time>2026-05-02T13:33:28.285Z</time></trkpt><trkpt lat="42.0822667" lon="13.57334"><ele>877.0</ele><time>2026-05-02T13:33:30.286Z</time></trkpt><trkpt lat="42.0822067" lon="13.5732633"><ele>876.3333333333334</ele><time>2026-05-02T13:33:32.286Z</time></trkpt><trkpt lat="42.0821483" lon="13.573205"><ele>875.6666666666667</ele><time>2026-05-02T13:33:34.285Z</time></trkpt><trkpt lat="42.08209" lon="13.573125"><ele>875.0</ele><time>2026-05-02T13:33:36.285Z</time></trkpt><trkpt lat="42.082005" lon="13.57305"><ele>875.0</ele><time>2026-05-02T13:33:38.285Z</time></trkpt><trkpt lat="42.0819" lon="13.572955"><ele>875.0</ele><time>2026-05-02T13:33:40.285Z</time></trkpt><trkpt lat="42.0818483" lon="13.5728967"><ele>875.0</ele><time>2026-05-02T13:33:41.285Z</time></trkpt><trkpt lat="42.081805" lon="13.5728283"><ele>875.0</ele><time>2026-05-02T13:33:42.285Z</time></trkpt><trkpt lat="42.0817367" lon="13.5727033"><ele>875.0</ele><time>2026-05-02T13:33:44.285Z</time></trkpt><trkpt lat="42.08167" lon="13.5725717"><ele>874.6</ele><time>2026-05-02T13:33:46.285Z</time></trkpt><trkpt lat="42.08159" lon="13.5724467"><ele>874.2</ele><time>2026-05-02T13:33:48.285Z</time></trkpt><trkpt lat="42.08154" lon="13.5723867"><ele>873.8</ele><time>2026-05-02T13:33:49.285Z</time></trkpt><trkpt lat="42.0814917" lon="13.5723283"><ele>873.4</ele><time>2026-05-02T13:33:50.285Z</time></trkpt><trkpt lat="42.0814333" lon="13.5722183"><ele>873.0</ele><time>2026-05-02T13:33:52.285Z</time></trkpt><trkpt lat="42.08145" lon="13.5720833"><ele>871.4</ele><time>2026-05-02T13:33:54.285Z</time></trkpt><trkpt lat="42.0814833" lon="13.57197"><ele>869.8</ele><time>2026-05-02T13:33:56.285Z</time></trkpt><trkpt lat="42.0814867" lon="13.571855"><ele>868.2</ele><time>2026-05-02T13:33:58.285Z</time></trkpt><trkpt lat="42.0814267" lon="13.5717333"><ele>866.6</ele><time>2026-05-02T13:34:00.285Z</time></trkpt><trkpt lat="42.081335" lon="13.5716233"><ele>865.0</ele><time>2026-05-02T13:34:02.285Z</time></trkpt><trkpt lat="42.0812817" lon="13.5715767"><ele>865.0</ele><time>2026-05-02T13:34:03.285Z</time></trkpt><trkpt lat="42.081195" lon="13.5715"><ele>865.0</ele><time>2026-05-02T13:34:05.285Z</time></trkpt><trkpt lat="42.081115" lon="13.5714383"><ele>865.0</ele><time>2026-05-02T13:34:07.286Z</time></trkpt><trkpt lat="42.0810367" lon="13.5713733"><ele>865.0</ele><time>2026-05-02T13:34:09.285Z</time></trkpt><trkpt lat="42.0809717" lon="13.5712967"><ele>865.0</ele><time>2026-05-02T13:34:11.285Z</time></trkpt><trkpt lat="42.0808933" lon="13.5711933"><ele>863.3333333333333</ele><time>2026-05-02T13:34:13.285Z</time></trkpt><trkpt lat="42.080825" lon="13.57106"><ele>861.6666666666666</ele><time>2026-05-02T13:34:15.285Z</time></trkpt><trkpt lat="42.0807967" lon="13.5709833"><ele>860.0</ele><time>2026-05-02T13:34:16.285Z</time></trkpt><trkpt lat="42.0807617" lon="13.570895"><ele>858.3333333333333</ele><time>2026-05-02T13:34:17.285Z</time></trkpt><trkpt lat="42.0807217" lon="13.57079"><ele>856.6666666666666</ele><time>2026-05-02T13:34:18.285Z</time></trkpt><trkpt lat="42.0806867" lon="13.5706867"><ele>855.0</ele><time>2026-05-02T13:34:19.286Z</time></trkpt><trkpt lat="42.0806433" lon="13.570585"><ele>857.1666666666666</ele><time>2026-05-02T13:34:20.285Z</time></trkpt><trkpt lat="42.0806067" lon="13.5704983"><ele>859.3333333333333</ele><time>2026-05-02T13:34:21.285Z</time></trkpt><trkpt lat="42.080575" lon="13.5704133"><ele>861.5</ele><time>2026-05-02T13:34:22.286Z</time></trkpt><trkpt lat="42.0805417" lon="13.5703233"><ele>863.6666666666666</ele><time>2026-05-02T13:34:23.285Z</time></trkpt><trkpt lat="42.0805033" lon="13.5702267"><ele>865.8333333333333</ele><time>2026-05-02T13:34:24.285Z</time></trkpt><trkpt lat="42.0804667" lon="13.5701217"><ele>868.0</ele><time>2026-05-02T13:34:25.285Z</time></trkpt><trkpt lat="42.0804333" lon="13.5700167"><ele>868.0</ele><time>2026-05-02T13:34:26.286Z</time></trkpt><trkpt lat="42.0804" lon="13.56992"><ele>868.0</ele><time>2026-05-02T13:34:27.285Z</time></trkpt><trkpt lat="42.0803767" lon="13.5698333"><ele>868.0</ele><time>2026-05-02T13:34:28.285Z</time></trkpt><trkpt lat="42.080355" lon="13.569665"><ele>868.0</ele><time>2026-05-02T13:34:30.286Z</time></trkpt><trkpt lat="42.080345" lon="13.5695033"><ele>868.0</ele><time>2026-05-02T13:34:32.285Z</time></trkpt><trkpt lat="42.080345" lon="13.5693583"><ele>865.8</ele><time>2026-05-02T13:34:34.285Z</time></trkpt><trkpt lat="42.08033" lon="13.5692333"><ele>863.5999999999999</ele><time>2026-05-02T13:34:36.285Z</time></trkpt><trkpt lat="42.08027" lon="13.5690767"><ele>861.4000000000001</ele><time>2026-05-02T13:34:38.285Z</time></trkpt><trkpt lat="42.0802383" lon="13.5689867"><ele>859.2</ele><time>2026-05-02T13:34:39.285Z</time></trkpt><trkpt lat="42.0802" lon="13.5688983"><ele>857.0</ele><time>2026-05-02T13:34:40.286Z</time></trkpt><trkpt lat="42.0801583" lon="13.5687983"><ele>854.8333333333334</ele><time>2026-05-02T13:34:41.286Z</time></trkpt><trkpt lat="42.0801283" lon="13.5686917"><ele>852.6666666666667</ele><time>2026-05-02T13:34:42.285Z</time></trkpt><trkpt lat="42.0801083" lon="13.5685917"><ele>850.5</ele><time>2026-05-02T13:34:43.285Z</time></trkpt><trkpt lat="42.08009" lon="13.5684917"><ele>848.3333333333333</ele><time>2026-05-02T13:34:44.285Z</time></trkpt><trkpt lat="42.0800717" lon="13.5683883"><ele>846.1666666666666</ele><time>2026-05-02T13:34:45.285Z</time></trkpt><trkpt lat="42.0800517" lon="13.5682833"><ele>844.0</ele><time>2026-05-02T13:34:46.286Z</time></trkpt><trkpt lat="42.0800417" lon="13.568185"><ele>843.9999999999999</ele><time>2026-05-02T13:34:47.285Z</time></trkpt><trkpt lat="42.080035" lon="13.5680883"><ele>844.0</ele><time>2026-05-02T13:34:48.285Z</time></trkpt><trkpt lat="42.0800333" lon="13.5679833"><ele>844.0</ele><time>2026-05-02T13:34:49.285Z</time></trkpt><trkpt lat="42.0800367" lon="13.5678883"><ele>844.0</ele><time>2026-05-02T13:34:50.285Z</time></trkpt><trkpt lat="42.0800517" lon="13.5677933"><ele>843.9999999999999</ele><time>2026-05-02T13:34:51.285Z</time></trkpt><trkpt lat="42.0800717" lon="13.5677017"><ele>844.0</ele><time>2026-05-02T13:34:52.285Z</time></trkpt><trkpt lat="42.0801217" lon="13.5675417"><ele>842.9999999999999</ele><time>2026-05-02T13:34:54.285Z</time></trkpt><trkpt lat="42.0801633" lon="13.5674533"><ele>842.0</ele><time>2026-05-02T13:34:55.285Z</time></trkpt><trkpt lat="42.0802017" lon="13.5673633"><ele>841.0</ele><time>2026-05-02T13:34:56.285Z</time></trkpt><trkpt lat="42.0802533" lon="13.567265"><ele>840.0</ele><time>2026-05-02T13:34:57.285Z</time></trkpt><trkpt lat="42.0803083" lon="13.5671733"><ele>838.9999999999999</ele><time>2026-05-02T13:34:58.285Z</time></trkpt><trkpt lat="42.0803667" lon="13.5670933"><ele>838.0</ele><time>2026-05-02T13:34:59.285Z</time></trkpt><trkpt lat="42.0804183" lon="13.5670267"><ele>838.0</ele><time>2026-05-02T13:35:00.286Z</time></trkpt><trkpt lat="42.0805067" lon="13.5669267"><ele>838.0</ele><time>2026-05-02T13:35:02.285Z</time></trkpt><trkpt lat="42.08057" lon="13.566825"><ele>838.0</ele><time>2026-05-02T13:35:04.285Z</time></trkpt><trkpt lat="42.080595" lon="13.5667067"><ele>838.0</ele><time>2026-05-02T13:35:06.285Z</time></trkpt><trkpt lat="42.0805683" lon="13.5665567"><ele>838.0</ele><time>2026-05-02T13:35:08.285Z</time></trkpt><trkpt lat="42.0805217" lon="13.566385"><ele>837.9999999999999</ele><time>2026-05-02T13:35:10.286Z</time></trkpt><trkpt lat="42.080505" lon="13.56626"><ele>838.0</ele><time>2026-05-02T13:35:11.285Z</time></trkpt><trkpt lat="42.080495" lon="13.5661217"><ele>838.0</ele><time>2026-05-02T13:35:12.285Z</time></trkpt><trkpt lat="42.0804867" lon="13.5660033"><ele>838.0</ele><time>2026-05-02T13:35:13.285Z</time></trkpt><trkpt lat="42.0804833" lon="13.5658967"><ele>837.9999999999999</ele><time>2026-05-02T13:35:14.286Z</time></trkpt><trkpt lat="42.08048" lon="13.5658067"><ele>838.0</ele><time>2026-05-02T13:35:15.285Z</time></trkpt><trkpt lat="42.0804617" lon="13.56572"><ele>838.0</ele><time>2026-05-02T13:35:16.285Z</time></trkpt><trkpt lat="42.08043" lon="13.5656133"><ele>838.0</ele><time>2026-05-02T13:35:17.285Z</time></trkpt><trkpt lat="42.0803817" lon="13.5654917"><ele>838.0</ele><time>2026-05-02T13:35:18.286Z</time></trkpt><trkpt lat="42.0803233" lon="13.56536"><ele>838.0</ele><time>2026-05-02T13:35:19.285Z</time></trkpt><trkpt lat="42.08027" lon="13.5652317"><ele>838.0</ele><time>2026-05-02T13:35:20.285Z</time></trkpt><trkpt lat="42.0802233" lon="13.5651"><ele>835.5999999999999</ele><time>2026-05-02T13:35:21.285Z</time></trkpt><trkpt lat="42.0801833" lon="13.5649733"><ele>833.1999999999999</ele><time>2026-05-02T13:35:22.285Z</time></trkpt><trkpt lat="42.0801483" lon="13.5648533"><ele>830.8</ele><time>2026-05-02T13:35:23.286Z</time></trkpt><trkpt lat="42.0801233" lon="13.5647383"><ele>828.4</ele><time>2026-05-02T13:35:24.285Z</time></trkpt><trkpt lat="42.0800983" lon="13.5646233"><ele>826.0</ele><time>2026-05-02T13:35:25.285Z</time></trkpt><trkpt lat="42.0800883" lon="13.56449"><ele>824.0</ele><time>2026-05-02T13:35:26.285Z</time></trkpt><trkpt lat="42.0800817" lon="13.5643483"><ele>822.0</ele><time>2026-05-02T13:35:27.285Z</time></trkpt><trkpt lat="42.0800833" lon="13.5641967"><ele>820.0</ele><time>2026-05-02T13:35:28.286Z</time></trkpt><trkpt lat="42.0800817" lon="13.564045"><ele>818.0</ele><time>2026-05-02T13:35:29.285Z</time></trkpt><trkpt lat="42.0800767" lon="13.5638783"><ele>818.0</ele><time>2026-05-02T13:35:30.285Z</time></trkpt><trkpt lat="42.08006" lon="13.5637117"><ele>818.0</ele><time>2026-05-02T13:35:31.285Z</time></trkpt><trkpt lat="42.0800467" lon="13.56355"><ele>818.0</ele><time>2026-05-02T13:35:32.285Z</time></trkpt><trkpt lat="42.0800367" lon="13.5634133"><ele>818.0</ele><time>2026-05-02T13:35:33.285Z</time></trkpt><trkpt lat="42.0800367" lon="13.5633067"><ele>818.0</ele><time>2026-05-02T13:35:34.285Z</time></trkpt><trkpt lat="42.0800359" lon="13.5632018"><ele>817.8333333333334</ele><time>2026-05-02T13:35:35.285Z</time></trkpt><trkpt lat="42.0800379" lon="13.5630991"><ele>817.6666666666667</ele><time>2026-05-02T13:35:36.285Z</time></trkpt><trkpt lat="42.0800432" lon="13.5630021"><ele>817.5</ele><time>2026-05-02T13:35:37.285Z</time></trkpt><trkpt lat="42.0800516" lon="13.5629156"><ele>817.3333333333333</ele><time>2026-05-02T13:35:38.285Z</time></trkpt><trkpt lat="42.0800724" lon="13.5627713"><ele>817.1666666666666</ele><time>2026-05-02T13:35:40.285Z</time></trkpt><trkpt lat="42.0800794" lon="13.5626281"><ele>817.0</ele><time>2026-05-02T13:35:42.285Z</time></trkpt><trkpt lat="42.08007" lon="13.5625418"><ele>815.4999999999999</ele><time>2026-05-02T13:35:43.286Z</time></trkpt><trkpt lat="42.0800507" lon="13.5624517"><ele>814.0</ele><time>2026-05-02T13:35:44.285Z</time></trkpt><trkpt lat="42.080021" lon="13.5623671"><ele>812.5</ele><time>2026-05-02T13:35:45.286Z</time></trkpt><trkpt lat="42.0799844" lon="13.562289"><ele>811.0</ele><time>2026-05-02T13:35:46.285Z</time></trkpt><trkpt lat="42.0799483" lon="13.562214"><ele>809.4999999999999</ele><time>2026-05-02T13:35:47.285Z</time></trkpt><trkpt lat="42.0799091" lon="13.5620821"><ele>808.0</ele><time>2026-05-02T13:35:49.286Z</time></trkpt><trkpt lat="42.0798892" lon="13.5619479"><ele>806.6666666666666</ele><time>2026-05-02T13:35:51.286Z</time></trkpt><trkpt lat="42.0798912" lon="13.5617729"><ele>805.3333333333333</ele><time>2026-05-02T13:35:53.285Z</time></trkpt><trkpt lat="42.0798931" lon="13.5616679"><ele>804.0</ele><time>2026-05-02T13:35:54.285Z</time></trkpt><trkpt lat="42.0798997" lon="13.561562"><ele>802.6666666666667</ele><time>2026-05-02T13:35:55.285Z</time></trkpt><trkpt lat="42.0799142" lon="13.5614572"><ele>801.3333333333334</ele><time>2026-05-02T13:35:56.285Z</time></trkpt><trkpt lat="42.0799423" lon="13.5613623"><ele>800.0</ele><time>2026-05-02T13:35:57.285Z</time></trkpt><trkpt lat="42.0799802" lon="13.5612848"><ele>800.0000000000001</ele><time>2026-05-02T13:35:58.285Z</time></trkpt><trkpt lat="42.0800254" lon="13.5612059"><ele>800.0</ele><time>2026-05-02T13:35:59.285Z</time></trkpt><trkpt lat="42.0800696" lon="13.5611268"><ele>800.0</ele><time>2026-05-02T13:36:00.285Z</time></trkpt><trkpt lat="42.0801035" lon="13.5610532"><ele>800.0</ele><time>2026-05-02T13:36:01.285Z</time></trkpt><trkpt lat="42.0801389" lon="13.5609216"><ele>800.0000000000001</ele><time>2026-05-02T13:36:03.285Z</time></trkpt><trkpt lat="42.0801463" lon="13.5607842"><ele>800.0</ele><time>2026-05-02T13:36:05.285Z</time></trkpt><trkpt lat="42.0801198" lon="13.5606253"><ele>798.8</ele><time>2026-05-02T13:36:07.285Z</time></trkpt><trkpt lat="42.0800748" lon="13.5604737"><ele>797.6</ele><time>2026-05-02T13:36:09.285Z</time></trkpt><trkpt lat="42.0800249" lon="13.5603433"><ele>796.4000000000001</ele><time>2026-05-02T13:36:11.285Z</time></trkpt><trkpt lat="42.0799793" lon="13.5602204"><ele>795.2</ele><time>2026-05-02T13:36:13.285Z</time></trkpt><trkpt lat="42.0799186" lon="13.5601085"><ele>794.0</ele><time>2026-05-02T13:36:15.285Z</time></trkpt><trkpt lat="42.0798591" lon="13.5599978"><ele>796.0000000000001</ele><time>2026-05-02T13:36:17.285Z</time></trkpt><trkpt lat="42.0797833" lon="13.5598725"><ele>798.0</ele><time>2026-05-02T13:36:19.285Z</time></trkpt><trkpt lat="42.0797432" lon="13.5598026"><ele>800.0</ele><time>2026-05-02T13:36:20.285Z</time></trkpt><trkpt lat="42.0797041" lon="13.5597293"><ele>802.0</ele><time>2026-05-02T13:36:21.285Z</time></trkpt><trkpt lat="42.0796642" lon="13.5596498"><ele>804.0000000000001</ele><time>2026-05-02T13:36:22.285Z</time></trkpt><trkpt lat="42.0796217" lon="13.5595703"><ele>806.0</ele><time>2026-05-02T13:36:23.285Z</time></trkpt><trkpt lat="42.0795813" lon="13.5594994"><ele>801.1999999999999</ele><time>2026-05-02T13:36:24.285Z</time></trkpt><trkpt lat="42.0795414" lon="13.5594312"><ele>796.4</ele><time>2026-05-02T13:36:25.285Z</time></trkpt><trkpt lat="42.0795027" lon="13.5593622"><ele>791.6</ele><time>2026-05-02T13:36:26.285Z</time></trkpt><trkpt lat="42.079432" lon="13.5592278"><ele>786.8</ele><time>2026-05-02T13:36:28.285Z</time></trkpt><trkpt lat="42.0793743" lon="13.5591044"><ele>782.0</ele><time>2026-05-02T13:36:30.285Z</time></trkpt><trkpt lat="42.0793199" lon="13.5589859"><ele>782.0</ele><time>2026-05-02T13:36:32.285Z</time></trkpt><trkpt lat="42.0792606" lon="13.5588664"><ele>782.0</ele><time>2026-05-02T13:36:34.285Z</time></trkpt><trkpt lat="42.0791936" lon="13.5587494"><ele>782.0</ele><time>2026-05-02T13:36:36.285Z</time></trkpt><trkpt lat="42.079109" lon="13.5586181"><ele>782.0</ele><time>2026-05-02T13:36:38.285Z</time></trkpt><trkpt lat="42.0790601" lon="13.5585457"><ele>782.0</ele><time>2026-05-02T13:36:39.285Z</time></trkpt><trkpt lat="42.079011" lon="13.5584709"><ele>782.4000000000001</ele><time>2026-05-02T13:36:40.286Z</time></trkpt><trkpt lat="42.078965" lon="13.55839"><ele>782.8000000000001</ele><time>2026-05-02T13:36:41.285Z</time></trkpt><trkpt lat="42.0789277" lon="13.5583099"><ele>783.2</ele><time>2026-05-02T13:36:42.285Z</time></trkpt><trkpt lat="42.0788921" lon="13.558234"><ele>783.6</ele><time>2026-05-02T13:36:43.285Z</time></trkpt><trkpt lat="42.0788327" lon="13.558084"><ele>784.0</ele><time>2026-05-02T13:36:45.285Z</time></trkpt><trkpt lat="42.0787723" lon="13.5579439"><ele>780.6666666666666</ele><time>2026-05-02T13:36:47.285Z</time></trkpt><trkpt lat="42.0787069" lon="13.5578111"><ele>777.3333333333333</ele><time>2026-05-02T13:36:49.285Z</time></trkpt><trkpt lat="42.0786659" lon="13.557733"><ele>774.0</ele><time>2026-05-02T13:36:50.285Z</time></trkpt><trkpt lat="42.0786219" lon="13.5576404"><ele>770.6666666666666</ele><time>2026-05-02T13:36:51.285Z</time></trkpt><trkpt lat="42.0785789" lon="13.5575429"><ele>767.3333333333333</ele><time>2026-05-02T13:36:52.285Z</time></trkpt><trkpt lat="42.0785391" lon="13.5574398"><ele>764.0</ele><time>2026-05-02T13:36:53.285Z</time></trkpt><trkpt lat="42.0785019" lon="13.5573371"><ele>764.0</ele><time>2026-05-02T13:36:54.285Z</time></trkpt><trkpt lat="42.0784645" lon="13.5572419"><ele>764.0</ele><time>2026-05-02T13:36:55.285Z</time></trkpt><trkpt lat="42.078428" lon="13.5571566"><ele>764.0</ele><time>2026-05-02T13:36:56.286Z</time></trkpt><trkpt lat="42.0783607" lon="13.5570086"><ele>764.0</ele><time>2026-05-02T13:36:58.285Z</time></trkpt><trkpt lat="42.0783241" lon="13.5569256"><ele>764.0</ele><time>2026-05-02T13:36:59.285Z</time></trkpt><trkpt lat="42.0782841" lon="13.5568344"><ele>764.0</ele><time>2026-05-02T13:37:00.285Z</time></trkpt><trkpt lat="42.0782495" lon="13.5567429"><ele>765.5</ele><time>2026-05-02T13:37:01.285Z</time></trkpt><trkpt lat="42.0782268" lon="13.5566504"><ele>767.0</ele><time>2026-05-02T13:37:02.285Z</time></trkpt><trkpt lat="42.0782129" lon="13.55655"><ele>768.5</ele><time>2026-05-02T13:37:03.285Z</time></trkpt><trkpt lat="42.0782015" lon="13.5564273"><ele>770.0</ele><time>2026-05-02T13:37:04.285Z</time></trkpt><trkpt lat="42.0781859" lon="13.5562936"><ele>771.5000000000001</ele><time>2026-05-02T13:37:05.285Z</time></trkpt><trkpt lat="42.0781638" lon="13.5561669"><ele>773.0</ele><time>2026-05-02T13:37:06.285Z</time></trkpt><trkpt lat="42.0781499" lon="13.5560619"><ele>773.0000000000001</ele><time>2026-05-02T13:37:07.285Z</time></trkpt><trkpt lat="42.0781154" lon="13.5559506"><ele>773.0</ele><time>2026-05-02T13:37:08.285Z</time></trkpt><trkpt lat="42.0780711" lon="13.5558391"><ele>773.0</ele><time>2026-05-02T13:37:09.285Z</time></trkpt><trkpt lat="42.0780192" lon="13.5557472"><ele>773.0</ele><time>2026-05-02T13:37:10.285Z</time></trkpt><trkpt lat="42.0779732" lon="13.555666"><ele>773.0000000000001</ele><time>2026-05-02T13:37:11.285Z</time></trkpt><trkpt lat="42.0779303" lon="13.5555853"><ele>773.0</ele><time>2026-05-02T13:37:12.286Z</time></trkpt><trkpt lat="42.0778875" lon="13.5554977"><ele>773.0000000000001</ele><time>2026-05-02T13:37:13.285Z</time></trkpt><trkpt lat="42.0778611" lon="13.5554156"><ele>773.0</ele><time>2026-05-02T13:37:14.285Z</time></trkpt><trkpt lat="42.0778439" lon="13.555333"><ele>773.0</ele><time>2026-05-02T13:37:15.285Z</time></trkpt><trkpt lat="42.0778567" lon="13.5551683"><ele>773.0</ele><time>2026-05-02T13:37:17.285Z</time></trkpt><trkpt lat="42.0778633" lon="13.555005"><ele>773.0000000000001</ele><time>2026-05-02T13:37:19.285Z</time></trkpt><trkpt lat="42.0778583" lon="13.5549167"><ele>773.0</ele><time>2026-05-02T13:37:20.285Z</time></trkpt><trkpt lat="42.0778333" lon="13.5548217"><ele>770.0</ele><time>2026-05-02T13:37:21.285Z</time></trkpt><trkpt lat="42.07779" lon="13.55472"><ele>767.0</ele><time>2026-05-02T13:37:22.286Z</time></trkpt><trkpt lat="42.07773" lon="13.5546117"><ele>764.0</ele><time>2026-05-02T13:37:23.285Z</time></trkpt><trkpt lat="42.0776567" lon="13.5545133"><ele>761.0</ele><time>2026-05-02T13:37:24.285Z</time></trkpt><trkpt lat="42.0775767" lon="13.5544233"><ele>758.0</ele><time>2026-05-02T13:37:25.285Z</time></trkpt><trkpt lat="42.0774867" lon="13.5543417"><ele>758.6666666666666</ele><time>2026-05-02T13:37:26.285Z</time></trkpt><trkpt lat="42.0774" lon="13.554265"><ele>759.3333333333333</ele><time>2026-05-02T13:37:27.285Z</time></trkpt><trkpt lat="42.0773283" lon="13.5541967"><ele>760.0</ele><time>2026-05-02T13:37:28.285Z</time></trkpt><trkpt lat="42.077275" lon="13.5541283"><ele>760.6666666666666</ele><time>2026-05-02T13:37:29.285Z</time></trkpt><trkpt lat="42.0772283" lon="13.5540567"><ele>761.3333333333334</ele><time>2026-05-02T13:37:30.286Z</time></trkpt><trkpt lat="42.0771883" lon="13.5539733"><ele>762.0</ele><time>2026-05-02T13:37:31.285Z</time></trkpt><trkpt lat="42.07716" lon="13.5538867"><ele>762.0</ele><time>2026-05-02T13:37:32.285Z</time></trkpt><trkpt lat="42.0771417" lon="13.553805"><ele>762.0</ele><time>2026-05-02T13:37:33.285Z</time></trkpt><trkpt lat="42.0771117" lon="13.5536583"><ele>762.0</ele><time>2026-05-02T13:37:35.286Z</time></trkpt><trkpt lat="42.0770583" lon="13.5535433"><ele>762.0</ele><time>2026-05-02T13:37:37.285Z</time></trkpt><trkpt lat="42.0770133" lon="13.55346"><ele>762.0</ele><time>2026-05-02T13:37:40.285Z</time></trkpt><trkpt lat="42.0771153" lon="13.5533742"><ele>759.0</ele><time>2026-05-02T13:37:44.285Z</time></trkpt><trkpt lat="42.0772215" lon="13.5533448"><ele>756.0</ele><time>2026-05-02T13:37:45.285Z</time></trkpt><trkpt lat="42.0773206" lon="13.553311"><ele>753.0</ele><time>2026-05-02T13:37:46.285Z</time></trkpt><trkpt lat="42.0774057" lon="13.5532687"><ele>750.0</ele><time>2026-05-02T13:37:47.285Z</time></trkpt><trkpt lat="42.077482" lon="13.5532043"><ele>747.0</ele><time>2026-05-02T13:37:48.285Z</time></trkpt><trkpt lat="42.0775408" lon="13.5531137"><ele>747.0</ele><time>2026-05-02T13:37:49.286Z</time></trkpt><trkpt lat="42.0775872" lon="13.5530024"><ele>747.0</ele><time>2026-05-02T13:37:50.285Z</time></trkpt><trkpt lat="42.077604" lon="13.5528721"><ele>747.0</ele><time>2026-05-02T13:37:51.285Z</time></trkpt><trkpt lat="42.0775876" lon="13.5527302"><ele>747.0</ele><time>2026-05-02T13:37:52.286Z</time></trkpt><trkpt lat="42.0775522" lon="13.5525902"><ele>747.0</ele><time>2026-05-02T13:37:53.285Z</time></trkpt><trkpt lat="42.0775139" lon="13.5524557"><ele>747.0</ele><time>2026-05-02T13:37:54.285Z</time></trkpt><trkpt lat="42.0774836" lon="13.5523262"><ele>747.0</ele><time>2026-05-02T13:37:55.285Z</time></trkpt><trkpt lat="42.0774526" lon="13.5522055"><ele>747.0</ele><time>2026-05-02T13:37:56.285Z</time></trkpt><trkpt lat="42.0774169" lon="13.5520773"><ele>747.0</ele><time>2026-05-02T13:37:57.286Z</time></trkpt><trkpt lat="42.0773774" lon="13.5519439"><ele>747.0</ele><time>2026-05-02T13:37:58.285Z</time></trkpt><trkpt lat="42.0773325" lon="13.5518103"><ele>747.0</ele><time>2026-05-02T13:37:59.285Z</time></trkpt><trkpt lat="42.0772845" lon="13.5516868"><ele>747.0</ele><time>2026-05-02T13:38:00.285Z</time></trkpt><trkpt lat="42.0772284" lon="13.5515651"><ele>747.0</ele><time>2026-05-02T13:38:01.285Z</time></trkpt><trkpt lat="42.0771612" lon="13.551442"><ele>747.0</ele><time>2026-05-02T13:38:02.285Z</time></trkpt><trkpt lat="42.0770801" lon="13.5513229"><ele>747.0</ele><time>2026-05-02T13:38:03.285Z</time></trkpt><trkpt lat="42.0769923" lon="13.5512245"><ele>745.8</ele><time>2026-05-02T13:38:04.285Z</time></trkpt><trkpt lat="42.0768947" lon="13.5511362"><ele>744.6</ele><time>2026-05-02T13:38:05.285Z</time></trkpt><trkpt lat="42.0767916" lon="13.5510607"><ele>743.4</ele><time>2026-05-02T13:38:06.285Z</time></trkpt><trkpt lat="42.0767009" lon="13.5509829"><ele>742.1999999999999</ele><time>2026-05-02T13:38:07.285Z</time></trkpt><trkpt lat="42.076627" lon="13.550897"><ele>741.0</ele><time>2026-05-02T13:38:08.285Z</time></trkpt><trkpt lat="42.0765729" lon="13.550807"><ele>741.0</ele><time>2026-05-02T13:38:09.285Z</time></trkpt><trkpt lat="42.0765448" lon="13.5507029"><ele>741.0</ele><time>2026-05-02T13:38:10.285Z</time></trkpt><trkpt lat="42.0765382" lon="13.5506011"><ele>741.0</ele><time>2026-05-02T13:38:11.285Z</time></trkpt><trkpt lat="42.0765657" lon="13.5505107"><ele>741.0</ele><time>2026-05-02T13:38:12.285Z</time></trkpt><trkpt lat="42.0766167" lon="13.5504295"><ele>741.0</ele><time>2026-05-02T13:38:13.285Z</time></trkpt><trkpt lat="42.0766867" lon="13.5503685"><ele>741.0</ele><time>2026-05-02T13:38:14.285Z</time></trkpt><trkpt lat="42.0767602" lon="13.5503299"><ele>742.5</ele><time>2026-05-02T13:38:15.285Z</time></trkpt><trkpt lat="42.076822" lon="13.5503119"><ele>744.0</ele><time>2026-05-02T13:38:16.285Z</time></trkpt><trkpt lat="42.0769103" lon="13.5503186"><ele>745.5</ele><time>2026-05-02T13:38:18.285Z</time></trkpt><trkpt lat="42.0769774" lon="13.5502753"><ele>747.0</ele><time>2026-05-02T13:38:27.285Z</time></trkpt><trkpt lat="42.0769039" lon="13.5502695"><ele>748.5</ele><time>2026-05-02T13:38:30.285Z</time></trkpt><trkpt lat="42.0768169" lon="13.5503032"><ele>750.0</ele><time>2026-05-02T13:38:31.285Z</time></trkpt><trkpt lat="42.076717" lon="13.5503583"><ele>750.8333333333334</ele><time>2026-05-02T13:38:32.285Z</time></trkpt><trkpt lat="42.0766327" lon="13.5504208"><ele>751.6666666666666</ele><time>2026-05-02T13:38:33.285Z</time></trkpt><trkpt lat="42.0765703" lon="13.550481"><ele>752.5</ele><time>2026-05-02T13:38:34.285Z</time></trkpt><trkpt lat="42.0765188" lon="13.5506041"><ele>753.3333333333333</ele><time>2026-05-02T13:38:36.285Z</time></trkpt><trkpt lat="42.0765705" lon="13.5506867"><ele>754.1666666666666</ele><time>2026-05-02T13:38:38.286Z</time></trkpt><trkpt lat="42.076632" lon="13.550706"><ele>755.0</ele><time>2026-05-02T13:38:39.286Z</time></trkpt><trkpt lat="42.0767011" lon="13.5507136"><ele>755.0</ele><time>2026-05-02T13:38:40.285Z</time></trkpt><trkpt lat="42.076782" lon="13.5507075"><ele>755.0</ele><time>2026-05-02T13:38:41.286Z</time></trkpt><trkpt lat="42.0768833" lon="13.5506667"><ele>755.0</ele><time>2026-05-02T13:38:42.285Z</time></trkpt><trkpt lat="42.0769817" lon="13.5506167"><ele>755.0</ele><time>2026-05-02T13:38:43.285Z</time></trkpt><trkpt lat="42.0770883" lon="13.5505617"><ele>755.0</ele><time>2026-05-02T13:38:44.285Z</time></trkpt><trkpt lat="42.0772183" lon="13.5505067"><ele>755.0</ele><time>2026-05-02T13:38:45.285Z</time></trkpt><trkpt lat="42.0773717" lon="13.550445"><ele>755.0</ele><time>2026-05-02T13:38:46.285Z</time></trkpt><trkpt lat="42.0775183" lon="13.5503867"><ele>755.0</ele><time>2026-05-02T13:38:47.285Z</time></trkpt><trkpt lat="42.0776467" lon="13.550325"><ele>755.0</ele><time>2026-05-02T13:38:48.285Z</time></trkpt><trkpt lat="42.0777667" lon="13.550265"><ele>757.0</ele><time>2026-05-02T13:38:49.285Z</time></trkpt><trkpt lat="42.07789" lon="13.5502183"><ele>759.0</ele><time>2026-05-02T13:38:50.285Z</time></trkpt><trkpt lat="42.0780017" lon="13.550165"><ele>761.0</ele><time>2026-05-02T13:38:51.285Z</time></trkpt><trkpt lat="42.0781167" lon="13.55011"><ele>763.0</ele><time>2026-05-02T13:38:52.286Z</time></trkpt><trkpt lat="42.078235" lon="13.5500733"><ele>766.5</ele><time>2026-05-02T13:38:53.285Z</time></trkpt><trkpt lat="42.078355" lon="13.55003"><ele>770.0</ele><time>2026-05-02T13:38:54.285Z</time></trkpt><trkpt lat="42.0784733" lon="13.5499867"><ele>773.5</ele><time>2026-05-02T13:38:55.285Z</time></trkpt><trkpt lat="42.0785817" lon="13.549945"><ele>777.0</ele><time>2026-05-02T13:38:56.285Z</time></trkpt><trkpt lat="42.0786983" lon="13.5498917"><ele>777.0</ele><time>2026-05-02T13:38:57.285Z</time></trkpt><trkpt lat="42.07881" lon="13.5498433"><ele>777.0</ele><time>2026-05-02T13:38:58.286Z</time></trkpt><trkpt lat="42.078925" lon="13.5497967"><ele>777.0</ele><time>2026-05-02T13:38:59.285Z</time></trkpt><trkpt lat="42.0790417" lon="13.549745"><ele>777.0</ele><time>2026-05-02T13:39:00.285Z</time></trkpt><trkpt lat="42.0791533" lon="13.5496917"><ele>777.6</ele><time>2026-05-02T13:39:01.285Z</time></trkpt><trkpt lat="42.0792517" lon="13.549635"><ele>778.2</ele><time>2026-05-02T13:39:02.286Z</time></trkpt><trkpt lat="42.07934" lon="13.549585"><ele>778.8</ele><time>2026-05-02T13:39:03.285Z</time></trkpt><trkpt lat="42.07941" lon="13.549545"><ele>779.4</ele><time>2026-05-02T13:39:04.285Z</time></trkpt><trkpt lat="42.0795117" lon="13.5495067"><ele>780.0</ele><time>2026-05-02T13:39:06.285Z</time></trkpt><trkpt lat="42.0796083" lon="13.5494817"><ele>780.0</ele><time>2026-05-02T13:39:15.285Z</time></trkpt><trkpt lat="42.0796783" lon="13.5494367"><ele>780.0</ele><time>2026-05-02T13:39:16.285Z</time></trkpt><trkpt lat="42.07976" lon="13.549375"><ele>780.0</ele><time>2026-05-02T13:39:17.286Z</time></trkpt><trkpt lat="42.0798467" lon="13.5492883"><ele>780.0</ele><time>2026-05-02T13:39:18.285Z</time></trkpt><trkpt lat="42.07994" lon="13.5491917"><ele>780.0</ele><time>2026-05-02T13:39:19.285Z</time></trkpt><trkpt lat="42.08003" lon="13.5490917"><ele>779.8</ele><time>2026-05-02T13:39:20.285Z</time></trkpt><trkpt lat="42.0801133" lon="13.5489967"><ele>779.6</ele><time>2026-05-02T13:39:21.285Z</time></trkpt><trkpt lat="42.0802033" lon="13.5489083"><ele>779.4000000000001</ele><time>2026-05-02T13:39:22.286Z</time></trkpt><trkpt lat="42.0802867" lon="13.5488183"><ele>779.2</ele><time>2026-05-02T13:39:23.285Z</time></trkpt><trkpt lat="42.0803717" lon="13.5487383"><ele>779.0</ele><time>2026-05-02T13:39:24.285Z</time></trkpt><trkpt lat="42.0804567" lon="13.54866"><ele>779.0</ele><time>2026-05-02T13:39:25.285Z</time></trkpt><trkpt lat="42.0805317" lon="13.548585"><ele>779.0</ele><time>2026-05-02T13:39:26.285Z</time></trkpt><trkpt lat="42.0806117" lon="13.548505"><ele>779.0</ele><time>2026-05-02T13:39:27.285Z</time></trkpt><trkpt lat="42.0806833" lon="13.5484183"><ele>779.0</ele><time>2026-05-02T13:39:28.285Z</time></trkpt><trkpt lat="42.0807567" lon="13.548345"><ele>779.0</ele><time>2026-05-02T13:39:29.285Z</time></trkpt><trkpt lat="42.0808267" lon="13.5482667"><ele>780.2</ele><time>2026-05-02T13:39:30.285Z</time></trkpt><trkpt lat="42.0809" lon="13.5481867"><ele>781.4000000000001</ele><time>2026-05-02T13:39:31.285Z</time></trkpt><trkpt lat="42.0809717" lon="13.5481067"><ele>782.6</ele><time>2026-05-02T13:39:32.286Z</time></trkpt><trkpt lat="42.0810517" lon="13.54802"><ele>783.8</ele><time>2026-05-02T13:39:33.285Z</time></trkpt><trkpt lat="42.081135" lon="13.5479333"><ele>785.0</ele><time>2026-05-02T13:39:34.285Z</time></trkpt><trkpt lat="42.08122" lon="13.5478517"><ele>782.6</ele><time>2026-05-02T13:39:35.285Z</time></trkpt><trkpt lat="42.0813" lon="13.547775"><ele>780.2</ele><time>2026-05-02T13:39:36.285Z</time></trkpt><trkpt lat="42.0813717" lon="13.5477017"><ele>777.8</ele><time>2026-05-02T13:39:37.285Z</time></trkpt><trkpt lat="42.0814467" lon="13.5476283"><ele>775.4</ele><time>2026-05-02T13:39:38.285Z</time></trkpt><trkpt lat="42.0815267" lon="13.54756"><ele>773.0</ele><time>2026-05-02T13:39:39.285Z</time></trkpt><trkpt lat="42.081605" lon="13.547505"><ele>773.0000000000001</ele><time>2026-05-02T13:39:40.285Z</time></trkpt><trkpt lat="42.0816783" lon="13.54745"><ele>773.0</ele><time>2026-05-02T13:39:41.285Z</time></trkpt><trkpt lat="42.0817583" lon="13.5474067"><ele>773.0</ele><time>2026-05-02T13:39:42.285Z</time></trkpt><trkpt lat="42.0818367" lon="13.5473733"><ele>773.0</ele><time>2026-05-02T13:39:43.285Z</time></trkpt><trkpt lat="42.081915" lon="13.5473317"><ele>773.0000000000001</ele><time>2026-05-02T13:39:44.285Z</time></trkpt><trkpt lat="42.0819983" lon="13.5472917"><ele>773.0</ele><time>2026-05-02T13:39:45.285Z</time></trkpt><trkpt lat="42.0820733" lon="13.5472467"><ele>773.0</ele><time>2026-05-02T13:39:46.285Z</time></trkpt><trkpt lat="42.082155" lon="13.5471917"><ele>773.0</ele><time>2026-05-02T13:39:47.285Z</time></trkpt><trkpt lat="42.0822217" lon="13.5471083"><ele>773.0</ele><time>2026-05-02T13:39:48.285Z</time></trkpt><trkpt lat="42.0822817" lon="13.54701"><ele>773.0</ele><time>2026-05-02T13:39:49.286Z</time></trkpt><trkpt lat="42.0823333" lon="13.5468983"><ele>773.0</ele><time>2026-05-02T13:39:50.285Z</time></trkpt><trkpt lat="42.08238" lon="13.5467817"><ele>773.5999999999999</ele><time>2026-05-02T13:39:51.285Z</time></trkpt><trkpt lat="42.0824167" lon="13.546645"><ele>774.1999999999999</ele><time>2026-05-02T13:39:52.285Z</time></trkpt><trkpt lat="42.0824567" lon="13.546515"><ele>774.8</ele><time>2026-05-02T13:39:53.285Z</time></trkpt><trkpt lat="42.0824867" lon="13.5463783"><ele>775.4</ele><time>2026-05-02T13:39:54.285Z</time></trkpt><trkpt lat="42.0825133" lon="13.5462383"><ele>776.0</ele><time>2026-05-02T13:39:55.285Z</time></trkpt><trkpt lat="42.08253" lon="13.5461017"><ele>774.8</ele><time>2026-05-02T13:39:56.285Z</time></trkpt><trkpt lat="42.0825417" lon="13.5459683"><ele>773.5999999999999</ele><time>2026-05-02T13:39:57.285Z</time></trkpt><trkpt lat="42.0825533" lon="13.545835"><ele>772.4</ele><time>2026-05-02T13:39:58.285Z</time></trkpt><trkpt lat="42.0825633" lon="13.5456833"><ele>771.2</ele><time>2026-05-02T13:39:59.285Z</time></trkpt><trkpt lat="42.0825667" lon="13.5455283"><ele>770.0</ele><time>2026-05-02T13:40:00.285Z</time></trkpt><trkpt lat="42.08255" lon="13.545365"><ele>769.5</ele><time>2026-05-02T13:40:01.286Z</time></trkpt><trkpt lat="42.0825283" lon="13.5452083"><ele>769.0</ele><time>2026-05-02T13:40:02.285Z</time></trkpt><trkpt lat="42.0825083" lon="13.5450533"><ele>768.5</ele><time>2026-05-02T13:40:03.286Z</time></trkpt><trkpt lat="42.0824717" lon="13.5448917"><ele>768.0</ele><time>2026-05-02T13:40:04.285Z</time></trkpt><trkpt lat="42.0824367" lon="13.544735"><ele>764.75</ele><time>2026-05-02T13:40:05.285Z</time></trkpt><trkpt lat="42.082415" lon="13.5445733"><ele>761.5</ele><time>2026-05-02T13:40:06.285Z</time></trkpt><trkpt lat="42.0823983" lon="13.5444217"><ele>758.25</ele><time>2026-05-02T13:40:07.285Z</time></trkpt><trkpt lat="42.0823933" lon="13.544265"><ele>755.0</ele><time>2026-05-02T13:40:08.285Z</time></trkpt><trkpt lat="42.0823933" lon="13.544115"><ele>754.8333333333333</ele><time>2026-05-02T13:40:09.285Z</time></trkpt><trkpt lat="42.0823983" lon="13.5439767"><ele>754.6666666666666</ele><time>2026-05-02T13:40:10.285Z</time></trkpt><trkpt lat="42.082405" lon="13.5438517"><ele>754.5</ele><time>2026-05-02T13:40:11.285Z</time></trkpt><trkpt lat="42.0823933" lon="13.5437367"><ele>754.3333333333334</ele><time>2026-05-02T13:40:12.285Z</time></trkpt><trkpt lat="42.082375" lon="13.5436317"><ele>754.1666666666667</ele><time>2026-05-02T13:40:13.285Z</time></trkpt><trkpt lat="42.082345" lon="13.5435533"><ele>754.0</ele><time>2026-05-02T13:40:14.285Z</time></trkpt><trkpt lat="42.0822883" lon="13.5435033"><ele>753.25</ele><time>2026-05-02T13:40:15.285Z</time></trkpt><trkpt lat="42.0822033" lon="13.54349"><ele>752.5</ele><time>2026-05-02T13:40:16.285Z</time></trkpt><trkpt lat="42.0820833" lon="13.5434833"><ele>751.75</ele><time>2026-05-02T13:40:17.286Z</time></trkpt><trkpt lat="42.0819333" lon="13.54349"><ele>751.0</ele><time>2026-05-02T13:40:18.286Z</time></trkpt><trkpt lat="42.0817917" lon="13.5435067"><ele>751.0</ele><time>2026-05-02T13:40:19.285Z</time></trkpt><trkpt lat="42.0816633" lon="13.543505"><ele>751.0</ele><time>2026-05-02T13:40:20.285Z</time></trkpt><trkpt lat="42.0815383" lon="13.543505"><ele>751.0</ele><time>2026-05-02T13:40:21.285Z</time></trkpt><trkpt lat="42.0814233" lon="13.5434883"><ele>751.0</ele><time>2026-05-02T13:40:22.285Z</time></trkpt><trkpt lat="42.0813217" lon="13.5434683"><ele>750.1999999999999</ele><time>2026-05-02T13:40:23.285Z</time></trkpt><trkpt lat="42.081225" lon="13.5434783"><ele>749.4</ele><time>2026-05-02T13:40:24.285Z</time></trkpt><trkpt lat="42.0811317" lon="13.5434817"><ele>748.6</ele><time>2026-05-02T13:40:25.285Z</time></trkpt><trkpt lat="42.0810233" lon="13.5435017"><ele>747.8</ele><time>2026-05-02T13:40:26.285Z</time></trkpt><trkpt lat="42.0809117" lon="13.5435083"><ele>747.0</ele><time>2026-05-02T13:40:27.285Z</time></trkpt><trkpt lat="42.0807933" lon="13.54351"><ele>746.4000000000001</ele><time>2026-05-02T13:40:28.285Z</time></trkpt><trkpt lat="42.080675" lon="13.5435133"><ele>745.8000000000001</ele><time>2026-05-02T13:40:29.285Z</time></trkpt><trkpt lat="42.0805667" lon="13.5435117"><ele>745.2</ele><time>2026-05-02T13:40:30.285Z</time></trkpt><trkpt lat="42.0804633" lon="13.543505"><ele>744.6</ele><time>2026-05-02T13:40:31.286Z</time></trkpt><trkpt lat="42.080365" lon="13.5434917"><ele>744.0</ele><time>2026-05-02T13:40:32.285Z</time></trkpt><trkpt lat="42.0802817" lon="13.5434867"><ele>744.0</ele><time>2026-05-02T13:40:33.285Z</time></trkpt><trkpt lat="42.080205" lon="13.54348"><ele>744.0</ele><time>2026-05-02T13:40:34.286Z</time></trkpt><trkpt lat="42.0801183" lon="13.5434817"><ele>744.0</ele><time>2026-05-02T13:40:35.285Z</time></trkpt><trkpt lat="42.08003" lon="13.5434833"><ele>744.0</ele><time>2026-05-02T13:40:36.286Z</time></trkpt><trkpt lat="42.0799517" lon="13.5434833"><ele>744.0</ele><time>2026-05-02T13:40:37.285Z</time></trkpt><trkpt lat="42.07988" lon="13.5434817"><ele>744.0</ele><time>2026-05-02T13:40:38.285Z</time></trkpt><trkpt lat="42.0797783" lon="13.5434333"><ele>743.5</ele><time>2026-05-02T13:40:40.286Z</time></trkpt><trkpt lat="42.07973" lon="13.5433117"><ele>743.0</ele><time>2026-05-02T13:40:42.285Z</time></trkpt><trkpt lat="42.0797033" lon="13.5432183"><ele>742.5</ele><time>2026-05-02T13:40:43.285Z</time></trkpt><trkpt lat="42.0796717" lon="13.543115"><ele>742.0</ele><time>2026-05-02T13:40:44.285Z</time></trkpt><trkpt lat="42.0796283" lon="13.5430083"><ele>741.5</ele><time>2026-05-02T13:40:45.285Z</time></trkpt><trkpt lat="42.0795767" lon="13.5429283"><ele>741.0</ele><time>2026-05-02T13:40:46.285Z</time></trkpt><trkpt lat="42.0795017" lon="13.54286"><ele>741.0</ele><time>2026-05-02T13:40:47.286Z</time></trkpt><trkpt lat="42.0794233" lon="13.5428233"><ele>741.0</ele><time>2026-05-02T13:40:48.285Z</time></trkpt><trkpt lat="42.0793217" lon="13.5428083"><ele>741.0</ele><time>2026-05-02T13:40:49.285Z</time></trkpt><trkpt lat="42.0792117" lon="13.5427867"><ele>741.0</ele><time>2026-05-02T13:40:50.285Z</time></trkpt><trkpt lat="42.0791017" lon="13.542765"><ele>741.0</ele><time>2026-05-02T13:40:51.285Z</time></trkpt><trkpt lat="42.0790117" lon="13.5427233"><ele>740.4</ele><time>2026-05-02T13:40:52.285Z</time></trkpt><trkpt lat="42.0789317" lon="13.5426683"><ele>739.8</ele><time>2026-05-02T13:40:53.285Z</time></trkpt><trkpt lat="42.0788667" lon="13.5425883"><ele>739.1999999999999</ele><time>2026-05-02T13:40:54.285Z</time></trkpt><trkpt lat="42.0788033" lon="13.5424967"><ele>738.5999999999999</ele><time>2026-05-02T13:40:55.285Z</time></trkpt><trkpt lat="42.0787317" lon="13.5424033"><ele>738.0</ele><time>2026-05-02T13:40:56.285Z</time></trkpt><trkpt lat="42.07866" lon="13.542305"><ele>738.0</ele><time>2026-05-02T13:40:57.286Z</time></trkpt><trkpt lat="42.0785933" lon="13.5422033"><ele>738.0</ele><time>2026-05-02T13:40:58.286Z</time></trkpt><trkpt lat="42.078525" lon="13.5421183"><ele>738.0</ele><time>2026-05-02T13:40:59.286Z</time></trkpt><trkpt lat="42.0784683" lon="13.5420433"><ele>738.0</ele><time>2026-05-02T13:41:00.285Z</time></trkpt><trkpt lat="42.078415" lon="13.5419817"><ele>738.0</ele><time>2026-05-02T13:41:01.285Z</time></trkpt><trkpt lat="42.0783483" lon="13.541855"><ele>738.4</ele><time>2026-05-02T13:41:03.285Z</time></trkpt><trkpt lat="42.0783483" lon="13.5417083"><ele>738.8</ele><time>2026-05-02T13:41:05.285Z</time></trkpt><trkpt lat="42.0784117" lon="13.5415833"><ele>739.2</ele><time>2026-05-02T13:41:07.285Z</time></trkpt><trkpt lat="42.0784383" lon="13.541445"><ele>739.6</ele><time>2026-05-02T13:41:09.285Z</time></trkpt><trkpt lat="42.0783733" lon="13.5413283"><ele>740.0</ele><time>2026-05-02T13:41:11.285Z</time></trkpt><trkpt lat="42.0783417" lon="13.5412283"><ele>740.3333333333333</ele><time>2026-05-02T13:41:13.285Z</time></trkpt><trkpt lat="42.0783883" lon="13.5411233"><ele>740.6666666666666</ele><time>2026-05-02T13:41:15.285Z</time></trkpt><trkpt lat="42.0784133" lon="13.5410367"><ele>741.0</ele><time>2026-05-02T13:41:17.286Z</time></trkpt><trkpt lat="42.0783667" lon="13.5409167"><ele>741.3333333333334</ele><time>2026-05-02T13:41:19.285Z</time></trkpt><trkpt lat="42.0783167" lon="13.54084"><ele>741.6666666666667</ele><time>2026-05-02T13:41:20.285Z</time></trkpt><trkpt lat="42.0782533" lon="13.5407517"><ele>742.0</ele><time>2026-05-02T13:41:21.285Z</time></trkpt><trkpt lat="42.0781883" lon="13.5406617"><ele>740.2</ele><time>2026-05-02T13:41:22.285Z</time></trkpt><trkpt lat="42.0781333" lon="13.5405617"><ele>738.4000000000001</ele><time>2026-05-02T13:41:23.285Z</time></trkpt><trkpt lat="42.0780833" lon="13.5404717"><ele>736.5999999999999</ele><time>2026-05-02T13:41:24.285Z</time></trkpt><trkpt lat="42.0780417" lon="13.5403917"><ele>734.8</ele><time>2026-05-02T13:41:25.285Z</time></trkpt><trkpt lat="42.077985" lon="13.5402683"><ele>733.0</ele><time>2026-05-02T13:41:27.285Z</time></trkpt><trkpt lat="42.0780197" lon="13.540151"><ele>733.0</ele><time>2026-05-02T13:41:29.285Z</time></trkpt><trkpt lat="42.0781199" lon="13.5400405"><ele>733.0</ele><time>2026-05-02T13:41:31.285Z</time></trkpt><trkpt lat="42.0781804" lon="13.5399889"><ele>733.0</ele><time>2026-05-02T13:41:32.285Z</time></trkpt><trkpt lat="42.0782749" lon="13.5399235"><ele>733.0</ele><time>2026-05-02T13:41:34.285Z</time></trkpt><trkpt lat="42.0783354" lon="13.5399528"><ele>733.0</ele><time>2026-05-02T13:41:37.285Z</time></trkpt><trkpt lat="42.0783893" lon="13.5400269"><ele>733.0</ele><time>2026-05-02T13:41:40.285Z</time></trkpt><trkpt lat="42.0784933" lon="13.540035"><ele>734.4285714285713</ele><time>2026-05-02T13:41:42.285Z</time></trkpt><trkpt lat="42.0785567" lon="13.5400383"><ele>735.8571428571429</ele><time>2026-05-02T13:41:43.285Z</time></trkpt><trkpt lat="42.0786283" lon="13.54004"><ele>737.2857142857142</ele><time>2026-05-02T13:41:44.285Z</time></trkpt><trkpt lat="42.0787033" lon="13.5400333"><ele>738.7142857142857</ele><time>2026-05-02T13:41:45.285Z</time></trkpt><trkpt lat="42.0787783" lon="13.5400367"><ele>740.1428571428571</ele><time>2026-05-02T13:41:46.285Z</time></trkpt><trkpt lat="42.0788517" lon="13.5400383"><ele>741.5714285714286</ele><time>2026-05-02T13:41:47.285Z</time></trkpt><trkpt lat="42.0789167" lon="13.54004"><ele>743.0</ele><time>2026-05-02T13:41:48.285Z</time></trkpt><trkpt lat="42.0790033" lon="13.5400433"><ele>743.0</ele><time>2026-05-02T13:41:50.285Z</time></trkpt><trkpt lat="42.0790817" lon="13.54005"><ele>743.0</ele><time>2026-05-02T13:41:53.285Z</time></trkpt><trkpt lat="42.0791183" lon="13.5401267"><ele>743.0</ele><time>2026-05-02T13:41:55.285Z</time></trkpt><trkpt lat="42.0791517" lon="13.5402483"><ele>743.0</ele><time>2026-05-02T13:41:57.285Z</time></trkpt><trkpt lat="42.0792067" lon="13.5403733"><ele>743.0</ele><time>2026-05-02T13:41:59.285Z</time></trkpt><trkpt lat="42.0792867" lon="13.540415"><ele>743.0</ele><time>2026-05-02T13:42:01.286Z</time></trkpt><trkpt lat="42.0793917" lon="13.5403733"><ele>743.0</ele><time>2026-05-02T13:42:03.285Z</time></trkpt><trkpt lat="42.07948" lon="13.5403333"><ele>743.0</ele><time>2026-05-02T13:42:05.285Z</time></trkpt><trkpt lat="42.079575" lon="13.54036"><ele>743.0</ele><time>2026-05-02T13:42:12.285Z</time></trkpt><trkpt lat="42.079615" lon="13.54048"><ele>743.0</ele><time>2026-05-02T13:42:14.285Z</time></trkpt><trkpt lat="42.079635" lon="13.54057"><ele>743.0</ele><time>2026-05-02T13:42:15.285Z</time></trkpt><trkpt lat="42.0796583" lon="13.54067"><ele>743.0</ele><time>2026-05-02T13:42:16.285Z</time></trkpt><trkpt lat="42.0797067" lon="13.5407817"><ele>743.0</ele><time>2026-05-02T13:42:17.285Z</time></trkpt><trkpt lat="42.0797667" lon="13.5408867"><ele>743.0</ele><time>2026-05-02T13:42:18.286Z</time></trkpt><trkpt lat="42.0798483" lon="13.54097"><ele>743.0</ele><time>2026-05-02T13:42:19.285Z</time></trkpt><trkpt lat="42.0799467" lon="13.541035"><ele>743.0</ele><time>2026-05-02T13:42:20.285Z</time></trkpt><trkpt lat="42.0800517" lon="13.5410717"><ele>743.0</ele><time>2026-05-02T13:42:21.285Z</time></trkpt><trkpt lat="42.0801533" lon="13.5410817"><ele>743.2</ele><time>2026-05-02T13:42:22.285Z</time></trkpt><trkpt lat="42.080245" lon="13.5410817"><ele>743.4</ele><time>2026-05-02T13:42:23.285Z</time></trkpt><trkpt lat="42.0803417" lon="13.5410717"><ele>743.6</ele><time>2026-05-02T13:42:24.285Z</time></trkpt><trkpt lat="42.0804367" lon="13.541065"><ele>743.8000000000001</ele><time>2026-05-02T13:42:25.285Z</time></trkpt><trkpt lat="42.0805383" lon="13.5410617"><ele>744.0</ele><time>2026-05-02T13:42:26.285Z</time></trkpt><trkpt lat="42.0806517" lon="13.5410533"><ele>744.25</ele><time>2026-05-02T13:42:27.285Z</time></trkpt><trkpt lat="42.0807783" lon="13.5410483"><ele>744.5</ele><time>2026-05-02T13:42:28.284Z</time></trkpt><trkpt lat="42.0809067" lon="13.5410433"><ele>744.75</ele><time>2026-05-02T13:42:29.284Z</time></trkpt><trkpt lat="42.081025" lon="13.541045"><ele>745.0</ele><time>2026-05-02T13:42:30.284Z</time></trkpt><trkpt lat="42.0811617" lon="13.541035"><ele>745.0</ele><time>2026-05-02T13:42:31.285Z</time></trkpt><trkpt lat="42.0812933" lon="13.541045"><ele>745.0</ele><time>2026-05-02T13:42:32.284Z</time></trkpt><trkpt lat="42.0814283" lon="13.5410683"><ele>745.0</ele><time>2026-05-02T13:42:33.284Z</time></trkpt><trkpt lat="42.0815433" lon="13.54111"><ele>745.0</ele><time>2026-05-02T13:42:34.284Z</time></trkpt><trkpt lat="42.0816467" lon="13.54115"><ele>745.1666666666667</ele><time>2026-05-02T13:42:35.284Z</time></trkpt><trkpt lat="42.0817367" lon="13.5411933"><ele>745.3333333333334</ele><time>2026-05-02T13:42:36.284Z</time></trkpt><trkpt lat="42.0818183" lon="13.541245"><ele>745.5</ele><time>2026-05-02T13:42:37.284Z</time></trkpt><trkpt lat="42.0818867" lon="13.5413017"><ele>745.6666666666666</ele><time>2026-05-02T13:42:38.284Z</time></trkpt><trkpt lat="42.08196" lon="13.5413933"><ele>745.8333333333333</ele><time>2026-05-02T13:42:40.284Z</time></trkpt><trkpt lat="42.0820183" lon="13.5414367"><ele>746.0</ele><time>2026-05-02T13:42:42.284Z</time></trkpt><trkpt lat="42.0820933" lon="13.5414633"><ele>746.0</ele><time>2026-05-02T13:42:44.284Z</time></trkpt><trkpt lat="42.0821667" lon="13.541465"><ele>746.0</ele><time>2026-05-02T13:42:47.284Z</time></trkpt><trkpt lat="42.0822433" lon="13.5414733"><ele>746.0</ele><time>2026-05-02T13:42:50.285Z</time></trkpt><trkpt lat="42.0822667" lon="13.541595"><ele>746.0</ele><time>2026-05-02T13:46:20.284Z</time></trkpt><trkpt lat="42.0822" lon="13.54165"><ele>746.0</ele><time>2026-05-02T13:46:24.284Z</time></trkpt><trkpt lat="42.0821267" lon="13.541715"><ele>746.0</ele><time>2026-05-02T13:46:47.284Z</time></trkpt><trkpt lat="42.0821433" lon="13.5418017"><ele>746.0</ele><time>2026-05-02T13:46:49.284Z</time></trkpt><trkpt lat="42.0822317" lon="13.5419483"><ele>746.0</ele><time>2026-05-02T13:46:51.284Z</time></trkpt><trkpt lat="42.0822933" lon="13.5420417"><ele>746.0</ele><time>2026-05-02T13:46:52.285Z</time></trkpt><trkpt lat="42.0823333" lon="13.5421333"><ele>746.0</ele><time>2026-05-02T13:46:53.284Z</time></trkpt><trkpt lat="42.0823833" lon="13.5422533"><ele>746.0</ele><time>2026-05-02T13:46:55.285Z</time></trkpt><trkpt lat="42.0824283" lon="13.5423583"><ele>746.1666666666666</ele><time>2026-05-02T13:46:58.284Z</time></trkpt><trkpt lat="42.08248" lon="13.5424367"><ele>746.3333333333333</ele><time>2026-05-02T13:47:02.285Z</time></trkpt><trkpt lat="42.0825183" lon="13.5425183"><ele>746.5</ele><time>2026-05-02T13:47:05.285Z</time></trkpt><trkpt lat="42.0825167" lon="13.542605"><ele>746.6666666666666</ele><time>2026-05-02T13:47:07.284Z</time></trkpt><trkpt lat="42.08245" lon="13.54271"><ele>746.8333333333334</ele><time>2026-05-02T13:47:09.284Z</time></trkpt><trkpt lat="42.0823683" lon="13.54285"><ele>747.0</ele><time>2026-05-02T13:47:11.284Z</time></trkpt><trkpt lat="42.0823433" lon="13.5429283"><ele>747.6666666666666</ele><time>2026-05-02T13:47:12.284Z</time></trkpt><trkpt lat="42.08232" lon="13.5430267"><ele>748.3333333333334</ele><time>2026-05-02T13:47:13.284Z</time></trkpt><trkpt lat="42.082305" lon="13.5431183"><ele>749.0</ele><time>2026-05-02T13:47:14.284Z</time></trkpt><trkpt lat="42.082305" lon="13.543255"><ele>749.6666666666667</ele><time>2026-05-02T13:47:16.285Z</time></trkpt><trkpt lat="42.0823567" lon="13.543315"><ele>750.3333333333334</ele><time>2026-05-02T13:47:18.284Z</time></trkpt><trkpt lat="42.0824533" lon="13.5432417"><ele>751.0</ele><time>2026-05-02T13:47:21.284Z</time></trkpt><trkpt lat="42.0825033" lon="13.54316"><ele>752.6666666666667</ele><time>2026-05-02T13:47:22.284Z</time></trkpt><trkpt lat="42.0825633" lon="13.5430833"><ele>754.3333333333334</ele><time>2026-05-02T13:47:23.284Z</time></trkpt><trkpt lat="42.0826233" lon="13.5430233"><ele>756.0</ele><time>2026-05-02T13:47:24.284Z</time></trkpt><trkpt lat="42.08268" lon="13.5429817"><ele>757.6666666666666</ele><time>2026-05-02T13:47:25.284Z</time></trkpt><trkpt lat="42.0827883" lon="13.5429667"><ele>759.3333333333333</ele><time>2026-05-02T13:47:27.284Z</time></trkpt><trkpt lat="42.08286" lon="13.5429767"><ele>761.0</ele><time>2026-05-02T13:47:28.284Z</time></trkpt><trkpt lat="42.0829567" lon="13.5429967"><ele>761.0</ele><time>2026-05-02T13:47:29.284Z</time></trkpt><trkpt lat="42.08307" lon="13.5430267"><ele>761.0</ele><time>2026-05-02T13:47:30.285Z</time></trkpt><trkpt lat="42.083205" lon="13.5430533"><ele>761.0</ele><time>2026-05-02T13:47:31.284Z</time></trkpt><trkpt lat="42.083355" lon="13.5430733"><ele>761.0</ele><time>2026-05-02T13:47:32.284Z</time></trkpt><trkpt lat="42.0835033" lon="13.5430817"><ele>765.0</ele><time>2026-05-02T13:47:33.285Z</time></trkpt><trkpt lat="42.0836317" lon="13.5430917"><ele>769.0</ele><time>2026-05-02T13:47:34.284Z</time></trkpt><trkpt lat="42.0837433" lon="13.543085"><ele>773.0</ele><time>2026-05-02T13:47:35.284Z</time></trkpt><trkpt lat="42.0838433" lon="13.543055"><ele>777.0</ele><time>2026-05-02T13:47:36.284Z</time></trkpt><trkpt lat="42.0839583" lon="13.5430183"><ele>777.0</ele><time>2026-05-02T13:47:37.284Z</time></trkpt><trkpt lat="42.0840767" lon="13.5429733"><ele>777.0</ele><time>2026-05-02T13:47:38.284Z</time></trkpt><trkpt lat="42.0841983" lon="13.5429417"><ele>777.0</ele><time>2026-05-02T13:47:39.284Z</time></trkpt><trkpt lat="42.0843217" lon="13.5429233"><ele>777.0</ele><time>2026-05-02T13:47:40.284Z</time></trkpt><trkpt lat="42.0844417" lon="13.54293"><ele>779.25</ele><time>2026-05-02T13:47:41.285Z</time></trkpt><trkpt lat="42.0845617" lon="13.5429517"><ele>781.5</ele><time>2026-05-02T13:47:42.284Z</time></trkpt><trkpt lat="42.0847" lon="13.5429617"><ele>783.75</ele><time>2026-05-02T13:47:43.284Z</time></trkpt><trkpt lat="42.0848367" lon="13.5429783"><ele>786.0</ele><time>2026-05-02T13:47:44.284Z</time></trkpt><trkpt lat="42.084965" lon="13.5429933"><ele>787.8</ele><time>2026-05-02T13:47:45.284Z</time></trkpt><trkpt lat="42.08507" lon="13.5429967"><ele>789.5999999999999</ele><time>2026-05-02T13:47:46.284Z</time></trkpt><trkpt lat="42.0851683" lon="13.5430133"><ele>791.4</ele><time>2026-05-02T13:47:47.284Z</time></trkpt><trkpt lat="42.0852683" lon="13.5430567"><ele>793.2</ele><time>2026-05-02T13:47:48.284Z</time></trkpt><trkpt lat="42.0853683" lon="13.5431183"><ele>795.0</ele><time>2026-05-02T13:47:49.284Z</time></trkpt><trkpt lat="42.0854667" lon="13.5431683"><ele>795.0</ele><time>2026-05-02T13:47:50.285Z</time></trkpt><trkpt lat="42.0855683" lon="13.5432283"><ele>795.0</ele><time>2026-05-02T13:47:51.284Z</time></trkpt><trkpt lat="42.08568" lon="13.5432883"><ele>795.0</ele><time>2026-05-02T13:47:52.284Z</time></trkpt><trkpt lat="42.0857883" lon="13.5433333"><ele>795.0</ele><time>2026-05-02T13:47:53.284Z</time></trkpt><trkpt lat="42.0859" lon="13.54338"><ele>794.75</ele><time>2026-05-02T13:47:54.284Z</time></trkpt><trkpt lat="42.086015" lon="13.5434417"><ele>794.5</ele><time>2026-05-02T13:47:55.284Z</time></trkpt><trkpt lat="42.086135" lon="13.543495"><ele>794.25</ele><time>2026-05-02T13:47:56.284Z</time></trkpt><trkpt lat="42.0862667" lon="13.5435233"><ele>794.0</ele><time>2026-05-02T13:47:57.285Z</time></trkpt><trkpt lat="42.0863933" lon="13.5435517"><ele>794.0</ele><time>2026-05-02T13:47:58.284Z</time></trkpt><trkpt lat="42.08651" lon="13.5435633"><ele>794.0</ele><time>2026-05-02T13:47:59.284Z</time></trkpt><trkpt lat="42.0866283" lon="13.5435867"><ele>794.0</ele><time>2026-05-02T13:48:00.284Z</time></trkpt><trkpt lat="42.086745" lon="13.5436033"><ele>794.0</ele><time>2026-05-02T13:48:01.284Z</time></trkpt><trkpt lat="42.0868467" lon="13.5436033"><ele>793.6</ele><time>2026-05-02T13:48:02.284Z</time></trkpt><trkpt lat="42.0869483" lon="13.5435783"><ele>793.2</ele><time>2026-05-02T13:48:03.284Z</time></trkpt><trkpt lat="42.08704" lon="13.543525"><ele>792.8000000000001</ele><time>2026-05-02T13:48:04.284Z</time></trkpt><trkpt lat="42.087135" lon="13.5434533"><ele>792.4000000000001</ele><time>2026-05-02T13:48:05.284Z</time></trkpt><trkpt lat="42.087215" lon="13.54337"><ele>792.0</ele><time>2026-05-02T13:48:06.284Z</time></trkpt><trkpt lat="42.0872733" lon="13.543275"><ele>792.0</ele><time>2026-05-02T13:48:07.284Z</time></trkpt><trkpt lat="42.087325" lon="13.5432067"><ele>792.0</ele><time>2026-05-02T13:48:08.284Z</time></trkpt><trkpt lat="42.08738" lon="13.543095"><ele>792.0</ele><time>2026-05-02T13:48:10.284Z</time></trkpt><trkpt lat="42.0874583" lon="13.5429867"><ele>792.0</ele><time>2026-05-02T13:48:13.284Z</time></trkpt><trkpt lat="42.0875033" lon="13.5429183"><ele>792.0</ele><time>2026-05-02T13:48:14.284Z</time></trkpt><trkpt lat="42.0875483" lon="13.5428283"><ele>792.0</ele><time>2026-05-02T13:48:15.284Z</time></trkpt><trkpt lat="42.08759" lon="13.5427467"><ele>792.0</ele><time>2026-05-02T13:48:16.284Z</time></trkpt><trkpt lat="42.0876433" lon="13.5426433"><ele>792.0</ele><time>2026-05-02T13:48:18.284Z</time></trkpt><trkpt lat="42.0877217" lon="13.5425467"><ele>792.0</ele><time>2026-05-02T13:48:20.284Z</time></trkpt><trkpt lat="42.08778" lon="13.5424567"><ele>792.0</ele><time>2026-05-02T13:48:21.284Z</time></trkpt><trkpt lat="42.0878567" lon="13.54236"><ele>792.0</ele><time>2026-05-02T13:48:22.284Z</time></trkpt><trkpt lat="42.08794" lon="13.5422683"><ele>792.0</ele><time>2026-05-02T13:48:23.284Z</time></trkpt><trkpt lat="42.0880317" lon="13.542185"><ele>792.0</ele><time>2026-05-02T13:48:24.284Z</time></trkpt><trkpt lat="42.08813" lon="13.5421133"><ele>792.0</ele><time>2026-05-02T13:48:25.284Z</time></trkpt><trkpt lat="42.0882333" lon="13.5420533"><ele>792.0</ele><time>2026-05-02T13:48:26.284Z</time></trkpt><trkpt lat="42.0883267" lon="13.5420017"><ele>792.0</ele><time>2026-05-02T13:48:27.284Z</time></trkpt><trkpt lat="42.0884083" lon="13.5419633"><ele>792.6666666666666</ele><time>2026-05-02T13:48:28.284Z</time></trkpt><trkpt lat="42.08849" lon="13.541915"><ele>793.3333333333333</ele><time>2026-05-02T13:48:29.284Z</time></trkpt><trkpt lat="42.08857" lon="13.5418683"><ele>794.0</ele><time>2026-05-02T13:48:30.285Z</time></trkpt><trkpt lat="42.08864" lon="13.5417967"><ele>794.6666666666666</ele><time>2026-05-02T13:48:31.284Z</time></trkpt><trkpt lat="42.0886967" lon="13.5416967"><ele>795.3333333333333</ele><time>2026-05-02T13:48:32.284Z</time></trkpt><trkpt lat="42.088715" lon="13.5415867"><ele>796.0</ele><time>2026-05-02T13:48:33.284Z</time></trkpt><trkpt lat="42.08871" lon="13.54146"><ele>796.0</ele><time>2026-05-02T13:48:34.284Z</time></trkpt><trkpt lat="42.0886733" lon="13.5413133"><ele>796.0</ele><time>2026-05-02T13:48:35.284Z</time></trkpt><trkpt lat="42.0886217" lon="13.5411617"><ele>796.0</ele><time>2026-05-02T13:48:36.284Z</time></trkpt><trkpt lat="42.0885533" lon="13.5410117"><ele>796.0</ele><time>2026-05-02T13:48:37.284Z</time></trkpt><trkpt lat="42.08849" lon="13.5408967"><ele>795.8</ele><time>2026-05-02T13:48:38.284Z</time></trkpt><trkpt lat="42.0884283" lon="13.5407833"><ele>795.5999999999999</ele><time>2026-05-02T13:48:39.284Z</time></trkpt><trkpt lat="42.088365" lon="13.540675"><ele>795.4</ele><time>2026-05-02T13:48:40.284Z</time></trkpt><trkpt lat="42.0883183" lon="13.5405483"><ele>795.2</ele><time>2026-05-02T13:48:41.284Z</time></trkpt><trkpt lat="42.0882883" lon="13.5404167"><ele>795.0</ele><time>2026-05-02T13:48:42.284Z</time></trkpt><trkpt lat="42.0882883" lon="13.540255"><ele>794.75</ele><time>2026-05-02T13:48:43.284Z</time></trkpt><trkpt lat="42.0882833" lon="13.5400783"><ele>794.5</ele><time>2026-05-02T13:48:44.284Z</time></trkpt><trkpt lat="42.0882983" lon="13.5398767"><ele>794.25</ele><time>2026-05-02T13:48:45.284Z</time></trkpt><trkpt lat="42.0883217" lon="13.5396967"><ele>794.0</ele><time>2026-05-02T13:48:46.285Z</time></trkpt><trkpt lat="42.088345" lon="13.5395267"><ele>794.0</ele><time>2026-05-02T13:48:47.284Z</time></trkpt><trkpt lat="42.0883583" lon="13.5393683"><ele>794.0</ele><time>2026-05-02T13:48:48.284Z</time></trkpt><trkpt lat="42.0883667" lon="13.53922"><ele>794.0</ele><time>2026-05-02T13:48:49.284Z</time></trkpt><trkpt lat="42.088375" lon="13.5390917"><ele>794.0</ele><time>2026-05-02T13:48:50.284Z</time></trkpt><trkpt lat="42.0883767" lon="13.5389817"><ele>794.0</ele><time>2026-05-02T13:48:51.285Z</time></trkpt><trkpt lat="42.0883717" lon="13.53888"><ele>794.0000000000001</ele><time>2026-05-02T13:48:52.284Z</time></trkpt><trkpt lat="42.088355" lon="13.5387917"><ele>794.0</ele><time>2026-05-02T13:48:53.284Z</time></trkpt><trkpt lat="42.08834" lon="13.5386817"><ele>794.0</ele><time>2026-05-02T13:48:55.284Z</time></trkpt><trkpt lat="42.0883883" lon="13.5386267"><ele>794.0</ele><time>2026-05-02T13:48:57.284Z</time></trkpt><trkpt lat="42.0884683" lon="13.53856"><ele>794.0000000000001</ele><time>2026-05-02T13:48:59.284Z</time></trkpt><trkpt lat="42.0886" lon="13.538515"><ele>794.0</ele><time>2026-05-02T13:49:01.284Z</time></trkpt><trkpt lat="42.0886783" lon="13.5384833"><ele>794.0000000000001</ele><time>2026-05-02T13:49:02.284Z</time></trkpt><trkpt lat="42.0887533" lon="13.5384383"><ele>794.0</ele><time>2026-05-02T13:49:03.284Z</time></trkpt><trkpt lat="42.0888233" lon="13.5383983"><ele>794.0</ele><time>2026-05-02T13:49:04.284Z</time></trkpt><trkpt lat="42.088885" lon="13.5383417"><ele>794.0</ele><time>2026-05-02T13:49:05.284Z</time></trkpt><trkpt lat="42.0889333" lon="13.5382733"><ele>794.0000000000001</ele><time>2026-05-02T13:49:06.284Z</time></trkpt><trkpt lat="42.08897" lon="13.5382"><ele>794.0</ele><time>2026-05-02T13:49:07.285Z</time></trkpt><trkpt lat="42.0890167" lon="13.5381067"><ele>794.0</ele><time>2026-05-02T13:49:08.284Z</time></trkpt><trkpt lat="42.08907" lon="13.537985"><ele>794.0</ele><time>2026-05-02T13:49:09.284Z</time></trkpt><trkpt lat="42.0891217" lon="13.5378733"><ele>794.0</ele><time>2026-05-02T13:49:10.284Z</time></trkpt><trkpt lat="42.0891967" lon="13.5377533"><ele>794.0</ele><time>2026-05-02T13:49:11.284Z</time></trkpt><trkpt lat="42.089285" lon="13.53764"><ele>794.0</ele><time>2026-05-02T13:49:12.284Z</time></trkpt><trkpt lat="42.0893833" lon="13.537545"><ele>796.25</ele><time>2026-05-02T13:49:13.284Z</time></trkpt><trkpt lat="42.089475" lon="13.5374333"><ele>798.5</ele><time>2026-05-02T13:49:14.284Z</time></trkpt><trkpt lat="42.089565" lon="13.5373233"><ele>800.75</ele><time>2026-05-02T13:49:15.284Z</time></trkpt><trkpt lat="42.0896583" lon="13.537235"><ele>803.0</ele><time>2026-05-02T13:49:16.284Z</time></trkpt><trkpt lat="42.0897367" lon="13.5371417"><ele>802.4</ele><time>2026-05-02T13:49:17.284Z</time></trkpt><trkpt lat="42.0898083" lon="13.5370433"><ele>801.8</ele><time>2026-05-02T13:49:18.284Z</time></trkpt><trkpt lat="42.08988" lon="13.5369617"><ele>801.2</ele><time>2026-05-02T13:49:19.285Z</time></trkpt><trkpt lat="42.0899633" lon="13.53688"><ele>800.6</ele><time>2026-05-02T13:49:20.284Z</time></trkpt><trkpt lat="42.0900467" lon="13.536775"><ele>800.0</ele><time>2026-05-02T13:49:21.284Z</time></trkpt><trkpt lat="42.0901233" lon="13.5366917"><ele>801.3333333333334</ele><time>2026-05-02T13:49:22.284Z</time></trkpt><trkpt lat="42.09019" lon="13.536605"><ele>802.6666666666667</ele><time>2026-05-02T13:49:23.284Z</time></trkpt><trkpt lat="42.090255" lon="13.53655"><ele>804.0</ele><time>2026-05-02T13:49:24.284Z</time></trkpt><trkpt lat="42.0903117" lon="13.5364933"><ele>805.3333333333333</ele><time>2026-05-02T13:49:27.284Z</time></trkpt><trkpt lat="42.09036" lon="13.5364"><ele>806.6666666666666</ele><time>2026-05-02T13:49:30.284Z</time></trkpt><trkpt lat="42.0903383" lon="13.5362733"><ele>808.0</ele><time>2026-05-02T13:49:32.284Z</time></trkpt><trkpt lat="42.0903117" lon="13.5361733"><ele>808.0</ele><time>2026-05-02T13:49:33.284Z</time></trkpt><trkpt lat="42.0902883" lon="13.5360583"><ele>808.0</ele><time>2026-05-02T13:49:34.284Z</time></trkpt><trkpt lat="42.09026" lon="13.5359217"><ele>808.0</ele><time>2026-05-02T13:49:35.284Z</time></trkpt><trkpt lat="42.0902333" lon="13.5357883"><ele>808.0</ele><time>2026-05-02T13:49:36.284Z</time></trkpt><trkpt lat="42.09021" lon="13.53566"><ele>808.0</ele><time>2026-05-02T13:49:37.285Z</time></trkpt><trkpt lat="42.0902083" lon="13.5355383"><ele>808.0</ele><time>2026-05-02T13:49:38.284Z</time></trkpt><trkpt lat="42.0902167" lon="13.53541"><ele>808.0</ele><time>2026-05-02T13:49:39.284Z</time></trkpt><trkpt lat="42.0902283" lon="13.5352917"><ele>808.0</ele><time>2026-05-02T13:49:40.284Z</time></trkpt><trkpt lat="42.09025" lon="13.5351817"><ele>808.0</ele><time>2026-05-02T13:49:41.284Z</time></trkpt><trkpt lat="42.090255" lon="13.5350867"><ele>808.0</ele><time>2026-05-02T13:49:42.284Z</time></trkpt><trkpt lat="42.0902733" lon="13.53491"><ele>808.0</ele><time>2026-05-02T13:49:44.284Z</time></trkpt><trkpt lat="42.0902717" lon="13.53481"><ele>808.0</ele><time>2026-05-02T13:49:45.284Z</time></trkpt><trkpt lat="42.0902817" lon="13.5347083"><ele>808.0</ele><time>2026-05-02T13:49:46.284Z</time></trkpt><trkpt lat="42.0903133" lon="13.5345867"><ele>808.0</ele><time>2026-05-02T13:49:47.284Z</time></trkpt><trkpt lat="42.0903683" lon="13.5344733"><ele>808.0</ele><time>2026-05-02T13:49:48.284Z</time></trkpt><trkpt lat="42.09044" lon="13.5343633"><ele>808.0</ele><time>2026-05-02T13:49:49.284Z</time></trkpt><trkpt lat="42.09052" lon="13.5342417"><ele>808.0</ele><time>2026-05-02T13:49:50.284Z</time></trkpt><trkpt lat="42.09061" lon="13.534095"><ele>808.0</ele><time>2026-05-02T13:49:51.284Z</time></trkpt><trkpt lat="42.090695" lon="13.5339567"><ele>808.0</ele><time>2026-05-02T13:49:52.284Z</time></trkpt><trkpt lat="42.0907833" lon="13.53379"><ele>809.5</ele><time>2026-05-02T13:49:53.284Z</time></trkpt><trkpt lat="42.0908717" lon="13.5336217"><ele>811.0</ele><time>2026-05-02T13:49:54.284Z</time></trkpt><trkpt lat="42.09096" lon="13.5334517"><ele>812.5</ele><time>2026-05-02T13:49:55.284Z</time></trkpt><trkpt lat="42.0910317" lon="13.5333"><ele>814.0</ele><time>2026-05-02T13:49:56.284Z</time></trkpt><trkpt lat="42.0910933" lon="13.533165"><ele>814.0</ele><time>2026-05-02T13:49:57.284Z</time></trkpt><trkpt lat="42.09115" lon="13.5330267"><ele>814.0</ele><time>2026-05-02T13:49:58.284Z</time></trkpt><trkpt lat="42.0912167" lon="13.5329017"><ele>814.0</ele><time>2026-05-02T13:49:59.284Z</time></trkpt><trkpt lat="42.0912983" lon="13.5327967"><ele>814.0</ele><time>2026-05-02T13:50:00.284Z</time></trkpt><trkpt lat="42.0913833" lon="13.53269"><ele>814.25</ele><time>2026-05-02T13:50:01.284Z</time></trkpt><trkpt lat="42.09149" lon="13.5325783"><ele>814.5</ele><time>2026-05-02T13:50:02.284Z</time></trkpt><trkpt lat="42.091585" lon="13.5324417"><ele>814.75</ele><time>2026-05-02T13:50:03.284Z</time></trkpt><trkpt lat="42.09169" lon="13.5322767"><ele>815.0</ele><time>2026-05-02T13:50:04.284Z</time></trkpt><trkpt lat="42.0917833" lon="13.5321183"><ele>816.25</ele><time>2026-05-02T13:50:05.284Z</time></trkpt><trkpt lat="42.0918633" lon="13.531955"><ele>817.5</ele><time>2026-05-02T13:50:06.284Z</time></trkpt><trkpt lat="42.0919233" lon="13.531795"><ele>818.75</ele><time>2026-05-02T13:50:07.284Z</time></trkpt><trkpt lat="42.0919667" lon="13.5316183"><ele>820.0</ele><time>2026-05-02T13:50:08.284Z</time></trkpt><trkpt lat="42.0920183" lon="13.5314033"><ele>819.3333333333333</ele><time>2026-05-02T13:50:09.284Z</time></trkpt><trkpt lat="42.0920683" lon="13.5311867"><ele>818.6666666666667</ele><time>2026-05-02T13:50:10.284Z</time></trkpt><trkpt lat="42.09212" lon="13.53098"><ele>818.0</ele><time>2026-05-02T13:50:11.284Z</time></trkpt><trkpt lat="42.09217" lon="13.5307783"><ele>818.0</ele><time>2026-05-02T13:50:12.284Z</time></trkpt><trkpt lat="42.0922183" lon="13.5306"><ele>818.0</ele><time>2026-05-02T13:50:13.284Z</time></trkpt><trkpt lat="42.0922617" lon="13.530425"><ele>818.0</ele><time>2026-05-02T13:50:14.285Z</time></trkpt><trkpt lat="42.0923133" lon="13.5302533"><ele>818.0</ele><time>2026-05-02T13:50:15.284Z</time></trkpt><trkpt lat="42.0923867" lon="13.530075"><ele>820.3333333333334</ele><time>2026-05-02T13:50:16.284Z</time></trkpt><trkpt lat="42.092465" lon="13.5299067"><ele>822.6666666666667</ele><time>2026-05-02T13:50:17.284Z</time></trkpt><trkpt lat="42.0925383" lon="13.52973"><ele>825.0</ele><time>2026-05-02T13:50:18.284Z</time></trkpt><trkpt lat="42.0926183" lon="13.529555"><ele>825.0</ele><time>2026-05-02T13:50:19.284Z</time></trkpt><trkpt lat="42.092685" lon="13.5293817"><ele>825.0</ele><time>2026-05-02T13:50:20.284Z</time></trkpt><trkpt lat="42.0927483" lon="13.5292083"><ele>825.0</ele><time>2026-05-02T13:50:21.284Z</time></trkpt><trkpt lat="42.0928017" lon="13.529045"><ele>825.0</ele><time>2026-05-02T13:50:22.285Z</time></trkpt><trkpt lat="42.0928567" lon="13.5288917"><ele>825.0</ele><time>2026-05-02T13:50:23.284Z</time></trkpt><trkpt lat="42.0929133" lon="13.528735"><ele>825.0</ele><time>2026-05-02T13:50:24.284Z</time></trkpt><trkpt lat="42.092965" lon="13.5285867"><ele>825.0</ele><time>2026-05-02T13:50:25.284Z</time></trkpt><trkpt lat="42.0930133" lon="13.52847"><ele>825.0</ele><time>2026-05-02T13:50:26.284Z</time></trkpt><trkpt lat="42.093055" lon="13.5283683"><ele>825.0</ele><time>2026-05-02T13:50:27.284Z</time></trkpt><trkpt lat="42.0931033" lon="13.5282833"><ele>825.6</ele><time>2026-05-02T13:50:28.284Z</time></trkpt><trkpt lat="42.093165" lon="13.5282"><ele>826.2</ele><time>2026-05-02T13:50:29.284Z</time></trkpt><trkpt lat="42.093235" lon="13.52811"><ele>826.8</ele><time>2026-05-02T13:50:30.284Z</time></trkpt><trkpt lat="42.0933033" lon="13.5280383"><ele>827.4</ele><time>2026-05-02T13:50:31.284Z</time></trkpt><trkpt lat="42.0933783" lon="13.52796"><ele>828.0</ele><time>2026-05-02T13:50:32.284Z</time></trkpt><trkpt lat="42.0934483" lon="13.5278783"><ele>828.0</ele><time>2026-05-02T13:50:33.284Z</time></trkpt><trkpt lat="42.0935167" lon="13.52781"><ele>828.0</ele><time>2026-05-02T13:50:34.284Z</time></trkpt><trkpt lat="42.0935883" lon="13.527755"><ele>828.0</ele><time>2026-05-02T13:50:35.284Z</time></trkpt><trkpt lat="42.0936617" lon="13.5277033"><ele>828.0</ele><time>2026-05-02T13:50:36.284Z</time></trkpt><trkpt lat="42.0937233" lon="13.52766"><ele>828.0</ele><time>2026-05-02T13:50:37.285Z</time></trkpt><trkpt lat="42.0938133" lon="13.5275933"><ele>828.0</ele><time>2026-05-02T13:50:39.284Z</time></trkpt><trkpt lat="42.0938617" lon="13.5275133"><ele>828.0000000000001</ele><time>2026-05-02T13:50:41.284Z</time></trkpt><trkpt lat="42.0938783" lon="13.527385"><ele>828.0</ele><time>2026-05-02T13:50:43.284Z</time></trkpt><trkpt lat="42.0938817" lon="13.527285"><ele>828.0</ele><time>2026-05-02T13:50:44.284Z</time></trkpt><trkpt lat="42.0938867" lon="13.5272"><ele>828.0</ele><time>2026-05-02T13:50:45.284Z</time></trkpt><trkpt lat="42.0938933" lon="13.5271017"><ele>828.0</ele><time>2026-05-02T13:50:46.284Z</time></trkpt><trkpt lat="42.0938967" lon="13.5270133"><ele>828.0000000000001</ele><time>2026-05-02T13:50:47.285Z</time></trkpt><trkpt lat="42.0938983" lon="13.52692"><ele>828.0</ele><time>2026-05-02T13:50:48.284Z</time></trkpt><trkpt lat="42.0939083" lon="13.5268267"><ele>827.7142857142858</ele><time>2026-05-02T13:50:49.284Z</time></trkpt><trkpt lat="42.0939267" lon="13.526735"><ele>827.4285714285714</ele><time>2026-05-02T13:50:50.284Z</time></trkpt><trkpt lat="42.0939517" lon="13.5266467"><ele>827.1428571428571</ele><time>2026-05-02T13:50:51.284Z</time></trkpt><trkpt lat="42.0939783" lon="13.5265567"><ele>826.8571428571429</ele><time>2026-05-02T13:50:52.284Z</time></trkpt><trkpt lat="42.094" lon="13.526465"><ele>826.5714285714286</ele><time>2026-05-02T13:50:53.284Z</time></trkpt><trkpt lat="42.0940217" lon="13.5263517"><ele>826.2857142857143</ele><time>2026-05-02T13:50:54.284Z</time></trkpt><trkpt lat="42.094045" lon="13.526255"><ele>826.0</ele><time>2026-05-02T13:50:55.284Z</time></trkpt><trkpt lat="42.0940533" lon="13.5261617"><ele>827.0</ele><time>2026-05-02T13:50:56.284Z</time></trkpt><trkpt lat="42.0940667" lon="13.5260667"><ele>828.0</ele><time>2026-05-02T13:50:57.284Z</time></trkpt><trkpt lat="42.0941033" lon="13.52592"><ele>829.0</ele><time>2026-05-02T13:50:59.284Z</time></trkpt><trkpt lat="42.094145" lon="13.5257483"><ele>830.0</ele><time>2026-05-02T13:51:01.284Z</time></trkpt><trkpt lat="42.09419" lon="13.5256217"><ele>831.0</ele><time>2026-05-02T13:51:03.284Z</time></trkpt><trkpt lat="42.0942183" lon="13.525495"><ele>828.1999999999999</ele><time>2026-05-02T13:51:05.284Z</time></trkpt><trkpt lat="42.09425" lon="13.5253283"><ele>825.4</ele><time>2026-05-02T13:51:07.284Z</time></trkpt><trkpt lat="42.0942933" lon="13.5252483"><ele>822.6</ele><time>2026-05-02T13:51:08.284Z</time></trkpt><trkpt lat="42.0943483" lon="13.52517"><ele>819.8</ele><time>2026-05-02T13:51:09.284Z</time></trkpt><trkpt lat="42.0944133" lon="13.5250867"><ele>817.0</ele><time>2026-05-02T13:51:10.285Z</time></trkpt><trkpt lat="42.0944817" lon="13.5250033"><ele>817.0</ele><time>2026-05-02T13:51:11.284Z</time></trkpt><trkpt lat="42.0945367" lon="13.5249417"><ele>817.0</ele><time>2026-05-02T13:51:12.284Z</time></trkpt><trkpt lat="42.094585" lon="13.524885"><ele>817.0</ele><time>2026-05-02T13:51:13.284Z</time></trkpt><trkpt lat="42.0946683" lon="13.5248033"><ele>817.0</ele><time>2026-05-02T13:51:15.284Z</time></trkpt><trkpt lat="42.094755" lon="13.5247033"><ele>817.0</ele><time>2026-05-02T13:51:17.284Z</time></trkpt><trkpt lat="42.0948433" lon="13.5246017"><ele>817.5714285714286</ele><time>2026-05-02T13:51:19.284Z</time></trkpt><trkpt lat="42.094895" lon="13.5245517"><ele>818.1428571428571</ele><time>2026-05-02T13:51:20.284Z</time></trkpt><trkpt lat="42.09495" lon="13.5245033"><ele>818.7142857142858</ele><time>2026-05-02T13:51:21.284Z</time></trkpt><trkpt lat="42.095005" lon="13.5244617"><ele>819.2857142857142</ele><time>2026-05-02T13:51:22.284Z</time></trkpt><trkpt lat="42.0950633" lon="13.52442"><ele>819.8571428571429</ele><time>2026-05-02T13:51:23.284Z</time></trkpt><trkpt lat="42.09513" lon="13.524375"><ele>820.4285714285714</ele><time>2026-05-02T13:51:24.284Z</time></trkpt><trkpt lat="42.0952083" lon="13.5243117"><ele>821.0</ele><time>2026-05-02T13:51:25.284Z</time></trkpt><trkpt lat="42.0952867" lon="13.52423"><ele>821.0</ele><time>2026-05-02T13:51:26.284Z</time></trkpt><trkpt lat="42.095365" lon="13.5241433"><ele>821.0</ele><time>2026-05-02T13:51:27.284Z</time></trkpt><trkpt lat="42.095435" lon="13.5240667"><ele>821.0</ele><time>2026-05-02T13:51:28.284Z</time></trkpt><trkpt lat="42.0955183" lon="13.5239767"><ele>821.0</ele><time>2026-05-02T13:51:29.284Z</time></trkpt><trkpt lat="42.0955983" lon="13.5239"><ele>821.0</ele><time>2026-05-02T13:51:30.284Z</time></trkpt><trkpt lat="42.0956533" lon="13.5238333"><ele>822.3333333333334</ele><time>2026-05-02T13:51:31.284Z</time></trkpt><trkpt lat="42.0957233" lon="13.5237133"><ele>823.6666666666667</ele><time>2026-05-02T13:51:33.284Z</time></trkpt><trkpt lat="42.0957517" lon="13.5236367"><ele>825.0</ele><time>2026-05-02T13:51:34.285Z</time></trkpt><trkpt lat="42.095785" lon="13.52356"><ele>826.3333333333333</ele><time>2026-05-02T13:51:35.285Z</time></trkpt><trkpt lat="42.095815" lon="13.52348"><ele>827.6666666666666</ele><time>2026-05-02T13:51:36.284Z</time></trkpt><trkpt lat="42.095835" lon="13.5233933"><ele>829.0</ele><time>2026-05-02T13:51:37.285Z</time></trkpt><trkpt lat="42.0958583" lon="13.5232583"><ele>829.0</ele><time>2026-05-02T13:51:39.284Z</time></trkpt><trkpt lat="42.0959067" lon="13.523145"><ele>829.0</ele><time>2026-05-02T13:51:52.284Z</time></trkpt><trkpt lat="42.0959633" lon="13.52302"><ele>829.0</ele><time>2026-05-02T13:51:54.284Z</time></trkpt><trkpt lat="42.0959917" lon="13.5229433"><ele>829.0</ele><time>2026-05-02T13:51:55.284Z</time></trkpt><trkpt lat="42.0960483" lon="13.5228017"><ele>829.0</ele><time>2026-05-02T13:51:57.284Z</time></trkpt><trkpt lat="42.0960833" lon="13.5226617"><ele>829.8000000000001</ele><time>2026-05-02T13:51:59.284Z</time></trkpt><trkpt lat="42.0961267" lon="13.52253"><ele>830.6</ele><time>2026-05-02T13:52:01.285Z</time></trkpt><trkpt lat="42.0961517" lon="13.5224233"><ele>831.4</ele><time>2026-05-02T13:52:03.284Z</time></trkpt><trkpt lat="42.0961767" lon="13.5223133"><ele>832.2</ele><time>2026-05-02T13:52:05.284Z</time></trkpt><trkpt lat="42.096225" lon="13.5222183"><ele>833.0</ele><time>2026-05-02T13:52:07.284Z</time></trkpt><trkpt lat="42.096285" lon="13.5220867"><ele>833.3333333333334</ele><time>2026-05-02T13:52:09.284Z</time></trkpt><trkpt lat="42.0963467" lon="13.5219767"><ele>833.6666666666667</ele><time>2026-05-02T13:52:11.284Z</time></trkpt><trkpt lat="42.09639" lon="13.5219"><ele>834.0</ele><time>2026-05-02T13:52:13.284Z</time></trkpt><trkpt lat="42.09634" lon="13.5218433"><ele>834.3333333333333</ele><time>2026-05-02T13:52:18.284Z</time></trkpt><trkpt lat="42.0963583" lon="13.5217233"><ele>834.6666666666666</ele><time>2026-05-02T13:53:51.284Z</time></trkpt><trkpt lat="42.09628" lon="13.5217367"><ele>835.0</ele><time>2026-05-02T13:56:41.283Z</time></trkpt><trkpt lat="42.0963067" lon="13.5216433"><ele>834.9999999999999</ele><time>2026-05-02T13:56:46.283Z</time></trkpt><trkpt lat="42.0963483" lon="13.5215417"><ele>835.0</ele><time>2026-05-02T13:56:49.283Z</time></trkpt><trkpt lat="42.0963533" lon="13.5214517"><ele>835.0</ele><time>2026-05-02T13:56:51.283Z</time></trkpt><trkpt lat="42.09637" lon="13.521325"><ele>835.0</ele><time>2026-05-02T13:56:53.283Z</time></trkpt><trkpt lat="42.0964017" lon="13.521215"><ele>834.9999999999999</ele><time>2026-05-02T13:56:55.283Z</time></trkpt><trkpt lat="42.0964417" lon="13.5211133"><ele>835.0</ele><time>2026-05-02T13:56:57.283Z</time></trkpt><trkpt lat="42.0964983" lon="13.5210083"><ele>834.8333333333333</ele><time>2026-05-02T13:56:59.283Z</time></trkpt><trkpt lat="42.0965733" lon="13.5208967"><ele>834.6666666666666</ele><time>2026-05-02T13:57:01.283Z</time></trkpt><trkpt lat="42.0966183" lon="13.5208283"><ele>834.5</ele><time>2026-05-02T13:57:02.283Z</time></trkpt><trkpt lat="42.096665" lon="13.5207583"><ele>834.3333333333333</ele><time>2026-05-02T13:57:03.283Z</time></trkpt><trkpt lat="42.096715" lon="13.520695"><ele>834.1666666666666</ele><time>2026-05-02T13:57:04.283Z</time></trkpt><trkpt lat="42.0967867" lon="13.5205783"><ele>834.0</ele><time>2026-05-02T13:57:06.283Z</time></trkpt><trkpt lat="42.0968633" lon="13.5204667"><ele>836.0</ele><time>2026-05-02T13:57:08.283Z</time></trkpt><trkpt lat="42.0969383" lon="13.52035"><ele>838.0</ele><time>2026-05-02T13:57:10.283Z</time></trkpt><trkpt lat="42.09702" lon="13.5202583"><ele>840.0</ele><time>2026-05-02T13:57:12.283Z</time></trkpt><trkpt lat="42.0971183" lon="13.5201833"><ele>842.0</ele><time>2026-05-02T13:57:14.283Z</time></trkpt><trkpt lat="42.0972417" lon="13.5201333"><ele>842.0</ele><time>2026-05-02T13:57:16.283Z</time></trkpt><trkpt lat="42.0973433" lon="13.520105"><ele>842.0</ele><time>2026-05-02T13:57:18.283Z</time></trkpt><trkpt lat="42.0974117" lon="13.5200717"><ele>842.0</ele><time>2026-05-02T13:57:20.283Z</time></trkpt><trkpt lat="42.0974505" lon="13.5199894"><ele>842.0</ele><time>2026-05-02T13:57:23.283Z</time></trkpt><trkpt lat="42.0973847" lon="13.5197676"><ele>842.0</ele><time>2026-05-02T13:57:28.283Z</time></trkpt><trkpt lat="42.0973431" lon="13.5196536"><ele>844.1666666666667</ele><time>2026-05-02T13:57:29.283Z</time></trkpt><trkpt lat="42.0973252" lon="13.5195132"><ele>846.3333333333334</ele><time>2026-05-02T13:57:31.283Z</time></trkpt><trkpt lat="42.0973106" lon="13.5193987"><ele>848.5</ele><time>2026-05-02T13:57:33.283Z</time></trkpt><trkpt lat="42.0972783" lon="13.5192987"><ele>850.6666666666667</ele><time>2026-05-02T13:57:35.283Z</time></trkpt><trkpt lat="42.097225" lon="13.5192104"><ele>852.8333333333334</ele><time>2026-05-02T13:57:37.284Z</time></trkpt><trkpt lat="42.0971863" lon="13.5191238"><ele>855.0</ele><time>2026-05-02T13:57:39.284Z</time></trkpt><trkpt lat="42.0971767" lon="13.519006"><ele>855.0</ele><time>2026-05-02T13:57:46.283Z</time></trkpt><trkpt lat="42.0972117" lon="13.5188733"><ele>855.0</ele><time>2026-05-02T13:57:56.283Z</time></trkpt><trkpt lat="42.0972533" lon="13.5187167"><ele>855.0</ele><time>2026-05-02T13:57:58.284Z</time></trkpt><trkpt lat="42.0972783" lon="13.5186333"><ele>855.0</ele><time>2026-05-02T13:57:59.283Z</time></trkpt><trkpt lat="42.0972967" lon="13.5185433"><ele>855.0</ele><time>2026-05-02T13:58:00.283Z</time></trkpt><trkpt lat="42.0973267" lon="13.5184483"><ele>855.0</ele><time>2026-05-02T13:58:01.283Z</time></trkpt><trkpt lat="42.097365" lon="13.5183567"><ele>857.0</ele><time>2026-05-02T13:58:02.284Z</time></trkpt><trkpt lat="42.0974017" lon="13.5182633"><ele>859.0</ele><time>2026-05-02T13:58:03.283Z</time></trkpt><trkpt lat="42.09744" lon="13.5181767"><ele>861.0</ele><time>2026-05-02T13:58:04.283Z</time></trkpt><trkpt lat="42.0974783" lon="13.5181067"><ele>863.0</ele><time>2026-05-02T13:58:05.283Z</time></trkpt><trkpt lat="42.09752" lon="13.5180283"><ele>865.0</ele><time>2026-05-02T13:58:06.283Z</time></trkpt><trkpt lat="42.0975617" lon="13.5179483"><ele>867.0</ele><time>2026-05-02T13:58:07.283Z</time></trkpt><trkpt lat="42.0975967" lon="13.5178733"><ele>869.0</ele><time>2026-05-02T13:58:08.283Z</time></trkpt><trkpt lat="42.09763" lon="13.517795"><ele>870.0</ele><time>2026-05-02T13:58:09.283Z</time></trkpt><trkpt lat="42.0976633" lon="13.5177183"><ele>871.0</ele><time>2026-05-02T13:58:10.283Z</time></trkpt><trkpt lat="42.0977067" lon="13.5176383"><ele>872.0</ele><time>2026-05-02T13:58:11.283Z</time></trkpt><trkpt lat="42.09775" lon="13.517565"><ele>873.0</ele><time>2026-05-02T13:58:12.283Z</time></trkpt><trkpt lat="42.0977933" lon="13.51748"><ele>874.0</ele><time>2026-05-02T13:58:13.283Z</time></trkpt><trkpt lat="42.0978367" lon="13.517395"><ele>875.0</ele><time>2026-05-02T13:58:14.283Z</time></trkpt><trkpt lat="42.0978733" lon="13.5173117"><ele>876.0</ele><time>2026-05-02T13:58:15.283Z</time></trkpt><trkpt lat="42.0979033" lon="13.5172333"><ele>876.0</ele><time>2026-05-02T13:58:16.283Z</time></trkpt><trkpt lat="42.0979467" lon="13.5170783"><ele>875.9999999999999</ele><time>2026-05-02T13:58:18.283Z</time></trkpt><trkpt lat="42.0979817" lon="13.51692"><ele>875.9999999999999</ele><time>2026-05-02T13:58:20.283Z</time></trkpt><trkpt lat="42.0979917" lon="13.5168333"><ele>876.0</ele><time>2026-05-02T13:58:21.283Z</time></trkpt><trkpt lat="42.0980017" lon="13.5167383"><ele>876.0</ele><time>2026-05-02T13:58:22.283Z</time></trkpt><trkpt lat="42.098025" lon="13.51665"><ele>876.0</ele><time>2026-05-02T13:58:23.283Z</time></trkpt><trkpt lat="42.0980467" lon="13.5165567"><ele>876.0</ele><time>2026-05-02T13:58:24.283Z</time></trkpt><trkpt lat="42.0980733" lon="13.516395"><ele>876.0</ele><time>2026-05-02T13:58:26.283Z</time></trkpt><trkpt lat="42.0980883" lon="13.516305"><ele>876.0</ele><time>2026-05-02T13:58:27.283Z</time></trkpt><trkpt lat="42.0981017" lon="13.5162117"><ele>876.0</ele><time>2026-05-02T13:58:28.283Z</time></trkpt><trkpt lat="42.0981267" lon="13.516125"><ele>876.0</ele><time>2026-05-02T13:58:29.283Z</time></trkpt><trkpt lat="42.0981717" lon="13.5159767"><ele>877.1428571428572</ele><time>2026-05-02T13:58:31.283Z</time></trkpt><trkpt lat="42.09821" lon="13.5158933"><ele>878.2857142857142</ele><time>2026-05-02T13:58:32.283Z</time></trkpt><trkpt lat="42.0982583" lon="13.51582"><ele>879.4285714285714</ele><time>2026-05-02T13:58:33.283Z</time></trkpt><trkpt lat="42.09831" lon="13.5157417"><ele>880.5714285714287</ele><time>2026-05-02T13:58:34.283Z</time></trkpt><trkpt lat="42.0983633" lon="13.5156617"><ele>881.7142857142858</ele><time>2026-05-02T13:58:35.283Z</time></trkpt><trkpt lat="42.098415" lon="13.5155867"><ele>882.8571428571429</ele><time>2026-05-02T13:58:36.283Z</time></trkpt><trkpt lat="42.09846" lon="13.5155217"><ele>884.0</ele><time>2026-05-02T13:58:37.284Z</time></trkpt><trkpt lat="42.0985033" lon="13.5154117"><ele>887.5000000000001</ele><time>2026-05-02T13:58:39.284Z</time></trkpt><trkpt lat="42.0985483" lon="13.5153383"><ele>891.0</ele><time>2026-05-02T13:58:41.283Z</time></trkpt><trkpt lat="42.098595" lon="13.515265"><ele>894.5</ele><time>2026-05-02T13:58:43.283Z</time></trkpt><trkpt lat="42.0986583" lon="13.5151533"><ele>898.0</ele><time>2026-05-02T13:58:45.283Z</time></trkpt><trkpt lat="42.0986967" lon="13.5150783"><ele>901.5000000000001</ele><time>2026-05-02T13:58:46.283Z</time></trkpt><trkpt lat="42.0987317" lon="13.514995"><ele>905.0</ele><time>2026-05-02T13:58:47.283Z</time></trkpt><trkpt lat="42.0987667" lon="13.514915"><ele>905.0</ele><time>2026-05-02T13:58:48.283Z</time></trkpt><trkpt lat="42.0988067" lon="13.5148367"><ele>904.9999999999999</ele><time>2026-05-02T13:58:49.283Z</time></trkpt><trkpt lat="42.0988417" lon="13.5147567"><ele>905.0</ele><time>2026-05-02T13:58:50.283Z</time></trkpt><trkpt lat="42.0988817" lon="13.5146733"><ele>905.0</ele><time>2026-05-02T13:58:51.283Z</time></trkpt><trkpt lat="42.09891" lon="13.51459"><ele>904.9999999999999</ele><time>2026-05-02T13:58:52.283Z</time></trkpt><trkpt lat="42.0989433" lon="13.5145067"><ele>905.0</ele><time>2026-05-02T13:58:53.283Z</time></trkpt><trkpt lat="42.0989667" lon="13.5143867"><ele>905.0</ele><time>2026-05-02T13:58:55.283Z</time></trkpt><trkpt lat="42.0989433" lon="13.5143"><ele>905.8333333333334</ele><time>2026-05-02T13:58:57.284Z</time></trkpt><trkpt lat="42.0988996" lon="13.5142339"><ele>906.6666666666667</ele><time>2026-05-02T13:58:58.283Z</time></trkpt><trkpt lat="42.0988488" lon="13.5141616"><ele>907.5</ele><time>2026-05-02T13:58:59.283Z</time></trkpt><trkpt lat="42.0987912" lon="13.514058"><ele>908.3333333333333</ele><time>2026-05-02T13:59:00.283Z</time></trkpt><trkpt lat="42.0987428" lon="13.5139351"><ele>909.1666666666666</ele><time>2026-05-02T13:59:01.283Z</time></trkpt><trkpt lat="42.0987036" lon="13.5138152"><ele>910.0</ele><time>2026-05-02T13:59:02.283Z</time></trkpt><trkpt lat="42.0986722" lon="13.5137162"><ele>912.2</ele><time>2026-05-02T13:59:03.283Z</time></trkpt><trkpt lat="42.0986473" lon="13.5136309"><ele>914.4</ele><time>2026-05-02T13:59:04.283Z</time></trkpt><trkpt lat="42.098625" lon="13.5135501"><ele>916.5999999999999</ele><time>2026-05-02T13:59:05.283Z</time></trkpt><trkpt lat="42.0985873" lon="13.5134121"><ele>918.8</ele><time>2026-05-02T13:59:07.283Z</time></trkpt><trkpt lat="42.0985643" lon="13.5132811"><ele>921.0</ele><time>2026-05-02T13:59:09.284Z</time></trkpt><trkpt lat="42.0985682" lon="13.5131221"><ele>921.0</ele><time>2026-05-02T13:59:11.283Z</time></trkpt><trkpt lat="42.0985559" lon="13.5129717"><ele>920.9999999999999</ele><time>2026-05-02T13:59:13.283Z</time></trkpt><trkpt lat="42.0985115" lon="13.5128228"><ele>920.9999999999999</ele><time>2026-05-02T13:59:15.284Z</time></trkpt><trkpt lat="42.098478" lon="13.5127381"><ele>921.0</ele><time>2026-05-02T13:59:16.283Z</time></trkpt><trkpt lat="42.0984482" lon="13.5126402"><ele>921.0</ele><time>2026-05-02T13:59:17.283Z</time></trkpt><trkpt lat="42.098426" lon="13.5125174"><ele>921.8</ele><time>2026-05-02T13:59:18.283Z</time></trkpt><trkpt lat="42.0984154" lon="13.5123677"><ele>922.5999999999999</ele><time>2026-05-02T13:59:19.283Z</time></trkpt><trkpt lat="42.0984116" lon="13.5122131"><ele>923.4</ele><time>2026-05-02T13:59:20.283Z</time></trkpt><trkpt lat="42.0984105" lon="13.5120682"><ele>924.2</ele><time>2026-05-02T13:59:21.283Z</time></trkpt><trkpt lat="42.0984188" lon="13.5119222"><ele>925.0</ele><time>2026-05-02T13:59:22.284Z</time></trkpt><trkpt lat="42.0984426" lon="13.5117667"><ele>925.6666666666666</ele><time>2026-05-02T13:59:23.283Z</time></trkpt><trkpt lat="42.0984579" lon="13.5116264"><ele>926.3333333333333</ele><time>2026-05-02T13:59:24.283Z</time></trkpt><trkpt lat="42.0984663" lon="13.5115064"><ele>927.0</ele><time>2026-05-02T13:59:25.284Z</time></trkpt><trkpt lat="42.098461" lon="13.5113962"><ele>927.6666666666667</ele><time>2026-05-02T13:59:26.283Z</time></trkpt><trkpt lat="42.0984391" lon="13.5112939"><ele>928.3333333333334</ele><time>2026-05-02T13:59:27.283Z</time></trkpt><trkpt lat="42.0983978" lon="13.5112003"><ele>929.0</ele><time>2026-05-02T13:59:28.283Z</time></trkpt><trkpt lat="42.098342" lon="13.5111105"><ele>930.1666666666667</ele><time>2026-05-02T13:59:29.283Z</time></trkpt><trkpt lat="42.0982822" lon="13.5110307"><ele>931.3333333333334</ele><time>2026-05-02T13:59:30.284Z</time></trkpt><trkpt lat="42.0982225" lon="13.5109529"><ele>932.5</ele><time>2026-05-02T13:59:31.283Z</time></trkpt><trkpt lat="42.0981653" lon="13.510865"><ele>933.6666666666667</ele><time>2026-05-02T13:59:32.283Z</time></trkpt><trkpt lat="42.0981152" lon="13.510761"><ele>934.8333333333334</ele><time>2026-05-02T13:59:33.283Z</time></trkpt><trkpt lat="42.0980771" lon="13.5106386"><ele>936.0</ele><time>2026-05-02T13:59:34.283Z</time></trkpt><trkpt lat="42.0980456" lon="13.5105092"><ele>931.1999999999999</ele><time>2026-05-02T13:59:35.283Z</time></trkpt><trkpt lat="42.0980079" lon="13.510385"><ele>926.3999999999999</ele><time>2026-05-02T13:59:36.283Z</time></trkpt><trkpt lat="42.09796" lon="13.5102627"><ele>921.6</ele><time>2026-05-02T13:59:37.283Z</time></trkpt><trkpt lat="42.0979027" lon="13.5101432"><ele>916.8</ele><time>2026-05-02T13:59:38.283Z</time></trkpt><trkpt lat="42.097844" lon="13.5100352"><ele>912.0</ele><time>2026-05-02T13:59:39.283Z</time></trkpt><trkpt lat="42.0977943" lon="13.5099421"><ele>912.0</ele><time>2026-05-02T13:59:40.283Z</time></trkpt><trkpt lat="42.0977531" lon="13.5098593"><ele>911.9999999999999</ele><time>2026-05-02T13:59:41.283Z</time></trkpt><trkpt lat="42.097723" lon="13.5097752"><ele>912.0</ele><time>2026-05-02T13:59:42.283Z</time></trkpt><trkpt lat="42.0976947" lon="13.5096846"><ele>912.0</ele><time>2026-05-02T13:59:43.284Z</time></trkpt><trkpt lat="42.0976685" lon="13.5095961"><ele>911.9999999999999</ele><time>2026-05-02T13:59:44.283Z</time></trkpt><trkpt lat="42.0976487" lon="13.5095056"><ele>912.0</ele><time>2026-05-02T13:59:45.283Z</time></trkpt><trkpt lat="42.0976518" lon="13.5094127"><ele>912.0</ele><time>2026-05-02T13:59:46.283Z</time></trkpt><trkpt lat="42.097657" lon="13.5093231"><ele>912.0</ele><time>2026-05-02T13:59:47.283Z</time></trkpt><trkpt lat="42.097684" lon="13.5092248"><ele>912.0</ele><time>2026-05-02T13:59:48.283Z</time></trkpt><trkpt lat="42.0977214" lon="13.5091169"><ele>912.0</ele><time>2026-05-02T13:59:49.283Z</time></trkpt><trkpt lat="42.097758" lon="13.5090035"><ele>912.0</ele><time>2026-05-02T13:59:50.284Z</time></trkpt><trkpt lat="42.097791" lon="13.5088869"><ele>912.0</ele><time>2026-05-02T13:59:51.283Z</time></trkpt><trkpt lat="42.0978188" lon="13.5087672"><ele>912.0</ele><time>2026-05-02T13:59:52.283Z</time></trkpt><trkpt lat="42.0978386" lon="13.508644"><ele>912.0</ele><time>2026-05-02T13:59:53.283Z</time></trkpt><trkpt lat="42.0978514" lon="13.5085198"><ele>912.0</ele><time>2026-05-02T13:59:54.283Z</time></trkpt><trkpt lat="42.0978571" lon="13.5083941"><ele>912.0</ele><time>2026-05-02T13:59:55.283Z</time></trkpt><trkpt lat="42.0978596" lon="13.5082654"><ele>912.0</ele><time>2026-05-02T13:59:56.283Z</time></trkpt><trkpt lat="42.0978618" lon="13.5081347"><ele>912.0</ele><time>2026-05-02T13:59:57.283Z</time></trkpt><trkpt lat="42.0978749" lon="13.5080083"><ele>912.1666666666666</ele><time>2026-05-02T13:59:58.284Z</time></trkpt><trkpt lat="42.0978912" lon="13.5078884"><ele>912.3333333333333</ele><time>2026-05-02T13:59:59.283Z</time></trkpt><trkpt lat="42.0979136" lon="13.5077651"><ele>912.5</ele><time>2026-05-02T14:00:00.283Z</time></trkpt><trkpt lat="42.0979359" lon="13.5076386"><ele>912.6666666666666</ele><time>2026-05-02T14:00:01.283Z</time></trkpt><trkpt lat="42.0979566" lon="13.5075283"><ele>912.8333333333333</ele><time>2026-05-02T14:00:02.283Z</time></trkpt><trkpt lat="42.0979847" lon="13.5074336"><ele>913.0</ele><time>2026-05-02T14:00:03.283Z</time></trkpt><trkpt lat="42.0980285" lon="13.5073473"><ele>913.0</ele><time>2026-05-02T14:00:04.283Z</time></trkpt><trkpt lat="42.0980886" lon="13.5072642"><ele>913.0</ele><time>2026-05-02T14:00:05.283Z</time></trkpt><trkpt lat="42.098161" lon="13.507184"><ele>913.0</ele><time>2026-05-02T14:00:06.283Z</time></trkpt><trkpt lat="42.0982447" lon="13.5070985"><ele>913.0</ele><time>2026-05-02T14:00:07.284Z</time></trkpt><trkpt lat="42.0983263" lon="13.507005"><ele>913.0</ele><time>2026-05-02T14:00:08.283Z</time></trkpt><trkpt lat="42.0983987" lon="13.5069106"><ele>913.3333333333333</ele><time>2026-05-02T14:00:09.283Z</time></trkpt><trkpt lat="42.0984617" lon="13.5068207"><ele>913.6666666666666</ele><time>2026-05-02T14:00:10.283Z</time></trkpt><trkpt lat="42.0985153" lon="13.506735"><ele>914.0</ele><time>2026-05-02T14:00:11.283Z</time></trkpt><trkpt lat="42.0985606" lon="13.5066466"><ele>914.3333333333333</ele><time>2026-05-02T14:00:12.283Z</time></trkpt><trkpt lat="42.0985977" lon="13.50655"><ele>914.6666666666666</ele><time>2026-05-02T14:00:13.283Z</time></trkpt><trkpt lat="42.09863" lon="13.5064397"><ele>915.0</ele><time>2026-05-02T14:00:14.283Z</time></trkpt><trkpt lat="42.0986617" lon="13.506294"><ele>915.0</ele><time>2026-05-02T14:00:15.283Z</time></trkpt><trkpt lat="42.0986949" lon="13.5061339"><ele>915.0</ele><time>2026-05-02T14:00:16.283Z</time></trkpt><trkpt lat="42.0987337" lon="13.5059747"><ele>915.0</ele><time>2026-05-02T14:00:17.283Z</time></trkpt><trkpt lat="42.0987677" lon="13.505824"><ele>915.0</ele><time>2026-05-02T14:00:18.283Z</time></trkpt><trkpt lat="42.0987997" lon="13.5056826"><ele>915.0</ele><time>2026-05-02T14:00:19.283Z</time></trkpt><trkpt lat="42.0988313" lon="13.5055612"><ele>915.0</ele><time>2026-05-02T14:00:20.283Z</time></trkpt><trkpt lat="42.0988707" lon="13.5054589"><ele>915.0</ele><time>2026-05-02T14:00:21.283Z</time></trkpt><trkpt lat="42.0989145" lon="13.5053669"><ele>915.0</ele><time>2026-05-02T14:00:22.283Z</time></trkpt><trkpt lat="42.0989654" lon="13.5052791"><ele>915.0</ele><time>2026-05-02T14:00:23.283Z</time></trkpt><trkpt lat="42.0990245" lon="13.5051868"><ele>915.0</ele><time>2026-05-02T14:00:24.283Z</time></trkpt><trkpt lat="42.0990915" lon="13.5050939"><ele>917.2</ele><time>2026-05-02T14:00:25.283Z</time></trkpt><trkpt lat="42.0991673" lon="13.5050014"><ele>919.4</ele><time>2026-05-02T14:00:26.283Z</time></trkpt><trkpt lat="42.099248" lon="13.5049139"><ele>921.5999999999999</ele><time>2026-05-02T14:00:27.283Z</time></trkpt><trkpt lat="42.099323" lon="13.5048271"><ele>923.8</ele><time>2026-05-02T14:00:28.283Z</time></trkpt><trkpt lat="42.0993866" lon="13.5047384"><ele>926.0</ele><time>2026-05-02T14:00:29.283Z</time></trkpt><trkpt lat="42.0994473" lon="13.5046323"><ele>927.25</ele><time>2026-05-02T14:00:30.284Z</time></trkpt><trkpt lat="42.0995072" lon="13.5045143"><ele>928.5</ele><time>2026-05-02T14:00:31.283Z</time></trkpt><trkpt lat="42.0995697" lon="13.5043799"><ele>929.75</ele><time>2026-05-02T14:00:32.283Z</time></trkpt><trkpt lat="42.0996344" lon="13.504238"><ele>931.0</ele><time>2026-05-02T14:00:33.283Z</time></trkpt><trkpt lat="42.0997" lon="13.5040972"><ele>931.0</ele><time>2026-05-02T14:00:34.283Z</time></trkpt><trkpt lat="42.0997631" lon="13.5039566"><ele>931.0</ele><time>2026-05-02T14:00:35.283Z</time></trkpt><trkpt lat="42.099828" lon="13.5038171"><ele>931.0</ele><time>2026-05-02T14:00:36.284Z</time></trkpt><trkpt lat="42.0999033" lon="13.5036867"><ele>931.0</ele><time>2026-05-02T14:00:37.283Z</time></trkpt><trkpt lat="42.09996" lon="13.5035583"><ele>931.5</ele><time>2026-05-02T14:00:38.283Z</time></trkpt><trkpt lat="42.10002" lon="13.5034083"><ele>932.0</ele><time>2026-05-02T14:00:39.283Z</time></trkpt><trkpt lat="42.10008" lon="13.5032683"><ele>932.5</ele><time>2026-05-02T14:00:40.283Z</time></trkpt><trkpt lat="42.1001417" lon="13.5031283"><ele>933.0</ele><time>2026-05-02T14:00:41.283Z</time></trkpt><trkpt lat="42.10021" lon="13.503"><ele>935.5</ele><time>2026-05-02T14:00:42.283Z</time></trkpt><trkpt lat="42.100285" lon="13.5028583"><ele>938.0</ele><time>2026-05-02T14:00:43.283Z</time></trkpt><trkpt lat="42.1003583" lon="13.5027317"><ele>940.5</ele><time>2026-05-02T14:00:44.283Z</time></trkpt><trkpt lat="42.10043" lon="13.5025933"><ele>943.0</ele><time>2026-05-02T14:00:45.283Z</time></trkpt><trkpt lat="42.1004967" lon="13.5024633"><ele>943.0</ele><time>2026-05-02T14:00:46.283Z</time></trkpt><trkpt lat="42.10057" lon="13.5023417"><ele>943.0</ele><time>2026-05-02T14:00:47.283Z</time></trkpt><trkpt lat="42.100645" lon="13.50222"><ele>943.0</ele><time>2026-05-02T14:00:48.283Z</time></trkpt><trkpt lat="42.1007367" lon="13.5021133"><ele>943.0</ele><time>2026-05-02T14:00:49.283Z</time></trkpt><trkpt lat="42.1008217" lon="13.5020067"><ele>944.0</ele><time>2026-05-02T14:00:50.283Z</time></trkpt><trkpt lat="42.100905" lon="13.5019033"><ele>945.0</ele><time>2026-05-02T14:00:51.283Z</time></trkpt><trkpt lat="42.1009867" lon="13.50181"><ele>946.0</ele><time>2026-05-02T14:00:52.283Z</time></trkpt><trkpt lat="42.101065" lon="13.5017133"><ele>947.0</ele><time>2026-05-02T14:00:53.283Z</time></trkpt><trkpt lat="42.1011333" lon="13.5016417"><ele>948.0</ele><time>2026-05-02T14:00:54.283Z</time></trkpt><trkpt lat="42.101195" lon="13.501535"><ele>948.0</ele><time>2026-05-02T14:00:55.284Z</time></trkpt><trkpt lat="42.10125" lon="13.5014433"><ele>948.0</ele><time>2026-05-02T14:00:56.283Z</time></trkpt><trkpt lat="42.1012983" lon="13.50136"><ele>948.0</ele><time>2026-05-02T14:00:57.283Z</time></trkpt><trkpt lat="42.1013417" lon="13.5012883"><ele>948.0</ele><time>2026-05-02T14:00:58.283Z</time></trkpt><trkpt lat="42.1013833" lon="13.501215"><ele>948.0</ele><time>2026-05-02T14:00:59.283Z</time></trkpt><trkpt lat="42.1014483" lon="13.5011183"><ele>948.0</ele><time>2026-05-02T14:01:01.283Z</time></trkpt><trkpt lat="42.1015233" lon="13.5011383"><ele>948.0</ele><time>2026-05-02T14:01:04.283Z</time></trkpt><trkpt lat="42.10157" lon="13.5012517"><ele>948.0</ele><time>2026-05-02T14:01:06.283Z</time></trkpt><trkpt lat="42.10159" lon="13.5013483"><ele>948.0</ele><time>2026-05-02T14:01:07.283Z</time></trkpt><trkpt lat="42.10162" lon="13.5014767"><ele>948.0</ele><time>2026-05-02T14:01:08.283Z</time></trkpt><trkpt lat="42.1016533" lon="13.5016417"><ele>948.0</ele><time>2026-05-02T14:01:09.283Z</time></trkpt><trkpt lat="42.101685" lon="13.5018083"><ele>947.25</ele><time>2026-05-02T14:01:10.283Z</time></trkpt><trkpt lat="42.1017167" lon="13.5019833"><ele>946.5</ele><time>2026-05-02T14:01:11.283Z</time></trkpt><trkpt lat="42.10176" lon="13.5021467"><ele>945.75</ele><time>2026-05-02T14:01:12.283Z</time></trkpt><trkpt lat="42.1018017" lon="13.5023083"><ele>945.0</ele><time>2026-05-02T14:01:13.283Z</time></trkpt><trkpt lat="42.1018433" lon="13.5024617"><ele>945.0</ele><time>2026-05-02T14:01:14.283Z</time></trkpt><trkpt lat="42.101885" lon="13.502595"><ele>945.0</ele><time>2026-05-02T14:01:15.283Z</time></trkpt><trkpt lat="42.10193" lon="13.5027033"><ele>945.0</ele><time>2026-05-02T14:01:16.283Z</time></trkpt><trkpt lat="42.10199" lon="13.5028033"><ele>945.0</ele><time>2026-05-02T14:01:17.283Z</time></trkpt><trkpt lat="42.1020467" lon="13.502895"><ele>945.0</ele><time>2026-05-02T14:01:18.283Z</time></trkpt><trkpt lat="42.1021033" lon="13.5029717"><ele>944.0</ele><time>2026-05-02T14:01:19.283Z</time></trkpt><trkpt lat="42.1021367" lon="13.5030567"><ele>943.0</ele><time>2026-05-02T14:01:20.283Z</time></trkpt><trkpt lat="42.1021783" lon="13.5031883"><ele>942.0</ele><time>2026-05-02T14:01:22.283Z</time></trkpt><trkpt lat="42.1021417" lon="13.5033517"><ele>941.0</ele><time>2026-05-02T14:01:24.283Z</time></trkpt><trkpt lat="42.1020983" lon="13.5034517"><ele>940.0</ele><time>2026-05-02T14:01:25.283Z</time></trkpt><trkpt lat="42.1020567" lon="13.503565"><ele>940.0</ele><time>2026-05-02T14:01:26.283Z</time></trkpt><trkpt lat="42.1020083" lon="13.5037017"><ele>940.0</ele><time>2026-05-02T14:01:27.283Z</time></trkpt><trkpt lat="42.1019583" lon="13.5038317"><ele>940.0</ele><time>2026-05-02T14:01:28.283Z</time></trkpt><trkpt lat="42.1019083" lon="13.5039617"><ele>940.0</ele><time>2026-05-02T14:01:29.283Z</time></trkpt><trkpt lat="42.1018533" lon="13.5041"><ele>940.0</ele><time>2026-05-02T14:01:30.283Z</time></trkpt><trkpt lat="42.1017867" lon="13.50424"><ele>938.75</ele><time>2026-05-02T14:01:31.283Z</time></trkpt><trkpt lat="42.1017183" lon="13.504395"><ele>937.5</ele><time>2026-05-02T14:01:32.283Z</time></trkpt><trkpt lat="42.101645" lon="13.50455"><ele>936.25</ele><time>2026-05-02T14:01:33.283Z</time></trkpt><trkpt lat="42.10157" lon="13.50472"><ele>935.0</ele><time>2026-05-02T14:01:34.283Z</time></trkpt><trkpt lat="42.1015" lon="13.5048883"><ele>933.6666666666667</ele><time>2026-05-02T14:01:35.283Z</time></trkpt><trkpt lat="42.101435" lon="13.5050817"><ele>932.3333333333333</ele><time>2026-05-02T14:01:36.283Z</time></trkpt><trkpt lat="42.1013833" lon="13.505285"><ele>931.0</ele><time>2026-05-02T14:01:37.283Z</time></trkpt><trkpt lat="42.1013467" lon="13.50551"><ele>930.3333333333333</ele><time>2026-05-02T14:01:38.283Z</time></trkpt><trkpt lat="42.1013017" lon="13.505745"><ele>929.6666666666667</ele><time>2026-05-02T14:01:39.283Z</time></trkpt><trkpt lat="42.1012633" lon="13.5059833"><ele>929.0</ele><time>2026-05-02T14:01:40.283Z</time></trkpt><trkpt lat="42.10122" lon="13.5062117"><ele>929.6666666666667</ele><time>2026-05-02T14:01:41.283Z</time></trkpt><trkpt lat="42.101195" lon="13.506435"><ele>930.3333333333333</ele><time>2026-05-02T14:01:42.283Z</time></trkpt><trkpt lat="42.1011667" lon="13.5066433"><ele>931.0</ele><time>2026-05-02T14:01:43.283Z</time></trkpt><trkpt lat="42.10115" lon="13.506845"><ele>931.0</ele><time>2026-05-02T14:01:44.283Z</time></trkpt><trkpt lat="42.1011467" lon="13.5070167"><ele>931.0</ele><time>2026-05-02T14:01:45.283Z</time></trkpt><trkpt lat="42.1011467" lon="13.5072033"><ele>931.0</ele><time>2026-05-02T14:01:46.283Z</time></trkpt><trkpt lat="42.10116" lon="13.507375"><ele>931.0</ele><time>2026-05-02T14:01:47.283Z</time></trkpt><trkpt lat="42.1011783" lon="13.50754"><ele>933.0</ele><time>2026-05-02T14:01:48.283Z</time></trkpt><trkpt lat="42.101175" lon="13.5077"><ele>935.0</ele><time>2026-05-02T14:01:49.283Z</time></trkpt><trkpt lat="42.1011567" lon="13.5078783"><ele>937.0</ele><time>2026-05-02T14:01:50.283Z</time></trkpt><trkpt lat="42.1011367" lon="13.5080433"><ele>939.0</ele><time>2026-05-02T14:01:51.283Z</time></trkpt><trkpt lat="42.1011133" lon="13.50823"><ele>940.75</ele><time>2026-05-02T14:01:52.283Z</time></trkpt><trkpt lat="42.10108" lon="13.50843"><ele>942.5</ele><time>2026-05-02T14:01:53.283Z</time></trkpt><trkpt lat="42.1010567" lon="13.5085933"><ele>944.25</ele><time>2026-05-02T14:01:54.283Z</time></trkpt><trkpt lat="42.1010333" lon="13.508765"><ele>946.0</ele><time>2026-05-02T14:01:55.283Z</time></trkpt><trkpt lat="42.1010117" lon="13.5089267"><ele>948.0</ele><time>2026-05-02T14:01:56.283Z</time></trkpt><trkpt lat="42.1009767" lon="13.509075"><ele>949.9999999999999</ele><time>2026-05-02T14:01:57.283Z</time></trkpt><trkpt lat="42.1009283" lon="13.5092"><ele>951.9999999999999</ele><time>2026-05-02T14:01:58.283Z</time></trkpt><trkpt lat="42.1008767" lon="13.5093133"><ele>954.0</ele><time>2026-05-02T14:01:59.283Z</time></trkpt><trkpt lat="42.1008267" lon="13.5094033"><ele>956.0</ele><time>2026-05-02T14:02:00.283Z</time></trkpt><trkpt lat="42.1007633" lon="13.509515"><ele>956.0</ele><time>2026-05-02T14:02:02.283Z</time></trkpt><trkpt lat="42.1007867" lon="13.509595"><ele>955.9999999999999</ele><time>2026-05-02T14:02:06.283Z</time></trkpt><trkpt lat="42.1008717" lon="13.509525"><ele>955.9999999999999</ele><time>2026-05-02T14:02:08.284Z</time></trkpt><trkpt lat="42.100925" lon="13.509445"><ele>956.0</ele><time>2026-05-02T14:02:09.283Z</time></trkpt><trkpt lat="42.101" lon="13.5093167"><ele>956.0</ele><time>2026-05-02T14:02:10.284Z</time></trkpt><trkpt lat="42.1011" lon="13.5091717"><ele>956.0</ele><time>2026-05-02T14:02:11.284Z</time></trkpt><trkpt lat="42.1011967" lon="13.5090217"><ele>956.0</ele><time>2026-05-02T14:02:12.283Z</time></trkpt><trkpt lat="42.1013133" lon="13.5088683"><ele>956.0</ele><time>2026-05-02T14:02:13.283Z</time></trkpt><trkpt lat="42.10143" lon="13.508735"><ele>955.0</ele><time>2026-05-02T14:02:14.284Z</time></trkpt><trkpt lat="42.1015383" lon="13.5085983"><ele>954.0</ele><time>2026-05-02T14:02:15.283Z</time></trkpt><trkpt lat="42.1016533" lon="13.5084567"><ele>953.0</ele><time>2026-05-02T14:02:16.283Z</time></trkpt><trkpt lat="42.1017633" lon="13.5082983"><ele>953.0</ele><time>2026-05-02T14:02:17.283Z</time></trkpt><trkpt lat="42.101875" lon="13.5081483"><ele>953.0</ele><time>2026-05-02T14:02:18.283Z</time></trkpt><trkpt lat="42.1019867" lon="13.507995"><ele>953.0</ele><time>2026-05-02T14:02:19.283Z</time></trkpt><trkpt lat="42.1020883" lon="13.5078483"><ele>951.0</ele><time>2026-05-02T14:02:20.283Z</time></trkpt><trkpt lat="42.1021883" lon="13.507685"><ele>949.0</ele><time>2026-05-02T14:02:21.283Z</time></trkpt><trkpt lat="42.1022883" lon="13.5075117"><ele>947.0</ele><time>2026-05-02T14:02:22.283Z</time></trkpt><trkpt lat="42.10237" lon="13.5073367"><ele>950.0</ele><time>2026-05-02T14:02:23.284Z</time></trkpt><trkpt lat="42.10245" lon="13.5071667"><ele>953.0</ele><time>2026-05-02T14:02:24.283Z</time></trkpt><trkpt lat="42.1025267" lon="13.5069967"><ele>956.0</ele><time>2026-05-02T14:02:25.283Z</time></trkpt><trkpt lat="42.1026" lon="13.5068167"><ele>959.0</ele><time>2026-05-02T14:02:26.283Z</time></trkpt><trkpt lat="42.102665" lon="13.5066467"><ele>959.0</ele><time>2026-05-02T14:02:27.283Z</time></trkpt><trkpt lat="42.1027333" lon="13.5064633"><ele>959.0</ele><time>2026-05-02T14:02:28.283Z</time></trkpt><trkpt lat="42.1027817" lon="13.5062783"><ele>959.0</ele><time>2026-05-02T14:02:29.283Z</time></trkpt><trkpt lat="42.1028367" lon="13.506085"><ele>956.3333333333334</ele><time>2026-05-02T14:02:30.284Z</time></trkpt><trkpt lat="42.10289" lon="13.5058817"><ele>953.6666666666667</ele><time>2026-05-02T14:02:31.283Z</time></trkpt><trkpt lat="42.10295" lon="13.50568"><ele>951.0</ele><time>2026-05-02T14:02:32.284Z</time></trkpt><trkpt lat="42.1030033" lon="13.5054683"><ele>949.75</ele><time>2026-05-02T14:02:33.283Z</time></trkpt><trkpt lat="42.1030683" lon="13.5052783"><ele>948.5</ele><time>2026-05-02T14:02:34.283Z</time></trkpt><trkpt lat="42.1031483" lon="13.5051267"><ele>947.25</ele><time>2026-05-02T14:02:35.283Z</time></trkpt><trkpt lat="42.10325" lon="13.5050033"><ele>946.0</ele><time>2026-05-02T14:02:36.283Z</time></trkpt><trkpt lat="42.1033567" lon="13.5049017"><ele>951.25</ele><time>2026-05-02T14:02:37.283Z</time></trkpt><trkpt lat="42.1034783" lon="13.5048133"><ele>956.5</ele><time>2026-05-02T14:02:38.283Z</time></trkpt><trkpt lat="42.103595" lon="13.5047433"><ele>961.75</ele><time>2026-05-02T14:02:39.283Z</time></trkpt><trkpt lat="42.10372" lon="13.5046733"><ele>967.0</ele><time>2026-05-02T14:02:40.283Z</time></trkpt><trkpt lat="42.10385" lon="13.5045867"><ele>968.3333333333333</ele><time>2026-05-02T14:02:41.284Z</time></trkpt><trkpt lat="42.1039817" lon="13.5044667"><ele>969.6666666666667</ele><time>2026-05-02T14:02:42.283Z</time></trkpt><trkpt lat="42.1041167" lon="13.5043317"><ele>971.0</ele><time>2026-05-02T14:02:43.283Z</time></trkpt><trkpt lat="42.104245" lon="13.504185"><ele>971.0</ele><time>2026-05-02T14:02:44.283Z</time></trkpt><trkpt lat="42.1043583" lon="13.5040133"><ele>971.0</ele><time>2026-05-02T14:02:45.283Z</time></trkpt><trkpt lat="42.1044633" lon="13.503825"><ele>971.0</ele><time>2026-05-02T14:02:46.283Z</time></trkpt><trkpt lat="42.1045667" lon="13.5036267"><ele>970.0</ele><time>2026-05-02T14:02:47.283Z</time></trkpt><trkpt lat="42.1046583" lon="13.5034267"><ele>969.0</ele><time>2026-05-02T14:02:48.283Z</time></trkpt><trkpt lat="42.1047417" lon="13.5032433"><ele>968.0</ele><time>2026-05-02T14:02:49.283Z</time></trkpt><trkpt lat="42.1048133" lon="13.5030367"><ele>968.3333333333334</ele><time>2026-05-02T14:02:50.283Z</time></trkpt><trkpt lat="42.1048883" lon="13.502825"><ele>968.6666666666667</ele><time>2026-05-02T14:02:51.283Z</time></trkpt><trkpt lat="42.1049583" lon="13.502605"><ele>969.0</ele><time>2026-05-02T14:02:52.283Z</time></trkpt><trkpt lat="42.1050233" lon="13.502385"><ele>974.3333333333333</ele><time>2026-05-02T14:02:53.283Z</time></trkpt><trkpt lat="42.1050867" lon="13.50215"><ele>979.6666666666666</ele><time>2026-05-02T14:02:54.283Z</time></trkpt><trkpt lat="42.105145" lon="13.5019217"><ele>985.0</ele><time>2026-05-02T14:02:55.283Z</time></trkpt><trkpt lat="42.105215" lon="13.5016733"><ele>985.0</ele><time>2026-05-02T14:02:56.283Z</time></trkpt><trkpt lat="42.10527" lon="13.5014283"><ele>985.0</ele><time>2026-05-02T14:02:57.283Z</time></trkpt><trkpt lat="42.1053183" lon="13.5012"><ele>985.0</ele><time>2026-05-02T14:02:58.283Z</time></trkpt><trkpt lat="42.1053683" lon="13.500955"><ele>984.6666666666666</ele><time>2026-05-02T14:02:59.283Z</time></trkpt><trkpt lat="42.1053967" lon="13.500725"><ele>984.3333333333333</ele><time>2026-05-02T14:03:00.283Z</time></trkpt><trkpt lat="42.1054083" lon="13.50052"><ele>984.0</ele><time>2026-05-02T14:03:01.284Z</time></trkpt><trkpt lat="42.1054283" lon="13.50033"><ele>986.0</ele><time>2026-05-02T14:03:02.283Z</time></trkpt><trkpt lat="42.105435" lon="13.5001483"><ele>988.0</ele><time>2026-05-02T14:03:03.283Z</time></trkpt><trkpt lat="42.1054117" lon="13.4999683"><ele>990.0</ele><time>2026-05-02T14:03:04.283Z</time></trkpt><trkpt lat="42.105355" lon="13.4997883"><ele>992.0</ele><time>2026-05-02T14:03:05.283Z</time></trkpt><trkpt lat="42.10527" lon="13.4996267"><ele>992.0</ele><time>2026-05-02T14:03:06.283Z</time></trkpt><trkpt lat="42.1051583" lon="13.4994717"><ele>992.0</ele><time>2026-05-02T14:03:07.283Z</time></trkpt><trkpt lat="42.1050317" lon="13.4993233"><ele>992.0</ele><time>2026-05-02T14:03:08.283Z</time></trkpt><trkpt lat="42.10491" lon="13.49919"><ele>992.0</ele><time>2026-05-02T14:03:09.283Z</time></trkpt><trkpt lat="42.1048033" lon="13.4990667"><ele>992.0</ele><time>2026-05-02T14:03:10.283Z</time></trkpt><trkpt lat="42.1047067" lon="13.4989383"><ele>992.0</ele><time>2026-05-02T14:03:11.283Z</time></trkpt><trkpt lat="42.10463" lon="13.49879"><ele>992.0</ele><time>2026-05-02T14:03:12.283Z</time></trkpt><trkpt lat="42.104585" lon="13.4986217"><ele>993.5</ele><time>2026-05-02T14:03:13.284Z</time></trkpt><trkpt lat="42.104545" lon="13.4984567"><ele>995.0</ele><time>2026-05-02T14:03:14.283Z</time></trkpt><trkpt lat="42.1045333" lon="13.4982717"><ele>996.5</ele><time>2026-05-02T14:03:15.283Z</time></trkpt><trkpt lat="42.1045567" lon="13.49809"><ele>998.0</ele><time>2026-05-02T14:03:16.283Z</time></trkpt><trkpt lat="42.10461" lon="13.497925"><ele>997.0</ele><time>2026-05-02T14:03:17.283Z</time></trkpt><trkpt lat="42.1047" lon="13.49779"><ele>996.0</ele><time>2026-05-02T14:03:18.283Z</time></trkpt><trkpt lat="42.1048133" lon="13.49766"><ele>995.0</ele><time>2026-05-02T14:03:19.283Z</time></trkpt><trkpt lat="42.104935" lon="13.497555"><ele>994.0</ele><time>2026-05-02T14:03:20.283Z</time></trkpt><trkpt lat="42.10508" lon="13.497425"><ele>996.3333333333333</ele><time>2026-05-02T14:03:21.283Z</time></trkpt><trkpt lat="42.1052367" lon="13.497305"><ele>998.6666666666667</ele><time>2026-05-02T14:03:22.283Z</time></trkpt><trkpt lat="42.105395" lon="13.497175"><ele>1001.0</ele><time>2026-05-02T14:03:23.283Z</time></trkpt><trkpt lat="42.10556" lon="13.497035"><ele>1001.0</ele><time>2026-05-02T14:03:24.283Z</time></trkpt><trkpt lat="42.10572" lon="13.496895"><ele>1001.0</ele><time>2026-05-02T14:03:25.283Z</time></trkpt><trkpt lat="42.1058683" lon="13.4967767"><ele>1001.0</ele><time>2026-05-02T14:03:26.283Z</time></trkpt><trkpt lat="42.10602" lon="13.4966383"><ele>1003.0</ele><time>2026-05-02T14:03:27.283Z</time></trkpt><trkpt lat="42.1061633" lon="13.4965133"><ele>1005.0</ele><time>2026-05-02T14:03:28.283Z</time></trkpt><trkpt lat="42.1063017" lon="13.4963683"><ele>1007.0</ele><time>2026-05-02T14:03:29.283Z</time></trkpt><trkpt lat="42.10642" lon="13.4962217"><ele>1007.0</ele><time>2026-05-02T14:03:30.283Z</time></trkpt><trkpt lat="42.1065233" lon="13.49605"><ele>1007.0</ele><time>2026-05-02T14:03:31.283Z</time></trkpt><trkpt lat="42.1065983" lon="13.4958583"><ele>1007.0</ele><time>2026-05-02T14:03:32.283Z</time></trkpt><trkpt lat="42.10666" lon="13.4956183"><ele>1010.6666666666667</ele><time>2026-05-02T14:03:33.283Z</time></trkpt><trkpt lat="42.1067117" lon="13.4953883"><ele>1014.3333333333333</ele><time>2026-05-02T14:03:34.284Z</time></trkpt><trkpt lat="42.10676" lon="13.4951533"><ele>1018.0</ele><time>2026-05-02T14:03:35.283Z</time></trkpt><trkpt lat="42.1068083" lon="13.4949267"><ele>1018.0</ele><time>2026-05-02T14:03:36.283Z</time></trkpt><trkpt lat="42.1068567" lon="13.4946933"><ele>1018.0</ele><time>2026-05-02T14:03:37.283Z</time></trkpt><trkpt lat="42.1069233" lon="13.4944683"><ele>1018.0</ele><time>2026-05-02T14:03:38.284Z</time></trkpt><trkpt lat="42.1070133" lon="13.4942633"><ele>1017.3333333333333</ele><time>2026-05-02T14:03:39.283Z</time></trkpt><trkpt lat="42.1071283" lon="13.494075"><ele>1016.6666666666667</ele><time>2026-05-02T14:03:40.283Z</time></trkpt><trkpt lat="42.10725" lon="13.4938983"><ele>1016.0</ele><time>2026-05-02T14:03:41.283Z</time></trkpt><trkpt lat="42.1073717" lon="13.4937417"><ele>1019.5</ele><time>2026-05-02T14:03:42.283Z</time></trkpt><trkpt lat="42.1074767" lon="13.4935933"><ele>1023.0</ele><time>2026-05-02T14:03:43.283Z</time></trkpt><trkpt lat="42.1075733" lon="13.4934583"><ele>1026.5</ele><time>2026-05-02T14:03:44.284Z</time></trkpt><trkpt lat="42.10765" lon="13.4933183"><ele>1030.0</ele><time>2026-05-02T14:03:45.283Z</time></trkpt><trkpt lat="42.1076933" lon="13.4931467"><ele>1030.0</ele><time>2026-05-02T14:03:46.283Z</time></trkpt><trkpt lat="42.1077067" lon="13.4929583"><ele>1030.0</ele><time>2026-05-02T14:03:47.283Z</time></trkpt><trkpt lat="42.107675" lon="13.4927567"><ele>1030.0</ele><time>2026-05-02T14:03:48.283Z</time></trkpt><trkpt lat="42.107635" lon="13.4925417"><ele>1032.0</ele><time>2026-05-02T14:03:49.283Z</time></trkpt><trkpt lat="42.1075883" lon="13.4923367"><ele>1034.0</ele><time>2026-05-02T14:03:50.283Z</time></trkpt><trkpt lat="42.10754" lon="13.4921317"><ele>1036.0</ele><time>2026-05-02T14:03:51.283Z</time></trkpt><trkpt lat="42.1074867" lon="13.4919517"><ele>1032.0</ele><time>2026-05-02T14:03:52.283Z</time></trkpt><trkpt lat="42.10741" lon="13.4917867"><ele>1028.0</ele><time>2026-05-02T14:03:53.284Z</time></trkpt><trkpt lat="42.1073267" lon="13.4916317"><ele>1024.0</ele><time>2026-05-02T14:03:54.283Z</time></trkpt><trkpt lat="42.1072267" lon="13.491465"><ele>1020.0</ele><time>2026-05-02T14:03:55.283Z</time></trkpt><trkpt lat="42.1071433" lon="13.491295"><ele>1022.25</ele><time>2026-05-02T14:03:56.283Z</time></trkpt><trkpt lat="42.1070883" lon="13.4911417"><ele>1024.5</ele><time>2026-05-02T14:03:57.283Z</time></trkpt><trkpt lat="42.1070633" lon="13.4909533"><ele>1026.75</ele><time>2026-05-02T14:03:58.283Z</time></trkpt><trkpt lat="42.1070767" lon="13.4907367"><ele>1029.0</ele><time>2026-05-02T14:03:59.283Z</time></trkpt><trkpt lat="42.1071233" lon="13.4905217"><ele>1030.3333333333333</ele><time>2026-05-02T14:04:00.283Z</time></trkpt><trkpt lat="42.1071783" lon="13.4902933"><ele>1031.6666666666665</ele><time>2026-05-02T14:04:01.283Z</time></trkpt><trkpt lat="42.107225" lon="13.490055"><ele>1033.0</ele><time>2026-05-02T14:04:02.284Z</time></trkpt><trkpt lat="42.1072767" lon="13.48981"><ele>1035.0</ele><time>2026-05-02T14:04:03.283Z</time></trkpt><trkpt lat="42.1073217" lon="13.4895717"><ele>1037.0</ele><time>2026-05-02T14:04:04.283Z</time></trkpt><trkpt lat="42.1073533" lon="13.48933"><ele>1039.0</ele><time>2026-05-02T14:04:05.283Z</time></trkpt><trkpt lat="42.1074117" lon="13.4890967"><ele>1041.6666666666665</ele><time>2026-05-02T14:04:06.283Z</time></trkpt><trkpt lat="42.107485" lon="13.48892"><ele>1044.3333333333333</ele><time>2026-05-02T14:04:07.283Z</time></trkpt><trkpt lat="42.1075917" lon="13.4887617"><ele>1047.0</ele><time>2026-05-02T14:04:08.283Z</time></trkpt><trkpt lat="42.107725" lon="13.4886433"><ele>1047.0</ele><time>2026-05-02T14:04:09.283Z</time></trkpt><trkpt lat="42.10786" lon="13.4885533"><ele>1047.0</ele><time>2026-05-02T14:04:10.283Z</time></trkpt><trkpt lat="42.1080133" lon="13.4884833"><ele>1047.0</ele><time>2026-05-02T14:04:11.283Z</time></trkpt><trkpt lat="42.1081683" lon="13.4884167"><ele>1052.6666666666667</ele><time>2026-05-02T14:04:12.283Z</time></trkpt><trkpt lat="42.1083183" lon="13.4883417"><ele>1058.3333333333335</ele><time>2026-05-02T14:04:13.283Z</time></trkpt><trkpt lat="42.10848" lon="13.488245"><ele>1064.0</ele><time>2026-05-02T14:04:14.283Z</time></trkpt><trkpt lat="42.10863" lon="13.4881017"><ele>1064.0</ele><time>2026-05-02T14:04:15.283Z</time></trkpt><trkpt lat="42.108775" lon="13.4879383"><ele>1064.0</ele><time>2026-05-02T14:04:16.284Z</time></trkpt><trkpt lat="42.108915" lon="13.4877483"><ele>1064.0</ele><time>2026-05-02T14:04:17.283Z</time></trkpt><trkpt lat="42.10905" lon="13.4875233"><ele>1065.6666666666667</ele><time>2026-05-02T14:04:18.283Z</time></trkpt><trkpt lat="42.1091683" lon="13.4872933"><ele>1067.3333333333333</ele><time>2026-05-02T14:04:19.283Z</time></trkpt><trkpt lat="42.1092833" lon="13.4870567"><ele>1069.0</ele><time>2026-05-02T14:04:20.283Z</time></trkpt><trkpt lat="42.1093883" lon="13.4868283"><ele>1069.0</ele><time>2026-05-02T14:04:21.283Z</time></trkpt><trkpt lat="42.1094983" lon="13.48662"><ele>1069.0</ele><time>2026-05-02T14:04:22.283Z</time></trkpt><trkpt lat="42.1096" lon="13.48641"><ele>1069.0</ele><time>2026-05-02T14:04:23.283Z</time></trkpt><trkpt lat="42.1096967" lon="13.4862083"><ele>1067.3333333333333</ele><time>2026-05-02T14:04:24.283Z</time></trkpt><trkpt lat="42.109795" lon="13.4860067"><ele>1065.6666666666667</ele><time>2026-05-02T14:04:25.283Z</time></trkpt><trkpt lat="42.1098833" lon="13.485805"><ele>1064.0</ele><time>2026-05-02T14:04:26.283Z</time></trkpt><trkpt lat="42.109965" lon="13.4855967"><ele>1070.3333333333335</ele><time>2026-05-02T14:04:27.283Z</time></trkpt><trkpt lat="42.1100133" lon="13.485385"><ele>1076.6666666666667</ele><time>2026-05-02T14:04:28.283Z</time></trkpt><trkpt lat="42.1100333" lon="13.48516"><ele>1083.0</ele><time>2026-05-02T14:04:29.283Z</time></trkpt><trkpt lat="42.11002" lon="13.4849233"><ele>1083.0</ele><time>2026-05-02T14:04:30.283Z</time></trkpt><trkpt lat="42.1099983" lon="13.484675"><ele>1083.0</ele><time>2026-05-02T14:04:31.283Z</time></trkpt><trkpt lat="42.1099533" lon="13.4844183"><ele>1083.0</ele><time>2026-05-02T14:04:32.283Z</time></trkpt><trkpt lat="42.1099367" lon="13.4841817"><ele>1084.6666666666667</ele><time>2026-05-02T14:04:33.283Z</time></trkpt><trkpt lat="42.10995" lon="13.4839367"><ele>1086.3333333333335</ele><time>2026-05-02T14:04:34.283Z</time></trkpt><trkpt lat="42.1099833" lon="13.4837"><ele>1088.0</ele><time>2026-05-02T14:04:35.283Z</time></trkpt><trkpt lat="42.1100517" lon="13.483455"><ele>1088.0</ele><time>2026-05-02T14:04:36.283Z</time></trkpt><trkpt lat="42.11014" lon="13.483235"><ele>1088.0</ele><time>2026-05-02T14:04:37.283Z</time></trkpt><trkpt lat="42.1102483" lon="13.4830367"><ele>1088.0</ele><time>2026-05-02T14:04:38.283Z</time></trkpt><trkpt lat="42.1103733" lon="13.48285"><ele>1085.6666666666667</ele><time>2026-05-02T14:04:39.283Z</time></trkpt><trkpt lat="42.1105067" lon="13.48268"><ele>1083.3333333333333</ele><time>2026-05-02T14:04:40.283Z</time></trkpt><trkpt lat="42.1106367" lon="13.4825183"><ele>1081.0</ele><time>2026-05-02T14:04:41.283Z</time></trkpt><trkpt lat="42.110775" lon="13.482355"><ele>1086.0</ele><time>2026-05-02T14:04:42.284Z</time></trkpt><trkpt lat="42.110905" lon="13.4821733"><ele>1091.0</ele><time>2026-05-02T14:04:43.283Z</time></trkpt><trkpt lat="42.111005" lon="13.4819617"><ele>1096.0</ele><time>2026-05-02T14:04:44.283Z</time></trkpt><trkpt lat="42.111085" lon="13.4817067"><ele>1096.0</ele><time>2026-05-02T14:04:45.283Z</time></trkpt><trkpt lat="42.1111433" lon="13.4814367"><ele>1096.0</ele><time>2026-05-02T14:04:46.283Z</time></trkpt><trkpt lat="42.111205" lon="13.4811567"><ele>1096.0</ele><time>2026-05-02T14:04:47.283Z</time></trkpt><trkpt lat="42.111255" lon="13.4809"><ele>1096.3333333333333</ele><time>2026-05-02T14:04:48.283Z</time></trkpt><trkpt lat="42.111295" lon="13.4806567"><ele>1096.6666666666667</ele><time>2026-05-02T14:04:49.283Z</time></trkpt><trkpt lat="42.11131" lon="13.4804133"><ele>1097.0</ele><time>2026-05-02T14:04:50.283Z</time></trkpt><trkpt lat="42.1113383" lon="13.4801567"><ele>1097.6666666666667</ele><time>2026-05-02T14:04:51.283Z</time></trkpt><trkpt lat="42.1113333" lon="13.47988"><ele>1098.3333333333333</ele><time>2026-05-02T14:04:52.283Z</time></trkpt><trkpt lat="42.1112917" lon="13.4796167"><ele>1099.0</ele><time>2026-05-02T14:04:53.283Z</time></trkpt><trkpt lat="42.1112167" lon="13.4793567"><ele>1102.0</ele><time>2026-05-02T14:04:54.283Z</time></trkpt><trkpt lat="42.1111383" lon="13.4790883"><ele>1105.0</ele><time>2026-05-02T14:04:55.283Z</time></trkpt><trkpt lat="42.1110733" lon="13.4788317"><ele>1108.0</ele><time>2026-05-02T14:04:56.283Z</time></trkpt><trkpt lat="42.1110367" lon="13.4785867"><ele>1108.6666666666665</ele><time>2026-05-02T14:04:57.283Z</time></trkpt><trkpt lat="42.1110033" lon="13.4783483"><ele>1109.3333333333333</ele><time>2026-05-02T14:04:58.283Z</time></trkpt><trkpt lat="42.1109867" lon="13.4781267"><ele>1110.0</ele><time>2026-05-02T14:04:59.283Z</time></trkpt><trkpt lat="42.110975" lon="13.4779033"><ele>1110.0</ele><time>2026-05-02T14:05:00.283Z</time></trkpt><trkpt lat="42.1109583" lon="13.477675"><ele>1110.0</ele><time>2026-05-02T14:05:01.283Z</time></trkpt><trkpt lat="42.11092" lon="13.477465"><ele>1110.0</ele><time>2026-05-02T14:05:02.283Z</time></trkpt><trkpt lat="42.1108683" lon="13.4772883"><ele>1110.0</ele><time>2026-05-02T14:05:03.283Z</time></trkpt><trkpt lat="42.1108017" lon="13.4771183"><ele>1110.0</ele><time>2026-05-02T14:05:04.283Z</time></trkpt><trkpt lat="42.11072" lon="13.4769633"><ele>1110.0</ele><time>2026-05-02T14:05:05.283Z</time></trkpt><trkpt lat="42.1106417" lon="13.476815"><ele>1110.0</ele><time>2026-05-02T14:05:06.283Z</time></trkpt><trkpt lat="42.1105583" lon="13.476665"><ele>1107.3333333333333</ele><time>2026-05-02T14:05:07.283Z</time></trkpt><trkpt lat="42.1104633" lon="13.4764983"><ele>1104.6666666666665</ele><time>2026-05-02T14:05:08.283Z</time></trkpt><trkpt lat="42.1103633" lon="13.476315"><ele>1102.0</ele><time>2026-05-02T14:05:09.283Z</time></trkpt><trkpt lat="42.1102883" lon="13.47609"><ele>1102.0</ele><time>2026-05-02T14:05:10.283Z</time></trkpt><trkpt lat="42.1102317" lon="13.4758367"><ele>1102.0</ele><time>2026-05-02T14:05:11.283Z</time></trkpt><trkpt lat="42.1101833" lon="13.4755833"><ele>1102.0</ele><time>2026-05-02T14:05:12.284Z</time></trkpt><trkpt lat="42.11015" lon="13.4753283"><ele>1101.6666666666665</ele><time>2026-05-02T14:05:13.283Z</time></trkpt><trkpt lat="42.110105" lon="13.4750733"><ele>1101.3333333333333</ele><time>2026-05-02T14:05:14.283Z</time></trkpt><trkpt lat="42.1100117" lon="13.4747717"><ele>1101.0</ele><time>2026-05-02T14:05:15.283Z</time></trkpt><trkpt lat="42.1099167" lon="13.4745133"><ele>1098.6666666666667</ele><time>2026-05-02T14:05:16.283Z</time></trkpt><trkpt lat="42.109815" lon="13.474245"><ele>1096.3333333333335</ele><time>2026-05-02T14:05:17.283Z</time></trkpt><trkpt lat="42.1097033" lon="13.4740117"><ele>1094.0</ele><time>2026-05-02T14:05:18.283Z</time></trkpt><trkpt lat="42.109605" lon="13.4737617"><ele>1094.0</ele><time>2026-05-02T14:05:19.283Z</time></trkpt><trkpt lat="42.10948" lon="13.473535"><ele>1094.0</ele><time>2026-05-02T14:05:20.283Z</time></trkpt><trkpt lat="42.1093667" lon="13.4732683"><ele>1094.0</ele><time>2026-05-02T14:05:21.283Z</time></trkpt><trkpt lat="42.10927" lon="13.4729933"><ele>1095.0</ele><time>2026-05-02T14:05:22.283Z</time></trkpt><trkpt lat="42.1091933" lon="13.472715"><ele>1096.0</ele><time>2026-05-02T14:05:23.284Z</time></trkpt><trkpt lat="42.1091117" lon="13.4724467"><ele>1097.0</ele><time>2026-05-02T14:05:24.283Z</time></trkpt><trkpt lat="42.109035" lon="13.4721767"><ele>1094.6666666666667</ele><time>2026-05-02T14:05:25.283Z</time></trkpt><trkpt lat="42.108975" lon="13.47193"><ele>1092.3333333333333</ele><time>2026-05-02T14:05:26.283Z</time></trkpt><trkpt lat="42.1089183" lon="13.4716767"><ele>1090.0</ele><time>2026-05-02T14:05:27.283Z</time></trkpt><trkpt lat="42.1088717" lon="13.4714333"><ele>1090.3333333333333</ele><time>2026-05-02T14:05:28.283Z</time></trkpt><trkpt lat="42.108845" lon="13.47118"><ele>1090.6666666666667</ele><time>2026-05-02T14:05:29.283Z</time></trkpt><trkpt lat="42.1088367" lon="13.470935"><ele>1091.0</ele><time>2026-05-02T14:05:30.283Z</time></trkpt><trkpt lat="42.1088317" lon="13.470705"><ele>1091.0</ele><time>2026-05-02T14:05:31.283Z</time></trkpt><trkpt lat="42.1088383" lon="13.4704683"><ele>1091.0</ele><time>2026-05-02T14:05:32.283Z</time></trkpt><trkpt lat="42.10884" lon="13.470235"><ele>1091.0</ele><time>2026-05-02T14:05:33.283Z</time></trkpt><trkpt lat="42.1088217" lon="13.4699983"><ele>1089.6666666666667</ele><time>2026-05-02T14:05:34.284Z</time></trkpt><trkpt lat="42.10876" lon="13.4697383"><ele>1088.3333333333333</ele><time>2026-05-02T14:05:35.283Z</time></trkpt><trkpt lat="42.1086733" lon="13.4694433"><ele>1087.0</ele><time>2026-05-02T14:05:36.283Z</time></trkpt><trkpt lat="42.10858" lon="13.4691483"><ele>1086.5</ele><time>2026-05-02T14:05:37.283Z</time></trkpt><trkpt lat="42.1084817" lon="13.4688567"><ele>1086.0</ele><time>2026-05-02T14:05:38.283Z</time></trkpt><trkpt lat="42.1083667" lon="13.4685783"><ele>1084.0</ele><time>2026-05-02T14:05:39.283Z</time></trkpt><trkpt lat="42.1082567" lon="13.4683033"><ele>1082.0</ele><time>2026-05-02T14:05:40.283Z</time></trkpt><trkpt lat="42.10816" lon="13.4680183"><ele>1085.0</ele><time>2026-05-02T14:05:41.283Z</time></trkpt><trkpt lat="42.108065" lon="13.4677317"><ele>1088.0</ele><time>2026-05-02T14:05:42.284Z</time></trkpt><trkpt lat="42.1079517" lon="13.4674633"><ele>1088.0</ele><time>2026-05-02T14:05:43.283Z</time></trkpt><trkpt lat="42.1078533" lon="13.4671717"><ele>1088.0</ele><time>2026-05-02T14:05:44.283Z</time></trkpt><trkpt lat="42.1077533" lon="13.4668967"><ele>1089.6666666666667</ele><time>2026-05-02T14:05:45.283Z</time></trkpt><trkpt lat="42.107655" lon="13.4666417"><ele>1091.3333333333333</ele><time>2026-05-02T14:05:46.283Z</time></trkpt><trkpt lat="42.1075733" lon="13.4664133"><ele>1093.0</ele><time>2026-05-02T14:05:47.284Z</time></trkpt><trkpt lat="42.1074933" lon="13.4661983"><ele>1095.3333333333333</ele><time>2026-05-02T14:05:48.283Z</time></trkpt><trkpt lat="42.107445" lon="13.46599"><ele>1097.6666666666667</ele><time>2026-05-02T14:05:49.283Z</time></trkpt><trkpt lat="42.1074133" lon="13.4657767"><ele>1100.0</ele><time>2026-05-02T14:05:50.283Z</time></trkpt><trkpt lat="42.1073917" lon="13.4655583"><ele>1098.6666666666667</ele><time>2026-05-02T14:05:51.283Z</time></trkpt><trkpt lat="42.1073917" lon="13.4653317"><ele>1097.3333333333333</ele><time>2026-05-02T14:05:52.283Z</time></trkpt><trkpt lat="42.10742" lon="13.46513"><ele>1096.0</ele><time>2026-05-02T14:05:53.283Z</time></trkpt><trkpt lat="42.107475" lon="13.4649133"><ele>1097.0</ele><time>2026-05-02T14:05:54.284Z</time></trkpt><trkpt lat="42.107535" lon="13.464705"><ele>1098.0</ele><time>2026-05-02T14:05:55.283Z</time></trkpt><trkpt lat="42.10763" lon="13.464525"><ele>1099.0</ele><time>2026-05-02T14:05:56.283Z</time></trkpt><trkpt lat="42.10774" lon="13.4643317"><ele>1099.0</ele><time>2026-05-02T14:05:57.283Z</time></trkpt><trkpt lat="42.1078517" lon="13.4641383"><ele>1099.0</ele><time>2026-05-02T14:05:58.283Z</time></trkpt><trkpt lat="42.1079667" lon="13.46393"><ele>1099.0</ele><time>2026-05-02T14:05:59.283Z</time></trkpt><trkpt lat="42.1080783" lon="13.4637183"><ele>1099.0</ele><time>2026-05-02T14:06:00.283Z</time></trkpt><trkpt lat="42.1081917" lon="13.4635067"><ele>1099.0</ele><time>2026-05-02T14:06:01.283Z</time></trkpt><trkpt lat="42.1082983" lon="13.4633"><ele>1099.0</ele><time>2026-05-02T14:06:02.283Z</time></trkpt><trkpt lat="42.1083867" lon="13.4631133"><ele>1102.0</ele><time>2026-05-02T14:06:03.283Z</time></trkpt><trkpt lat="42.108465" lon="13.46293"><ele>1105.0</ele><time>2026-05-02T14:06:04.283Z</time></trkpt><trkpt lat="42.10852" lon="13.462765"><ele>1108.0</ele><time>2026-05-02T14:06:05.284Z</time></trkpt><trkpt lat="42.1085583" lon="13.4626233"><ele>1111.0</ele><time>2026-05-02T14:06:06.284Z</time></trkpt><trkpt lat="42.1085983" lon="13.46248"><ele>1111.0</ele><time>2026-05-02T14:06:07.283Z</time></trkpt><trkpt lat="42.10863" lon="13.4623617"><ele>1111.0</ele><time>2026-05-02T14:06:08.284Z</time></trkpt><trkpt lat="42.1086633" lon="13.4622517"><ele>1111.0</ele><time>2026-05-02T14:06:09.283Z</time></trkpt><trkpt lat="42.1086883" lon="13.4621383"><ele>1111.0</ele><time>2026-05-02T14:06:10.283Z</time></trkpt><trkpt lat="42.1087083" lon="13.4620367"><ele>1111.0</ele><time>2026-05-02T14:06:11.283Z</time></trkpt><trkpt lat="42.1087417" lon="13.4619217"><ele>1111.0</ele><time>2026-05-02T14:06:12.283Z</time></trkpt><trkpt lat="42.10877" lon="13.461795"><ele>1111.1666666666665</ele><time>2026-05-02T14:06:13.283Z</time></trkpt><trkpt lat="42.1088" lon="13.4616583"><ele>1111.3333333333333</ele><time>2026-05-02T14:06:14.283Z</time></trkpt><trkpt lat="42.1088317" lon="13.46154"><ele>1111.5</ele><time>2026-05-02T14:06:15.283Z</time></trkpt><trkpt lat="42.1088683" lon="13.4614233"><ele>1111.6666666666667</ele><time>2026-05-02T14:06:16.284Z</time></trkpt><trkpt lat="42.1088983" lon="13.4613283"><ele>1111.8333333333335</ele><time>2026-05-02T14:06:17.283Z</time></trkpt><trkpt lat="42.108925" lon="13.461235"><ele>1112.0</ele><time>2026-05-02T14:06:18.283Z</time></trkpt><trkpt lat="42.1089617" lon="13.4611267"><ele>1111.6</ele><time>2026-05-02T14:06:19.283Z</time></trkpt><trkpt lat="42.1090033" lon="13.4610083"><ele>1111.2</ele><time>2026-05-02T14:06:20.283Z</time></trkpt><trkpt lat="42.109065" lon="13.4608867"><ele>1110.8</ele><time>2026-05-02T14:06:21.283Z</time></trkpt><trkpt lat="42.10913" lon="13.4607667"><ele>1110.4</ele><time>2026-05-02T14:06:22.283Z</time></trkpt><trkpt lat="42.1092" lon="13.460655"><ele>1110.0</ele><time>2026-05-02T14:06:23.283Z</time></trkpt><trkpt lat="42.109275" lon="13.4605533"><ele>1110.0</ele><time>2026-05-02T14:06:24.283Z</time></trkpt><trkpt lat="42.1093533" lon="13.4604533"><ele>1110.0</ele><time>2026-05-02T14:06:25.283Z</time></trkpt><trkpt lat="42.1094167" lon="13.460375"><ele>1110.0</ele><time>2026-05-02T14:06:26.283Z</time></trkpt><trkpt lat="42.1094767" lon="13.4603167"><ele>1110.0</ele><time>2026-05-02T14:06:27.283Z</time></trkpt><trkpt lat="42.1095433" lon="13.460245"><ele>1110.0</ele><time>2026-05-02T14:06:29.283Z</time></trkpt><trkpt lat="42.1094467" lon="13.4602883"><ele>1110.0</ele><time>2026-05-02T14:06:35.283Z</time></trkpt><trkpt lat="42.1093967" lon="13.4603583"><ele>1110.0</ele><time>2026-05-02T14:06:36.283Z</time></trkpt><trkpt lat="42.109335" lon="13.4604383"><ele>1110.0</ele><time>2026-05-02T14:06:37.283Z</time></trkpt><trkpt lat="42.1092667" lon="13.4605267"><ele>1110.0</ele><time>2026-05-02T14:06:38.283Z</time></trkpt><trkpt lat="42.1091933" lon="13.46062"><ele>1110.0</ele><time>2026-05-02T14:06:39.283Z</time></trkpt><trkpt lat="42.109115" lon="13.4607333"><ele>1110.4</ele><time>2026-05-02T14:06:40.283Z</time></trkpt><trkpt lat="42.1090383" lon="13.4608533"><ele>1110.8</ele><time>2026-05-02T14:06:41.283Z</time></trkpt><trkpt lat="42.1089733" lon="13.4609717"><ele>1111.2</ele><time>2026-05-02T14:06:42.283Z</time></trkpt><trkpt lat="42.1089183" lon="13.4611"><ele>1111.6</ele><time>2026-05-02T14:06:43.283Z</time></trkpt><trkpt lat="42.10888" lon="13.461235"><ele>1112.0</ele><time>2026-05-02T14:06:44.283Z</time></trkpt><trkpt lat="42.1088517" lon="13.4613567"><ele>1112.0</ele><time>2026-05-02T14:06:45.283Z</time></trkpt><trkpt lat="42.1088267" lon="13.46146"><ele>1112.0</ele><time>2026-05-02T14:06:46.283Z</time></trkpt><trkpt lat="42.1088067" lon="13.4615417"><ele>1112.0</ele><time>2026-05-02T14:06:47.283Z</time></trkpt><trkpt lat="42.1087783" lon="13.4616317"><ele>1112.0</ele><time>2026-05-02T14:06:49.284Z</time></trkpt><trkpt lat="42.1087083" lon="13.4616117"><ele>1112.0</ele><time>2026-05-02T14:06:52.283Z</time></trkpt><trkpt lat="42.1087017" lon="13.4614983"><ele>1112.0</ele><time>2026-05-02T14:06:54.283Z</time></trkpt><trkpt lat="42.1086867" lon="13.46135"><ele>1111.0</ele><time>2026-05-02T14:06:56.283Z</time></trkpt><trkpt lat="42.1086717" lon="13.4612667"><ele>1110.0</ele><time>2026-05-02T14:06:57.283Z</time></trkpt><trkpt lat="42.1086483" lon="13.461185"><ele>1109.0</ele><time>2026-05-02T14:06:58.283Z</time></trkpt><trkpt lat="42.1086233" lon="13.461105"><ele>1108.0</ele><time>2026-05-02T14:06:59.283Z</time></trkpt><trkpt lat="42.1085983" lon="13.4610267"><ele>1107.0</ele><time>2026-05-02T14:07:00.283Z</time></trkpt><trkpt lat="42.1085917" lon="13.4609417"><ele>1106.0</ele><time>2026-05-02T14:07:01.283Z</time></trkpt><trkpt lat="42.10858" lon="13.460855"><ele>1105.0</ele><time>2026-05-02T14:07:02.283Z</time></trkpt><trkpt lat="42.1085583" lon="13.4607067"><ele>1105.0</ele><time>2026-05-02T14:07:04.283Z</time></trkpt><trkpt lat="42.10854" lon="13.4605583"><ele>1105.0</ele><time>2026-05-02T14:07:06.283Z</time></trkpt><trkpt lat="42.1085" lon="13.4603983"><ele>1105.0</ele><time>2026-05-02T14:07:08.283Z</time></trkpt><trkpt lat="42.1084567" lon="13.4602733"><ele>1105.0</ele><time>2026-05-02T14:07:10.283Z</time></trkpt><trkpt lat="42.108445" lon="13.4601433"><ele>1105.0</ele><time>2026-05-02T14:07:12.283Z</time></trkpt><trkpt lat="42.1085033" lon="13.4600283"><ele>1102.6</ele><time>2026-05-02T14:07:14.282Z</time></trkpt><trkpt lat="42.1085633" lon="13.4599117"><ele>1100.2</ele><time>2026-05-02T14:07:16.284Z</time></trkpt><trkpt lat="42.1085983" lon="13.4597833"><ele>1097.8</ele><time>2026-05-02T14:07:18.283Z</time></trkpt><trkpt lat="42.1085683" lon="13.4596467"><ele>1095.4</ele><time>2026-05-02T14:07:20.283Z</time></trkpt><trkpt lat="42.1085483" lon="13.459565"><ele>1093.0</ele><time>2026-05-02T14:07:21.283Z</time></trkpt><trkpt lat="42.1085283" lon="13.4594"><ele>1091.1666666666665</ele><time>2026-05-02T14:07:23.283Z</time></trkpt><trkpt lat="42.1085183" lon="13.459315"><ele>1089.3333333333333</ele><time>2026-05-02T14:07:24.283Z</time></trkpt><trkpt lat="42.1085117" lon="13.4592267"><ele>1087.5</ele><time>2026-05-02T14:07:25.283Z</time></trkpt><trkpt lat="42.1085017" lon="13.4590767"><ele>1085.6666666666667</ele><time>2026-05-02T14:07:27.284Z</time></trkpt><trkpt lat="42.1085117" lon="13.45894"><ele>1083.8333333333335</ele><time>2026-05-02T14:07:29.283Z</time></trkpt><trkpt lat="42.1085179" lon="13.4588218"><ele>1082.0</ele><time>2026-05-02T14:07:31.283Z</time></trkpt><trkpt lat="42.1085345" lon="13.4587026"><ele>1080.2</ele><time>2026-05-02T14:07:33.283Z</time></trkpt><trkpt lat="42.1085455" lon="13.4585775"><ele>1078.4</ele><time>2026-05-02T14:07:35.283Z</time></trkpt><trkpt lat="42.1085553" lon="13.4584676"><ele>1076.6</ele><time>2026-05-02T14:07:37.283Z</time></trkpt><trkpt lat="42.1085711" lon="13.4583453"><ele>1074.8</ele><time>2026-05-02T14:07:39.283Z</time></trkpt><trkpt lat="42.1085749" lon="13.4582017"><ele>1073.0</ele><time>2026-05-02T14:07:41.284Z</time></trkpt><trkpt lat="42.1085782" lon="13.4580325"><ele>1071.7142857142858</ele><time>2026-05-02T14:07:43.283Z</time></trkpt><trkpt lat="42.108585" lon="13.4579379"><ele>1070.4285714285713</ele><time>2026-05-02T14:07:44.283Z</time></trkpt><trkpt lat="42.1086085" lon="13.4578421"><ele>1069.142857142857</ele><time>2026-05-02T14:07:45.283Z</time></trkpt><trkpt lat="42.1086342" lon="13.4577465"><ele>1067.857142857143</ele><time>2026-05-02T14:07:46.283Z</time></trkpt><trkpt lat="42.1086574" lon="13.4576581"><ele>1066.5714285714284</ele><time>2026-05-02T14:07:47.283Z</time></trkpt><trkpt lat="42.1086759" lon="13.4575711"><ele>1065.2857142857142</ele><time>2026-05-02T14:07:48.283Z</time></trkpt><trkpt lat="42.1086835" lon="13.4574868"><ele>1064.0</ele><time>2026-05-02T14:07:49.283Z</time></trkpt><trkpt lat="42.1086758" lon="13.4573247"><ele>1064.0</ele><time>2026-05-02T14:07:51.283Z</time></trkpt><trkpt lat="42.1086691" lon="13.4572391"><ele>1064.0</ele><time>2026-05-02T14:07:52.283Z</time></trkpt><trkpt lat="42.1086656" lon="13.4571529"><ele>1064.0</ele><time>2026-05-02T14:07:53.283Z</time></trkpt><trkpt lat="42.1086653" lon="13.4570669"><ele>1064.0</ele><time>2026-05-02T14:07:54.283Z</time></trkpt><trkpt lat="42.1086675" lon="13.4569785"><ele>1064.0</ele><time>2026-05-02T14:07:55.283Z</time></trkpt><trkpt lat="42.1086717" lon="13.4568935"><ele>1064.0</ele><time>2026-05-02T14:07:56.284Z</time></trkpt><trkpt lat="42.1086782" lon="13.4567998"><ele>1064.0</ele><time>2026-05-02T14:07:57.283Z</time></trkpt><trkpt lat="42.1086847" lon="13.4567042"><ele>1062.0</ele><time>2026-05-02T14:07:58.283Z</time></trkpt><trkpt lat="42.1086861" lon="13.4566139"><ele>1060.0</ele><time>2026-05-02T14:07:59.283Z</time></trkpt><trkpt lat="42.1086814" lon="13.4565288"><ele>1058.0</ele><time>2026-05-02T14:08:00.283Z</time></trkpt><trkpt lat="42.1086622" lon="13.4563711"><ele>1056.0</ele><time>2026-05-02T14:08:02.283Z</time></trkpt><trkpt lat="42.1086437" lon="13.4562125"><ele>1054.0</ele><time>2026-05-02T14:08:04.283Z</time></trkpt><trkpt lat="42.1086122" lon="13.4560611"><ele>1052.25</ele><time>2026-05-02T14:08:06.283Z</time></trkpt><trkpt lat="42.1085638" lon="13.4559099"><ele>1050.5</ele><time>2026-05-02T14:08:08.283Z</time></trkpt><trkpt lat="42.1085163" lon="13.4557786"><ele>1048.75</ele><time>2026-05-02T14:08:10.283Z</time></trkpt><trkpt lat="42.1084967" lon="13.4556433"><ele>1047.0</ele><time>2026-05-02T14:08:12.283Z</time></trkpt><trkpt lat="42.1084867" lon="13.4554817"><ele>1045.8</ele><time>2026-05-02T14:08:14.284Z</time></trkpt><trkpt lat="42.10845" lon="13.4553317"><ele>1044.6</ele><time>2026-05-02T14:08:16.283Z</time></trkpt><trkpt lat="42.1084267" lon="13.4551867"><ele>1043.3999999999999</ele><time>2026-05-02T14:08:18.283Z</time></trkpt><trkpt lat="42.1084133" lon="13.4550533"><ele>1042.2</ele><time>2026-05-02T14:08:20.283Z</time></trkpt><trkpt lat="42.108375" lon="13.4549017"><ele>1041.0</ele><time>2026-05-02T14:08:22.283Z</time></trkpt><trkpt lat="42.1083433" lon="13.45474"><ele>1040.1666666666667</ele><time>2026-05-02T14:08:24.283Z</time></trkpt><trkpt lat="42.1083217" lon="13.4545833"><ele>1039.3333333333333</ele><time>2026-05-02T14:08:26.283Z</time></trkpt><trkpt lat="42.1083183" lon="13.4544917"><ele>1038.5</ele><time>2026-05-02T14:08:27.283Z</time></trkpt><trkpt lat="42.108305" lon="13.4544033"><ele>1037.6666666666665</ele><time>2026-05-02T14:08:28.283Z</time></trkpt><trkpt lat="42.1082933" lon="13.4543133"><ele>1036.8333333333333</ele><time>2026-05-02T14:08:29.283Z</time></trkpt><trkpt lat="42.1082883" lon="13.4542217"><ele>1036.0</ele><time>2026-05-02T14:08:30.283Z</time></trkpt><trkpt lat="42.108285" lon="13.454125"><ele>1036.0</ele><time>2026-05-02T14:08:31.283Z</time></trkpt><trkpt lat="42.1082817" lon="13.4540367"><ele>1036.0</ele><time>2026-05-02T14:08:32.283Z</time></trkpt><trkpt lat="42.1082717" lon="13.453945"><ele>1036.0</ele><time>2026-05-02T14:08:33.283Z</time></trkpt><trkpt lat="42.1082683" lon="13.4538517"><ele>1036.0</ele><time>2026-05-02T14:08:34.283Z</time></trkpt><trkpt lat="42.108265" lon="13.4537567"><ele>1036.0</ele><time>2026-05-02T14:08:35.283Z</time></trkpt><trkpt lat="42.108255" lon="13.4536667"><ele>1036.0</ele><time>2026-05-02T14:08:36.283Z</time></trkpt><trkpt lat="42.1082467" lon="13.4535817"><ele>1036.0</ele><time>2026-05-02T14:08:37.283Z</time></trkpt><trkpt lat="42.1082167" lon="13.453415"><ele>1033.7142857142858</ele><time>2026-05-02T14:08:39.283Z</time></trkpt><trkpt lat="42.1081883" lon="13.45332"><ele>1031.4285714285716</ele><time>2026-05-02T14:08:40.283Z</time></trkpt><trkpt lat="42.1081533" lon="13.45322"><ele>1029.142857142857</ele><time>2026-05-02T14:08:41.283Z</time></trkpt><trkpt lat="42.1081283" lon="13.453135"><ele>1026.857142857143</ele><time>2026-05-02T14:08:42.283Z</time></trkpt><trkpt lat="42.1081033" lon="13.453045"><ele>1024.5714285714287</ele><time>2026-05-02T14:08:43.283Z</time></trkpt><trkpt lat="42.1080933" lon="13.4529583"><ele>1022.2857142857143</ele><time>2026-05-02T14:08:44.283Z</time></trkpt><trkpt lat="42.108085" lon="13.4528733"><ele>1020.0</ele><time>2026-05-02T14:08:45.284Z</time></trkpt><trkpt lat="42.1080733" lon="13.4527817"><ele>1019.1428571428572</ele><time>2026-05-02T14:08:46.283Z</time></trkpt><trkpt lat="42.1080667" lon="13.4526867"><ele>1018.2857142857144</ele><time>2026-05-02T14:08:47.284Z</time></trkpt><trkpt lat="42.108065" lon="13.4525917"><ele>1017.4285714285714</ele><time>2026-05-02T14:08:48.283Z</time></trkpt><trkpt lat="42.1080667" lon="13.45249"><ele>1016.5714285714287</ele><time>2026-05-02T14:08:49.283Z</time></trkpt><trkpt lat="42.10807" lon="13.4523933"><ele>1015.7142857142858</ele><time>2026-05-02T14:08:50.283Z</time></trkpt><trkpt lat="42.1080667" lon="13.45228"><ele>1014.8571428571429</ele><time>2026-05-02T14:08:51.283Z</time></trkpt><trkpt lat="42.1080667" lon="13.4521867"><ele>1014.0</ele><time>2026-05-02T14:08:52.283Z</time></trkpt><trkpt lat="42.1080533" lon="13.4520133"><ele>1014.0</ele><time>2026-05-02T14:08:54.283Z</time></trkpt><trkpt lat="42.1080367" lon="13.45193"><ele>1014.0</ele><time>2026-05-02T14:08:55.283Z</time></trkpt><trkpt lat="42.10801" lon="13.4518433"><ele>1014.0</ele><time>2026-05-02T14:08:56.283Z</time></trkpt><trkpt lat="42.1079817" lon="13.451755"><ele>1014.0</ele><time>2026-05-02T14:08:57.283Z</time></trkpt><trkpt lat="42.107965" lon="13.4515967"><ele>1014.0</ele><time>2026-05-02T14:08:59.283Z</time></trkpt><trkpt lat="42.107955" lon="13.45146"><ele>1014.0</ele><time>2026-05-02T14:09:01.284Z</time></trkpt><trkpt lat="42.1079083" lon="13.4512967"><ele>1013.8333333333334</ele><time>2026-05-02T14:09:03.283Z</time></trkpt><trkpt lat="42.1078783" lon="13.451205"><ele>1013.6666666666667</ele><time>2026-05-02T14:09:04.283Z</time></trkpt><trkpt lat="42.1078467" lon="13.4511083"><ele>1013.5</ele><time>2026-05-02T14:09:05.283Z</time></trkpt><trkpt lat="42.1078033" lon="13.4510217"><ele>1013.3333333333334</ele><time>2026-05-02T14:09:06.283Z</time></trkpt><trkpt lat="42.1077683" lon="13.4509167"><ele>1013.1666666666667</ele><time>2026-05-02T14:09:07.283Z</time></trkpt><trkpt lat="42.1077183" lon="13.4508217"><ele>1013.0</ele><time>2026-05-02T14:09:08.284Z</time></trkpt><trkpt lat="42.1076783" lon="13.4507317"><ele>1013.0</ele><time>2026-05-02T14:09:09.283Z</time></trkpt><trkpt lat="42.1076433" lon="13.4506483"><ele>1013.0000000000001</ele><time>2026-05-02T14:09:10.283Z</time></trkpt><trkpt lat="42.1076033" lon="13.4505567"><ele>1013.0</ele><time>2026-05-02T14:09:11.283Z</time></trkpt><trkpt lat="42.1075733" lon="13.4504667"><ele>1013.0</ele><time>2026-05-02T14:09:12.283Z</time></trkpt><trkpt lat="42.1075367" lon="13.450375"><ele>1013.0000000000001</ele><time>2026-05-02T14:09:13.283Z</time></trkpt><trkpt lat="42.1074917" lon="13.4503017"><ele>1013.0</ele><time>2026-05-02T14:09:14.283Z</time></trkpt><trkpt lat="42.1074483" lon="13.4502283"><ele>1013.0</ele><time>2026-05-02T14:09:15.283Z</time></trkpt><trkpt lat="42.10741" lon="13.4501567"><ele>1011.6666666666667</ele><time>2026-05-02T14:09:16.283Z</time></trkpt><trkpt lat="42.107375" lon="13.450075"><ele>1010.3333333333334</ele><time>2026-05-02T14:09:17.283Z</time></trkpt><trkpt lat="42.1073283" lon="13.4499867"><ele>1009.0</ele><time>2026-05-02T14:09:18.283Z</time></trkpt><trkpt lat="42.1072867" lon="13.4499067"><ele>1007.6666666666667</ele><time>2026-05-02T14:09:19.283Z</time></trkpt><trkpt lat="42.1072483" lon="13.449835"><ele>1006.3333333333334</ele><time>2026-05-02T14:09:20.283Z</time></trkpt><trkpt lat="42.10719" lon="13.4496983"><ele>1005.0</ele><time>2026-05-02T14:09:22.283Z</time></trkpt><trkpt lat="42.10712" lon="13.449575"><ele>1004.5</ele><time>2026-05-02T14:09:24.283Z</time></trkpt><trkpt lat="42.1070433" lon="13.4494383"><ele>1004.0</ele><time>2026-05-02T14:09:26.283Z</time></trkpt><trkpt lat="42.1070083" lon="13.4493617"><ele>1003.5</ele><time>2026-05-02T14:09:27.283Z</time></trkpt><trkpt lat="42.1069767" lon="13.449275"><ele>1003.0</ele><time>2026-05-02T14:09:28.283Z</time></trkpt><trkpt lat="42.10694" lon="13.44919"><ele>1002.5</ele><time>2026-05-02T14:09:29.283Z</time></trkpt><trkpt lat="42.1069083" lon="13.449115"><ele>1002.0</ele><time>2026-05-02T14:09:30.283Z</time></trkpt><trkpt lat="42.1068817" lon="13.4490367"><ele>1002.0</ele><time>2026-05-02T14:09:31.283Z</time></trkpt><trkpt lat="42.10686" lon="13.4489433"><ele>1002.0</ele><time>2026-05-02T14:09:32.283Z</time></trkpt><trkpt lat="42.1068183" lon="13.4488417"><ele>1002.0</ele><time>2026-05-02T14:09:33.283Z</time></trkpt><trkpt lat="42.10678" lon="13.4487283"><ele>1002.0</ele><time>2026-05-02T14:09:34.283Z</time></trkpt><trkpt lat="42.1067317" lon="13.448615"><ele>1002.0</ele><time>2026-05-02T14:09:35.283Z</time></trkpt><trkpt lat="42.106685" lon="13.4485117"><ele>1002.0</ele><time>2026-05-02T14:09:36.283Z</time></trkpt><trkpt lat="42.1066467" lon="13.448425"><ele>1001.6</ele><time>2026-05-02T14:09:37.283Z</time></trkpt><trkpt lat="42.1066167" lon="13.4483367"><ele>1001.2</ele><time>2026-05-02T14:09:38.283Z</time></trkpt><trkpt lat="42.10658" lon="13.448255"><ele>1000.8</ele><time>2026-05-02T14:09:39.283Z</time></trkpt><trkpt lat="42.1064833" lon="13.4481217"><ele>1000.4</ele><time>2026-05-02T14:09:41.283Z</time></trkpt><trkpt lat="42.1063983" lon="13.4480817"><ele>1000.0</ele><time>2026-05-02T14:09:42.283Z</time></trkpt><trkpt lat="42.1063033" lon="13.4480583"><ele>998.9999999999999</ele><time>2026-05-02T14:09:43.283Z</time></trkpt><trkpt lat="42.106225" lon="13.4480267"><ele>998.0</ele><time>2026-05-02T14:09:44.283Z</time></trkpt><trkpt lat="42.106145" lon="13.4480033"><ele>997.0</ele><time>2026-05-02T14:09:45.283Z</time></trkpt><trkpt lat="42.1060783" lon="13.4479817"><ele>996.0</ele><time>2026-05-02T14:09:46.283Z</time></trkpt><trkpt lat="42.1060233" lon="13.44794"><ele>994.9999999999999</ele><time>2026-05-02T14:09:47.283Z</time></trkpt><trkpt lat="42.1059367" lon="13.4478617"><ele>994.0</ele><time>2026-05-02T14:09:49.283Z</time></trkpt><trkpt lat="42.105905" lon="13.4477833"><ele>993.6666666666666</ele><time>2026-05-02T14:09:50.283Z</time></trkpt><trkpt lat="42.105875" lon="13.4477033"><ele>993.3333333333333</ele><time>2026-05-02T14:09:51.283Z</time></trkpt><trkpt lat="42.1058217" lon="13.4475567"><ele>993.0</ele><time>2026-05-02T14:09:53.283Z</time></trkpt><trkpt lat="42.105805" lon="13.4474683"><ele>992.6666666666667</ele><time>2026-05-02T14:09:54.283Z</time></trkpt><trkpt lat="42.1057833" lon="13.4473783"><ele>992.3333333333334</ele><time>2026-05-02T14:09:55.283Z</time></trkpt><trkpt lat="42.1057567" lon="13.4472283"><ele>992.0</ele><time>2026-05-02T14:09:57.283Z</time></trkpt><trkpt lat="42.1057383" lon="13.44709"><ele>990.8</ele><time>2026-05-02T14:09:59.283Z</time></trkpt><trkpt lat="42.1057417" lon="13.446945"><ele>989.6</ele><time>2026-05-02T14:10:01.283Z</time></trkpt><trkpt lat="42.105775" lon="13.4468"><ele>988.3999999999999</ele><time>2026-05-02T14:10:03.283Z</time></trkpt><trkpt lat="42.1057967" lon="13.4467133"><ele>987.1999999999999</ele><time>2026-05-02T14:10:04.283Z</time></trkpt><trkpt lat="42.1058367" lon="13.4465883"><ele>986.0</ele><time>2026-05-02T14:10:06.283Z</time></trkpt><trkpt lat="42.1058483" lon="13.44647"><ele>986.0</ele><time>2026-05-02T14:10:08.283Z</time></trkpt><trkpt lat="42.105825" lon="13.4463483"><ele>985.9999999999999</ele><time>2026-05-02T14:10:10.283Z</time></trkpt><trkpt lat="42.1057717" lon="13.446245"><ele>985.9999999999999</ele><time>2026-05-02T14:10:12.283Z</time></trkpt><trkpt lat="42.1057117" lon="13.4461333"><ele>986.0</ele><time>2026-05-02T14:10:14.284Z</time></trkpt><trkpt lat="42.1056617" lon="13.4460067"><ele>986.0</ele><time>2026-05-02T14:10:16.283Z</time></trkpt><trkpt lat="42.1056267" lon="13.4459267"><ele>984.5000000000001</ele><time>2026-05-02T14:10:17.283Z</time></trkpt><trkpt lat="42.1055917" lon="13.445845"><ele>983.0</ele><time>2026-05-02T14:10:18.283Z</time></trkpt><trkpt lat="42.1055533" lon="13.4457533"><ele>981.5</ele><time>2026-05-02T14:10:19.283Z</time></trkpt><trkpt lat="42.1055217" lon="13.4456667"><ele>980.0</ele><time>2026-05-02T14:10:20.283Z</time></trkpt><trkpt lat="42.1054917" lon="13.4455883"><ele>978.5000000000001</ele><time>2026-05-02T14:10:21.283Z</time></trkpt><trkpt lat="42.1054333" lon="13.4454433"><ele>977.0</ele><time>2026-05-02T14:10:23.283Z</time></trkpt><trkpt lat="42.105385" lon="13.4453117"><ele>977.0000000000001</ele><time>2026-05-02T14:10:25.283Z</time></trkpt><trkpt lat="42.10533" lon="13.44516"><ele>977.0</ele><time>2026-05-02T14:10:27.283Z</time></trkpt><trkpt lat="42.1053083" lon="13.445065"><ele>977.0</ele><time>2026-05-02T14:10:28.283Z</time></trkpt><trkpt lat="42.1052783" lon="13.4449833"><ele>977.0</ele><time>2026-05-02T14:10:29.283Z</time></trkpt><trkpt lat="42.105245" lon="13.4448983"><ele>977.0000000000001</ele><time>2026-05-02T14:10:30.283Z</time></trkpt><trkpt lat="42.1052017" lon="13.4448"><ele>977.0</ele><time>2026-05-02T14:10:31.283Z</time></trkpt><trkpt lat="42.1051633" lon="13.4447"><ele>976.6666666666667</ele><time>2026-05-02T14:10:32.283Z</time></trkpt><trkpt lat="42.1051233" lon="13.4446033"><ele>976.3333333333334</ele><time>2026-05-02T14:10:33.283Z</time></trkpt><trkpt lat="42.1050817" lon="13.4445133"><ele>976.0</ele><time>2026-05-02T14:10:34.284Z</time></trkpt><trkpt lat="42.1050467" lon="13.4444233"><ele>975.6666666666667</ele><time>2026-05-02T14:10:35.283Z</time></trkpt><trkpt lat="42.1050133" lon="13.4443233"><ele>975.3333333333334</ele><time>2026-05-02T14:10:36.283Z</time></trkpt><trkpt lat="42.1049767" lon="13.4442267"><ele>975.0</ele><time>2026-05-02T14:10:37.284Z</time></trkpt><trkpt lat="42.1049467" lon="13.44413"><ele>975.0</ele><time>2026-05-02T14:10:38.283Z</time></trkpt><trkpt lat="42.1049133" lon="13.44405"><ele>974.9999999999999</ele><time>2026-05-02T14:10:39.283Z</time></trkpt><trkpt lat="42.1048717" lon="13.4439583"><ele>975.0</ele><time>2026-05-02T14:10:40.283Z</time></trkpt><trkpt lat="42.1048233" lon="13.4438767"><ele>975.0</ele><time>2026-05-02T14:10:41.283Z</time></trkpt><trkpt lat="42.10478" lon="13.4438033"><ele>974.9999999999999</ele><time>2026-05-02T14:10:42.283Z</time></trkpt><trkpt lat="42.104735" lon="13.44373"><ele>975.0</ele><time>2026-05-02T14:10:43.283Z</time></trkpt><trkpt lat="42.1046817" lon="13.4436533"><ele>975.0</ele><time>2026-05-02T14:10:44.284Z</time></trkpt><trkpt lat="42.1046483" lon="13.4435633"><ele>974.6666666666666</ele><time>2026-05-02T14:10:45.283Z</time></trkpt><trkpt lat="42.10462" lon="13.4434617"><ele>974.3333333333333</ele><time>2026-05-02T14:10:46.283Z</time></trkpt><trkpt lat="42.1045833" lon="13.4433533"><ele>974.0</ele><time>2026-05-02T14:10:47.284Z</time></trkpt><trkpt lat="42.1045367" lon="13.44325"><ele>973.6666666666666</ele><time>2026-05-02T14:10:48.283Z</time></trkpt><trkpt lat="42.1044917" lon="13.4431483"><ele>973.3333333333333</ele><time>2026-05-02T14:10:49.283Z</time></trkpt><trkpt lat="42.10444" lon="13.4430467"><ele>973.0</ele><time>2026-05-02T14:10:50.283Z</time></trkpt><trkpt lat="42.1043783" lon="13.44296"><ele>973.0</ele><time>2026-05-02T14:10:51.283Z</time></trkpt><trkpt lat="42.1043267" lon="13.4428617"><ele>973.0</ele><time>2026-05-02T14:10:52.283Z</time></trkpt><trkpt lat="42.104255" lon="13.44277"><ele>973.0</ele><time>2026-05-02T14:10:53.283Z</time></trkpt><trkpt lat="42.1042" lon="13.44267"><ele>973.0</ele><time>2026-05-02T14:10:54.283Z</time></trkpt><trkpt lat="42.1041483" lon="13.44258"><ele>973.0</ele><time>2026-05-02T14:10:55.283Z</time></trkpt><trkpt lat="42.104105" lon="13.4424733"><ele>972.4</ele><time>2026-05-02T14:10:56.283Z</time></trkpt><trkpt lat="42.1040667" lon="13.4423583"><ele>971.8</ele><time>2026-05-02T14:10:57.283Z</time></trkpt><trkpt lat="42.1040167" lon="13.4422417"><ele>971.2</ele><time>2026-05-02T14:10:58.283Z</time></trkpt><trkpt lat="42.1039733" lon="13.44212"><ele>970.6</ele><time>2026-05-02T14:10:59.283Z</time></trkpt><trkpt lat="42.10393" lon="13.4419983"><ele>970.0</ele><time>2026-05-02T14:11:00.283Z</time></trkpt><trkpt lat="42.10388" lon="13.4418767"><ele>970.0</ele><time>2026-05-02T14:11:01.283Z</time></trkpt><trkpt lat="42.10383" lon="13.4417567"><ele>970.0</ele><time>2026-05-02T14:11:02.283Z</time></trkpt><trkpt lat="42.1037783" lon="13.44163"><ele>970.0</ele><time>2026-05-02T14:11:03.283Z</time></trkpt><trkpt lat="42.1037183" lon="13.4415233"><ele>970.0</ele><time>2026-05-02T14:11:04.283Z</time></trkpt><trkpt lat="42.10365" lon="13.4414167"><ele>970.0</ele><time>2026-05-02T14:11:05.283Z</time></trkpt><trkpt lat="42.1035783" lon="13.441315"><ele>970.4999999999999</ele><time>2026-05-02T14:11:06.283Z</time></trkpt><trkpt lat="42.10351" lon="13.44122"><ele>971.0</ele><time>2026-05-02T14:11:07.283Z</time></trkpt><trkpt lat="42.10344" lon="13.4411183"><ele>971.5</ele><time>2026-05-02T14:11:08.283Z</time></trkpt><trkpt lat="42.103385" lon="13.4410333"><ele>972.0</ele><time>2026-05-02T14:11:09.283Z</time></trkpt><trkpt lat="42.1033417" lon="13.440945"><ele>972.4999999999999</ele><time>2026-05-02T14:11:10.283Z</time></trkpt><trkpt lat="42.10331" lon="13.440865"><ele>973.0</ele><time>2026-05-02T14:11:11.283Z</time></trkpt><trkpt lat="42.1032783" lon="13.4407867"><ele>972.8333333333333</ele><time>2026-05-02T14:11:12.283Z</time></trkpt><trkpt lat="42.1032383" lon="13.4407"><ele>972.6666666666666</ele><time>2026-05-02T14:11:13.284Z</time></trkpt><trkpt lat="42.1031917" lon="13.4406133"><ele>972.5</ele><time>2026-05-02T14:11:14.283Z</time></trkpt><trkpt lat="42.1031367" lon="13.4405317"><ele>972.3333333333333</ele><time>2026-05-02T14:11:15.283Z</time></trkpt><trkpt lat="42.1030717" lon="13.4404383"><ele>972.1666666666666</ele><time>2026-05-02T14:11:16.283Z</time></trkpt><trkpt lat="42.103" lon="13.4403417"><ele>972.0</ele><time>2026-05-02T14:11:17.284Z</time></trkpt><trkpt lat="42.1029267" lon="13.440255"><ele>972.0</ele><time>2026-05-02T14:11:18.283Z</time></trkpt><trkpt lat="42.1028467" lon="13.4401833"><ele>972.0</ele><time>2026-05-02T14:11:19.283Z</time></trkpt><trkpt lat="42.1027567" lon="13.4401217"><ele>972.0</ele><time>2026-05-02T14:11:20.283Z</time></trkpt><trkpt lat="42.1026633" lon="13.4400717"><ele>972.0</ele><time>2026-05-02T14:11:21.283Z</time></trkpt><trkpt lat="42.102565" lon="13.440025"><ele>972.0</ele><time>2026-05-02T14:11:22.283Z</time></trkpt><trkpt lat="42.102475" lon="13.439975"><ele>971.8</ele><time>2026-05-02T14:11:23.283Z</time></trkpt><trkpt lat="42.10239" lon="13.4399183"><ele>971.6</ele><time>2026-05-02T14:11:24.283Z</time></trkpt><trkpt lat="42.102315" lon="13.439835"><ele>971.3999999999999</ele><time>2026-05-02T14:11:25.283Z</time></trkpt><trkpt lat="42.10224" lon="13.4397483"><ele>971.1999999999999</ele><time>2026-05-02T14:11:26.283Z</time></trkpt><trkpt lat="42.1021667" lon="13.439645"><ele>971.0</ele><time>2026-05-02T14:11:27.283Z</time></trkpt><trkpt lat="42.1021" lon="13.4395467"><ele>972.0</ele><time>2026-05-02T14:11:28.283Z</time></trkpt><trkpt lat="42.1020333" lon="13.43943"><ele>972.9999999999999</ele><time>2026-05-02T14:11:29.283Z</time></trkpt><trkpt lat="42.1019683" lon="13.439325"><ele>973.9999999999999</ele><time>2026-05-02T14:11:30.283Z</time></trkpt><trkpt lat="42.10191" lon="13.4392283"><ele>975.0</ele><time>2026-05-02T14:11:31.283Z</time></trkpt><trkpt lat="42.101835" lon="13.4391283"><ele>976.0</ele><time>2026-05-02T14:11:32.283Z</time></trkpt><trkpt lat="42.101755" lon="13.43904"><ele>976.0</ele><time>2026-05-02T14:11:33.283Z</time></trkpt><trkpt lat="42.1016817" lon="13.4389417"><ele>975.9999999999999</ele><time>2026-05-02T14:11:34.283Z</time></trkpt><trkpt lat="42.1016117" lon="13.438835"><ele>975.9999999999999</ele><time>2026-05-02T14:11:35.283Z</time></trkpt><trkpt lat="42.1015417" lon="13.4387333"><ele>976.0</ele><time>2026-05-02T14:11:36.283Z</time></trkpt><trkpt lat="42.1014667" lon="13.43862"><ele>976.0</ele><time>2026-05-02T14:11:37.283Z</time></trkpt><trkpt lat="42.1014033" lon="13.438505"><ele>975.8</ele><time>2026-05-02T14:11:38.284Z</time></trkpt><trkpt lat="42.10134" lon="13.4384017"><ele>975.5999999999999</ele><time>2026-05-02T14:11:39.283Z</time></trkpt><trkpt lat="42.10128" lon="13.438275"><ele>975.4</ele><time>2026-05-02T14:11:40.283Z</time></trkpt><trkpt lat="42.1012067" lon="13.4381683"><ele>975.2</ele><time>2026-05-02T14:11:41.283Z</time></trkpt><trkpt lat="42.10114" lon="13.438055"><ele>975.0</ele><time>2026-05-02T14:11:42.283Z</time></trkpt><trkpt lat="42.1010683" lon="13.4379383"><ele>975.0</ele><time>2026-05-02T14:11:43.284Z</time></trkpt><trkpt lat="42.1009967" lon="13.4378167"><ele>975.0</ele><time>2026-05-02T14:11:44.283Z</time></trkpt><trkpt lat="42.1009317" lon="13.4376967"><ele>975.0</ele><time>2026-05-02T14:11:45.283Z</time></trkpt><trkpt lat="42.1008817" lon="13.4375883"><ele>975.0</ele><time>2026-05-02T14:11:46.283Z</time></trkpt><trkpt lat="42.100835" lon="13.43749"><ele>975.0</ele><time>2026-05-02T14:11:47.283Z</time></trkpt><trkpt lat="42.1007783" lon="13.437435"><ele>974.4</ele><time>2026-05-02T14:11:48.283Z</time></trkpt><trkpt lat="42.1007133" lon="13.4373233"><ele>973.8</ele><time>2026-05-02T14:11:50.284Z</time></trkpt><trkpt lat="42.10066" lon="13.437215"><ele>973.2</ele><time>2026-05-02T14:11:52.283Z</time></trkpt><trkpt lat="42.1006117" lon="13.4371333"><ele>972.6</ele><time>2026-05-02T14:11:53.283Z</time></trkpt><trkpt lat="42.100565" lon="13.4370433"><ele>972.0</ele><time>2026-05-02T14:11:54.283Z</time></trkpt><trkpt lat="42.1005133" lon="13.4369317"><ele>972.0</ele><time>2026-05-02T14:11:55.283Z</time></trkpt><trkpt lat="42.1004533" lon="13.4368033"><ele>972.0</ele><time>2026-05-02T14:11:56.283Z</time></trkpt><trkpt lat="42.1003833" lon="13.4366683"><ele>972.0</ele><time>2026-05-02T14:11:57.283Z</time></trkpt><trkpt lat="42.100315" lon="13.4365483"><ele>972.0</ele><time>2026-05-02T14:11:58.283Z</time></trkpt><trkpt lat="42.1002583" lon="13.4364267"><ele>972.0</ele><time>2026-05-02T14:11:59.283Z</time></trkpt><trkpt lat="42.1002" lon="13.43631"><ele>972.0</ele><time>2026-05-02T14:12:00.283Z</time></trkpt><trkpt lat="42.1001483" lon="13.4361867"><ele>972.0</ele><time>2026-05-02T14:12:01.283Z</time></trkpt><trkpt lat="42.100105" lon="13.4360583"><ele>972.0</ele><time>2026-05-02T14:12:02.283Z</time></trkpt><trkpt lat="42.1000633" lon="13.435935"><ele>972.0</ele><time>2026-05-02T14:12:03.283Z</time></trkpt><trkpt lat="42.10001" lon="13.4358117"><ele>972.0</ele><time>2026-05-02T14:12:04.283Z</time></trkpt><trkpt lat="42.0999667" lon="13.43569"><ele>972.0</ele><time>2026-05-02T14:12:05.283Z</time></trkpt><trkpt lat="42.0999183" lon="13.4355833"><ele>972.0</ele><time>2026-05-02T14:12:06.283Z</time></trkpt><trkpt lat="42.0998867" lon="13.4354783"><ele>972.0</ele><time>2026-05-02T14:12:07.283Z</time></trkpt><trkpt lat="42.0998433" lon="13.4353783"><ele>972.0</ele><time>2026-05-02T14:12:08.283Z</time></trkpt><trkpt lat="42.0998017" lon="13.43526"><ele>972.4000000000001</ele><time>2026-05-02T14:12:09.283Z</time></trkpt><trkpt lat="42.09977" lon="13.4351517"><ele>972.8000000000001</ele><time>2026-05-02T14:12:10.283Z</time></trkpt><trkpt lat="42.0997217" lon="13.4350333"><ele>973.2</ele><time>2026-05-02T14:12:11.283Z</time></trkpt><trkpt lat="42.0996833" lon="13.4349083"><ele>973.6</ele><time>2026-05-02T14:12:12.284Z</time></trkpt><trkpt lat="42.0996383" lon="13.4347933"><ele>974.0</ele><time>2026-05-02T14:12:13.283Z</time></trkpt><trkpt lat="42.099595" lon="13.43468"><ele>974.1666666666667</ele><time>2026-05-02T14:12:14.284Z</time></trkpt><trkpt lat="42.0995483" lon="13.43457"><ele>974.3333333333334</ele><time>2026-05-02T14:12:15.284Z</time></trkpt><trkpt lat="42.0995083" lon="13.4344533"><ele>974.5</ele><time>2026-05-02T14:12:16.283Z</time></trkpt><trkpt lat="42.0994683" lon="13.4343583"><ele>974.6666666666667</ele><time>2026-05-02T14:12:17.283Z</time></trkpt><trkpt lat="42.0994317" lon="13.4342733"><ele>974.8333333333334</ele><time>2026-05-02T14:12:18.283Z</time></trkpt><trkpt lat="42.0994017" lon="13.43414"><ele>975.0</ele><time>2026-05-02T14:12:20.284Z</time></trkpt><trkpt lat="42.0993783" lon="13.4340383"><ele>975.0</ele><time>2026-05-02T14:12:22.283Z</time></trkpt><trkpt lat="42.0993567" lon="13.433935"><ele>975.0</ele><time>2026-05-02T14:12:24.283Z</time></trkpt><trkpt lat="42.0992683" lon="13.4337983"><ele>975.0</ele><time>2026-05-02T14:12:26.283Z</time></trkpt><trkpt lat="42.099185" lon="13.4337183"><ele>975.0</ele><time>2026-05-02T14:12:27.284Z</time></trkpt><trkpt lat="42.09907" lon="13.4336083"><ele>974.0</ele><time>2026-05-02T14:12:28.283Z</time></trkpt><trkpt lat="42.0989383" lon="13.4334767"><ele>973.0</ele><time>2026-05-02T14:12:29.284Z</time></trkpt><trkpt lat="42.098805" lon="13.4333483"><ele>972.0</ele><time>2026-05-02T14:12:30.283Z</time></trkpt><trkpt lat="42.0986733" lon="13.4332117"><ele>972.0</ele><time>2026-05-02T14:12:31.283Z</time></trkpt><trkpt lat="42.0985383" lon="13.4330783"><ele>972.0</ele><time>2026-05-02T14:12:32.283Z</time></trkpt><trkpt lat="42.0984167" lon="13.43297"><ele>972.0</ele><time>2026-05-02T14:12:33.283Z</time></trkpt><trkpt lat="42.09832" lon="13.4328667"><ele>972.0</ele><time>2026-05-02T14:12:34.283Z</time></trkpt><trkpt lat="42.0982333" lon="13.4327683"><ele>971.4000000000001</ele><time>2026-05-02T14:12:35.283Z</time></trkpt><trkpt lat="42.09815" lon="13.4326767"><ele>970.8000000000001</ele><time>2026-05-02T14:12:36.283Z</time></trkpt><trkpt lat="42.0980733" lon="13.4325983"><ele>970.2</ele><time>2026-05-02T14:12:37.283Z</time></trkpt><trkpt lat="42.0980117" lon="13.432535"><ele>969.6</ele><time>2026-05-02T14:12:38.283Z</time></trkpt><trkpt lat="42.0979317" lon="13.4324417"><ele>969.0</ele><time>2026-05-02T14:12:40.283Z</time></trkpt><trkpt lat="42.0979283" lon="13.4323533"><ele>969.0</ele><time>2026-05-02T14:12:42.284Z</time></trkpt><trkpt lat="42.09799" lon="13.432265"><ele>969.0</ele><time>2026-05-02T14:12:44.283Z</time></trkpt><trkpt lat="42.0980767" lon="13.43226"><ele>969.0</ele><time>2026-05-02T14:12:46.283Z</time></trkpt><trkpt lat="42.0981383" lon="13.432305"><ele>969.0</ele><time>2026-05-02T14:12:47.283Z</time></trkpt><trkpt lat="42.098215" lon="13.432355"><ele>969.0</ele><time>2026-05-02T14:12:48.283Z</time></trkpt><trkpt lat="42.09829" lon="13.4324117"><ele>969.0</ele><time>2026-05-02T14:12:49.283Z</time></trkpt><trkpt lat="42.0983683" lon="13.4324767"><ele>967.8000000000001</ele><time>2026-05-02T14:12:50.284Z</time></trkpt><trkpt lat="42.0984433" lon="13.4325433"><ele>966.6000000000001</ele><time>2026-05-02T14:12:51.283Z</time></trkpt><trkpt lat="42.0985183" lon="13.4325983"><ele>965.4</ele><time>2026-05-02T14:12:52.283Z</time></trkpt><trkpt lat="42.0985933" lon="13.432665"><ele>964.2</ele><time>2026-05-02T14:12:53.283Z</time></trkpt><trkpt lat="42.0986717" lon="13.4327283"><ele>963.0</ele><time>2026-05-02T14:12:54.283Z</time></trkpt><trkpt lat="42.098755" lon="13.4327917"><ele>963.0</ele><time>2026-05-02T14:12:55.283Z</time></trkpt><trkpt lat="42.0988483" lon="13.4328533"><ele>963.0</ele><time>2026-05-02T14:12:56.283Z</time></trkpt><trkpt lat="42.098935" lon="13.4328967"><ele>963.0</ele><time>2026-05-02T14:12:57.283Z</time></trkpt><trkpt lat="42.0990283" lon="13.43293"><ele>963.0</ele><time>2026-05-02T14:12:58.283Z</time></trkpt><trkpt lat="42.0991133" lon="13.4329633"><ele>963.0</ele><time>2026-05-02T14:12:59.283Z</time></trkpt><trkpt lat="42.0992017" lon="13.4329917"><ele>964.2</ele><time>2026-05-02T14:13:00.283Z</time></trkpt><trkpt lat="42.0992733" lon="13.4330183"><ele>965.4</ele><time>2026-05-02T14:13:01.283Z</time></trkpt><trkpt lat="42.0993317" lon="13.4330583"><ele>966.6000000000001</ele><time>2026-05-02T14:13:02.283Z</time></trkpt><trkpt lat="42.0994367" lon="13.433105"><ele>967.8000000000001</ele><time>2026-05-02T14:13:04.283Z</time></trkpt><trkpt lat="42.0995217" lon="13.43306"><ele>969.0</ele><time>2026-05-02T14:13:06.283Z</time></trkpt><trkpt lat="42.09962" lon="13.4329967"><ele>965.2</ele><time>2026-05-02T14:13:08.284Z</time></trkpt><trkpt lat="42.09971" lon="13.4329467"><ele>961.4000000000001</ele><time>2026-05-02T14:13:10.283Z</time></trkpt><trkpt lat="42.0998033" lon="13.4328917"><ele>957.6</ele><time>2026-05-02T14:13:12.283Z</time></trkpt><trkpt lat="42.0998917" lon="13.432845"><ele>953.8</ele><time>2026-05-02T14:13:14.283Z</time></trkpt><trkpt lat="42.0999617" lon="13.432785"><ele>950.0</ele><time>2026-05-02T14:13:16.283Z</time></trkpt><trkpt lat="42.1000383" lon="13.4327033"><ele>950.0</ele><time>2026-05-02T14:13:18.283Z</time></trkpt><trkpt lat="42.1001117" lon="13.4325883"><ele>950.0</ele><time>2026-05-02T14:13:20.284Z</time></trkpt><trkpt lat="42.1001683" lon="13.43246"><ele>950.0</ele><time>2026-05-02T14:13:22.283Z</time></trkpt><trkpt lat="42.10021" lon="13.4323417"><ele>950.0</ele><time>2026-05-02T14:13:24.283Z</time></trkpt><trkpt lat="42.100265" lon="13.4322217"><ele>950.0</ele><time>2026-05-02T14:13:26.283Z</time></trkpt><trkpt lat="42.1003117" lon="13.4321483"><ele>949.3333333333334</ele><time>2026-05-02T14:13:28.283Z</time></trkpt><trkpt lat="42.1002967" lon="13.432035"><ele>948.6666666666667</ele><time>2026-05-02T14:13:44.282Z</time></trkpt><trkpt lat="42.100225" lon="13.4320117"><ele>948.0</ele><time>2026-05-02T14:13:49.282Z</time></trkpt><trkpt lat="42.10016" lon="13.431935"><ele>947.3333333333333</ele><time>2026-05-02T14:13:54.282Z</time></trkpt><trkpt lat="42.1001167" lon="13.4318733"><ele>946.6666666666666</ele><time>2026-05-02T14:13:56.282Z</time></trkpt><trkpt lat="42.1000267" lon="13.43189"><ele>946.0</ele><time>2026-05-02T14:13:59.283Z</time></trkpt><trkpt lat="42.0999383" lon="13.431945"><ele>944.5999999999999</ele><time>2026-05-02T14:14:01.282Z</time></trkpt><trkpt lat="42.0998283" lon="13.4320067"><ele>943.1999999999999</ele><time>2026-05-02T14:14:03.283Z</time></trkpt><trkpt lat="42.0997167" lon="13.4320667"><ele>941.8000000000001</ele><time>2026-05-02T14:14:05.282Z</time></trkpt><trkpt lat="42.099655" lon="13.4320933"><ele>940.4000000000001</ele><time>2026-05-02T14:14:06.282Z</time></trkpt><trkpt lat="42.0995333" lon="13.4321067"><ele>939.0</ele><time>2026-05-02T14:14:08.282Z</time></trkpt><trkpt lat="42.0994333" lon="13.4320817"><ele>939.0</ele><time>2026-05-02T14:14:10.282Z</time></trkpt><trkpt lat="42.0993267" lon="13.4320083"><ele>939.0</ele><time>2026-05-02T14:14:12.282Z</time></trkpt><trkpt lat="42.0992583" lon="13.4319767"><ele>939.0</ele><time>2026-05-02T14:14:13.282Z</time></trkpt><trkpt lat="42.0991867" lon="13.431945"><ele>939.0</ele><time>2026-05-02T14:14:14.282Z</time></trkpt><trkpt lat="42.0991233" lon="13.4319067"><ele>939.0</ele><time>2026-05-02T14:14:15.283Z</time></trkpt><trkpt lat="42.0990517" lon="13.43185"><ele>939.0</ele><time>2026-05-02T14:14:16.282Z</time></trkpt><trkpt lat="42.0989833" lon="13.4317783"><ele>938.6</ele><time>2026-05-02T14:14:17.282Z</time></trkpt><trkpt lat="42.0989083" lon="13.431685"><ele>938.2</ele><time>2026-05-02T14:14:18.282Z</time></trkpt><trkpt lat="42.0988233" lon="13.43157"><ele>937.8000000000001</ele><time>2026-05-02T14:14:19.282Z</time></trkpt><trkpt lat="42.09874" lon="13.4314567"><ele>937.4000000000001</ele><time>2026-05-02T14:14:20.282Z</time></trkpt><trkpt lat="42.0986667" lon="13.431355"><ele>937.0</ele><time>2026-05-02T14:14:21.282Z</time></trkpt><trkpt lat="42.0985933" lon="13.4312583"><ele>936.9999999999999</ele><time>2026-05-02T14:14:22.282Z</time></trkpt><trkpt lat="42.0985183" lon="13.43117"><ele>937.0</ele><time>2026-05-02T14:14:23.282Z</time></trkpt><trkpt lat="42.0984433" lon="13.4310833"><ele>937.0</ele><time>2026-05-02T14:14:24.282Z</time></trkpt><trkpt lat="42.0983683" lon="13.4310133"><ele>937.0</ele><time>2026-05-02T14:14:25.282Z</time></trkpt><trkpt lat="42.098305" lon="13.4309433"><ele>936.9999999999999</ele><time>2026-05-02T14:14:26.282Z</time></trkpt><trkpt lat="42.0982583" lon="13.430865"><ele>937.0</ele><time>2026-05-02T14:14:27.282Z</time></trkpt><trkpt lat="42.0982167" lon="13.4307983"><ele>937.6</ele><time>2026-05-02T14:14:28.282Z</time></trkpt><trkpt lat="42.0981383" lon="13.4306633"><ele>938.2</ele><time>2026-05-02T14:14:30.282Z</time></trkpt><trkpt lat="42.0980867" lon="13.4305917"><ele>938.8</ele><time>2026-05-02T14:14:31.282Z</time></trkpt><trkpt lat="42.0980317" lon="13.4305117"><ele>939.4</ele><time>2026-05-02T14:14:32.282Z</time></trkpt><trkpt lat="42.0979817" lon="13.4304217"><ele>940.0</ele><time>2026-05-02T14:14:33.282Z</time></trkpt><trkpt lat="42.097935" lon="13.4303167"><ele>940.0</ele><time>2026-05-02T14:14:34.282Z</time></trkpt><trkpt lat="42.0978817" lon="13.430205"><ele>940.0</ele><time>2026-05-02T14:14:35.282Z</time></trkpt><trkpt lat="42.097835" lon="13.4300917"><ele>940.0</ele><time>2026-05-02T14:14:36.282Z</time></trkpt><trkpt lat="42.0977833" lon="13.4299833"><ele>940.0</ele><time>2026-05-02T14:14:37.282Z</time></trkpt><trkpt lat="42.0977433" lon="13.4298833"><ele>940.0</ele><time>2026-05-02T14:14:38.282Z</time></trkpt><trkpt lat="42.09769" lon="13.429765"><ele>938.6</ele><time>2026-05-02T14:14:39.282Z</time></trkpt><trkpt lat="42.0976533" lon="13.4296367"><ele>937.2</ele><time>2026-05-02T14:14:40.282Z</time></trkpt><trkpt lat="42.097615" lon="13.429515"><ele>935.8</ele><time>2026-05-02T14:14:41.282Z</time></trkpt><trkpt lat="42.0975983" lon="13.4293983"><ele>934.4</ele><time>2026-05-02T14:14:42.282Z</time></trkpt><trkpt lat="42.09757" lon="13.42927"><ele>933.0</ele><time>2026-05-02T14:14:43.282Z</time></trkpt><trkpt lat="42.0975467" lon="13.4291217"><ele>933.0</ele><time>2026-05-02T14:14:44.282Z</time></trkpt><trkpt lat="42.0975133" lon="13.4289667"><ele>933.0</ele><time>2026-05-02T14:14:45.282Z</time></trkpt><trkpt lat="42.0974767" lon="13.4288267"><ele>933.0</ele><time>2026-05-02T14:14:46.282Z</time></trkpt><trkpt lat="42.09745" lon="13.4286933"><ele>933.0</ele><time>2026-05-02T14:14:47.282Z</time></trkpt><trkpt lat="42.097415" lon="13.4285667"><ele>933.0</ele><time>2026-05-02T14:14:48.282Z</time></trkpt><trkpt lat="42.0973733" lon="13.4284467"><ele>933.1666666666666</ele><time>2026-05-02T14:14:49.282Z</time></trkpt><trkpt lat="42.0973383" lon="13.4283417"><ele>933.3333333333333</ele><time>2026-05-02T14:14:50.282Z</time></trkpt><trkpt lat="42.0973083" lon="13.4282467"><ele>933.5</ele><time>2026-05-02T14:14:51.282Z</time></trkpt><trkpt lat="42.097275" lon="13.4281617"><ele>933.6666666666666</ele><time>2026-05-02T14:14:52.282Z</time></trkpt><trkpt lat="42.0972633" lon="13.42807"><ele>933.8333333333333</ele><time>2026-05-02T14:14:53.282Z</time></trkpt><trkpt lat="42.0972433" lon="13.4279717"><ele>934.0</ele><time>2026-05-02T14:14:54.282Z</time></trkpt><trkpt lat="42.09721" lon="13.4278567"><ele>933.9999999999999</ele><time>2026-05-02T14:14:55.282Z</time></trkpt><trkpt lat="42.0971867" lon="13.42776"><ele>934.0</ele><time>2026-05-02T14:14:56.282Z</time></trkpt><trkpt lat="42.0971733" lon="13.427665"><ele>934.0</ele><time>2026-05-02T14:14:57.282Z</time></trkpt><trkpt lat="42.0971583" lon="13.42757"><ele>934.0</ele><time>2026-05-02T14:14:58.283Z</time></trkpt><trkpt lat="42.0971367" lon="13.4274817"><ele>933.9999999999999</ele><time>2026-05-02T14:14:59.282Z</time></trkpt><trkpt lat="42.0971117" lon="13.4273583"><ele>934.0</ele><time>2026-05-02T14:15:00.282Z</time></trkpt><trkpt lat="42.0970817" lon="13.4272233"><ele>932.8333333333333</ele><time>2026-05-02T14:15:01.282Z</time></trkpt><trkpt lat="42.09706" lon="13.4270833"><ele>931.6666666666666</ele><time>2026-05-02T14:15:02.283Z</time></trkpt><trkpt lat="42.09704" lon="13.42696"><ele>930.5</ele><time>2026-05-02T14:15:03.282Z</time></trkpt><trkpt lat="42.0970183" lon="13.4268517"><ele>929.3333333333333</ele><time>2026-05-02T14:15:04.282Z</time></trkpt><trkpt lat="42.0969933" lon="13.4267433"><ele>928.1666666666666</ele><time>2026-05-02T14:15:05.282Z</time></trkpt><trkpt lat="42.09698" lon="13.426645"><ele>927.0</ele><time>2026-05-02T14:15:06.283Z</time></trkpt><trkpt lat="42.0969667" lon="13.4265433"><ele>927.0</ele><time>2026-05-02T14:15:07.282Z</time></trkpt><trkpt lat="42.0969533" lon="13.4264367"><ele>927.0</ele><time>2026-05-02T14:15:08.282Z</time></trkpt><trkpt lat="42.0969433" lon="13.4263367"><ele>927.0</ele><time>2026-05-02T14:15:09.282Z</time></trkpt><trkpt lat="42.09693" lon="13.4262483"><ele>927.0</ele><time>2026-05-02T14:15:10.282Z</time></trkpt><trkpt lat="42.09691" lon="13.426155"><ele>927.0</ele><time>2026-05-02T14:15:11.282Z</time></trkpt><trkpt lat="42.096895" lon="13.4260383"><ele>927.0</ele><time>2026-05-02T14:15:12.282Z</time></trkpt><trkpt lat="42.0968733" lon="13.425915"><ele>926.3333333333334</ele><time>2026-05-02T14:15:13.283Z</time></trkpt><trkpt lat="42.0968517" lon="13.4258017"><ele>925.6666666666667</ele><time>2026-05-02T14:15:14.282Z</time></trkpt><trkpt lat="42.0968283" lon="13.4256917"><ele>925.0</ele><time>2026-05-02T14:15:15.282Z</time></trkpt><trkpt lat="42.0968133" lon="13.4256083"><ele>924.3333333333334</ele><time>2026-05-02T14:15:16.282Z</time></trkpt><trkpt lat="42.0968067" lon="13.4255167"><ele>923.6666666666667</ele><time>2026-05-02T14:15:17.282Z</time></trkpt><trkpt lat="42.0967817" lon="13.4254133"><ele>923.0</ele><time>2026-05-02T14:15:18.283Z</time></trkpt><trkpt lat="42.096745" lon="13.4252983"><ele>922.2</ele><time>2026-05-02T14:15:19.282Z</time></trkpt><trkpt lat="42.0967067" lon="13.4251667"><ele>921.4</ele><time>2026-05-02T14:15:20.282Z</time></trkpt><trkpt lat="42.0966683" lon="13.42503"><ele>920.6000000000001</ele><time>2026-05-02T14:15:21.282Z</time></trkpt><trkpt lat="42.09663" lon="13.4249017"><ele>919.8000000000001</ele><time>2026-05-02T14:15:22.282Z</time></trkpt><trkpt lat="42.0965883" lon="13.4247833"><ele>919.0</ele><time>2026-05-02T14:15:23.282Z</time></trkpt><trkpt lat="42.096545" lon="13.4246683"><ele>919.4000000000001</ele><time>2026-05-02T14:15:24.282Z</time></trkpt><trkpt lat="42.0965017" lon="13.4245533"><ele>919.8000000000001</ele><time>2026-05-02T14:15:25.282Z</time></trkpt><trkpt lat="42.0964533" lon="13.4244417"><ele>920.1999999999999</ele><time>2026-05-02T14:15:26.282Z</time></trkpt><trkpt lat="42.096405" lon="13.42434"><ele>920.5999999999999</ele><time>2026-05-02T14:15:27.282Z</time></trkpt><trkpt lat="42.0963633" lon="13.424245"><ele>921.0</ele><time>2026-05-02T14:15:28.282Z</time></trkpt><trkpt lat="42.0963083" lon="13.4241533"><ele>921.0</ele><time>2026-05-02T14:15:29.282Z</time></trkpt><trkpt lat="42.0962533" lon="13.42407"><ele>920.9999999999999</ele><time>2026-05-02T14:15:30.282Z</time></trkpt><trkpt lat="42.0962017" lon="13.42398"><ele>920.9999999999999</ele><time>2026-05-02T14:15:31.282Z</time></trkpt><trkpt lat="42.0961467" lon="13.42388"><ele>921.0</ele><time>2026-05-02T14:15:32.282Z</time></trkpt><trkpt lat="42.0960867" lon="13.4237783"><ele>921.0</ele><time>2026-05-02T14:15:33.282Z</time></trkpt><trkpt lat="42.096025" lon="13.4236783"><ele>919.4</ele><time>2026-05-02T14:15:34.282Z</time></trkpt><trkpt lat="42.0959683" lon="13.4235717"><ele>917.8</ele><time>2026-05-02T14:15:35.282Z</time></trkpt><trkpt lat="42.0959167" lon="13.4234683"><ele>916.1999999999999</ele><time>2026-05-02T14:15:36.282Z</time></trkpt><trkpt lat="42.0958767" lon="13.4233467"><ele>914.5999999999999</ele><time>2026-05-02T14:15:37.282Z</time></trkpt><trkpt lat="42.09583" lon="13.42323"><ele>913.0</ele><time>2026-05-02T14:15:38.283Z</time></trkpt><trkpt lat="42.0957983" lon="13.4231133"><ele>913.0</ele><time>2026-05-02T14:15:39.282Z</time></trkpt><trkpt lat="42.0957633" lon="13.4230133"><ele>913.0</ele><time>2026-05-02T14:15:40.282Z</time></trkpt><trkpt lat="42.0957233" lon="13.422895"><ele>913.0</ele><time>2026-05-02T14:15:41.282Z</time></trkpt><trkpt lat="42.0956933" lon="13.422765"><ele>913.0</ele><time>2026-05-02T14:15:42.282Z</time></trkpt><trkpt lat="42.0956683" lon="13.422645"><ele>913.0</ele><time>2026-05-02T14:15:43.282Z</time></trkpt><trkpt lat="42.095655" lon="13.4225167"><ele>915.25</ele><time>2026-05-02T14:15:44.282Z</time></trkpt><trkpt lat="42.09564" lon="13.4223817"><ele>917.5</ele><time>2026-05-02T14:15:45.282Z</time></trkpt><trkpt lat="42.0956317" lon="13.4222267"><ele>919.75</ele><time>2026-05-02T14:15:46.283Z</time></trkpt><trkpt lat="42.09562" lon="13.4220633"><ele>922.0</ele><time>2026-05-02T14:15:47.282Z</time></trkpt><trkpt lat="42.0956083" lon="13.4219083"><ele>922.0</ele><time>2026-05-02T14:15:48.282Z</time></trkpt><trkpt lat="42.0956017" lon="13.42175"><ele>922.0</ele><time>2026-05-02T14:15:49.282Z</time></trkpt><trkpt lat="42.0955933" lon="13.42159"><ele>922.0</ele><time>2026-05-02T14:15:50.282Z</time></trkpt><trkpt lat="42.0955883" lon="13.42143"><ele>922.0</ele><time>2026-05-02T14:15:51.283Z</time></trkpt><trkpt lat="42.0955817" lon="13.4212783"><ele>920.4000000000001</ele><time>2026-05-02T14:15:52.282Z</time></trkpt><trkpt lat="42.0955783" lon="13.4211267"><ele>918.8000000000001</ele><time>2026-05-02T14:15:53.282Z</time></trkpt><trkpt lat="42.0955733" lon="13.4209617"><ele>917.2</ele><time>2026-05-02T14:15:54.282Z</time></trkpt><trkpt lat="42.0955717" lon="13.42082"><ele>915.6</ele><time>2026-05-02T14:15:55.282Z</time></trkpt><trkpt lat="42.09557" lon="13.420675"><ele>914.0</ele><time>2026-05-02T14:15:56.282Z</time></trkpt><trkpt lat="42.0955733" lon="13.420535"><ele>913.8333333333334</ele><time>2026-05-02T14:15:57.282Z</time></trkpt><trkpt lat="42.095575" lon="13.4204117"><ele>913.6666666666667</ele><time>2026-05-02T14:15:58.282Z</time></trkpt><trkpt lat="42.09557" lon="13.4202783"><ele>913.5</ele><time>2026-05-02T14:15:59.282Z</time></trkpt><trkpt lat="42.09555" lon="13.4201517"><ele>913.3333333333333</ele><time>2026-05-02T14:16:00.282Z</time></trkpt><trkpt lat="42.0955333" lon="13.4200483"><ele>913.1666666666666</ele><time>2026-05-02T14:16:01.283Z</time></trkpt><trkpt lat="42.0955133" lon="13.4199583"><ele>913.0</ele><time>2026-05-02T14:16:02.283Z</time></trkpt><trkpt lat="42.09551" lon="13.4198717"><ele>912.9999999999999</ele><time>2026-05-02T14:16:03.282Z</time></trkpt><trkpt lat="42.095505" lon="13.419785"><ele>913.0</ele><time>2026-05-02T14:16:04.282Z</time></trkpt><trkpt lat="42.09551" lon="13.4196933"><ele>913.0</ele><time>2026-05-02T14:16:05.282Z</time></trkpt><trkpt lat="42.0955083" lon="13.41959"><ele>913.0</ele><time>2026-05-02T14:16:06.282Z</time></trkpt><trkpt lat="42.09551" lon="13.41948"><ele>912.9999999999999</ele><time>2026-05-02T14:16:07.282Z</time></trkpt><trkpt lat="42.0955117" lon="13.4193717"><ele>913.0</ele><time>2026-05-02T14:16:08.282Z</time></trkpt><trkpt lat="42.0955117" lon="13.419245"><ele>912.3333333333333</ele><time>2026-05-02T14:16:09.283Z</time></trkpt><trkpt lat="42.095515" lon="13.4191167"><ele>911.6666666666666</ele><time>2026-05-02T14:16:10.282Z</time></trkpt><trkpt lat="42.0955133" lon="13.4189933"><ele>911.0</ele><time>2026-05-02T14:16:11.283Z</time></trkpt><trkpt lat="42.095515" lon="13.4188817"><ele>910.3333333333333</ele><time>2026-05-02T14:16:12.282Z</time></trkpt><trkpt lat="42.0955083" lon="13.4187767"><ele>909.6666666666666</ele><time>2026-05-02T14:16:13.282Z</time></trkpt><trkpt lat="42.0955" lon="13.418675"><ele>909.0</ele><time>2026-05-02T14:16:14.282Z</time></trkpt><trkpt lat="42.0955" lon="13.4185767"><ele>908.1666666666666</ele><time>2026-05-02T14:16:15.282Z</time></trkpt><trkpt lat="42.0954983" lon="13.4184633"><ele>907.3333333333333</ele><time>2026-05-02T14:16:16.282Z</time></trkpt><trkpt lat="42.095495" lon="13.4183633"><ele>906.5</ele><time>2026-05-02T14:16:17.282Z</time></trkpt><trkpt lat="42.095495" lon="13.418245"><ele>905.6666666666666</ele><time>2026-05-02T14:16:18.282Z</time></trkpt><trkpt lat="42.0954917" lon="13.418135"><ele>904.8333333333333</ele><time>2026-05-02T14:16:19.282Z</time></trkpt><trkpt lat="42.0954933" lon="13.41804"><ele>904.0</ele><time>2026-05-02T14:16:20.282Z</time></trkpt><trkpt lat="42.0954933" lon="13.4179517"><ele>903.1666666666666</ele><time>2026-05-02T14:16:21.282Z</time></trkpt><trkpt lat="42.0954883" lon="13.4178583"><ele>902.3333333333333</ele><time>2026-05-02T14:16:22.282Z</time></trkpt><trkpt lat="42.0954667" lon="13.4177517"><ele>901.5</ele><time>2026-05-02T14:16:23.283Z</time></trkpt><trkpt lat="42.095445" lon="13.41765"><ele>900.6666666666667</ele><time>2026-05-02T14:16:24.282Z</time></trkpt><trkpt lat="42.0954167" lon="13.417545"><ele>899.8333333333334</ele><time>2026-05-02T14:16:25.282Z</time></trkpt><trkpt lat="42.095385" lon="13.41742"><ele>899.0</ele><time>2026-05-02T14:16:26.282Z</time></trkpt><trkpt lat="42.0953583" lon="13.41729"><ele>897.8000000000001</ele><time>2026-05-02T14:16:27.282Z</time></trkpt><trkpt lat="42.09533" lon="13.4171433"><ele>896.6000000000001</ele><time>2026-05-02T14:16:28.282Z</time></trkpt><trkpt lat="42.0953067" lon="13.416995"><ele>895.4</ele><time>2026-05-02T14:16:29.282Z</time></trkpt><trkpt lat="42.09528" lon="13.41686"><ele>894.2</ele><time>2026-05-02T14:16:30.282Z</time></trkpt><trkpt lat="42.0952533" lon="13.4167467"><ele>893.0</ele><time>2026-05-02T14:16:31.282Z</time></trkpt><trkpt lat="42.0952217" lon="13.41661"><ele>893.0</ele><time>2026-05-02T14:16:33.282Z</time></trkpt><trkpt lat="42.09522" lon="13.4165183"><ele>893.0</ele><time>2026-05-02T14:16:35.282Z</time></trkpt><trkpt lat="42.0953083" lon="13.4164683"><ele>893.0</ele><time>2026-05-02T14:16:38.282Z</time></trkpt><trkpt lat="42.0954083" lon="13.4164233"><ele>893.0</ele><time>2026-05-02T14:16:40.282Z</time></trkpt><trkpt lat="42.0955033" lon="13.416315"><ele>893.0</ele><time>2026-05-02T14:16:42.282Z</time></trkpt><trkpt lat="42.0955533" lon="13.4162417"><ele>892.1666666666667</ele><time>2026-05-02T14:16:43.282Z</time></trkpt><trkpt lat="42.0955967" lon="13.4161633"><ele>891.3333333333334</ele><time>2026-05-02T14:16:44.282Z</time></trkpt><trkpt lat="42.0956267" lon="13.4160867"><ele>890.5</ele><time>2026-05-02T14:16:45.283Z</time></trkpt><trkpt lat="42.095655" lon="13.41592"><ele>889.6666666666667</ele><time>2026-05-02T14:16:47.282Z</time></trkpt><trkpt lat="42.0956617" lon="13.4158183"><ele>888.8333333333334</ele><time>2026-05-02T14:16:48.282Z</time></trkpt><trkpt lat="42.0956717" lon="13.41571"><ele>888.0</ele><time>2026-05-02T14:16:49.282Z</time></trkpt><trkpt lat="42.0956817" lon="13.41561"><ele>888.0</ele><time>2026-05-02T14:16:50.282Z</time></trkpt><trkpt lat="42.0957067" lon="13.4155267"><ele>888.0</ele><time>2026-05-02T14:16:51.283Z</time></trkpt><trkpt lat="42.0957433" lon="13.41545"><ele>888.0</ele><time>2026-05-02T14:16:52.282Z</time></trkpt><trkpt lat="42.09579" lon="13.4153717"><ele>888.0</ele><time>2026-05-02T14:16:53.283Z</time></trkpt><trkpt lat="42.095845" lon="13.415285"><ele>888.0</ele><time>2026-05-02T14:16:54.282Z</time></trkpt><trkpt lat="42.09591" lon="13.4152"><ele>888.0</ele><time>2026-05-02T14:16:55.282Z</time></trkpt><trkpt lat="42.095975" lon="13.4151117"><ele>889.1666666666666</ele><time>2026-05-02T14:16:56.282Z</time></trkpt><trkpt lat="42.0960317" lon="13.415035"><ele>890.3333333333333</ele><time>2026-05-02T14:16:57.282Z</time></trkpt><trkpt lat="42.0960867" lon="13.4149717"><ele>891.5</ele><time>2026-05-02T14:16:58.282Z</time></trkpt><trkpt lat="42.0961433" lon="13.4149033"><ele>892.6666666666666</ele><time>2026-05-02T14:16:59.282Z</time></trkpt><trkpt lat="42.096215" lon="13.4148433"><ele>893.8333333333333</ele><time>2026-05-02T14:17:00.282Z</time></trkpt><trkpt lat="42.096285" lon="13.4147933"><ele>895.0</ele><time>2026-05-02T14:17:01.282Z</time></trkpt><trkpt lat="42.096365" lon="13.41474"><ele>895.0</ele><time>2026-05-02T14:17:02.282Z</time></trkpt><trkpt lat="42.0964583" lon="13.4146717"><ele>895.0</ele><time>2026-05-02T14:17:03.282Z</time></trkpt><trkpt lat="42.096555" lon="13.414605"><ele>895.0</ele><time>2026-05-02T14:17:04.282Z</time></trkpt><trkpt lat="42.0966383" lon="13.4145467"><ele>895.0</ele><time>2026-05-02T14:17:05.282Z</time></trkpt><trkpt lat="42.096725" lon="13.4145017"><ele>895.0</ele><time>2026-05-02T14:17:06.282Z</time></trkpt><trkpt lat="42.0967967" lon="13.4144583"><ele>895.8</ele><time>2026-05-02T14:17:07.282Z</time></trkpt><trkpt lat="42.096875" lon="13.4144167"><ele>896.6</ele><time>2026-05-02T14:17:08.282Z</time></trkpt><trkpt lat="42.096955" lon="13.4143883"><ele>897.4000000000001</ele><time>2026-05-02T14:17:09.282Z</time></trkpt><trkpt lat="42.0970383" lon="13.414365"><ele>898.2</ele><time>2026-05-02T14:17:10.282Z</time></trkpt><trkpt lat="42.0971367" lon="13.4142983"><ele>899.0</ele><time>2026-05-02T14:17:11.282Z</time></trkpt><trkpt lat="42.0972167" lon="13.4142283"><ele>899.0000000000001</ele><time>2026-05-02T14:17:12.282Z</time></trkpt><trkpt lat="42.0973" lon="13.4141433"><ele>899.0</ele><time>2026-05-02T14:17:13.282Z</time></trkpt><trkpt lat="42.0973767" lon="13.4140617"><ele>899.0</ele><time>2026-05-02T14:17:14.282Z</time></trkpt><trkpt lat="42.0974333" lon="13.413995"><ele>899.0</ele><time>2026-05-02T14:17:15.282Z</time></trkpt><trkpt lat="42.0974933" lon="13.4139383"><ele>899.0000000000001</ele><time>2026-05-02T14:17:16.282Z</time></trkpt><trkpt lat="42.09756" lon="13.4138917"><ele>899.0</ele><time>2026-05-02T14:17:17.282Z</time></trkpt><trkpt lat="42.0976317" lon="13.4138567"><ele>898.6666666666667</ele><time>2026-05-02T14:17:18.282Z</time></trkpt><trkpt lat="42.0977217" lon="13.4138233"><ele>898.3333333333334</ele><time>2026-05-02T14:17:19.282Z</time></trkpt><trkpt lat="42.0978117" lon="13.4137817"><ele>898.0</ele><time>2026-05-02T14:17:20.282Z</time></trkpt><trkpt lat="42.09789" lon="13.41375"><ele>897.6666666666667</ele><time>2026-05-02T14:17:21.282Z</time></trkpt><trkpt lat="42.09796" lon="13.41374"><ele>897.3333333333334</ele><time>2026-05-02T14:17:22.282Z</time></trkpt><trkpt lat="42.0980283" lon="13.413725"><ele>897.0</ele><time>2026-05-02T14:17:23.282Z</time></trkpt><trkpt lat="42.0981033" lon="13.4137183"><ele>897.0</ele><time>2026-05-02T14:17:24.282Z</time></trkpt><trkpt lat="42.098175" lon="13.4137367"><ele>897.0</ele><time>2026-05-02T14:17:25.282Z</time></trkpt><trkpt lat="42.0982383" lon="13.4137617"><ele>897.0</ele><time>2026-05-02T14:17:26.282Z</time></trkpt><trkpt lat="42.098305" lon="13.4137967"><ele>897.0</ele><time>2026-05-02T14:17:27.282Z</time></trkpt><trkpt lat="42.0983883" lon="13.41384"><ele>897.0</ele><time>2026-05-02T14:17:28.282Z</time></trkpt><trkpt lat="42.098475" lon="13.4138917"><ele>897.0</ele><time>2026-05-02T14:17:29.282Z</time></trkpt><trkpt lat="42.09856" lon="13.413945"><ele>897.8333333333334</ele><time>2026-05-02T14:17:30.282Z</time></trkpt><trkpt lat="42.0986367" lon="13.4139933"><ele>898.6666666666667</ele><time>2026-05-02T14:17:31.282Z</time></trkpt><trkpt lat="42.0987117" lon="13.4140383"><ele>899.5</ele><time>2026-05-02T14:17:32.282Z</time></trkpt><trkpt lat="42.09878" lon="13.4140817"><ele>900.3333333333334</ele><time>2026-05-02T14:17:33.282Z</time></trkpt><trkpt lat="42.098845" lon="13.4141267"><ele>901.1666666666667</ele><time>2026-05-02T14:17:34.282Z</time></trkpt><trkpt lat="42.0989367" lon="13.4141833"><ele>902.0</ele><time>2026-05-02T14:17:36.282Z</time></trkpt><trkpt lat="42.0989967" lon="13.4142433"><ele>902.0000000000001</ele><time>2026-05-02T14:17:46.282Z</time></trkpt><trkpt lat="42.0990783" lon="13.4143217"><ele>902.0</ele><time>2026-05-02T14:17:48.282Z</time></trkpt><trkpt lat="42.0991167" lon="13.4144017"><ele>902.0</ele><time>2026-05-02T14:17:50.282Z</time></trkpt><trkpt lat="42.0991183" lon="13.4144983"><ele>902.0</ele><time>2026-05-02T14:17:53.282Z</time></trkpt><trkpt lat="42.0990583" lon="13.4144633"><ele>902.0000000000001</ele><time>2026-05-02T14:18:23.282Z</time></trkpt><trkpt lat="42.0990383" lon="13.4143717"><ele>902.0</ele><time>2026-05-02T14:18:26.282Z</time></trkpt><trkpt lat="42.0990083" lon="13.4142583"><ele>902.0000000000001</ele><time>2026-05-02T14:18:28.282Z</time></trkpt><trkpt lat="42.098945" lon="13.4142"><ele>902.0</ele><time>2026-05-02T14:18:30.283Z</time></trkpt><trkpt lat="42.0988867" lon="13.414155"><ele>902.0</ele><time>2026-05-02T14:18:31.282Z</time></trkpt><trkpt lat="42.0988167" lon="13.414115"><ele>902.0</ele><time>2026-05-02T14:18:32.282Z</time></trkpt><trkpt lat="42.0987333" lon="13.4140617"><ele>902.0000000000001</ele><time>2026-05-02T14:18:33.282Z</time></trkpt><trkpt lat="42.0986417" lon="13.4140117"><ele>902.0</ele><time>2026-05-02T14:18:34.282Z</time></trkpt><trkpt lat="42.09857" lon="13.41395"><ele>902.0000000000001</ele><time>2026-05-02T14:18:35.282Z</time></trkpt><trkpt lat="42.09851" lon="13.413905"><ele>902.0</ele><time>2026-05-02T14:18:36.282Z</time></trkpt><trkpt lat="42.098425" lon="13.4138483"><ele>902.0</ele><time>2026-05-02T14:18:38.282Z</time></trkpt><trkpt lat="42.0983433" lon="13.4138"><ele>902.0</ele><time>2026-05-02T14:18:40.282Z</time></trkpt><trkpt lat="42.098235" lon="13.4137583"><ele>902.0000000000001</ele><time>2026-05-02T14:18:42.282Z</time></trkpt><trkpt lat="42.0981617" lon="13.41372"><ele>902.0</ele><time>2026-05-02T14:18:44.282Z</time></trkpt><trkpt lat="42.0981833" lon="13.413635"><ele>901.2</ele><time>2026-05-02T14:18:47.282Z</time></trkpt><trkpt lat="42.098275" lon="13.41355"><ele>900.4000000000001</ele><time>2026-05-02T14:18:49.282Z</time></trkpt><trkpt lat="42.0983433" lon="13.4134967"><ele>899.5999999999999</ele><time>2026-05-02T14:18:50.282Z</time></trkpt><trkpt lat="42.0984283" lon="13.4134317"><ele>898.8</ele><time>2026-05-02T14:18:51.283Z</time></trkpt><trkpt lat="42.098525" lon="13.41334"><ele>898.0</ele><time>2026-05-02T14:18:52.283Z</time></trkpt><trkpt lat="42.09863" lon="13.413235"><ele>898.0</ele><time>2026-05-02T14:18:53.282Z</time></trkpt><trkpt lat="42.0987267" lon="13.4131317"><ele>898.0</ele><time>2026-05-02T14:18:54.282Z</time></trkpt><trkpt lat="42.0988083" lon="13.4130317"><ele>898.0</ele><time>2026-05-02T14:18:55.282Z</time></trkpt><trkpt lat="42.0988883" lon="13.412925"><ele>898.0</ele><time>2026-05-02T14:18:56.282Z</time></trkpt><trkpt lat="42.0989733" lon="13.412815"><ele>897.4</ele><time>2026-05-02T14:18:57.282Z</time></trkpt><trkpt lat="42.09905" lon="13.4127033"><ele>896.8</ele><time>2026-05-02T14:18:58.283Z</time></trkpt><trkpt lat="42.09912" lon="13.4125933"><ele>896.2</ele><time>2026-05-02T14:18:59.282Z</time></trkpt><trkpt lat="42.0991817" lon="13.4124833"><ele>895.6</ele><time>2026-05-02T14:19:00.282Z</time></trkpt><trkpt lat="42.09924" lon="13.4123783"><ele>895.0</ele><time>2026-05-02T14:19:01.282Z</time></trkpt><trkpt lat="42.0992883" lon="13.4122667"><ele>893.8</ele><time>2026-05-02T14:19:02.282Z</time></trkpt><trkpt lat="42.09933" lon="13.41214"><ele>892.6</ele><time>2026-05-02T14:19:03.282Z</time></trkpt><trkpt lat="42.0993717" lon="13.4120233"><ele>891.4000000000001</ele><time>2026-05-02T14:19:04.282Z</time></trkpt><trkpt lat="42.0994267" lon="13.4119167"><ele>890.2</ele><time>2026-05-02T14:19:05.282Z</time></trkpt><trkpt lat="42.0994833" lon="13.4118383"><ele>889.0</ele><time>2026-05-02T14:19:06.282Z</time></trkpt><trkpt lat="42.09954" lon="13.41174"><ele>889.0</ele><time>2026-05-02T14:19:07.282Z</time></trkpt><trkpt lat="42.0996017" lon="13.4116367"><ele>889.0000000000001</ele><time>2026-05-02T14:19:08.282Z</time></trkpt><trkpt lat="42.0996567" lon="13.4115517"><ele>889.0000000000001</ele><time>2026-05-02T14:19:09.283Z</time></trkpt><trkpt lat="42.09971" lon="13.4114817"><ele>889.0</ele><time>2026-05-02T14:19:10.282Z</time></trkpt><trkpt lat="42.09982" lon="13.41141"><ele>889.0</ele><time>2026-05-02T14:19:12.282Z</time></trkpt><trkpt lat="42.0998933" lon="13.4113833"><ele>888.8000000000001</ele><time>2026-05-02T14:19:13.282Z</time></trkpt><trkpt lat="42.0999517" lon="13.4113317"><ele>888.6000000000001</ele><time>2026-05-02T14:19:14.282Z</time></trkpt><trkpt lat="42.1000183" lon="13.4112467"><ele>888.4</ele><time>2026-05-02T14:19:15.282Z</time></trkpt><trkpt lat="42.1000983" lon="13.41113"><ele>888.2</ele><time>2026-05-02T14:19:16.282Z</time></trkpt><trkpt lat="42.1001867" lon="13.411"><ele>888.0</ele><time>2026-05-02T14:19:17.282Z</time></trkpt><trkpt lat="42.1002683" lon="13.4108683"><ele>887.0</ele><time>2026-05-02T14:19:18.282Z</time></trkpt><trkpt lat="42.1003333" lon="13.4107467"><ele>886.0</ele><time>2026-05-02T14:19:19.282Z</time></trkpt><trkpt lat="42.1004067" lon="13.4106167"><ele>885.0</ele><time>2026-05-02T14:19:20.282Z</time></trkpt><trkpt lat="42.1005517" lon="13.4103817"><ele>884.0</ele><time>2026-05-02T14:19:22.282Z</time></trkpt><trkpt lat="42.1006033" lon="13.4102567"><ele>883.0</ele><time>2026-05-02T14:19:23.282Z</time></trkpt><trkpt lat="42.10066" lon="13.41012"><ele>882.0</ele><time>2026-05-02T14:19:24.282Z</time></trkpt><trkpt lat="42.100715" lon="13.4099783"><ele>881.0</ele><time>2026-05-02T14:19:25.282Z</time></trkpt><trkpt lat="42.1007683" lon="13.40983"><ele>880.8</ele><time>2026-05-02T14:19:26.282Z</time></trkpt><trkpt lat="42.10082" lon="13.4096967"><ele>880.5999999999999</ele><time>2026-05-02T14:19:27.283Z</time></trkpt><trkpt lat="42.100865" lon="13.4095583"><ele>880.4</ele><time>2026-05-02T14:19:28.282Z</time></trkpt><trkpt lat="42.1009117" lon="13.409415"><ele>880.2</ele><time>2026-05-02T14:19:29.282Z</time></trkpt><trkpt lat="42.100955" lon="13.409285"><ele>880.0</ele><time>2026-05-02T14:19:30.283Z</time></trkpt><trkpt lat="42.1010083" lon="13.4091367"><ele>879.0</ele><time>2026-05-02T14:19:31.282Z</time></trkpt><trkpt lat="42.1010617" lon="13.4090067"><ele>878.0</ele><time>2026-05-02T14:19:32.282Z</time></trkpt><trkpt lat="42.10111" lon="13.40889"><ele>877.0</ele><time>2026-05-02T14:19:33.282Z</time></trkpt><trkpt lat="42.1011617" lon="13.4087567"><ele>876.0</ele><time>2026-05-02T14:19:34.283Z</time></trkpt><trkpt lat="42.101205" lon="13.4086417"><ele>875.0</ele><time>2026-05-02T14:19:35.282Z</time></trkpt><trkpt lat="42.1012467" lon="13.4085217"><ele>874.0</ele><time>2026-05-02T14:19:36.282Z</time></trkpt><trkpt lat="42.1012867" lon="13.4083983"><ele>873.0</ele><time>2026-05-02T14:19:37.282Z</time></trkpt><trkpt lat="42.1013217" lon="13.4082833"><ele>872.0</ele><time>2026-05-02T14:19:38.282Z</time></trkpt><trkpt lat="42.10136" lon="13.4081883"><ele>871.0</ele><time>2026-05-02T14:19:39.282Z</time></trkpt><trkpt lat="42.101395" lon="13.4080667"><ele>870.0</ele><time>2026-05-02T14:19:40.282Z</time></trkpt><trkpt lat="42.1014183" lon="13.40794"><ele>869.5</ele><time>2026-05-02T14:19:41.282Z</time></trkpt><trkpt lat="42.1014433" lon="13.4077933"><ele>869.0</ele><time>2026-05-02T14:19:42.282Z</time></trkpt><trkpt lat="42.1014833" lon="13.40767"><ele>868.5</ele><time>2026-05-02T14:19:43.283Z</time></trkpt><trkpt lat="42.1015417" lon="13.4075083"><ele>868.0</ele><time>2026-05-02T14:19:44.282Z</time></trkpt><trkpt lat="42.1015983" lon="13.407355"><ele>867.5999999999999</ele><time>2026-05-02T14:19:45.283Z</time></trkpt><trkpt lat="42.10165" lon="13.4072217"><ele>867.1999999999999</ele><time>2026-05-02T14:19:46.282Z</time></trkpt><trkpt lat="42.1017017" lon="13.40711"><ele>866.8</ele><time>2026-05-02T14:19:47.283Z</time></trkpt><trkpt lat="42.1017433" lon="13.4070067"><ele>866.4</ele><time>2026-05-02T14:19:48.282Z</time></trkpt><trkpt lat="42.1017817" lon="13.4069067"><ele>866.0</ele><time>2026-05-02T14:19:49.282Z</time></trkpt><trkpt lat="42.101825" lon="13.4068133"><ele>865.0000000000001</ele><time>2026-05-02T14:19:50.282Z</time></trkpt><trkpt lat="42.1018733" lon="13.4067267"><ele>864.0</ele><time>2026-05-02T14:19:51.282Z</time></trkpt><trkpt lat="42.101925" lon="13.4066617"><ele>863.0</ele><time>2026-05-02T14:19:52.282Z</time></trkpt><trkpt lat="42.1019783" lon="13.4065983"><ele>862.0</ele><time>2026-05-02T14:19:53.282Z</time></trkpt><trkpt lat="42.1020483" lon="13.4065333"><ele>861.0000000000001</ele><time>2026-05-02T14:19:54.282Z</time></trkpt><trkpt lat="42.1021267" lon="13.4064683"><ele>860.0</ele><time>2026-05-02T14:19:55.282Z</time></trkpt><trkpt lat="42.102195" lon="13.4064083"><ele>860.0000000000001</ele><time>2026-05-02T14:19:56.282Z</time></trkpt><trkpt lat="42.102265" lon="13.4063417"><ele>860.0</ele><time>2026-05-02T14:19:57.282Z</time></trkpt><trkpt lat="42.102325" lon="13.4062767"><ele>860.0</ele><time>2026-05-02T14:19:58.282Z</time></trkpt><trkpt lat="42.1023783" lon="13.4061983"><ele>860.0</ele><time>2026-05-02T14:19:59.282Z</time></trkpt><trkpt lat="42.10243" lon="13.4061183"><ele>860.0000000000001</ele><time>2026-05-02T14:20:00.282Z</time></trkpt><trkpt lat="42.10248" lon="13.4060233"><ele>860.0</ele><time>2026-05-02T14:20:01.283Z</time></trkpt><trkpt lat="42.1025283" lon="13.40595"><ele>859.0000000000001</ele><time>2026-05-02T14:20:02.282Z</time></trkpt><trkpt lat="42.1025633" lon="13.4058733"><ele>858.0</ele><time>2026-05-02T14:20:03.282Z</time></trkpt><trkpt lat="42.1025933" lon="13.4057983"><ele>857.0</ele><time>2026-05-02T14:20:04.282Z</time></trkpt><trkpt lat="42.1026183" lon="13.4057"><ele>856.0</ele><time>2026-05-02T14:20:05.282Z</time></trkpt><trkpt lat="42.1026467" lon="13.4055867"><ele>855.0000000000001</ele><time>2026-05-02T14:20:06.282Z</time></trkpt><trkpt lat="42.10269" lon="13.4054533"><ele>854.0</ele><time>2026-05-02T14:20:07.282Z</time></trkpt><trkpt lat="42.1027333" lon="13.4053117"><ele>853.4000000000001</ele><time>2026-05-02T14:20:08.282Z</time></trkpt><trkpt lat="42.1027817" lon="13.405185"><ele>852.8000000000001</ele><time>2026-05-02T14:20:09.282Z</time></trkpt><trkpt lat="42.1028317" lon="13.40505"><ele>852.2</ele><time>2026-05-02T14:20:10.282Z</time></trkpt><trkpt lat="42.1028767" lon="13.4049283"><ele>851.5999999999999</ele><time>2026-05-02T14:20:11.283Z</time></trkpt><trkpt lat="42.1029167" lon="13.4047967"><ele>851.0</ele><time>2026-05-02T14:20:12.282Z</time></trkpt><trkpt lat="42.102955" lon="13.4046783"><ele>850.4</ele><time>2026-05-02T14:20:13.282Z</time></trkpt><trkpt lat="42.1030017" lon="13.4045417"><ele>849.8</ele><time>2026-05-02T14:20:14.282Z</time></trkpt><trkpt lat="42.103035" lon="13.4044117"><ele>849.1999999999999</ele><time>2026-05-02T14:20:15.282Z</time></trkpt><trkpt lat="42.1030783" lon="13.4042983"><ele>848.5999999999999</ele><time>2026-05-02T14:20:16.282Z</time></trkpt><trkpt lat="42.1031183" lon="13.40416"><ele>848.0</ele><time>2026-05-02T14:20:17.282Z</time></trkpt><trkpt lat="42.1031733" lon="13.404035"><ele>848.0</ele><time>2026-05-02T14:20:18.282Z</time></trkpt><trkpt lat="42.1032267" lon="13.4039117"><ele>848.0</ele><time>2026-05-02T14:20:19.282Z</time></trkpt><trkpt lat="42.1032833" lon="13.4038017"><ele>848.0</ele><time>2026-05-02T14:20:20.282Z</time></trkpt><trkpt lat="42.1033383" lon="13.4036867"><ele>848.0</ele><time>2026-05-02T14:20:21.282Z</time></trkpt><trkpt lat="42.103385" lon="13.4035967"><ele>848.0</ele><time>2026-05-02T14:20:22.282Z</time></trkpt><trkpt lat="42.10344" lon="13.4034717"><ele>847.2</ele><time>2026-05-02T14:20:23.282Z</time></trkpt><trkpt lat="42.103495" lon="13.40336"><ele>846.4</ele><time>2026-05-02T14:20:24.282Z</time></trkpt><trkpt lat="42.1035417" lon="13.4032467"><ele>845.6</ele><time>2026-05-02T14:20:25.282Z</time></trkpt><trkpt lat="42.10359" lon="13.4031317"><ele>844.8000000000001</ele><time>2026-05-02T14:20:26.282Z</time></trkpt><trkpt lat="42.10365" lon="13.403015"><ele>844.0</ele><time>2026-05-02T14:20:27.282Z</time></trkpt><trkpt lat="42.1037117" lon="13.4028767"><ele>843.2</ele><time>2026-05-02T14:20:28.282Z</time></trkpt><trkpt lat="42.1037717" lon="13.4027633"><ele>842.4000000000001</ele><time>2026-05-02T14:20:29.283Z</time></trkpt><trkpt lat="42.10383" lon="13.4026417"><ele>841.6</ele><time>2026-05-02T14:20:30.282Z</time></trkpt><trkpt lat="42.1039033" lon="13.4025317"><ele>840.8</ele><time>2026-05-02T14:20:31.282Z</time></trkpt><trkpt lat="42.1039717" lon="13.402425"><ele>840.0</ele><time>2026-05-02T14:20:32.282Z</time></trkpt><trkpt lat="42.1040467" lon="13.4023233"><ele>839.8</ele><time>2026-05-02T14:20:33.282Z</time></trkpt><trkpt lat="42.1041183" lon="13.40222"><ele>839.6</ele><time>2026-05-02T14:20:34.282Z</time></trkpt><trkpt lat="42.1041933" lon="13.4021183"><ele>839.4000000000001</ele><time>2026-05-02T14:20:35.282Z</time></trkpt><trkpt lat="42.1042633" lon="13.402"><ele>839.2</ele><time>2026-05-02T14:20:36.282Z</time></trkpt><trkpt lat="42.1043333" lon="13.4018733"><ele>839.0</ele><time>2026-05-02T14:20:37.282Z</time></trkpt><trkpt lat="42.1044017" lon="13.4017467"><ele>839.0</ele><time>2026-05-02T14:20:38.282Z</time></trkpt><trkpt lat="42.1044683" lon="13.4016367"><ele>839.0</ele><time>2026-05-02T14:20:39.282Z</time></trkpt><trkpt lat="42.1045417" lon="13.4015067"><ele>839.0</ele><time>2026-05-02T14:20:40.282Z</time></trkpt><trkpt lat="42.1046133" lon="13.401365"><ele>839.0</ele><time>2026-05-02T14:20:41.282Z</time></trkpt><trkpt lat="42.1046883" lon="13.4012383"><ele>838.75</ele><time>2026-05-02T14:20:42.282Z</time></trkpt><trkpt lat="42.1047583" lon="13.4010967"><ele>838.5</ele><time>2026-05-02T14:20:43.282Z</time></trkpt><trkpt lat="42.1048333" lon="13.400955"><ele>838.25</ele><time>2026-05-02T14:20:44.282Z</time></trkpt><trkpt lat="42.1049133" lon="13.4008117"><ele>838.0</ele><time>2026-05-02T14:20:45.282Z</time></trkpt><trkpt lat="42.1049883" lon="13.40068"><ele>838.0</ele><time>2026-05-02T14:20:46.282Z</time></trkpt><trkpt lat="42.1050467" lon="13.40056"><ele>838.0</ele><time>2026-05-02T14:20:47.282Z</time></trkpt><trkpt lat="42.1050967" lon="13.40045"><ele>838.0</ele><time>2026-05-02T14:20:48.282Z</time></trkpt><trkpt lat="42.1051567" lon="13.4003467"><ele>838.0</ele><time>2026-05-02T14:20:49.282Z</time></trkpt><trkpt lat="42.1052283" lon="13.4002283"><ele>838.0</ele><time>2026-05-02T14:20:50.282Z</time></trkpt><trkpt lat="42.1052967" lon="13.4001083"><ele>837.2</ele><time>2026-05-02T14:20:51.282Z</time></trkpt><trkpt lat="42.105365" lon="13.3999833"><ele>836.4</ele><time>2026-05-02T14:20:52.282Z</time></trkpt><trkpt lat="42.105435" lon="13.3998433"><ele>835.6</ele><time>2026-05-02T14:20:53.282Z</time></trkpt><trkpt lat="42.10549" lon="13.399715"><ele>834.8000000000001</ele><time>2026-05-02T14:20:54.282Z</time></trkpt><trkpt lat="42.10554" lon="13.3996033"><ele>834.0</ele><time>2026-05-02T14:20:55.282Z</time></trkpt><trkpt lat="42.1055833" lon="13.3994867"><ele>833.8000000000001</ele><time>2026-05-02T14:20:56.282Z</time></trkpt><trkpt lat="42.1056217" lon="13.3993633"><ele>833.6</ele><time>2026-05-02T14:20:57.282Z</time></trkpt><trkpt lat="42.1056417" lon="13.3992333"><ele>833.4</ele><time>2026-05-02T14:20:58.282Z</time></trkpt><trkpt lat="42.1056533" lon="13.3991083"><ele>833.2</ele><time>2026-05-02T14:20:59.282Z</time></trkpt><trkpt lat="42.1056533" lon="13.3990117"><ele>833.0</ele><time>2026-05-02T14:21:00.282Z</time></trkpt><trkpt lat="42.1056717" lon="13.3988483"><ele>833.0</ele><time>2026-05-02T14:21:02.282Z</time></trkpt><trkpt lat="42.1057333" lon="13.398685"><ele>833.0</ele><time>2026-05-02T14:21:04.282Z</time></trkpt><trkpt lat="42.1057767" lon="13.3985933"><ele>833.0</ele><time>2026-05-02T14:21:05.282Z</time></trkpt><trkpt lat="42.105845" lon="13.3985067"><ele>833.0</ele><time>2026-05-02T14:21:06.282Z</time></trkpt><trkpt lat="42.10593" lon="13.3984217"><ele>833.0</ele><time>2026-05-02T14:21:07.282Z</time></trkpt><trkpt lat="42.10602" lon="13.3983617"><ele>833.0</ele><time>2026-05-02T14:21:08.282Z</time></trkpt><trkpt lat="42.1061283" lon="13.3982833"><ele>833.0</ele><time>2026-05-02T14:21:09.282Z</time></trkpt><trkpt lat="42.1062383" lon="13.3982"><ele>833.0</ele><time>2026-05-02T14:21:10.282Z</time></trkpt><trkpt lat="42.1063433" lon="13.3981283"><ele>833.0</ele><time>2026-05-02T14:21:11.282Z</time></trkpt><trkpt lat="42.106435" lon="13.3980617"><ele>833.0</ele><time>2026-05-02T14:21:12.283Z</time></trkpt><trkpt lat="42.10653" lon="13.3979833"><ele>833.0</ele><time>2026-05-02T14:21:13.282Z</time></trkpt><trkpt lat="42.1066217" lon="13.3979017"><ele>833.0</ele><time>2026-05-02T14:21:14.282Z</time></trkpt><trkpt lat="42.106715" lon="13.3978083"><ele>833.0</ele><time>2026-05-02T14:21:15.282Z</time></trkpt><trkpt lat="42.1068033" lon="13.397685"><ele>833.8</ele><time>2026-05-02T14:21:16.282Z</time></trkpt><trkpt lat="42.106885" lon="13.3975517"><ele>834.5999999999999</ele><time>2026-05-02T14:21:17.282Z</time></trkpt><trkpt lat="42.1069517" lon="13.397435"><ele>835.4000000000001</ele><time>2026-05-02T14:21:18.282Z</time></trkpt><trkpt lat="42.107015" lon="13.3973267"><ele>836.2</ele><time>2026-05-02T14:21:19.282Z</time></trkpt><trkpt lat="42.1070783" lon="13.3972267"><ele>837.0</ele><time>2026-05-02T14:21:20.282Z</time></trkpt><trkpt lat="42.1071217" lon="13.3971267"><ele>837.3333333333334</ele><time>2026-05-02T14:21:21.282Z</time></trkpt><trkpt lat="42.10717" lon="13.3970467"><ele>837.6666666666667</ele><time>2026-05-02T14:21:22.282Z</time></trkpt><trkpt lat="42.1072083" lon="13.3969767"><ele>838.0</ele><time>2026-05-02T14:21:23.282Z</time></trkpt><trkpt lat="42.10723" lon="13.3968633"><ele>838.3333333333334</ele><time>2026-05-02T14:21:25.282Z</time></trkpt><trkpt lat="42.1071983" lon="13.39675"><ele>838.6666666666667</ele><time>2026-05-02T14:21:27.282Z</time></trkpt><trkpt lat="42.1071583" lon="13.396665"><ele>839.0</ele><time>2026-05-02T14:21:28.282Z</time></trkpt><trkpt lat="42.10712" lon="13.3965783"><ele>839.0</ele><time>2026-05-02T14:21:29.282Z</time></trkpt><trkpt lat="42.1070633" lon="13.396465"><ele>839.0</ele><time>2026-05-02T14:21:30.282Z</time></trkpt><trkpt lat="42.10701" lon="13.3963483"><ele>839.0</ele><time>2026-05-02T14:21:31.282Z</time></trkpt><trkpt lat="42.10696" lon="13.396235"><ele>839.0</ele><time>2026-05-02T14:21:32.282Z</time></trkpt><trkpt lat="42.1069033" lon="13.3961117"><ele>839.0</ele><time>2026-05-02T14:21:33.282Z</time></trkpt><trkpt lat="42.1068517" lon="13.3959967"><ele>840.0</ele><time>2026-05-02T14:21:34.282Z</time></trkpt><trkpt lat="42.1067933" lon="13.395875"><ele>841.0</ele><time>2026-05-02T14:21:35.282Z</time></trkpt><trkpt lat="42.106735" lon="13.3957317"><ele>842.0</ele><time>2026-05-02T14:21:36.282Z</time></trkpt><trkpt lat="42.1066717" lon="13.3956033"><ele>843.0</ele><time>2026-05-02T14:21:37.282Z</time></trkpt><trkpt lat="42.1065967" lon="13.39547"><ele>842.75</ele><time>2026-05-02T14:21:38.282Z</time></trkpt><trkpt lat="42.1065267" lon="13.39532"><ele>842.5</ele><time>2026-05-02T14:21:39.282Z</time></trkpt><trkpt lat="42.1064583" lon="13.39515"><ele>842.25</ele><time>2026-05-02T14:21:40.282Z</time></trkpt><trkpt lat="42.1063817" lon="13.3950067"><ele>842.0</ele><time>2026-05-02T14:21:41.282Z</time></trkpt><trkpt lat="42.106315" lon="13.39486"><ele>842.0</ele><time>2026-05-02T14:21:42.282Z</time></trkpt><trkpt lat="42.106265" lon="13.394705"><ele>842.0</ele><time>2026-05-02T14:21:43.282Z</time></trkpt><trkpt lat="42.1062067" lon="13.3945717"><ele>842.0</ele><time>2026-05-02T14:21:44.282Z</time></trkpt><trkpt lat="42.1061617" lon="13.394465"><ele>842.0</ele><time>2026-05-02T14:21:45.282Z</time></trkpt><trkpt lat="42.1061017" lon="13.394325"><ele>842.1666666666667</ele><time>2026-05-02T14:21:47.282Z</time></trkpt><trkpt lat="42.1060467" lon="13.3942467"><ele>842.3333333333334</ele><time>2026-05-02T14:21:50.283Z</time></trkpt><trkpt lat="42.10595" lon="13.394165"><ele>842.5</ele><time>2026-05-02T14:21:52.282Z</time></trkpt><trkpt lat="42.1058733" lon="13.394135"><ele>842.6666666666667</ele><time>2026-05-02T14:21:53.282Z</time></trkpt><trkpt lat="42.105795" lon="13.3941033"><ele>842.8333333333334</ele><time>2026-05-02T14:21:54.282Z</time></trkpt><trkpt lat="42.1057283" lon="13.39407"><ele>843.0</ele><time>2026-05-02T14:21:55.283Z</time></trkpt><trkpt lat="42.1056267" lon="13.394005"><ele>841.2</ele><time>2026-05-02T14:21:57.283Z</time></trkpt><trkpt lat="42.1055133" lon="13.393955"><ele>839.4</ele><time>2026-05-02T14:21:59.282Z</time></trkpt><trkpt lat="42.10544" lon="13.3939617"><ele>837.6</ele><time>2026-05-02T14:22:00.282Z</time></trkpt><trkpt lat="42.105355" lon="13.394"><ele>835.8000000000001</ele><time>2026-05-02T14:22:01.282Z</time></trkpt><trkpt lat="42.1052583" lon="13.394065"><ele>834.0</ele><time>2026-05-02T14:22:02.283Z</time></trkpt><trkpt lat="42.10518" lon="13.394145"><ele>834.0</ele><time>2026-05-02T14:22:03.282Z</time></trkpt><trkpt lat="42.105125" lon="13.3942"><ele>834.0</ele><time>2026-05-02T14:22:04.283Z</time></trkpt><trkpt lat="42.1050617" lon="13.3942683"><ele>834.0</ele><time>2026-05-02T14:22:06.283Z</time></trkpt><trkpt lat="42.104985" lon="13.3942767"><ele>834.0</ele><time>2026-05-02T14:22:10.283Z</time></trkpt><trkpt lat="42.10499" lon="13.3943683"><ele>834.0</ele><time>2026-05-02T14:22:14.282Z</time></trkpt><trkpt lat="42.1051117" lon="13.3942583"><ele>834.0</ele><time>2026-05-02T14:22:18.283Z</time></trkpt><trkpt lat="42.1051883" lon="13.3941867"><ele>834.0</ele><time>2026-05-02T14:22:20.282Z</time></trkpt><trkpt lat="42.105265" lon="13.3941367"><ele>834.0</ele><time>2026-05-02T14:22:22.283Z</time></trkpt><trkpt lat="42.1053283" lon="13.3940683"><ele>834.0</ele><time>2026-05-02T14:22:24.282Z</time></trkpt><trkpt lat="42.10539" lon="13.3940283"><ele>834.0</ele><time>2026-05-02T14:22:26.282Z</time></trkpt><trkpt lat="42.10539" lon="13.3939333"><ele>834.0</ele><time>2026-05-02T14:22:29.282Z</time></trkpt><trkpt lat="42.10532" lon="13.3939433"><ele>834.0</ele><time>2026-05-02T14:22:31.282Z</time></trkpt><trkpt lat="42.1052417" lon="13.3940383"><ele>834.0</ele><time>2026-05-02T14:22:33.282Z</time></trkpt><trkpt lat="42.105195" lon="13.394115"><ele>834.0</ele><time>2026-05-02T14:22:34.282Z</time></trkpt><trkpt lat="42.105155" lon="13.3941817"><ele>834.0</ele><time>2026-05-02T14:22:35.282Z</time></trkpt><trkpt lat="42.1050883" lon="13.3942983"><ele>834.0</ele><time>2026-05-02T14:22:37.283Z</time></trkpt><trkpt lat="42.1050167" lon="13.3943117"><ele>834.0</ele><time>2026-05-02T14:22:39.282Z</time></trkpt><trkpt lat="42.1049483" lon="13.3942383"><ele>834.0</ele><time>2026-05-02T14:22:41.282Z</time></trkpt><trkpt lat="42.1049317" lon="13.394075"><ele>834.0</ele><time>2026-05-02T14:22:43.282Z</time></trkpt><trkpt lat="42.1049517" lon="13.3939317"><ele>834.0</ele><time>2026-05-02T14:22:44.282Z</time></trkpt><trkpt lat="42.1049817" lon="13.3937783"><ele>834.0</ele><time>2026-05-02T14:22:45.282Z</time></trkpt><trkpt lat="42.105025" lon="13.39362"><ele>834.0</ele><time>2026-05-02T14:22:46.282Z</time></trkpt><trkpt lat="42.1050767" lon="13.39346"><ele>833.0</ele><time>2026-05-02T14:22:47.282Z</time></trkpt><trkpt lat="42.1051317" lon="13.3932833"><ele>832.0</ele><time>2026-05-02T14:22:48.282Z</time></trkpt><trkpt lat="42.1051767" lon="13.3931183"><ele>831.0</ele><time>2026-05-02T14:22:49.282Z</time></trkpt><trkpt lat="42.1052333" lon="13.392965"><ele>830.0</ele><time>2026-05-02T14:22:50.282Z</time></trkpt><trkpt lat="42.1052433" lon="13.3928333"><ele>829.0</ele><time>2026-05-02T14:22:51.282Z</time></trkpt><trkpt lat="42.105235" lon="13.3926883"><ele>828.0</ele><time>2026-05-02T14:22:52.282Z</time></trkpt><trkpt lat="42.1051983" lon="13.3925267"><ele>827.0</ele><time>2026-05-02T14:22:53.282Z</time></trkpt><trkpt lat="42.10514" lon="13.392335"><ele>826.0</ele><time>2026-05-02T14:22:54.282Z</time></trkpt><trkpt lat="42.105065" lon="13.392145"><ele>826.0</ele><time>2026-05-02T14:22:55.282Z</time></trkpt><trkpt lat="42.104985" lon="13.39198"><ele>826.0</ele><time>2026-05-02T14:22:56.282Z</time></trkpt><trkpt lat="42.1049133" lon="13.3918183"><ele>826.0</ele><time>2026-05-02T14:22:57.282Z</time></trkpt><trkpt lat="42.1048533" lon="13.3916317"><ele>826.0</ele><time>2026-05-02T14:22:58.283Z</time></trkpt><trkpt lat="42.1048133" lon="13.391465"><ele>826.5</ele><time>2026-05-02T14:22:59.282Z</time></trkpt><trkpt lat="42.1047717" lon="13.3912933"><ele>827.0</ele><time>2026-05-02T14:23:00.282Z</time></trkpt><trkpt lat="42.1047233" lon="13.3910833"><ele>827.5</ele><time>2026-05-02T14:23:01.283Z</time></trkpt><trkpt lat="42.1046733" lon="13.3909017"><ele>828.0</ele><time>2026-05-02T14:23:02.282Z</time></trkpt><trkpt lat="42.1046167" lon="13.3906917"><ele>828.75</ele><time>2026-05-02T14:23:03.282Z</time></trkpt><trkpt lat="42.1045733" lon="13.3904933"><ele>829.5</ele><time>2026-05-02T14:23:04.282Z</time></trkpt><trkpt lat="42.1045233" lon="13.390275"><ele>830.25</ele><time>2026-05-02T14:23:05.282Z</time></trkpt><trkpt lat="42.1044933" lon="13.3901267"><ele>831.0</ele><time>2026-05-02T14:23:06.283Z</time></trkpt><trkpt lat="42.10447" lon="13.3900083"><ele>831.0</ele><time>2026-05-02T14:23:07.282Z</time></trkpt><trkpt lat="42.10446" lon="13.3899"><ele>831.0</ele><time>2026-05-02T14:23:08.282Z</time></trkpt><trkpt lat="42.104465" lon="13.3897633"><ele>831.0</ele><time>2026-05-02T14:23:10.282Z</time></trkpt><trkpt lat="42.104435" lon="13.3896683"><ele>831.0</ele><time>2026-05-02T14:23:13.282Z</time></trkpt><trkpt lat="42.10435" lon="13.3895983"><ele>831.0</ele><time>2026-05-02T14:23:15.282Z</time></trkpt><trkpt lat="42.1042883" lon="13.3895733"><ele>831.0</ele><time>2026-05-02T14:23:16.282Z</time></trkpt><trkpt lat="42.1041533" lon="13.3895267"><ele>830.5999999999999</ele><time>2026-05-02T14:23:18.283Z</time></trkpt><trkpt lat="42.1040733" lon="13.38951"><ele>830.2</ele><time>2026-05-02T14:23:19.282Z</time></trkpt><trkpt lat="42.1040017" lon="13.3895033"><ele>829.8</ele><time>2026-05-02T14:23:20.282Z</time></trkpt><trkpt lat="42.1038967" lon="13.3894783"><ele>829.4000000000001</ele><time>2026-05-02T14:23:22.282Z</time></trkpt><trkpt lat="42.1037717" lon="13.3894483"><ele>829.0</ele><time>2026-05-02T14:23:24.282Z</time></trkpt><trkpt lat="42.1037117" lon="13.3894083"><ele>829.0</ele><time>2026-05-02T14:23:25.282Z</time></trkpt><trkpt lat="42.1036133" lon="13.3893133"><ele>829.0</ele><time>2026-05-02T14:23:27.282Z</time></trkpt><trkpt lat="42.1035683" lon="13.3892267"><ele>829.0</ele><time>2026-05-02T14:23:28.283Z</time></trkpt><trkpt lat="42.1035133" lon="13.3890817"><ele>829.0</ele><time>2026-05-02T14:23:29.282Z</time></trkpt><trkpt lat="42.1034583" lon="13.3889517"><ele>829.0</ele><time>2026-05-02T14:23:30.282Z</time></trkpt><trkpt lat="42.103415" lon="13.388795"><ele>828.8000000000001</ele><time>2026-05-02T14:23:31.283Z</time></trkpt><trkpt lat="42.10336" lon="13.3886667"><ele>828.6</ele><time>2026-05-02T14:23:32.282Z</time></trkpt><trkpt lat="42.1033117" lon="13.38854"><ele>828.4</ele><time>2026-05-02T14:23:33.282Z</time></trkpt><trkpt lat="42.1032567" lon="13.388415"><ele>828.2</ele><time>2026-05-02T14:23:34.283Z</time></trkpt><trkpt lat="42.1032097" lon="13.3883083"><ele>828.0</ele><time>2026-05-02T14:23:35.282Z</time></trkpt><trkpt lat="42.1031713" lon="13.3882165"><ele>827.4</ele><time>2026-05-02T14:23:36.282Z</time></trkpt><trkpt lat="42.1031595" lon="13.3880872"><ele>826.8</ele><time>2026-05-02T14:23:38.282Z</time></trkpt><trkpt lat="42.103235" lon="13.3879833"><ele>826.2</ele><time>2026-05-02T14:23:40.283Z</time></trkpt><trkpt lat="42.1032383" lon="13.3878567"><ele>825.6</ele><time>2026-05-02T14:23:42.282Z</time></trkpt><trkpt lat="42.1031933" lon="13.3877417"><ele>825.0</ele><time>2026-05-02T14:23:43.282Z</time></trkpt><trkpt lat="42.10316" lon="13.3876383"><ele>825.0</ele><time>2026-05-02T14:23:44.282Z</time></trkpt><trkpt lat="42.1031317" lon="13.38755"><ele>825.0</ele><time>2026-05-02T14:23:45.282Z</time></trkpt><trkpt lat="42.1030983" lon="13.387455"><ele>825.0</ele><time>2026-05-02T14:23:46.283Z</time></trkpt><trkpt lat="42.1030633" lon="13.3873617"><ele>825.0</ele><time>2026-05-02T14:23:47.282Z</time></trkpt><trkpt lat="42.1030317" lon="13.3872867"><ele>825.0</ele><time>2026-05-02T14:23:48.282Z</time></trkpt><trkpt lat="42.1029833" lon="13.38714"><ele>825.0</ele><time>2026-05-02T14:23:50.282Z</time></trkpt><trkpt lat="42.10299" lon="13.38702"><ele>825.0</ele><time>2026-05-02T14:23:52.283Z</time></trkpt><trkpt lat="42.1030083" lon="13.38688"><ele>825.0</ele><time>2026-05-02T14:23:54.282Z</time></trkpt><trkpt lat="42.102995" lon="13.3867667"><ele>825.0</ele><time>2026-05-02T14:23:56.282Z</time></trkpt><trkpt lat="42.1029317" lon="13.3866317"><ele>825.0</ele><time>2026-05-02T14:23:58.282Z</time></trkpt><trkpt lat="42.1028917" lon="13.3865533"><ele>825.0</ele><time>2026-05-02T14:23:59.282Z</time></trkpt><trkpt lat="42.102855" lon="13.3864817"><ele>825.0</ele><time>2026-05-02T14:24:00.282Z</time></trkpt><trkpt lat="42.1028233" lon="13.3863933"><ele>825.25</ele><time>2026-05-02T14:24:01.282Z</time></trkpt><trkpt lat="42.10277" lon="13.38622"><ele>825.5</ele><time>2026-05-02T14:24:03.282Z</time></trkpt><trkpt lat="42.102695" lon="13.386105"><ele>825.75</ele><time>2026-05-02T14:24:05.282Z</time></trkpt><trkpt lat="42.1026317" lon="13.3860033"><ele>826.0</ele><time>2026-05-02T14:24:07.282Z</time></trkpt><trkpt lat="42.102565" lon="13.3858717"><ele>825.9999999999999</ele><time>2026-05-02T14:24:09.283Z</time></trkpt><trkpt lat="42.1025283" lon="13.385785"><ele>826.0</ele><time>2026-05-02T14:24:10.282Z</time></trkpt><trkpt lat="42.1024483" lon="13.3856767"><ele>826.0</ele><time>2026-05-02T14:24:12.282Z</time></trkpt><trkpt lat="42.1023817" lon="13.3855633"><ele>826.0</ele><time>2026-05-02T14:24:14.282Z</time></trkpt><trkpt lat="42.1023417" lon="13.3854883"><ele>825.9999999999999</ele><time>2026-05-02T14:24:16.282Z</time></trkpt><trkpt lat="42.1023383" lon="13.38539"><ele>826.0</ele><time>2026-05-02T14:24:19.282Z</time></trkpt><trkpt lat="42.1023921" lon="13.3852659"><ele>826.3333333333333</ele><time>2026-05-02T14:24:23.282Z</time></trkpt><trkpt lat="42.1024424" lon="13.3851592"><ele>826.6666666666666</ele><time>2026-05-02T14:24:24.282Z</time></trkpt><trkpt lat="42.1024949" lon="13.3850742"><ele>827.0</ele><time>2026-05-02T14:24:25.282Z</time></trkpt><trkpt lat="42.1025432" lon="13.3849923"><ele>827.3333333333333</ele><time>2026-05-02T14:24:26.282Z</time></trkpt><trkpt lat="42.1025933" lon="13.3848867"><ele>827.6666666666666</ele><time>2026-05-02T14:24:27.282Z</time></trkpt><trkpt lat="42.102665" lon="13.384815"><ele>828.0</ele><time>2026-05-02T14:24:28.282Z</time></trkpt><trkpt lat="42.1027317" lon="13.38475"><ele>828.0</ele><time>2026-05-02T14:24:29.282Z</time></trkpt><trkpt lat="42.10281" lon="13.3847"><ele>828.0</ele><time>2026-05-02T14:24:30.282Z</time></trkpt><trkpt lat="42.1028667" lon="13.38465"><ele>828.0</ele><time>2026-05-02T14:24:31.282Z</time></trkpt><trkpt lat="42.1029667" lon="13.38455"><ele>828.0</ele><time>2026-05-02T14:24:33.282Z</time></trkpt><trkpt lat="42.1030117" lon="13.3844783"><ele>828.0</ele><time>2026-05-02T14:24:34.282Z</time></trkpt><trkpt lat="42.1031" lon="13.3844"><ele>828.2</ele><time>2026-05-02T14:24:35.282Z</time></trkpt><trkpt lat="42.10316" lon="13.3842983"><ele>828.4</ele><time>2026-05-02T14:24:36.282Z</time></trkpt><trkpt lat="42.1032283" lon="13.3841983"><ele>828.6</ele><time>2026-05-02T14:24:37.282Z</time></trkpt><trkpt lat="42.103295" lon="13.3841017"><ele>828.8000000000001</ele><time>2026-05-02T14:24:38.282Z</time></trkpt><trkpt lat="42.1033633" lon="13.3839933"><ele>829.0</ele><time>2026-05-02T14:24:39.282Z</time></trkpt><trkpt lat="42.1034117" lon="13.3839"><ele>829.9999999999999</ele><time>2026-05-02T14:24:40.283Z</time></trkpt><trkpt lat="42.103445" lon="13.3838017"><ele>831.0</ele><time>2026-05-02T14:24:41.282Z</time></trkpt><trkpt lat="42.103505" lon="13.3837267"><ele>832.0</ele><time>2026-05-02T14:24:42.282Z</time></trkpt><trkpt lat="42.1035467" lon="13.3836583"><ele>833.0</ele><time>2026-05-02T14:24:43.282Z</time></trkpt><trkpt lat="42.1036133" lon="13.3835967"><ele>833.9999999999999</ele><time>2026-05-02T14:24:44.283Z</time></trkpt><trkpt lat="42.1036833" lon="13.3835333"><ele>835.0</ele><time>2026-05-02T14:24:45.282Z</time></trkpt><trkpt lat="42.1037683" lon="13.38347"><ele>834.9999999999999</ele><time>2026-05-02T14:24:46.282Z</time></trkpt><trkpt lat="42.103825" lon="13.3834017"><ele>835.0</ele><time>2026-05-02T14:24:47.282Z</time></trkpt><trkpt lat="42.1039033" lon="13.3833317"><ele>835.0</ele><time>2026-05-02T14:24:48.282Z</time></trkpt><trkpt lat="42.1039717" lon="13.3832583"><ele>835.0</ele><time>2026-05-02T14:24:49.282Z</time></trkpt><trkpt lat="42.104045" lon="13.3831983"><ele>834.9999999999999</ele><time>2026-05-02T14:24:50.282Z</time></trkpt><trkpt lat="42.1041133" lon="13.3831583"><ele>835.0</ele><time>2026-05-02T14:24:51.283Z</time></trkpt><trkpt lat="42.1041817" lon="13.3831283"><ele>836.8</ele><time>2026-05-02T14:24:52.282Z</time></trkpt><trkpt lat="42.104245" lon="13.383085"><ele>838.6</ele><time>2026-05-02T14:24:53.282Z</time></trkpt><trkpt lat="42.10433" lon="13.383035"><ele>840.4000000000001</ele><time>2026-05-02T14:24:54.282Z</time></trkpt><trkpt lat="42.1044267" lon="13.3829817"><ele>842.2</ele><time>2026-05-02T14:24:55.282Z</time></trkpt><trkpt lat="42.10452" lon="13.3829267"><ele>844.0</ele><time>2026-05-02T14:24:56.282Z</time></trkpt><trkpt lat="42.104625" lon="13.382885"><ele>843.9999999999999</ele><time>2026-05-02T14:24:57.282Z</time></trkpt><trkpt lat="42.1047267" lon="13.382845"><ele>844.0</ele><time>2026-05-02T14:24:58.282Z</time></trkpt><trkpt lat="42.1047933" lon="13.3828067"><ele>844.0</ele><time>2026-05-02T14:24:59.282Z</time></trkpt><trkpt lat="42.1048733" lon="13.3827717"><ele>844.0</ele><time>2026-05-02T14:25:00.282Z</time></trkpt><trkpt lat="42.1049583" lon="13.3827467"><ele>843.9999999999999</ele><time>2026-05-02T14:25:01.282Z</time></trkpt><trkpt lat="42.1050317" lon="13.38274"><ele>844.0</ele><time>2026-05-02T14:25:02.282Z</time></trkpt><trkpt lat="42.1051133" lon="13.3827367"><ele>845.2</ele><time>2026-05-02T14:25:03.282Z</time></trkpt><trkpt lat="42.1051983" lon="13.3827683"><ele>846.4000000000001</ele><time>2026-05-02T14:25:04.282Z</time></trkpt><trkpt lat="42.1052833" lon="13.3827783"><ele>847.6</ele><time>2026-05-02T14:25:05.282Z</time></trkpt><trkpt lat="42.1053833" lon="13.3827883"><ele>848.8</ele><time>2026-05-02T14:25:06.282Z</time></trkpt><trkpt lat="42.1054883" lon="13.3827833"><ele>850.0</ele><time>2026-05-02T14:25:07.282Z</time></trkpt><trkpt lat="42.1055917" lon="13.3827867"><ele>850.0</ele><time>2026-05-02T14:25:08.282Z</time></trkpt><trkpt lat="42.1056917" lon="13.3828"><ele>850.0</ele><time>2026-05-02T14:25:09.282Z</time></trkpt><trkpt lat="42.105785" lon="13.3828183"><ele>850.0</ele><time>2026-05-02T14:25:10.282Z</time></trkpt><trkpt lat="42.1058683" lon="13.3828183"><ele>850.0</ele><time>2026-05-02T14:25:11.282Z</time></trkpt><trkpt lat="42.1059617" lon="13.3828233"><ele>850.0</ele><time>2026-05-02T14:25:12.283Z</time></trkpt><trkpt lat="42.106065" lon="13.382825"><ele>851.1666666666666</ele><time>2026-05-02T14:25:13.282Z</time></trkpt><trkpt lat="42.1061683" lon="13.3828167"><ele>852.3333333333333</ele><time>2026-05-02T14:25:14.282Z</time></trkpt><trkpt lat="42.1062683" lon="13.38281"><ele>853.5</ele><time>2026-05-02T14:25:15.282Z</time></trkpt><trkpt lat="42.1063567" lon="13.3828083"><ele>854.6666666666667</ele><time>2026-05-02T14:25:16.283Z</time></trkpt><trkpt lat="42.106435" lon="13.3828283"><ele>855.8333333333334</ele><time>2026-05-02T14:25:17.282Z</time></trkpt><trkpt lat="42.106505" lon="13.3828467"><ele>857.0</ele><time>2026-05-02T14:25:18.282Z</time></trkpt><trkpt lat="42.10661" lon="13.38293"><ele>858.6</ele><time>2026-05-02T14:25:20.282Z</time></trkpt><trkpt lat="42.106645" lon="13.3830117"><ele>860.2</ele><time>2026-05-02T14:25:21.282Z</time></trkpt><trkpt lat="42.1066883" lon="13.3830733"><ele>861.8</ele><time>2026-05-02T14:25:22.282Z</time></trkpt><trkpt lat="42.106795" lon="13.3831533"><ele>863.4</ele><time>2026-05-02T14:25:24.282Z</time></trkpt><trkpt lat="42.1068983" lon="13.3832083"><ele>865.0</ele><time>2026-05-02T14:25:26.282Z</time></trkpt><trkpt lat="42.1069567" lon="13.3833283"><ele>865.0</ele><time>2026-05-02T14:25:28.282Z</time></trkpt><trkpt lat="42.1069967" lon="13.383445"><ele>865.0</ele><time>2026-05-02T14:25:30.282Z</time></trkpt><trkpt lat="42.1070733" lon="13.3834783"><ele>865.0</ele><time>2026-05-02T14:25:32.282Z</time></trkpt><trkpt lat="42.1071399" lon="13.383393"><ele>865.0</ele><time>2026-05-02T14:25:35.282Z</time></trkpt><trkpt lat="42.1072148" lon="13.3832799"><ele>865.0</ele><time>2026-05-02T14:25:37.282Z</time></trkpt><trkpt lat="42.1072745" lon="13.3832152"><ele>865.0</ele><time>2026-05-02T14:25:38.282Z</time></trkpt><trkpt lat="42.107344" lon="13.3831501"><ele>865.0</ele><time>2026-05-02T14:25:39.282Z</time></trkpt><trkpt lat="42.1074053" lon="13.3830878"><ele>865.0</ele><time>2026-05-02T14:25:40.282Z</time></trkpt><trkpt lat="42.1074662" lon="13.3830397"><ele>865.0</ele><time>2026-05-02T14:25:41.282Z</time></trkpt><trkpt lat="42.1075696" lon="13.382969"><ele>865.0</ele><time>2026-05-02T14:25:43.282Z</time></trkpt><trkpt lat="42.1076665" lon="13.3828868"><ele>866.6666666666666</ele><time>2026-05-02T14:25:45.282Z</time></trkpt><trkpt lat="42.107778" lon="13.3828721"><ele>868.3333333333333</ele><time>2026-05-02T14:25:47.282Z</time></trkpt><trkpt lat="42.1078497" lon="13.3828667"><ele>870.0</ele><time>2026-05-02T14:25:48.283Z</time></trkpt><trkpt lat="42.1079399" lon="13.3828514"><ele>871.6666666666667</ele><time>2026-05-02T14:25:49.282Z</time></trkpt><trkpt lat="42.1080303" lon="13.3828216"><ele>873.3333333333334</ele><time>2026-05-02T14:25:50.282Z</time></trkpt><trkpt lat="42.1081096" lon="13.3827965"><ele>875.0</ele><time>2026-05-02T14:25:51.282Z</time></trkpt><trkpt lat="42.1081926" lon="13.3827824"><ele>875.6666666666667</ele><time>2026-05-02T14:25:52.282Z</time></trkpt><trkpt lat="42.1082782" lon="13.3827722"><ele>876.3333333333334</ele><time>2026-05-02T14:25:53.282Z</time></trkpt><trkpt lat="42.108361" lon="13.3827581"><ele>877.0</ele><time>2026-05-02T14:25:54.282Z</time></trkpt><trkpt lat="42.1084461" lon="13.382741"><ele>877.6666666666667</ele><time>2026-05-02T14:25:55.282Z</time></trkpt><trkpt lat="42.1085208" lon="13.3827298"><ele>878.3333333333334</ele><time>2026-05-02T14:25:56.282Z</time></trkpt><trkpt lat="42.1085983" lon="13.3827202"><ele>879.0</ele><time>2026-05-02T14:25:57.282Z</time></trkpt><trkpt lat="42.108671" lon="13.3827061"><ele>879.0</ele><time>2026-05-02T14:25:58.283Z</time></trkpt><trkpt lat="42.108734" lon="13.3826714"><ele>879.0</ele><time>2026-05-02T14:25:59.282Z</time></trkpt><trkpt lat="42.1088053" lon="13.3826226"><ele>879.0</ele><time>2026-05-02T14:26:00.282Z</time></trkpt><trkpt lat="42.1088822" lon="13.3825784"><ele>879.0</ele><time>2026-05-02T14:26:01.282Z</time></trkpt><trkpt lat="42.1089598" lon="13.3825391"><ele>879.0</ele><time>2026-05-02T14:26:02.282Z</time></trkpt><trkpt lat="42.109039" lon="13.3824886"><ele>879.0</ele><time>2026-05-02T14:26:03.282Z</time></trkpt><trkpt lat="42.1091203" lon="13.3824348"><ele>880.0</ele><time>2026-05-02T14:26:04.282Z</time></trkpt><trkpt lat="42.1092001" lon="13.3823912"><ele>881.0</ele><time>2026-05-02T14:26:05.282Z</time></trkpt><trkpt lat="42.10928" lon="13.382345"><ele>882.0</ele><time>2026-05-02T14:26:06.282Z</time></trkpt><trkpt lat="42.10938" lon="13.3823117"><ele>883.0</ele><time>2026-05-02T14:26:07.282Z</time></trkpt><trkpt lat="42.109465" lon="13.38227"><ele>884.0</ele><time>2026-05-02T14:26:08.282Z</time></trkpt><trkpt lat="42.10953" lon="13.382235"><ele>885.0</ele><time>2026-05-02T14:26:09.282Z</time></trkpt><trkpt lat="42.1095917" lon="13.3821883"><ele>885.1666666666666</ele><time>2026-05-02T14:26:10.282Z</time></trkpt><trkpt lat="42.1096533" lon="13.3821417"><ele>885.3333333333333</ele><time>2026-05-02T14:26:11.282Z</time></trkpt><trkpt lat="42.1097217" lon="13.3821"><ele>885.5</ele><time>2026-05-02T14:26:12.282Z</time></trkpt><trkpt lat="42.109815" lon="13.3820183"><ele>885.6666666666666</ele><time>2026-05-02T14:26:14.282Z</time></trkpt><trkpt lat="42.109905" lon="13.3820083"><ele>885.8333333333333</ele><time>2026-05-02T14:26:16.282Z</time></trkpt><trkpt lat="42.1099917" lon="13.3820583"><ele>886.0</ele><time>2026-05-02T14:26:18.282Z</time></trkpt><trkpt lat="42.1100783" lon="13.3820967"><ele>886.9999999999999</ele><time>2026-05-02T14:26:20.282Z</time></trkpt><trkpt lat="42.1101417" lon="13.3820983"><ele>888.0</ele><time>2026-05-02T14:26:21.282Z</time></trkpt><trkpt lat="42.110215" lon="13.3820917"><ele>889.0</ele><time>2026-05-02T14:26:22.282Z</time></trkpt><trkpt lat="42.1102883" lon="13.3820683"><ele>890.0</ele><time>2026-05-02T14:26:23.282Z</time></trkpt><trkpt lat="42.11035" lon="13.3820483"><ele>890.9999999999999</ele><time>2026-05-02T14:26:24.282Z</time></trkpt><trkpt lat="42.1104567" lon="13.3820067"><ele>892.0</ele><time>2026-05-02T14:26:26.282Z</time></trkpt><trkpt lat="42.1105433" lon="13.3819733"><ele>891.9999999999999</ele><time>2026-05-02T14:26:28.282Z</time></trkpt><trkpt lat="42.1105633" lon="13.3818833"><ele>892.0</ele><time>2026-05-02T14:26:31.282Z</time></trkpt><trkpt lat="42.1105767" lon="13.3817967"><ele>892.0</ele><time>2026-05-02T14:26:32.282Z</time></trkpt><trkpt lat="42.11058" lon="13.3816833"><ele>892.0</ele><time>2026-05-02T14:26:33.282Z</time></trkpt><trkpt lat="42.11057" lon="13.38157"><ele>891.9999999999999</ele><time>2026-05-02T14:26:34.282Z</time></trkpt><trkpt lat="42.11057" lon="13.3814333"><ele>892.0</ele><time>2026-05-02T14:26:35.283Z</time></trkpt><trkpt lat="42.11057" lon="13.3812983"><ele>892.4000000000001</ele><time>2026-05-02T14:26:36.282Z</time></trkpt><trkpt lat="42.1105667" lon="13.3811717"><ele>892.8000000000001</ele><time>2026-05-02T14:26:37.283Z</time></trkpt><trkpt lat="42.1105583" lon="13.3810383"><ele>893.2</ele><time>2026-05-02T14:26:38.283Z</time></trkpt><trkpt lat="42.1105683" lon="13.3809117"><ele>893.6</ele><time>2026-05-02T14:26:39.282Z</time></trkpt><trkpt lat="42.110565" lon="13.3807883"><ele>894.0</ele><time>2026-05-02T14:26:40.282Z</time></trkpt><trkpt lat="42.11056" lon="13.3806783"><ele>894.0</ele><time>2026-05-02T14:26:41.282Z</time></trkpt><trkpt lat="42.1105583" lon="13.380575"><ele>894.0</ele><time>2026-05-02T14:26:42.282Z</time></trkpt><trkpt lat="42.11055" lon="13.3804767"><ele>894.0</ele><time>2026-05-02T14:26:43.282Z</time></trkpt><trkpt lat="42.110545" lon="13.3803883"><ele>894.0</ele><time>2026-05-02T14:26:44.282Z</time></trkpt><trkpt lat="42.1105417" lon="13.3802517"><ele>894.0</ele><time>2026-05-02T14:26:46.282Z</time></trkpt><trkpt lat="42.11054" lon="13.3801383"><ele>894.0</ele><time>2026-05-02T14:26:48.282Z</time></trkpt><trkpt lat="42.110585" lon="13.3800233"><ele>894.2</ele><time>2026-05-02T14:26:51.283Z</time></trkpt><trkpt lat="42.1105967" lon="13.3798917"><ele>894.4000000000001</ele><time>2026-05-02T14:26:53.282Z</time></trkpt><trkpt lat="42.1105833" lon="13.379805"><ele>894.6</ele><time>2026-05-02T14:26:54.282Z</time></trkpt><trkpt lat="42.1105467" lon="13.3797017"><ele>894.8</ele><time>2026-05-02T14:26:55.282Z</time></trkpt><trkpt lat="42.1104917" lon="13.3795917"><ele>895.0</ele><time>2026-05-02T14:26:56.282Z</time></trkpt><trkpt lat="42.11042" lon="13.379485"><ele>896.3333333333333</ele><time>2026-05-02T14:26:57.282Z</time></trkpt><trkpt lat="42.110345" lon="13.3793983"><ele>897.6666666666666</ele><time>2026-05-02T14:26:58.282Z</time></trkpt><trkpt lat="42.110282" lon="13.3793231"><ele>899.0</ele><time>2026-05-02T14:26:59.282Z</time></trkpt><trkpt lat="42.1102187" lon="13.3792709"><ele>900.3333333333333</ele><time>2026-05-02T14:27:00.282Z</time></trkpt><trkpt lat="42.1101491" lon="13.3792447"><ele>901.6666666666666</ele><time>2026-05-02T14:27:01.283Z</time></trkpt><trkpt lat="42.1100672" lon="13.3792434"><ele>903.0</ele><time>2026-05-02T14:27:02.282Z</time></trkpt><trkpt lat="42.1099702" lon="13.3792504"><ele>901.5999999999999</ele><time>2026-05-02T14:27:03.282Z</time></trkpt><trkpt lat="42.1098664" lon="13.3792533"><ele>900.1999999999999</ele><time>2026-05-02T14:27:04.282Z</time></trkpt><trkpt lat="42.1097689" lon="13.3792438"><ele>898.8</ele><time>2026-05-02T14:27:05.282Z</time></trkpt><trkpt lat="42.1096767" lon="13.3792245"><ele>897.4</ele><time>2026-05-02T14:27:06.282Z</time></trkpt><trkpt lat="42.1095843" lon="13.3791963"><ele>896.0</ele><time>2026-05-02T14:27:07.282Z</time></trkpt><trkpt lat="42.1095114" lon="13.3791673"><ele>896.0</ele><time>2026-05-02T14:27:08.282Z</time></trkpt><trkpt lat="42.1094456" lon="13.3791419"><ele>895.9999999999999</ele><time>2026-05-02T14:27:09.282Z</time></trkpt><trkpt lat="42.109338" lon="13.3790953"><ele>895.9999999999999</ele><time>2026-05-02T14:27:11.282Z</time></trkpt><trkpt lat="42.1092783" lon="13.3790333"><ele>896.0</ele><time>2026-05-02T14:27:13.282Z</time></trkpt><trkpt lat="42.1092583" lon="13.3789233"><ele>896.0</ele><time>2026-05-02T14:27:15.282Z</time></trkpt><trkpt lat="42.10924" lon="13.3787533"><ele>896.5000000000001</ele><time>2026-05-02T14:27:17.282Z</time></trkpt><trkpt lat="42.109205" lon="13.3786633"><ele>897.0</ele><time>2026-05-02T14:27:18.282Z</time></trkpt><trkpt lat="42.1091683" lon="13.378565"><ele>897.5</ele><time>2026-05-02T14:27:19.282Z</time></trkpt><trkpt lat="42.10912" lon="13.3784583"><ele>898.0</ele><time>2026-05-02T14:27:20.282Z</time></trkpt><trkpt lat="42.1090733" lon="13.3783683"><ele>898.5000000000001</ele><time>2026-05-02T14:27:21.282Z</time></trkpt><trkpt lat="42.1090267" lon="13.3782817"><ele>899.0</ele><time>2026-05-02T14:27:22.282Z</time></trkpt><trkpt lat="42.1089683" lon="13.3781717"><ele>899.0000000000001</ele><time>2026-05-02T14:27:23.282Z</time></trkpt><trkpt lat="42.1089133" lon="13.378085"><ele>899.0</ele><time>2026-05-02T14:27:24.282Z</time></trkpt><trkpt lat="42.108855" lon="13.37801"><ele>899.0</ele><time>2026-05-02T14:27:25.282Z</time></trkpt><trkpt lat="42.1087933" lon="13.37794"><ele>899.0</ele><time>2026-05-02T14:27:26.282Z</time></trkpt><trkpt lat="42.1087267" lon="13.3778717"><ele>899.0000000000001</ele><time>2026-05-02T14:27:27.282Z</time></trkpt><trkpt lat="42.1086533" lon="13.37781"><ele>899.0</ele><time>2026-05-02T14:27:28.282Z</time></trkpt><trkpt lat="42.1085683" lon="13.3777483"><ele>901.0000000000001</ele><time>2026-05-02T14:27:29.283Z</time></trkpt><trkpt lat="42.1084833" lon="13.3776967"><ele>903.0</ele><time>2026-05-02T14:27:30.282Z</time></trkpt><trkpt lat="42.1084033" lon="13.3776467"><ele>905.0</ele><time>2026-05-02T14:27:31.282Z</time></trkpt><trkpt lat="42.1083183" lon="13.3776117"><ele>907.0</ele><time>2026-05-02T14:27:32.282Z</time></trkpt><trkpt lat="42.1082517" lon="13.377595"><ele>909.0000000000001</ele><time>2026-05-02T14:27:33.282Z</time></trkpt><trkpt lat="42.1081883" lon="13.377585"><ele>911.0</ele><time>2026-05-02T14:27:34.282Z</time></trkpt><trkpt lat="42.1080733" lon="13.3775567"><ele>911.0</ele><time>2026-05-02T14:27:36.282Z</time></trkpt><trkpt lat="42.107965" lon="13.3775267"><ele>910.9999999999999</ele><time>2026-05-02T14:27:38.282Z</time></trkpt><trkpt lat="42.107875" lon="13.3774817"><ele>910.9999999999999</ele><time>2026-05-02T14:27:40.282Z</time></trkpt><trkpt lat="42.107795" lon="13.3774117"><ele>911.0</ele><time>2026-05-02T14:27:42.282Z</time></trkpt><trkpt lat="42.1077217" lon="13.37731"><ele>911.0</ele><time>2026-05-02T14:27:44.282Z</time></trkpt><trkpt lat="42.1076367" lon="13.3772017"><ele>911.8</ele><time>2026-05-02T14:27:46.282Z</time></trkpt><trkpt lat="42.10754" lon="13.3771267"><ele>912.5999999999999</ele><time>2026-05-02T14:27:48.282Z</time></trkpt><trkpt lat="42.1074517" lon="13.3770783"><ele>913.4</ele><time>2026-05-02T14:27:50.282Z</time></trkpt><trkpt lat="42.10739" lon="13.3770183"><ele>914.2</ele><time>2026-05-02T14:27:56.282Z</time></trkpt><trkpt lat="42.1073083" lon="13.3770667"><ele>915.0</ele><time>2026-05-02T14:27:59.282Z</time></trkpt><trkpt lat="42.10723" lon="13.3770983"><ele>913.4</ele><time>2026-05-02T14:28:01.282Z</time></trkpt><trkpt lat="42.10711" lon="13.377165"><ele>911.8</ele><time>2026-05-02T14:28:21.282Z</time></trkpt><trkpt lat="42.1070217" lon="13.37713"><ele>910.2</ele><time>2026-05-02T14:28:24.282Z</time></trkpt><trkpt lat="42.1069383" lon="13.377055"><ele>908.6</ele><time>2026-05-02T14:28:26.282Z</time></trkpt><trkpt lat="42.1068883" lon="13.3770033"><ele>907.0</ele><time>2026-05-02T14:28:28.282Z</time></trkpt><trkpt lat="42.1068083" lon="13.37693"><ele>907.0</ele><time>2026-05-02T14:28:31.282Z</time></trkpt><trkpt lat="42.1067317" lon="13.3768733"><ele>907.0</ele><time>2026-05-02T14:28:34.282Z</time></trkpt><trkpt lat="42.1066533" lon="13.3768183"><ele>907.0</ele><time>2026-05-02T14:28:36.283Z</time></trkpt><trkpt lat="42.1065567" lon="13.3767583"><ele>907.0</ele><time>2026-05-02T14:28:38.282Z</time></trkpt><trkpt lat="42.1064733" lon="13.37671"><ele>907.0</ele><time>2026-05-02T14:28:40.282Z</time></trkpt><trkpt lat="42.10639" lon="13.3766683"><ele>905.3333333333333</ele><time>2026-05-02T14:28:42.282Z</time></trkpt><trkpt lat="42.1063233" lon="13.37667"><ele>903.6666666666666</ele><time>2026-05-02T14:28:44.282Z</time></trkpt><trkpt lat="42.1062433" lon="13.37669"><ele>902.0</ele><time>2026-05-02T14:28:46.282Z</time></trkpt><trkpt lat="42.1061667" lon="13.3766933"><ele>900.3333333333333</ele><time>2026-05-02T14:28:48.282Z</time></trkpt><trkpt lat="42.1060945" lon="13.3766126"><ele>898.6666666666666</ele><time>2026-05-02T14:28:53.366Z</time></trkpt><trkpt lat="42.1060226" lon="13.3765543"><ele>897.0</ele><time>2026-05-02T14:28:57.323Z</time></trkpt><trkpt lat="42.1059537" lon="13.3765212"><ele>897.0</ele><time>2026-05-02T14:29:01.324Z</time></trkpt><trkpt lat="42.1058956" lon="13.3764859"><ele>897.0</ele><time>2026-05-02T14:29:12.371Z</time></trkpt><trkpt lat="42.1058264" lon="13.3764948"><ele>897.0</ele><time>2026-05-02T14:29:14.285Z</time></trkpt><trkpt lat="42.1059017" lon="13.3766217"><ele>897.0</ele><time>2026-05-02T14:38:50.281Z</time></trkpt><trkpt lat="42.10595" lon="13.3764817"><ele>897.0</ele><time>2026-05-02T14:39:13.281Z</time></trkpt><trkpt lat="42.1059817" lon="13.3763983"><ele>897.0</ele><time>2026-05-02T14:39:15.282Z</time></trkpt><trkpt lat="42.1059517" lon="13.3762983"><ele>895.8</ele><time>2026-05-02T14:39:18.281Z</time></trkpt><trkpt lat="42.1058967" lon="13.3762333"><ele>894.6</ele><time>2026-05-02T14:39:20.281Z</time></trkpt><trkpt lat="42.10582" lon="13.37613"><ele>893.3999999999999</ele><time>2026-05-02T14:39:22.282Z</time></trkpt><trkpt lat="42.1057433" lon="13.3760117"><ele>892.1999999999999</ele><time>2026-05-02T14:39:24.281Z</time></trkpt><trkpt lat="42.105685" lon="13.3759083"><ele>891.0</ele><time>2026-05-02T14:39:26.281Z</time></trkpt><trkpt lat="42.1055883" lon="13.3757933"><ele>889.6666666666666</ele><time>2026-05-02T14:39:28.281Z</time></trkpt><trkpt lat="42.1055" lon="13.3756967"><ele>888.3333333333333</ele><time>2026-05-02T14:39:30.281Z</time></trkpt><trkpt lat="42.1054567" lon="13.375635"><ele>887.0</ele><time>2026-05-02T14:39:31.281Z</time></trkpt><trkpt lat="42.1054017" lon="13.3755833"><ele>885.6666666666666</ele><time>2026-05-02T14:39:32.281Z</time></trkpt><trkpt lat="42.105325" lon="13.3754833"><ele>884.3333333333333</ele><time>2026-05-02T14:39:34.281Z</time></trkpt><trkpt lat="42.1052883" lon="13.375385"><ele>883.0</ele><time>2026-05-02T14:39:36.281Z</time></trkpt><trkpt lat="42.1052267" lon="13.37532"><ele>883.0</ele><time>2026-05-02T14:39:38.281Z</time></trkpt><trkpt lat="42.1051686" lon="13.3752535"><ele>883.0</ele><time>2026-05-02T14:39:54.342Z</time></trkpt><trkpt lat="42.1050955" lon="13.3751716"><ele>883.0</ele><time>2026-05-02T14:39:56.363Z</time></trkpt><trkpt lat="42.1050091" lon="13.3750146"><ele>883.0</ele><time>2026-05-02T14:40:01.281Z</time></trkpt><trkpt lat="42.1049346" lon="13.374884"><ele>883.0</ele><time>2026-05-02T14:40:02.281Z</time></trkpt><trkpt lat="42.1048835" lon="13.3747633"><ele>880.8</ele><time>2026-05-02T14:40:03.282Z</time></trkpt><trkpt lat="42.1048545" lon="13.3746608"><ele>878.5999999999999</ele><time>2026-05-02T14:40:04.282Z</time></trkpt><trkpt lat="42.1048202" lon="13.3745221"><ele>876.4000000000001</ele><time>2026-05-02T14:40:06.281Z</time></trkpt><trkpt lat="42.1047575" lon="13.3743915"><ele>874.2</ele><time>2026-05-02T14:40:08.281Z</time></trkpt><trkpt lat="42.1047093" lon="13.3743123"><ele>872.0</ele><time>2026-05-02T14:40:10.281Z</time></trkpt><trkpt lat="42.1046063" lon="13.3742838"><ele>872.0</ele><time>2026-05-02T14:40:15.367Z</time></trkpt><trkpt lat="42.1044898" lon="13.3741391"><ele>872.0</ele><time>2026-05-02T14:40:19.281Z</time></trkpt><trkpt lat="42.1044296" lon="13.3740196"><ele>872.0</ele><time>2026-05-02T14:40:20.282Z</time></trkpt><trkpt lat="42.1043686" lon="13.3739006"><ele>872.0</ele><time>2026-05-02T14:40:21.281Z</time></trkpt><trkpt lat="42.104303" lon="13.3737976"><ele>872.8333333333334</ele><time>2026-05-02T14:40:22.281Z</time></trkpt><trkpt lat="42.1042368" lon="13.3737093"><ele>873.6666666666667</ele><time>2026-05-02T14:40:23.281Z</time></trkpt><trkpt lat="42.1041803" lon="13.3736239"><ele>874.5</ele><time>2026-05-02T14:40:24.281Z</time></trkpt><trkpt lat="42.1041256" lon="13.3735523"><ele>875.3333333333333</ele><time>2026-05-02T14:40:25.281Z</time></trkpt><trkpt lat="42.1040707" lon="13.3734894"><ele>876.1666666666666</ele><time>2026-05-02T14:40:26.281Z</time></trkpt><trkpt lat="42.1039884" lon="13.3733768"><ele>877.0</ele><time>2026-05-02T14:40:28.281Z</time></trkpt><trkpt lat="42.1039509" lon="13.3732688"><ele>876.9999999999999</ele><time>2026-05-02T14:40:30.281Z</time></trkpt><trkpt lat="42.103865" lon="13.3731783"><ele>877.0</ele><time>2026-05-02T14:40:32.281Z</time></trkpt><trkpt lat="42.10381" lon="13.3731117"><ele>877.0</ele><time>2026-05-02T14:40:33.281Z</time></trkpt><trkpt lat="42.10376" lon="13.3730417"><ele>877.0</ele><time>2026-05-02T14:40:34.281Z</time></trkpt><trkpt lat="42.1036967" lon="13.3729917"><ele>876.9999999999999</ele><time>2026-05-02T14:40:35.281Z</time></trkpt><trkpt lat="42.1036333" lon="13.372935"><ele>877.0</ele><time>2026-05-02T14:40:36.281Z</time></trkpt><trkpt lat="42.1035867" lon="13.3728317"><ele>876.9999999999999</ele><time>2026-05-02T14:40:37.281Z</time></trkpt><trkpt lat="42.10355" lon="13.3727583"><ele>877.0</ele><time>2026-05-02T14:40:38.281Z</time></trkpt><trkpt lat="42.1034767" lon="13.372655"><ele>877.0</ele><time>2026-05-02T14:40:40.281Z</time></trkpt><trkpt lat="42.103425" lon="13.3725617"><ele>877.0</ele><time>2026-05-02T14:40:42.281Z</time></trkpt><trkpt lat="42.103335" lon="13.3724817"><ele>876.9999999999999</ele><time>2026-05-02T14:40:44.281Z</time></trkpt><trkpt lat="42.1033283" lon="13.3723933"><ele>877.0</ele><time>2026-05-02T14:40:46.281Z</time></trkpt><trkpt lat="42.1033183" lon="13.3723"><ele>876.9999999999999</ele><time>2026-05-02T14:40:48.281Z</time></trkpt><trkpt lat="42.1032667" lon="13.37219"><ele>877.0</ele><time>2026-05-02T14:40:50.281Z</time></trkpt><trkpt lat="42.1032233" lon="13.3721233"><ele>877.0</ele><time>2026-05-02T14:40:51.281Z</time></trkpt><trkpt lat="42.10318" lon="13.3720517"><ele>877.0</ele><time>2026-05-02T14:40:52.281Z</time></trkpt><trkpt lat="42.1031267" lon="13.371975"><ele>876.9999999999999</ele><time>2026-05-02T14:40:54.281Z</time></trkpt><trkpt lat="42.10306" lon="13.3719067"><ele>877.0</ele><time>2026-05-02T14:40:56.281Z</time></trkpt><trkpt lat="42.1029867" lon="13.37185"><ele>874.8</ele><time>2026-05-02T14:40:58.281Z</time></trkpt><trkpt lat="42.102915" lon="13.37179"><ele>872.6</ele><time>2026-05-02T14:41:00.281Z</time></trkpt><trkpt lat="42.1028233" lon="13.3717217"><ele>870.3999999999999</ele><time>2026-05-02T14:41:02.281Z</time></trkpt><trkpt lat="42.10274" lon="13.371625"><ele>868.1999999999999</ele><time>2026-05-02T14:41:04.281Z</time></trkpt><trkpt lat="42.1026733" lon="13.37151"><ele>866.0</ele><time>2026-05-02T14:41:06.281Z</time></trkpt><trkpt lat="42.102635" lon="13.3713833"><ele>864.5999999999999</ele><time>2026-05-02T14:41:08.281Z</time></trkpt><trkpt lat="42.1025533" lon="13.371275"><ele>863.1999999999999</ele><time>2026-05-02T14:41:10.281Z</time></trkpt><trkpt lat="42.10247" lon="13.3711983"><ele>861.8000000000001</ele><time>2026-05-02T14:41:12.281Z</time></trkpt><trkpt lat="42.10239" lon="13.371115"><ele>860.4000000000001</ele><time>2026-05-02T14:41:14.281Z</time></trkpt><trkpt lat="42.1023217" lon="13.371045"><ele>859.0</ele><time>2026-05-02T14:41:16.281Z</time></trkpt><trkpt lat="42.10222" lon="13.3709833"><ele>857.4999999999999</ele><time>2026-05-02T14:41:18.281Z</time></trkpt><trkpt lat="42.1021433" lon="13.370895"><ele>856.0</ele><time>2026-05-02T14:41:20.281Z</time></trkpt><trkpt lat="42.1020633" lon="13.3708483"><ele>854.5</ele><time>2026-05-02T14:41:22.282Z</time></trkpt><trkpt lat="42.101995" lon="13.370805"><ele>853.0</ele><time>2026-05-02T14:41:24.281Z</time></trkpt><trkpt lat="42.1019333" lon="13.370745"><ele>851.4999999999999</ele><time>2026-05-02T14:41:26.281Z</time></trkpt><trkpt lat="42.10188" lon="13.3706833"><ele>850.0</ele><time>2026-05-02T14:41:28.281Z</time></trkpt><trkpt lat="42.1017883" lon="13.3706417"><ele>850.0</ele><time>2026-05-02T14:41:31.281Z</time></trkpt><trkpt lat="42.1017267" lon="13.37059"><ele>850.0</ele><time>2026-05-02T14:41:33.281Z</time></trkpt><trkpt lat="42.1016833" lon="13.370525"><ele>850.0</ele><time>2026-05-02T14:41:35.281Z</time></trkpt><trkpt lat="42.1016267" lon="13.370485"><ele>850.0</ele><time>2026-05-02T14:41:37.281Z</time></trkpt><trkpt lat="42.10156" lon="13.3705083"><ele>850.0</ele><time>2026-05-02T14:41:39.281Z</time></trkpt><trkpt lat="42.10149" lon="13.370515"><ele>850.0</ele><time>2026-05-02T14:41:41.281Z</time></trkpt><trkpt lat="42.101425" lon="13.3705"><ele>850.0</ele><time>2026-05-02T14:41:43.281Z</time></trkpt><trkpt lat="42.1013433" lon="13.3704667"><ele>846.8571428571429</ele><time>2026-05-02T14:41:46.281Z</time></trkpt><trkpt lat="42.1012517" lon="13.3704567"><ele>843.7142857142857</ele><time>2026-05-02T14:41:49.281Z</time></trkpt><trkpt lat="42.1011883" lon="13.3704833"><ele>840.5714285714287</ele><time>2026-05-02T14:41:51.281Z</time></trkpt><trkpt lat="42.10113" lon="13.3705333"><ele>837.4285714285714</ele><time>2026-05-02T14:41:53.281Z</time></trkpt><trkpt lat="42.1010617" lon="13.37057"><ele>834.2857142857143</ele><time>2026-05-02T14:41:55.281Z</time></trkpt><trkpt lat="42.1010017" lon="13.37062"><ele>831.1428571428572</ele><time>2026-05-02T14:41:57.281Z</time></trkpt><trkpt lat="42.1009333" lon="13.370635"><ele>828.0</ele><time>2026-05-02T14:41:59.281Z</time></trkpt><trkpt lat="42.1008517" lon="13.3706183"><ele>828.0</ele><time>2026-05-02T14:42:01.281Z</time></trkpt><trkpt lat="42.10078" lon="13.3705617"><ele>828.0</ele><time>2026-05-02T14:42:03.281Z</time></trkpt><trkpt lat="42.100705" lon="13.3705117"><ele>828.0</ele><time>2026-05-02T14:42:05.281Z</time></trkpt><trkpt lat="42.1006233" lon="13.3704667"><ele>828.0</ele><time>2026-05-02T14:42:07.281Z</time></trkpt><trkpt lat="42.1005567" lon="13.3704533"><ele>828.0</ele><time>2026-05-02T14:42:09.281Z</time></trkpt><trkpt lat="42.100485" lon="13.3704467"><ele>828.0</ele><time>2026-05-02T14:42:11.281Z</time></trkpt><trkpt lat="42.100405" lon="13.3704717"><ele>826.1666666666666</ele><time>2026-05-02T14:42:13.281Z</time></trkpt><trkpt lat="42.10034" lon="13.37051"><ele>824.3333333333333</ele><time>2026-05-02T14:42:15.281Z</time></trkpt><trkpt lat="42.1002783" lon="13.37055"><ele>822.5</ele><time>2026-05-02T14:42:18.281Z</time></trkpt><trkpt lat="42.100195" lon="13.3705233"><ele>820.6666666666666</ele><time>2026-05-02T14:42:21.281Z</time></trkpt><trkpt lat="42.1001217" lon="13.370455"><ele>818.8333333333333</ele><time>2026-05-02T14:42:23.281Z</time></trkpt><trkpt lat="42.1000417" lon="13.3703817"><ele>817.0</ele><time>2026-05-02T14:42:25.281Z</time></trkpt><trkpt lat="42.0999367" lon="13.3702917"><ele>813.6</ele><time>2026-05-02T14:42:27.281Z</time></trkpt><trkpt lat="42.09986" lon="13.3701933"><ele>810.2</ele><time>2026-05-02T14:42:29.281Z</time></trkpt><trkpt lat="42.0997833" lon="13.3701167"><ele>806.8</ele><time>2026-05-02T14:42:31.281Z</time></trkpt><trkpt lat="42.0997267" lon="13.3700617"><ele>803.4</ele><time>2026-05-02T14:42:32.282Z</time></trkpt><trkpt lat="42.0996317" lon="13.369965"><ele>800.0</ele><time>2026-05-02T14:42:34.281Z</time></trkpt><trkpt lat="42.0995833" lon="13.369905"><ele>800.0000000000001</ele><time>2026-05-02T14:42:35.281Z</time></trkpt><trkpt lat="42.0995383" lon="13.3698383"><ele>800.0</ele><time>2026-05-02T14:42:36.281Z</time></trkpt><trkpt lat="42.0994817" lon="13.36978"><ele>800.0</ele><time>2026-05-02T14:42:37.281Z</time></trkpt><trkpt lat="42.0994333" lon="13.3697183"><ele>800.0</ele><time>2026-05-02T14:42:38.281Z</time></trkpt><trkpt lat="42.09939" lon="13.3696533"><ele>800.0000000000001</ele><time>2026-05-02T14:42:39.281Z</time></trkpt><trkpt lat="42.0993117" lon="13.3695317"><ele>800.0</ele><time>2026-05-02T14:42:41.281Z</time></trkpt><trkpt lat="42.0992133" lon="13.369425"><ele>800.3333333333334</ele><time>2026-05-02T14:42:43.281Z</time></trkpt><trkpt lat="42.099145" lon="13.3693717"><ele>800.6666666666667</ele><time>2026-05-02T14:42:44.281Z</time></trkpt><trkpt lat="42.0990783" lon="13.3693283"><ele>801.0</ele><time>2026-05-02T14:42:45.281Z</time></trkpt><trkpt lat="42.0990283" lon="13.3692617"><ele>801.3333333333333</ele><time>2026-05-02T14:42:46.282Z</time></trkpt><trkpt lat="42.098975" lon="13.3692133"><ele>801.6666666666666</ele><time>2026-05-02T14:42:47.281Z</time></trkpt><trkpt lat="42.0988817" lon="13.369115"><ele>802.0</ele><time>2026-05-02T14:42:49.281Z</time></trkpt><trkpt lat="42.0988383" lon="13.3690517"><ele>801.6</ele><time>2026-05-02T14:42:50.281Z</time></trkpt><trkpt lat="42.0987867" lon="13.3689833"><ele>801.2</ele><time>2026-05-02T14:42:51.281Z</time></trkpt><trkpt lat="42.0986783" lon="13.3688967"><ele>800.8</ele><time>2026-05-02T14:42:53.281Z</time></trkpt><trkpt lat="42.0986" lon="13.3688433"><ele>800.4</ele><time>2026-05-02T14:42:54.281Z</time></trkpt><trkpt lat="42.0985267" lon="13.3688017"><ele>800.0</ele><time>2026-05-02T14:42:55.281Z</time></trkpt><trkpt lat="42.0984417" lon="13.368745"><ele>800.0</ele><time>2026-05-02T14:42:56.281Z</time></trkpt><trkpt lat="42.09837" lon="13.36871"><ele>800.0</ele><time>2026-05-02T14:42:57.281Z</time></trkpt><trkpt lat="42.0983033" lon="13.3686683"><ele>800.0</ele><time>2026-05-02T14:42:58.281Z</time></trkpt><trkpt lat="42.0982317" lon="13.3686367"><ele>800.0</ele><time>2026-05-02T14:42:59.281Z</time></trkpt><trkpt lat="42.0981133" lon="13.368575"><ele>800.0</ele><time>2026-05-02T14:43:01.281Z</time></trkpt><trkpt lat="42.0980083" lon="13.3685217"><ele>797.2</ele><time>2026-05-02T14:43:03.281Z</time></trkpt><trkpt lat="42.09789" lon="13.3684633"><ele>794.4</ele><time>2026-05-02T14:43:05.282Z</time></trkpt><trkpt lat="42.0978283" lon="13.36843"><ele>791.5999999999999</ele><time>2026-05-02T14:43:06.281Z</time></trkpt><trkpt lat="42.0977167" lon="13.3683917"><ele>788.8</ele><time>2026-05-02T14:43:08.281Z</time></trkpt><trkpt lat="42.097615" lon="13.3683433"><ele>786.0</ele><time>2026-05-02T14:43:10.281Z</time></trkpt><trkpt lat="42.097505" lon="13.3683083"><ele>782.8</ele><time>2026-05-02T14:43:12.281Z</time></trkpt><trkpt lat="42.097415" lon="13.3682883"><ele>779.5999999999999</ele><time>2026-05-02T14:43:14.281Z</time></trkpt><trkpt lat="42.0973067" lon="13.36826"><ele>776.4</ele><time>2026-05-02T14:43:16.281Z</time></trkpt><trkpt lat="42.0972433" lon="13.3682367"><ele>773.2</ele><time>2026-05-02T14:43:17.281Z</time></trkpt><trkpt lat="42.0971333" lon="13.368185"><ele>770.0</ele><time>2026-05-02T14:43:19.281Z</time></trkpt><trkpt lat="42.0970333" lon="13.3681367"><ele>770.0000000000001</ele><time>2026-05-02T14:43:21.282Z</time></trkpt><trkpt lat="42.0969783" lon="13.368095"><ele>770.0</ele><time>2026-05-02T14:43:22.281Z</time></trkpt><trkpt lat="42.0968733" lon="13.3680267"><ele>770.0</ele><time>2026-05-02T14:43:24.281Z</time></trkpt><trkpt lat="42.0967833" lon="13.3679767"><ele>770.0</ele><time>2026-05-02T14:43:26.28Z</time></trkpt><trkpt lat="42.0967283" lon="13.3678983"><ele>770.0000000000001</ele><time>2026-05-02T14:43:28.281Z</time></trkpt><trkpt lat="42.0966733" lon="13.3678417"><ele>770.0</ele><time>2026-05-02T14:43:30.281Z</time></trkpt><trkpt lat="42.0966083" lon="13.36778"><ele>767.1666666666667</ele><time>2026-05-02T14:43:32.281Z</time></trkpt><trkpt lat="42.0965267" lon="13.3677067"><ele>764.3333333333334</ele><time>2026-05-02T14:43:35.281Z</time></trkpt><trkpt lat="42.09647" lon="13.367645"><ele>761.5</ele><time>2026-05-02T14:43:37.281Z</time></trkpt><trkpt lat="42.09642" lon="13.3675733"><ele>758.6666666666667</ele><time>2026-05-02T14:43:40.281Z</time></trkpt><trkpt lat="42.0963255" lon="13.3674432"><ele>755.8333333333334</ele><time>2026-05-02T14:43:57.302Z</time></trkpt><trkpt lat="42.0962626" lon="13.3674032"><ele>753.0</ele><time>2026-05-02T14:44:03.356Z</time></trkpt><trkpt lat="42.0962074" lon="13.3673481"><ele>753.0</ele><time>2026-05-02T14:44:16.329Z</time></trkpt><trkpt lat="42.096103" lon="13.3672309"><ele>753.0</ele><time>2026-05-02T14:44:27.319Z</time></trkpt><trkpt lat="42.0960506" lon="13.3671825"><ele>753.0</ele><time>2026-05-02T14:44:30.365Z</time></trkpt><trkpt lat="42.095969" lon="13.3671367"><ele>753.0</ele><time>2026-05-02T14:44:37.281Z</time></trkpt><trkpt lat="42.0956883" lon="13.367045"><ele>750.4285714285714</ele><time>2026-05-02T14:44:38.281Z</time></trkpt><trkpt lat="42.0956233" lon="13.36702"><ele>747.8571428571429</ele><time>2026-05-02T14:44:39.281Z</time></trkpt><trkpt lat="42.0955483" lon="13.36699"><ele>745.2857142857142</ele><time>2026-05-02T14:44:40.281Z</time></trkpt><trkpt lat="42.0954767" lon="13.3669517"><ele>742.7142857142858</ele><time>2026-05-02T14:44:41.281Z</time></trkpt><trkpt lat="42.0954083" lon="13.3669083"><ele>740.1428571428571</ele><time>2026-05-02T14:44:42.281Z</time></trkpt><trkpt lat="42.0953333" lon="13.3668783"><ele>737.5714285714286</ele><time>2026-05-02T14:44:43.281Z</time></trkpt><trkpt lat="42.0952683" lon="13.366835"><ele>735.0</ele><time>2026-05-02T14:44:44.281Z</time></trkpt><trkpt lat="42.095205" lon="13.3667967"><ele>735.0</ele><time>2026-05-02T14:44:45.282Z</time></trkpt><trkpt lat="42.09513" lon="13.36677"><ele>735.0</ele><time>2026-05-02T14:44:46.281Z</time></trkpt><trkpt lat="42.0950633" lon="13.3667333"><ele>735.0</ele><time>2026-05-02T14:44:47.281Z</time></trkpt><trkpt lat="42.0950017" lon="13.3666917"><ele>735.0</ele><time>2026-05-02T14:44:48.281Z</time></trkpt><trkpt lat="42.09493" lon="13.36666"><ele>735.0</ele><time>2026-05-02T14:44:49.281Z</time></trkpt><trkpt lat="42.0948167" lon="13.366625"><ele>735.0</ele><time>2026-05-02T14:44:51.281Z</time></trkpt><trkpt lat="42.0946983" lon="13.3666117"><ele>734.8</ele><time>2026-05-02T14:44:53.281Z</time></trkpt><trkpt lat="42.0945767" lon="13.3665317"><ele>734.6</ele><time>2026-05-02T14:44:55.281Z</time></trkpt><trkpt lat="42.0945133" lon="13.3664883"><ele>734.4000000000001</ele><time>2026-05-02T14:44:56.281Z</time></trkpt><trkpt lat="42.0944483" lon="13.3664417"><ele>734.2</ele><time>2026-05-02T14:44:57.281Z</time></trkpt><trkpt lat="42.0943583" lon="13.366345"><ele>734.0</ele><time>2026-05-02T14:44:59.281Z</time></trkpt><trkpt lat="42.0943433" lon="13.3661867"><ele>733.4000000000001</ele><time>2026-05-02T14:45:01.281Z</time></trkpt><trkpt lat="42.0943717" lon="13.3661"><ele>732.8</ele><time>2026-05-02T14:45:02.281Z</time></trkpt><trkpt lat="42.0944417" lon="13.3659967"><ele>732.2</ele><time>2026-05-02T14:45:03.281Z</time></trkpt><trkpt lat="42.094495" lon="13.3658967"><ele>731.5999999999999</ele><time>2026-05-02T14:45:04.281Z</time></trkpt><trkpt lat="42.09456" lon="13.3657933"><ele>731.0</ele><time>2026-05-02T14:45:05.281Z</time></trkpt><trkpt lat="42.0946283" lon="13.3656883"><ele>731.0</ele><time>2026-05-02T14:45:06.281Z</time></trkpt><trkpt lat="42.09472" lon="13.3655833"><ele>731.0</ele><time>2026-05-02T14:45:07.281Z</time></trkpt><trkpt lat="42.094785" lon="13.3654867"><ele>731.0</ele><time>2026-05-02T14:45:08.281Z</time></trkpt><trkpt lat="42.0948467" lon="13.365385"><ele>731.0</ele><time>2026-05-02T14:45:09.281Z</time></trkpt><trkpt lat="42.094915" lon="13.3652783"><ele>731.0</ele><time>2026-05-02T14:45:10.281Z</time></trkpt><trkpt lat="42.0950017" lon="13.3651633"><ele>730.5</ele><time>2026-05-02T14:45:11.281Z</time></trkpt><trkpt lat="42.0950833" lon="13.3650433"><ele>730.0</ele><time>2026-05-02T14:45:12.281Z</time></trkpt><trkpt lat="42.0951783" lon="13.36492"><ele>729.5</ele><time>2026-05-02T14:45:13.281Z</time></trkpt><trkpt lat="42.0952533" lon="13.3648067"><ele>729.0</ele><time>2026-05-02T14:45:14.281Z</time></trkpt><trkpt lat="42.0953383" lon="13.3646983"><ele>728.8000000000001</ele><time>2026-05-02T14:45:15.281Z</time></trkpt><trkpt lat="42.0954117" lon="13.3646"><ele>728.6</ele><time>2026-05-02T14:45:16.281Z</time></trkpt><trkpt lat="42.095485" lon="13.36451"><ele>728.4</ele><time>2026-05-02T14:45:17.281Z</time></trkpt><trkpt lat="42.095575" lon="13.36442"><ele>728.2</ele><time>2026-05-02T14:45:18.281Z</time></trkpt><trkpt lat="42.0956683" lon="13.3643217"><ele>728.0</ele><time>2026-05-02T14:45:19.281Z</time></trkpt><trkpt lat="42.0957533" lon="13.3642117"><ele>727.25</ele><time>2026-05-02T14:45:20.281Z</time></trkpt><trkpt lat="42.0958383" lon="13.3640833"><ele>726.5</ele><time>2026-05-02T14:45:21.282Z</time></trkpt><trkpt lat="42.0959183" lon="13.3639517"><ele>725.75</ele><time>2026-05-02T14:45:22.282Z</time></trkpt><trkpt lat="42.0960117" lon="13.36383"><ele>725.0</ele><time>2026-05-02T14:45:23.281Z</time></trkpt><trkpt lat="42.0961033" lon="13.363685"><ele>724.0</ele><time>2026-05-02T14:45:24.28Z</time></trkpt><trkpt lat="42.0962" lon="13.36353"><ele>723.0</ele><time>2026-05-02T14:45:25.28Z</time></trkpt><trkpt lat="42.0963167" lon="13.3633533"><ele>722.0</ele><time>2026-05-02T14:45:26.281Z</time></trkpt><trkpt lat="42.0964483" lon="13.3631533"><ele>721.6666666666666</ele><time>2026-05-02T14:45:27.28Z</time></trkpt><trkpt lat="42.0965633" lon="13.3629533"><ele>721.3333333333334</ele><time>2026-05-02T14:45:28.28Z</time></trkpt><trkpt lat="42.096685" lon="13.3627717"><ele>721.0</ele><time>2026-05-02T14:45:29.28Z</time></trkpt><trkpt lat="42.0968033" lon="13.3626"><ele>719.3333333333334</ele><time>2026-05-02T14:45:30.28Z</time></trkpt><trkpt lat="42.0969217" lon="13.3624317"><ele>717.6666666666666</ele><time>2026-05-02T14:45:31.28Z</time></trkpt><trkpt lat="42.0970317" lon="13.3622633"><ele>716.0</ele><time>2026-05-02T14:45:32.28Z</time></trkpt><trkpt lat="42.0971483" lon="13.3621"><ele>715.6666666666666</ele><time>2026-05-02T14:45:33.281Z</time></trkpt><trkpt lat="42.09725" lon="13.3619233"><ele>715.3333333333334</ele><time>2026-05-02T14:45:34.28Z</time></trkpt><trkpt lat="42.097365" lon="13.3617533"><ele>715.0</ele><time>2026-05-02T14:45:35.28Z</time></trkpt><trkpt lat="42.0974817" lon="13.361585"><ele>714.6666666666667</ele><time>2026-05-02T14:45:36.281Z</time></trkpt><trkpt lat="42.0976" lon="13.3614033"><ele>714.3333333333334</ele><time>2026-05-02T14:45:37.281Z</time></trkpt><trkpt lat="42.0977217" lon="13.36123"><ele>714.0</ele><time>2026-05-02T14:45:38.28Z</time></trkpt><trkpt lat="42.0978183" lon="13.3610567"><ele>714.0</ele><time>2026-05-02T14:45:39.28Z</time></trkpt><trkpt lat="42.0979333" lon="13.3608883"><ele>714.0</ele><time>2026-05-02T14:45:40.28Z</time></trkpt><trkpt lat="42.0980533" lon="13.360725"><ele>714.0</ele><time>2026-05-02T14:45:41.281Z</time></trkpt><trkpt lat="42.09818" lon="13.3605667"><ele>712.3333333333334</ele><time>2026-05-02T14:45:42.28Z</time></trkpt><trkpt lat="42.098305" lon="13.3603883"><ele>710.6666666666667</ele><time>2026-05-02T14:45:43.28Z</time></trkpt><trkpt lat="42.0984283" lon="13.36022"><ele>709.0</ele><time>2026-05-02T14:45:44.28Z</time></trkpt><trkpt lat="42.098565" lon="13.3600583"><ele>709.0</ele><time>2026-05-02T14:45:45.28Z</time></trkpt><trkpt lat="42.0987033" lon="13.3599017"><ele>709.0</ele><time>2026-05-02T14:45:46.28Z</time></trkpt><trkpt lat="42.0988283" lon="13.35976"><ele>709.0</ele><time>2026-05-02T14:45:47.28Z</time></trkpt><trkpt lat="42.09896" lon="13.3596117"><ele>708.75</ele><time>2026-05-02T14:45:48.28Z</time></trkpt><trkpt lat="42.099075" lon="13.3594733"><ele>708.5</ele><time>2026-05-02T14:45:49.28Z</time></trkpt><trkpt lat="42.0991833" lon="13.3593433"><ele>708.25</ele><time>2026-05-02T14:45:50.28Z</time></trkpt><trkpt lat="42.09928" lon="13.3592167"><ele>708.0</ele><time>2026-05-02T14:45:51.28Z</time></trkpt><trkpt lat="42.0993933" lon="13.3590817"><ele>708.0</ele><time>2026-05-02T14:45:52.28Z</time></trkpt><trkpt lat="42.0994833" lon="13.358955"><ele>708.0</ele><time>2026-05-02T14:45:53.28Z</time></trkpt><trkpt lat="42.099605" lon="13.3588233"><ele>708.0</ele><time>2026-05-02T14:45:54.28Z</time></trkpt><trkpt lat="42.0997" lon="13.35869"><ele>708.0</ele><time>2026-05-02T14:45:55.28Z</time></trkpt><trkpt lat="42.0997883" lon="13.3585617"><ele>708.0</ele><time>2026-05-02T14:45:56.28Z</time></trkpt><trkpt lat="42.0998967" lon="13.35843"><ele>708.0</ele><time>2026-05-02T14:45:57.28Z</time></trkpt><trkpt lat="42.0999967" lon="13.3583033"><ele>708.0</ele><time>2026-05-02T14:45:58.28Z</time></trkpt><trkpt lat="42.1001117" lon="13.3581717"><ele>708.0</ele><time>2026-05-02T14:45:59.28Z</time></trkpt><trkpt lat="42.1002317" lon="13.3580417"><ele>708.25</ele><time>2026-05-02T14:46:00.28Z</time></trkpt><trkpt lat="42.1003533" lon="13.3579083"><ele>708.5</ele><time>2026-05-02T14:46:01.28Z</time></trkpt><trkpt lat="42.10047" lon="13.3577917"><ele>708.75</ele><time>2026-05-02T14:46:02.28Z</time></trkpt><trkpt lat="42.1005867" lon="13.35768"><ele>709.0</ele><time>2026-05-02T14:46:03.28Z</time></trkpt><trkpt lat="42.1007067" lon="13.3575717"><ele>709.25</ele><time>2026-05-02T14:46:04.28Z</time></trkpt><trkpt lat="42.1008133" lon="13.3574567"><ele>709.5</ele><time>2026-05-02T14:46:05.28Z</time></trkpt><trkpt lat="42.100905" lon="13.35734"><ele>709.75</ele><time>2026-05-02T14:46:06.28Z</time></trkpt><trkpt lat="42.1010133" lon="13.3572383"><ele>710.0</ele><time>2026-05-02T14:46:07.28Z</time></trkpt><trkpt lat="42.1011267" lon="13.3571183"><ele>710.0</ele><time>2026-05-02T14:46:08.28Z</time></trkpt><trkpt lat="42.101255" lon="13.3570117"><ele>710.0</ele><time>2026-05-02T14:46:09.28Z</time></trkpt><trkpt lat="42.1013933" lon="13.3568983"><ele>710.0</ele><time>2026-05-02T14:46:10.28Z</time></trkpt><trkpt lat="42.10153" lon="13.3567683"><ele>711.0</ele><time>2026-05-02T14:46:11.28Z</time></trkpt><trkpt lat="42.1016617" lon="13.356635"><ele>712.0</ele><time>2026-05-02T14:46:12.28Z</time></trkpt><trkpt lat="42.1017917" lon="13.3564917"><ele>713.0</ele><time>2026-05-02T14:46:13.28Z</time></trkpt><trkpt lat="42.1018933" lon="13.3563467"><ele>713.0</ele><time>2026-05-02T14:46:14.28Z</time></trkpt><trkpt lat="42.102015" lon="13.3562133"><ele>713.0</ele><time>2026-05-02T14:46:15.28Z</time></trkpt><trkpt lat="42.10213" lon="13.3560667"><ele>713.0</ele><time>2026-05-02T14:46:16.28Z</time></trkpt><trkpt lat="42.102245" lon="13.3559217"><ele>713.0</ele><time>2026-05-02T14:46:17.281Z</time></trkpt><trkpt lat="42.1023633" lon="13.355765"><ele>713.0</ele><time>2026-05-02T14:46:18.28Z</time></trkpt><trkpt lat="42.1024767" lon="13.3556167"><ele>713.0</ele><time>2026-05-02T14:46:19.28Z</time></trkpt><trkpt lat="42.1026017" lon="13.3554567"><ele>713.0</ele><time>2026-05-02T14:46:20.28Z</time></trkpt><trkpt lat="42.1027267" lon="13.3552967"><ele>713.0</ele><time>2026-05-02T14:46:21.28Z</time></trkpt><trkpt lat="42.10285" lon="13.3551367"><ele>713.0</ele><time>2026-05-02T14:46:22.28Z</time></trkpt><trkpt lat="42.1029767" lon="13.354975"><ele>713.0</ele><time>2026-05-02T14:46:23.28Z</time></trkpt><trkpt lat="42.1030967" lon="13.35481"><ele>713.0</ele><time>2026-05-02T14:46:24.28Z</time></trkpt><trkpt lat="42.1032233" lon="13.354655"><ele>713.0</ele><time>2026-05-02T14:46:25.28Z</time></trkpt><trkpt lat="42.103345" lon="13.3545017"><ele>716.3333333333333</ele><time>2026-05-02T14:46:26.28Z</time></trkpt><trkpt lat="42.10346" lon="13.3543483"><ele>719.6666666666666</ele><time>2026-05-02T14:46:27.281Z</time></trkpt><trkpt lat="42.1035683" lon="13.3542"><ele>723.0</ele><time>2026-05-02T14:46:28.28Z</time></trkpt><trkpt lat="42.103675" lon="13.35405"><ele>723.0</ele><time>2026-05-02T14:46:29.28Z</time></trkpt><trkpt lat="42.1037917" lon="13.3539033"><ele>723.0</ele><time>2026-05-02T14:46:30.28Z</time></trkpt><trkpt lat="42.1039" lon="13.35375"><ele>723.0</ele><time>2026-05-02T14:46:31.28Z</time></trkpt><trkpt lat="42.1040167" lon="13.353595"><ele>725.3333333333334</ele><time>2026-05-02T14:46:32.28Z</time></trkpt><trkpt lat="42.1041367" lon="13.3534383"><ele>727.6666666666667</ele><time>2026-05-02T14:46:33.28Z</time></trkpt><trkpt lat="42.1042517" lon="13.3532967"><ele>730.0</ele><time>2026-05-02T14:46:34.28Z</time></trkpt><trkpt lat="42.1043783" lon="13.3531767"><ele>730.0</ele><time>2026-05-02T14:46:35.28Z</time></trkpt><trkpt lat="42.1045283" lon="13.3530717"><ele>730.0</ele><time>2026-05-02T14:46:36.28Z</time></trkpt><trkpt lat="42.1046567" lon="13.3529667"><ele>730.0</ele><time>2026-05-02T14:46:37.28Z</time></trkpt><trkpt lat="42.1047867" lon="13.352855"><ele>732.5</ele><time>2026-05-02T14:46:38.28Z</time></trkpt><trkpt lat="42.1049267" lon="13.3527417"><ele>735.0</ele><time>2026-05-02T14:46:39.28Z</time></trkpt><trkpt lat="42.1050433" lon="13.3526417"><ele>737.5</ele><time>2026-05-02T14:46:40.281Z</time></trkpt><trkpt lat="42.1051633" lon="13.3525567"><ele>740.0</ele><time>2026-05-02T14:46:41.28Z</time></trkpt><trkpt lat="42.1052633" lon="13.3524783"><ele>740.0</ele><time>2026-05-02T14:46:42.28Z</time></trkpt><trkpt lat="42.1053433" lon="13.3523967"><ele>740.0</ele><time>2026-05-02T14:46:43.28Z</time></trkpt><trkpt lat="42.105435" lon="13.3523233"><ele>740.0</ele><time>2026-05-02T14:46:44.28Z</time></trkpt><trkpt lat="42.1055133" lon="13.3522567"><ele>740.0</ele><time>2026-05-02T14:46:45.28Z</time></trkpt><trkpt lat="42.1055983" lon="13.352205"><ele>740.0</ele><time>2026-05-02T14:46:46.28Z</time></trkpt><trkpt lat="42.1056783" lon="13.3521333"><ele>740.8</ele><time>2026-05-02T14:46:47.28Z</time></trkpt><trkpt lat="42.105775" lon="13.352055"><ele>741.6</ele><time>2026-05-02T14:46:48.28Z</time></trkpt><trkpt lat="42.1058767" lon="13.351975"><ele>742.4000000000001</ele><time>2026-05-02T14:46:49.28Z</time></trkpt><trkpt lat="42.105975" lon="13.3519"><ele>743.2</ele><time>2026-05-02T14:46:50.28Z</time></trkpt><trkpt lat="42.106055" lon="13.351815"><ele>744.0</ele><time>2026-05-02T14:46:51.28Z</time></trkpt><trkpt lat="42.1061483" lon="13.351755"><ele>744.0</ele><time>2026-05-02T14:46:52.28Z</time></trkpt><trkpt lat="42.1062217" lon="13.3516967"><ele>744.0</ele><time>2026-05-02T14:46:53.28Z</time></trkpt><trkpt lat="42.1062817" lon="13.3516317"><ele>744.0</ele><time>2026-05-02T14:46:54.28Z</time></trkpt><trkpt lat="42.1063417" lon="13.3515833"><ele>744.0</ele><time>2026-05-02T14:46:55.28Z</time></trkpt><trkpt lat="42.1064067" lon="13.3515433"><ele>744.0</ele><time>2026-05-02T14:46:56.28Z</time></trkpt><trkpt lat="42.106465" lon="13.3515"><ele>744.0</ele><time>2026-05-02T14:46:57.28Z</time></trkpt><trkpt lat="42.1065783" lon="13.3514433"><ele>744.5</ele><time>2026-05-02T14:46:59.28Z</time></trkpt><trkpt lat="42.106645" lon="13.3513917"><ele>745.0</ele><time>2026-05-02T14:47:00.28Z</time></trkpt><trkpt lat="42.1067067" lon="13.3513683"><ele>745.5</ele><time>2026-05-02T14:47:01.28Z</time></trkpt><trkpt lat="42.1067717" lon="13.35134"><ele>746.0</ele><time>2026-05-02T14:47:02.28Z</time></trkpt><trkpt lat="42.10684" lon="13.35132"><ele>746.5</ele><time>2026-05-02T14:47:03.28Z</time></trkpt><trkpt lat="42.106905" lon="13.351275"><ele>747.0</ele><time>2026-05-02T14:47:04.28Z</time></trkpt><trkpt lat="42.107" lon="13.3511733"><ele>747.0</ele><time>2026-05-02T14:47:06.28Z</time></trkpt><trkpt lat="42.10704" lon="13.3510883"><ele>747.0</ele><time>2026-05-02T14:47:07.28Z</time></trkpt><trkpt lat="42.1070717" lon="13.3509617"><ele>747.0</ele><time>2026-05-02T14:47:08.28Z</time></trkpt><trkpt lat="42.1070917" lon="13.3508133"><ele>747.0</ele><time>2026-05-02T14:47:09.28Z</time></trkpt><trkpt lat="42.10711" lon="13.3506833"><ele>747.0</ele><time>2026-05-02T14:47:10.28Z</time></trkpt><trkpt lat="42.1071267" lon="13.3505617"><ele>747.3333333333334</ele><time>2026-05-02T14:47:11.28Z</time></trkpt><trkpt lat="42.10713" lon="13.3504467"><ele>747.6666666666666</ele><time>2026-05-02T14:47:12.28Z</time></trkpt><trkpt lat="42.1071383" lon="13.3503367"><ele>748.0</ele><time>2026-05-02T14:47:13.28Z</time></trkpt><trkpt lat="42.1071633" lon="13.3502317"><ele>748.3333333333333</ele><time>2026-05-02T14:47:14.281Z</time></trkpt><trkpt lat="42.1071917" lon="13.350145"><ele>748.6666666666666</ele><time>2026-05-02T14:47:15.28Z</time></trkpt><trkpt lat="42.107225" lon="13.3500667"><ele>749.0</ele><time>2026-05-02T14:47:16.28Z</time></trkpt><trkpt lat="42.10726" lon="13.34999"><ele>749.0</ele><time>2026-05-02T14:47:17.28Z</time></trkpt><trkpt lat="42.1073" lon="13.3499233"><ele>749.0</ele><time>2026-05-02T14:47:18.28Z</time></trkpt><trkpt lat="42.1073667" lon="13.3498"><ele>749.0</ele><time>2026-05-02T14:47:20.28Z</time></trkpt><trkpt lat="42.1074583" lon="13.349665"><ele>749.0</ele><time>2026-05-02T14:47:22.28Z</time></trkpt><trkpt lat="42.1075233" lon="13.3495933"><ele>749.0</ele><time>2026-05-02T14:47:23.28Z</time></trkpt><trkpt lat="42.1075717" lon="13.349505"><ele>749.3333333333333</ele><time>2026-05-02T14:47:24.28Z</time></trkpt><trkpt lat="42.1076267" lon="13.34942"><ele>749.6666666666666</ele><time>2026-05-02T14:47:25.28Z</time></trkpt><trkpt lat="42.1076833" lon="13.3493467"><ele>750.0</ele><time>2026-05-02T14:47:26.28Z</time></trkpt><trkpt lat="42.107725" lon="13.3492783"><ele>750.3333333333334</ele><time>2026-05-02T14:47:27.28Z</time></trkpt><trkpt lat="42.1077617" lon="13.3492067"><ele>750.6666666666667</ele><time>2026-05-02T14:47:28.281Z</time></trkpt><trkpt lat="42.1077833" lon="13.3491267"><ele>751.0</ele><time>2026-05-02T14:47:29.28Z</time></trkpt><trkpt lat="42.1078133" lon="13.348965"><ele>751.0</ele><time>2026-05-02T14:47:31.28Z</time></trkpt><trkpt lat="42.1078333" lon="13.3488717"><ele>751.0</ele><time>2026-05-02T14:47:32.28Z</time></trkpt><trkpt lat="42.107845" lon="13.348775"><ele>751.0</ele><time>2026-05-02T14:47:33.28Z</time></trkpt><trkpt lat="42.107855" lon="13.3486883"><ele>751.0</ele><time>2026-05-02T14:47:34.28Z</time></trkpt><trkpt lat="42.107875" lon="13.348545"><ele>751.0</ele><time>2026-05-02T14:47:36.28Z</time></trkpt><trkpt lat="42.10789" lon="13.3484283"><ele>751.0</ele><time>2026-05-02T14:47:38.28Z</time></trkpt><trkpt lat="42.1079067" lon="13.3483133"><ele>751.0</ele><time>2026-05-02T14:47:40.28Z</time></trkpt><trkpt lat="42.10793" lon="13.3481733"><ele>751.0</ele><time>2026-05-02T14:47:42.28Z</time></trkpt><trkpt lat="42.107955" lon="13.348065"><ele>751.0</ele><time>2026-05-02T14:47:44.28Z</time></trkpt><trkpt lat="42.107955" lon="13.347975"><ele>751.0</ele><time>2026-05-02T14:47:48.28Z</time></trkpt><trkpt lat="42.1079667" lon="13.34787"><ele>751.0</ele><time>2026-05-02T14:47:51.28Z</time></trkpt><trkpt lat="42.1079933" lon="13.34777"><ele>751.0</ele><time>2026-05-02T14:47:54.28Z</time></trkpt><trkpt lat="42.10805" lon="13.347695"><ele>751.4</ele><time>2026-05-02T14:47:56.28Z</time></trkpt><trkpt lat="42.1081733" lon="13.3476333"><ele>751.8</ele><time>2026-05-02T14:47:58.28Z</time></trkpt><trkpt lat="42.1082433" lon="13.3475867"><ele>752.1999999999999</ele><time>2026-05-02T14:47:59.28Z</time></trkpt><trkpt lat="42.1083583" lon="13.3475367"><ele>752.5999999999999</ele><time>2026-05-02T14:48:00.28Z</time></trkpt><trkpt lat="42.108465" lon="13.3474817"><ele>753.0</ele><time>2026-05-02T14:48:01.28Z</time></trkpt><trkpt lat="42.1085783" lon="13.34742"><ele>754.25</ele><time>2026-05-02T14:48:02.28Z</time></trkpt><trkpt lat="42.1086983" lon="13.34736"><ele>755.5</ele><time>2026-05-02T14:48:03.28Z</time></trkpt><trkpt lat="42.108805" lon="13.3473217"><ele>756.75</ele><time>2026-05-02T14:48:04.28Z</time></trkpt><trkpt lat="42.1089417" lon="13.3472817"><ele>758.0</ele><time>2026-05-02T14:48:05.28Z</time></trkpt><trkpt lat="42.1090517" lon="13.347245"><ele>759.75</ele><time>2026-05-02T14:48:06.281Z</time></trkpt><trkpt lat="42.10917" lon="13.3472117"><ele>761.5</ele><time>2026-05-02T14:48:07.28Z</time></trkpt><trkpt lat="42.1092933" lon="13.3471817"><ele>763.25</ele><time>2026-05-02T14:48:08.28Z</time></trkpt><trkpt lat="42.1094233" lon="13.347155"><ele>765.0</ele><time>2026-05-02T14:48:09.28Z</time></trkpt><trkpt lat="42.1095517" lon="13.3471283"><ele>765.0</ele><time>2026-05-02T14:48:10.281Z</time></trkpt><trkpt lat="42.1096667" lon="13.347095"><ele>765.0</ele><time>2026-05-02T14:48:11.281Z</time></trkpt><trkpt lat="42.109775" lon="13.34706"><ele>765.0</ele><time>2026-05-02T14:48:12.28Z</time></trkpt><trkpt lat="42.1098917" lon="13.347045"><ele>765.0</ele><time>2026-05-02T14:48:13.281Z</time></trkpt><trkpt lat="42.109995" lon="13.3470117"><ele>767.0</ele><time>2026-05-02T14:48:14.28Z</time></trkpt><trkpt lat="42.11011" lon="13.3469867"><ele>769.0</ele><time>2026-05-02T14:48:15.28Z</time></trkpt><trkpt lat="42.110265" lon="13.3469567"><ele>771.0</ele><time>2026-05-02T14:48:16.28Z</time></trkpt><trkpt lat="42.110415" lon="13.3469083"><ele>773.0</ele><time>2026-05-02T14:48:17.281Z</time></trkpt><trkpt lat="42.11057" lon="13.3468483"><ele>773.0</ele><time>2026-05-02T14:48:18.28Z</time></trkpt><trkpt lat="42.1107317" lon="13.3467917"><ele>773.0</ele><time>2026-05-02T14:48:19.281Z</time></trkpt><trkpt lat="42.1108733" lon="13.3467183"><ele>773.0</ele><time>2026-05-02T14:48:20.28Z</time></trkpt><trkpt lat="42.1110383" lon="13.346645"><ele>774.25</ele><time>2026-05-02T14:48:21.28Z</time></trkpt><trkpt lat="42.11118" lon="13.3465783"><ele>775.5</ele><time>2026-05-02T14:48:22.28Z</time></trkpt><trkpt lat="42.1113067" lon="13.346505"><ele>776.75</ele><time>2026-05-02T14:48:23.28Z</time></trkpt><trkpt lat="42.11144" lon="13.34645"><ele>778.0</ele><time>2026-05-02T14:48:24.281Z</time></trkpt><trkpt lat="42.1115767" lon="13.34639"><ele>780.3333333333333</ele><time>2026-05-02T14:48:25.28Z</time></trkpt><trkpt lat="42.111745" lon="13.3463183"><ele>782.6666666666667</ele><time>2026-05-02T14:48:26.28Z</time></trkpt><trkpt lat="42.1119067" lon="13.3462483"><ele>785.0</ele><time>2026-05-02T14:48:27.28Z</time></trkpt><trkpt lat="42.1120633" lon="13.346165"><ele>785.0</ele><time>2026-05-02T14:48:28.28Z</time></trkpt><trkpt lat="42.1121983" lon="13.3460883"><ele>785.0</ele><time>2026-05-02T14:48:29.28Z</time></trkpt><trkpt lat="42.1123633" lon="13.3460083"><ele>785.0</ele><time>2026-05-02T14:48:30.28Z</time></trkpt><trkpt lat="42.1125167" lon="13.3458983"><ele>787.6666666666667</ele><time>2026-05-02T14:48:31.28Z</time></trkpt><trkpt lat="42.11266" lon="13.3457933"><ele>790.3333333333333</ele><time>2026-05-02T14:48:32.28Z</time></trkpt><trkpt lat="42.1128067" lon="13.3457017"><ele>793.0</ele><time>2026-05-02T14:48:33.28Z</time></trkpt><trkpt lat="42.11294" lon="13.34559"><ele>791.75</ele><time>2026-05-02T14:48:34.28Z</time></trkpt><trkpt lat="42.1130633" lon="13.3455067"><ele>790.5</ele><time>2026-05-02T14:48:35.28Z</time></trkpt><trkpt lat="42.113185" lon="13.3454167"><ele>789.25</ele><time>2026-05-02T14:48:36.28Z</time></trkpt><trkpt lat="42.1133083" lon="13.345325"><ele>788.0</ele><time>2026-05-02T14:48:37.28Z</time></trkpt><trkpt lat="42.1134333" lon="13.34523"><ele>791.3333333333334</ele><time>2026-05-02T14:48:38.28Z</time></trkpt><trkpt lat="42.1135833" lon="13.3451333"><ele>794.6666666666667</ele><time>2026-05-02T14:48:39.28Z</time></trkpt><trkpt lat="42.1137083" lon="13.3450333"><ele>798.0</ele><time>2026-05-02T14:48:40.28Z</time></trkpt><trkpt lat="42.113845" lon="13.344935"><ele>798.0</ele><time>2026-05-02T14:48:41.28Z</time></trkpt><trkpt lat="42.113995" lon="13.344845"><ele>798.0</ele><time>2026-05-02T14:48:42.28Z</time></trkpt><trkpt lat="42.1141617" lon="13.3447533"><ele>798.0</ele><time>2026-05-02T14:48:43.28Z</time></trkpt><trkpt lat="42.1143133" lon="13.3446567"><ele>800.0</ele><time>2026-05-02T14:48:44.28Z</time></trkpt><trkpt lat="42.114475" lon="13.344595"><ele>802.0</ele><time>2026-05-02T14:48:45.28Z</time></trkpt><trkpt lat="42.1146317" lon="13.3445483"><ele>804.0</ele><time>2026-05-02T14:48:46.281Z</time></trkpt><trkpt lat="42.1147833" lon="13.344515"><ele>805.3333333333333</ele><time>2026-05-02T14:48:47.28Z</time></trkpt><trkpt lat="42.1149317" lon="13.3445067"><ele>806.6666666666666</ele><time>2026-05-02T14:48:48.28Z</time></trkpt><trkpt lat="42.11507" lon="13.3444883"><ele>808.0</ele><time>2026-05-02T14:48:49.28Z</time></trkpt><trkpt lat="42.1152417" lon="13.3444767"><ele>808.0</ele><time>2026-05-02T14:48:50.28Z</time></trkpt><trkpt lat="42.1153983" lon="13.3444633"><ele>808.0</ele><time>2026-05-02T14:48:51.281Z</time></trkpt><trkpt lat="42.1155567" lon="13.3444567"><ele>808.0</ele><time>2026-05-02T14:48:52.281Z</time></trkpt><trkpt lat="42.1157133" lon="13.34443"><ele>808.6666666666666</ele><time>2026-05-02T14:48:53.28Z</time></trkpt><trkpt lat="42.1158767" lon="13.3444083"><ele>809.3333333333333</ele><time>2026-05-02T14:48:54.28Z</time></trkpt><trkpt lat="42.1160617" lon="13.34438"><ele>810.0</ele><time>2026-05-02T14:48:55.28Z</time></trkpt><trkpt lat="42.1162317" lon="13.3443467"><ele>810.0</ele><time>2026-05-02T14:48:56.28Z</time></trkpt><trkpt lat="42.1164233" lon="13.3443183"><ele>810.0</ele><time>2026-05-02T14:48:57.28Z</time></trkpt><trkpt lat="42.1166067" lon="13.3442783"><ele>810.0</ele><time>2026-05-02T14:48:58.28Z</time></trkpt><trkpt lat="42.1168167" lon="13.3442683"><ele>813.0</ele><time>2026-05-02T14:48:59.281Z</time></trkpt><trkpt lat="42.117015" lon="13.34425"><ele>816.0</ele><time>2026-05-02T14:49:00.28Z</time></trkpt><trkpt lat="42.1172067" lon="13.3442333"><ele>819.0</ele><time>2026-05-02T14:49:01.28Z</time></trkpt><trkpt lat="42.1173867" lon="13.34422"><ele>821.3333333333333</ele><time>2026-05-02T14:49:02.28Z</time></trkpt><trkpt lat="42.1175767" lon="13.3441683"><ele>823.6666666666666</ele><time>2026-05-02T14:49:03.28Z</time></trkpt><trkpt lat="42.11775" lon="13.3441517"><ele>826.0</ele><time>2026-05-02T14:49:04.28Z</time></trkpt><trkpt lat="42.11792" lon="13.34414"><ele>826.0</ele><time>2026-05-02T14:49:05.28Z</time></trkpt><trkpt lat="42.11809" lon="13.34413"><ele>826.0</ele><time>2026-05-02T14:49:06.28Z</time></trkpt><trkpt lat="42.11824" lon="13.34415"><ele>826.0</ele><time>2026-05-02T14:49:07.28Z</time></trkpt><trkpt lat="42.118395" lon="13.3441667"><ele>827.3333333333333</ele><time>2026-05-02T14:49:08.28Z</time></trkpt><trkpt lat="42.1185567" lon="13.3441917"><ele>828.6666666666667</ele><time>2026-05-02T14:49:09.28Z</time></trkpt><trkpt lat="42.1187017" lon="13.34421"><ele>830.0</ele><time>2026-05-02T14:49:10.28Z</time></trkpt><trkpt lat="42.11885" lon="13.344225"><ele>830.0</ele><time>2026-05-02T14:49:11.28Z</time></trkpt><trkpt lat="42.1189967" lon="13.344245"><ele>830.0</ele><time>2026-05-02T14:49:12.28Z</time></trkpt><trkpt lat="42.1191417" lon="13.3442467"><ele>830.0</ele><time>2026-05-02T14:49:13.28Z</time></trkpt><trkpt lat="42.1192983" lon="13.3442683"><ele>833.0</ele><time>2026-05-02T14:49:14.28Z</time></trkpt><trkpt lat="42.1194533" lon="13.3442733"><ele>836.0</ele><time>2026-05-02T14:49:15.28Z</time></trkpt><trkpt lat="42.119615" lon="13.3442633"><ele>839.0</ele><time>2026-05-02T14:49:16.281Z</time></trkpt><trkpt lat="42.1197667" lon="13.3442417"><ele>841.3333333333334</ele><time>2026-05-02T14:49:17.28Z</time></trkpt><trkpt lat="42.119955" lon="13.34422"><ele>843.6666666666667</ele><time>2026-05-02T14:49:18.28Z</time></trkpt><trkpt lat="42.1201417" lon="13.344175"><ele>846.0</ele><time>2026-05-02T14:49:19.28Z</time></trkpt><trkpt lat="42.120325" lon="13.3441083"><ele>846.0</ele><time>2026-05-02T14:49:20.28Z</time></trkpt><trkpt lat="42.1205067" lon="13.3440383"><ele>846.0</ele><time>2026-05-02T14:49:21.28Z</time></trkpt><trkpt lat="42.1206767" lon="13.3439767"><ele>846.0</ele><time>2026-05-02T14:49:22.28Z</time></trkpt><trkpt lat="42.1208367" lon="13.34392"><ele>849.0</ele><time>2026-05-02T14:49:23.28Z</time></trkpt><trkpt lat="42.12099" lon="13.3438667"><ele>852.0</ele><time>2026-05-02T14:49:24.28Z</time></trkpt><trkpt lat="42.121135" lon="13.3438083"><ele>855.0</ele><time>2026-05-02T14:49:25.28Z</time></trkpt><trkpt lat="42.1212817" lon="13.343755"><ele>855.0</ele><time>2026-05-02T14:49:26.28Z</time></trkpt><trkpt lat="42.12141" lon="13.3436867"><ele>855.0</ele><time>2026-05-02T14:49:27.28Z</time></trkpt><trkpt lat="42.1215183" lon="13.3436017"><ele>855.0</ele><time>2026-05-02T14:49:28.28Z</time></trkpt><trkpt lat="42.1216117" lon="13.3434917"><ele>855.0</ele><time>2026-05-02T14:49:29.28Z</time></trkpt><trkpt lat="42.121675" lon="13.3433833"><ele>857.0</ele><time>2026-05-02T14:49:30.28Z</time></trkpt><trkpt lat="42.121705" lon="13.3432633"><ele>859.0</ele><time>2026-05-02T14:49:31.28Z</time></trkpt><trkpt lat="42.1217133" lon="13.3431183"><ele>861.0</ele><time>2026-05-02T14:49:32.281Z</time></trkpt><trkpt lat="42.1217083" lon="13.342985"><ele>863.0</ele><time>2026-05-02T14:49:33.28Z</time></trkpt><trkpt lat="42.12171" lon="13.3428433"><ele>865.0</ele><time>2026-05-02T14:49:34.28Z</time></trkpt><trkpt lat="42.12168" lon="13.34266"><ele>866.5</ele><time>2026-05-02T14:49:35.28Z</time></trkpt><trkpt lat="42.1216583" lon="13.3424667"><ele>868.0</ele><time>2026-05-02T14:49:36.281Z</time></trkpt><trkpt lat="42.121635" lon="13.3422567"><ele>869.5</ele><time>2026-05-02T14:49:37.28Z</time></trkpt><trkpt lat="42.121605" lon="13.3420667"><ele>871.0</ele><time>2026-05-02T14:49:38.28Z</time></trkpt><trkpt lat="42.1215683" lon="13.3418883"><ele>869.5</ele><time>2026-05-02T14:49:39.28Z</time></trkpt><trkpt lat="42.12153" lon="13.3417167"><ele>868.0</ele><time>2026-05-02T14:49:40.28Z</time></trkpt><trkpt lat="42.12151" lon="13.34155"><ele>866.5</ele><time>2026-05-02T14:49:41.28Z</time></trkpt><trkpt lat="42.121505" lon="13.3413783"><ele>865.0</ele><time>2026-05-02T14:49:42.28Z</time></trkpt><trkpt lat="42.1214983" lon="13.3411717"><ele>865.0</ele><time>2026-05-02T14:49:43.28Z</time></trkpt><trkpt lat="42.1215117" lon="13.3409667"><ele>865.0</ele><time>2026-05-02T14:49:44.28Z</time></trkpt><trkpt lat="42.1214983" lon="13.3407667"><ele>865.0</ele><time>2026-05-02T14:49:45.28Z</time></trkpt><trkpt lat="42.121485" lon="13.34058"><ele>865.0</ele><time>2026-05-02T14:49:46.28Z</time></trkpt><trkpt lat="42.121485" lon="13.3403967"><ele>867.5</ele><time>2026-05-02T14:49:47.28Z</time></trkpt><trkpt lat="42.1214767" lon="13.3402167"><ele>870.0</ele><time>2026-05-02T14:49:48.28Z</time></trkpt><trkpt lat="42.1214417" lon="13.3400317"><ele>872.5</ele><time>2026-05-02T14:49:49.28Z</time></trkpt><trkpt lat="42.1214317" lon="13.3398533"><ele>875.0</ele><time>2026-05-02T14:49:50.28Z</time></trkpt><trkpt lat="42.121385" lon="13.3396517"><ele>878.75</ele><time>2026-05-02T14:49:51.281Z</time></trkpt><trkpt lat="42.121315" lon="13.3394733"><ele>882.5</ele><time>2026-05-02T14:49:52.28Z</time></trkpt><trkpt lat="42.121245" lon="13.33928"><ele>886.25</ele><time>2026-05-02T14:49:53.28Z</time></trkpt><trkpt lat="42.1211833" lon="13.3391233"><ele>890.0</ele><time>2026-05-02T14:49:54.28Z</time></trkpt><trkpt lat="42.1211083" lon="13.3389767"><ele>892.3333333333334</ele><time>2026-05-02T14:49:55.28Z</time></trkpt><trkpt lat="42.12106" lon="13.338845"><ele>894.6666666666667</ele><time>2026-05-02T14:49:56.28Z</time></trkpt><trkpt lat="42.1210133" lon="13.3387317"><ele>897.0</ele><time>2026-05-02T14:49:57.28Z</time></trkpt><trkpt lat="42.120985" lon="13.3386333"><ele>899.3333333333333</ele><time>2026-05-02T14:49:58.28Z</time></trkpt><trkpt lat="42.120935" lon="13.338565"><ele>901.6666666666666</ele><time>2026-05-02T14:49:59.28Z</time></trkpt><trkpt lat="42.1208667" lon="13.3385267"><ele>904.0</ele><time>2026-05-02T14:50:00.28Z</time></trkpt><trkpt lat="42.1208033" lon="13.338535"><ele>903.0</ele><time>2026-05-02T14:50:01.28Z</time></trkpt><trkpt lat="42.1207317" lon="13.3385867"><ele>902.0000000000001</ele><time>2026-05-02T14:50:02.28Z</time></trkpt><trkpt lat="42.1206617" lon="13.3387117"><ele>901.0000000000001</ele><time>2026-05-02T14:50:03.28Z</time></trkpt><trkpt lat="42.1205833" lon="13.338835"><ele>900.0</ele><time>2026-05-02T14:50:04.28Z</time></trkpt><trkpt lat="42.1205133" lon="13.3389583"><ele>899.0</ele><time>2026-05-02T14:50:05.28Z</time></trkpt><trkpt lat="42.1204367" lon="13.339055"><ele>899.0000000000001</ele><time>2026-05-02T14:50:06.28Z</time></trkpt><trkpt lat="42.1203683" lon="13.3391367"><ele>899.0</ele><time>2026-05-02T14:50:07.28Z</time></trkpt><trkpt lat="42.1202983" lon="13.3392083"><ele>899.0</ele><time>2026-05-02T14:50:08.28Z</time></trkpt><trkpt lat="42.1202233" lon="13.3392533"><ele>899.0</ele><time>2026-05-02T14:50:09.28Z</time></trkpt><trkpt lat="42.1201533" lon="13.33928"><ele>899.0000000000001</ele><time>2026-05-02T14:50:10.28Z</time></trkpt><trkpt lat="42.120065" lon="13.3392883"><ele>899.0</ele><time>2026-05-02T14:50:11.28Z</time></trkpt><trkpt lat="42.1199717" lon="13.3392833"><ele>900.0</ele><time>2026-05-02T14:50:12.28Z</time></trkpt><trkpt lat="42.119865" lon="13.3392617"><ele>901.0</ele><time>2026-05-02T14:50:13.28Z</time></trkpt><trkpt lat="42.119755" lon="13.339235"><ele>902.0</ele><time>2026-05-02T14:50:14.281Z</time></trkpt><trkpt lat="42.119645" lon="13.3392233"><ele>903.0</ele><time>2026-05-02T14:50:15.28Z</time></trkpt><trkpt lat="42.1195233" lon="13.339215"><ele>903.0</ele><time>2026-05-02T14:50:16.28Z</time></trkpt><trkpt lat="42.1193917" lon="13.3391917"><ele>903.0</ele><time>2026-05-02T14:50:17.28Z</time></trkpt><trkpt lat="42.11927" lon="13.3391883"><ele>903.0</ele><time>2026-05-02T14:50:18.28Z</time></trkpt><trkpt lat="42.119155" lon="13.3391617"><ele>903.0</ele><time>2026-05-02T14:50:19.28Z</time></trkpt><trkpt lat="42.1190567" lon="13.3391567"><ele>903.5</ele><time>2026-05-02T14:50:20.281Z</time></trkpt><trkpt lat="42.1189617" lon="13.33916"><ele>904.0</ele><time>2026-05-02T14:50:21.28Z</time></trkpt><trkpt lat="42.1188783" lon="13.339175"><ele>904.5</ele><time>2026-05-02T14:50:22.28Z</time></trkpt><trkpt lat="42.1188" lon="13.3391817"><ele>905.0</ele><time>2026-05-02T14:50:23.28Z</time></trkpt><trkpt lat="42.11872" lon="13.3392"><ele>905.5</ele><time>2026-05-02T14:50:24.28Z</time></trkpt><trkpt lat="42.1186417" lon="13.3391967"><ele>906.0</ele><time>2026-05-02T14:50:25.28Z</time></trkpt><trkpt lat="42.1185733" lon="13.3392083"><ele>906.0</ele><time>2026-05-02T14:50:26.281Z</time></trkpt><trkpt lat="42.1184567" lon="13.3392183"><ele>906.0</ele><time>2026-05-02T14:50:28.28Z</time></trkpt><trkpt lat="42.1183683" lon="13.339205"><ele>906.0</ele><time>2026-05-02T14:50:30.28Z</time></trkpt><trkpt lat="42.1182867" lon="13.339185"><ele>906.0</ele><time>2026-05-02T14:50:32.28Z</time></trkpt><trkpt lat="42.1181983" lon="13.33916"><ele>906.0</ele><time>2026-05-02T14:50:34.28Z</time></trkpt><trkpt lat="42.1181483" lon="13.3391083"><ele>906.0</ele><time>2026-05-02T14:50:36.28Z</time></trkpt><trkpt lat="42.11809" lon="13.3390317"><ele>905.7142857142856</ele><time>2026-05-02T14:50:39.28Z</time></trkpt><trkpt lat="42.1181083" lon="13.3389417"><ele>905.4285714285713</ele><time>2026-05-02T14:50:43.281Z</time></trkpt><trkpt lat="42.1181167" lon="13.33882"><ele>905.1428571428571</ele><time>2026-05-02T14:50:50.28Z</time></trkpt><trkpt lat="42.1181167" lon="13.33873"><ele>904.8571428571428</ele><time>2026-05-02T14:50:51.28Z</time></trkpt><trkpt lat="42.1181183" lon="13.3386367"><ele>904.5714285714284</ele><time>2026-05-02T14:50:52.281Z</time></trkpt><trkpt lat="42.11812" lon="13.3385367"><ele>904.2857142857143</ele><time>2026-05-02T14:50:53.28Z</time></trkpt><trkpt lat="42.11814" lon="13.3384433"><ele>904.0</ele><time>2026-05-02T14:50:54.28Z</time></trkpt><trkpt lat="42.1181267" lon="13.3383483"><ele>905.1666666666666</ele><time>2026-05-02T14:50:55.28Z</time></trkpt><trkpt lat="42.1181217" lon="13.3382567"><ele>906.3333333333333</ele><time>2026-05-02T14:50:56.28Z</time></trkpt><trkpt lat="42.118115" lon="13.3381667"><ele>907.5</ele><time>2026-05-02T14:50:57.28Z</time></trkpt><trkpt lat="42.1181583" lon="13.3381017"><ele>908.6666666666667</ele><time>2026-05-02T14:50:58.28Z</time></trkpt><trkpt lat="42.11823" lon="13.3379617"><ele>909.8333333333334</ele><time>2026-05-02T14:51:00.28Z</time></trkpt><trkpt lat="42.1182767" lon="13.3378833"><ele>911.0</ele><time>2026-05-02T14:51:01.28Z</time></trkpt><trkpt lat="42.1183217" lon="13.3378083"><ele>911.0</ele><time>2026-05-02T14:51:02.28Z</time></trkpt><trkpt lat="42.1183683" lon="13.3377183"><ele>911.0</ele><time>2026-05-02T14:51:03.281Z</time></trkpt><trkpt lat="42.1184517" lon="13.337615"><ele>911.0</ele><time>2026-05-02T14:51:04.28Z</time></trkpt><trkpt lat="42.1185533" lon="13.33749"><ele>911.0</ele><time>2026-05-02T14:51:05.28Z</time></trkpt><trkpt lat="42.1186417" lon="13.3373733"><ele>911.0</ele><time>2026-05-02T14:51:06.28Z</time></trkpt><trkpt lat="42.1187617" lon="13.3372367"><ele>911.0</ele><time>2026-05-02T14:51:07.28Z</time></trkpt><trkpt lat="42.118885" lon="13.3370833"><ele>911.0</ele><time>2026-05-02T14:51:08.28Z</time></trkpt><trkpt lat="42.1190017" lon="13.33695"><ele>913.75</ele><time>2026-05-02T14:51:09.28Z</time></trkpt><trkpt lat="42.11911" lon="13.3368267"><ele>916.5</ele><time>2026-05-02T14:51:10.28Z</time></trkpt><trkpt lat="42.119195" lon="13.3367067"><ele>919.25</ele><time>2026-05-02T14:51:11.28Z</time></trkpt><trkpt lat="42.1192883" lon="13.33661"><ele>922.0</ele><time>2026-05-02T14:51:12.28Z</time></trkpt><trkpt lat="42.1193667" lon="13.3365167"><ele>922.0</ele><time>2026-05-02T14:51:13.281Z</time></trkpt><trkpt lat="42.11946" lon="13.33641"><ele>922.0</ele><time>2026-05-02T14:51:14.28Z</time></trkpt><trkpt lat="42.1195483" lon="13.3363117"><ele>922.0</ele><time>2026-05-02T14:51:15.28Z</time></trkpt><trkpt lat="42.11964" lon="13.3362283"><ele>922.0</ele><time>2026-05-02T14:51:16.28Z</time></trkpt><trkpt lat="42.11975" lon="13.3361433"><ele>925.0</ele><time>2026-05-02T14:51:17.28Z</time></trkpt><trkpt lat="42.1198767" lon="13.3360783"><ele>928.0</ele><time>2026-05-02T14:51:18.281Z</time></trkpt><trkpt lat="42.11999" lon="13.335995"><ele>931.0</ele><time>2026-05-02T14:51:19.28Z</time></trkpt><trkpt lat="42.1200983" lon="13.335895"><ele>934.0</ele><time>2026-05-02T14:51:20.28Z</time></trkpt><trkpt lat="42.120195" lon="13.335785"><ele>934.0</ele><time>2026-05-02T14:51:21.28Z</time></trkpt><trkpt lat="42.1202733" lon="13.3356917"><ele>934.0000000000001</ele><time>2026-05-02T14:51:22.28Z</time></trkpt><trkpt lat="42.1203633" lon="13.3356067"><ele>934.0000000000001</ele><time>2026-05-02T14:51:23.281Z</time></trkpt><trkpt lat="42.1204383" lon="13.3355283"><ele>934.0</ele><time>2026-05-02T14:51:24.28Z</time></trkpt><trkpt lat="42.1205017" lon="13.335485"><ele>934.0</ele><time>2026-05-02T14:51:25.28Z</time></trkpt><trkpt lat="42.12056" lon="13.3354333"><ele>931.9999999999999</ele><time>2026-05-02T14:51:26.28Z</time></trkpt><trkpt lat="42.120615" lon="13.335375"><ele>930.0</ele><time>2026-05-02T14:51:27.28Z</time></trkpt><trkpt lat="42.1206783" lon="13.335305"><ele>928.0</ele><time>2026-05-02T14:51:28.281Z</time></trkpt><trkpt lat="42.120725" lon="13.335215"><ele>926.0</ele><time>2026-05-02T14:51:29.28Z</time></trkpt><trkpt lat="42.1207767" lon="13.3351033"><ele>923.9999999999999</ele><time>2026-05-02T14:51:30.28Z</time></trkpt><trkpt lat="42.1208283" lon="13.3349717"><ele>922.0</ele><time>2026-05-02T14:51:31.28Z</time></trkpt><trkpt lat="42.1209" lon="13.33484"><ele>927.6</ele><time>2026-05-02T14:51:32.28Z</time></trkpt><trkpt lat="42.120955" lon="13.3347083"><ele>933.2</ele><time>2026-05-02T14:51:33.28Z</time></trkpt><trkpt lat="42.1210217" lon="13.3345833"><ele>938.8</ele><time>2026-05-02T14:51:34.28Z</time></trkpt><trkpt lat="42.121085" lon="13.33446"><ele>944.4</ele><time>2026-05-02T14:51:35.28Z</time></trkpt><trkpt lat="42.1211417" lon="13.3343583"><ele>950.0</ele><time>2026-05-02T14:51:36.28Z</time></trkpt><trkpt lat="42.12117" lon="13.334255"><ele>950.0</ele><time>2026-05-02T14:51:37.28Z</time></trkpt><trkpt lat="42.1211983" lon="13.3341617"><ele>950.0000000000001</ele><time>2026-05-02T14:51:38.281Z</time></trkpt><trkpt lat="42.121205" lon="13.33406"><ele>950.0</ele><time>2026-05-02T14:51:39.28Z</time></trkpt><trkpt lat="42.121205" lon="13.33396"><ele>950.0</ele><time>2026-05-02T14:51:40.28Z</time></trkpt><trkpt lat="42.1211833" lon="13.333875"><ele>950.0000000000001</ele><time>2026-05-02T14:51:41.28Z</time></trkpt><trkpt lat="42.1211517" lon="13.33379"><ele>950.0</ele><time>2026-05-02T14:51:42.28Z</time></trkpt><trkpt lat="42.1211383" lon="13.333705"><ele>950.0</ele><time>2026-05-02T14:51:43.28Z</time></trkpt><trkpt lat="42.1210933" lon="13.33363"><ele>949.8333333333334</ele><time>2026-05-02T14:51:44.28Z</time></trkpt><trkpt lat="42.121045" lon="13.33356"><ele>949.6666666666667</ele><time>2026-05-02T14:51:45.281Z</time></trkpt><trkpt lat="42.1209867" lon="13.3335233"><ele>949.5</ele><time>2026-05-02T14:51:46.281Z</time></trkpt><trkpt lat="42.1208617" lon="13.3334917"><ele>949.3333333333333</ele><time>2026-05-02T14:51:48.28Z</time></trkpt><trkpt lat="42.12077" lon="13.3334967"><ele>949.1666666666666</ele><time>2026-05-02T14:51:49.28Z</time></trkpt><trkpt lat="42.1206826" lon="13.3335121"><ele>949.0</ele><time>2026-05-02T14:51:50.281Z</time></trkpt><trkpt lat="42.120598" lon="13.3335422"><ele>949.0</ele><time>2026-05-02T14:51:51.28Z</time></trkpt><trkpt lat="42.1205215" lon="13.3335817"><ele>949.0000000000001</ele><time>2026-05-02T14:51:52.28Z</time></trkpt><trkpt lat="42.1204514" lon="13.3336131"><ele>949.0000000000001</ele><time>2026-05-02T14:51:53.28Z</time></trkpt><trkpt lat="42.120388" lon="13.3336021"><ele>949.0</ele><time>2026-05-02T14:51:54.28Z</time></trkpt><trkpt lat="42.1202987" lon="13.3335141"><ele>949.0</ele><time>2026-05-02T14:51:56.28Z</time></trkpt><trkpt lat="42.1202888" lon="13.333347"><ele>949.0</ele><time>2026-05-02T14:51:58.28Z</time></trkpt><trkpt lat="42.1203022" lon="13.3332097"><ele>949.0</ele><time>2026-05-02T14:51:59.28Z</time></trkpt><trkpt lat="42.1203132" lon="13.3330325"><ele>949.0</ele><time>2026-05-02T14:52:00.28Z</time></trkpt><trkpt lat="42.1203228" lon="13.3328371"><ele>949.0</ele><time>2026-05-02T14:52:01.28Z</time></trkpt><trkpt lat="42.1203312" lon="13.3326491"><ele>952.2</ele><time>2026-05-02T14:52:02.28Z</time></trkpt><trkpt lat="42.1203379" lon="13.3324896"><ele>955.4000000000001</ele><time>2026-05-02T14:52:03.281Z</time></trkpt><trkpt lat="42.1203346" lon="13.3323519"><ele>958.6</ele><time>2026-05-02T14:52:04.28Z</time></trkpt><trkpt lat="42.1203192" lon="13.3322303"><ele>961.8</ele><time>2026-05-02T14:52:05.28Z</time></trkpt><trkpt lat="42.1202981" lon="13.3321225"><ele>965.0</ele><time>2026-05-02T14:52:06.28Z</time></trkpt><trkpt lat="42.1202663" lon="13.3320218"><ele>966.5000000000001</ele><time>2026-05-02T14:52:07.28Z</time></trkpt><trkpt lat="42.120222" lon="13.3319215"><ele>968.0</ele><time>2026-05-02T14:52:08.28Z</time></trkpt><trkpt lat="42.1201794" lon="13.3318255"><ele>969.5</ele><time>2026-05-02T14:52:09.28Z</time></trkpt><trkpt lat="42.1201519" lon="13.3317285"><ele>971.0</ele><time>2026-05-02T14:52:10.28Z</time></trkpt><trkpt lat="42.1201419" lon="13.3315698"><ele>972.5000000000001</ele><time>2026-05-02T14:52:12.28Z</time></trkpt><trkpt lat="42.1201811" lon="13.3314923"><ele>974.0</ele><time>2026-05-02T14:52:13.28Z</time></trkpt><trkpt lat="42.1202759" lon="13.3313828"><ele>974.2857142857143</ele><time>2026-05-02T14:52:15.28Z</time></trkpt><trkpt lat="42.1203499" lon="13.33135"><ele>974.5714285714284</ele><time>2026-05-02T14:52:16.28Z</time></trkpt><trkpt lat="42.1204244" lon="13.3313334"><ele>974.8571428571428</ele><time>2026-05-02T14:52:17.28Z</time></trkpt><trkpt lat="42.1204954" lon="13.3313166"><ele>975.1428571428571</ele><time>2026-05-02T14:52:18.28Z</time></trkpt><trkpt lat="42.1205675" lon="13.3312845"><ele>975.4285714285713</ele><time>2026-05-02T14:52:19.28Z</time></trkpt><trkpt lat="42.1206363" lon="13.331246"><ele>975.7142857142856</ele><time>2026-05-02T14:52:20.28Z</time></trkpt><trkpt lat="42.1207026" lon="13.3312123"><ele>975.9999999999999</ele><time>2026-05-02T14:52:21.28Z</time></trkpt><trkpt lat="42.1207733" lon="13.3311896"><ele>977.1999999999999</ele><time>2026-05-02T14:52:22.28Z</time></trkpt><trkpt lat="42.1208557" lon="13.3311703"><ele>978.3999999999999</ele><time>2026-05-02T14:52:23.28Z</time></trkpt><trkpt lat="42.1209393" lon="13.331132"><ele>979.6</ele><time>2026-05-02T14:52:24.28Z</time></trkpt><trkpt lat="42.121041" lon="13.3310805"><ele>980.8</ele><time>2026-05-02T14:52:25.28Z</time></trkpt><trkpt lat="42.1211567" lon="13.3310196"><ele>982.0</ele><time>2026-05-02T14:52:26.28Z</time></trkpt><trkpt lat="42.1212675" lon="13.3309685"><ele>982.0</ele><time>2026-05-02T14:52:27.281Z</time></trkpt><trkpt lat="42.1213658" lon="13.330926"><ele>982.0</ele><time>2026-05-02T14:52:28.281Z</time></trkpt><trkpt lat="42.1214604" lon="13.3308886"><ele>982.0</ele><time>2026-05-02T14:52:29.28Z</time></trkpt><trkpt lat="42.1215474" lon="13.3308576"><ele>982.0</ele><time>2026-05-02T14:52:30.28Z</time></trkpt><trkpt lat="42.1216295" lon="13.3308238"><ele>982.0</ele><time>2026-05-02T14:52:31.28Z</time></trkpt><trkpt lat="42.1217058" lon="13.3307939"><ele>983.6</ele><time>2026-05-02T14:52:32.28Z</time></trkpt><trkpt lat="42.1217878" lon="13.3307754"><ele>985.2</ele><time>2026-05-02T14:52:33.28Z</time></trkpt><trkpt lat="42.1218816" lon="13.3307696"><ele>986.8</ele><time>2026-05-02T14:52:34.28Z</time></trkpt><trkpt lat="42.1219769" lon="13.3307559"><ele>988.4</ele><time>2026-05-02T14:52:35.281Z</time></trkpt><trkpt lat="42.1220723" lon="13.3307453"><ele>990.0</ele><time>2026-05-02T14:52:36.28Z</time></trkpt><trkpt lat="42.1221708" lon="13.3307432"><ele>990.0</ele><time>2026-05-02T14:52:37.28Z</time></trkpt><trkpt lat="42.1222676" lon="13.3307362"><ele>990.0</ele><time>2026-05-02T14:52:38.28Z</time></trkpt><trkpt lat="42.122362" lon="13.3307188"><ele>990.0</ele><time>2026-05-02T14:52:39.28Z</time></trkpt><trkpt lat="42.1224536" lon="13.3306784"><ele>990.0</ele><time>2026-05-02T14:52:40.28Z</time></trkpt><trkpt lat="42.1225425" lon="13.3306204"><ele>990.0</ele><time>2026-05-02T14:52:41.28Z</time></trkpt><trkpt lat="42.1226166" lon="13.3305593"><ele>991.6666666666666</ele><time>2026-05-02T14:52:42.28Z</time></trkpt><trkpt lat="42.1226842" lon="13.3304941"><ele>993.3333333333333</ele><time>2026-05-02T14:52:43.28Z</time></trkpt><trkpt lat="42.122746" lon="13.3304222"><ele>995.0</ele><time>2026-05-02T14:52:44.28Z</time></trkpt><trkpt lat="42.1228085" lon="13.3303527"><ele>996.6666666666666</ele><time>2026-05-02T14:52:45.28Z</time></trkpt><trkpt lat="42.1228767" lon="13.33028"><ele>998.3333333333333</ele><time>2026-05-02T14:52:46.28Z</time></trkpt><trkpt lat="42.1229562" lon="13.3302085"><ele>1000.0</ele><time>2026-05-02T14:52:47.28Z</time></trkpt><trkpt lat="42.123042" lon="13.3301397"><ele>999.9999999999999</ele><time>2026-05-02T14:52:48.28Z</time></trkpt><trkpt lat="42.1231223" lon="13.3300878"><ele>1000.0</ele><time>2026-05-02T14:52:49.28Z</time></trkpt><trkpt lat="42.1231955" lon="13.3300469"><ele>1000.0</ele><time>2026-05-02T14:52:50.28Z</time></trkpt><trkpt lat="42.1232643" lon="13.3300123"><ele>1000.0</ele><time>2026-05-02T14:52:51.28Z</time></trkpt><trkpt lat="42.1233242" lon="13.3299839"><ele>999.9999999999999</ele><time>2026-05-02T14:52:52.28Z</time></trkpt><trkpt lat="42.123446" lon="13.3299362"><ele>1000.0</ele><time>2026-05-02T14:52:54.28Z</time></trkpt><trkpt lat="42.1235235" lon="13.3299062"><ele>1000.4999999999999</ele><time>2026-05-02T14:52:55.28Z</time></trkpt><trkpt lat="42.1236055" lon="13.3298772"><ele>1001.0</ele><time>2026-05-02T14:52:56.281Z</time></trkpt><trkpt lat="42.1236883" lon="13.32984"><ele>1001.5</ele><time>2026-05-02T14:52:57.28Z</time></trkpt><trkpt lat="42.12376" lon="13.3298183"><ele>1002.0</ele><time>2026-05-02T14:52:58.281Z</time></trkpt><trkpt lat="42.1238317" lon="13.32977"><ele>1002.4999999999999</ele><time>2026-05-02T14:52:59.28Z</time></trkpt><trkpt lat="42.1238983" lon="13.329725"><ele>1003.0</ele><time>2026-05-02T14:53:00.28Z</time></trkpt><trkpt lat="42.1239583" lon="13.3296833"><ele>1002.9999999999999</ele><time>2026-05-02T14:53:01.28Z</time></trkpt><trkpt lat="42.1240267" lon="13.32966"><ele>1003.0</ele><time>2026-05-02T14:53:02.281Z</time></trkpt><trkpt lat="42.12413" lon="13.3295783"><ele>1003.0</ele><time>2026-05-02T14:53:04.28Z</time></trkpt><trkpt lat="42.1241933" lon="13.3295283"><ele>1003.0</ele><time>2026-05-02T14:53:05.28Z</time></trkpt><trkpt lat="42.1242617" lon="13.3294467"><ele>1002.9999999999999</ele><time>2026-05-02T14:53:06.28Z</time></trkpt><trkpt lat="42.1243233" lon="13.3293583"><ele>1003.0</ele><time>2026-05-02T14:53:07.28Z</time></trkpt><trkpt lat="42.1243833" lon="13.3292733"><ele>1005.8</ele><time>2026-05-02T14:53:08.28Z</time></trkpt><trkpt lat="42.1244383" lon="13.329195"><ele>1008.5999999999999</ele><time>2026-05-02T14:53:09.28Z</time></trkpt><trkpt lat="42.1244933" lon="13.329135"><ele>1011.4000000000001</ele><time>2026-05-02T14:53:10.28Z</time></trkpt><trkpt lat="42.12455" lon="13.3290817"><ele>1014.2</ele><time>2026-05-02T14:53:11.28Z</time></trkpt><trkpt lat="42.12465" lon="13.32901"><ele>1017.0</ele><time>2026-05-02T14:53:13.28Z</time></trkpt><trkpt lat="42.1247683" lon="13.3289883"><ele>1017.0</ele><time>2026-05-02T14:53:15.281Z</time></trkpt><trkpt lat="42.124875" lon="13.32901"><ele>1017.0</ele><time>2026-05-02T14:53:17.28Z</time></trkpt><trkpt lat="42.12493" lon="13.329055"><ele>1017.0</ele><time>2026-05-02T14:53:18.28Z</time></trkpt><trkpt lat="42.1250233" lon="13.3290717"><ele>1017.0</ele><time>2026-05-02T14:53:20.281Z</time></trkpt><trkpt lat="42.1251067" lon="13.32909"><ele>1017.0</ele><time>2026-05-02T14:53:22.28Z</time></trkpt><trkpt lat="42.125205" lon="13.3291033"><ele>1019.8</ele><time>2026-05-02T14:53:35.28Z</time></trkpt><trkpt lat="42.125295" lon="13.32914"><ele>1022.6</ele><time>2026-05-02T14:53:38.28Z</time></trkpt><trkpt lat="42.1253783" lon="13.3291817"><ele>1025.3999999999999</ele><time>2026-05-02T14:53:40.28Z</time></trkpt><trkpt lat="42.1254667" lon="13.329245"><ele>1028.2</ele><time>2026-05-02T14:53:42.28Z</time></trkpt><trkpt lat="42.12553" lon="13.3292817"><ele>1031.0</ele><time>2026-05-02T14:53:45.28Z</time></trkpt><trkpt lat="42.1256617" lon="13.3293767"><ele>1034.0</ele><time>2026-05-02T14:53:57.28Z</time></trkpt><trkpt lat="42.1257533" lon="13.3294633"><ele>1037.0</ele><time>2026-05-02T14:53:59.281Z</time></trkpt><trkpt lat="42.1258317" lon="13.3295133"><ele>1040.0</ele><time>2026-05-02T14:54:01.28Z</time></trkpt><trkpt lat="42.125905" lon="13.32957"><ele>1043.0</ele><time>2026-05-02T14:54:03.28Z</time></trkpt><trkpt lat="42.12599" lon="13.32963"><ele>1046.0</ele><time>2026-05-02T14:54:05.28Z</time></trkpt><trkpt lat="42.12607" lon="13.3296883"><ele>1047.6</ele><time>2026-05-02T14:54:07.28Z</time></trkpt><trkpt lat="42.1261517" lon="13.3297267"><ele>1049.1999999999998</ele><time>2026-05-02T14:54:09.28Z</time></trkpt><trkpt lat="42.1262483" lon="13.329755"><ele>1050.8000000000002</ele><time>2026-05-02T14:54:11.28Z</time></trkpt><trkpt lat="42.1263667" lon="13.329755"><ele>1052.4</ele><time>2026-05-02T14:54:13.281Z</time></trkpt><trkpt lat="42.126465" lon="13.3297333"><ele>1054.0</ele><time>2026-05-02T14:54:15.28Z</time></trkpt><trkpt lat="42.1265283" lon="13.32974"><ele>1055.6666666666665</ele><time>2026-05-02T14:54:16.28Z</time></trkpt><trkpt lat="42.1266217" lon="13.3297417"><ele>1057.3333333333333</ele><time>2026-05-02T14:54:18.28Z</time></trkpt><trkpt lat="42.1267183" lon="13.32974"><ele>1059.0</ele><time>2026-05-02T14:54:20.281Z</time></trkpt><trkpt lat="42.1268" lon="13.3297767"><ele>1060.6666666666667</ele><time>2026-05-02T14:54:22.28Z</time></trkpt><trkpt lat="42.1269022" lon="13.3297968"><ele>1062.3333333333335</ele><time>2026-05-02T14:54:24.281Z</time></trkpt><trkpt lat="42.1269672" lon="13.3298145"><ele>1064.0</ele><time>2026-05-02T14:54:25.28Z</time></trkpt><trkpt lat="42.1270927" lon="13.3298601"><ele>1064.0</ele><time>2026-05-02T14:54:27.28Z</time></trkpt><trkpt lat="42.127155" lon="13.3298879"><ele>1064.0</ele><time>2026-05-02T14:54:28.28Z</time></trkpt><trkpt lat="42.1272226" lon="13.3299156"><ele>1064.0</ele><time>2026-05-02T14:54:29.28Z</time></trkpt><trkpt lat="42.127287" lon="13.3299452"><ele>1064.0</ele><time>2026-05-02T14:54:30.28Z</time></trkpt><trkpt lat="42.1273541" lon="13.3299725"><ele>1064.0</ele><time>2026-05-02T14:54:31.28Z</time></trkpt><trkpt lat="42.1274192" lon="13.3300105"><ele>1064.0</ele><time>2026-05-02T14:54:32.28Z</time></trkpt><trkpt lat="42.1274816" lon="13.3300522"><ele>1064.0</ele><time>2026-05-02T14:54:33.28Z</time></trkpt><trkpt lat="42.1275398" lon="13.3300855"><ele>1065.3333333333335</ele><time>2026-05-02T14:54:34.28Z</time></trkpt><trkpt lat="42.1276282" lon="13.3301384"><ele>1066.6666666666667</ele><time>2026-05-02T14:54:36.28Z</time></trkpt><trkpt lat="42.12769" lon="13.3301783"><ele>1068.0</ele><time>2026-05-02T14:54:40.28Z</time></trkpt><trkpt lat="42.1277683" lon="13.3302067"><ele>1069.3333333333333</ele><time>2026-05-02T14:54:42.28Z</time></trkpt><trkpt lat="42.1278667" lon="13.3302017"><ele>1070.6666666666665</ele><time>2026-05-02T14:54:44.28Z</time></trkpt><trkpt lat="42.12793" lon="13.330195"><ele>1072.0</ele><time>2026-05-02T14:54:45.281Z</time></trkpt><trkpt lat="42.1280683" lon="13.3301533"><ele>1072.0</ele><time>2026-05-02T14:54:47.28Z</time></trkpt><trkpt lat="42.1281417" lon="13.330125"><ele>1072.0</ele><time>2026-05-02T14:54:48.28Z</time></trkpt><trkpt lat="42.128215" lon="13.3300817"><ele>1072.0</ele><time>2026-05-02T14:54:49.28Z</time></trkpt><trkpt lat="42.1282983" lon="13.3300467"><ele>1072.0</ele><time>2026-05-02T14:54:50.28Z</time></trkpt><trkpt lat="42.1283767" lon="13.3299867"><ele>1072.0</ele><time>2026-05-02T14:54:51.28Z</time></trkpt><trkpt lat="42.128475" lon="13.329955"><ele>1072.0</ele><time>2026-05-02T14:54:52.28Z</time></trkpt><trkpt lat="42.1285617" lon="13.3299"><ele>1072.0</ele><time>2026-05-02T14:54:53.28Z</time></trkpt><trkpt lat="42.1286533" lon="13.32984"><ele>1072.0</ele><time>2026-05-02T14:54:54.28Z</time></trkpt><trkpt lat="42.1287667" lon="13.329795"><ele>1072.0</ele><time>2026-05-02T14:54:55.28Z</time></trkpt><trkpt lat="42.12887" lon="13.329715"><ele>1072.0</ele><time>2026-05-02T14:54:56.28Z</time></trkpt><trkpt lat="42.128965" lon="13.3296483"><ele>1072.0</ele><time>2026-05-02T14:54:57.28Z</time></trkpt><trkpt lat="42.1290483" lon="13.32958"><ele>1070.4</ele><time>2026-05-02T14:54:58.28Z</time></trkpt><trkpt lat="42.129135" lon="13.329515"><ele>1068.8000000000002</ele><time>2026-05-02T14:54:59.28Z</time></trkpt><trkpt lat="42.1292283" lon="13.3294483"><ele>1067.2</ele><time>2026-05-02T14:55:00.28Z</time></trkpt><trkpt lat="42.12932" lon="13.3293783"><ele>1065.6000000000001</ele><time>2026-05-02T14:55:01.28Z</time></trkpt><trkpt lat="42.1294" lon="13.3293233"><ele>1064.0</ele><time>2026-05-02T14:55:02.28Z</time></trkpt><trkpt lat="42.129455" lon="13.329245"><ele>1064.0</ele><time>2026-05-02T14:55:03.28Z</time></trkpt><trkpt lat="42.1295217" lon="13.3291767"><ele>1064.0</ele><time>2026-05-02T14:55:04.28Z</time></trkpt><trkpt lat="42.1295817" lon="13.3291083"><ele>1064.0</ele><time>2026-05-02T14:55:05.28Z</time></trkpt><trkpt lat="42.12964" lon="13.3290333"><ele>1064.0</ele><time>2026-05-02T14:55:06.28Z</time></trkpt><trkpt lat="42.129715" lon="13.3289433"><ele>1064.0</ele><time>2026-05-02T14:55:07.28Z</time></trkpt><trkpt lat="42.1297833" lon="13.328845"><ele>1064.0</ele><time>2026-05-02T14:55:08.28Z</time></trkpt><trkpt lat="42.1298467" lon="13.328745"><ele>1063.6666666666667</ele><time>2026-05-02T14:55:09.28Z</time></trkpt><trkpt lat="42.1298983" lon="13.3286467"><ele>1063.3333333333335</ele><time>2026-05-02T14:55:10.28Z</time></trkpt><trkpt lat="42.12996" lon="13.32855"><ele>1063.0</ele><time>2026-05-02T14:55:11.28Z</time></trkpt><trkpt lat="42.1300067" lon="13.3284683"><ele>1062.6666666666667</ele><time>2026-05-02T14:55:12.28Z</time></trkpt><trkpt lat="42.1300767" lon="13.3283917"><ele>1062.3333333333333</ele><time>2026-05-02T14:55:13.28Z</time></trkpt><trkpt lat="42.130125" lon="13.3283183"><ele>1062.0</ele><time>2026-05-02T14:55:14.28Z</time></trkpt><trkpt lat="42.130175" lon="13.3282383"><ele>1062.0</ele><time>2026-05-02T14:55:15.28Z</time></trkpt><trkpt lat="42.1302233" lon="13.3281417"><ele>1062.0</ele><time>2026-05-02T14:55:16.28Z</time></trkpt><trkpt lat="42.1302767" lon="13.328045"><ele>1062.0</ele><time>2026-05-02T14:55:17.28Z</time></trkpt><trkpt lat="42.1303117" lon="13.32795"><ele>1062.0</ele><time>2026-05-02T14:55:18.28Z</time></trkpt><trkpt lat="42.1303433" lon="13.3278683"><ele>1062.0</ele><time>2026-05-02T14:55:19.28Z</time></trkpt><trkpt lat="42.130375" lon="13.32778"><ele>1062.0</ele><time>2026-05-02T14:55:20.28Z</time></trkpt><trkpt lat="42.1304067" lon="13.3276717"><ele>1062.4</ele><time>2026-05-02T14:55:21.28Z</time></trkpt><trkpt lat="42.13043" lon="13.32755"><ele>1062.8000000000002</ele><time>2026-05-02T14:55:22.28Z</time></trkpt><trkpt lat="42.1304417" lon="13.3274217"><ele>1063.2</ele><time>2026-05-02T14:55:23.28Z</time></trkpt><trkpt lat="42.1304433" lon="13.3272833"><ele>1063.6000000000001</ele><time>2026-05-02T14:55:24.28Z</time></trkpt><trkpt lat="42.13045" lon="13.3271383"><ele>1064.0</ele><time>2026-05-02T14:55:25.28Z</time></trkpt><trkpt lat="42.1304683" lon="13.3269917"><ele>1065.2</ele><time>2026-05-02T14:55:26.28Z</time></trkpt><trkpt lat="42.1304983" lon="13.3268417"><ele>1066.4</ele><time>2026-05-02T14:55:27.28Z</time></trkpt><trkpt lat="42.1305283" lon="13.3266967"><ele>1067.6</ele><time>2026-05-02T14:55:28.28Z</time></trkpt><trkpt lat="42.13055" lon="13.3265617"><ele>1068.8</ele><time>2026-05-02T14:55:29.28Z</time></trkpt><trkpt lat="42.1305733" lon="13.3264083"><ele>1070.0</ele><time>2026-05-02T14:55:30.28Z</time></trkpt><trkpt lat="42.13058" lon="13.3262583"><ele>1071.8</ele><time>2026-05-02T14:55:31.28Z</time></trkpt><trkpt lat="42.1305883" lon="13.3261133"><ele>1073.6</ele><time>2026-05-02T14:55:32.28Z</time></trkpt><trkpt lat="42.1305917" lon="13.3259767"><ele>1075.4</ele><time>2026-05-02T14:55:33.28Z</time></trkpt><trkpt lat="42.1305967" lon="13.3258467"><ele>1077.2</ele><time>2026-05-02T14:55:34.28Z</time></trkpt><trkpt lat="42.1305983" lon="13.3257167"><ele>1079.0</ele><time>2026-05-02T14:55:35.28Z</time></trkpt><trkpt lat="42.1305967" lon="13.3255983"><ele>1079.8333333333335</ele><time>2026-05-02T14:55:36.281Z</time></trkpt><trkpt lat="42.1305983" lon="13.3254883"><ele>1080.6666666666667</ele><time>2026-05-02T14:55:37.28Z</time></trkpt><trkpt lat="42.130605" lon="13.3253933"><ele>1081.5</ele><time>2026-05-02T14:55:38.28Z</time></trkpt><trkpt lat="42.130615" lon="13.3253067"><ele>1082.3333333333333</ele><time>2026-05-02T14:55:39.28Z</time></trkpt><trkpt lat="42.1306233" lon="13.3251417"><ele>1083.1666666666665</ele><time>2026-05-02T14:55:41.28Z</time></trkpt><trkpt lat="42.130595" lon="13.3250433"><ele>1084.0</ele><time>2026-05-02T14:55:42.28Z</time></trkpt><trkpt lat="42.130565" lon="13.3249267"><ele>1084.0</ele><time>2026-05-02T14:55:43.28Z</time></trkpt><trkpt lat="42.130545" lon="13.3248133"><ele>1084.0</ele><time>2026-05-02T14:55:44.28Z</time></trkpt><trkpt lat="42.1305533" lon="13.32471"><ele>1084.0</ele><time>2026-05-02T14:55:45.28Z</time></trkpt><trkpt lat="42.1305583" lon="13.32461"><ele>1084.0</ele><time>2026-05-02T14:55:46.28Z</time></trkpt><trkpt lat="42.130595" lon="13.3245267"><ele>1084.0</ele><time>2026-05-02T14:55:47.28Z</time></trkpt><trkpt lat="42.1306333" lon="13.3244433"><ele>1084.0</ele><time>2026-05-02T14:55:48.28Z</time></trkpt><trkpt lat="42.130725" lon="13.3243433"><ele>1084.8</ele><time>2026-05-02T14:55:50.28Z</time></trkpt><trkpt lat="42.130765" lon="13.3242333"><ele>1085.6000000000001</ele><time>2026-05-02T14:55:52.28Z</time></trkpt><trkpt lat="42.1307667" lon="13.3240483"><ele>1086.4</ele><time>2026-05-02T14:55:54.28Z</time></trkpt><trkpt lat="42.13075" lon="13.3239267"><ele>1087.2</ele><time>2026-05-02T14:55:55.28Z</time></trkpt><trkpt lat="42.13073" lon="13.323825"><ele>1088.0</ele><time>2026-05-02T14:55:56.28Z</time></trkpt><trkpt lat="42.1307183" lon="13.3237267"><ele>1086.1666666666667</ele><time>2026-05-02T14:55:57.28Z</time></trkpt><trkpt lat="42.130725" lon="13.3236283"><ele>1084.3333333333335</ele><time>2026-05-02T14:55:58.28Z</time></trkpt><trkpt lat="42.130745" lon="13.3235167"><ele>1082.5</ele><time>2026-05-02T14:55:59.28Z</time></trkpt><trkpt lat="42.130765" lon="13.32339"><ele>1080.6666666666667</ele><time>2026-05-02T14:56:00.281Z</time></trkpt><trkpt lat="42.1307867" lon="13.32327"><ele>1078.8333333333333</ele><time>2026-05-02T14:56:01.28Z</time></trkpt><trkpt lat="42.1308167" lon="13.32315"><ele>1077.0</ele><time>2026-05-02T14:56:02.28Z</time></trkpt><trkpt lat="42.1308433" lon="13.3230317"><ele>1077.0</ele><time>2026-05-02T14:56:03.281Z</time></trkpt><trkpt lat="42.1308683" lon="13.322925"><ele>1077.0</ele><time>2026-05-02T14:56:04.28Z</time></trkpt><trkpt lat="42.1308917" lon="13.32281"><ele>1077.0</ele><time>2026-05-02T14:56:05.28Z</time></trkpt><trkpt lat="42.1309117" lon="13.3226983"><ele>1077.0</ele><time>2026-05-02T14:56:06.28Z</time></trkpt><trkpt lat="42.1309383" lon="13.3225983"><ele>1077.0</ele><time>2026-05-02T14:56:07.28Z</time></trkpt><trkpt lat="42.1309633" lon="13.322495"><ele>1077.0</ele><time>2026-05-02T14:56:08.28Z</time></trkpt><trkpt lat="42.1309833" lon="13.3223883"><ele>1077.0</ele><time>2026-05-02T14:56:09.28Z</time></trkpt><trkpt lat="42.131" lon="13.32227"><ele>1077.0</ele><time>2026-05-02T14:56:10.28Z</time></trkpt><trkpt lat="42.1309833" lon="13.322135"><ele>1077.0</ele><time>2026-05-02T14:56:11.28Z</time></trkpt><trkpt lat="42.1309717" lon="13.3219983"><ele>1077.0</ele><time>2026-05-02T14:56:12.281Z</time></trkpt><trkpt lat="42.1309617" lon="13.32187"><ele>1077.0</ele><time>2026-05-02T14:56:13.28Z</time></trkpt><trkpt lat="42.1309433" lon="13.3217333"><ele>1077.0</ele><time>2026-05-02T14:56:14.281Z</time></trkpt><trkpt lat="42.13094" lon="13.321615"><ele>1077.0</ele><time>2026-05-02T14:56:15.28Z</time></trkpt><trkpt lat="42.13093" lon="13.3214667"><ele>1077.0</ele><time>2026-05-02T14:56:16.28Z</time></trkpt><trkpt lat="42.13094" lon="13.3213117"><ele>1077.0</ele><time>2026-05-02T14:56:17.28Z</time></trkpt><trkpt lat="42.1309383" lon="13.3211633"><ele>1077.0</ele><time>2026-05-02T14:56:18.28Z</time></trkpt><trkpt lat="42.1309267" lon="13.321025"><ele>1076.6</ele><time>2026-05-02T14:56:19.28Z</time></trkpt><trkpt lat="42.1309217" lon="13.3208767"><ele>1076.2</ele><time>2026-05-02T14:56:20.28Z</time></trkpt><trkpt lat="42.1309017" lon="13.3207383"><ele>1075.8</ele><time>2026-05-02T14:56:21.28Z</time></trkpt><trkpt lat="42.130885" lon="13.3206133"><ele>1075.4</ele><time>2026-05-02T14:56:22.28Z</time></trkpt><trkpt lat="42.1308733" lon="13.3205117"><ele>1075.0</ele><time>2026-05-02T14:56:23.281Z</time></trkpt><trkpt lat="42.130885" lon="13.3204167"><ele>1075.0</ele><time>2026-05-02T14:56:24.28Z</time></trkpt><trkpt lat="42.1309133" lon="13.3202517"><ele>1075.0</ele><time>2026-05-02T14:56:26.28Z</time></trkpt><trkpt lat="42.1309633" lon="13.32019"><ele>1075.0</ele><time>2026-05-02T14:56:27.28Z</time></trkpt><trkpt lat="42.131025" lon="13.320085"><ele>1075.0</ele><time>2026-05-02T14:56:29.28Z</time></trkpt><trkpt lat="42.1310067" lon="13.3199967"><ele>1075.0</ele><time>2026-05-02T14:56:31.28Z</time></trkpt><trkpt lat="42.130975" lon="13.3199133"><ele>1075.0</ele><time>2026-05-02T14:56:33.28Z</time></trkpt><trkpt lat="42.1309867" lon="13.3198"><ele>1075.3333333333333</ele><time>2026-05-02T14:56:35.28Z</time></trkpt><trkpt lat="42.13102" lon="13.3196717"><ele>1075.6666666666665</ele><time>2026-05-02T14:56:37.281Z</time></trkpt><trkpt lat="42.1310567" lon="13.3195617"><ele>1076.0</ele><time>2026-05-02T14:56:39.281Z</time></trkpt><trkpt lat="42.1310783" lon="13.31946"><ele>1076.3333333333333</ele><time>2026-05-02T14:56:41.28Z</time></trkpt><trkpt lat="42.13111" lon="13.3193667"><ele>1076.6666666666667</ele><time>2026-05-02T14:56:43.28Z</time></trkpt><trkpt lat="42.13117" lon="13.3192717"><ele>1077.0</ele><time>2026-05-02T14:56:45.28Z</time></trkpt><trkpt lat="42.131255" lon="13.3191533"><ele>1077.0</ele><time>2026-05-02T14:56:47.281Z</time></trkpt><trkpt lat="42.1312917" lon="13.3190783"><ele>1077.0</ele><time>2026-05-02T14:56:48.28Z</time></trkpt><trkpt lat="42.1313283" lon="13.318995"><ele>1077.0</ele><time>2026-05-02T14:56:49.28Z</time></trkpt><trkpt lat="42.1313617" lon="13.318905"><ele>1077.0</ele><time>2026-05-02T14:56:50.28Z</time></trkpt><trkpt lat="42.1314067" lon="13.3188233"><ele>1077.0</ele><time>2026-05-02T14:56:51.28Z</time></trkpt><trkpt lat="42.1314683" lon="13.31867"><ele>1077.0</ele><time>2026-05-02T14:56:53.28Z</time></trkpt><trkpt lat="42.1315133" lon="13.3185183"><ele>1073.25</ele><time>2026-05-02T14:56:55.28Z</time></trkpt><trkpt lat="42.1315867" lon="13.3183767"><ele>1069.5</ele><time>2026-05-02T14:56:57.28Z</time></trkpt><trkpt lat="42.1316967" lon="13.3182433"><ele>1065.75</ele><time>2026-05-02T14:56:59.28Z</time></trkpt><trkpt lat="42.13176" lon="13.3181633"><ele>1062.0</ele><time>2026-05-02T14:57:00.281Z</time></trkpt><trkpt lat="42.131825" lon="13.3180817"><ele>1060.8</ele><time>2026-05-02T14:57:01.28Z</time></trkpt><trkpt lat="42.1318867" lon="13.3179967"><ele>1059.6</ele><time>2026-05-02T14:57:02.28Z</time></trkpt><trkpt lat="42.1319183" lon="13.3179183"><ele>1058.3999999999999</ele><time>2026-05-02T14:57:03.28Z</time></trkpt><trkpt lat="42.1319517" lon="13.3177767"><ele>1057.2</ele><time>2026-05-02T14:57:05.28Z</time></trkpt><trkpt lat="42.1319883" lon="13.31763"><ele>1056.0</ele><time>2026-05-02T14:57:07.28Z</time></trkpt><trkpt lat="42.1320417" lon="13.3174767"><ele>1056.0</ele><time>2026-05-02T14:57:09.28Z</time></trkpt><trkpt lat="42.1320733" lon="13.3174017"><ele>1056.0</ele><time>2026-05-02T14:57:10.28Z</time></trkpt><trkpt lat="42.1321167" lon="13.3173133"><ele>1056.0</ele><time>2026-05-02T14:57:11.28Z</time></trkpt><trkpt lat="42.1321667" lon="13.3172383"><ele>1056.0</ele><time>2026-05-02T14:57:12.28Z</time></trkpt><trkpt lat="42.132225" lon="13.31716"><ele>1056.0</ele><time>2026-05-02T14:57:13.28Z</time></trkpt><trkpt lat="42.1322767" lon="13.3170767"><ele>1056.0</ele><time>2026-05-02T14:57:14.28Z</time></trkpt><trkpt lat="42.1323383" lon="13.31699"><ele>1055.6666666666667</ele><time>2026-05-02T14:57:15.28Z</time></trkpt><trkpt lat="42.132395" lon="13.3169067"><ele>1055.3333333333333</ele><time>2026-05-02T14:57:16.28Z</time></trkpt><trkpt lat="42.132445" lon="13.3168367"><ele>1055.0</ele><time>2026-05-02T14:57:17.28Z</time></trkpt><trkpt lat="42.1325067" lon="13.3167683"><ele>1054.6666666666665</ele><time>2026-05-02T14:57:18.281Z</time></trkpt><trkpt lat="42.1325633" lon="13.3166967"><ele>1054.3333333333333</ele><time>2026-05-02T14:57:19.28Z</time></trkpt><trkpt lat="42.13263" lon="13.3166167"><ele>1054.0</ele><time>2026-05-02T14:57:20.28Z</time></trkpt><trkpt lat="42.1326817" lon="13.316535"><ele>1054.0</ele><time>2026-05-02T14:57:21.28Z</time></trkpt><trkpt lat="42.1327433" lon="13.316455"><ele>1054.0</ele><time>2026-05-02T14:57:22.28Z</time></trkpt><trkpt lat="42.1328033" lon="13.31637"><ele>1054.0</ele><time>2026-05-02T14:57:23.28Z</time></trkpt><trkpt lat="42.1328667" lon="13.3162817"><ele>1054.0</ele><time>2026-05-02T14:57:24.28Z</time></trkpt><trkpt lat="42.1329167" lon="13.3161967"><ele>1054.0</ele><time>2026-05-02T14:57:25.28Z</time></trkpt><trkpt lat="42.132965" lon="13.3161217"><ele>1054.0</ele><time>2026-05-02T14:57:26.28Z</time></trkpt><trkpt lat="42.133005" lon="13.3160483"><ele>1053.2</ele><time>2026-05-02T14:57:27.28Z</time></trkpt><trkpt lat="42.13305" lon="13.3159833"><ele>1052.4</ele><time>2026-05-02T14:57:28.28Z</time></trkpt><trkpt lat="42.13309" lon="13.3158533"><ele>1051.6</ele><time>2026-05-02T14:57:30.28Z</time></trkpt><trkpt lat="42.1330883" lon="13.3157083"><ele>1050.8</ele><time>2026-05-02T14:57:32.28Z</time></trkpt><trkpt lat="42.1330283" lon="13.31556"><ele>1050.0</ele><time>2026-05-02T14:57:34.28Z</time></trkpt><trkpt lat="42.1329483" lon="13.3155"><ele>1049.6</ele><time>2026-05-02T14:57:36.28Z</time></trkpt><trkpt lat="42.1328583" lon="13.315455"><ele>1049.2</ele><time>2026-05-02T14:57:37.28Z</time></trkpt><trkpt lat="42.1327883" lon="13.3154017"><ele>1048.8</ele><time>2026-05-02T14:57:38.28Z</time></trkpt><trkpt lat="42.1327133" lon="13.3153367"><ele>1048.4</ele><time>2026-05-02T14:57:39.28Z</time></trkpt><trkpt lat="42.1326433" lon="13.315245"><ele>1048.0</ele><time>2026-05-02T14:57:40.28Z</time></trkpt><trkpt lat="42.132605" lon="13.3151383"><ele>1048.0</ele><time>2026-05-02T14:57:41.28Z</time></trkpt><trkpt lat="42.1325583" lon="13.3150267"><ele>1048.0</ele><time>2026-05-02T14:57:42.28Z</time></trkpt><trkpt lat="42.132525" lon="13.3149083"><ele>1048.0</ele><time>2026-05-02T14:57:43.28Z</time></trkpt><trkpt lat="42.1324833" lon="13.31479"><ele>1048.0</ele><time>2026-05-02T14:57:44.28Z</time></trkpt><trkpt lat="42.132445" lon="13.3146767"><ele>1048.0</ele><time>2026-05-02T14:57:45.28Z</time></trkpt><trkpt lat="42.132395" lon="13.314565"><ele>1048.2</ele><time>2026-05-02T14:57:46.281Z</time></trkpt><trkpt lat="42.1323383" lon="13.3144717"><ele>1048.4</ele><time>2026-05-02T14:57:47.281Z</time></trkpt><trkpt lat="42.1322567" lon="13.3143717"><ele>1048.6000000000001</ele><time>2026-05-02T14:57:48.28Z</time></trkpt><trkpt lat="42.1321567" lon="13.3142683"><ele>1048.8</ele><time>2026-05-02T14:57:49.28Z</time></trkpt><trkpt lat="42.1320967" lon="13.31417"><ele>1049.0</ele><time>2026-05-02T14:57:50.28Z</time></trkpt><trkpt lat="42.1320117" lon="13.31408"><ele>1049.0</ele><time>2026-05-02T14:57:51.28Z</time></trkpt><trkpt lat="42.1319417" lon="13.314"><ele>1049.0</ele><time>2026-05-02T14:57:52.28Z</time></trkpt><trkpt lat="42.131895" lon="13.3139267"><ele>1049.0</ele><time>2026-05-02T14:57:53.28Z</time></trkpt><trkpt lat="42.131855" lon="13.3138533"><ele>1049.0</ele><time>2026-05-02T14:57:54.28Z</time></trkpt><trkpt lat="42.1318317" lon="13.313755"><ele>1049.0</ele><time>2026-05-02T14:57:55.28Z</time></trkpt><trkpt lat="42.1318183" lon="13.3136383"><ele>1049.0</ele><time>2026-05-02T14:57:56.28Z</time></trkpt><trkpt lat="42.13182" lon="13.31351"><ele>1049.6000000000001</ele><time>2026-05-02T14:57:57.28Z</time></trkpt><trkpt lat="42.1318233" lon="13.3133867"><ele>1050.2</ele><time>2026-05-02T14:57:58.28Z</time></trkpt><trkpt lat="42.131825" lon="13.31326"><ele>1050.8000000000002</ele><time>2026-05-02T14:57:59.28Z</time></trkpt><trkpt lat="42.1318233" lon="13.3131117"><ele>1051.4</ele><time>2026-05-02T14:58:00.28Z</time></trkpt><trkpt lat="42.1318283" lon="13.31299"><ele>1052.0</ele><time>2026-05-02T14:58:01.28Z</time></trkpt><trkpt lat="42.1318367" lon="13.3128733"><ele>1052.5</ele><time>2026-05-02T14:58:02.28Z</time></trkpt><trkpt lat="42.13185" lon="13.31276"><ele>1053.0</ele><time>2026-05-02T14:58:03.28Z</time></trkpt><trkpt lat="42.131875" lon="13.3126533"><ele>1053.5</ele><time>2026-05-02T14:58:04.281Z</time></trkpt><trkpt lat="42.1319117" lon="13.3125567"><ele>1054.0</ele><time>2026-05-02T14:58:05.28Z</time></trkpt><trkpt lat="42.1319667" lon="13.3124817"><ele>1054.5</ele><time>2026-05-02T14:58:06.28Z</time></trkpt><trkpt lat="42.1320283" lon="13.312415"><ele>1055.0</ele><time>2026-05-02T14:58:07.28Z</time></trkpt><trkpt lat="42.1320917" lon="13.3123617"><ele>1055.0</ele><time>2026-05-02T14:58:08.28Z</time></trkpt><trkpt lat="42.13216" lon="13.31227"><ele>1055.0</ele><time>2026-05-02T14:58:10.28Z</time></trkpt><trkpt lat="42.1321917" lon="13.31216"><ele>1055.0</ele><time>2026-05-02T14:58:12.28Z</time></trkpt><trkpt lat="42.13223" lon="13.3120583"><ele>1055.0</ele><time>2026-05-02T14:58:14.28Z</time></trkpt><trkpt lat="42.1323" lon="13.3119833"><ele>1055.0</ele><time>2026-05-02T14:58:16.28Z</time></trkpt><trkpt lat="42.1323617" lon="13.311885"><ele>1052.6</ele><time>2026-05-02T14:58:18.28Z</time></trkpt><trkpt lat="42.132425" lon="13.3117733"><ele>1050.2</ele><time>2026-05-02T14:58:20.281Z</time></trkpt><trkpt lat="42.1325117" lon="13.3116867"><ele>1047.8</ele><time>2026-05-02T14:58:22.28Z</time></trkpt><trkpt lat="42.1325967" lon="13.31164"><ele>1045.4</ele><time>2026-05-02T14:58:24.28Z</time></trkpt><trkpt lat="42.1326733" lon="13.311595"><ele>1043.0</ele><time>2026-05-02T14:58:26.28Z</time></trkpt><trkpt lat="42.1327533" lon="13.3115017"><ele>1044.2</ele><time>2026-05-02T14:58:28.28Z</time></trkpt><trkpt lat="42.1328083" lon="13.3113767"><ele>1045.4</ele><time>2026-05-02T14:58:30.28Z</time></trkpt><trkpt lat="42.1328783" lon="13.311265"><ele>1046.6000000000001</ele><time>2026-05-02T14:58:32.28Z</time></trkpt><trkpt lat="42.132965" lon="13.3112033"><ele>1047.8</ele><time>2026-05-02T14:58:34.28Z</time></trkpt><trkpt lat="42.1330717" lon="13.31116"><ele>1049.0</ele><time>2026-05-02T14:58:36.28Z</time></trkpt><trkpt lat="42.1331683" lon="13.3111117"><ele>1047.3333333333335</ele><time>2026-05-02T14:58:38.281Z</time></trkpt><trkpt lat="42.133225" lon="13.3110483"><ele>1045.6666666666667</ele><time>2026-05-02T14:58:40.28Z</time></trkpt><trkpt lat="42.1332433" lon="13.31096"><ele>1044.0</ele><time>2026-05-02T14:58:42.28Z</time></trkpt><trkpt lat="42.1332617" lon="13.310875"><ele>1042.3333333333333</ele><time>2026-05-02T14:58:49.28Z</time></trkpt><trkpt lat="42.1333067" lon="13.3107317"><ele>1040.6666666666665</ele><time>2026-05-02T14:58:51.28Z</time></trkpt><trkpt lat="42.133395" lon="13.3106267"><ele>1039.0</ele><time>2026-05-02T14:58:53.28Z</time></trkpt><trkpt lat="42.1334683" lon="13.3105483"><ele>1039.0</ele><time>2026-05-02T14:58:55.28Z</time></trkpt><trkpt lat="42.1335167" lon="13.3104783"><ele>1039.0</ele><time>2026-05-02T14:58:58.28Z</time></trkpt><trkpt lat="42.1336733" lon="13.3104667"><ele>1039.0</ele><time>2026-05-02T15:00:20.28Z</time></trkpt><trkpt lat="42.133705" lon="13.3103333"><ele>1039.0</ele><time>2026-05-02T15:04:38.279Z</time></trkpt><trkpt lat="42.133725" lon="13.3102333"><ele>1039.0</ele><time>2026-05-02T15:04:40.28Z</time></trkpt><trkpt lat="42.1337433" lon="13.3101383"><ele>1038.9999999999998</ele><time>2026-05-02T15:04:42.279Z</time></trkpt><trkpt lat="42.1337817" lon="13.3100617"><ele>1039.0</ele><time>2026-05-02T15:04:44.279Z</time></trkpt><trkpt lat="42.1338417" lon="13.31002"><ele>1039.0</ele><time>2026-05-02T15:04:46.279Z</time></trkpt><trkpt lat="42.1339117" lon="13.3099917"><ele>1039.0</ele><time>2026-05-02T15:04:48.279Z</time></trkpt><trkpt lat="42.133985" lon="13.309975"><ele>1039.0</ele><time>2026-05-02T15:04:50.279Z</time></trkpt><trkpt lat="42.1340433" lon="13.309925"><ele>1038.9999999999998</ele><time>2026-05-02T15:04:52.279Z</time></trkpt><trkpt lat="42.1340967" lon="13.3098667"><ele>1039.0</ele><time>2026-05-02T15:04:54.279Z</time></trkpt><trkpt lat="42.1341283" lon="13.309785"><ele>1035.3333333333333</ele><time>2026-05-02T15:04:56.279Z</time></trkpt><trkpt lat="42.1341417" lon="13.3097017"><ele>1031.6666666666665</ele><time>2026-05-02T15:04:58.279Z</time></trkpt><trkpt lat="42.13414" lon="13.3096083"><ele>1028.0</ele><time>2026-05-02T15:05:00.279Z</time></trkpt><trkpt lat="42.1341433" lon="13.309515"><ele>1024.3333333333333</ele><time>2026-05-02T15:05:02.279Z</time></trkpt><trkpt lat="42.1341917" lon="13.3094"><ele>1020.6666666666666</ele><time>2026-05-02T15:05:04.279Z</time></trkpt><trkpt lat="42.13424" lon="13.3093067"><ele>1017.0</ele><time>2026-05-02T15:05:06.279Z</time></trkpt><trkpt lat="42.1342817" lon="13.3092033"><ele>1017.0</ele><time>2026-05-02T15:05:08.279Z</time></trkpt><trkpt lat="42.1343233" lon="13.3090933"><ele>1017.0</ele><time>2026-05-02T15:05:10.279Z</time></trkpt><trkpt lat="42.1343883" lon="13.3090183"><ele>1017.0</ele><time>2026-05-02T15:05:12.279Z</time></trkpt><trkpt lat="42.134455" lon="13.30894"><ele>1017.0</ele><time>2026-05-02T15:05:14.279Z</time></trkpt><trkpt lat="42.1345367" lon="13.30885"><ele>1017.0</ele><time>2026-05-02T15:05:16.279Z</time></trkpt><trkpt lat="42.13462" lon="13.3087517"><ele>1017.0</ele><time>2026-05-02T15:05:18.28Z</time></trkpt><trkpt lat="42.1346767" lon="13.3086933"><ele>1017.0</ele><time>2026-05-02T15:05:20.279Z</time></trkpt><trkpt lat="42.1346867" lon="13.3085583"><ele>1017.0</ele><time>2026-05-02T15:05:23.279Z</time></trkpt><trkpt lat="42.1347017" lon="13.308405"><ele>1017.0</ele><time>2026-05-02T15:05:25.279Z</time></trkpt><trkpt lat="42.1347033" lon="13.30824"><ele>1017.0</ele><time>2026-05-02T15:05:27.279Z</time></trkpt><trkpt lat="42.1347033" lon="13.3081517"><ele>1015.3333333333334</ele><time>2026-05-02T15:05:28.279Z</time></trkpt><trkpt lat="42.1347067" lon="13.3080667"><ele>1013.6666666666667</ele><time>2026-05-02T15:05:29.279Z</time></trkpt><trkpt lat="42.134715" lon="13.3079817"><ele>1012.0</ele><time>2026-05-02T15:05:30.279Z</time></trkpt><trkpt lat="42.13473" lon="13.3078967"><ele>1010.3333333333334</ele><time>2026-05-02T15:05:31.279Z</time></trkpt><trkpt lat="42.1347617" lon="13.3077717"><ele>1008.6666666666667</ele><time>2026-05-02T15:05:33.279Z</time></trkpt><trkpt lat="42.134835" lon="13.3076533"><ele>1007.0</ele><time>2026-05-02T15:05:35.279Z</time></trkpt><trkpt lat="42.134875" lon="13.307535"><ele>1007.0000000000001</ele><time>2026-05-02T15:05:37.279Z</time></trkpt><trkpt lat="42.1348433" lon="13.30741"><ele>1007.0</ele><time>2026-05-02T15:05:39.279Z</time></trkpt><trkpt lat="42.134798" lon="13.3073337"><ele>1007.0</ele><time>2026-05-02T15:05:40.279Z</time></trkpt><trkpt lat="42.1347478" lon="13.307243"><ele>1007.0</ele><time>2026-05-02T15:05:41.279Z</time></trkpt><trkpt lat="42.1346983" lon="13.3071437"><ele>1007.0000000000001</ele><time>2026-05-02T15:05:42.279Z</time></trkpt><trkpt lat="42.1346482" lon="13.307059"><ele>1007.0</ele><time>2026-05-02T15:05:43.28Z</time></trkpt><trkpt lat="42.1346064" lon="13.3069883"><ele>1004.5000000000001</ele><time>2026-05-02T15:05:44.279Z</time></trkpt><trkpt lat="42.1345517" lon="13.3068424"><ele>1002.0</ele><time>2026-05-02T15:05:46.279Z</time></trkpt><trkpt lat="42.1345274" lon="13.306673"><ele>999.5</ele><time>2026-05-02T15:05:48.279Z</time></trkpt><trkpt lat="42.1345251" lon="13.3065822"><ele>997.0</ele><time>2026-05-02T15:05:49.279Z</time></trkpt><trkpt lat="42.1345282" lon="13.306495"><ele>994.5000000000001</ele><time>2026-05-02T15:05:50.279Z</time></trkpt><trkpt lat="42.1345323" lon="13.3064039"><ele>992.0</ele><time>2026-05-02T15:05:51.279Z</time></trkpt><trkpt lat="42.1345416" lon="13.3063168"><ele>989.4000000000001</ele><time>2026-05-02T15:05:52.279Z</time></trkpt><trkpt lat="42.1345495" lon="13.306172"><ele>986.8000000000001</ele><time>2026-05-02T15:05:54.279Z</time></trkpt><trkpt lat="42.1345283" lon="13.3060906"><ele>984.2</ele><time>2026-05-02T15:05:56.279Z</time></trkpt><trkpt lat="42.134447" lon="13.3060141"><ele>981.6</ele><time>2026-05-02T15:05:59.279Z</time></trkpt><trkpt lat="42.1343993" lon="13.3058574"><ele>979.0</ele><time>2026-05-02T15:06:01.279Z</time></trkpt><trkpt lat="42.1343867" lon="13.305774"><ele>979.0</ele><time>2026-05-02T15:06:02.279Z</time></trkpt><trkpt lat="42.1343788" lon="13.3056714"><ele>979.0</ele><time>2026-05-02T15:06:03.28Z</time></trkpt><trkpt lat="42.13437" lon="13.3055668"><ele>979.0</ele><time>2026-05-02T15:06:04.279Z</time></trkpt><trkpt lat="42.1343645" lon="13.3054638"><ele>979.0</ele><time>2026-05-02T15:06:05.279Z</time></trkpt><trkpt lat="42.1343652" lon="13.3053623"><ele>979.0</ele><time>2026-05-02T15:06:06.279Z</time></trkpt><trkpt lat="42.1343623" lon="13.3052678"><ele>979.0</ele><time>2026-05-02T15:06:07.279Z</time></trkpt><trkpt lat="42.1343537" lon="13.3051746"><ele>979.0</ele><time>2026-05-02T15:06:08.279Z</time></trkpt><trkpt lat="42.1343394" lon="13.3050773"><ele>977.4999999999999</ele><time>2026-05-02T15:06:09.279Z</time></trkpt><trkpt lat="42.1343202" lon="13.304981"><ele>976.0</ele><time>2026-05-02T15:06:10.28Z</time></trkpt><trkpt lat="42.1342992" lon="13.3048863"><ele>974.5</ele><time>2026-05-02T15:06:11.279Z</time></trkpt><trkpt lat="42.1342825" lon="13.3048021"><ele>973.0</ele><time>2026-05-02T15:06:12.279Z</time></trkpt><trkpt lat="42.1342597" lon="13.3046628"><ele>971.4999999999999</ele><time>2026-05-02T15:06:14.279Z</time></trkpt><trkpt lat="42.134271" lon="13.3045074"><ele>970.0</ele><time>2026-05-02T15:06:16.279Z</time></trkpt><trkpt lat="42.1342817" lon="13.3043525"><ele>968.6666666666666</ele><time>2026-05-02T15:06:18.279Z</time></trkpt><trkpt lat="42.1342834" lon="13.3042336"><ele>967.3333333333333</ele><time>2026-05-02T15:06:20.279Z</time></trkpt><trkpt lat="42.1342767" lon="13.30413"><ele>966.0</ele><time>2026-05-02T15:06:22.279Z</time></trkpt><trkpt lat="42.1342517" lon="13.3040083"><ele>964.6666666666667</ele><time>2026-05-02T15:06:24.279Z</time></trkpt><trkpt lat="42.13423" lon="13.3038867"><ele>963.3333333333334</ele><time>2026-05-02T15:06:26.279Z</time></trkpt><trkpt lat="42.13421" lon="13.303795"><ele>962.0</ele><time>2026-05-02T15:06:27.279Z</time></trkpt><trkpt lat="42.134195" lon="13.303705"><ele>961.6666666666667</ele><time>2026-05-02T15:06:28.279Z</time></trkpt><trkpt lat="42.1341783" lon="13.3036167"><ele>961.3333333333334</ele><time>2026-05-02T15:06:29.279Z</time></trkpt><trkpt lat="42.134185" lon="13.3035183"><ele>961.0</ele><time>2026-05-02T15:06:30.279Z</time></trkpt><trkpt lat="42.13419" lon="13.3034333"><ele>960.6666666666667</ele><time>2026-05-02T15:06:31.279Z</time></trkpt><trkpt lat="42.1342267" lon="13.30328"><ele>960.3333333333334</ele><time>2026-05-02T15:06:33.279Z</time></trkpt><trkpt lat="42.1342567" lon="13.3032"><ele>960.0</ele><time>2026-05-02T15:06:34.279Z</time></trkpt><trkpt lat="42.1342917" lon="13.3031117"><ele>960.8333333333334</ele><time>2026-05-02T15:06:35.279Z</time></trkpt><trkpt lat="42.1343267" lon="13.303015"><ele>961.6666666666667</ele><time>2026-05-02T15:06:36.28Z</time></trkpt><trkpt lat="42.1343767" lon="13.30292"><ele>962.5</ele><time>2026-05-02T15:06:37.279Z</time></trkpt><trkpt lat="42.1344133" lon="13.3028233"><ele>963.3333333333334</ele><time>2026-05-02T15:06:38.279Z</time></trkpt><trkpt lat="42.1344567" lon="13.30272"><ele>964.1666666666667</ele><time>2026-05-02T15:06:39.279Z</time></trkpt><trkpt lat="42.1345083" lon="13.30262"><ele>965.0</ele><time>2026-05-02T15:06:40.279Z</time></trkpt><trkpt lat="42.13455" lon="13.3025233"><ele>965.0000000000001</ele><time>2026-05-02T15:06:41.279Z</time></trkpt><trkpt lat="42.1345767" lon="13.302445"><ele>965.0</ele><time>2026-05-02T15:06:42.279Z</time></trkpt><trkpt lat="42.1345867" lon="13.3022933"><ele>965.0</ele><time>2026-05-02T15:06:44.279Z</time></trkpt><trkpt lat="42.1345633" lon="13.3021783"><ele>965.0</ele><time>2026-05-02T15:06:46.279Z</time></trkpt><trkpt lat="42.1346017" lon="13.3021033"><ele>965.0000000000001</ele><time>2026-05-02T15:06:48.28Z</time></trkpt><trkpt lat="42.1346833" lon="13.3019983"><ele>965.0</ele><time>2026-05-02T15:06:50.279Z</time></trkpt><trkpt lat="42.1347417" lon="13.3018933"><ele>966.0000000000001</ele><time>2026-05-02T15:06:52.279Z</time></trkpt><trkpt lat="42.1347667" lon="13.3017283"><ele>967.0</ele><time>2026-05-02T15:06:54.279Z</time></trkpt><trkpt lat="42.134815" lon="13.3016583"><ele>968.0</ele><time>2026-05-02T15:06:55.279Z</time></trkpt><trkpt lat="42.1348717" lon="13.30159"><ele>969.0</ele><time>2026-05-02T15:06:56.28Z</time></trkpt><trkpt lat="42.1349283" lon="13.3015267"><ele>970.0000000000001</ele><time>2026-05-02T15:06:57.279Z</time></trkpt><trkpt lat="42.134995" lon="13.301465"><ele>971.0</ele><time>2026-05-02T15:06:58.279Z</time></trkpt><trkpt lat="42.1350633" lon="13.3013967"><ele>966.6666666666667</ele><time>2026-05-02T15:06:59.279Z</time></trkpt><trkpt lat="42.1351267" lon="13.301315"><ele>962.3333333333334</ele><time>2026-05-02T15:07:00.279Z</time></trkpt><trkpt lat="42.1351883" lon="13.3012383"><ele>958.0</ele><time>2026-05-02T15:07:01.279Z</time></trkpt><trkpt lat="42.1352433" lon="13.30116"><ele>953.6666666666667</ele><time>2026-05-02T15:07:02.279Z</time></trkpt><trkpt lat="42.13529" lon="13.3010883"><ele>949.3333333333334</ele><time>2026-05-02T15:07:03.279Z</time></trkpt><trkpt lat="42.1353833" lon="13.300975"><ele>945.0</ele><time>2026-05-02T15:07:05.279Z</time></trkpt><trkpt lat="42.1354867" lon="13.300905"><ele>945.0</ele><time>2026-05-02T15:07:07.279Z</time></trkpt><trkpt lat="42.1355517" lon="13.3008833"><ele>945.0</ele><time>2026-05-02T15:07:08.279Z</time></trkpt><trkpt lat="42.1356417" lon="13.3008283"><ele>945.0</ele><time>2026-05-02T15:07:10.279Z</time></trkpt><trkpt lat="42.135725" lon="13.3007133"><ele>945.0</ele><time>2026-05-02T15:07:12.279Z</time></trkpt><trkpt lat="42.1358067" lon="13.3006533"><ele>945.0</ele><time>2026-05-02T15:07:14.279Z</time></trkpt><trkpt lat="42.135905" lon="13.3006817"><ele>944.8333333333334</ele><time>2026-05-02T15:07:16.279Z</time></trkpt><trkpt lat="42.1360167" lon="13.3006817"><ele>944.6666666666667</ele><time>2026-05-02T15:07:18.279Z</time></trkpt><trkpt lat="42.13609" lon="13.3006517"><ele>944.5</ele><time>2026-05-02T15:07:19.279Z</time></trkpt><trkpt lat="42.1361617" lon="13.3006117"><ele>944.3333333333334</ele><time>2026-05-02T15:07:20.279Z</time></trkpt><trkpt lat="42.136235" lon="13.3005733"><ele>944.1666666666667</ele><time>2026-05-02T15:07:21.28Z</time></trkpt><trkpt lat="42.1363183" lon="13.3005083"><ele>944.0</ele><time>2026-05-02T15:07:23.279Z</time></trkpt><trkpt lat="42.13639" lon="13.3004083"><ele>943.4000000000001</ele><time>2026-05-02T15:07:25.279Z</time></trkpt><trkpt lat="42.1364733" lon="13.300295"><ele>942.8000000000001</ele><time>2026-05-02T15:07:27.279Z</time></trkpt><trkpt lat="42.1365183" lon="13.3002017"><ele>942.1999999999999</ele><time>2026-05-02T15:07:28.279Z</time></trkpt><trkpt lat="42.1365483" lon="13.300105"><ele>941.5999999999999</ele><time>2026-05-02T15:07:29.279Z</time></trkpt><trkpt lat="42.136605" lon="13.30001"><ele>941.0</ele><time>2026-05-02T15:07:30.28Z</time></trkpt><trkpt lat="42.1366617" lon="13.2999067"><ele>941.0000000000001</ele><time>2026-05-02T15:07:31.279Z</time></trkpt><trkpt lat="42.1367183" lon="13.2997967"><ele>941.0</ele><time>2026-05-02T15:07:32.279Z</time></trkpt><trkpt lat="42.1367517" lon="13.2997033"><ele>941.0</ele><time>2026-05-02T15:07:33.279Z</time></trkpt><trkpt lat="42.1368" lon="13.299605"><ele>941.0</ele><time>2026-05-02T15:07:34.279Z</time></trkpt><trkpt lat="42.13681" lon="13.2995083"><ele>941.0000000000001</ele><time>2026-05-02T15:07:35.279Z</time></trkpt><trkpt lat="42.1368283" lon="13.2993967"><ele>941.0</ele><time>2026-05-02T15:07:36.279Z</time></trkpt><trkpt lat="42.1368433" lon="13.299295"><ele>939.5000000000001</ele><time>2026-05-02T15:07:37.28Z</time></trkpt><trkpt lat="42.1368567" lon="13.299185"><ele>938.0</ele><time>2026-05-02T15:07:38.279Z</time></trkpt><trkpt lat="42.1368683" lon="13.2990683"><ele>936.5</ele><time>2026-05-02T15:07:39.28Z</time></trkpt><trkpt lat="42.13689" lon="13.2989633"><ele>935.0</ele><time>2026-05-02T15:07:40.279Z</time></trkpt><trkpt lat="42.1369083" lon="13.29884"><ele>933.5000000000001</ele><time>2026-05-02T15:07:41.279Z</time></trkpt><trkpt lat="42.1369383" lon="13.2987317"><ele>932.0</ele><time>2026-05-02T15:07:42.279Z</time></trkpt><trkpt lat="42.136945" lon="13.2986167"><ele>931.3333333333334</ele><time>2026-05-02T15:07:43.279Z</time></trkpt><trkpt lat="42.1369733" lon="13.298515"><ele>930.6666666666667</ele><time>2026-05-02T15:07:44.279Z</time></trkpt><trkpt lat="42.1370033" lon="13.2984217"><ele>930.0</ele><time>2026-05-02T15:07:45.279Z</time></trkpt><trkpt lat="42.1370383" lon="13.298285"><ele>929.3333333333333</ele><time>2026-05-02T15:07:47.279Z</time></trkpt><trkpt lat="42.1370117" lon="13.2981567"><ele>928.6666666666666</ele><time>2026-05-02T15:07:49.279Z</time></trkpt><trkpt lat="42.1369517" lon="13.2981117"><ele>928.0</ele><time>2026-05-02T15:07:51.279Z</time></trkpt><trkpt lat="42.1368833" lon="13.298105"><ele>928.0</ele><time>2026-05-02T15:07:53.279Z</time></trkpt><trkpt lat="42.1367833" lon="13.298105"><ele>928.0</ele><time>2026-05-02T15:07:55.279Z</time></trkpt><trkpt lat="42.136685" lon="13.2980617"><ele>928.0</ele><time>2026-05-02T15:07:57.279Z</time></trkpt><trkpt lat="42.1366067" lon="13.298005"><ele>928.0</ele><time>2026-05-02T15:07:59.28Z</time></trkpt><trkpt lat="42.1365667" lon="13.2978867"><ele>928.0</ele><time>2026-05-02T15:08:01.279Z</time></trkpt><trkpt lat="42.136585" lon="13.2978033"><ele>928.0</ele><time>2026-05-02T15:08:02.279Z</time></trkpt><trkpt lat="42.13663" lon="13.297655"><ele>928.0</ele><time>2026-05-02T15:08:04.279Z</time></trkpt><trkpt lat="42.13672" lon="13.2975183"><ele>928.0</ele><time>2026-05-02T15:08:06.28Z</time></trkpt><trkpt lat="42.1367433" lon="13.29736"><ele>928.0</ele><time>2026-05-02T15:08:08.28Z</time></trkpt><trkpt lat="42.1367483" lon="13.29725"><ele>927.9999999999999</ele><time>2026-05-02T15:08:09.279Z</time></trkpt><trkpt lat="42.1367517" lon="13.2971433"><ele>928.0</ele><time>2026-05-02T15:08:10.279Z</time></trkpt><trkpt lat="42.1367383" lon="13.2970433"><ele>928.0</ele><time>2026-05-02T15:08:11.28Z</time></trkpt><trkpt lat="42.1367317" lon="13.2969283"><ele>928.0</ele><time>2026-05-02T15:08:12.28Z</time></trkpt><trkpt lat="42.1367333" lon="13.2968117"><ele>927.9999999999999</ele><time>2026-05-02T15:08:13.279Z</time></trkpt><trkpt lat="42.13675" lon="13.2966967"><ele>928.0</ele><time>2026-05-02T15:08:14.28Z</time></trkpt><trkpt lat="42.13676" lon="13.2965683"><ele>928.0</ele><time>2026-05-02T15:08:15.279Z</time></trkpt><trkpt lat="42.13676" lon="13.2964383"><ele>928.0</ele><time>2026-05-02T15:08:16.279Z</time></trkpt><trkpt lat="42.1367433" lon="13.29631"><ele>928.0</ele><time>2026-05-02T15:08:17.279Z</time></trkpt><trkpt lat="42.1367433" lon="13.29618"><ele>928.0</ele><time>2026-05-02T15:08:18.28Z</time></trkpt><trkpt lat="42.13672" lon="13.2960467"><ele>928.0</ele><time>2026-05-02T15:08:19.279Z</time></trkpt><trkpt lat="42.1367133" lon="13.295915"><ele>927.0</ele><time>2026-05-02T15:08:20.279Z</time></trkpt><trkpt lat="42.136715" lon="13.295795"><ele>926.0</ele><time>2026-05-02T15:08:21.279Z</time></trkpt><trkpt lat="42.136705" lon="13.2956867"><ele>925.0</ele><time>2026-05-02T15:08:22.279Z</time></trkpt><trkpt lat="42.1367133" lon="13.2955667"><ele>924.0</ele><time>2026-05-02T15:08:23.279Z</time></trkpt><trkpt lat="42.1367183" lon="13.2954417"><ele>923.0</ele><time>2026-05-02T15:08:24.279Z</time></trkpt><trkpt lat="42.13672" lon="13.295305"><ele>922.0</ele><time>2026-05-02T15:08:25.279Z</time></trkpt><trkpt lat="42.13672" lon="13.2951733"><ele>921.0</ele><time>2026-05-02T15:08:26.279Z</time></trkpt><trkpt lat="42.1367033" lon="13.2950383"><ele>920.0</ele><time>2026-05-02T15:08:27.279Z</time></trkpt><trkpt lat="42.13667" lon="13.2949017"><ele>919.0</ele><time>2026-05-02T15:08:28.279Z</time></trkpt><trkpt lat="42.1366333" lon="13.2947583"><ele>918.0</ele><time>2026-05-02T15:08:29.279Z</time></trkpt><trkpt lat="42.13661" lon="13.2946083"><ele>917.6666666666666</ele><time>2026-05-02T15:08:30.28Z</time></trkpt><trkpt lat="42.1366" lon="13.29448"><ele>917.3333333333333</ele><time>2026-05-02T15:08:31.279Z</time></trkpt><trkpt lat="42.1365817" lon="13.294365"><ele>917.0</ele><time>2026-05-02T15:08:32.28Z</time></trkpt><trkpt lat="42.136555" lon="13.294265"><ele>916.6666666666666</ele><time>2026-05-02T15:08:33.279Z</time></trkpt><trkpt lat="42.13655" lon="13.2941633"><ele>916.3333333333333</ele><time>2026-05-02T15:08:34.279Z</time></trkpt><trkpt lat="42.1365467" lon="13.2940483"><ele>916.0</ele><time>2026-05-02T15:08:35.279Z</time></trkpt><trkpt lat="42.1365583" lon="13.2939633"><ele>914.5999999999999</ele><time>2026-05-02T15:08:36.279Z</time></trkpt><trkpt lat="42.13655" lon="13.2938283"><ele>913.1999999999999</ele><time>2026-05-02T15:08:38.279Z</time></trkpt><trkpt lat="42.136485" lon="13.29374"><ele>911.8000000000001</ele><time>2026-05-02T15:08:40.279Z</time></trkpt><trkpt lat="42.1364" lon="13.2936367"><ele>910.4000000000001</ele><time>2026-05-02T15:08:42.279Z</time></trkpt><trkpt lat="42.13637" lon="13.2935417"><ele>909.0</ele><time>2026-05-02T15:08:43.28Z</time></trkpt><trkpt lat="42.1363733" lon="13.2934467"><ele>909.0</ele><time>2026-05-02T15:08:44.279Z</time></trkpt><trkpt lat="42.1363667" lon="13.2933467"><ele>909.0</ele><time>2026-05-02T15:08:45.28Z</time></trkpt><trkpt lat="42.1363517" lon="13.2932567"><ele>909.0</ele><time>2026-05-02T15:08:46.279Z</time></trkpt><trkpt lat="42.13632" lon="13.2931567"><ele>909.0</ele><time>2026-05-02T15:08:47.279Z</time></trkpt><trkpt lat="42.1362817" lon="13.293045"><ele>909.0</ele><time>2026-05-02T15:08:48.279Z</time></trkpt><trkpt lat="42.1362667" lon="13.29294"><ele>909.0</ele><time>2026-05-02T15:08:49.279Z</time></trkpt><trkpt lat="42.1362417" lon="13.2928317"><ele>908.6666666666666</ele><time>2026-05-02T15:08:50.279Z</time></trkpt><trkpt lat="42.1362533" lon="13.2927383"><ele>908.3333333333333</ele><time>2026-05-02T15:08:51.279Z</time></trkpt><trkpt lat="42.13626" lon="13.2926083"><ele>908.0</ele><time>2026-05-02T15:08:52.279Z</time></trkpt><trkpt lat="42.1362717" lon="13.2924867"><ele>907.6666666666666</ele><time>2026-05-02T15:08:53.279Z</time></trkpt><trkpt lat="42.1362833" lon="13.2923567"><ele>907.3333333333333</ele><time>2026-05-02T15:08:54.279Z</time></trkpt><trkpt lat="42.1362967" lon="13.2922333"><ele>907.0</ele><time>2026-05-02T15:08:55.279Z</time></trkpt><trkpt lat="42.1363" lon="13.2921233"><ele>905.4999999999999</ele><time>2026-05-02T15:08:56.279Z</time></trkpt><trkpt lat="42.136325" lon="13.2920167"><ele>904.0</ele><time>2026-05-02T15:08:57.279Z</time></trkpt><trkpt lat="42.1363417" lon="13.2919083"><ele>902.5</ele><time>2026-05-02T15:08:58.279Z</time></trkpt><trkpt lat="42.1363367" lon="13.29182"><ele>901.0</ele><time>2026-05-02T15:08:59.279Z</time></trkpt><trkpt lat="42.1363283" lon="13.2917267"><ele>899.4999999999999</ele><time>2026-05-02T15:09:00.28Z</time></trkpt><trkpt lat="42.136335" lon="13.2915967"><ele>898.0</ele><time>2026-05-02T15:09:02.28Z</time></trkpt><trkpt lat="42.1363417" lon="13.291495"><ele>896.9999999999999</ele><time>2026-05-02T15:09:04.279Z</time></trkpt><trkpt lat="42.136385" lon="13.2914167"><ele>896.0</ele><time>2026-05-02T15:09:06.279Z</time></trkpt><trkpt lat="42.1364683" lon="13.2913233"><ele>895.0</ele><time>2026-05-02T15:09:08.279Z</time></trkpt><trkpt lat="42.13652" lon="13.2911717"><ele>894.0</ele><time>2026-05-02T15:09:10.279Z</time></trkpt><trkpt lat="42.1365467" lon="13.2910917"><ele>892.9999999999999</ele><time>2026-05-02T15:09:11.279Z</time></trkpt><trkpt lat="42.1365517" lon="13.2909917"><ele>892.0</ele><time>2026-05-02T15:09:12.28Z</time></trkpt><trkpt lat="42.1365883" lon="13.2908433"><ele>892.0</ele><time>2026-05-02T15:09:14.279Z</time></trkpt><trkpt lat="42.1366683" lon="13.2907583"><ele>892.0</ele><time>2026-05-02T15:09:16.279Z</time></trkpt><trkpt lat="42.136795" lon="13.290725"><ele>892.0</ele><time>2026-05-02T15:09:18.28Z</time></trkpt><trkpt lat="42.1368717" lon="13.2907217"><ele>892.0</ele><time>2026-05-02T15:09:19.279Z</time></trkpt><trkpt lat="42.1369567" lon="13.2907183"><ele>892.0</ele><time>2026-05-02T15:09:20.279Z</time></trkpt><trkpt lat="42.13703" lon="13.29072"><ele>891.9999999999999</ele><time>2026-05-02T15:09:21.28Z</time></trkpt><trkpt lat="42.1370933" lon="13.2907217"><ele>892.0</ele><time>2026-05-02T15:09:22.28Z</time></trkpt><trkpt lat="42.1371567" lon="13.29071"><ele>892.0</ele><time>2026-05-02T15:09:23.279Z</time></trkpt><trkpt lat="42.137235" lon="13.2906767"><ele>892.0</ele><time>2026-05-02T15:09:25.28Z</time></trkpt><trkpt lat="42.137254" lon="13.2905583"><ele>891.9999999999999</ele><time>2026-05-02T15:09:28.279Z</time></trkpt><trkpt lat="42.1372139" lon="13.2904835"><ele>892.0</ele><time>2026-05-02T15:09:30.321Z</time></trkpt><trkpt lat="42.1371063" lon="13.2904437"><ele>889.0</ele><time>2026-05-02T15:09:33.279Z</time></trkpt><trkpt lat="42.1370325" lon="13.2904191"><ele>886.0</ele><time>2026-05-02T15:09:34.279Z</time></trkpt><trkpt lat="42.1369254" lon="13.290386"><ele>883.0</ele><time>2026-05-02T15:09:36.279Z</time></trkpt><trkpt lat="42.1368523" lon="13.2903272"><ele>880.0</ele><time>2026-05-02T15:09:38.279Z</time></trkpt><trkpt lat="42.1368787" lon="13.2902226"><ele>877.0</ele><time>2026-05-02T15:09:40.279Z</time></trkpt><trkpt lat="42.1369666" lon="13.2900974"><ele>876.9999999999999</ele><time>2026-05-02T15:09:42.279Z</time></trkpt><trkpt lat="42.1370176" lon="13.2900319"><ele>877.0</ele><time>2026-05-02T15:09:43.279Z</time></trkpt><trkpt lat="42.1370687" lon="13.2899669"><ele>877.0</ele><time>2026-05-02T15:09:44.279Z</time></trkpt><trkpt lat="42.1371194" lon="13.2899037"><ele>877.0</ele><time>2026-05-02T15:09:45.279Z</time></trkpt><trkpt lat="42.1371624" lon="13.2898393"><ele>876.9999999999999</ele><time>2026-05-02T15:09:46.279Z</time></trkpt><trkpt lat="42.1372035" lon="13.2896937"><ele>877.0</ele><time>2026-05-02T15:09:48.28Z</time></trkpt><trkpt lat="42.1372288" lon="13.2895479"><ele>874.2</ele><time>2026-05-02T15:09:50.28Z</time></trkpt><trkpt lat="42.1372296" lon="13.2894333"><ele>871.4000000000001</ele><time>2026-05-02T15:09:52.279Z</time></trkpt><trkpt lat="42.1371733" lon="13.2893333"><ele>868.5999999999999</ele><time>2026-05-02T15:09:54.279Z</time></trkpt><trkpt lat="42.137125" lon="13.289215"><ele>865.8</ele><time>2026-05-02T15:09:56.279Z</time></trkpt><trkpt lat="42.1371233" lon="13.2891133"><ele>863.0</ele><time>2026-05-02T15:09:58.279Z</time></trkpt><trkpt lat="42.1372083" lon="13.289025"><ele>863.0</ele><time>2026-05-02T15:10:00.279Z</time></trkpt><trkpt lat="42.1372717" lon="13.28893"><ele>863.0</ele><time>2026-05-02T15:10:02.279Z</time></trkpt><trkpt lat="42.1372467" lon="13.288815"><ele>863.0</ele><time>2026-05-02T15:10:04.279Z</time></trkpt><trkpt lat="42.137185" lon="13.2886717"><ele>863.0</ele><time>2026-05-02T15:10:06.279Z</time></trkpt><trkpt lat="42.1371383" lon="13.2885067"><ele>863.0</ele><time>2026-05-02T15:10:08.279Z</time></trkpt><trkpt lat="42.1371136" lon="13.2884105"><ele>861.6666666666667</ele><time>2026-05-02T15:10:09.279Z</time></trkpt><trkpt lat="42.1370984" lon="13.2883198"><ele>860.3333333333334</ele><time>2026-05-02T15:10:10.279Z</time></trkpt><trkpt lat="42.1370883" lon="13.2882354"><ele>859.0</ele><time>2026-05-02T15:10:11.279Z</time></trkpt><trkpt lat="42.1370844" lon="13.2881163"><ele>857.6666666666667</ele><time>2026-05-02T15:10:13.28Z</time></trkpt><trkpt lat="42.1371217" lon="13.28803"><ele>856.3333333333334</ele><time>2026-05-02T15:10:16.28Z</time></trkpt><trkpt lat="42.1371867" lon="13.288065"><ele>855.0</ele><time>2026-05-02T15:10:19.279Z</time></trkpt><trkpt lat="42.137245" lon="13.288165"><ele>855.0</ele><time>2026-05-02T15:10:21.279Z</time></trkpt><trkpt lat="42.13733" lon="13.2882683"><ele>855.0</ele><time>2026-05-02T15:10:24.279Z</time></trkpt><trkpt lat="42.1373867" lon="13.2883183"><ele>855.0</ele><time>2026-05-02T15:10:25.279Z</time></trkpt><trkpt lat="42.1374517" lon="13.2883633"><ele>855.0</ele><time>2026-05-02T15:10:26.28Z</time></trkpt><trkpt lat="42.1375167" lon="13.2884133"><ele>855.0</ele><time>2026-05-02T15:10:27.279Z</time></trkpt><trkpt lat="42.13758" lon="13.2884583"><ele>855.0</ele><time>2026-05-02T15:10:28.279Z</time></trkpt><trkpt lat="42.137635" lon="13.2885067"><ele>855.4</ele><time>2026-05-02T15:10:29.279Z</time></trkpt><trkpt lat="42.1377433" lon="13.2885767"><ele>855.8</ele><time>2026-05-02T15:10:31.28Z</time></trkpt><trkpt lat="42.1378617" lon="13.28857"><ele>856.2</ele><time>2026-05-02T15:10:33.279Z</time></trkpt><trkpt lat="42.1379167" lon="13.2885267"><ele>856.6</ele><time>2026-05-02T15:10:34.279Z</time></trkpt><trkpt lat="42.1379767" lon="13.2883933"><ele>857.0</ele><time>2026-05-02T15:10:36.279Z</time></trkpt><trkpt lat="42.1379583" lon="13.2882833"><ele>857.0000000000001</ele><time>2026-05-02T15:10:37.279Z</time></trkpt><trkpt lat="42.1379317" lon="13.2881717"><ele>857.0</ele><time>2026-05-02T15:10:38.279Z</time></trkpt><trkpt lat="42.1379183" lon="13.2880583"><ele>857.0</ele><time>2026-05-02T15:10:39.279Z</time></trkpt><trkpt lat="42.1378833" lon="13.2879533"><ele>857.0</ele><time>2026-05-02T15:10:40.279Z</time></trkpt><trkpt lat="42.1378567" lon="13.287865"><ele>857.0000000000001</ele><time>2026-05-02T15:10:41.279Z</time></trkpt><trkpt lat="42.1378283" lon="13.2877717"><ele>857.0</ele><time>2026-05-02T15:10:42.279Z</time></trkpt><trkpt lat="42.1378067" lon="13.2876767"><ele>855.6666666666667</ele><time>2026-05-02T15:10:43.279Z</time></trkpt><trkpt lat="42.1377917" lon="13.2875833"><ele>854.3333333333334</ele><time>2026-05-02T15:10:44.279Z</time></trkpt><trkpt lat="42.137775" lon="13.2874817"><ele>853.0</ele><time>2026-05-02T15:10:45.28Z</time></trkpt><trkpt lat="42.1377633" lon="13.2873733"><ele>851.6666666666667</ele><time>2026-05-02T15:10:46.279Z</time></trkpt><trkpt lat="42.1377583" lon="13.2872567"><ele>850.3333333333334</ele><time>2026-05-02T15:10:47.279Z</time></trkpt><trkpt lat="42.1377517" lon="13.2871617"><ele>849.0</ele><time>2026-05-02T15:10:48.279Z</time></trkpt><trkpt lat="42.137735" lon="13.2870583"><ele>847.6666666666666</ele><time>2026-05-02T15:10:49.279Z</time></trkpt><trkpt lat="42.1377283" lon="13.2869617"><ele>846.3333333333333</ele><time>2026-05-02T15:10:50.279Z</time></trkpt><trkpt lat="42.1377233" lon="13.2868567"><ele>845.0</ele><time>2026-05-02T15:10:51.279Z</time></trkpt><trkpt lat="42.1377367" lon="13.2867483"><ele>843.6666666666666</ele><time>2026-05-02T15:10:52.279Z</time></trkpt><trkpt lat="42.1377417" lon="13.2866433"><ele>842.3333333333333</ele><time>2026-05-02T15:10:53.28Z</time></trkpt><trkpt lat="42.1377133" lon="13.2865167"><ele>841.0</ele><time>2026-05-02T15:10:54.28Z</time></trkpt><trkpt lat="42.1377017" lon="13.2863933"><ele>840.6666666666666</ele><time>2026-05-02T15:10:55.279Z</time></trkpt><trkpt lat="42.1376983" lon="13.286275"><ele>840.3333333333333</ele><time>2026-05-02T15:10:56.279Z</time></trkpt><trkpt lat="42.1376833" lon="13.2861617"><ele>840.0</ele><time>2026-05-02T15:10:57.279Z</time></trkpt><trkpt lat="42.13767" lon="13.2860633"><ele>839.6666666666667</ele><time>2026-05-02T15:10:58.28Z</time></trkpt><trkpt lat="42.1376467" lon="13.2859483"><ele>839.3333333333334</ele><time>2026-05-02T15:11:00.279Z</time></trkpt><trkpt lat="42.1377433" lon="13.28597"><ele>839.0</ele><time>2026-05-02T15:11:13.279Z</time></trkpt><trkpt lat="42.13783" lon="13.2860583"><ele>839.0000000000001</ele><time>2026-05-02T15:11:15.279Z</time></trkpt><trkpt lat="42.1379217" lon="13.286055"><ele>839.0</ele><time>2026-05-02T15:11:17.279Z</time></trkpt><trkpt lat="42.137985" lon="13.2860217"><ele>839.0</ele><time>2026-05-02T15:11:18.279Z</time></trkpt><trkpt lat="42.1380733" lon="13.2860017"><ele>839.0</ele><time>2026-05-02T15:11:19.28Z</time></trkpt><trkpt lat="42.1381683" lon="13.2859817"><ele>839.0000000000001</ele><time>2026-05-02T15:11:20.279Z</time></trkpt><trkpt lat="42.13825" lon="13.285955"><ele>839.0</ele><time>2026-05-02T15:11:21.279Z</time></trkpt><trkpt lat="42.1383383" lon="13.2859267"><ele>839.2</ele><time>2026-05-02T15:11:22.279Z</time></trkpt><trkpt lat="42.1384083" lon="13.285895"><ele>839.4000000000001</ele><time>2026-05-02T15:11:23.279Z</time></trkpt><trkpt lat="42.1384733" lon="13.2858717"><ele>839.6</ele><time>2026-05-02T15:11:24.279Z</time></trkpt><trkpt lat="42.1385967" lon="13.2858417"><ele>839.8</ele><time>2026-05-02T15:11:26.279Z</time></trkpt><trkpt lat="42.13871" lon="13.28583"><ele>840.0</ele><time>2026-05-02T15:11:28.279Z</time></trkpt><trkpt lat="42.1388367" lon="13.28583"><ele>840.0</ele><time>2026-05-02T15:11:30.28Z</time></trkpt><trkpt lat="42.1389083" lon="13.2858483"><ele>840.0</ele><time>2026-05-02T15:11:31.279Z</time></trkpt><trkpt lat="42.13898" lon="13.285875"><ele>840.0</ele><time>2026-05-02T15:11:32.279Z</time></trkpt><trkpt lat="42.139045" lon="13.2858833"><ele>840.0</ele><time>2026-05-02T15:11:33.279Z</time></trkpt><trkpt lat="42.13911" lon="13.2858883"><ele>840.0</ele><time>2026-05-02T15:11:34.279Z</time></trkpt><trkpt lat="42.139175" lon="13.2858833"><ele>840.0</ele><time>2026-05-02T15:11:35.28Z</time></trkpt><trkpt lat="42.13925" lon="13.2858767"><ele>840.0</ele><time>2026-05-02T15:11:36.28Z</time></trkpt><trkpt lat="42.139325" lon="13.2858767"><ele>839.5</ele><time>2026-05-02T15:11:37.279Z</time></trkpt><trkpt lat="42.139405" lon="13.2858783"><ele>839.0</ele><time>2026-05-02T15:11:38.279Z</time></trkpt><trkpt lat="42.1394883" lon="13.2858917"><ele>838.5</ele><time>2026-05-02T15:11:39.279Z</time></trkpt><trkpt lat="42.1395633" lon="13.2859067"><ele>838.0</ele><time>2026-05-02T15:11:40.279Z</time></trkpt><trkpt lat="42.13963" lon="13.285915"><ele>837.5</ele><time>2026-05-02T15:11:41.28Z</time></trkpt><trkpt lat="42.139705" lon="13.2859133"><ele>837.0</ele><time>2026-05-02T15:11:42.279Z</time></trkpt><trkpt lat="42.1397933" lon="13.2858933"><ele>837.0</ele><time>2026-05-02T15:11:43.279Z</time></trkpt><trkpt lat="42.1398783" lon="13.2858883"><ele>837.0</ele><time>2026-05-02T15:11:44.279Z</time></trkpt><trkpt lat="42.1399633" lon="13.2858933"><ele>837.0</ele><time>2026-05-02T15:11:45.279Z</time></trkpt><trkpt lat="42.14005" lon="13.2858967"><ele>837.0</ele><time>2026-05-02T15:11:46.28Z</time></trkpt><trkpt lat="42.140125" lon="13.2859117"><ele>837.0</ele><time>2026-05-02T15:11:47.28Z</time></trkpt><trkpt lat="42.14021" lon="13.2859333"><ele>837.0</ele><time>2026-05-02T15:11:48.279Z</time></trkpt><trkpt lat="42.14029" lon="13.285955"><ele>835.0</ele><time>2026-05-02T15:11:49.279Z</time></trkpt><trkpt lat="42.1403583" lon="13.285965"><ele>833.0</ele><time>2026-05-02T15:11:50.279Z</time></trkpt><trkpt lat="42.14043" lon="13.2859833"><ele>831.0</ele><time>2026-05-02T15:11:51.279Z</time></trkpt><trkpt lat="42.1405433" lon="13.28601"><ele>829.0</ele><time>2026-05-02T15:11:53.279Z</time></trkpt><trkpt lat="42.140655" lon="13.286015"><ele>827.0</ele><time>2026-05-02T15:11:55.279Z</time></trkpt><trkpt lat="42.140765" lon="13.2859817"><ele>825.0</ele><time>2026-05-02T15:11:57.279Z</time></trkpt><trkpt lat="42.1408833" lon="13.2859467"><ele>823.0</ele><time>2026-05-02T15:11:59.279Z</time></trkpt><trkpt lat="42.141" lon="13.286005"><ele>821.0</ele><time>2026-05-02T15:12:02.279Z</time></trkpt><trkpt lat="42.1410983" lon="13.2860783"><ele>819.0</ele><time>2026-05-02T15:12:04.279Z</time></trkpt><trkpt lat="42.141205" lon="13.28611"><ele>819.0</ele><time>2026-05-02T15:12:06.279Z</time></trkpt><trkpt lat="42.1413417" lon="13.2860917"><ele>819.0</ele><time>2026-05-02T15:12:08.279Z</time></trkpt><trkpt lat="42.1414083" lon="13.2860667"><ele>819.0</ele><time>2026-05-02T15:12:09.279Z</time></trkpt><trkpt lat="42.1415317" lon="13.2860017"><ele>819.0</ele><time>2026-05-02T15:12:11.28Z</time></trkpt><trkpt lat="42.1416" lon="13.28598"><ele>819.0</ele><time>2026-05-02T15:12:12.279Z</time></trkpt><trkpt lat="42.1416883" lon="13.285975"><ele>815.6666666666666</ele><time>2026-05-02T15:12:13.28Z</time></trkpt><trkpt lat="42.141775" lon="13.28599"><ele>812.3333333333333</ele><time>2026-05-02T15:12:14.28Z</time></trkpt><trkpt lat="42.1418433" lon="13.2859933"><ele>809.0</ele><time>2026-05-02T15:12:15.279Z</time></trkpt><trkpt lat="42.1419133" lon="13.2860017"><ele>805.6666666666666</ele><time>2026-05-02T15:12:16.279Z</time></trkpt><trkpt lat="42.14199" lon="13.2859983"><ele>802.3333333333333</ele><time>2026-05-02T15:12:17.279Z</time></trkpt><trkpt lat="42.1421017" lon="13.286005"><ele>799.0</ele><time>2026-05-02T15:12:19.279Z</time></trkpt><trkpt lat="42.1422" lon="13.2860067"><ele>799.0</ele><time>2026-05-02T15:12:21.279Z</time></trkpt><trkpt lat="42.1422933" lon="13.2859883"><ele>799.0</ele><time>2026-05-02T15:12:23.279Z</time></trkpt><trkpt lat="42.14239" lon="13.28594"><ele>799.0</ele><time>2026-05-02T15:12:25.279Z</time></trkpt><trkpt lat="42.1425683" lon="13.28604"><ele>799.0</ele><time>2026-05-02T15:12:30.279Z</time></trkpt><trkpt lat="42.1426033" lon="13.286155"><ele>798.6</ele><time>2026-05-02T15:12:32.279Z</time></trkpt><trkpt lat="42.1426717" lon="13.2862617"><ele>798.2</ele><time>2026-05-02T15:12:34.279Z</time></trkpt><trkpt lat="42.1427533" lon="13.2863333"><ele>797.8000000000001</ele><time>2026-05-02T15:12:36.279Z</time></trkpt><trkpt lat="42.1428583" lon="13.2863967"><ele>797.4000000000001</ele><time>2026-05-02T15:12:38.279Z</time></trkpt><trkpt lat="42.1429133" lon="13.286445"><ele>797.0</ele><time>2026-05-02T15:12:39.28Z</time></trkpt><trkpt lat="42.1430083" lon="13.28655"><ele>797.0000000000001</ele><time>2026-05-02T15:12:41.279Z</time></trkpt><trkpt lat="42.1430567" lon="13.2866333"><ele>797.0</ele><time>2026-05-02T15:12:42.279Z</time></trkpt><trkpt lat="42.143105" lon="13.28673"><ele>797.0</ele><time>2026-05-02T15:12:43.279Z</time></trkpt><trkpt lat="42.1431467" lon="13.28682"><ele>797.0</ele><time>2026-05-02T15:12:44.279Z</time></trkpt><trkpt lat="42.14319" lon="13.28691"><ele>797.0000000000001</ele><time>2026-05-02T15:12:45.279Z</time></trkpt><trkpt lat="42.1432267" lon="13.2870083"><ele>797.0</ele><time>2026-05-02T15:12:46.279Z</time></trkpt><trkpt lat="42.1432567" lon="13.2871133"><ele>794.0</ele><time>2026-05-02T15:12:47.279Z</time></trkpt><trkpt lat="42.1432717" lon="13.2872883"><ele>791.0</ele><time>2026-05-02T15:12:49.279Z</time></trkpt><trkpt lat="42.14327" lon="13.287395"><ele>788.0</ele><time>2026-05-02T15:12:50.28Z</time></trkpt><trkpt lat="42.1432733" lon="13.2874967"><ele>785.0</ele><time>2026-05-02T15:12:51.279Z</time></trkpt><trkpt lat="42.1433067" lon="13.2876367"><ele>782.0</ele><time>2026-05-02T15:12:53.279Z</time></trkpt><trkpt lat="42.1433817" lon="13.2877483"><ele>782.0</ele><time>2026-05-02T15:12:55.28Z</time></trkpt><trkpt lat="42.1434833" lon="13.2878083"><ele>782.0</ele><time>2026-05-02T15:12:57.279Z</time></trkpt><trkpt lat="42.1435983" lon="13.2878367"><ele>782.0</ele><time>2026-05-02T15:12:59.279Z</time></trkpt><trkpt lat="42.1437117" lon="13.2878283"><ele>782.0</ele><time>2026-05-02T15:13:01.279Z</time></trkpt><trkpt lat="42.14381" lon="13.2877217"><ele>782.0000000000001</ele><time>2026-05-02T15:13:03.279Z</time></trkpt><trkpt lat="42.14385" lon="13.28765"><ele>782.0</ele><time>2026-05-02T15:13:04.279Z</time></trkpt><trkpt lat="42.1439017" lon="13.2875817"><ele>782.0</ele><time>2026-05-02T15:13:05.279Z</time></trkpt><trkpt lat="42.1439883" lon="13.2874883"><ele>782.0</ele><time>2026-05-02T15:13:07.28Z</time></trkpt><trkpt lat="42.1440867" lon="13.2874117"><ele>782.0000000000001</ele><time>2026-05-02T15:13:09.279Z</time></trkpt><trkpt lat="42.144145" lon="13.2873717"><ele>782.0</ele><time>2026-05-02T15:13:10.279Z</time></trkpt><trkpt lat="42.1442617" lon="13.28736"><ele>783.2</ele><time>2026-05-02T15:13:12.279Z</time></trkpt><trkpt lat="42.14433" lon="13.2873567"><ele>784.4000000000001</ele><time>2026-05-02T15:13:13.279Z</time></trkpt><trkpt lat="42.1444033" lon="13.28735"><ele>785.5999999999999</ele><time>2026-05-02T15:13:14.279Z</time></trkpt><trkpt lat="42.14447" lon="13.2873583"><ele>786.8</ele><time>2026-05-02T15:13:15.279Z</time></trkpt><trkpt lat="42.1445983" lon="13.2873333"><ele>788.0</ele><time>2026-05-02T15:13:17.279Z</time></trkpt><trkpt lat="42.144725" lon="13.2873417"><ele>788.0000000000001</ele><time>2026-05-02T15:13:19.279Z</time></trkpt><trkpt lat="42.144795" lon="13.28735"><ele>788.0</ele><time>2026-05-02T15:13:20.279Z</time></trkpt><trkpt lat="42.1448617" lon="13.287375"><ele>788.0</ele><time>2026-05-02T15:13:21.279Z</time></trkpt><trkpt lat="42.14492" lon="13.2874167"><ele>788.0</ele><time>2026-05-02T15:13:22.279Z</time></trkpt><trkpt lat="42.145" lon="13.2874933"><ele>788.0000000000001</ele><time>2026-05-02T15:13:24.279Z</time></trkpt><trkpt lat="42.1450717" lon="13.28758"><ele>788.0</ele><time>2026-05-02T15:13:26.279Z</time></trkpt><trkpt lat="42.1451083" lon="13.2876533"><ele>789.3333333333334</ele><time>2026-05-02T15:13:28.279Z</time></trkpt><trkpt lat="42.1451083" lon="13.2877567"><ele>790.6666666666667</ele><time>2026-05-02T15:13:30.279Z</time></trkpt><trkpt lat="42.1450833" lon="13.2878917"><ele>792.0</ele><time>2026-05-02T15:13:32.279Z</time></trkpt><trkpt lat="42.145065" lon="13.287985"><ele>793.3333333333333</ele><time>2026-05-02T15:13:33.279Z</time></trkpt><trkpt lat="42.1450483" lon="13.288095"><ele>794.6666666666666</ele><time>2026-05-02T15:13:34.279Z</time></trkpt><trkpt lat="42.1450333" lon="13.288225"><ele>796.0</ele><time>2026-05-02T15:13:35.279Z</time></trkpt><trkpt lat="42.1450133" lon="13.2883767"><ele>796.1999999999999</ele><time>2026-05-02T15:13:36.279Z</time></trkpt><trkpt lat="42.1450067" lon="13.28853"><ele>796.4</ele><time>2026-05-02T15:13:37.279Z</time></trkpt><trkpt lat="42.1449983" lon="13.2886583"><ele>796.6</ele><time>2026-05-02T15:13:38.279Z</time></trkpt><trkpt lat="42.144985" lon="13.2887633"><ele>796.8</ele><time>2026-05-02T15:13:39.279Z</time></trkpt><trkpt lat="42.1449833" lon="13.28887"><ele>797.0</ele><time>2026-05-02T15:13:40.279Z</time></trkpt><trkpt lat="42.1449933" lon="13.28898"><ele>796.5000000000001</ele><time>2026-05-02T15:13:41.279Z</time></trkpt><trkpt lat="42.1449967" lon="13.2890833"><ele>796.0</ele><time>2026-05-02T15:13:42.279Z</time></trkpt><trkpt lat="42.145" lon="13.289195"><ele>795.5</ele><time>2026-05-02T15:13:43.279Z</time></trkpt><trkpt lat="42.1450067" lon="13.2892967"><ele>795.0</ele><time>2026-05-02T15:13:44.279Z</time></trkpt><trkpt lat="42.1450067" lon="13.2894"><ele>794.5000000000001</ele><time>2026-05-02T15:13:45.279Z</time></trkpt><trkpt lat="42.145015" lon="13.2894867"><ele>794.0</ele><time>2026-05-02T15:13:46.279Z</time></trkpt><trkpt lat="42.1450283" lon="13.289605"><ele>794.0000000000001</ele><time>2026-05-02T15:13:47.279Z</time></trkpt><trkpt lat="42.145045" lon="13.2897117"><ele>794.0</ele><time>2026-05-02T15:13:48.279Z</time></trkpt><trkpt lat="42.1450683" lon="13.2898017"><ele>794.0</ele><time>2026-05-02T15:13:49.279Z</time></trkpt><trkpt lat="42.1451267" lon="13.2899217"><ele>794.0</ele><time>2026-05-02T15:13:51.279Z</time></trkpt><trkpt lat="42.14516" lon="13.289995"><ele>794.0000000000001</ele><time>2026-05-02T15:13:52.279Z</time></trkpt><trkpt lat="42.1451967" lon="13.2900683"><ele>794.0</ele><time>2026-05-02T15:13:53.279Z</time></trkpt><trkpt lat="42.1452267" lon="13.2901467"><ele>794.8000000000001</ele><time>2026-05-02T15:13:54.28Z</time></trkpt><trkpt lat="42.1452717" lon="13.2902233"><ele>795.6</ele><time>2026-05-02T15:13:55.279Z</time></trkpt><trkpt lat="42.1453133" lon="13.2903017"><ele>796.4</ele><time>2026-05-02T15:13:56.28Z</time></trkpt><trkpt lat="42.1453567" lon="13.290375"><ele>797.2</ele><time>2026-05-02T15:13:57.279Z</time></trkpt><trkpt lat="42.1454533" lon="13.2904683"><ele>798.0</ele><time>2026-05-02T15:13:59.279Z</time></trkpt><trkpt lat="42.1455433" lon="13.2906"><ele>798.8333333333334</ele><time>2026-05-02T15:14:01.279Z</time></trkpt><trkpt lat="42.14559" lon="13.2906633"><ele>799.6666666666667</ele><time>2026-05-02T15:14:02.279Z</time></trkpt><trkpt lat="42.1456733" lon="13.2907667"><ele>800.5</ele><time>2026-05-02T15:14:04.279Z</time></trkpt><trkpt lat="42.145735" lon="13.2908083"><ele>801.3333333333334</ele><time>2026-05-02T15:14:06.279Z</time></trkpt><trkpt lat="42.1457917" lon="13.2908617"><ele>802.1666666666667</ele><time>2026-05-02T15:14:08.279Z</time></trkpt><trkpt lat="42.145875" lon="13.2909233"><ele>803.0</ele><time>2026-05-02T15:14:10.279Z</time></trkpt><trkpt lat="42.1459333" lon="13.2909867"><ele>800.5000000000001</ele><time>2026-05-02T15:14:11.279Z</time></trkpt><trkpt lat="42.1459933" lon="13.29106"><ele>798.0</ele><time>2026-05-02T15:14:12.279Z</time></trkpt><trkpt lat="42.14607" lon="13.2911333"><ele>795.5</ele><time>2026-05-02T15:14:14.279Z</time></trkpt><trkpt lat="42.1461217" lon="13.291195"><ele>793.0</ele><time>2026-05-02T15:14:16.279Z</time></trkpt><trkpt lat="42.1461783" lon="13.2912483"><ele>790.5000000000001</ele><time>2026-05-02T15:14:18.279Z</time></trkpt><trkpt lat="42.146245" lon="13.291345"><ele>788.0</ele><time>2026-05-02T15:14:20.279Z</time></trkpt><trkpt lat="42.1462933" lon="13.2914183"><ele>789.0000000000001</ele><time>2026-05-02T15:14:21.279Z</time></trkpt><trkpt lat="42.1463533" lon="13.2914833"><ele>790.0</ele><time>2026-05-02T15:14:22.279Z</time></trkpt><trkpt lat="42.1464333" lon="13.2915667"><ele>791.0</ele><time>2026-05-02T15:14:23.279Z</time></trkpt><trkpt lat="42.1465017" lon="13.2916433"><ele>792.0</ele><time>2026-05-02T15:14:24.279Z</time></trkpt><trkpt lat="42.1465617" lon="13.291755"><ele>793.0000000000001</ele><time>2026-05-02T15:14:25.279Z</time></trkpt><trkpt lat="42.146615" lon="13.291835"><ele>794.0</ele><time>2026-05-02T15:14:26.28Z</time></trkpt><trkpt lat="42.14666" lon="13.2919"><ele>791.2</ele><time>2026-05-02T15:14:27.279Z</time></trkpt><trkpt lat="42.14673" lon="13.2919183"><ele>788.4000000000001</ele><time>2026-05-02T15:14:29.279Z</time></trkpt><trkpt lat="42.1468567" lon="13.291835"><ele>785.6</ele><time>2026-05-02T15:14:31.279Z</time></trkpt><trkpt lat="42.1469183" lon="13.2917633"><ele>782.8</ele><time>2026-05-02T15:14:32.279Z</time></trkpt><trkpt lat="42.1469883" lon="13.2916933"><ele>780.0</ele><time>2026-05-02T15:14:33.28Z</time></trkpt><trkpt lat="42.1470483" lon="13.291635"><ele>780.0</ele><time>2026-05-02T15:14:34.279Z</time></trkpt><trkpt lat="42.1471067" lon="13.2915833"><ele>780.0</ele><time>2026-05-02T15:14:35.279Z</time></trkpt><trkpt lat="42.1472183" lon="13.2915267"><ele>780.0</ele><time>2026-05-02T15:14:37.279Z</time></trkpt><trkpt lat="42.1472867" lon="13.291515"><ele>780.0</ele><time>2026-05-02T15:14:38.28Z</time></trkpt><trkpt lat="42.1473917" lon="13.29152"><ele>780.0</ele><time>2026-05-02T15:14:40.279Z</time></trkpt><trkpt lat="42.1474767" lon="13.2915717"><ele>776.6</ele><time>2026-05-02T15:14:42.279Z</time></trkpt><trkpt lat="42.14754" lon="13.29162"><ele>773.2</ele><time>2026-05-02T15:14:44.279Z</time></trkpt><trkpt lat="42.1476067" lon="13.2916183"><ele>769.8</ele><time>2026-05-02T15:14:47.279Z</time></trkpt><trkpt lat="42.147585" lon="13.2914983"><ele>766.4</ele><time>2026-05-02T15:14:50.279Z</time></trkpt><trkpt lat="42.14752" lon="13.2913767"><ele>763.0</ele><time>2026-05-02T15:14:52.279Z</time></trkpt><trkpt lat="42.147455" lon="13.2912367"><ele>761.0</ele><time>2026-05-02T15:14:54.28Z</time></trkpt><trkpt lat="42.147435" lon="13.2911383"><ele>759.0</ele><time>2026-05-02T15:14:56.279Z</time></trkpt><trkpt lat="42.1474533" lon="13.2909917"><ele>757.0</ele><time>2026-05-02T15:14:58.279Z</time></trkpt><trkpt lat="42.1474967" lon="13.2909133"><ele>755.0</ele><time>2026-05-02T15:14:59.279Z</time></trkpt><trkpt lat="42.1475517" lon="13.2908267"><ele>753.0</ele><time>2026-05-02T15:15:00.279Z</time></trkpt><trkpt lat="42.147605" lon="13.2907383"><ele>751.0</ele><time>2026-05-02T15:15:01.279Z</time></trkpt><trkpt lat="42.147655" lon="13.29065"><ele>751.3333333333334</ele><time>2026-05-02T15:15:02.279Z</time></trkpt><trkpt lat="42.147695" lon="13.2905717"><ele>751.6666666666667</ele><time>2026-05-02T15:15:03.279Z</time></trkpt><trkpt lat="42.147755" lon="13.290505"><ele>752.0</ele><time>2026-05-02T15:15:04.279Z</time></trkpt><trkpt lat="42.1478017" lon="13.2904333"><ele>752.3333333333334</ele><time>2026-05-02T15:15:05.279Z</time></trkpt><trkpt lat="42.147865" lon="13.29037"><ele>752.6666666666666</ele><time>2026-05-02T15:15:06.279Z</time></trkpt><trkpt lat="42.14795" lon="13.2902967"><ele>753.0</ele><time>2026-05-02T15:15:07.279Z</time></trkpt><trkpt lat="42.1480467" lon="13.2902283"><ele>753.0</ele><time>2026-05-02T15:15:08.279Z</time></trkpt><trkpt lat="42.1481417" lon="13.2901783"><ele>753.0</ele><time>2026-05-02T15:15:09.279Z</time></trkpt><trkpt lat="42.1482367" lon="13.2901183"><ele>753.0</ele><time>2026-05-02T15:15:10.28Z</time></trkpt><trkpt lat="42.1483333" lon="13.29005"><ele>753.0</ele><time>2026-05-02T15:15:11.279Z</time></trkpt><trkpt lat="42.1484267" lon="13.28999"><ele>753.0</ele><time>2026-05-02T15:15:12.279Z</time></trkpt><trkpt lat="42.1485283" lon="13.28992"><ele>749.5</ele><time>2026-05-02T15:15:13.28Z</time></trkpt><trkpt lat="42.1486233" lon="13.2898483"><ele>746.0</ele><time>2026-05-02T15:15:14.279Z</time></trkpt><trkpt lat="42.148735" lon="13.2897617"><ele>742.5</ele><time>2026-05-02T15:15:15.279Z</time></trkpt><trkpt lat="42.1488517" lon="13.2896717"><ele>739.0</ele><time>2026-05-02T15:15:16.279Z</time></trkpt><trkpt lat="42.1489517" lon="13.2895883"><ele>739.2</ele><time>2026-05-02T15:15:17.279Z</time></trkpt><trkpt lat="42.1490333" lon="13.2895083"><ele>739.4000000000001</ele><time>2026-05-02T15:15:18.279Z</time></trkpt><trkpt lat="42.1490933" lon="13.28943"><ele>739.6</ele><time>2026-05-02T15:15:19.279Z</time></trkpt><trkpt lat="42.149175" lon="13.2893317"><ele>739.8</ele><time>2026-05-02T15:15:20.28Z</time></trkpt><trkpt lat="42.14922" lon="13.28925"><ele>740.0</ele><time>2026-05-02T15:15:21.28Z</time></trkpt><trkpt lat="42.1492633" lon="13.28915"><ele>740.0</ele><time>2026-05-02T15:15:22.279Z</time></trkpt><trkpt lat="42.1493267" lon="13.2890583"><ele>740.0</ele><time>2026-05-02T15:15:23.279Z</time></trkpt><trkpt lat="42.14939" lon="13.28898"><ele>740.0</ele><time>2026-05-02T15:15:24.279Z</time></trkpt><trkpt lat="42.1494433" lon="13.2889117"><ele>740.0</ele><time>2026-05-02T15:15:25.279Z</time></trkpt><trkpt lat="42.1495183" lon="13.2888433"><ele>740.0</ele><time>2026-05-02T15:15:26.279Z</time></trkpt><trkpt lat="42.1495867" lon="13.28876"><ele>740.0</ele><time>2026-05-02T15:15:27.28Z</time></trkpt><trkpt lat="42.1496617" lon="13.2886717"><ele>740.75</ele><time>2026-05-02T15:15:28.28Z</time></trkpt><trkpt lat="42.149755" lon="13.2885733"><ele>741.5</ele><time>2026-05-02T15:15:29.279Z</time></trkpt><trkpt lat="42.1498383" lon="13.28847"><ele>742.25</ele><time>2026-05-02T15:15:30.279Z</time></trkpt><trkpt lat="42.1499183" lon="13.2883517"><ele>743.0</ele><time>2026-05-02T15:15:31.279Z</time></trkpt><trkpt lat="42.1499783" lon="13.288245"><ele>741.6666666666666</ele><time>2026-05-02T15:15:32.279Z</time></trkpt><trkpt lat="42.1500467" lon="13.2881483"><ele>740.3333333333333</ele><time>2026-05-02T15:15:33.279Z</time></trkpt><trkpt lat="42.1501067" lon="13.2880533"><ele>739.0</ele><time>2026-05-02T15:15:34.279Z</time></trkpt><trkpt lat="42.150155" lon="13.2879567"><ele>737.6666666666666</ele><time>2026-05-02T15:15:35.279Z</time></trkpt><trkpt lat="42.1502117" lon="13.2878783"><ele>736.3333333333334</ele><time>2026-05-02T15:15:36.279Z</time></trkpt><trkpt lat="42.1502567" lon="13.2877967"><ele>735.0</ele><time>2026-05-02T15:15:37.279Z</time></trkpt><trkpt lat="42.15029" lon="13.2877217"><ele>734.6666666666666</ele><time>2026-05-02T15:15:38.279Z</time></trkpt><trkpt lat="42.1503517" lon="13.2875967"><ele>734.3333333333334</ele><time>2026-05-02T15:15:40.279Z</time></trkpt><trkpt lat="42.1504067" lon="13.28752"><ele>734.0</ele><time>2026-05-02T15:15:41.279Z</time></trkpt><trkpt lat="42.1504467" lon="13.2874317"><ele>733.6666666666667</ele><time>2026-05-02T15:15:42.279Z</time></trkpt><trkpt lat="42.1504833" lon="13.2873417"><ele>733.3333333333334</ele><time>2026-05-02T15:15:43.279Z</time></trkpt><trkpt lat="42.150525" lon="13.2872483"><ele>733.0</ele><time>2026-05-02T15:15:44.279Z</time></trkpt><trkpt lat="42.1505717" lon="13.2871567"><ele>732.8</ele><time>2026-05-02T15:15:45.279Z</time></trkpt><trkpt lat="42.1506183" lon="13.2870883"><ele>732.5999999999999</ele><time>2026-05-02T15:15:46.279Z</time></trkpt><trkpt lat="42.15072" lon="13.2869633"><ele>732.4000000000001</ele><time>2026-05-02T15:15:48.279Z</time></trkpt><trkpt lat="42.1508133" lon="13.286895"><ele>732.2</ele><time>2026-05-02T15:15:50.279Z</time></trkpt><trkpt lat="42.150925" lon="13.2868133"><ele>732.0</ele><time>2026-05-02T15:15:52.279Z</time></trkpt><trkpt lat="42.1509783" lon="13.28676"><ele>731.6</ele><time>2026-05-02T15:15:53.279Z</time></trkpt><trkpt lat="42.1510583" lon="13.2866617"><ele>731.2</ele><time>2026-05-02T15:15:54.279Z</time></trkpt><trkpt lat="42.1511333" lon="13.2865733"><ele>730.8</ele><time>2026-05-02T15:15:55.279Z</time></trkpt><trkpt lat="42.1512033" lon="13.2864733"><ele>730.4</ele><time>2026-05-02T15:15:56.279Z</time></trkpt><trkpt lat="42.1512817" lon="13.2863617"><ele>730.0</ele><time>2026-05-02T15:15:57.279Z</time></trkpt><trkpt lat="42.1513583" lon="13.286235"><ele>729.6</ele><time>2026-05-02T15:15:58.279Z</time></trkpt><trkpt lat="42.1514333" lon="13.28613"><ele>729.2</ele><time>2026-05-02T15:15:59.279Z</time></trkpt><trkpt lat="42.151505" lon="13.2860267"><ele>728.8</ele><time>2026-05-02T15:16:00.279Z</time></trkpt><trkpt lat="42.15157" lon="13.2859133"><ele>728.4</ele><time>2026-05-02T15:16:01.279Z</time></trkpt><trkpt lat="42.15164" lon="13.2858217"><ele>728.0</ele><time>2026-05-02T15:16:02.279Z</time></trkpt><trkpt lat="42.1517383" lon="13.2857433"><ele>727.5999999999999</ele><time>2026-05-02T15:16:03.279Z</time></trkpt><trkpt lat="42.1518083" lon="13.2856683"><ele>727.1999999999999</ele><time>2026-05-02T15:16:04.279Z</time></trkpt><trkpt lat="42.1518967" lon="13.28559"><ele>726.8</ele><time>2026-05-02T15:16:05.279Z</time></trkpt><trkpt lat="42.1519817" lon="13.28549"><ele>726.4</ele><time>2026-05-02T15:16:06.279Z</time></trkpt><trkpt lat="42.152075" lon="13.28539"><ele>726.0</ele><time>2026-05-02T15:16:07.279Z</time></trkpt><trkpt lat="42.15217" lon="13.2852667"><ele>726.0</ele><time>2026-05-02T15:16:08.279Z</time></trkpt><trkpt lat="42.1522517" lon="13.2851617"><ele>726.0</ele><time>2026-05-02T15:16:09.279Z</time></trkpt><trkpt lat="42.1523417" lon="13.2850633"><ele>726.0</ele><time>2026-05-02T15:16:10.279Z</time></trkpt><trkpt lat="42.1524533" lon="13.284955"><ele>726.0</ele><time>2026-05-02T15:16:11.279Z</time></trkpt><trkpt lat="42.1525433" lon="13.2848583"><ele>726.0</ele><time>2026-05-02T15:16:12.279Z</time></trkpt><trkpt lat="42.15263" lon="13.2847733"><ele>726.0</ele><time>2026-05-02T15:16:13.279Z</time></trkpt><trkpt lat="42.152715" lon="13.2846717"><ele>726.0</ele><time>2026-05-02T15:16:14.279Z</time></trkpt><trkpt lat="42.152805" lon="13.284575"><ele>726.0</ele><time>2026-05-02T15:16:15.279Z</time></trkpt><trkpt lat="42.1528817" lon="13.28448"><ele>726.0</ele><time>2026-05-02T15:16:16.279Z</time></trkpt><trkpt lat="42.1529767" lon="13.284365"><ele>726.25</ele><time>2026-05-02T15:16:17.279Z</time></trkpt><trkpt lat="42.1530517" lon="13.28425"><ele>726.5</ele><time>2026-05-02T15:16:18.279Z</time></trkpt><trkpt lat="42.1531467" lon="13.2841217"><ele>726.75</ele><time>2026-05-02T15:16:19.279Z</time></trkpt><trkpt lat="42.1532317" lon="13.2840033"><ele>727.0</ele><time>2026-05-02T15:16:20.279Z</time></trkpt><trkpt lat="42.1533133" lon="13.283885"><ele>727.0</ele><time>2026-05-02T15:16:21.279Z</time></trkpt><trkpt lat="42.153385" lon="13.283755"><ele>727.0</ele><time>2026-05-02T15:16:22.279Z</time></trkpt><trkpt lat="42.1534567" lon="13.2836133"><ele>727.0</ele><time>2026-05-02T15:16:23.279Z</time></trkpt><trkpt lat="42.15355" lon="13.28345"><ele>727.0</ele><time>2026-05-02T15:16:24.279Z</time></trkpt><trkpt lat="42.1536517" lon="13.2832833"><ele>727.0</ele><time>2026-05-02T15:16:25.279Z</time></trkpt><trkpt lat="42.15377" lon="13.2831117"><ele>727.0</ele><time>2026-05-02T15:16:26.279Z</time></trkpt><trkpt lat="42.1538683" lon="13.282955"><ele>727.0</ele><time>2026-05-02T15:16:27.279Z</time></trkpt><trkpt lat="42.1539817" lon="13.2828033"><ele>727.25</ele><time>2026-05-02T15:16:28.279Z</time></trkpt><trkpt lat="42.15408" lon="13.2826817"><ele>727.5</ele><time>2026-05-02T15:16:29.28Z</time></trkpt><trkpt lat="42.154165" lon="13.2825567"><ele>727.75</ele><time>2026-05-02T15:16:30.279Z</time></trkpt><trkpt lat="42.1542517" lon="13.2824383"><ele>728.0</ele><time>2026-05-02T15:16:31.279Z</time></trkpt><trkpt lat="42.154325" lon="13.2823283"><ele>728.25</ele><time>2026-05-02T15:16:32.279Z</time></trkpt><trkpt lat="42.1544267" lon="13.2822217"><ele>728.5</ele><time>2026-05-02T15:16:33.279Z</time></trkpt><trkpt lat="42.15452" lon="13.2821067"><ele>728.75</ele><time>2026-05-02T15:16:34.279Z</time></trkpt><trkpt lat="42.1546217" lon="13.2820033"><ele>729.0</ele><time>2026-05-02T15:16:35.279Z</time></trkpt><trkpt lat="42.1547267" lon="13.281915"><ele>729.0</ele><time>2026-05-02T15:16:36.279Z</time></trkpt><trkpt lat="42.15483" lon="13.2818417"><ele>729.0</ele><time>2026-05-02T15:16:37.279Z</time></trkpt><trkpt lat="42.1549367" lon="13.28175"><ele>729.0</ele><time>2026-05-02T15:16:38.279Z</time></trkpt><trkpt lat="42.1550583" lon="13.2816717"><ele>729.0</ele><time>2026-05-02T15:16:39.28Z</time></trkpt><trkpt lat="42.1551767" lon="13.2815983"><ele>729.25</ele><time>2026-05-02T15:16:40.279Z</time></trkpt><trkpt lat="42.1553" lon="13.2815117"><ele>729.5</ele><time>2026-05-02T15:16:41.279Z</time></trkpt><trkpt lat="42.1554217" lon="13.28142"><ele>729.75</ele><time>2026-05-02T15:16:42.279Z</time></trkpt><trkpt lat="42.1555367" lon="13.28131"><ele>730.0</ele><time>2026-05-02T15:16:43.28Z</time></trkpt><trkpt lat="42.155645" lon="13.2812033"><ele>731.0</ele><time>2026-05-02T15:16:44.279Z</time></trkpt><trkpt lat="42.15576" lon="13.28109"><ele>732.0</ele><time>2026-05-02T15:16:45.279Z</time></trkpt><trkpt lat="42.155895" lon="13.280985"><ele>733.0</ele><time>2026-05-02T15:16:46.279Z</time></trkpt><trkpt lat="42.156025" lon="13.280885"><ele>734.0</ele><time>2026-05-02T15:16:47.279Z</time></trkpt><trkpt lat="42.1561567" lon="13.2807733"><ele>734.0</ele><time>2026-05-02T15:16:48.279Z</time></trkpt><trkpt lat="42.1562883" lon="13.28066"><ele>734.0</ele><time>2026-05-02T15:16:49.279Z</time></trkpt><trkpt lat="42.1564183" lon="13.280545"><ele>734.0</ele><time>2026-05-02T15:16:50.279Z</time></trkpt><trkpt lat="42.1565467" lon="13.2804383"><ele>735.0</ele><time>2026-05-02T15:16:51.279Z</time></trkpt><trkpt lat="42.1566733" lon="13.280335"><ele>736.0</ele><time>2026-05-02T15:16:52.279Z</time></trkpt><trkpt lat="42.1567867" lon="13.2802233"><ele>737.0</ele><time>2026-05-02T15:16:53.279Z</time></trkpt><trkpt lat="42.1569017" lon="13.2801183"><ele>738.0</ele><time>2026-05-02T15:16:54.279Z</time></trkpt><trkpt lat="42.1570267" lon="13.2800233"><ele>738.0</ele><time>2026-05-02T15:16:55.279Z</time></trkpt><trkpt lat="42.15717" lon="13.279925"><ele>738.0</ele><time>2026-05-02T15:16:56.28Z</time></trkpt><trkpt lat="42.15733" lon="13.2798417"><ele>738.0</ele><time>2026-05-02T15:16:57.279Z</time></trkpt><trkpt lat="42.1574967" lon="13.2797733"><ele>738.3333333333334</ele><time>2026-05-02T15:16:58.279Z</time></trkpt><trkpt lat="42.1576667" lon="13.2797033"><ele>738.6666666666667</ele><time>2026-05-02T15:16:59.279Z</time></trkpt><trkpt lat="42.1578267" lon="13.279635"><ele>739.0</ele><time>2026-05-02T15:17:00.279Z</time></trkpt><trkpt lat="42.1579833" lon="13.279595"><ele>739.0</ele><time>2026-05-02T15:17:01.279Z</time></trkpt><trkpt lat="42.1581283" lon="13.2795517"><ele>739.0</ele><time>2026-05-02T15:17:02.279Z</time></trkpt><trkpt lat="42.15827" lon="13.2795183"><ele>739.0</ele><time>2026-05-02T15:17:03.279Z</time></trkpt><trkpt lat="42.158425" lon="13.279485"><ele>739.0</ele><time>2026-05-02T15:17:04.279Z</time></trkpt><trkpt lat="42.1585833" lon="13.2794683"><ele>740.3333333333334</ele><time>2026-05-02T15:17:05.279Z</time></trkpt><trkpt lat="42.1587417" lon="13.2794433"><ele>741.6666666666666</ele><time>2026-05-02T15:17:06.28Z</time></trkpt><trkpt lat="42.1589" lon="13.2794167"><ele>743.0</ele><time>2026-05-02T15:17:07.279Z</time></trkpt><trkpt lat="42.1590517" lon="13.27939"><ele>744.6666666666666</ele><time>2026-05-02T15:17:08.279Z</time></trkpt><trkpt lat="42.1591933" lon="13.2793583"><ele>746.3333333333334</ele><time>2026-05-02T15:17:09.279Z</time></trkpt><trkpt lat="42.1593417" lon="13.2793133"><ele>748.0</ele><time>2026-05-02T15:17:10.279Z</time></trkpt><trkpt lat="42.1594917" lon="13.2792667"><ele>748.0</ele><time>2026-05-02T15:17:11.279Z</time></trkpt><trkpt lat="42.15964" lon="13.27923"><ele>748.0</ele><time>2026-05-02T15:17:12.279Z</time></trkpt><trkpt lat="42.1597883" lon="13.27919"><ele>748.0</ele><time>2026-05-02T15:17:13.28Z</time></trkpt><trkpt lat="42.1599317" lon="13.2791617"><ele>748.0</ele><time>2026-05-02T15:17:14.279Z</time></trkpt><trkpt lat="42.1600783" lon="13.2791317"><ele>749.0</ele><time>2026-05-02T15:17:15.279Z</time></trkpt><trkpt lat="42.1602217" lon="13.2790883"><ele>750.0</ele><time>2026-05-02T15:17:16.279Z</time></trkpt><trkpt lat="42.1603767" lon="13.2790483"><ele>751.0</ele><time>2026-05-02T15:17:17.28Z</time></trkpt><trkpt lat="42.160525" lon="13.2789967"><ele>751.0</ele><time>2026-05-02T15:17:18.279Z</time></trkpt><trkpt lat="42.1606683" lon="13.2789467"><ele>751.0</ele><time>2026-05-02T15:17:19.279Z</time></trkpt><trkpt lat="42.1608133" lon="13.2788933"><ele>751.0</ele><time>2026-05-02T15:17:20.279Z</time></trkpt><trkpt lat="42.16095" lon="13.2788483"><ele>751.0</ele><time>2026-05-02T15:17:21.279Z</time></trkpt><trkpt lat="42.161075" lon="13.2788067"><ele>751.75</ele><time>2026-05-02T15:17:22.279Z</time></trkpt><trkpt lat="42.1612133" lon="13.2787633"><ele>752.5</ele><time>2026-05-02T15:17:23.279Z</time></trkpt><trkpt lat="42.1613417" lon="13.2787267"><ele>753.25</ele><time>2026-05-02T15:17:24.28Z</time></trkpt><trkpt lat="42.1614783" lon="13.2786817"><ele>754.0</ele><time>2026-05-02T15:17:25.279Z</time></trkpt><trkpt lat="42.1616183" lon="13.2786417"><ele>754.75</ele><time>2026-05-02T15:17:26.279Z</time></trkpt><trkpt lat="42.16176" lon="13.2785983"><ele>755.5</ele><time>2026-05-02T15:17:27.279Z</time></trkpt><trkpt lat="42.1619" lon="13.2785533"><ele>756.25</ele><time>2026-05-02T15:17:28.279Z</time></trkpt><trkpt lat="42.1620433" lon="13.278505"><ele>757.0</ele><time>2026-05-02T15:17:29.279Z</time></trkpt><trkpt lat="42.16219" lon="13.27846"><ele>757.0</ele><time>2026-05-02T15:17:30.28Z</time></trkpt><trkpt lat="42.16234" lon="13.2784033"><ele>757.0</ele><time>2026-05-02T15:17:31.279Z</time></trkpt><trkpt lat="42.1624817" lon="13.2783517"><ele>757.0</ele><time>2026-05-02T15:17:32.279Z</time></trkpt><trkpt lat="42.1626283" lon="13.2783"><ele>758.0</ele><time>2026-05-02T15:17:33.279Z</time></trkpt><trkpt lat="42.16277" lon="13.2782583"><ele>759.0</ele><time>2026-05-02T15:17:34.28Z</time></trkpt><trkpt lat="42.162905" lon="13.2782117"><ele>760.0</ele><time>2026-05-02T15:17:35.279Z</time></trkpt><trkpt lat="42.1630317" lon="13.2781783"><ele>761.0</ele><time>2026-05-02T15:17:36.279Z</time></trkpt><trkpt lat="42.1631517" lon="13.2781483"><ele>762.0</ele><time>2026-05-02T15:17:37.28Z</time></trkpt><trkpt lat="42.163275" lon="13.2781133"><ele>763.0</ele><time>2026-05-02T15:17:38.279Z</time></trkpt><trkpt lat="42.1633917" lon="13.2780683"><ele>764.0</ele><time>2026-05-02T15:17:39.279Z</time></trkpt><trkpt lat="42.163495" lon="13.278025"><ele>765.0</ele><time>2026-05-02T15:17:40.279Z</time></trkpt><trkpt lat="42.1636083" lon="13.2779667"><ele>765.0</ele><time>2026-05-02T15:17:41.279Z</time></trkpt><trkpt lat="42.16372" lon="13.2779033"><ele>765.0</ele><time>2026-05-02T15:17:42.279Z</time></trkpt><trkpt lat="42.1638267" lon="13.27783"><ele>765.0</ele><time>2026-05-02T15:17:43.279Z</time></trkpt><trkpt lat="42.163915" lon="13.2777617"><ele>765.0</ele><time>2026-05-02T15:17:44.279Z</time></trkpt><trkpt lat="42.16399" lon="13.27768"><ele>765.0</ele><time>2026-05-02T15:17:45.279Z</time></trkpt><trkpt lat="42.1640667" lon="13.2776083"><ele>765.0</ele><time>2026-05-02T15:17:46.279Z</time></trkpt><trkpt lat="42.1641433" lon="13.277555"><ele>765.0</ele><time>2026-05-02T15:17:47.279Z</time></trkpt><trkpt lat="42.1642217" lon="13.2775067"><ele>765.0</ele><time>2026-05-02T15:17:48.279Z</time></trkpt><trkpt lat="42.1643067" lon="13.2774767"><ele>765.0</ele><time>2026-05-02T15:17:49.279Z</time></trkpt><trkpt lat="42.164405" lon="13.2774583"><ele>765.0</ele><time>2026-05-02T15:17:50.279Z</time></trkpt><trkpt lat="42.16451" lon="13.2774517"><ele>765.0</ele><time>2026-05-02T15:17:51.279Z</time></trkpt><trkpt lat="42.1646133" lon="13.277445"><ele>765.0</ele><time>2026-05-02T15:17:52.279Z</time></trkpt><trkpt lat="42.164705" lon="13.2774433"><ele>765.0</ele><time>2026-05-02T15:17:53.279Z</time></trkpt><trkpt lat="42.1647833" lon="13.277455"><ele>765.0</ele><time>2026-05-02T15:17:54.279Z</time></trkpt><trkpt lat="42.16486" lon="13.2774617"><ele>765.0</ele><time>2026-05-02T15:17:55.279Z</time></trkpt><trkpt lat="42.1649367" lon="13.2774583"><ele>765.0</ele><time>2026-05-02T15:17:56.279Z</time></trkpt><trkpt lat="42.1650167" lon="13.277455"><ele>764.6666666666666</ele><time>2026-05-02T15:17:57.279Z</time></trkpt><trkpt lat="42.1651083" lon="13.2774483"><ele>764.3333333333334</ele><time>2026-05-02T15:17:58.279Z</time></trkpt><trkpt lat="42.1651733" lon="13.27744"><ele>764.0</ele><time>2026-05-02T15:17:59.279Z</time></trkpt><trkpt lat="42.1652583" lon="13.2774333"><ele>763.6666666666667</ele><time>2026-05-02T15:18:00.279Z</time></trkpt><trkpt lat="42.165335" lon="13.2774283"><ele>763.3333333333334</ele><time>2026-05-02T15:18:01.279Z</time></trkpt><trkpt lat="42.1654233" lon="13.2774217"><ele>763.0</ele><time>2026-05-02T15:18:02.28Z</time></trkpt><trkpt lat="42.165515" lon="13.277415"><ele>763.0</ele><time>2026-05-02T15:18:03.279Z</time></trkpt><trkpt lat="42.165585" lon="13.2774133"><ele>763.0</ele><time>2026-05-02T15:18:04.279Z</time></trkpt><trkpt lat="42.1656583" lon="13.2774217"><ele>763.0</ele><time>2026-05-02T15:18:05.279Z</time></trkpt><trkpt lat="42.1657383" lon="13.2774133"><ele>763.0</ele><time>2026-05-02T15:18:06.28Z</time></trkpt><trkpt lat="42.1658233" lon="13.2774083"><ele>763.0</ele><time>2026-05-02T15:18:07.279Z</time></trkpt><trkpt lat="42.165915" lon="13.2773917"><ele>763.0</ele><time>2026-05-02T15:18:08.279Z</time></trkpt><trkpt lat="42.166005" lon="13.2773583"><ele>762.5</ele><time>2026-05-02T15:18:09.279Z</time></trkpt><trkpt lat="42.1661083" lon="13.2773183"><ele>762.0</ele><time>2026-05-02T15:18:10.279Z</time></trkpt><trkpt lat="42.1662233" lon="13.2772783"><ele>761.5</ele><time>2026-05-02T15:18:11.279Z</time></trkpt><trkpt lat="42.1663433" lon="13.277235"><ele>761.0</ele><time>2026-05-02T15:18:12.279Z</time></trkpt><trkpt lat="42.1664467" lon="13.2771917"><ele>762.0</ele><time>2026-05-02T15:18:13.279Z</time></trkpt><trkpt lat="42.1665483" lon="13.277135"><ele>763.0</ele><time>2026-05-02T15:18:14.279Z</time></trkpt><trkpt lat="42.166635" lon="13.2770833"><ele>764.0</ele><time>2026-05-02T15:18:15.279Z</time></trkpt><trkpt lat="42.166725" lon="13.27704"><ele>765.0</ele><time>2026-05-02T15:18:16.279Z</time></trkpt><trkpt lat="42.16682" lon="13.2769833"><ele>766.0</ele><time>2026-05-02T15:18:17.279Z</time></trkpt><trkpt lat="42.1669067" lon="13.276935"><ele>766.0</ele><time>2026-05-02T15:18:18.279Z</time></trkpt><trkpt lat="42.1669867" lon="13.2769033"><ele>766.0</ele><time>2026-05-02T15:18:19.279Z</time></trkpt><trkpt lat="42.1670667" lon="13.27689"><ele>766.0</ele><time>2026-05-02T15:18:20.279Z</time></trkpt><trkpt lat="42.1671317" lon="13.2768933"><ele>766.0</ele><time>2026-05-02T15:18:21.279Z</time></trkpt><trkpt lat="42.1672117" lon="13.2768967"><ele>766.0</ele><time>2026-05-02T15:18:22.279Z</time></trkpt><trkpt lat="42.16729" lon="13.27689"><ele>766.0</ele><time>2026-05-02T15:18:23.279Z</time></trkpt><trkpt lat="42.1673683" lon="13.2768833"><ele>768.1999999999999</ele><time>2026-05-02T15:18:24.279Z</time></trkpt><trkpt lat="42.1674783" lon="13.2768583"><ele>770.4</ele><time>2026-05-02T15:18:26.279Z</time></trkpt><trkpt lat="42.1675517" lon="13.276785"><ele>772.6</ele><time>2026-05-02T15:18:28.28Z</time></trkpt><trkpt lat="42.1676" lon="13.2767117"><ele>774.8</ele><time>2026-05-02T15:18:30.279Z</time></trkpt><trkpt lat="42.1676467" lon="13.2765617"><ele>777.0</ele><time>2026-05-02T15:18:32.279Z</time></trkpt><trkpt lat="42.16768" lon="13.2764783"><ele>778.0</ele><time>2026-05-02T15:18:33.279Z</time></trkpt><trkpt lat="42.167725" lon="13.276355"><ele>779.0</ele><time>2026-05-02T15:18:35.279Z</time></trkpt><trkpt lat="42.1677683" lon="13.276245"><ele>780.0</ele><time>2026-05-02T15:18:37.279Z</time></trkpt><trkpt lat="42.1678633" lon="13.2761833"><ele>781.0</ele><time>2026-05-02T15:18:39.279Z</time></trkpt><trkpt lat="42.1679717" lon="13.27622"><ele>782.0</ele><time>2026-05-02T15:18:41.279Z</time></trkpt><trkpt lat="42.168035" lon="13.2762583"><ele>782.0</ele><time>2026-05-02T15:18:42.279Z</time></trkpt><trkpt lat="42.1681017" lon="13.2762783"><ele>782.0</ele><time>2026-05-02T15:18:43.279Z</time></trkpt><trkpt lat="42.1682333" lon="13.2762783"><ele>782.0</ele><time>2026-05-02T15:18:45.279Z</time></trkpt><trkpt lat="42.16831" lon="13.2762717"><ele>782.0</ele><time>2026-05-02T15:18:46.279Z</time></trkpt><trkpt lat="42.1683917" lon="13.2762667"><ele>782.0</ele><time>2026-05-02T15:18:47.279Z</time></trkpt><trkpt lat="42.1684883" lon="13.276245"><ele>782.0</ele><time>2026-05-02T15:18:48.279Z</time></trkpt><trkpt lat="42.1686033" lon="13.276215"><ele>782.0</ele><time>2026-05-02T15:18:49.279Z</time></trkpt><trkpt lat="42.1687117" lon="13.2761883"><ele>782.0</ele><time>2026-05-02T15:18:50.279Z</time></trkpt><trkpt lat="42.168835" lon="13.276165"><ele>782.0</ele><time>2026-05-02T15:18:51.279Z</time></trkpt><trkpt lat="42.1689567" lon="13.2761267"><ele>783.75</ele><time>2026-05-02T15:18:52.279Z</time></trkpt><trkpt lat="42.1691033" lon="13.27607"><ele>785.5</ele><time>2026-05-02T15:18:53.279Z</time></trkpt><trkpt lat="42.1692467" lon="13.2760233"><ele>787.25</ele><time>2026-05-02T15:18:54.279Z</time></trkpt><trkpt lat="42.16937" lon="13.27598"><ele>789.0</ele><time>2026-05-02T15:18:55.279Z</time></trkpt><trkpt lat="42.1694917" lon="13.2759433"><ele>789.0</ele><time>2026-05-02T15:18:56.279Z</time></trkpt><trkpt lat="42.16959" lon="13.2759033"><ele>789.0</ele><time>2026-05-02T15:18:57.279Z</time></trkpt><trkpt lat="42.1697" lon="13.27587"><ele>789.0</ele><time>2026-05-02T15:18:58.279Z</time></trkpt><trkpt lat="42.16981" lon="13.2758367"><ele>789.0</ele><time>2026-05-02T15:18:59.279Z</time></trkpt><trkpt lat="42.169925" lon="13.27581"><ele>789.0</ele><time>2026-05-02T15:19:00.279Z</time></trkpt><trkpt lat="42.170025" lon="13.275775"><ele>790.0</ele><time>2026-05-02T15:19:01.279Z</time></trkpt><trkpt lat="42.170125" lon="13.2757533"><ele>791.0</ele><time>2026-05-02T15:19:02.279Z</time></trkpt><trkpt lat="42.1702267" lon="13.2757217"><ele>792.0</ele><time>2026-05-02T15:19:03.279Z</time></trkpt><trkpt lat="42.1703233" lon="13.2757033"><ele>793.0</ele><time>2026-05-02T15:19:04.279Z</time></trkpt><trkpt lat="42.1704233" lon="13.2756817"><ele>794.0</ele><time>2026-05-02T15:19:05.279Z</time></trkpt><trkpt lat="42.1705117" lon="13.2756733"><ele>794.0000000000001</ele><time>2026-05-02T15:19:06.279Z</time></trkpt><trkpt lat="42.1705917" lon="13.27567"><ele>794.0</ele><time>2026-05-02T15:19:07.279Z</time></trkpt><trkpt lat="42.1706633" lon="13.27566"><ele>794.0</ele><time>2026-05-02T15:19:08.279Z</time></trkpt><trkpt lat="42.1707617" lon="13.27563"><ele>794.0</ele><time>2026-05-02T15:19:10.279Z</time></trkpt><trkpt lat="42.1708283" lon="13.2756"><ele>794.0000000000001</ele><time>2026-05-02T15:19:12.279Z</time></trkpt><trkpt lat="42.17092" lon="13.275595"><ele>794.0</ele><time>2026-05-02T15:19:14.279Z</time></trkpt><trkpt lat="42.1709917" lon="13.275595"><ele>795.5</ele><time>2026-05-02T15:19:15.279Z</time></trkpt><trkpt lat="42.1710867" lon="13.2756117"><ele>797.0</ele><time>2026-05-02T15:19:16.279Z</time></trkpt><trkpt lat="42.1712217" lon="13.275635"><ele>798.5</ele><time>2026-05-02T15:19:17.279Z</time></trkpt><trkpt lat="42.171355" lon="13.27566"><ele>800.0</ele><time>2026-05-02T15:19:18.279Z</time></trkpt><trkpt lat="42.171475" lon="13.2756983"><ele>800.25</ele><time>2026-05-02T15:19:19.279Z</time></trkpt><trkpt lat="42.1715883" lon="13.2757433"><ele>800.5</ele><time>2026-05-02T15:19:20.279Z</time></trkpt><trkpt lat="42.1717083" lon="13.2757983"><ele>800.75</ele><time>2026-05-02T15:19:21.279Z</time></trkpt><trkpt lat="42.1718217" lon="13.2758517"><ele>801.0</ele><time>2026-05-02T15:19:22.279Z</time></trkpt><trkpt lat="42.1719233" lon="13.2759083"><ele>801.0</ele><time>2026-05-02T15:19:23.279Z</time></trkpt><trkpt lat="42.1720283" lon="13.275965"><ele>801.0</ele><time>2026-05-02T15:19:24.279Z</time></trkpt><trkpt lat="42.172135" lon="13.276015"><ele>801.0</ele><time>2026-05-02T15:19:25.279Z</time></trkpt><trkpt lat="42.1722433" lon="13.2760583"><ele>801.0</ele><time>2026-05-02T15:19:26.279Z</time></trkpt><trkpt lat="42.1723533" lon="13.2761"><ele>801.1999999999999</ele><time>2026-05-02T15:19:27.279Z</time></trkpt><trkpt lat="42.1724483" lon="13.276145"><ele>801.4</ele><time>2026-05-02T15:19:28.279Z</time></trkpt><trkpt lat="42.1725383" lon="13.27619"><ele>801.6</ele><time>2026-05-02T15:19:29.279Z</time></trkpt><trkpt lat="42.1726283" lon="13.27623"><ele>801.8</ele><time>2026-05-02T15:19:30.279Z</time></trkpt><trkpt lat="42.172715" lon="13.27627"><ele>802.0</ele><time>2026-05-02T15:19:31.279Z</time></trkpt><trkpt lat="42.1728033" lon="13.2763117"><ele>802.0</ele><time>2026-05-02T15:19:32.279Z</time></trkpt><trkpt lat="42.1728717" lon="13.276335"><ele>802.0</ele><time>2026-05-02T15:19:33.279Z</time></trkpt><trkpt lat="42.17294" lon="13.2763567"><ele>802.0</ele><time>2026-05-02T15:19:34.279Z</time></trkpt><trkpt lat="42.1730083" lon="13.27637"><ele>802.0</ele><time>2026-05-02T15:19:35.28Z</time></trkpt><trkpt lat="42.173075" lon="13.276365"><ele>802.0</ele><time>2026-05-02T15:19:36.279Z</time></trkpt><trkpt lat="42.1731483" lon="13.2763683"><ele>802.0</ele><time>2026-05-02T15:19:37.279Z</time></trkpt><trkpt lat="42.1732133" lon="13.2763617"><ele>802.0</ele><time>2026-05-02T15:19:38.279Z</time></trkpt><trkpt lat="42.173285" lon="13.276335"><ele>803.6666666666666</ele><time>2026-05-02T15:19:39.279Z</time></trkpt><trkpt lat="42.1733567" lon="13.2763"><ele>805.3333333333333</ele><time>2026-05-02T15:19:40.279Z</time></trkpt><trkpt lat="42.1734217" lon="13.2762617"><ele>807.0</ele><time>2026-05-02T15:19:41.279Z</time></trkpt><trkpt lat="42.1734983" lon="13.2762183"><ele>808.6666666666667</ele><time>2026-05-02T15:19:42.279Z</time></trkpt><trkpt lat="42.1735817" lon="13.276195"><ele>810.3333333333334</ele><time>2026-05-02T15:19:43.279Z</time></trkpt><trkpt lat="42.173655" lon="13.2761667"><ele>812.0</ele><time>2026-05-02T15:19:44.279Z</time></trkpt><trkpt lat="42.1737467" lon="13.276135"><ele>812.0000000000001</ele><time>2026-05-02T15:19:45.279Z</time></trkpt><trkpt lat="42.1738217" lon="13.2761083"><ele>812.0</ele><time>2026-05-02T15:19:46.279Z</time></trkpt><trkpt lat="42.173895" lon="13.2760817"><ele>812.0</ele><time>2026-05-02T15:19:47.279Z</time></trkpt><trkpt lat="42.17396" lon="13.276075"><ele>812.0</ele><time>2026-05-02T15:19:48.279Z</time></trkpt><trkpt lat="42.1740233" lon="13.2760717"><ele>812.0000000000001</ele><time>2026-05-02T15:19:49.279Z</time></trkpt><trkpt lat="42.1741183" lon="13.276105"><ele>812.0</ele><time>2026-05-02T15:19:51.279Z</time></trkpt><trkpt lat="42.1742217" lon="13.2761667"><ele>814.75</ele><time>2026-05-02T15:19:53.279Z</time></trkpt><trkpt lat="42.174295" lon="13.27624"><ele>817.5</ele><time>2026-05-02T15:19:54.279Z</time></trkpt><trkpt lat="42.1743917" lon="13.2763367"><ele>820.25</ele><time>2026-05-02T15:19:55.279Z</time></trkpt><trkpt lat="42.17451" lon="13.2764333"><ele>823.0</ele><time>2026-05-02T15:19:56.279Z</time></trkpt><trkpt lat="42.17461" lon="13.276505"><ele>823.5</ele><time>2026-05-02T15:19:57.279Z</time></trkpt><trkpt lat="42.1747167" lon="13.2765617"><ele>824.0</ele><time>2026-05-02T15:19:58.279Z</time></trkpt><trkpt lat="42.1748233" lon="13.2765967"><ele>824.5</ele><time>2026-05-02T15:19:59.279Z</time></trkpt><trkpt lat="42.1749417" lon="13.27659"><ele>825.0</ele><time>2026-05-02T15:20:00.279Z</time></trkpt><trkpt lat="42.1750567" lon="13.2765483"><ele>825.8</ele><time>2026-05-02T15:20:01.279Z</time></trkpt><trkpt lat="42.17517" lon="13.27647"><ele>826.6</ele><time>2026-05-02T15:20:02.28Z</time></trkpt><trkpt lat="42.1752567" lon="13.2763817"><ele>827.4000000000001</ele><time>2026-05-02T15:20:03.279Z</time></trkpt><trkpt lat="42.1753233" lon="13.276265"><ele>828.2</ele><time>2026-05-02T15:20:04.279Z</time></trkpt><trkpt lat="42.17537" lon="13.2761667"><ele>829.0</ele><time>2026-05-02T15:20:05.279Z</time></trkpt><trkpt lat="42.1754167" lon="13.2760617"><ele>829.2</ele><time>2026-05-02T15:20:06.279Z</time></trkpt><trkpt lat="42.1754617" lon="13.2759533"><ele>829.4000000000001</ele><time>2026-05-02T15:20:07.279Z</time></trkpt><trkpt lat="42.17551" lon="13.2758283"><ele>829.6</ele><time>2026-05-02T15:20:08.279Z</time></trkpt><trkpt lat="42.1755783" lon="13.2757117"><ele>829.8</ele><time>2026-05-02T15:20:09.279Z</time></trkpt><trkpt lat="42.1756183" lon="13.2755917"><ele>830.0</ele><time>2026-05-02T15:20:10.279Z</time></trkpt><trkpt lat="42.175675" lon="13.27551"><ele>830.0</ele><time>2026-05-02T15:20:11.279Z</time></trkpt><trkpt lat="42.17574" lon="13.2754367"><ele>830.0</ele><time>2026-05-02T15:20:12.279Z</time></trkpt><trkpt lat="42.175825" lon="13.27539"><ele>830.0</ele><time>2026-05-02T15:20:13.279Z</time></trkpt><trkpt lat="42.17593" lon="13.2753517"><ele>830.0</ele><time>2026-05-02T15:20:14.279Z</time></trkpt><trkpt lat="42.1760483" lon="13.2753133"><ele>830.0</ele><time>2026-05-02T15:20:15.279Z</time></trkpt><trkpt lat="42.17617" lon="13.275275"><ele>830.0</ele><time>2026-05-02T15:20:16.28Z</time></trkpt><trkpt lat="42.1762833" lon="13.275245"><ele>830.0</ele><time>2026-05-02T15:20:17.279Z</time></trkpt><trkpt lat="42.1763917" lon="13.2752083"><ele>830.0</ele><time>2026-05-02T15:20:18.279Z</time></trkpt><trkpt lat="42.1764983" lon="13.2751733"><ele>830.0</ele><time>2026-05-02T15:20:19.279Z</time></trkpt><trkpt lat="42.1766" lon="13.2751433"><ele>830.0</ele><time>2026-05-02T15:20:20.279Z</time></trkpt><trkpt lat="42.1767067" lon="13.275115"><ele>828.4</ele><time>2026-05-02T15:20:21.279Z</time></trkpt><trkpt lat="42.17681" lon="13.2750783"><ele>826.8</ele><time>2026-05-02T15:20:22.279Z</time></trkpt><trkpt lat="42.1769033" lon="13.2750483"><ele>825.2</ele><time>2026-05-02T15:20:23.279Z</time></trkpt><trkpt lat="42.1770167" lon="13.275025"><ele>823.6</ele><time>2026-05-02T15:20:24.279Z</time></trkpt><trkpt lat="42.177085" lon="13.27499"><ele>822.0</ele><time>2026-05-02T15:20:25.279Z</time></trkpt><trkpt lat="42.177165" lon="13.2749617"><ele>822.0</ele><time>2026-05-02T15:20:26.279Z</time></trkpt><trkpt lat="42.1772483" lon="13.2749583"><ele>822.0</ele><time>2026-05-02T15:20:27.279Z</time></trkpt><trkpt lat="42.1773633" lon="13.275"><ele>822.0</ele><time>2026-05-02T15:20:29.279Z</time></trkpt><trkpt lat="42.1774267" lon="13.275"><ele>822.0</ele><time>2026-05-02T15:20:30.279Z</time></trkpt><trkpt lat="42.1774917" lon="13.2750083"><ele>822.0</ele><time>2026-05-02T15:20:31.279Z</time></trkpt><trkpt lat="42.1775433" lon="13.2750633"><ele>822.0</ele><time>2026-05-02T15:20:32.279Z</time></trkpt><trkpt lat="42.1775933" lon="13.2752017"><ele>821.6666666666666</ele><time>2026-05-02T15:20:34.279Z</time></trkpt><trkpt lat="42.1775983" lon="13.2752883"><ele>821.3333333333333</ele><time>2026-05-02T15:20:35.279Z</time></trkpt><trkpt lat="42.1775967" lon="13.27539"><ele>821.0</ele><time>2026-05-02T15:20:36.279Z</time></trkpt><trkpt lat="42.1775667" lon="13.275495"><ele>820.6666666666666</ele><time>2026-05-02T15:20:37.279Z</time></trkpt><trkpt lat="42.1775817" lon="13.27563"><ele>820.3333333333333</ele><time>2026-05-02T15:20:38.279Z</time></trkpt><trkpt lat="42.177595" lon="13.275755"><ele>820.0</ele><time>2026-05-02T15:20:39.279Z</time></trkpt><trkpt lat="42.1776183" lon="13.275865"><ele>819.9999999999999</ele><time>2026-05-02T15:20:40.279Z</time></trkpt><trkpt lat="42.1776517" lon="13.27596"><ele>820.0</ele><time>2026-05-02T15:20:41.279Z</time></trkpt><trkpt lat="42.1776683" lon="13.27605"><ele>820.0</ele><time>2026-05-02T15:20:42.279Z</time></trkpt><trkpt lat="42.1776733" lon="13.2761383"><ele>820.0</ele><time>2026-05-02T15:20:43.279Z</time></trkpt><trkpt lat="42.17768" lon="13.27624"><ele>819.9999999999999</ele><time>2026-05-02T15:20:44.279Z</time></trkpt><trkpt lat="42.1776833" lon="13.2763567"><ele>820.0</ele><time>2026-05-02T15:20:45.279Z</time></trkpt><trkpt lat="42.177675" lon="13.2764767"><ele>820.4</ele><time>2026-05-02T15:20:46.279Z</time></trkpt><trkpt lat="42.1776583" lon="13.2766033"><ele>820.8</ele><time>2026-05-02T15:20:47.28Z</time></trkpt><trkpt lat="42.17764" lon="13.2767233"><ele>821.2</ele><time>2026-05-02T15:20:48.28Z</time></trkpt><trkpt lat="42.1776283" lon="13.2768383"><ele>821.6</ele><time>2026-05-02T15:20:49.279Z</time></trkpt><trkpt lat="42.177615" lon="13.2769683"><ele>822.0</ele><time>2026-05-02T15:20:50.279Z</time></trkpt><trkpt lat="42.1776167" lon="13.2770983"><ele>822.0</ele><time>2026-05-02T15:20:51.279Z</time></trkpt><trkpt lat="42.1776133" lon="13.277245"><ele>822.0</ele><time>2026-05-02T15:20:52.28Z</time></trkpt><trkpt lat="42.1775917" lon="13.2774"><ele>822.0</ele><time>2026-05-02T15:20:53.279Z</time></trkpt><trkpt lat="42.1775767" lon="13.2775417"><ele>822.0</ele><time>2026-05-02T15:20:54.279Z</time></trkpt><trkpt lat="42.1775817" lon="13.2776717"><ele>822.0</ele><time>2026-05-02T15:20:55.279Z</time></trkpt><trkpt lat="42.1775667" lon="13.2777933"><ele>822.3333333333334</ele><time>2026-05-02T15:20:56.28Z</time></trkpt><trkpt lat="42.1775517" lon="13.2779083"><ele>822.6666666666667</ele><time>2026-05-02T15:20:57.279Z</time></trkpt><trkpt lat="42.1775283" lon="13.2780117"><ele>823.0</ele><time>2026-05-02T15:20:58.28Z</time></trkpt><trkpt lat="42.1775017" lon="13.27812"><ele>823.3333333333334</ele><time>2026-05-02T15:20:59.279Z</time></trkpt><trkpt lat="42.1774567" lon="13.278215"><ele>823.6666666666667</ele><time>2026-05-02T15:21:00.28Z</time></trkpt><trkpt lat="42.1773933" lon="13.27829"><ele>824.0</ele><time>2026-05-02T15:21:01.279Z</time></trkpt><trkpt lat="42.1773233" lon="13.2783667"><ele>825.5000000000001</ele><time>2026-05-02T15:21:02.279Z</time></trkpt><trkpt lat="42.1772617" lon="13.2784333"><ele>827.0</ele><time>2026-05-02T15:21:03.279Z</time></trkpt><trkpt lat="42.1772117" lon="13.2785217"><ele>828.5</ele><time>2026-05-02T15:21:04.279Z</time></trkpt><trkpt lat="42.1771683" lon="13.278615"><ele>830.0</ele><time>2026-05-02T15:21:05.279Z</time></trkpt><trkpt lat="42.17712" lon="13.2787267"><ele>831.5000000000001</ele><time>2026-05-02T15:21:06.28Z</time></trkpt><trkpt lat="42.1770767" lon="13.2788217"><ele>833.0</ele><time>2026-05-02T15:21:07.279Z</time></trkpt><trkpt lat="42.1770267" lon="13.2788833"><ele>833.4</ele><time>2026-05-02T15:21:08.279Z</time></trkpt><trkpt lat="42.176945" lon="13.278965"><ele>833.8</ele><time>2026-05-02T15:21:10.279Z</time></trkpt><trkpt lat="42.176945" lon="13.2790817"><ele>834.2</ele><time>2026-05-02T15:21:13.279Z</time></trkpt><trkpt lat="42.1770133" lon="13.279205"><ele>834.6</ele><time>2026-05-02T15:21:15.279Z</time></trkpt><trkpt lat="42.1770567" lon="13.279285"><ele>835.0</ele><time>2026-05-02T15:21:16.28Z</time></trkpt><trkpt lat="42.177105" lon="13.279375"><ele>835.0000000000001</ele><time>2026-05-02T15:21:17.279Z</time></trkpt><trkpt lat="42.177135" lon="13.279455"><ele>835.0</ele><time>2026-05-02T15:21:18.279Z</time></trkpt><trkpt lat="42.1771717" lon="13.2795483"><ele>835.0</ele><time>2026-05-02T15:21:19.279Z</time></trkpt><trkpt lat="42.1771933" lon="13.27963"><ele>835.0</ele><time>2026-05-02T15:21:20.279Z</time></trkpt><trkpt lat="42.1772217" lon="13.27971"><ele>835.0</ele><time>2026-05-02T15:21:21.279Z</time></trkpt><trkpt lat="42.1772633" lon="13.27979"><ele>835.0000000000001</ele><time>2026-05-02T15:21:22.279Z</time></trkpt><trkpt lat="42.17731" lon="13.2798817"><ele>835.0</ele><time>2026-05-02T15:21:23.279Z</time></trkpt><trkpt lat="42.177365" lon="13.2799833"><ele>835.2</ele><time>2026-05-02T15:21:24.279Z</time></trkpt><trkpt lat="42.177425" lon="13.2800817"><ele>835.4</ele><time>2026-05-02T15:21:25.279Z</time></trkpt><trkpt lat="42.177495" lon="13.2802067"><ele>835.5999999999999</ele><time>2026-05-02T15:21:26.279Z</time></trkpt><trkpt lat="42.1775567" lon="13.2803317"><ele>835.8</ele><time>2026-05-02T15:21:27.279Z</time></trkpt><trkpt lat="42.1776283" lon="13.2804567"><ele>836.0</ele><time>2026-05-02T15:21:28.279Z</time></trkpt><trkpt lat="42.177705" lon="13.280575"><ele>836.5999999999999</ele><time>2026-05-02T15:21:29.279Z</time></trkpt><trkpt lat="42.1777633" lon="13.2806933"><ele>837.2</ele><time>2026-05-02T15:21:30.279Z</time></trkpt><trkpt lat="42.1778217" lon="13.28082"><ele>837.8</ele><time>2026-05-02T15:21:31.279Z</time></trkpt><trkpt lat="42.17788" lon="13.2809367"><ele>838.4000000000001</ele><time>2026-05-02T15:21:32.279Z</time></trkpt><trkpt lat="42.177935" lon="13.2810433"><ele>839.0</ele><time>2026-05-02T15:21:33.279Z</time></trkpt><trkpt lat="42.1779767" lon="13.2811367"><ele>839.0000000000001</ele><time>2026-05-02T15:21:34.279Z</time></trkpt><trkpt lat="42.17803" lon="13.2812267"><ele>839.0</ele><time>2026-05-02T15:21:35.279Z</time></trkpt><trkpt lat="42.178055" lon="13.2813183"><ele>839.0</ele><time>2026-05-02T15:21:36.28Z</time></trkpt><trkpt lat="42.1780967" lon="13.2814033"><ele>839.0</ele><time>2026-05-02T15:21:37.279Z</time></trkpt><trkpt lat="42.178155" lon="13.2814733"><ele>839.0000000000001</ele><time>2026-05-02T15:21:38.279Z</time></trkpt><trkpt lat="42.1782067" lon="13.2815417"><ele>839.0</ele><time>2026-05-02T15:21:39.28Z</time></trkpt><trkpt lat="42.1782717" lon="13.2816083"><ele>839.4000000000001</ele><time>2026-05-02T15:21:40.279Z</time></trkpt><trkpt lat="42.1783467" lon="13.2816667"><ele>839.8</ele><time>2026-05-02T15:21:41.279Z</time></trkpt><trkpt lat="42.17841" lon="13.28172"><ele>840.2</ele><time>2026-05-02T15:21:42.279Z</time></trkpt><trkpt lat="42.1784883" lon="13.2817467"><ele>840.5999999999999</ele><time>2026-05-02T15:21:43.279Z</time></trkpt><trkpt lat="42.1785983" lon="13.2817867"><ele>841.0</ele><time>2026-05-02T15:21:45.279Z</time></trkpt><trkpt lat="42.17872" lon="13.2817617"><ele>841.0</ele><time>2026-05-02T15:21:47.279Z</time></trkpt><trkpt lat="42.1788417" lon="13.2816967"><ele>841.0</ele><time>2026-05-02T15:21:49.279Z</time></trkpt><trkpt lat="42.178915" lon="13.2816333"><ele>841.0</ele><time>2026-05-02T15:21:50.279Z</time></trkpt><trkpt lat="42.1789683" lon="13.2815867"><ele>841.0</ele><time>2026-05-02T15:21:51.279Z</time></trkpt><trkpt lat="42.1790517" lon="13.2815333"><ele>841.0</ele><time>2026-05-02T15:21:53.279Z</time></trkpt><trkpt lat="42.1791483" lon="13.2815417"><ele>839.5999999999999</ele><time>2026-05-02T15:21:55.28Z</time></trkpt><trkpt lat="42.1792167" lon="13.2816417"><ele>838.2</ele><time>2026-05-02T15:21:57.279Z</time></trkpt><trkpt lat="42.179265" lon="13.281745"><ele>836.8</ele><time>2026-05-02T15:21:59.279Z</time></trkpt><trkpt lat="42.1793217" lon="13.2817967"><ele>835.4000000000001</ele><time>2026-05-02T15:22:01.28Z</time></trkpt><trkpt lat="42.1793917" lon="13.2817517"><ele>834.0</ele><time>2026-05-02T15:22:03.279Z</time></trkpt><trkpt lat="42.1794563" lon="13.2816102"><ele>834.0</ele><time>2026-05-02T15:22:06.279Z</time></trkpt><trkpt lat="42.179494" lon="13.2815148"><ele>834.0</ele><time>2026-05-02T15:22:07.279Z</time></trkpt><trkpt lat="42.1795346" lon="13.2814445"><ele>834.0</ele><time>2026-05-02T15:22:08.279Z</time></trkpt><trkpt lat="42.179624" lon="13.2813145"><ele>834.0</ele><time>2026-05-02T15:22:10.279Z</time></trkpt><trkpt lat="42.1796711" lon="13.2812244"><ele>834.0</ele><time>2026-05-02T15:22:11.279Z</time></trkpt><trkpt lat="42.1797285" lon="13.2810985"><ele>832.6666666666667</ele><time>2026-05-02T15:22:12.279Z</time></trkpt><trkpt lat="42.1797918" lon="13.280933"><ele>831.3333333333334</ele><time>2026-05-02T15:22:13.28Z</time></trkpt><trkpt lat="42.1798714" lon="13.2807476"><ele>830.0</ele><time>2026-05-02T15:22:14.279Z</time></trkpt><trkpt lat="42.1799706" lon="13.280553"><ele>828.3333333333334</ele><time>2026-05-02T15:22:15.279Z</time></trkpt><trkpt lat="42.1800811" lon="13.2803552"><ele>826.6666666666667</ele><time>2026-05-02T15:22:16.279Z</time></trkpt><trkpt lat="42.1801947" lon="13.2801769"><ele>825.0</ele><time>2026-05-02T15:22:17.279Z</time></trkpt><trkpt lat="42.1803123" lon="13.2800268"><ele>825.0</ele><time>2026-05-02T15:22:18.28Z</time></trkpt><trkpt lat="42.1804273" lon="13.2799003"><ele>825.0</ele><time>2026-05-02T15:22:19.279Z</time></trkpt><trkpt lat="42.1805329" lon="13.2797972"><ele>825.0</ele><time>2026-05-02T15:22:20.279Z</time></trkpt><trkpt lat="42.1806282" lon="13.2797096"><ele>825.0</ele><time>2026-05-02T15:22:21.279Z</time></trkpt><trkpt lat="42.180701" lon="13.2796288"><ele>824.2</ele><time>2026-05-02T15:22:22.279Z</time></trkpt><trkpt lat="42.180746" lon="13.2795293"><ele>823.4</ele><time>2026-05-02T15:22:23.279Z</time></trkpt><trkpt lat="42.180758" lon="13.2794132"><ele>822.5999999999999</ele><time>2026-05-02T15:22:24.279Z</time></trkpt><trkpt lat="42.1807531" lon="13.2792994"><ele>821.8</ele><time>2026-05-02T15:22:25.279Z</time></trkpt><trkpt lat="42.180711" lon="13.2791614"><ele>821.0</ele><time>2026-05-02T15:22:26.279Z</time></trkpt><trkpt lat="42.1806594" lon="13.2790014"><ele>820.5</ele><time>2026-05-02T15:22:27.279Z</time></trkpt><trkpt lat="42.1806217" lon="13.278828"><ele>820.0</ele><time>2026-05-02T15:22:28.279Z</time></trkpt><trkpt lat="42.1806235" lon="13.2786386"><ele>819.5</ele><time>2026-05-02T15:22:29.279Z</time></trkpt><trkpt lat="42.180639" lon="13.2784316"><ele>819.0</ele><time>2026-05-02T15:22:30.279Z</time></trkpt><trkpt lat="42.1806631" lon="13.2782098"><ele>817.6666666666667</ele><time>2026-05-02T15:22:31.279Z</time></trkpt><trkpt lat="42.1806918" lon="13.277973"><ele>816.3333333333334</ele><time>2026-05-02T15:22:32.279Z</time></trkpt><trkpt lat="42.1807216" lon="13.2777326"><ele>815.0</ele><time>2026-05-02T15:22:33.279Z</time></trkpt><trkpt lat="42.1807565" lon="13.2775069"><ele>815.0</ele><time>2026-05-02T15:22:34.279Z</time></trkpt><trkpt lat="42.1807902" lon="13.2772889"><ele>815.0</ele><time>2026-05-02T15:22:35.28Z</time></trkpt><trkpt lat="42.1808222" lon="13.2770847"><ele>815.0</ele><time>2026-05-02T15:22:36.279Z</time></trkpt><trkpt lat="42.1808518" lon="13.2768957"><ele>814.5</ele><time>2026-05-02T15:22:37.28Z</time></trkpt><trkpt lat="42.1808814" lon="13.2767201"><ele>814.0</ele><time>2026-05-02T15:22:38.279Z</time></trkpt><trkpt lat="42.1809136" lon="13.2765557"><ele>813.5</ele><time>2026-05-02T15:22:39.279Z</time></trkpt><trkpt lat="42.1809363" lon="13.2763854"><ele>813.0</ele><time>2026-05-02T15:22:40.279Z</time></trkpt><trkpt lat="42.1809675" lon="13.2761986"><ele>812.3333333333333</ele><time>2026-05-02T15:22:41.28Z</time></trkpt><trkpt lat="42.1810029" lon="13.275997"><ele>811.6666666666666</ele><time>2026-05-02T15:22:42.279Z</time></trkpt><trkpt lat="42.1810445" lon="13.2757772"><ele>811.0</ele><time>2026-05-02T15:22:43.279Z</time></trkpt><trkpt lat="42.181095" lon="13.27556"><ele>810.5</ele><time>2026-05-02T15:22:44.279Z</time></trkpt><trkpt lat="42.1811333" lon="13.275355"><ele>810.0</ele><time>2026-05-02T15:22:45.279Z</time></trkpt><trkpt lat="42.1811667" lon="13.2751733"><ele>809.5</ele><time>2026-05-02T15:22:46.28Z</time></trkpt><trkpt lat="42.18121" lon="13.2750017"><ele>809.0</ele><time>2026-05-02T15:22:47.279Z</time></trkpt><trkpt lat="42.1812417" lon="13.2748317"><ele>808.2</ele><time>2026-05-02T15:22:48.279Z</time></trkpt><trkpt lat="42.181275" lon="13.274665"><ele>807.4000000000001</ele><time>2026-05-02T15:22:49.279Z</time></trkpt><trkpt lat="42.1813133" lon="13.2745167"><ele>806.6</ele><time>2026-05-02T15:22:50.279Z</time></trkpt><trkpt lat="42.1813333" lon="13.2743733"><ele>805.8</ele><time>2026-05-02T15:22:51.279Z</time></trkpt><trkpt lat="42.1813583" lon="13.2742517"><ele>805.0</ele><time>2026-05-02T15:22:52.279Z</time></trkpt><trkpt lat="42.1813817" lon="13.27414"><ele>804.9999999999999</ele><time>2026-05-02T15:22:53.279Z</time></trkpt><trkpt lat="42.1814017" lon="13.2740533"><ele>805.0</ele><time>2026-05-02T15:22:54.28Z</time></trkpt><trkpt lat="42.1814367" lon="13.2739267"><ele>805.0</ele><time>2026-05-02T15:22:56.279Z</time></trkpt><trkpt lat="42.181475" lon="13.2738567"><ele>805.0</ele><time>2026-05-02T15:22:58.279Z</time></trkpt><trkpt lat="42.181505" lon="13.2737567"><ele>804.9999999999999</ele><time>2026-05-02T15:23:00.279Z</time></trkpt><trkpt lat="42.1815417" lon="13.2736667"><ele>805.0</ele><time>2026-05-02T15:23:02.279Z</time></trkpt><trkpt lat="42.1816117" lon="13.2736217"><ele>804.6</ele><time>2026-05-02T15:23:03.279Z</time></trkpt><trkpt lat="42.18167" lon="13.273565"><ele>804.2</ele><time>2026-05-02T15:23:04.279Z</time></trkpt><trkpt lat="42.1817583" lon="13.2734867"><ele>803.8</ele><time>2026-05-02T15:23:05.279Z</time></trkpt><trkpt lat="42.1818217" lon="13.2733917"><ele>803.4</ele><time>2026-05-02T15:23:06.279Z</time></trkpt><trkpt lat="42.1818833" lon="13.2732867"><ele>803.0</ele><time>2026-05-02T15:23:07.279Z</time></trkpt><trkpt lat="42.1819417" lon="13.27319"><ele>802.8</ele><time>2026-05-02T15:23:08.279Z</time></trkpt><trkpt lat="42.1820083" lon="13.2730917"><ele>802.5999999999999</ele><time>2026-05-02T15:23:09.279Z</time></trkpt><trkpt lat="42.1820633" lon="13.2729933"><ele>802.4000000000001</ele><time>2026-05-02T15:23:10.279Z</time></trkpt><trkpt lat="42.18212" lon="13.2729017"><ele>802.2</ele><time>2026-05-02T15:23:11.28Z</time></trkpt><trkpt lat="42.182195" lon="13.2728017"><ele>802.0</ele><time>2026-05-02T15:23:12.279Z</time></trkpt><trkpt lat="42.182285" lon="13.2726917"><ele>801.4000000000001</ele><time>2026-05-02T15:23:13.279Z</time></trkpt><trkpt lat="42.1823717" lon="13.2726317"><ele>800.8000000000001</ele><time>2026-05-02T15:23:14.279Z</time></trkpt><trkpt lat="42.1824367" lon="13.2725683"><ele>800.2</ele><time>2026-05-02T15:23:15.28Z</time></trkpt><trkpt lat="42.1825017" lon="13.27249"><ele>799.6</ele><time>2026-05-02T15:23:16.279Z</time></trkpt><trkpt lat="42.1826033" lon="13.2723917"><ele>799.0</ele><time>2026-05-02T15:23:17.279Z</time></trkpt><trkpt lat="42.18266" lon="13.2722917"><ele>799.6</ele><time>2026-05-02T15:23:18.279Z</time></trkpt><trkpt lat="42.182725" lon="13.2721833"><ele>800.2</ele><time>2026-05-02T15:23:19.279Z</time></trkpt><trkpt lat="42.1828067" lon="13.2720633"><ele>800.8000000000001</ele><time>2026-05-02T15:23:20.279Z</time></trkpt><trkpt lat="42.1828783" lon="13.2719583"><ele>801.4000000000001</ele><time>2026-05-02T15:23:21.279Z</time></trkpt><trkpt lat="42.1829533" lon="13.2718467"><ele>802.0</ele><time>2026-05-02T15:23:22.279Z</time></trkpt><trkpt lat="42.1830217" lon="13.2717583"><ele>802.0</ele><time>2026-05-02T15:23:23.279Z</time></trkpt><trkpt lat="42.183075" lon="13.27166"><ele>802.0</ele><time>2026-05-02T15:23:24.279Z</time></trkpt><trkpt lat="42.183125" lon="13.2715617"><ele>802.0</ele><time>2026-05-02T15:23:25.28Z</time></trkpt><trkpt lat="42.1831667" lon="13.2714567"><ele>802.0</ele><time>2026-05-02T15:23:26.279Z</time></trkpt><trkpt lat="42.183185" lon="13.2713333"><ele>802.0</ele><time>2026-05-02T15:23:27.279Z</time></trkpt><trkpt lat="42.1832317" lon="13.2712233"><ele>801.6666666666666</ele><time>2026-05-02T15:23:28.279Z</time></trkpt><trkpt lat="42.1832817" lon="13.2711217"><ele>801.3333333333333</ele><time>2026-05-02T15:23:29.279Z</time></trkpt><trkpt lat="42.1833383" lon="13.27104"><ele>801.0</ele><time>2026-05-02T15:23:30.279Z</time></trkpt><trkpt lat="42.1834067" lon="13.2709783"><ele>800.6666666666667</ele><time>2026-05-02T15:23:31.279Z</time></trkpt><trkpt lat="42.1834667" lon="13.27093"><ele>800.3333333333334</ele><time>2026-05-02T15:23:32.279Z</time></trkpt><trkpt lat="42.1835333" lon="13.2709"><ele>800.0</ele><time>2026-05-02T15:23:33.279Z</time></trkpt><trkpt lat="42.1836017" lon="13.2708883"><ele>800.0</ele><time>2026-05-02T15:23:34.279Z</time></trkpt><trkpt lat="42.1837083" lon="13.270905"><ele>800.0</ele><time>2026-05-02T15:23:35.279Z</time></trkpt><trkpt lat="42.183805" lon="13.2709083"><ele>800.0</ele><time>2026-05-02T15:23:36.279Z</time></trkpt><trkpt lat="42.1839167" lon="13.27091"><ele>800.0</ele><time>2026-05-02T15:23:37.28Z</time></trkpt><trkpt lat="42.18402" lon="13.270905"><ele>800.0</ele><time>2026-05-02T15:23:38.279Z</time></trkpt><trkpt lat="42.184115" lon="13.2708933"><ele>800.0</ele><time>2026-05-02T15:23:39.279Z</time></trkpt><trkpt lat="42.1842167" lon="13.27089"><ele>800.0</ele><time>2026-05-02T15:23:40.279Z</time></trkpt><trkpt lat="42.1843267" lon="13.27087"><ele>800.0</ele><time>2026-05-02T15:23:41.279Z</time></trkpt><trkpt lat="42.1844083" lon="13.27082"><ele>800.0</ele><time>2026-05-02T15:23:42.279Z</time></trkpt><trkpt lat="42.1844933" lon="13.2707583"><ele>800.0</ele><time>2026-05-02T15:23:43.279Z</time></trkpt><trkpt lat="42.184585" lon="13.2706833"><ele>799.5</ele><time>2026-05-02T15:23:44.279Z</time></trkpt><trkpt lat="42.184695" lon="13.270605"><ele>799.0</ele><time>2026-05-02T15:23:45.279Z</time></trkpt><trkpt lat="42.1848083" lon="13.2705"><ele>798.5</ele><time>2026-05-02T15:23:46.279Z</time></trkpt><trkpt lat="42.1848983" lon="13.2703983"><ele>798.0</ele><time>2026-05-02T15:23:47.279Z</time></trkpt><trkpt lat="42.1849883" lon="13.2703117"><ele>798.8</ele><time>2026-05-02T15:23:48.279Z</time></trkpt><trkpt lat="42.1850817" lon="13.2702283"><ele>799.5999999999999</ele><time>2026-05-02T15:23:49.279Z</time></trkpt><trkpt lat="42.1851767" lon="13.2701433"><ele>800.4000000000001</ele><time>2026-05-02T15:23:50.279Z</time></trkpt><trkpt lat="42.1852667" lon="13.2700683"><ele>801.2</ele><time>2026-05-02T15:23:51.279Z</time></trkpt><trkpt lat="42.185365" lon="13.2699817"><ele>802.0</ele><time>2026-05-02T15:23:52.279Z</time></trkpt><trkpt lat="42.185485" lon="13.26989"><ele>802.0</ele><time>2026-05-02T15:23:53.279Z</time></trkpt><trkpt lat="42.1856167" lon="13.2698017"><ele>802.0</ele><time>2026-05-02T15:23:54.279Z</time></trkpt><trkpt lat="42.1857267" lon="13.269715"><ele>802.0</ele><time>2026-05-02T15:23:55.279Z</time></trkpt><trkpt lat="42.1858467" lon="13.26964"><ele>802.0</ele><time>2026-05-02T15:23:56.28Z</time></trkpt><trkpt lat="42.185955" lon="13.26957"><ele>802.2</ele><time>2026-05-02T15:23:57.279Z</time></trkpt><trkpt lat="42.1860683" lon="13.2695017"><ele>802.4000000000001</ele><time>2026-05-02T15:23:58.279Z</time></trkpt><trkpt lat="42.1861717" lon="13.2694317"><ele>802.5999999999999</ele><time>2026-05-02T15:23:59.28Z</time></trkpt><trkpt lat="42.1862667" lon="13.2693667"><ele>802.8</ele><time>2026-05-02T15:24:00.279Z</time></trkpt><trkpt lat="42.1863517" lon="13.269305"><ele>803.0</ele><time>2026-05-02T15:24:01.279Z</time></trkpt><trkpt lat="42.186455" lon="13.2692483"><ele>803.0</ele><time>2026-05-02T15:24:02.279Z</time></trkpt><trkpt lat="42.1865467" lon="13.2691917"><ele>803.0</ele><time>2026-05-02T15:24:03.279Z</time></trkpt><trkpt lat="42.186655" lon="13.2691383"><ele>803.0</ele><time>2026-05-02T15:24:04.279Z</time></trkpt><trkpt lat="42.1867633" lon="13.2690783"><ele>803.0</ele><time>2026-05-02T15:24:05.279Z</time></trkpt><trkpt lat="42.186855" lon="13.26901"><ele>803.0</ele><time>2026-05-02T15:24:06.279Z</time></trkpt><trkpt lat="42.1869517" lon="13.2689367"><ele>802.8</ele><time>2026-05-02T15:24:07.28Z</time></trkpt><trkpt lat="42.1870467" lon="13.26884"><ele>802.5999999999999</ele><time>2026-05-02T15:24:08.279Z</time></trkpt><trkpt lat="42.1871233" lon="13.2687567"><ele>802.4000000000001</ele><time>2026-05-02T15:24:09.279Z</time></trkpt><trkpt lat="42.18721" lon="13.268685"><ele>802.2</ele><time>2026-05-02T15:24:10.279Z</time></trkpt><trkpt lat="42.187295" lon="13.2686017"><ele>802.0</ele><time>2026-05-02T15:24:11.279Z</time></trkpt><trkpt lat="42.1873933" lon="13.2685267"><ele>802.0</ele><time>2026-05-02T15:24:12.279Z</time></trkpt><trkpt lat="42.1874883" lon="13.2684517"><ele>802.0</ele><time>2026-05-02T15:24:13.279Z</time></trkpt><trkpt lat="42.187585" lon="13.2683817"><ele>802.0</ele><time>2026-05-02T15:24:14.279Z</time></trkpt><trkpt lat="42.1876917" lon="13.26829"><ele>802.0</ele><time>2026-05-02T15:24:15.279Z</time></trkpt><trkpt lat="42.18778" lon="13.2682133"><ele>801.9999999999999</ele><time>2026-05-02T15:24:16.279Z</time></trkpt><trkpt lat="42.1878733" lon="13.26814"><ele>802.0</ele><time>2026-05-02T15:24:17.279Z</time></trkpt><trkpt lat="42.1879567" lon="13.2680733"><ele>802.0</ele><time>2026-05-02T15:24:18.279Z</time></trkpt><trkpt lat="42.1880317" lon="13.2680133"><ele>802.0</ele><time>2026-05-02T15:24:19.279Z</time></trkpt><trkpt lat="42.18809" lon="13.267955"><ele>801.9999999999999</ele><time>2026-05-02T15:24:20.279Z</time></trkpt><trkpt lat="42.1881483" lon="13.2679033"><ele>802.0</ele><time>2026-05-02T15:24:21.279Z</time></trkpt><trkpt lat="42.18821" lon="13.26787"><ele>802.6</ele><time>2026-05-02T15:24:22.28Z</time></trkpt><trkpt lat="42.188285" lon="13.267845"><ele>803.2</ele><time>2026-05-02T15:24:23.279Z</time></trkpt><trkpt lat="42.1883733" lon="13.2678183"><ele>803.8</ele><time>2026-05-02T15:24:24.279Z</time></trkpt><trkpt lat="42.1884867" lon="13.2677767"><ele>804.4</ele><time>2026-05-02T15:24:25.28Z</time></trkpt><trkpt lat="42.188585" lon="13.2677483"><ele>805.0</ele><time>2026-05-02T15:24:26.279Z</time></trkpt><trkpt lat="42.1886817" lon="13.2677067"><ele>805.0</ele><time>2026-05-02T15:24:27.279Z</time></trkpt><trkpt lat="42.188775" lon="13.2676717"><ele>805.0</ele><time>2026-05-02T15:24:28.28Z</time></trkpt><trkpt lat="42.1888717" lon="13.2676167"><ele>805.0</ele><time>2026-05-02T15:24:29.279Z</time></trkpt><trkpt lat="42.1889617" lon="13.2675483"><ele>805.0</ele><time>2026-05-02T15:24:30.279Z</time></trkpt><trkpt lat="42.18904" lon="13.2674833"><ele>805.0</ele><time>2026-05-02T15:24:31.279Z</time></trkpt><trkpt lat="42.1891167" lon="13.26742"><ele>805.2</ele><time>2026-05-02T15:24:32.279Z</time></trkpt><trkpt lat="42.1891983" lon="13.2673617"><ele>805.4</ele><time>2026-05-02T15:24:33.279Z</time></trkpt><trkpt lat="42.1892917" lon="13.2672933"><ele>805.5999999999999</ele><time>2026-05-02T15:24:34.279Z</time></trkpt><trkpt lat="42.1893883" lon="13.2672117"><ele>805.8</ele><time>2026-05-02T15:24:35.279Z</time></trkpt><trkpt lat="42.1894783" lon="13.267125"><ele>806.0</ele><time>2026-05-02T15:24:36.279Z</time></trkpt><trkpt lat="42.1895683" lon="13.2670383"><ele>805.5999999999999</ele><time>2026-05-02T15:24:37.279Z</time></trkpt><trkpt lat="42.1896567" lon="13.26695"><ele>805.2</ele><time>2026-05-02T15:24:38.279Z</time></trkpt><trkpt lat="42.1897467" lon="13.26686"><ele>804.8</ele><time>2026-05-02T15:24:39.279Z</time></trkpt><trkpt lat="42.1898283" lon="13.2667817"><ele>804.4000000000001</ele><time>2026-05-02T15:24:40.279Z</time></trkpt><trkpt lat="42.1899033" lon="13.26672"><ele>804.0</ele><time>2026-05-02T15:24:41.279Z</time></trkpt><trkpt lat="42.1899817" lon="13.26666"><ele>804.4000000000001</ele><time>2026-05-02T15:24:42.279Z</time></trkpt><trkpt lat="42.19007" lon="13.2666033"><ele>804.8</ele><time>2026-05-02T15:24:43.28Z</time></trkpt><trkpt lat="42.1901533" lon="13.2665533"><ele>805.2</ele><time>2026-05-02T15:24:44.279Z</time></trkpt><trkpt lat="42.190235" lon="13.266515"><ele>805.5999999999999</ele><time>2026-05-02T15:24:45.279Z</time></trkpt><trkpt lat="42.1903017" lon="13.2664667"><ele>806.0</ele><time>2026-05-02T15:24:46.279Z</time></trkpt><trkpt lat="42.1903883" lon="13.2664"><ele>806.0</ele><time>2026-05-02T15:24:47.279Z</time></trkpt><trkpt lat="42.190445" lon="13.2663217"><ele>806.0</ele><time>2026-05-02T15:24:48.279Z</time></trkpt><trkpt lat="42.190515" lon="13.2662383"><ele>806.0</ele><time>2026-05-02T15:24:49.279Z</time></trkpt><trkpt lat="42.1905967" lon="13.26615"><ele>806.0</ele><time>2026-05-02T15:24:50.279Z</time></trkpt><trkpt lat="42.1906817" lon="13.2660717"><ele>806.0</ele><time>2026-05-02T15:24:51.279Z</time></trkpt><trkpt lat="42.190765" lon="13.265995"><ele>806.1999999999999</ele><time>2026-05-02T15:24:52.279Z</time></trkpt><trkpt lat="42.1908483" lon="13.2659"><ele>806.4</ele><time>2026-05-02T15:24:53.279Z</time></trkpt><trkpt lat="42.1909233" lon="13.265795"><ele>806.6</ele><time>2026-05-02T15:24:54.28Z</time></trkpt><trkpt lat="42.1909933" lon="13.2656983"><ele>806.8</ele><time>2026-05-02T15:24:55.279Z</time></trkpt><trkpt lat="42.191065" lon="13.2656017"><ele>807.0</ele><time>2026-05-02T15:24:56.279Z</time></trkpt><trkpt lat="42.1911317" lon="13.26551"><ele>807.0</ele><time>2026-05-02T15:24:57.279Z</time></trkpt><trkpt lat="42.1912083" lon="13.2654317"><ele>807.0</ele><time>2026-05-02T15:24:58.279Z</time></trkpt><trkpt lat="42.1912867" lon="13.26534"><ele>807.0</ele><time>2026-05-02T15:24:59.279Z</time></trkpt><trkpt lat="42.1913667" lon="13.26525"><ele>807.0</ele><time>2026-05-02T15:25:00.279Z</time></trkpt><trkpt lat="42.191445" lon="13.2651517"><ele>807.0</ele><time>2026-05-02T15:25:01.279Z</time></trkpt><trkpt lat="42.1914917" lon="13.2650583"><ele>807.4000000000001</ele><time>2026-05-02T15:25:02.279Z</time></trkpt><trkpt lat="42.191565" lon="13.2649317"><ele>807.8000000000001</ele><time>2026-05-02T15:25:03.279Z</time></trkpt><trkpt lat="42.1916233" lon="13.2648233"><ele>808.2</ele><time>2026-05-02T15:25:04.279Z</time></trkpt><trkpt lat="42.1916883" lon="13.2647317"><ele>808.6</ele><time>2026-05-02T15:25:05.279Z</time></trkpt><trkpt lat="42.1917567" lon="13.2646633"><ele>809.0</ele><time>2026-05-02T15:25:06.28Z</time></trkpt><trkpt lat="42.1918467" lon="13.264595"><ele>809.0</ele><time>2026-05-02T15:25:07.279Z</time></trkpt><trkpt lat="42.1919367" lon="13.2645233"><ele>809.0</ele><time>2026-05-02T15:25:08.279Z</time></trkpt><trkpt lat="42.1920267" lon="13.2644633"><ele>809.0</ele><time>2026-05-02T15:25:09.279Z</time></trkpt><trkpt lat="42.192125" lon="13.2644017"><ele>809.0</ele><time>2026-05-02T15:25:10.279Z</time></trkpt><trkpt lat="42.1922333" lon="13.2643517"><ele>809.0</ele><time>2026-05-02T15:25:11.279Z</time></trkpt><trkpt lat="42.1923233" lon="13.264305"><ele>809.8000000000001</ele><time>2026-05-02T15:25:12.28Z</time></trkpt><trkpt lat="42.1924367" lon="13.264255"><ele>810.6</ele><time>2026-05-02T15:25:13.279Z</time></trkpt><trkpt lat="42.1925367" lon="13.26421"><ele>811.4</ele><time>2026-05-02T15:25:14.279Z</time></trkpt><trkpt lat="42.1926383" lon="13.264155"><ele>812.2</ele><time>2026-05-02T15:25:15.279Z</time></trkpt><trkpt lat="42.1927367" lon="13.2640933"><ele>813.0</ele><time>2026-05-02T15:25:16.279Z</time></trkpt><trkpt lat="42.1928333" lon="13.2640383"><ele>813.0</ele><time>2026-05-02T15:25:17.279Z</time></trkpt><trkpt lat="42.1929333" lon="13.2639783"><ele>813.0</ele><time>2026-05-02T15:25:18.279Z</time></trkpt><trkpt lat="42.19304" lon="13.2639217"><ele>813.0</ele><time>2026-05-02T15:25:19.279Z</time></trkpt><trkpt lat="42.1931367" lon="13.2638733"><ele>813.0</ele><time>2026-05-02T15:25:20.28Z</time></trkpt><trkpt lat="42.19323" lon="13.2638083"><ele>813.0</ele><time>2026-05-02T15:25:21.279Z</time></trkpt><trkpt lat="42.1933533" lon="13.2637433"><ele>813.25</ele><time>2026-05-02T15:25:22.279Z</time></trkpt><trkpt lat="42.1934783" lon="13.2636517"><ele>813.5</ele><time>2026-05-02T15:25:23.279Z</time></trkpt><trkpt lat="42.1935867" lon="13.2635533"><ele>813.75</ele><time>2026-05-02T15:25:24.279Z</time></trkpt><trkpt lat="42.1937067" lon="13.2634417"><ele>814.0</ele><time>2026-05-02T15:25:25.279Z</time></trkpt><trkpt lat="42.1938183" lon="13.2633417"><ele>814.0</ele><time>2026-05-02T15:25:26.28Z</time></trkpt><trkpt lat="42.1939217" lon="13.26325"><ele>814.0</ele><time>2026-05-02T15:25:27.279Z</time></trkpt><trkpt lat="42.19402" lon="13.26317"><ele>814.0</ele><time>2026-05-02T15:25:28.279Z</time></trkpt><trkpt lat="42.1941083" lon="13.2630983"><ele>814.0</ele><time>2026-05-02T15:25:29.279Z</time></trkpt><trkpt lat="42.194195" lon="13.2630267"><ele>814.0</ele><time>2026-05-02T15:25:30.279Z</time></trkpt><trkpt lat="42.1942767" lon="13.262975"><ele>814.2</ele><time>2026-05-02T15:25:31.279Z</time></trkpt><trkpt lat="42.19437" lon="13.26295"><ele>814.4000000000001</ele><time>2026-05-02T15:25:32.279Z</time></trkpt><trkpt lat="42.19445" lon="13.2629383"><ele>814.6</ele><time>2026-05-02T15:25:33.279Z</time></trkpt><trkpt lat="42.1945433" lon="13.2629217"><ele>814.8</ele><time>2026-05-02T15:25:34.28Z</time></trkpt><trkpt lat="42.1946467" lon="13.2628917"><ele>815.0</ele><time>2026-05-02T15:25:35.279Z</time></trkpt><trkpt lat="42.19475" lon="13.2628533"><ele>815.0</ele><time>2026-05-02T15:25:36.279Z</time></trkpt><trkpt lat="42.19485" lon="13.2628233"><ele>815.0</ele><time>2026-05-02T15:25:37.279Z</time></trkpt><trkpt lat="42.1949367" lon="13.26281"><ele>815.0</ele><time>2026-05-02T15:25:38.279Z</time></trkpt><trkpt lat="42.1950283" lon="13.2628167"><ele>815.0</ele><time>2026-05-02T15:25:39.279Z</time></trkpt><trkpt lat="42.1951167" lon="13.2628567"><ele>815.0</ele><time>2026-05-02T15:25:40.279Z</time></trkpt><trkpt lat="42.195195" lon="13.2628933"><ele>815.0</ele><time>2026-05-02T15:25:41.279Z</time></trkpt><trkpt lat="42.19527" lon="13.2629383"><ele>815.0</ele><time>2026-05-02T15:25:42.279Z</time></trkpt><trkpt lat="42.1953317" lon="13.2629633"><ele>815.0</ele><time>2026-05-02T15:25:43.279Z</time></trkpt><trkpt lat="42.19544" lon="13.2629567"><ele>815.0</ele><time>2026-05-02T15:25:45.279Z</time></trkpt><trkpt lat="42.195505" lon="13.2629183"><ele>815.0</ele><time>2026-05-02T15:25:46.279Z</time></trkpt><trkpt lat="42.1956" lon="13.262795"><ele>815.0</ele><time>2026-05-02T15:25:48.279Z</time></trkpt><trkpt lat="42.195625" lon="13.2627"><ele>815.0</ele><time>2026-05-02T15:25:49.279Z</time></trkpt><trkpt lat="42.1956833" lon="13.26257"><ele>815.0</ele><time>2026-05-02T15:25:50.279Z</time></trkpt><trkpt lat="42.1957333" lon="13.2624283"><ele>815.0</ele><time>2026-05-02T15:25:51.279Z</time></trkpt><trkpt lat="42.195775" lon="13.26229"><ele>815.0</ele><time>2026-05-02T15:25:52.279Z</time></trkpt><trkpt lat="42.1958183" lon="13.2621567"><ele>815.0</ele><time>2026-05-02T15:25:53.279Z</time></trkpt><trkpt lat="42.1958717" lon="13.2620183"><ele>815.0</ele><time>2026-05-02T15:25:54.279Z</time></trkpt><trkpt lat="42.195925" lon="13.261885"><ele>815.0</ele><time>2026-05-02T15:25:55.279Z</time></trkpt><trkpt lat="42.1959733" lon="13.2617433"><ele>815.0</ele><time>2026-05-02T15:25:56.279Z</time></trkpt><trkpt lat="42.1960167" lon="13.2616017"><ele>815.0</ele><time>2026-05-02T15:25:57.279Z</time></trkpt><trkpt lat="42.1960533" lon="13.261465"><ele>815.0</ele><time>2026-05-02T15:25:58.279Z</time></trkpt><trkpt lat="42.196085" lon="13.2613367"><ele>815.0</ele><time>2026-05-02T15:25:59.28Z</time></trkpt><trkpt lat="42.1961583" lon="13.2611917"><ele>815.0</ele><time>2026-05-02T15:26:00.279Z</time></trkpt><trkpt lat="42.1961833" lon="13.2610733"><ele>815.0</ele><time>2026-05-02T15:26:01.279Z</time></trkpt><trkpt lat="42.1962367" lon="13.2609383"><ele>814.8</ele><time>2026-05-02T15:26:02.279Z</time></trkpt><trkpt lat="42.1962683" lon="13.2607817"><ele>814.6</ele><time>2026-05-02T15:26:03.279Z</time></trkpt><trkpt lat="42.1962717" lon="13.2606717"><ele>814.4000000000001</ele><time>2026-05-02T15:26:04.28Z</time></trkpt><trkpt lat="42.1962783" lon="13.26056"><ele>814.2</ele><time>2026-05-02T15:26:05.28Z</time></trkpt><trkpt lat="42.1963183" lon="13.2604783"><ele>814.0</ele><time>2026-05-02T15:26:06.279Z</time></trkpt><trkpt lat="42.19639" lon="13.2603767"><ele>813.0</ele><time>2026-05-02T15:26:08.279Z</time></trkpt><trkpt lat="42.1965083" lon="13.2603433"><ele>812.0</ele><time>2026-05-02T15:26:10.279Z</time></trkpt><trkpt lat="42.196585" lon="13.2603317"><ele>811.0</ele><time>2026-05-02T15:26:11.28Z</time></trkpt><trkpt lat="42.1966733" lon="13.26033"><ele>810.0</ele><time>2026-05-02T15:26:12.279Z</time></trkpt><trkpt lat="42.196755" lon="13.2603333"><ele>809.0</ele><time>2026-05-02T15:26:13.279Z</time></trkpt><trkpt lat="42.1968367" lon="13.2603267"><ele>809.0</ele><time>2026-05-02T15:26:14.279Z</time></trkpt><trkpt lat="42.19693" lon="13.2603033"><ele>809.0</ele><time>2026-05-02T15:26:15.279Z</time></trkpt><trkpt lat="42.1970217" lon="13.26027"><ele>809.0</ele><time>2026-05-02T15:26:16.279Z</time></trkpt><trkpt lat="42.197115" lon="13.26024"><ele>809.0</ele><time>2026-05-02T15:26:17.279Z</time></trkpt><trkpt lat="42.197205" lon="13.2602083"><ele>809.0</ele><time>2026-05-02T15:26:18.279Z</time></trkpt><trkpt lat="42.1972917" lon="13.26017"><ele>809.4000000000001</ele><time>2026-05-02T15:26:19.279Z</time></trkpt><trkpt lat="42.1973883" lon="13.2601167"><ele>809.8</ele><time>2026-05-02T15:26:20.279Z</time></trkpt><trkpt lat="42.1974933" lon="13.2600533"><ele>810.2</ele><time>2026-05-02T15:26:21.28Z</time></trkpt><trkpt lat="42.1975867" lon="13.259985"><ele>810.5999999999999</ele><time>2026-05-02T15:26:22.279Z</time></trkpt><trkpt lat="42.1976867" lon="13.259905"><ele>811.0</ele><time>2026-05-02T15:26:23.279Z</time></trkpt><trkpt lat="42.1977733" lon="13.2598267"><ele>811.4</ele><time>2026-05-02T15:26:24.279Z</time></trkpt><trkpt lat="42.1978567" lon="13.2597367"><ele>811.8</ele><time>2026-05-02T15:26:25.279Z</time></trkpt><trkpt lat="42.19797" lon="13.2596333"><ele>812.1999999999999</ele><time>2026-05-02T15:26:26.28Z</time></trkpt><trkpt lat="42.198055" lon="13.2595583"><ele>812.5999999999999</ele><time>2026-05-02T15:26:27.279Z</time></trkpt><trkpt lat="42.1981217" lon="13.2594933"><ele>813.0</ele><time>2026-05-02T15:26:28.279Z</time></trkpt><trkpt lat="42.1981867" lon="13.2594333"><ele>813.0</ele><time>2026-05-02T15:26:29.279Z</time></trkpt><trkpt lat="42.1982667" lon="13.25938"><ele>813.0</ele><time>2026-05-02T15:26:31.279Z</time></trkpt><trkpt lat="42.1983833" lon="13.259365"><ele>813.0</ele><time>2026-05-02T15:26:33.279Z</time></trkpt><trkpt lat="42.19845" lon="13.2593933"><ele>813.0</ele><time>2026-05-02T15:26:34.279Z</time></trkpt><trkpt lat="42.1985367" lon="13.259405"><ele>813.0</ele><time>2026-05-02T15:26:35.279Z</time></trkpt><trkpt lat="42.1986333" lon="13.25938"><ele>813.0</ele><time>2026-05-02T15:26:36.279Z</time></trkpt><trkpt lat="42.19874" lon="13.2593367"><ele>813.0</ele><time>2026-05-02T15:26:37.278Z</time></trkpt><trkpt lat="42.1988417" lon="13.259275"><ele>813.0</ele><time>2026-05-02T15:26:38.278Z</time></trkpt><trkpt lat="42.1989533" lon="13.2592067"><ele>813.0</ele><time>2026-05-02T15:26:39.278Z</time></trkpt><trkpt lat="42.199065" lon="13.259135"><ele>813.5999999999999</ele><time>2026-05-02T15:26:40.278Z</time></trkpt><trkpt lat="42.1991783" lon="13.2590717"><ele>814.1999999999999</ele><time>2026-05-02T15:26:41.278Z</time></trkpt><trkpt lat="42.19927" lon="13.2590183"><ele>814.8</ele><time>2026-05-02T15:26:42.278Z</time></trkpt><trkpt lat="42.199355" lon="13.25899"><ele>815.4</ele><time>2026-05-02T15:26:43.279Z</time></trkpt><trkpt lat="42.1994417" lon="13.2589917"><ele>816.0</ele><time>2026-05-02T15:26:44.277Z</time></trkpt><trkpt lat="42.1995383" lon="13.2590117"><ele>816.0</ele><time>2026-05-02T15:26:45.278Z</time></trkpt><trkpt lat="42.19964" lon="13.259055"><ele>816.0</ele><time>2026-05-02T15:26:46.279Z</time></trkpt><trkpt lat="42.1997133" lon="13.2590967"><ele>816.0</ele><time>2026-05-02T15:26:47.278Z</time></trkpt><trkpt lat="42.1997733" lon="13.2591383"><ele>816.0</ele><time>2026-05-02T15:26:48.279Z</time></trkpt><trkpt lat="42.1998367" lon="13.25921"><ele>816.0</ele><time>2026-05-02T15:26:50.278Z</time></trkpt><trkpt lat="42.1999067" lon="13.2591567"><ele>816.0</ele><time>2026-05-02T15:26:58.278Z</time></trkpt><trkpt lat="42.19992" lon="13.2590733"><ele>815.8333333333334</ele><time>2026-05-02T15:26:59.279Z</time></trkpt><trkpt lat="42.1999217" lon="13.2589867"><ele>815.6666666666667</ele><time>2026-05-02T15:27:00.278Z</time></trkpt><trkpt lat="42.1998883" lon="13.25889"><ele>815.5</ele><time>2026-05-02T15:27:01.278Z</time></trkpt><trkpt lat="42.1998467" lon="13.25877"><ele>815.3333333333334</ele><time>2026-05-02T15:27:02.278Z</time></trkpt><trkpt lat="42.1998067" lon="13.2586467"><ele>815.1666666666667</ele><time>2026-05-02T15:27:03.279Z</time></trkpt><trkpt lat="42.19977" lon="13.2585267"><ele>815.0</ele><time>2026-05-02T15:27:04.278Z</time></trkpt><trkpt lat="42.199735" lon="13.2584133"><ele>815.0000000000001</ele><time>2026-05-02T15:27:05.279Z</time></trkpt><trkpt lat="42.19971" lon="13.2583067"><ele>815.0</ele><time>2026-05-02T15:27:06.278Z</time></trkpt><trkpt lat="42.1996867" lon="13.258225"><ele>815.0</ele><time>2026-05-02T15:27:07.278Z</time></trkpt><trkpt lat="42.1996467" lon="13.25812"><ele>815.0</ele><time>2026-05-02T15:27:09.278Z</time></trkpt><trkpt lat="42.1996017" lon="13.2580233"><ele>815.0000000000001</ele><time>2026-05-02T15:27:11.278Z</time></trkpt><trkpt lat="42.19963" lon="13.257935"><ele>815.0</ele><time>2026-05-02T15:27:17.279Z</time></trkpt><trkpt lat="42.1996233" lon="13.2578317"><ele>815.3333333333334</ele><time>2026-05-02T15:27:33.278Z</time></trkpt><trkpt lat="42.1996267" lon="13.25773"><ele>815.6666666666667</ele><time>2026-05-02T15:27:37.278Z</time></trkpt><trkpt lat="42.1996767" lon="13.2576467"><ele>816.0</ele><time>2026-05-02T15:27:39.278Z</time></trkpt><trkpt lat="42.1997167" lon="13.2575383"><ele>816.3333333333333</ele><time>2026-05-02T15:27:41.279Z</time></trkpt><trkpt lat="42.1997567" lon="13.257435"><ele>816.6666666666666</ele><time>2026-05-02T15:27:43.278Z</time></trkpt><trkpt lat="42.1997867" lon="13.2573317"><ele>817.0</ele><time>2026-05-02T15:27:45.278Z</time></trkpt><trkpt lat="42.1998283" lon="13.2572567"><ele>818.0</ele><time>2026-05-02T15:27:47.278Z</time></trkpt><trkpt lat="42.19984" lon="13.25703"><ele>819.0</ele><time>2026-05-02T15:27:53.278Z</time></trkpt><trkpt lat="42.1997917" lon="13.2569617"><ele>820.0</ele><time>2026-05-02T15:27:54.278Z</time></trkpt><trkpt lat="42.199735" lon="13.2568917"><ele>821.0</ele><time>2026-05-02T15:27:55.279Z</time></trkpt><trkpt lat="42.1996717" lon="13.2567883"><ele>822.0</ele><time>2026-05-02T15:27:57.278Z</time></trkpt><trkpt lat="42.1996467" lon="13.2567"><ele>822.0</ele><time>2026-05-02T15:27:59.278Z</time></trkpt><trkpt lat="42.1996983" lon="13.25665"><ele>822.0</ele><time>2026-05-02T15:28:01.278Z</time></trkpt><trkpt lat="42.1998017" lon="13.2567083"><ele>822.0</ele><time>2026-05-02T15:28:03.278Z</time></trkpt><trkpt lat="42.1998567" lon="13.2567633"><ele>822.0</ele><time>2026-05-02T15:28:04.278Z</time></trkpt><trkpt lat="42.1999167" lon="13.2568267"><ele>822.0</ele><time>2026-05-02T15:28:05.278Z</time></trkpt><trkpt lat="42.1999833" lon="13.256865"><ele>822.0</ele><time>2026-05-02T15:28:06.279Z</time></trkpt><trkpt lat="42.200075" lon="13.2568983"><ele>825.0</ele><time>2026-05-02T15:28:07.278Z</time></trkpt><trkpt lat="42.2001717" lon="13.2569233"><ele>828.0</ele><time>2026-05-02T15:28:08.278Z</time></trkpt><trkpt lat="42.2002733" lon="13.2569417"><ele>831.0</ele><time>2026-05-02T15:28:09.278Z</time></trkpt><trkpt lat="42.2003767" lon="13.2569583"><ele>834.0</ele><time>2026-05-02T15:28:10.278Z</time></trkpt><trkpt lat="42.2004817" lon="13.2569583"><ele>837.0</ele><time>2026-05-02T15:28:11.278Z</time></trkpt><trkpt lat="42.2005817" lon="13.2569733"><ele>839.6666666666666</ele><time>2026-05-02T15:28:12.278Z</time></trkpt><trkpt lat="42.2006767" lon="13.2569983"><ele>842.3333333333333</ele><time>2026-05-02T15:28:13.278Z</time></trkpt><trkpt lat="42.2007683" lon="13.257015"><ele>845.0</ele><time>2026-05-02T15:28:14.278Z</time></trkpt><trkpt lat="42.2008533" lon="13.2570217"><ele>847.6666666666666</ele><time>2026-05-02T15:28:15.278Z</time></trkpt><trkpt lat="42.2009217" lon="13.25705"><ele>850.3333333333333</ele><time>2026-05-02T15:28:17.278Z</time></trkpt><trkpt lat="42.2009533" lon="13.2569683"><ele>853.0</ele><time>2026-05-02T15:28:28.278Z</time></trkpt><trkpt lat="42.200905" lon="13.2569083"><ele>853.0</ele><time>2026-05-02T15:28:30.278Z</time></trkpt><trkpt lat="42.2010317" lon="13.256835"><ele>853.0</ele><time>2026-05-02T15:28:35.279Z</time></trkpt><trkpt lat="42.2011517" lon="13.25683"><ele>853.0</ele><time>2026-05-02T15:28:37.278Z</time></trkpt><trkpt lat="42.201215" lon="13.2568267"><ele>853.0</ele><time>2026-05-02T15:28:38.278Z</time></trkpt><trkpt lat="42.2012817" lon="13.2568333"><ele>853.0</ele><time>2026-05-02T15:28:39.278Z</time></trkpt><trkpt lat="42.2013917" lon="13.2568183"><ele>856.4</ele><time>2026-05-02T15:28:41.278Z</time></trkpt><trkpt lat="42.201515" lon="13.2568033"><ele>859.8</ele><time>2026-05-02T15:28:43.278Z</time></trkpt><trkpt lat="42.2016433" lon="13.2568017"><ele>863.2</ele><time>2026-05-02T15:28:45.278Z</time></trkpt><trkpt lat="42.2017133" lon="13.256805"><ele>866.6</ele><time>2026-05-02T15:28:46.278Z</time></trkpt><trkpt lat="42.2018017" lon="13.25681"><ele>870.0</ele><time>2026-05-02T15:28:47.278Z</time></trkpt><trkpt lat="42.2018683" lon="13.256825"><ele>870.0000000000001</ele><time>2026-05-02T15:28:48.278Z</time></trkpt><trkpt lat="42.2019467" lon="13.2568333"><ele>870.0</ele><time>2026-05-02T15:28:49.278Z</time></trkpt><trkpt lat="42.202025" lon="13.25683"><ele>870.0</ele><time>2026-05-02T15:28:50.278Z</time></trkpt><trkpt lat="42.202105" lon="13.2568167"><ele>870.0</ele><time>2026-05-02T15:28:51.278Z</time></trkpt><trkpt lat="42.2021717" lon="13.2568067"><ele>870.0</ele><time>2026-05-02T15:28:52.278Z</time></trkpt><trkpt lat="42.202235" lon="13.2568067"><ele>870.0000000000001</ele><time>2026-05-02T15:28:53.278Z</time></trkpt><trkpt lat="42.2023" lon="13.2567983"><ele>870.0</ele><time>2026-05-02T15:28:54.278Z</time></trkpt><trkpt lat="42.202375" lon="13.2567817"><ele>871.75</ele><time>2026-05-02T15:28:55.279Z</time></trkpt><trkpt lat="42.20248" lon="13.2567567"><ele>873.5</ele><time>2026-05-02T15:28:56.279Z</time></trkpt><trkpt lat="42.202585" lon="13.2566983"><ele>875.25</ele><time>2026-05-02T15:28:58.278Z</time></trkpt><trkpt lat="42.2027167" lon="13.25666"><ele>877.0</ele><time>2026-05-02T15:29:00.278Z</time></trkpt><trkpt lat="42.2028183" lon="13.2566267"><ele>877.0</ele><time>2026-05-02T15:29:02.278Z</time></trkpt><trkpt lat="42.2028717" lon="13.2565617"><ele>877.0</ele><time>2026-05-02T15:29:04.278Z</time></trkpt><trkpt lat="42.202925" lon="13.2564583"><ele>877.0</ele><time>2026-05-02T15:29:06.279Z</time></trkpt><trkpt lat="42.2029817" lon="13.2563533"><ele>877.0</ele><time>2026-05-02T15:29:08.278Z</time></trkpt><trkpt lat="42.203035" lon="13.256235"><ele>877.0</ele><time>2026-05-02T15:29:10.278Z</time></trkpt><trkpt lat="42.2030633" lon="13.256105"><ele>877.9999999999999</ele><time>2026-05-02T15:29:12.278Z</time></trkpt><trkpt lat="42.2031408" lon="13.2560045"><ele>879.0</ele><time>2026-05-02T15:29:17.342Z</time></trkpt><trkpt lat="42.2032036" lon="13.2559043"><ele>880.0</ele><time>2026-05-02T15:29:19.363Z</time></trkpt><trkpt lat="42.2032516" lon="13.2558142"><ele>881.0</ele><time>2026-05-02T15:29:21.307Z</time></trkpt><trkpt lat="42.2032918" lon="13.2557362"><ele>881.9999999999999</ele><time>2026-05-02T15:29:22.279Z</time></trkpt><trkpt lat="42.2033349" lon="13.255658"><ele>883.0</ele><time>2026-05-02T15:29:23.278Z</time></trkpt><trkpt lat="42.2033646" lon="13.2555735"><ele>884.8333333333333</ele><time>2026-05-02T15:29:24.278Z</time></trkpt><trkpt lat="42.2033475" lon="13.2554158"><ele>886.6666666666666</ele><time>2026-05-02T15:29:26.278Z</time></trkpt><trkpt lat="42.203324" lon="13.255335"><ele>888.5</ele><time>2026-05-02T15:29:27.278Z</time></trkpt><trkpt lat="42.2033006" lon="13.2552506"><ele>890.3333333333333</ele><time>2026-05-02T15:29:28.278Z</time></trkpt><trkpt lat="42.2032826" lon="13.2551605"><ele>892.1666666666666</ele><time>2026-05-02T15:29:29.278Z</time></trkpt><trkpt lat="42.203271" lon="13.2550753"><ele>894.0</ele><time>2026-05-02T15:29:30.278Z</time></trkpt><trkpt lat="42.2032756" lon="13.254945"><ele>894.0</ele><time>2026-05-02T15:29:32.278Z</time></trkpt><trkpt lat="42.2033345" lon="13.2548629"><ele>894.0</ele><time>2026-05-02T15:29:35.278Z</time></trkpt><trkpt lat="42.2035087" lon="13.2550394"><ele>894.0</ele><time>2026-05-02T15:29:41.278Z</time></trkpt><trkpt lat="42.2035736" lon="13.2550931"><ele>894.0</ele><time>2026-05-02T15:29:42.278Z</time></trkpt><trkpt lat="42.2036458" lon="13.2551629"><ele>894.0</ele><time>2026-05-02T15:29:43.278Z</time></trkpt><trkpt lat="42.203722" lon="13.2552374"><ele>894.0000000000001</ele><time>2026-05-02T15:29:44.279Z</time></trkpt><trkpt lat="42.2037997" lon="13.2553147"><ele>894.0000000000001</ele><time>2026-05-02T15:29:45.278Z</time></trkpt><trkpt lat="42.2038809" lon="13.2553962"><ele>894.0</ele><time>2026-05-02T15:29:46.278Z</time></trkpt><trkpt lat="42.2039635" lon="13.2554879"><ele>894.0</ele><time>2026-05-02T15:29:47.278Z</time></trkpt><trkpt lat="42.2040427" lon="13.2555908"><ele>895.5</ele><time>2026-05-02T15:29:48.278Z</time></trkpt><trkpt lat="42.2041169" lon="13.2557041"><ele>897.0</ele><time>2026-05-02T15:29:49.278Z</time></trkpt><trkpt lat="42.204193" lon="13.2558129"><ele>898.5</ele><time>2026-05-02T15:29:50.278Z</time></trkpt><trkpt lat="42.2042785" lon="13.2559197"><ele>900.0</ele><time>2026-05-02T15:29:51.278Z</time></trkpt><trkpt lat="42.2043726" lon="13.2560036"><ele>900.0</ele><time>2026-05-02T15:29:52.279Z</time></trkpt><trkpt lat="42.2044833" lon="13.2560633"><ele>900.0</ele><time>2026-05-02T15:29:53.278Z</time></trkpt><trkpt lat="42.2045917" lon="13.2561267"><ele>900.0</ele><time>2026-05-02T15:29:54.278Z</time></trkpt><trkpt lat="42.204695" lon="13.2562"><ele>900.0</ele><time>2026-05-02T15:29:55.278Z</time></trkpt><trkpt lat="42.2047967" lon="13.2562767"><ele>902.5</ele><time>2026-05-02T15:29:56.278Z</time></trkpt><trkpt lat="42.204885" lon="13.256375"><ele>905.0</ele><time>2026-05-02T15:29:57.278Z</time></trkpt><trkpt lat="42.20497" lon="13.2564683"><ele>907.5</ele><time>2026-05-02T15:29:58.278Z</time></trkpt><trkpt lat="42.2050433" lon="13.256585"><ele>910.0</ele><time>2026-05-02T15:29:59.278Z</time></trkpt><trkpt lat="42.20512" lon="13.2567167"><ele>910.0</ele><time>2026-05-02T15:30:00.278Z</time></trkpt><trkpt lat="42.205195" lon="13.25685"><ele>910.0</ele><time>2026-05-02T15:30:01.278Z</time></trkpt><trkpt lat="42.2052633" lon="13.2569933"><ele>910.0</ele><time>2026-05-02T15:30:02.278Z</time></trkpt><trkpt lat="42.2053317" lon="13.2571433"><ele>910.0</ele><time>2026-05-02T15:30:03.278Z</time></trkpt><trkpt lat="42.2053783" lon="13.2572883"><ele>907.9999999999999</ele><time>2026-05-02T15:30:04.279Z</time></trkpt><trkpt lat="42.205425" lon="13.25742"><ele>906.0</ele><time>2026-05-02T15:30:05.278Z</time></trkpt><trkpt lat="42.205475" lon="13.257545"><ele>904.0</ele><time>2026-05-02T15:30:06.278Z</time></trkpt><trkpt lat="42.2055267" lon="13.2576433"><ele>902.0</ele><time>2026-05-02T15:30:07.278Z</time></trkpt><trkpt lat="42.205575" lon="13.2577267"><ele>899.9999999999999</ele><time>2026-05-02T15:30:08.278Z</time></trkpt><trkpt lat="42.2056233" lon="13.257785"><ele>898.0</ele><time>2026-05-02T15:30:09.278Z</time></trkpt><trkpt lat="42.205685" lon="13.25784"><ele>901.8</ele><time>2026-05-02T15:30:10.278Z</time></trkpt><trkpt lat="42.2057683" lon="13.25789"><ele>905.5999999999999</ele><time>2026-05-02T15:30:11.279Z</time></trkpt><trkpt lat="42.2058733" lon="13.2579517"><ele>909.4000000000001</ele><time>2026-05-02T15:30:12.278Z</time></trkpt><trkpt lat="42.205975" lon="13.2580133"><ele>913.2</ele><time>2026-05-02T15:30:13.278Z</time></trkpt><trkpt lat="42.20606" lon="13.2580783"><ele>917.0</ele><time>2026-05-02T15:30:14.278Z</time></trkpt><trkpt lat="42.20612" lon="13.2581383"><ele>917.0</ele><time>2026-05-02T15:30:15.278Z</time></trkpt><trkpt lat="42.206165" lon="13.2582167"><ele>917.0</ele><time>2026-05-02T15:30:16.278Z</time></trkpt><trkpt lat="42.2061817" lon="13.25833"><ele>917.0</ele><time>2026-05-02T15:30:17.279Z</time></trkpt><trkpt lat="42.2061833" lon="13.25847"><ele>917.0</ele><time>2026-05-02T15:30:18.278Z</time></trkpt><trkpt lat="42.2061783" lon="13.258625"><ele>917.0</ele><time>2026-05-02T15:30:19.278Z</time></trkpt><trkpt lat="42.2061683" lon="13.2587933"><ele>915.5</ele><time>2026-05-02T15:30:20.278Z</time></trkpt><trkpt lat="42.206175" lon="13.258965"><ele>914.0</ele><time>2026-05-02T15:30:21.278Z</time></trkpt><trkpt lat="42.20617" lon="13.2591317"><ele>912.5</ele><time>2026-05-02T15:30:22.278Z</time></trkpt><trkpt lat="42.2061683" lon="13.2592983"><ele>911.0</ele><time>2026-05-02T15:30:23.278Z</time></trkpt><trkpt lat="42.2061633" lon="13.2594517"><ele>911.0</ele><time>2026-05-02T15:30:24.278Z</time></trkpt><trkpt lat="42.206175" lon="13.2595833"><ele>910.9999999999999</ele><time>2026-05-02T15:30:25.279Z</time></trkpt><trkpt lat="42.206225" lon="13.2597117"><ele>910.9999999999999</ele><time>2026-05-02T15:30:26.278Z</time></trkpt><trkpt lat="42.2062983" lon="13.2598317"><ele>911.0</ele><time>2026-05-02T15:30:27.279Z</time></trkpt><trkpt lat="42.20638" lon="13.2599467"><ele>911.0</ele><time>2026-05-02T15:30:28.278Z</time></trkpt><trkpt lat="42.2064683" lon="13.260075"><ele>921.6666666666667</ele><time>2026-05-02T15:30:29.278Z</time></trkpt><trkpt lat="42.2065617" lon="13.2602183"><ele>932.3333333333333</ele><time>2026-05-02T15:30:30.279Z</time></trkpt><trkpt lat="42.20666" lon="13.2603817"><ele>943.0</ele><time>2026-05-02T15:30:31.278Z</time></trkpt><trkpt lat="42.2067667" lon="13.2605417"><ele>937.3333333333333</ele><time>2026-05-02T15:30:32.279Z</time></trkpt><trkpt lat="42.2068767" lon="13.2607183"><ele>931.6666666666667</ele><time>2026-05-02T15:30:33.278Z</time></trkpt><trkpt lat="42.2069817" lon="13.260885"><ele>926.0</ele><time>2026-05-02T15:30:34.278Z</time></trkpt><trkpt lat="42.2070883" lon="13.261065"><ele>926.0</ele><time>2026-05-02T15:30:35.278Z</time></trkpt><trkpt lat="42.2071833" lon="13.261225"><ele>926.0</ele><time>2026-05-02T15:30:36.278Z</time></trkpt><trkpt lat="42.2072567" lon="13.2613733"><ele>926.0</ele><time>2026-05-02T15:30:37.278Z</time></trkpt><trkpt lat="42.207325" lon="13.26149"><ele>926.0</ele><time>2026-05-02T15:30:38.278Z</time></trkpt><trkpt lat="42.20739" lon="13.2616017"><ele>928.8333333333334</ele><time>2026-05-02T15:30:39.278Z</time></trkpt><trkpt lat="42.2074567" lon="13.261705"><ele>931.6666666666667</ele><time>2026-05-02T15:30:40.279Z</time></trkpt><trkpt lat="42.20752" lon="13.26179"><ele>934.5</ele><time>2026-05-02T15:30:41.279Z</time></trkpt><trkpt lat="42.2075817" lon="13.2618417"><ele>937.3333333333333</ele><time>2026-05-02T15:30:42.278Z</time></trkpt><trkpt lat="42.20765" lon="13.26187"><ele>940.1666666666666</ele><time>2026-05-02T15:30:43.278Z</time></trkpt><trkpt lat="42.2077133" lon="13.2618567"><ele>943.0</ele><time>2026-05-02T15:30:44.278Z</time></trkpt><trkpt lat="42.2077817" lon="13.2617983"><ele>942.9999999999999</ele><time>2026-05-02T15:30:45.278Z</time></trkpt><trkpt lat="42.2078433" lon="13.26173"><ele>943.0</ele><time>2026-05-02T15:30:46.279Z</time></trkpt><trkpt lat="42.2078917" lon="13.261665"><ele>943.0</ele><time>2026-05-02T15:30:47.278Z</time></trkpt><trkpt lat="42.2079183" lon="13.2615717"><ele>943.0</ele><time>2026-05-02T15:30:49.278Z</time></trkpt><trkpt lat="42.2078433" lon="13.2615183"><ele>942.9999999999999</ele><time>2026-05-02T15:30:51.278Z</time></trkpt><trkpt lat="42.2077233" lon="13.2615767"><ele>943.0</ele><time>2026-05-02T15:30:53.278Z</time></trkpt><trkpt lat="42.2076317" lon="13.2615067"><ele>947.4</ele><time>2026-05-02T15:30:55.278Z</time></trkpt><trkpt lat="42.2076017" lon="13.26142"><ele>951.8</ele><time>2026-05-02T15:30:56.279Z</time></trkpt><trkpt lat="42.207565" lon="13.2612933"><ele>956.2</ele><time>2026-05-02T15:30:57.278Z</time></trkpt><trkpt lat="42.207515" lon="13.2611433"><ele>960.6</ele><time>2026-05-02T15:30:58.279Z</time></trkpt><trkpt lat="42.2074417" lon="13.2609683"><ele>965.0</ele><time>2026-05-02T15:30:59.278Z</time></trkpt><trkpt lat="42.2073567" lon="13.2607933"><ele>959.5</ele><time>2026-05-02T15:31:00.278Z</time></trkpt><trkpt lat="42.2072767" lon="13.2606267"><ele>954.0</ele><time>2026-05-02T15:31:01.278Z</time></trkpt><trkpt lat="42.2071983" lon="13.260465"><ele>948.5</ele><time>2026-05-02T15:31:02.278Z</time></trkpt><trkpt lat="42.2071283" lon="13.260295"><ele>943.0</ele><time>2026-05-02T15:31:03.279Z</time></trkpt><trkpt lat="42.2070717" lon="13.2601233"><ele>943.0</ele><time>2026-05-02T15:31:04.278Z</time></trkpt><trkpt lat="42.2070233" lon="13.25996"><ele>943.0</ele><time>2026-05-02T15:31:05.278Z</time></trkpt><trkpt lat="42.206975" lon="13.2598067"><ele>943.0</ele><time>2026-05-02T15:31:06.278Z</time></trkpt><trkpt lat="42.2069333" lon="13.25967"><ele>943.0</ele><time>2026-05-02T15:31:07.278Z</time></trkpt><trkpt lat="42.2068967" lon="13.2595533"><ele>944.5999999999999</ele><time>2026-05-02T15:31:08.278Z</time></trkpt><trkpt lat="42.2069" lon="13.25945"><ele>946.1999999999999</ele><time>2026-05-02T15:31:09.278Z</time></trkpt><trkpt lat="42.2069317" lon="13.2593383"><ele>947.8</ele><time>2026-05-02T15:31:10.279Z</time></trkpt><trkpt lat="42.2069917" lon="13.259195"><ele>949.4</ele><time>2026-05-02T15:31:11.278Z</time></trkpt><trkpt lat="42.2070667" lon="13.25904"><ele>951.0</ele><time>2026-05-02T15:31:12.278Z</time></trkpt><trkpt lat="42.2071467" lon="13.25888"><ele>951.0</ele><time>2026-05-02T15:31:13.278Z</time></trkpt><trkpt lat="42.2072483" lon="13.25869"><ele>951.0</ele><time>2026-05-02T15:31:14.278Z</time></trkpt><trkpt lat="42.2072933" lon="13.258475"><ele>951.0</ele><time>2026-05-02T15:31:15.278Z</time></trkpt><trkpt lat="42.2073133" lon="13.2582817"><ele>954.75</ele><time>2026-05-02T15:31:16.278Z</time></trkpt><trkpt lat="42.2073267" lon="13.258095"><ele>958.5</ele><time>2026-05-02T15:31:17.278Z</time></trkpt><trkpt lat="42.2073283" lon="13.25792"><ele>962.25</ele><time>2026-05-02T15:31:18.278Z</time></trkpt><trkpt lat="42.207315" lon="13.257755"><ele>966.0</ele><time>2026-05-02T15:31:19.278Z</time></trkpt><trkpt lat="42.2072617" lon="13.2576083"><ele>966.0</ele><time>2026-05-02T15:31:20.278Z</time></trkpt><trkpt lat="42.207195" lon="13.2574917"><ele>966.0</ele><time>2026-05-02T15:31:21.278Z</time></trkpt><trkpt lat="42.2071117" lon="13.2573733"><ele>966.0</ele><time>2026-05-02T15:31:22.278Z</time></trkpt><trkpt lat="42.207005" lon="13.2572433"><ele>966.0</ele><time>2026-05-02T15:31:23.278Z</time></trkpt><trkpt lat="42.2068933" lon="13.2571"><ele>971.25</ele><time>2026-05-02T15:31:24.278Z</time></trkpt><trkpt lat="42.206795" lon="13.2569783"><ele>976.5</ele><time>2026-05-02T15:31:25.278Z</time></trkpt><trkpt lat="42.2067117" lon="13.25685"><ele>981.75</ele><time>2026-05-02T15:31:26.278Z</time></trkpt><trkpt lat="42.2066483" lon="13.2567167"><ele>987.0</ele><time>2026-05-02T15:31:27.278Z</time></trkpt><trkpt lat="42.2065867" lon="13.2565633"><ele>990.5</ele><time>2026-05-02T15:31:28.279Z</time></trkpt><trkpt lat="42.2065317" lon="13.256395"><ele>994.0</ele><time>2026-05-02T15:31:29.278Z</time></trkpt><trkpt lat="42.206475" lon="13.2562083"><ele>997.5</ele><time>2026-05-02T15:31:30.278Z</time></trkpt><trkpt lat="42.2064383" lon="13.25601"><ele>1001.0</ele><time>2026-05-02T15:31:31.278Z</time></trkpt><trkpt lat="42.2064183" lon="13.255815"><ele>992.3333333333334</ele><time>2026-05-02T15:31:32.278Z</time></trkpt><trkpt lat="42.20643" lon="13.255615"><ele>983.6666666666667</ele><time>2026-05-02T15:31:33.279Z</time></trkpt><trkpt lat="42.2064517" lon="13.2554167"><ele>975.0</ele><time>2026-05-02T15:31:34.278Z</time></trkpt><trkpt lat="42.2064717" lon="13.2552067"><ele>975.0</ele><time>2026-05-02T15:31:35.278Z</time></trkpt><trkpt lat="42.206475" lon="13.2549833"><ele>975.0</ele><time>2026-05-02T15:31:36.278Z</time></trkpt><trkpt lat="42.2064567" lon="13.25476"><ele>975.0</ele><time>2026-05-02T15:31:37.278Z</time></trkpt><trkpt lat="42.2064233" lon="13.2545433"><ele>974.75</ele><time>2026-05-02T15:31:38.278Z</time></trkpt><trkpt lat="42.2063933" lon="13.2543383"><ele>974.5</ele><time>2026-05-02T15:31:39.278Z</time></trkpt><trkpt lat="42.2063917" lon="13.2541683"><ele>974.25</ele><time>2026-05-02T15:31:40.278Z</time></trkpt><trkpt lat="42.20642" lon="13.253995"><ele>974.0</ele><time>2026-05-02T15:31:41.278Z</time></trkpt><trkpt lat="42.2064517" lon="13.2538117"><ele>985.3333333333334</ele><time>2026-05-02T15:31:42.279Z</time></trkpt><trkpt lat="42.2065017" lon="13.25362"><ele>996.6666666666667</ele><time>2026-05-02T15:31:43.278Z</time></trkpt><trkpt lat="42.2065633" lon="13.253435"><ele>1008.0</ele><time>2026-05-02T15:31:44.278Z</time></trkpt><trkpt lat="42.206625" lon="13.2532433"><ele>1006.75</ele><time>2026-05-02T15:31:45.278Z</time></trkpt><trkpt lat="42.206685" lon="13.2530583"><ele>1005.5</ele><time>2026-05-02T15:31:46.278Z</time></trkpt><trkpt lat="42.2067383" lon="13.2528917"><ele>1004.25</ele><time>2026-05-02T15:31:47.278Z</time></trkpt><trkpt lat="42.2067867" lon="13.2527717"><ele>1003.0</ele><time>2026-05-02T15:31:48.278Z</time></trkpt><trkpt lat="42.2068383" lon="13.2526917"><ele>1002.9999999999999</ele><time>2026-05-02T15:31:49.279Z</time></trkpt><trkpt lat="42.2069" lon="13.2526283"><ele>1003.0</ele><time>2026-05-02T15:31:51.278Z</time></trkpt><trkpt lat="42.2069333" lon="13.2527033"><ele>1003.0</ele><time>2026-05-02T15:31:53.278Z</time></trkpt><trkpt lat="42.2069183" lon="13.2528533"><ele>1003.0</ele><time>2026-05-02T15:31:55.278Z</time></trkpt><trkpt lat="42.2068933" lon="13.2529383"><ele>1002.9999999999999</ele><time>2026-05-02T15:31:56.278Z</time></trkpt><trkpt lat="42.2068683" lon="13.253025"><ele>1003.0</ele><time>2026-05-02T15:31:57.278Z</time></trkpt><trkpt lat="42.20686" lon="13.25311"><ele>1003.8333333333333</ele><time>2026-05-02T15:31:58.278Z</time></trkpt><trkpt lat="42.2068517" lon="13.2532133"><ele>1004.6666666666666</ele><time>2026-05-02T15:31:59.278Z</time></trkpt><trkpt lat="42.206835" lon="13.253325"><ele>1005.5</ele><time>2026-05-02T15:32:00.278Z</time></trkpt><trkpt lat="42.206835" lon="13.2534433"><ele>1006.3333333333333</ele><time>2026-05-02T15:32:01.278Z</time></trkpt><trkpt lat="42.2068383" lon="13.2535517"><ele>1007.1666666666666</ele><time>2026-05-02T15:32:02.278Z</time></trkpt><trkpt lat="42.2068567" lon="13.253675"><ele>1008.0</ele><time>2026-05-02T15:32:03.279Z</time></trkpt><trkpt lat="42.2068483" lon="13.2537667"><ele>1008.0</ele><time>2026-05-02T15:32:04.278Z</time></trkpt><trkpt lat="42.2068567" lon="13.2538533"><ele>1008.0</ele><time>2026-05-02T15:32:05.278Z</time></trkpt><trkpt lat="42.206895" lon="13.2539367"><ele>1008.0</ele><time>2026-05-02T15:32:06.278Z</time></trkpt><trkpt lat="42.20697" lon="13.25407"><ele>1008.0</ele><time>2026-05-02T15:32:08.278Z</time></trkpt><trkpt lat="42.2070217" lon="13.2542283"><ele>1008.0</ele><time>2026-05-02T15:32:10.278Z</time></trkpt><trkpt lat="42.2070483" lon="13.254335"><ele>1007.6666666666666</ele><time>2026-05-02T15:32:11.278Z</time></trkpt><trkpt lat="42.2070717" lon="13.254435"><ele>1007.3333333333333</ele><time>2026-05-02T15:32:12.278Z</time></trkpt><trkpt lat="42.2070833" lon="13.2545317"><ele>1007.0</ele><time>2026-05-02T15:32:13.278Z</time></trkpt><trkpt lat="42.2071083" lon="13.2546183"><ele>1006.6666666666666</ele><time>2026-05-02T15:32:14.278Z</time></trkpt><trkpt lat="42.20713" lon="13.254715"><ele>1006.3333333333333</ele><time>2026-05-02T15:32:15.278Z</time></trkpt><trkpt lat="42.20716" lon="13.25482"><ele>1006.0</ele><time>2026-05-02T15:32:16.279Z</time></trkpt><trkpt lat="42.2071883" lon="13.2549383"><ele>1006.0</ele><time>2026-05-02T15:32:17.278Z</time></trkpt><trkpt lat="42.2072167" lon="13.255065"><ele>1005.9999999999999</ele><time>2026-05-02T15:32:18.278Z</time></trkpt><trkpt lat="42.20724" lon="13.255205"><ele>1005.9999999999999</ele><time>2026-05-02T15:32:19.278Z</time></trkpt><trkpt lat="42.2072767" lon="13.2553517"><ele>1006.0</ele><time>2026-05-02T15:32:20.278Z</time></trkpt><trkpt lat="42.20731" lon="13.2555083"><ele>1006.0</ele><time>2026-05-02T15:32:21.278Z</time></trkpt><trkpt lat="42.2073467" lon="13.2556617"><ele>1012.1999999999999</ele><time>2026-05-02T15:32:22.278Z</time></trkpt><trkpt lat="42.207395" lon="13.2558217"><ele>1018.3999999999999</ele><time>2026-05-02T15:32:23.278Z</time></trkpt><trkpt lat="42.2074167" lon="13.2559483"><ele>1024.6</ele><time>2026-05-02T15:32:24.278Z</time></trkpt><trkpt lat="42.207445" lon="13.2560583"><ele>1030.8</ele><time>2026-05-02T15:32:25.279Z</time></trkpt><trkpt lat="42.2074833" lon="13.2561617"><ele>1037.0</ele><time>2026-05-02T15:32:26.278Z</time></trkpt><trkpt lat="42.2075217" lon="13.2562583"><ele>1037.0</ele><time>2026-05-02T15:32:27.278Z</time></trkpt><trkpt lat="42.2075667" lon="13.25634"><ele>1037.0</ele><time>2026-05-02T15:32:28.279Z</time></trkpt><trkpt lat="42.20762" lon="13.2564083"><ele>1037.0</ele><time>2026-05-02T15:32:29.278Z</time></trkpt><trkpt lat="42.2076783" lon="13.2564767"><ele>1037.0</ele><time>2026-05-02T15:32:30.278Z</time></trkpt><trkpt lat="42.207745" lon="13.256545"><ele>1037.0</ele><time>2026-05-02T15:32:31.278Z</time></trkpt><trkpt lat="42.2078117" lon="13.2566133"><ele>1037.0</ele><time>2026-05-02T15:32:32.278Z</time></trkpt><trkpt lat="42.2078717" lon="13.2566867"><ele>1034.0</ele><time>2026-05-02T15:32:33.278Z</time></trkpt><trkpt lat="42.2079433" lon="13.2567817"><ele>1031.0</ele><time>2026-05-02T15:32:34.278Z</time></trkpt><trkpt lat="42.20802" lon="13.2568633"><ele>1028.0</ele><time>2026-05-02T15:32:35.278Z</time></trkpt><trkpt lat="42.2080817" lon="13.256965"><ele>1025.0</ele><time>2026-05-02T15:32:36.278Z</time></trkpt><trkpt lat="42.208135" lon="13.2570533"><ele>1022.0</ele><time>2026-05-02T15:32:37.278Z</time></trkpt><trkpt lat="42.20819" lon="13.257155"><ele>1026.8</ele><time>2026-05-02T15:32:38.278Z</time></trkpt><trkpt lat="42.208245" lon="13.2572533"><ele>1031.6</ele><time>2026-05-02T15:32:39.278Z</time></trkpt><trkpt lat="42.2083017" lon="13.2573517"><ele>1036.3999999999999</ele><time>2026-05-02T15:32:40.279Z</time></trkpt><trkpt lat="42.2083317" lon="13.2574567"><ele>1041.2</ele><time>2026-05-02T15:32:41.278Z</time></trkpt><trkpt lat="42.2083583" lon="13.2575667"><ele>1046.0</ele><time>2026-05-02T15:32:42.278Z</time></trkpt><trkpt lat="42.20839" lon="13.2576983"><ele>1046.0</ele><time>2026-05-02T15:32:43.278Z</time></trkpt><trkpt lat="42.2084083" lon="13.2578467"><ele>1046.0</ele><time>2026-05-02T15:32:44.278Z</time></trkpt><trkpt lat="42.2084067" lon="13.2579917"><ele>1046.0</ele><time>2026-05-02T15:32:45.278Z</time></trkpt><trkpt lat="42.2084067" lon="13.2581383"><ele>1046.0</ele><time>2026-05-02T15:32:46.278Z</time></trkpt><trkpt lat="42.2084217" lon="13.2582967"><ele>1046.0</ele><time>2026-05-02T15:32:47.278Z</time></trkpt><trkpt lat="42.2084333" lon="13.25843"><ele>1044.8333333333335</ele><time>2026-05-02T15:32:48.278Z</time></trkpt><trkpt lat="42.2084617" lon="13.2585683"><ele>1043.6666666666667</ele><time>2026-05-02T15:32:49.278Z</time></trkpt><trkpt lat="42.2084983" lon="13.25869"><ele>1042.5</ele><time>2026-05-02T15:32:50.278Z</time></trkpt><trkpt lat="42.2085233" lon="13.2587917"><ele>1041.3333333333333</ele><time>2026-05-02T15:32:51.278Z</time></trkpt><trkpt lat="42.2085517" lon="13.2588783"><ele>1040.1666666666665</ele><time>2026-05-02T15:32:52.278Z</time></trkpt><trkpt lat="42.2085983" lon="13.25896"><ele>1039.0</ele><time>2026-05-02T15:32:53.278Z</time></trkpt><trkpt lat="42.2086917" lon="13.259035"><ele>1037.9999999999998</ele><time>2026-05-02T15:32:55.278Z</time></trkpt><trkpt lat="42.2087583" lon="13.25905"><ele>1037.0</ele><time>2026-05-02T15:32:56.278Z</time></trkpt><trkpt lat="42.2088233" lon="13.2590767"><ele>1036.0</ele><time>2026-05-02T15:32:57.278Z</time></trkpt><trkpt lat="42.2088917" lon="13.2590883"><ele>1035.0</ele><time>2026-05-02T15:32:58.278Z</time></trkpt><trkpt lat="42.2089683" lon="13.2591083"><ele>1034.0</ele><time>2026-05-02T15:32:59.278Z</time></trkpt><trkpt lat="42.2090383" lon="13.25913"><ele>1032.9999999999998</ele><time>2026-05-02T15:33:00.279Z</time></trkpt><trkpt lat="42.2091183" lon="13.2591467"><ele>1032.0</ele><time>2026-05-02T15:33:01.278Z</time></trkpt><trkpt lat="42.2091967" lon="13.2591683"><ele>1037.6</ele><time>2026-05-02T15:33:02.278Z</time></trkpt><trkpt lat="42.20928" lon="13.2591917"><ele>1043.2</ele><time>2026-05-02T15:33:03.278Z</time></trkpt><trkpt lat="42.2093633" lon="13.2591983"><ele>1048.8</ele><time>2026-05-02T15:33:04.278Z</time></trkpt><trkpt lat="42.2094467" lon="13.2592133"><ele>1054.4</ele><time>2026-05-02T15:33:05.278Z</time></trkpt><trkpt lat="42.2095483" lon="13.25924"><ele>1060.0</ele><time>2026-05-02T15:33:06.278Z</time></trkpt><trkpt lat="42.20965" lon="13.2592683"><ele>1060.0</ele><time>2026-05-02T15:33:07.278Z</time></trkpt><trkpt lat="42.2097517" lon="13.2593033"><ele>1060.0</ele><time>2026-05-02T15:33:08.278Z</time></trkpt><trkpt lat="42.20985" lon="13.2593383"><ele>1060.0</ele><time>2026-05-02T15:33:09.278Z</time></trkpt><trkpt lat="42.20995" lon="13.2593983"><ele>1060.0</ele><time>2026-05-02T15:33:10.278Z</time></trkpt><trkpt lat="42.21005" lon="13.2594667"><ele>1060.0</ele><time>2026-05-02T15:33:11.278Z</time></trkpt><trkpt lat="42.2101567" lon="13.2595433"><ele>1059.0</ele><time>2026-05-02T15:33:12.278Z</time></trkpt><trkpt lat="42.2102533" lon="13.25963"><ele>1058.0</ele><time>2026-05-02T15:33:13.278Z</time></trkpt><trkpt lat="42.2103417" lon="13.2597217"><ele>1057.0</ele><time>2026-05-02T15:33:14.278Z</time></trkpt><trkpt lat="42.2104283" lon="13.25981"><ele>1056.0</ele><time>2026-05-02T15:33:15.278Z</time></trkpt><trkpt lat="42.210495" lon="13.259895"><ele>1055.0</ele><time>2026-05-02T15:33:16.278Z</time></trkpt><trkpt lat="42.2105583" lon="13.2599883"><ele>1055.0</ele><time>2026-05-02T15:33:17.278Z</time></trkpt><trkpt lat="42.2106167" lon="13.2600733"><ele>1055.0</ele><time>2026-05-02T15:33:18.279Z</time></trkpt><trkpt lat="42.2106667" lon="13.260165"><ele>1055.0</ele><time>2026-05-02T15:33:19.278Z</time></trkpt><trkpt lat="42.2107267" lon="13.2602717"><ele>1055.0</ele><time>2026-05-02T15:33:20.279Z</time></trkpt><trkpt lat="42.2107883" lon="13.2603767"><ele>1055.0</ele><time>2026-05-02T15:33:21.278Z</time></trkpt><trkpt lat="42.2108583" lon="13.26048"><ele>1057.4</ele><time>2026-05-02T15:33:22.278Z</time></trkpt><trkpt lat="42.2109267" lon="13.2605767"><ele>1059.8</ele><time>2026-05-02T15:33:23.278Z</time></trkpt><trkpt lat="42.210995" lon="13.2606567"><ele>1062.2</ele><time>2026-05-02T15:33:24.278Z</time></trkpt><trkpt lat="42.2110683" lon="13.2607267"><ele>1064.6</ele><time>2026-05-02T15:33:25.278Z</time></trkpt><trkpt lat="42.2111467" lon="13.2607767"><ele>1067.0</ele><time>2026-05-02T15:33:26.278Z</time></trkpt><trkpt lat="42.2112317" lon="13.2608133"><ele>1067.0</ele><time>2026-05-02T15:33:27.278Z</time></trkpt><trkpt lat="42.211315" lon="13.2608667"><ele>1067.0</ele><time>2026-05-02T15:33:28.278Z</time></trkpt><trkpt lat="42.2114" lon="13.260915"><ele>1067.0</ele><time>2026-05-02T15:33:29.278Z</time></trkpt><trkpt lat="42.2114867" lon="13.2609467"><ele>1067.0</ele><time>2026-05-02T15:33:30.278Z</time></trkpt><trkpt lat="42.2115817" lon="13.2609717"><ele>1067.0</ele><time>2026-05-02T15:33:31.278Z</time></trkpt><trkpt lat="42.2116583" lon="13.2609967"><ele>1072.6666666666667</ele><time>2026-05-02T15:33:32.278Z</time></trkpt><trkpt lat="42.2117283" lon="13.261035"><ele>1078.3333333333335</ele><time>2026-05-02T15:33:33.278Z</time></trkpt><trkpt lat="42.211795" lon="13.26108"><ele>1084.0</ele><time>2026-05-02T15:33:34.278Z</time></trkpt><trkpt lat="42.2118717" lon="13.2611617"><ele>1089.6666666666667</ele><time>2026-05-02T15:33:35.278Z</time></trkpt><trkpt lat="42.2119467" lon="13.261215"><ele>1095.3333333333333</ele><time>2026-05-02T15:33:36.279Z</time></trkpt><trkpt lat="42.2120233" lon="13.26127"><ele>1101.0</ele><time>2026-05-02T15:33:37.278Z</time></trkpt><trkpt lat="42.212095" lon="13.2612917"><ele>1101.0</ele><time>2026-05-02T15:33:38.278Z</time></trkpt><trkpt lat="42.2121783" lon="13.2612967"><ele>1101.0</ele><time>2026-05-02T15:33:39.278Z</time></trkpt><trkpt lat="42.2122467" lon="13.2612983"><ele>1101.0</ele><time>2026-05-02T15:33:40.278Z</time></trkpt><trkpt lat="42.2123267" lon="13.2612883"><ele>1101.0</ele><time>2026-05-02T15:33:41.278Z</time></trkpt><trkpt lat="42.2124067" lon="13.2612667"><ele>1101.0</ele><time>2026-05-02T15:33:42.278Z</time></trkpt><trkpt lat="42.2125167" lon="13.26126"><ele>1101.0</ele><time>2026-05-02T15:33:43.278Z</time></trkpt><trkpt lat="42.2126167" lon="13.261305"><ele>1100.6</ele><time>2026-05-02T15:33:45.278Z</time></trkpt><trkpt lat="42.212695" lon="13.26146"><ele>1100.1999999999998</ele><time>2026-05-02T15:33:47.278Z</time></trkpt><trkpt lat="42.21273" lon="13.2615567"><ele>1099.8000000000002</ele><time>2026-05-02T15:33:48.278Z</time></trkpt><trkpt lat="42.2127983" lon="13.2617"><ele>1099.4</ele><time>2026-05-02T15:33:50.278Z</time></trkpt><trkpt lat="42.2128467" lon="13.261775"><ele>1099.0</ele><time>2026-05-02T15:33:51.278Z</time></trkpt><trkpt lat="42.212895" lon="13.2618533"><ele>1099.0</ele><time>2026-05-02T15:33:52.278Z</time></trkpt><trkpt lat="42.212955" lon="13.2619383"><ele>1099.0</ele><time>2026-05-02T15:33:53.278Z</time></trkpt><trkpt lat="42.21302" lon="13.26201"><ele>1099.0</ele><time>2026-05-02T15:33:54.278Z</time></trkpt><trkpt lat="42.21308" lon="13.262085"><ele>1099.0</ele><time>2026-05-02T15:33:55.279Z</time></trkpt><trkpt lat="42.2131383" lon="13.2621617"><ele>1099.0</ele><time>2026-05-02T15:33:56.278Z</time></trkpt><trkpt lat="42.2132017" lon="13.26225"><ele>1099.0</ele><time>2026-05-02T15:33:57.278Z</time></trkpt><trkpt lat="42.21327" lon="13.2623433"><ele>1100.6000000000001</ele><time>2026-05-02T15:33:58.278Z</time></trkpt><trkpt lat="42.2133483" lon="13.2624317"><ele>1102.2</ele><time>2026-05-02T15:33:59.278Z</time></trkpt><trkpt lat="42.2134267" lon="13.262515"><ele>1103.8000000000002</ele><time>2026-05-02T15:34:00.278Z</time></trkpt><trkpt lat="42.2135033" lon="13.2625917"><ele>1105.4</ele><time>2026-05-02T15:34:01.279Z</time></trkpt><trkpt lat="42.2135717" lon="13.262665"><ele>1107.0</ele><time>2026-05-02T15:34:02.278Z</time></trkpt><trkpt lat="42.2136417" lon="13.262735"><ele>1107.0</ele><time>2026-05-02T15:34:03.279Z</time></trkpt><trkpt lat="42.21371" lon="13.2628033"><ele>1107.0</ele><time>2026-05-02T15:34:04.278Z</time></trkpt><trkpt lat="42.2137717" lon="13.2628717"><ele>1107.0</ele><time>2026-05-02T15:34:05.278Z</time></trkpt><trkpt lat="42.2138367" lon="13.262935"><ele>1107.0</ele><time>2026-05-02T15:34:06.279Z</time></trkpt><trkpt lat="42.2139117" lon="13.2629883"><ele>1107.0</ele><time>2026-05-02T15:34:07.278Z</time></trkpt><trkpt lat="42.2139933" lon="13.2630267"><ele>1107.0</ele><time>2026-05-02T15:34:08.278Z</time></trkpt><trkpt lat="42.2140733" lon="13.2630517"><ele>1107.8333333333333</ele><time>2026-05-02T15:34:09.278Z</time></trkpt><trkpt lat="42.2141517" lon="13.263075"><ele>1108.6666666666667</ele><time>2026-05-02T15:34:10.278Z</time></trkpt><trkpt lat="42.214225" lon="13.263095"><ele>1109.5</ele><time>2026-05-02T15:34:11.278Z</time></trkpt><trkpt lat="42.2142983" lon="13.263105"><ele>1110.3333333333335</ele><time>2026-05-02T15:34:12.278Z</time></trkpt><trkpt lat="42.2143767" lon="13.2631133"><ele>1111.1666666666667</ele><time>2026-05-02T15:34:13.278Z</time></trkpt><trkpt lat="42.2144617" lon="13.26311"><ele>1112.0</ele><time>2026-05-02T15:34:14.278Z</time></trkpt><trkpt lat="42.2145467" lon="13.2631067"><ele>1112.0</ele><time>2026-05-02T15:34:15.278Z</time></trkpt><trkpt lat="42.2146267" lon="13.2631117"><ele>1112.0</ele><time>2026-05-02T15:34:16.278Z</time></trkpt><trkpt lat="42.2147033" lon="13.2631017"><ele>1112.0</ele><time>2026-05-02T15:34:17.278Z</time></trkpt><trkpt lat="42.2147833" lon="13.2630867"><ele>1112.0</ele><time>2026-05-02T15:34:18.278Z</time></trkpt><trkpt lat="42.2148683" lon="13.2630967"><ele>1112.0</ele><time>2026-05-02T15:34:19.278Z</time></trkpt><trkpt lat="42.214945" lon="13.26311"><ele>1112.0</ele><time>2026-05-02T15:34:20.278Z</time></trkpt><trkpt lat="42.2150233" lon="13.2631267"><ele>1109.6666666666667</ele><time>2026-05-02T15:34:21.278Z</time></trkpt><trkpt lat="42.2151033" lon="13.2631533"><ele>1107.3333333333335</ele><time>2026-05-02T15:34:22.279Z</time></trkpt><trkpt lat="42.21518" lon="13.2631883"><ele>1105.0</ele><time>2026-05-02T15:34:23.278Z</time></trkpt><trkpt lat="42.2152583" lon="13.2632383"><ele>1102.6666666666667</ele><time>2026-05-02T15:34:24.278Z</time></trkpt><trkpt lat="42.2153317" lon="13.2633"><ele>1100.3333333333333</ele><time>2026-05-02T15:34:25.279Z</time></trkpt><trkpt lat="42.2153983" lon="13.2633717"><ele>1098.0</ele><time>2026-05-02T15:34:26.278Z</time></trkpt><trkpt lat="42.2154617" lon="13.263445"><ele>1098.0</ele><time>2026-05-02T15:34:27.278Z</time></trkpt><trkpt lat="42.2155117" lon="13.2635117"><ele>1098.0</ele><time>2026-05-02T15:34:28.278Z</time></trkpt><trkpt lat="42.2155633" lon="13.2636417"><ele>1098.0</ele><time>2026-05-02T15:34:30.279Z</time></trkpt><trkpt lat="42.215545" lon="13.2637383"><ele>1098.0</ele><time>2026-05-02T15:34:32.278Z</time></trkpt><trkpt lat="42.2154733" lon="13.2638117"><ele>1098.0</ele><time>2026-05-02T15:34:34.278Z</time></trkpt><trkpt lat="42.2153883" lon="13.2638917"><ele>1098.0</ele><time>2026-05-02T15:34:36.278Z</time></trkpt><trkpt lat="42.2153717" lon="13.2639967"><ele>1098.0</ele><time>2026-05-02T15:34:38.278Z</time></trkpt><trkpt lat="42.21542" lon="13.26407"><ele>1098.0</ele><time>2026-05-02T15:34:40.278Z</time></trkpt><trkpt lat="42.215535" lon="13.26415"><ele>1098.0</ele><time>2026-05-02T15:34:42.278Z</time></trkpt><trkpt lat="42.215605" lon="13.2641983"><ele>1098.0</ele><time>2026-05-02T15:34:43.278Z</time></trkpt><trkpt lat="42.2156684" lon="13.2642419"><ele>1098.0</ele><time>2026-05-02T15:34:44.278Z</time></trkpt><trkpt lat="42.2157383" lon="13.2642757"><ele>1098.0</ele><time>2026-05-02T15:34:45.278Z</time></trkpt><trkpt lat="42.2158178" lon="13.2642846"><ele>1100.5</ele><time>2026-05-02T15:34:46.278Z</time></trkpt><trkpt lat="42.2159006" lon="13.2642792"><ele>1103.0</ele><time>2026-05-02T15:34:47.278Z</time></trkpt><trkpt lat="42.2159746" lon="13.2642852"><ele>1105.5</ele><time>2026-05-02T15:34:48.278Z</time></trkpt><trkpt lat="42.2160377" lon="13.264314"><ele>1108.0</ele><time>2026-05-02T15:34:49.278Z</time></trkpt><trkpt lat="42.2161166" lon="13.264425"><ele>1110.5</ele><time>2026-05-02T15:34:51.279Z</time></trkpt><trkpt lat="42.2161422" lon="13.2645087"><ele>1113.0</ele><time>2026-05-02T15:34:52.278Z</time></trkpt><trkpt lat="42.2161683" lon="13.2646068"><ele>1113.0</ele><time>2026-05-02T15:34:53.278Z</time></trkpt><trkpt lat="42.2161843" lon="13.2647117"><ele>1113.0</ele><time>2026-05-02T15:34:54.279Z</time></trkpt><trkpt lat="42.2161826" lon="13.2648311"><ele>1113.0</ele><time>2026-05-02T15:34:55.279Z</time></trkpt><trkpt lat="42.2161738" lon="13.2649256"><ele>1113.0</ele><time>2026-05-02T15:34:56.278Z</time></trkpt><trkpt lat="42.2161466" lon="13.2650082"><ele>1113.0</ele><time>2026-05-02T15:34:57.278Z</time></trkpt><trkpt lat="42.2161335" lon="13.2651705"><ele>1113.0</ele><time>2026-05-02T15:34:59.279Z</time></trkpt><trkpt lat="42.2161933" lon="13.2653116"><ele>1114.1666666666667</ele><time>2026-05-02T15:35:01.278Z</time></trkpt><trkpt lat="42.2162327" lon="13.2653794"><ele>1115.3333333333333</ele><time>2026-05-02T15:35:02.278Z</time></trkpt><trkpt lat="42.216295" lon="13.2654471"><ele>1116.5</ele><time>2026-05-02T15:35:03.278Z</time></trkpt><trkpt lat="42.216367" lon="13.2655324"><ele>1117.6666666666665</ele><time>2026-05-02T15:35:04.278Z</time></trkpt><trkpt lat="42.2164327" lon="13.2656269"><ele>1118.8333333333333</ele><time>2026-05-02T15:35:05.278Z</time></trkpt><trkpt lat="42.2165066" lon="13.2657142"><ele>1120.0</ele><time>2026-05-02T15:35:06.279Z</time></trkpt><trkpt lat="42.2165766" lon="13.2657773"><ele>1120.0</ele><time>2026-05-02T15:35:07.278Z</time></trkpt><trkpt lat="42.2166494" lon="13.265833"><ele>1120.0</ele><time>2026-05-02T15:35:08.278Z</time></trkpt><trkpt lat="42.2167366" lon="13.2658798"><ele>1120.0</ele><time>2026-05-02T15:35:09.278Z</time></trkpt><trkpt lat="42.2168294" lon="13.2659256"><ele>1120.0</ele><time>2026-05-02T15:35:10.278Z</time></trkpt><trkpt lat="42.2169243" lon="13.2659654"><ele>1120.0</ele><time>2026-05-02T15:35:11.278Z</time></trkpt><trkpt lat="42.2170201" lon="13.2659952"><ele>1120.0</ele><time>2026-05-02T15:35:12.278Z</time></trkpt><trkpt lat="42.2171121" lon="13.2660194"><ele>1120.0</ele><time>2026-05-02T15:35:13.279Z</time></trkpt><trkpt lat="42.2172023" lon="13.2660381"><ele>1120.0</ele><time>2026-05-02T15:35:14.278Z</time></trkpt><trkpt lat="42.217291" lon="13.2660477"><ele>1120.0</ele><time>2026-05-02T15:35:15.278Z</time></trkpt><trkpt lat="42.2173767" lon="13.266047"><ele>1120.0</ele><time>2026-05-02T15:35:16.278Z</time></trkpt><trkpt lat="42.2174583" lon="13.266025"><ele>1120.0</ele><time>2026-05-02T15:35:17.278Z</time></trkpt><trkpt lat="42.217525" lon="13.26602"><ele>1118.0</ele><time>2026-05-02T15:35:18.278Z</time></trkpt><trkpt lat="42.2176367" lon="13.2660483"><ele>1116.0</ele><time>2026-05-02T15:35:20.278Z</time></trkpt><trkpt lat="42.21775" lon="13.2661367"><ele>1114.0</ele><time>2026-05-02T15:35:22.279Z</time></trkpt><trkpt lat="42.2178033" lon="13.26619"><ele>1112.0</ele><time>2026-05-02T15:35:23.278Z</time></trkpt><trkpt lat="42.2178667" lon="13.2662317"><ele>1110.0</ele><time>2026-05-02T15:35:24.278Z</time></trkpt><trkpt lat="42.21799" lon="13.2662367"><ele>1110.0</ele><time>2026-05-02T15:35:26.278Z</time></trkpt><trkpt lat="42.2180717" lon="13.2662133"><ele>1110.0</ele><time>2026-05-02T15:35:27.278Z</time></trkpt><trkpt lat="42.21812" lon="13.2661533"><ele>1110.0</ele><time>2026-05-02T15:35:28.278Z</time></trkpt><trkpt lat="42.2181817" lon="13.2660533"><ele>1110.0</ele><time>2026-05-02T15:35:30.278Z</time></trkpt><trkpt lat="42.21826" lon="13.2659617"><ele>1110.0</ele><time>2026-05-02T15:35:32.278Z</time></trkpt><trkpt lat="42.21836" lon="13.265875"><ele>1110.6</ele><time>2026-05-02T15:35:34.278Z</time></trkpt><trkpt lat="42.2184817" lon="13.26584"><ele>1111.2</ele><time>2026-05-02T15:35:36.278Z</time></trkpt><trkpt lat="42.218595" lon="13.265795"><ele>1111.8</ele><time>2026-05-02T15:35:38.278Z</time></trkpt><trkpt lat="42.21867" lon="13.2657567"><ele>1112.4</ele><time>2026-05-02T15:35:39.279Z</time></trkpt><trkpt lat="42.2187583" lon="13.2657083"><ele>1113.0</ele><time>2026-05-02T15:35:40.278Z</time></trkpt><trkpt lat="42.2188533" lon="13.2656683"><ele>1113.0</ele><time>2026-05-02T15:35:41.278Z</time></trkpt><trkpt lat="42.2189383" lon="13.265625"><ele>1113.0</ele><time>2026-05-02T15:35:42.278Z</time></trkpt><trkpt lat="42.2190533" lon="13.2655983"><ele>1113.0</ele><time>2026-05-02T15:35:43.278Z</time></trkpt><trkpt lat="42.219125" lon="13.2655683"><ele>1113.0</ele><time>2026-05-02T15:35:44.278Z</time></trkpt><trkpt lat="42.2191967" lon="13.2655433"><ele>1113.0</ele><time>2026-05-02T15:35:45.279Z</time></trkpt><trkpt lat="42.2192983" lon="13.2654533"><ele>1113.5</ele><time>2026-05-02T15:35:47.278Z</time></trkpt><trkpt lat="42.21935" lon="13.2653867"><ele>1114.0</ele><time>2026-05-02T15:35:48.278Z</time></trkpt><trkpt lat="42.219435" lon="13.2653467"><ele>1114.5</ele><time>2026-05-02T15:35:49.278Z</time></trkpt><trkpt lat="42.2195" lon="13.2652833"><ele>1115.0</ele><time>2026-05-02T15:35:50.278Z</time></trkpt><trkpt lat="42.21957" lon="13.26522"><ele>1115.5</ele><time>2026-05-02T15:35:51.278Z</time></trkpt><trkpt lat="42.2196533" lon="13.2651517"><ele>1116.0</ele><time>2026-05-02T15:35:52.278Z</time></trkpt><trkpt lat="42.2197333" lon="13.2650667"><ele>1116.0</ele><time>2026-05-02T15:35:53.278Z</time></trkpt><trkpt lat="42.2197967" lon="13.2649833"><ele>1116.0</ele><time>2026-05-02T15:35:54.278Z</time></trkpt><trkpt lat="42.2198433" lon="13.264905"><ele>1116.0</ele><time>2026-05-02T15:35:55.278Z</time></trkpt><trkpt lat="42.2198867" lon="13.2648283"><ele>1116.0</ele><time>2026-05-02T15:35:56.278Z</time></trkpt><trkpt lat="42.2199217" lon="13.2647417"><ele>1116.0</ele><time>2026-05-02T15:35:57.278Z</time></trkpt><trkpt lat="42.2199567" lon="13.264655"><ele>1116.0</ele><time>2026-05-02T15:35:58.278Z</time></trkpt><trkpt lat="42.2200033" lon="13.2645817"><ele>1117.3999999999999</ele><time>2026-05-02T15:35:59.278Z</time></trkpt><trkpt lat="42.2200667" lon="13.264525"><ele>1118.8</ele><time>2026-05-02T15:36:00.279Z</time></trkpt><trkpt lat="42.2201817" lon="13.26449"><ele>1120.1999999999998</ele><time>2026-05-02T15:36:02.278Z</time></trkpt><trkpt lat="42.2202733" lon="13.2645633"><ele>1121.6</ele><time>2026-05-02T15:36:04.278Z</time></trkpt><trkpt lat="42.2203283" lon="13.26468"><ele>1123.0</ele><time>2026-05-02T15:36:06.279Z</time></trkpt><trkpt lat="42.2204183" lon="13.264745"><ele>1123.0</ele><time>2026-05-02T15:36:08.278Z</time></trkpt><trkpt lat="42.220495" lon="13.2647517"><ele>1123.0</ele><time>2026-05-02T15:36:09.278Z</time></trkpt><trkpt lat="42.2205833" lon="13.2647467"><ele>1123.0</ele><time>2026-05-02T15:36:10.278Z</time></trkpt><trkpt lat="42.2206667" lon="13.2647333"><ele>1123.0</ele><time>2026-05-02T15:36:11.278Z</time></trkpt><trkpt lat="42.2207467" lon="13.2647367"><ele>1123.0</ele><time>2026-05-02T15:36:12.278Z</time></trkpt><trkpt lat="42.2208283" lon="13.2647417"><ele>1123.0</ele><time>2026-05-02T15:36:13.278Z</time></trkpt><trkpt lat="42.2208967" lon="13.26476"><ele>1124.0</ele><time>2026-05-02T15:36:14.278Z</time></trkpt><trkpt lat="42.220955" lon="13.2647967"><ele>1125.0</ele><time>2026-05-02T15:36:15.278Z</time></trkpt><trkpt lat="42.2210217" lon="13.264835"><ele>1126.0</ele><time>2026-05-02T15:36:16.278Z</time></trkpt><trkpt lat="42.2210933" lon="13.26489"><ele>1127.0</ele><time>2026-05-02T15:36:17.278Z</time></trkpt><trkpt lat="42.2211717" lon="13.2649833"><ele>1128.0</ele><time>2026-05-02T15:36:18.278Z</time></trkpt><trkpt lat="42.22124" lon="13.2650567"><ele>1129.0</ele><time>2026-05-02T15:36:19.278Z</time></trkpt><trkpt lat="42.2212967" lon="13.2651167"><ele>1129.0</ele><time>2026-05-02T15:36:20.279Z</time></trkpt><trkpt lat="42.22135" lon="13.2651633"><ele>1129.0</ele><time>2026-05-02T15:36:21.278Z</time></trkpt><trkpt lat="42.2214383" lon="13.2652"><ele>1129.0</ele><time>2026-05-02T15:36:23.278Z</time></trkpt><trkpt lat="42.2215433" lon="13.2651367"><ele>1129.0</ele><time>2026-05-02T15:36:25.278Z</time></trkpt><trkpt lat="42.2216183" lon="13.26508"><ele>1129.0</ele><time>2026-05-02T15:36:26.278Z</time></trkpt><trkpt lat="42.2216767" lon="13.2650067"><ele>1129.0</ele><time>2026-05-02T15:36:27.278Z</time></trkpt><trkpt lat="42.2217433" lon="13.2649417"><ele>1128.0</ele><time>2026-05-02T15:36:28.278Z</time></trkpt><trkpt lat="42.2218133" lon="13.2648717"><ele>1127.0</ele><time>2026-05-02T15:36:29.278Z</time></trkpt><trkpt lat="42.2218817" lon="13.2647983"><ele>1126.0</ele><time>2026-05-02T15:36:30.278Z</time></trkpt><trkpt lat="42.221945" lon="13.26473"><ele>1125.0</ele><time>2026-05-02T15:36:31.278Z</time></trkpt><trkpt lat="42.2220083" lon="13.2646733"><ele>1124.0</ele><time>2026-05-02T15:36:32.278Z</time></trkpt><trkpt lat="42.2221167" lon="13.2646033"><ele>1124.6000000000001</ele><time>2026-05-02T15:36:34.278Z</time></trkpt><trkpt lat="42.2221967" lon="13.2645033"><ele>1125.2</ele><time>2026-05-02T15:36:36.278Z</time></trkpt><trkpt lat="42.2222583" lon="13.264455"><ele>1125.8000000000002</ele><time>2026-05-02T15:36:37.278Z</time></trkpt><trkpt lat="42.22235" lon="13.2644217"><ele>1126.4</ele><time>2026-05-02T15:36:38.278Z</time></trkpt><trkpt lat="42.2224467" lon="13.2643683"><ele>1127.0</ele><time>2026-05-02T15:36:39.279Z</time></trkpt><trkpt lat="42.2225083" lon="13.2642867"><ele>1127.0</ele><time>2026-05-02T15:36:40.278Z</time></trkpt><trkpt lat="42.2225607" lon="13.2642095"><ele>1127.0</ele><time>2026-05-02T15:36:41.278Z</time></trkpt><trkpt lat="42.2226127" lon="13.2641428"><ele>1127.0</ele><time>2026-05-02T15:36:42.278Z</time></trkpt><trkpt lat="42.2226718" lon="13.2640899"><ele>1127.0</ele><time>2026-05-02T15:36:43.278Z</time></trkpt><trkpt lat="42.2227386" lon="13.264044"><ele>1127.0</ele><time>2026-05-02T15:36:44.278Z</time></trkpt><trkpt lat="42.2228171" lon="13.2639992"><ele>1127.0</ele><time>2026-05-02T15:36:45.278Z</time></trkpt><trkpt lat="42.2229046" lon="13.263946"><ele>1127.0</ele><time>2026-05-02T15:36:46.278Z</time></trkpt><trkpt lat="42.2229865" lon="13.2638765"><ele>1127.0</ele><time>2026-05-02T15:36:47.278Z</time></trkpt><trkpt lat="42.2230795" lon="13.263801"><ele>1127.0</ele><time>2026-05-02T15:36:48.278Z</time></trkpt><trkpt lat="42.2231878" lon="13.2637147"><ele>1127.0</ele><time>2026-05-02T15:36:49.278Z</time></trkpt><trkpt lat="42.223294" lon="13.2636222"><ele>1127.0</ele><time>2026-05-02T15:36:50.278Z</time></trkpt><trkpt lat="42.2233869" lon="13.2635409"><ele>1127.0</ele><time>2026-05-02T15:36:51.278Z</time></trkpt><trkpt lat="42.2234558" lon="13.2634665"><ele>1127.0</ele><time>2026-05-02T15:36:52.278Z</time></trkpt><trkpt lat="42.2235069" lon="13.2633943"><ele>1127.0</ele><time>2026-05-02T15:36:53.278Z</time></trkpt><trkpt lat="42.223549" lon="13.2633303"><ele>1127.0</ele><time>2026-05-02T15:36:54.278Z</time></trkpt><trkpt lat="42.2236038" lon="13.2632827"><ele>1127.0</ele><time>2026-05-02T15:36:55.278Z</time></trkpt><trkpt lat="42.223725" lon="13.2632536"><ele>1127.0</ele><time>2026-05-02T15:36:57.278Z</time></trkpt><trkpt lat="42.2237942" lon="13.2632636"><ele>1127.0</ele><time>2026-05-02T15:36:58.278Z</time></trkpt><trkpt lat="42.2238726" lon="13.2632758"><ele>1127.0</ele><time>2026-05-02T15:36:59.278Z</time></trkpt><trkpt lat="42.2239563" lon="13.2632894"><ele>1127.0</ele><time>2026-05-02T15:37:00.278Z</time></trkpt><trkpt lat="42.2240441" lon="13.2632981"><ele>1127.0</ele><time>2026-05-02T15:37:01.278Z</time></trkpt><trkpt lat="42.2241315" lon="13.2633115"><ele>1127.0</ele><time>2026-05-02T15:37:02.278Z</time></trkpt><trkpt lat="42.2242182" lon="13.2633255"><ele>1129.0</ele><time>2026-05-02T15:37:03.278Z</time></trkpt><trkpt lat="42.2243027" lon="13.2633348"><ele>1131.0</ele><time>2026-05-02T15:37:04.279Z</time></trkpt><trkpt lat="42.2243884" lon="13.2633402"><ele>1133.0</ele><time>2026-05-02T15:37:05.278Z</time></trkpt><trkpt lat="42.2244791" lon="13.2633447"><ele>1135.0</ele><time>2026-05-02T15:37:06.278Z</time></trkpt><trkpt lat="42.2245759" lon="13.2633588"><ele>1137.0</ele><time>2026-05-02T15:37:07.279Z</time></trkpt><trkpt lat="42.2246776" lon="13.2633768"><ele>1137.0</ele><time>2026-05-02T15:37:08.278Z</time></trkpt><trkpt lat="42.2247797" lon="13.2633828"><ele>1137.0</ele><time>2026-05-02T15:37:09.278Z</time></trkpt><trkpt lat="42.2248831" lon="13.2633875"><ele>1137.0</ele><time>2026-05-02T15:37:10.278Z</time></trkpt><trkpt lat="42.2249827" lon="13.2633662"><ele>1137.0</ele><time>2026-05-02T15:37:11.278Z</time></trkpt><trkpt lat="42.2250834" lon="13.2633396"><ele>1137.0</ele><time>2026-05-02T15:37:12.278Z</time></trkpt><trkpt lat="42.225185" lon="13.2633183"><ele>1138.6</ele><time>2026-05-02T15:37:13.279Z</time></trkpt><trkpt lat="42.2252733" lon="13.26332"><ele>1140.2</ele><time>2026-05-02T15:37:14.278Z</time></trkpt><trkpt lat="42.2253633" lon="13.26331"><ele>1141.8</ele><time>2026-05-02T15:37:15.278Z</time></trkpt><trkpt lat="42.2254633" lon="13.2632917"><ele>1143.4</ele><time>2026-05-02T15:37:16.278Z</time></trkpt><trkpt lat="42.22556" lon="13.2632717"><ele>1145.0</ele><time>2026-05-02T15:37:17.279Z</time></trkpt><trkpt lat="42.2256467" lon="13.2632183"><ele>1146.1666666666667</ele><time>2026-05-02T15:37:18.278Z</time></trkpt><trkpt lat="42.2257167" lon="13.2631667"><ele>1147.3333333333335</ele><time>2026-05-02T15:37:19.279Z</time></trkpt><trkpt lat="42.2257983" lon="13.2631233"><ele>1148.5</ele><time>2026-05-02T15:37:20.278Z</time></trkpt><trkpt lat="42.2258733" lon="13.2631083"><ele>1149.6666666666667</ele><time>2026-05-02T15:37:21.278Z</time></trkpt><trkpt lat="42.22596" lon="13.2630867"><ele>1150.8333333333333</ele><time>2026-05-02T15:37:22.278Z</time></trkpt><trkpt lat="42.226045" lon="13.2630717"><ele>1152.0</ele><time>2026-05-02T15:37:23.279Z</time></trkpt><trkpt lat="42.2261233" lon="13.2630667"><ele>1152.0</ele><time>2026-05-02T15:37:24.278Z</time></trkpt><trkpt lat="42.2261917" lon="13.2630733"><ele>1152.0</ele><time>2026-05-02T15:37:25.278Z</time></trkpt><trkpt lat="42.2262767" lon="13.26308"><ele>1152.0</ele><time>2026-05-02T15:37:26.278Z</time></trkpt><trkpt lat="42.2263483" lon="13.2631067"><ele>1152.0</ele><time>2026-05-02T15:37:27.278Z</time></trkpt><trkpt lat="42.2264633" lon="13.2631683"><ele>1152.0</ele><time>2026-05-02T15:37:29.279Z</time></trkpt><trkpt lat="42.2265283" lon="13.2632183"><ele>1152.0</ele><time>2026-05-02T15:37:30.278Z</time></trkpt><trkpt lat="42.2265967" lon="13.26331"><ele>1152.0</ele><time>2026-05-02T15:37:31.278Z</time></trkpt><trkpt lat="42.22665" lon="13.2634067"><ele>1152.0</ele><time>2026-05-02T15:37:32.278Z</time></trkpt><trkpt lat="42.2266883" lon="13.2635167"><ele>1152.0</ele><time>2026-05-02T15:37:33.278Z</time></trkpt><trkpt lat="42.2267267" lon="13.263625"><ele>1152.0</ele><time>2026-05-02T15:37:34.278Z</time></trkpt><trkpt lat="42.2267583" lon="13.2637267"><ele>1152.0</ele><time>2026-05-02T15:37:35.278Z</time></trkpt><trkpt lat="42.2267833" lon="13.2638217"><ele>1152.0</ele><time>2026-05-02T15:37:36.278Z</time></trkpt><trkpt lat="42.22681" lon="13.2639183"><ele>1154.1666666666667</ele><time>2026-05-02T15:37:37.278Z</time></trkpt><trkpt lat="42.226835" lon="13.2640083"><ele>1156.3333333333333</ele><time>2026-05-02T15:37:38.278Z</time></trkpt><trkpt lat="42.226865" lon="13.2640883"><ele>1158.5</ele><time>2026-05-02T15:37:39.278Z</time></trkpt><trkpt lat="42.2269333" lon="13.2642183"><ele>1160.6666666666665</ele><time>2026-05-02T15:37:41.278Z</time></trkpt><trkpt lat="42.2269983" lon="13.2643517"><ele>1162.8333333333333</ele><time>2026-05-02T15:37:43.278Z</time></trkpt><trkpt lat="42.2270333" lon="13.264425"><ele>1165.0</ele><time>2026-05-02T15:37:44.278Z</time></trkpt><trkpt lat="42.2271183" lon="13.2645383"><ele>1165.0</ele><time>2026-05-02T15:37:46.278Z</time></trkpt><trkpt lat="42.22724" lon="13.2646133"><ele>1165.0</ele><time>2026-05-02T15:37:48.278Z</time></trkpt><trkpt lat="42.2273083" lon="13.264625"><ele>1165.0</ele><time>2026-05-02T15:37:49.278Z</time></trkpt><trkpt lat="42.2273833" lon="13.2646117"><ele>1165.0</ele><time>2026-05-02T15:37:50.278Z</time></trkpt><trkpt lat="42.2274717" lon="13.2645717"><ele>1165.0</ele><time>2026-05-02T15:37:51.278Z</time></trkpt><trkpt lat="42.2275967" lon="13.2645383"><ele>1164.4</ele><time>2026-05-02T15:37:52.278Z</time></trkpt><trkpt lat="42.2277017" lon="13.2644983"><ele>1163.8</ele><time>2026-05-02T15:37:53.278Z</time></trkpt><trkpt lat="42.2278117" lon="13.2644733"><ele>1163.2</ele><time>2026-05-02T15:37:54.278Z</time></trkpt><trkpt lat="42.2278883" lon="13.2644433"><ele>1162.6</ele><time>2026-05-02T15:37:55.278Z</time></trkpt><trkpt lat="42.228" lon="13.2643967"><ele>1162.0</ele><time>2026-05-02T15:37:56.278Z</time></trkpt><trkpt lat="42.2280933" lon="13.26433"><ele>1162.1666666666665</ele><time>2026-05-02T15:37:57.278Z</time></trkpt><trkpt lat="42.2281617" lon="13.2642817"><ele>1162.3333333333333</ele><time>2026-05-02T15:37:58.278Z</time></trkpt><trkpt lat="42.2282483" lon="13.264235"><ele>1162.5</ele><time>2026-05-02T15:37:59.278Z</time></trkpt><trkpt lat="42.2283217" lon="13.2641733"><ele>1162.6666666666667</ele><time>2026-05-02T15:38:00.278Z</time></trkpt><trkpt lat="42.2284133" lon="13.2640933"><ele>1162.8333333333335</ele><time>2026-05-02T15:38:01.278Z</time></trkpt><trkpt lat="42.22846" lon="13.2640033"><ele>1163.0</ele><time>2026-05-02T15:38:02.278Z</time></trkpt><trkpt lat="42.2285" lon="13.2639283"><ele>1163.0</ele><time>2026-05-02T15:38:03.278Z</time></trkpt><trkpt lat="42.228555" lon="13.26386"><ele>1163.0</ele><time>2026-05-02T15:38:04.278Z</time></trkpt><trkpt lat="42.2286483" lon="13.26378"><ele>1163.0</ele><time>2026-05-02T15:38:05.278Z</time></trkpt><trkpt lat="42.2287283" lon="13.26368"><ele>1163.0</ele><time>2026-05-02T15:38:06.279Z</time></trkpt><trkpt lat="42.2288" lon="13.2636167"><ele>1163.0</ele><time>2026-05-02T15:38:07.278Z</time></trkpt><trkpt lat="42.2288667" lon="13.2635583"><ele>1163.0</ele><time>2026-05-02T15:38:08.278Z</time></trkpt><trkpt lat="42.2289183" lon="13.2634783"><ele>1163.0</ele><time>2026-05-02T15:38:09.278Z</time></trkpt><trkpt lat="42.2289817" lon="13.263415"><ele>1163.0</ele><time>2026-05-02T15:38:10.278Z</time></trkpt><trkpt lat="42.2290533" lon="13.2633333"><ele>1163.0</ele><time>2026-05-02T15:38:11.278Z</time></trkpt><trkpt lat="42.229125" lon="13.2632717"><ele>1163.0</ele><time>2026-05-02T15:38:12.278Z</time></trkpt><trkpt lat="42.2291967" lon="13.26319"><ele>1163.0</ele><time>2026-05-02T15:38:13.279Z</time></trkpt><trkpt lat="42.229275" lon="13.2631217"><ele>1165.8333333333335</ele><time>2026-05-02T15:38:14.278Z</time></trkpt><trkpt lat="42.229345" lon="13.26309"><ele>1168.6666666666667</ele><time>2026-05-02T15:38:15.278Z</time></trkpt><trkpt lat="42.2293983" lon="13.2630317"><ele>1171.5</ele><time>2026-05-02T15:38:16.278Z</time></trkpt><trkpt lat="42.22945" lon="13.2629717"><ele>1174.3333333333333</ele><time>2026-05-02T15:38:17.279Z</time></trkpt><trkpt lat="42.2294933" lon="13.2629017"><ele>1177.1666666666665</ele><time>2026-05-02T15:38:18.278Z</time></trkpt><trkpt lat="42.2294967" lon="13.2627433"><ele>1180.0</ele><time>2026-05-02T15:38:20.278Z</time></trkpt><trkpt lat="42.2294683" lon="13.262665"><ele>1180.0</ele><time>2026-05-02T15:38:21.278Z</time></trkpt><trkpt lat="42.2294017" lon="13.26253"><ele>1180.0</ele><time>2026-05-02T15:38:23.278Z</time></trkpt><trkpt lat="42.22937" lon="13.26245"><ele>1180.0</ele><time>2026-05-02T15:38:24.278Z</time></trkpt><trkpt lat="42.2293567" lon="13.2623167"><ele>1180.0</ele><time>2026-05-02T15:38:26.278Z</time></trkpt><trkpt lat="42.2294067" lon="13.2622167"><ele>1180.0</ele><time>2026-05-02T15:38:28.279Z</time></trkpt><trkpt lat="42.2295017" lon="13.262125"><ele>1179.6666666666665</ele><time>2026-05-02T15:38:30.278Z</time></trkpt><trkpt lat="42.229535" lon="13.2620333"><ele>1179.3333333333333</ele><time>2026-05-02T15:38:31.278Z</time></trkpt><trkpt lat="42.2295917" lon="13.2619633"><ele>1179.0</ele><time>2026-05-02T15:38:32.278Z</time></trkpt><trkpt lat="42.2296367" lon="13.2618733"><ele>1178.6666666666667</ele><time>2026-05-02T15:38:33.278Z</time></trkpt><trkpt lat="42.2296833" lon="13.261785"><ele>1178.3333333333335</ele><time>2026-05-02T15:38:34.278Z</time></trkpt><trkpt lat="42.2297217" lon="13.2616933"><ele>1178.0</ele><time>2026-05-02T15:38:35.279Z</time></trkpt><trkpt lat="42.2297467" lon="13.2616033"><ele>1178.0</ele><time>2026-05-02T15:38:36.278Z</time></trkpt><trkpt lat="42.2297567" lon="13.2615133"><ele>1178.0</ele><time>2026-05-02T15:38:37.278Z</time></trkpt><trkpt lat="42.2297167" lon="13.26137"><ele>1178.0</ele><time>2026-05-02T15:38:39.278Z</time></trkpt><trkpt lat="42.22969" lon="13.261285"><ele>1178.0</ele><time>2026-05-02T15:38:40.279Z</time></trkpt><trkpt lat="42.22968" lon="13.2611317"><ele>1178.0</ele><time>2026-05-02T15:38:42.278Z</time></trkpt><trkpt lat="42.2297033" lon="13.260995"><ele>1177.2</ele><time>2026-05-02T15:38:44.278Z</time></trkpt><trkpt lat="42.2297933" lon="13.2608733"><ele>1176.4</ele><time>2026-05-02T15:38:46.278Z</time></trkpt><trkpt lat="42.2298517" lon="13.2608217"><ele>1175.6000000000001</ele><time>2026-05-02T15:38:47.278Z</time></trkpt><trkpt lat="42.2299717" lon="13.2607833"><ele>1174.8</ele><time>2026-05-02T15:38:49.278Z</time></trkpt><trkpt lat="42.230075" lon="13.2607967"><ele>1174.0</ele><time>2026-05-02T15:38:51.278Z</time></trkpt><trkpt lat="42.2301583" lon="13.260825"><ele>1178.6000000000001</ele><time>2026-05-02T15:38:53.278Z</time></trkpt><trkpt lat="42.2302483" lon="13.26087"><ele>1183.2</ele><time>2026-05-02T15:38:55.278Z</time></trkpt><trkpt lat="42.2303217" lon="13.2609167"><ele>1187.8000000000002</ele><time>2026-05-02T15:38:57.278Z</time></trkpt><trkpt lat="42.230405" lon="13.260945"><ele>1192.4</ele><time>2026-05-02T15:38:59.278Z</time></trkpt><trkpt lat="42.23052" lon="13.2609133"><ele>1197.0</ele><time>2026-05-02T15:39:01.278Z</time></trkpt><trkpt lat="42.230585" lon="13.2608683"><ele>1196.0</ele><time>2026-05-02T15:39:02.278Z</time></trkpt><trkpt lat="42.2306417" lon="13.2608017"><ele>1195.0</ele><time>2026-05-02T15:39:03.278Z</time></trkpt><trkpt lat="42.2306967" lon="13.26073"><ele>1194.0</ele><time>2026-05-02T15:39:04.278Z</time></trkpt><trkpt lat="42.2307417" lon="13.2606567"><ele>1193.0</ele><time>2026-05-02T15:39:05.278Z</time></trkpt><trkpt lat="42.230785" lon="13.2605867"><ele>1192.0</ele><time>2026-05-02T15:39:06.278Z</time></trkpt><trkpt lat="42.2308483" lon="13.2605217"><ele>1191.0</ele><time>2026-05-02T15:39:07.278Z</time></trkpt><trkpt lat="42.2309067" lon="13.2604767"><ele>1190.0</ele><time>2026-05-02T15:39:08.278Z</time></trkpt><trkpt lat="42.230975" lon="13.2604433"><ele>1190.0</ele><time>2026-05-02T15:39:09.278Z</time></trkpt><trkpt lat="42.2310467" lon="13.26042"><ele>1190.0</ele><time>2026-05-02T15:39:10.278Z</time></trkpt><trkpt lat="42.2311317" lon="13.2604033"><ele>1190.0</ele><time>2026-05-02T15:39:11.278Z</time></trkpt><trkpt lat="42.231225" lon="13.26039"><ele>1190.0</ele><time>2026-05-02T15:39:12.278Z</time></trkpt><trkpt lat="42.23132" lon="13.2603817"><ele>1190.0</ele><time>2026-05-02T15:39:13.278Z</time></trkpt><trkpt lat="42.23141" lon="13.2603783"><ele>1190.0</ele><time>2026-05-02T15:39:14.278Z</time></trkpt><trkpt lat="42.2314967" lon="13.2603867"><ele>1191.3333333333335</ele><time>2026-05-02T15:39:15.278Z</time></trkpt><trkpt lat="42.2315767" lon="13.2604117"><ele>1192.6666666666667</ele><time>2026-05-02T15:39:16.279Z</time></trkpt><trkpt lat="42.23165" lon="13.2604483"><ele>1194.0</ele><time>2026-05-02T15:39:17.278Z</time></trkpt><trkpt lat="42.2317183" lon="13.260505"><ele>1195.3333333333333</ele><time>2026-05-02T15:39:18.278Z</time></trkpt><trkpt lat="42.2317917" lon="13.2605567"><ele>1196.6666666666665</ele><time>2026-05-02T15:39:19.278Z</time></trkpt><trkpt lat="42.2318767" lon="13.2606183"><ele>1198.0</ele><time>2026-05-02T15:39:20.278Z</time></trkpt><trkpt lat="42.23196" lon="13.2606733"><ele>1199.0</ele><time>2026-05-02T15:39:21.278Z</time></trkpt><trkpt lat="42.2320733" lon="13.260745"><ele>1200.0</ele><time>2026-05-02T15:39:22.278Z</time></trkpt><trkpt lat="42.2321717" lon="13.2608133"><ele>1201.0</ele><time>2026-05-02T15:39:23.278Z</time></trkpt><trkpt lat="42.2322683" lon="13.2608833"><ele>1202.0</ele><time>2026-05-02T15:39:24.278Z</time></trkpt><trkpt lat="42.23236" lon="13.2609467"><ele>1203.0</ele><time>2026-05-02T15:39:25.278Z</time></trkpt><trkpt lat="42.232465" lon="13.2610217"><ele>1203.0</ele><time>2026-05-02T15:39:26.278Z</time></trkpt><trkpt lat="42.2325583" lon="13.2610917"><ele>1203.0</ele><time>2026-05-02T15:39:27.278Z</time></trkpt><trkpt lat="42.232645" lon="13.2611567"><ele>1203.0</ele><time>2026-05-02T15:39:28.278Z</time></trkpt><trkpt lat="42.2327283" lon="13.2612217"><ele>1203.0</ele><time>2026-05-02T15:39:29.278Z</time></trkpt><trkpt lat="42.2328067" lon="13.261295"><ele>1203.0</ele><time>2026-05-02T15:39:30.279Z</time></trkpt><trkpt lat="42.23288" lon="13.261365"><ele>1203.0</ele><time>2026-05-02T15:39:31.278Z</time></trkpt><trkpt lat="42.2329483" lon="13.2614233"><ele>1203.0</ele><time>2026-05-02T15:39:32.278Z</time></trkpt><trkpt lat="42.23301" lon="13.2614833"><ele>1203.0</ele><time>2026-05-02T15:39:33.278Z</time></trkpt><trkpt lat="42.23306" lon="13.2615467"><ele>1203.0</ele><time>2026-05-02T15:39:34.279Z</time></trkpt><trkpt lat="42.23311" lon="13.2616183"><ele>1203.0</ele><time>2026-05-02T15:39:35.279Z</time></trkpt><trkpt lat="42.23317" lon="13.261695"><ele>1203.0</ele><time>2026-05-02T15:39:36.278Z</time></trkpt><trkpt lat="42.23323" lon="13.2617633"><ele>1203.5</ele><time>2026-05-02T15:39:37.278Z</time></trkpt><trkpt lat="42.2332867" lon="13.26181"><ele>1204.0</ele><time>2026-05-02T15:39:38.278Z</time></trkpt><trkpt lat="42.2333633" lon="13.2618483"><ele>1204.5</ele><time>2026-05-02T15:39:39.278Z</time></trkpt><trkpt lat="42.2334317" lon="13.261875"><ele>1205.0</ele><time>2026-05-02T15:39:40.278Z</time></trkpt><trkpt lat="42.2335017" lon="13.2619"><ele>1205.5</ele><time>2026-05-02T15:39:41.278Z</time></trkpt><trkpt lat="42.2335783" lon="13.2619267"><ele>1206.0</ele><time>2026-05-02T15:39:42.278Z</time></trkpt><trkpt lat="42.2336533" lon="13.2619683"><ele>1206.0</ele><time>2026-05-02T15:39:43.278Z</time></trkpt><trkpt lat="42.2337267" lon="13.262015"><ele>1206.0</ele><time>2026-05-02T15:39:44.278Z</time></trkpt><trkpt lat="42.233795" lon="13.2620567"><ele>1206.0</ele><time>2026-05-02T15:39:45.278Z</time></trkpt><trkpt lat="42.2338617" lon="13.2620917"><ele>1206.0</ele><time>2026-05-02T15:39:46.278Z</time></trkpt><trkpt lat="42.2339267" lon="13.2621083"><ele>1206.0</ele><time>2026-05-02T15:39:47.278Z</time></trkpt><trkpt lat="42.2340333" lon="13.2620983"><ele>1206.0</ele><time>2026-05-02T15:39:49.279Z</time></trkpt><trkpt lat="42.234145" lon="13.2620483"><ele>1205.1666666666667</ele><time>2026-05-02T15:39:51.279Z</time></trkpt><trkpt lat="42.2342133" lon="13.2620217"><ele>1204.3333333333333</ele><time>2026-05-02T15:39:52.278Z</time></trkpt><trkpt lat="42.2342867" lon="13.2619867"><ele>1203.5</ele><time>2026-05-02T15:39:53.278Z</time></trkpt><trkpt lat="42.234365" lon="13.2619383"><ele>1202.6666666666665</ele><time>2026-05-02T15:39:54.278Z</time></trkpt><trkpt lat="42.2344467" lon="13.2618917"><ele>1201.8333333333333</ele><time>2026-05-02T15:39:55.279Z</time></trkpt><trkpt lat="42.23454" lon="13.2618433"><ele>1201.0</ele><time>2026-05-02T15:39:56.278Z</time></trkpt><trkpt lat="42.23464" lon="13.2617883"><ele>1201.0</ele><time>2026-05-02T15:39:57.278Z</time></trkpt><trkpt lat="42.2347433" lon="13.2617483"><ele>1201.0</ele><time>2026-05-02T15:39:58.278Z</time></trkpt><trkpt lat="42.2348417" lon="13.2617183"><ele>1201.0</ele><time>2026-05-02T15:39:59.278Z</time></trkpt><trkpt lat="42.23494" lon="13.261675"><ele>1201.0</ele><time>2026-05-02T15:40:00.278Z</time></trkpt><trkpt lat="42.2350233" lon="13.2616233"><ele>1201.0</ele><time>2026-05-02T15:40:01.278Z</time></trkpt><trkpt lat="42.2351167" lon="13.2615833"><ele>1201.6666666666665</ele><time>2026-05-02T15:40:02.278Z</time></trkpt><trkpt lat="42.235195" lon="13.2615617"><ele>1202.3333333333333</ele><time>2026-05-02T15:40:03.278Z</time></trkpt><trkpt lat="42.2352717" lon="13.26156"><ele>1203.0</ele><time>2026-05-02T15:40:04.279Z</time></trkpt><trkpt lat="42.23535" lon="13.2615383"><ele>1203.6666666666667</ele><time>2026-05-02T15:40:05.278Z</time></trkpt><trkpt lat="42.2354217" lon="13.2615133"><ele>1204.3333333333335</ele><time>2026-05-02T15:40:06.278Z</time></trkpt><trkpt lat="42.235515" lon="13.26138"><ele>1205.0</ele><time>2026-05-02T15:40:08.278Z</time></trkpt><trkpt lat="42.2355867" lon="13.2613033"><ele>1208.6</ele><time>2026-05-02T15:40:09.278Z</time></trkpt><trkpt lat="42.2356583" lon="13.2612167"><ele>1212.2</ele><time>2026-05-02T15:40:10.278Z</time></trkpt><trkpt lat="42.2357283" lon="13.26114"><ele>1215.8</ele><time>2026-05-02T15:40:11.279Z</time></trkpt><trkpt lat="42.23582" lon="13.2610733"><ele>1219.4</ele><time>2026-05-02T15:40:12.278Z</time></trkpt><trkpt lat="42.2359033" lon="13.2610083"><ele>1223.0</ele><time>2026-05-02T15:40:13.278Z</time></trkpt><trkpt lat="42.2360017" lon="13.2609633"><ele>1223.0</ele><time>2026-05-02T15:40:14.278Z</time></trkpt><trkpt lat="42.2360817" lon="13.2609333"><ele>1223.0</ele><time>2026-05-02T15:40:15.278Z</time></trkpt><trkpt lat="42.2361667" lon="13.2609067"><ele>1223.0</ele><time>2026-05-02T15:40:16.278Z</time></trkpt><trkpt lat="42.23625" lon="13.2608833"><ele>1223.0</ele><time>2026-05-02T15:40:17.278Z</time></trkpt><trkpt lat="42.236335" lon="13.2608633"><ele>1223.0</ele><time>2026-05-02T15:40:18.278Z</time></trkpt><trkpt lat="42.2364067" lon="13.2608383"><ele>1223.0</ele><time>2026-05-02T15:40:19.278Z</time></trkpt><trkpt lat="42.236505" lon="13.2608183"><ele>1223.8</ele><time>2026-05-02T15:40:20.279Z</time></trkpt><trkpt lat="42.23662" lon="13.26079"><ele>1224.6</ele><time>2026-05-02T15:40:21.278Z</time></trkpt><trkpt lat="42.2367183" lon="13.2607333"><ele>1225.4</ele><time>2026-05-02T15:40:22.278Z</time></trkpt><trkpt lat="42.2367783" lon="13.260655"><ele>1226.2</ele><time>2026-05-02T15:40:23.278Z</time></trkpt><trkpt lat="42.2368667" lon="13.2606017"><ele>1227.0</ele><time>2026-05-02T15:40:24.278Z</time></trkpt><trkpt lat="42.2369533" lon="13.2605617"><ele>1224.8</ele><time>2026-05-02T15:40:25.278Z</time></trkpt><trkpt lat="42.237045" lon="13.2605367"><ele>1222.6</ele><time>2026-05-02T15:40:26.278Z</time></trkpt><trkpt lat="42.2371367" lon="13.2605317"><ele>1220.3999999999999</ele><time>2026-05-02T15:40:27.278Z</time></trkpt><trkpt lat="42.2372267" lon="13.2605517"><ele>1218.2</ele><time>2026-05-02T15:40:28.278Z</time></trkpt><trkpt lat="42.2373183" lon="13.2605767"><ele>1216.0</ele><time>2026-05-02T15:40:29.278Z</time></trkpt><trkpt lat="42.237395" lon="13.2606117"><ele>1215.8333333333333</ele><time>2026-05-02T15:40:30.279Z</time></trkpt><trkpt lat="42.2374917" lon="13.2606217"><ele>1215.6666666666665</ele><time>2026-05-02T15:40:31.278Z</time></trkpt><trkpt lat="42.2375733" lon="13.260615"><ele>1215.5</ele><time>2026-05-02T15:40:32.278Z</time></trkpt><trkpt lat="42.23767" lon="13.26061"><ele>1215.3333333333333</ele><time>2026-05-02T15:40:33.278Z</time></trkpt><trkpt lat="42.2377517" lon="13.260615"><ele>1215.1666666666667</ele><time>2026-05-02T15:40:34.278Z</time></trkpt><trkpt lat="42.2378217" lon="13.2606067"><ele>1215.0</ele><time>2026-05-02T15:40:35.278Z</time></trkpt><trkpt lat="42.237885" lon="13.2605783"><ele>1215.0</ele><time>2026-05-02T15:40:36.278Z</time></trkpt><trkpt lat="42.2379867" lon="13.260555"><ele>1215.0</ele><time>2026-05-02T15:40:37.279Z</time></trkpt><trkpt lat="42.23806" lon="13.26051"><ele>1215.0</ele><time>2026-05-02T15:40:38.278Z</time></trkpt><trkpt lat="42.238145" lon="13.260485"><ele>1215.0</ele><time>2026-05-02T15:40:39.278Z</time></trkpt><trkpt lat="42.238235" lon="13.260465"><ele>1215.0</ele><time>2026-05-02T15:40:40.279Z</time></trkpt><trkpt lat="42.2383133" lon="13.2604517"><ele>1215.0</ele><time>2026-05-02T15:40:41.278Z</time></trkpt><trkpt lat="42.2383883" lon="13.26044"><ele>1216.0</ele><time>2026-05-02T15:40:42.278Z</time></trkpt><trkpt lat="42.2384617" lon="13.2604233"><ele>1217.0</ele><time>2026-05-02T15:40:43.278Z</time></trkpt><trkpt lat="42.2385202" lon="13.2603891"><ele>1218.0</ele><time>2026-05-02T15:40:44.278Z</time></trkpt><trkpt lat="42.2386004" lon="13.2603532"><ele>1219.0</ele><time>2026-05-02T15:40:45.278Z</time></trkpt><trkpt lat="42.2386683" lon="13.2602891"><ele>1220.0</ele><time>2026-05-02T15:40:46.278Z</time></trkpt><trkpt lat="42.2387306" lon="13.2602142"><ele>1221.0</ele><time>2026-05-02T15:40:47.278Z</time></trkpt><trkpt lat="42.2387924" lon="13.2601565"><ele>1221.0</ele><time>2026-05-02T15:40:48.278Z</time></trkpt><trkpt lat="42.2388585" lon="13.2601275"><ele>1221.0</ele><time>2026-05-02T15:40:49.278Z</time></trkpt><trkpt lat="42.2389268" lon="13.2601493"><ele>1221.0</ele><time>2026-05-02T15:40:50.278Z</time></trkpt><trkpt lat="42.2389985" lon="13.2601756"><ele>1221.0</ele><time>2026-05-02T15:40:51.278Z</time></trkpt><trkpt lat="42.2390681" lon="13.2602276"><ele>1221.0</ele><time>2026-05-02T15:40:52.278Z</time></trkpt><trkpt lat="42.2391318" lon="13.2602979"><ele>1221.0</ele><time>2026-05-02T15:40:53.278Z</time></trkpt><trkpt lat="42.2391874" lon="13.2603684"><ele>1220.1666666666667</ele><time>2026-05-02T15:40:54.278Z</time></trkpt><trkpt lat="42.2392429" lon="13.2604307"><ele>1219.3333333333333</ele><time>2026-05-02T15:40:55.278Z</time></trkpt><trkpt lat="42.2392985" lon="13.2604859"><ele>1218.5</ele><time>2026-05-02T15:40:56.278Z</time></trkpt><trkpt lat="42.2393509" lon="13.2605332"><ele>1217.6666666666665</ele><time>2026-05-02T15:40:57.278Z</time></trkpt><trkpt lat="42.2394519" lon="13.2606156"><ele>1216.8333333333333</ele><time>2026-05-02T15:40:59.278Z</time></trkpt><trkpt lat="42.2395606" lon="13.2606764"><ele>1216.0</ele><time>2026-05-02T15:41:01.278Z</time></trkpt><trkpt lat="42.239631" lon="13.2607059"><ele>1218.1666666666665</ele><time>2026-05-02T15:41:02.278Z</time></trkpt><trkpt lat="42.2397049" lon="13.2607296"><ele>1220.3333333333333</ele><time>2026-05-02T15:41:03.278Z</time></trkpt><trkpt lat="42.2397802" lon="13.2607447"><ele>1222.5</ele><time>2026-05-02T15:41:04.278Z</time></trkpt><trkpt lat="42.2398747" lon="13.260752"><ele>1224.6666666666667</ele><time>2026-05-02T15:41:05.279Z</time></trkpt><trkpt lat="42.239964" lon="13.2607446"><ele>1226.8333333333335</ele><time>2026-05-02T15:41:06.278Z</time></trkpt><trkpt lat="42.2400534" lon="13.2607211"><ele>1229.0</ele><time>2026-05-02T15:41:07.278Z</time></trkpt><trkpt lat="42.2401409" lon="13.260685"><ele>1229.0</ele><time>2026-05-02T15:41:08.279Z</time></trkpt><trkpt lat="42.2402263" lon="13.2606463"><ele>1229.0</ele><time>2026-05-02T15:41:09.278Z</time></trkpt><trkpt lat="42.240311" lon="13.2606073"><ele>1229.0</ele><time>2026-05-02T15:41:10.279Z</time></trkpt><trkpt lat="42.2403902" lon="13.2605761"><ele>1229.0</ele><time>2026-05-02T15:41:11.279Z</time></trkpt><trkpt lat="42.2404709" lon="13.2605474"><ele>1229.0</ele><time>2026-05-02T15:41:12.278Z</time></trkpt><trkpt lat="42.2405539" lon="13.2605213"><ele>1229.0</ele><time>2026-05-02T15:41:13.278Z</time></trkpt><trkpt lat="42.2406348" lon="13.2604942"><ele>1227.3333333333335</ele><time>2026-05-02T15:41:14.278Z</time></trkpt><trkpt lat="42.2407114" lon="13.2604851"><ele>1225.6666666666667</ele><time>2026-05-02T15:41:15.278Z</time></trkpt><trkpt lat="42.2407829" lon="13.2604845"><ele>1224.0</ele><time>2026-05-02T15:41:16.278Z</time></trkpt><trkpt lat="42.2408485" lon="13.2604797"><ele>1222.3333333333333</ele><time>2026-05-02T15:41:17.278Z</time></trkpt><trkpt lat="42.2409341" lon="13.2604533"><ele>1220.6666666666665</ele><time>2026-05-02T15:41:19.278Z</time></trkpt><trkpt lat="42.2410351" lon="13.2604107"><ele>1219.0</ele><time>2026-05-02T15:41:21.279Z</time></trkpt><trkpt lat="42.2410965" lon="13.2603776"><ele>1219.0</ele><time>2026-05-02T15:41:22.278Z</time></trkpt><trkpt lat="42.2411613" lon="13.2603433"><ele>1219.0</ele><time>2026-05-02T15:41:23.279Z</time></trkpt><trkpt lat="42.2412251" lon="13.2602934"><ele>1219.0</ele><time>2026-05-02T15:41:24.278Z</time></trkpt><trkpt lat="42.241283" lon="13.2602319"><ele>1219.0</ele><time>2026-05-02T15:41:25.278Z</time></trkpt><trkpt lat="42.2413327" lon="13.2601696"><ele>1219.0</ele><time>2026-05-02T15:41:26.278Z</time></trkpt><trkpt lat="42.2413847" lon="13.260117"><ele>1219.0</ele><time>2026-05-02T15:41:27.278Z</time></trkpt><trkpt lat="42.2414378" lon="13.2600582"><ele>1219.0</ele><time>2026-05-02T15:41:28.278Z</time></trkpt><trkpt lat="42.2415475" lon="13.2600072"><ele>1221.8</ele><time>2026-05-02T15:41:30.279Z</time></trkpt><trkpt lat="42.2416677" lon="13.2600213"><ele>1224.6000000000001</ele><time>2026-05-02T15:41:32.278Z</time></trkpt><trkpt lat="42.2417995" lon="13.2600345"><ele>1227.4</ele><time>2026-05-02T15:41:34.278Z</time></trkpt><trkpt lat="42.2418706" lon="13.2600212"><ele>1230.2</ele><time>2026-05-02T15:41:35.278Z</time></trkpt><trkpt lat="42.2419353" lon="13.2599991"><ele>1233.0</ele><time>2026-05-02T15:41:36.278Z</time></trkpt><trkpt lat="42.2419981" lon="13.259966"><ele>1233.0</ele><time>2026-05-02T15:41:37.278Z</time></trkpt><trkpt lat="42.2420575" lon="13.2599262"><ele>1233.0</ele><time>2026-05-02T15:41:38.278Z</time></trkpt><trkpt lat="42.2421192" lon="13.2599029"><ele>1233.0</ele><time>2026-05-02T15:41:39.278Z</time></trkpt><trkpt lat="42.2421917" lon="13.2598967"><ele>1233.0</ele><time>2026-05-02T15:41:40.278Z</time></trkpt><trkpt lat="42.2422767" lon="13.2598583"><ele>1233.0</ele><time>2026-05-02T15:41:41.278Z</time></trkpt><trkpt lat="42.2423667" lon="13.259815"><ele>1233.0</ele><time>2026-05-02T15:41:42.279Z</time></trkpt><trkpt lat="42.242445" lon="13.2597867"><ele>1232.0</ele><time>2026-05-02T15:41:43.279Z</time></trkpt><trkpt lat="42.242525" lon="13.2597517"><ele>1231.0</ele><time>2026-05-02T15:41:44.278Z</time></trkpt><trkpt lat="42.242605" lon="13.259705"><ele>1230.0</ele><time>2026-05-02T15:41:45.278Z</time></trkpt><trkpt lat="42.2426783" lon="13.259685"><ele>1229.0</ele><time>2026-05-02T15:41:46.278Z</time></trkpt><trkpt lat="42.2427433" lon="13.2597033"><ele>1228.0</ele><time>2026-05-02T15:41:47.278Z</time></trkpt><trkpt lat="42.2428167" lon="13.2597083"><ele>1227.0</ele><time>2026-05-02T15:41:48.278Z</time></trkpt><trkpt lat="42.2429017" lon="13.2596933"><ele>1227.0</ele><time>2026-05-02T15:41:49.278Z</time></trkpt><trkpt lat="42.2429833" lon="13.25966"><ele>1227.0</ele><time>2026-05-02T15:41:50.278Z</time></trkpt><trkpt lat="42.2430617" lon="13.2596117"><ele>1227.0</ele><time>2026-05-02T15:41:51.278Z</time></trkpt><trkpt lat="42.2431383" lon="13.2595517"><ele>1227.0</ele><time>2026-05-02T15:41:52.278Z</time></trkpt><trkpt lat="42.2432083" lon="13.259495"><ele>1227.0</ele><time>2026-05-02T15:41:53.278Z</time></trkpt><trkpt lat="42.2432717" lon="13.2594483"><ele>1227.0</ele><time>2026-05-02T15:41:54.278Z</time></trkpt><trkpt lat="42.2433733" lon="13.2593717"><ele>1230.4</ele><time>2026-05-02T15:41:56.278Z</time></trkpt><trkpt lat="42.2434667" lon="13.2592633"><ele>1233.8000000000002</ele><time>2026-05-02T15:41:58.279Z</time></trkpt><trkpt lat="42.24352" lon="13.259205"><ele>1237.2</ele><time>2026-05-02T15:41:59.278Z</time></trkpt><trkpt lat="42.2435917" lon="13.25915"><ele>1240.6000000000001</ele><time>2026-05-02T15:42:00.278Z</time></trkpt><trkpt lat="42.2436683" lon="13.2591017"><ele>1244.0</ele><time>2026-05-02T15:42:01.278Z</time></trkpt><trkpt lat="42.2437567" lon="13.2590533"><ele>1244.0</ele><time>2026-05-02T15:42:02.278Z</time></trkpt><trkpt lat="42.2438367" lon="13.2589933"><ele>1244.0</ele><time>2026-05-02T15:42:03.278Z</time></trkpt><trkpt lat="42.2439117" lon="13.258935"><ele>1244.0</ele><time>2026-05-02T15:42:04.278Z</time></trkpt><trkpt lat="42.2439667" lon="13.2588683"><ele>1244.0</ele><time>2026-05-02T15:42:05.278Z</time></trkpt><trkpt lat="42.2440083" lon="13.25879"><ele>1244.0</ele><time>2026-05-02T15:42:06.278Z</time></trkpt><trkpt lat="42.2440883" lon="13.2586717"><ele>1244.0</ele><time>2026-05-02T15:42:08.278Z</time></trkpt><trkpt lat="42.244145" lon="13.2586217"><ele>1245.1666666666667</ele><time>2026-05-02T15:42:09.278Z</time></trkpt><trkpt lat="42.244215" lon="13.258585"><ele>1246.3333333333335</ele><time>2026-05-02T15:42:10.278Z</time></trkpt><trkpt lat="42.2442967" lon="13.258565"><ele>1247.5</ele><time>2026-05-02T15:42:11.278Z</time></trkpt><trkpt lat="42.2443883" lon="13.2585517"><ele>1248.6666666666667</ele><time>2026-05-02T15:42:12.278Z</time></trkpt><trkpt lat="42.2444733" lon="13.2585367"><ele>1249.8333333333333</ele><time>2026-05-02T15:42:13.278Z</time></trkpt><trkpt lat="42.2445467" lon="13.2585633"><ele>1251.0</ele><time>2026-05-02T15:42:14.278Z</time></trkpt><trkpt lat="42.2446183" lon="13.258605"><ele>1251.0</ele><time>2026-05-02T15:42:15.278Z</time></trkpt><trkpt lat="42.2446967" lon="13.2586583"><ele>1251.0</ele><time>2026-05-02T15:42:16.278Z</time></trkpt><trkpt lat="42.2447783" lon="13.2587117"><ele>1251.0</ele><time>2026-05-02T15:42:17.279Z</time></trkpt><trkpt lat="42.2448467" lon="13.25878"><ele>1251.0</ele><time>2026-05-02T15:42:18.278Z</time></trkpt><trkpt lat="42.244915" lon="13.25885"><ele>1251.0</ele><time>2026-05-02T15:42:19.278Z</time></trkpt><trkpt lat="42.2449833" lon="13.25893"><ele>1251.0</ele><time>2026-05-02T15:42:20.278Z</time></trkpt><trkpt lat="42.245055" lon="13.258995"><ele>1251.8</ele><time>2026-05-02T15:42:21.278Z</time></trkpt><trkpt lat="42.2451183" lon="13.2590583"><ele>1252.6</ele><time>2026-05-02T15:42:22.278Z</time></trkpt><trkpt lat="42.2451833" lon="13.2591117"><ele>1253.4</ele><time>2026-05-02T15:42:23.278Z</time></trkpt><trkpt lat="42.245275" lon="13.259155"><ele>1254.2</ele><time>2026-05-02T15:42:24.279Z</time></trkpt><trkpt lat="42.2453833" lon="13.2591983"><ele>1255.0</ele><time>2026-05-02T15:42:25.278Z</time></trkpt><trkpt lat="42.2455" lon="13.2592433"><ele>1255.0</ele><time>2026-05-02T15:42:26.278Z</time></trkpt><trkpt lat="42.2456133" lon="13.2592833"><ele>1255.0</ele><time>2026-05-02T15:42:27.278Z</time></trkpt><trkpt lat="42.2457317" lon="13.2593183"><ele>1255.0</ele><time>2026-05-02T15:42:28.278Z</time></trkpt><trkpt lat="42.2458317" lon="13.2593517"><ele>1255.0</ele><time>2026-05-02T15:42:29.278Z</time></trkpt><trkpt lat="42.2459117" lon="13.2593883"><ele>1255.0</ele><time>2026-05-02T15:42:30.278Z</time></trkpt><trkpt lat="42.2459883" lon="13.2594217"><ele>1254.5</ele><time>2026-05-02T15:42:31.278Z</time></trkpt><trkpt lat="42.2460783" lon="13.2594667"><ele>1254.0</ele><time>2026-05-02T15:42:32.279Z</time></trkpt><trkpt lat="42.2436683" lon="13.2591017"><ele>1253.5</ele><time>2026-05-02T15:42:01.278Z</time></trkpt><trkpt lat="42.2437567" lon="13.2590533"><ele>1253.0</ele><time>2026-05-02T15:42:02.278Z</time></trkpt><trkpt lat="42.2438367" lon="13.2589933"><ele>1252.5</ele><time>2026-05-02T15:42:03.278Z</time></trkpt><trkpt lat="42.2439117" lon="13.258935"><ele>1252.0</ele><time>2026-05-02T15:42:04.278Z</time></trkpt><trkpt lat="42.2439667" lon="13.2588683"><ele>1251.5</ele><time>2026-05-02T15:42:05.278Z</time></trkpt><trkpt lat="42.2440083" lon="13.25879"><ele>1251.0</ele><time>2026-05-02T15:42:06.278Z</time></trkpt><trkpt lat="42.2440883" lon="13.2586717"><ele>1251.0</ele><time>2026-05-02T15:42:08.278Z</time></trkpt><trkpt lat="42.244145" lon="13.2586217"><ele>1251.0</ele><time>2026-05-02T15:42:09.278Z</time></trkpt><trkpt lat="42.244215" lon="13.258585"><ele>1251.0</ele><time>2026-05-02T15:42:10.278Z</time></trkpt><trkpt lat="42.2442967" lon="13.258565"><ele>1251.0</ele><time>2026-05-02T15:42:11.278Z</time></trkpt><trkpt lat="42.2443883" lon="13.2585517"><ele>1251.0</ele><time>2026-05-02T15:42:12.278Z</time></trkpt><trkpt lat="42.2444733" lon="13.2585367"><ele>1251.0</ele><time>2026-05-02T15:42:13.278Z</time></trkpt><trkpt lat="42.2445467" lon="13.2585633"><ele>1251.0</ele><time>2026-05-02T15:42:14.278Z</time></trkpt><trkpt lat="42.2446183" lon="13.258605"><ele>1251.0</ele><time>2026-05-02T15:42:15.278Z</time></trkpt><trkpt lat="42.2446967" lon="13.2586583"><ele>1251.0</ele><time>2026-05-02T15:42:16.278Z</time></trkpt><trkpt lat="42.2447783" lon="13.2587117"><ele>1251.0</ele><time>2026-05-02T15:42:17.279Z</time></trkpt><trkpt lat="42.2448467" lon="13.25878"><ele>1251.0</ele><time>2026-05-02T15:42:18.278Z</time></trkpt><trkpt lat="42.244915" lon="13.25885"><ele>1251.0</ele><time>2026-05-02T15:42:19.278Z</time></trkpt><trkpt lat="42.2449833" lon="13.25893"><ele>1251.8</ele><time>2026-05-02T15:42:20.278Z</time></trkpt><trkpt lat="42.245055" lon="13.258995"><ele>1252.6</ele><time>2026-05-02T15:42:21.278Z</time></trkpt><trkpt lat="42.2451183" lon="13.2590583"><ele>1253.4</ele><time>2026-05-02T15:42:22.278Z</time></trkpt><trkpt lat="42.2451833" lon="13.2591117"><ele>1254.2</ele><time>2026-05-02T15:42:23.278Z</time></trkpt><trkpt lat="42.245275" lon="13.259155"><ele>1255.0</ele><time>2026-05-02T15:42:24.279Z</time></trkpt><trkpt lat="42.2453833" lon="13.2591983"><ele>1255.0</ele><time>2026-05-02T15:42:25.278Z</time></trkpt><trkpt lat="42.2455" lon="13.2592433"><ele>1255.0</ele><time>2026-05-02T15:42:26.278Z</time></trkpt><trkpt lat="42.2456133" lon="13.2592833"><ele>1255.0</ele><time>2026-05-02T15:42:27.278Z</time></trkpt><trkpt lat="42.2457317" lon="13.2593183"><ele>1255.0</ele><time>2026-05-02T15:42:28.278Z</time></trkpt><trkpt lat="42.2458317" lon="13.2593517"><ele>1254.8333333333333</ele><time>2026-05-02T15:42:29.278Z</time></trkpt><trkpt lat="42.2459117" lon="13.2593883"><ele>1254.6666666666665</ele><time>2026-05-02T15:42:30.278Z</time></trkpt><trkpt lat="42.2459883" lon="13.2594217"><ele>1254.5</ele><time>2026-05-02T15:42:31.278Z</time></trkpt><trkpt lat="42.2460783" lon="13.2594667"><ele>1254.3333333333333</ele><time>2026-05-02T15:42:32.279Z</time></trkpt><trkpt lat="42.2461583" lon="13.2595167"><ele>1254.1666666666667</ele><time>2026-05-02T15:42:33.278Z</time></trkpt><trkpt lat="42.2462183" lon="13.2595833"><ele>1254.0</ele><time>2026-05-02T15:42:34.278Z</time></trkpt><trkpt lat="42.24626" lon="13.2597317"><ele>1257.0</ele><time>2026-05-02T15:42:36.278Z</time></trkpt><trkpt lat="42.2462633" lon="13.2598233"><ele>1260.0</ele><time>2026-05-02T15:42:37.278Z</time></trkpt><trkpt lat="42.2462567" lon="13.2599183"><ele>1263.0</ele><time>2026-05-02T15:42:38.279Z</time></trkpt><trkpt lat="42.2462617" lon="13.2600033"><ele>1266.0</ele><time>2026-05-02T15:42:39.278Z</time></trkpt><trkpt lat="42.2463117" lon="13.2601067"><ele>1269.0</ele><time>2026-05-02T15:42:41.278Z</time></trkpt><trkpt lat="42.2463883" lon="13.2601467"><ele>1272.0</ele><time>2026-05-02T15:42:43.278Z</time></trkpt><trkpt lat="42.2465267" lon="13.2601433"><ele>1273.0</ele><time>2026-05-02T15:42:45.278Z</time></trkpt><trkpt lat="42.2466133" lon="13.2601267"><ele>1274.0</ele><time>2026-05-02T15:42:46.278Z</time></trkpt><trkpt lat="42.2466917" lon="13.26008"><ele>1275.0</ele><time>2026-05-02T15:42:47.278Z</time></trkpt><trkpt lat="42.24676" lon="13.2600167"><ele>1276.0</ele><time>2026-05-02T15:42:48.278Z</time></trkpt><trkpt lat="42.2468217" lon="13.2599417"><ele>1277.0</ele><time>2026-05-02T15:42:49.278Z</time></trkpt><trkpt lat="42.2468767" lon="13.2598633"><ele>1278.0</ele><time>2026-05-02T15:42:50.278Z</time></trkpt><trkpt lat="42.2469167" lon="13.2597917"><ele>1278.0</ele><time>2026-05-02T15:42:51.278Z</time></trkpt><trkpt lat="42.2470117" lon="13.2597183"><ele>1278.0</ele><time>2026-05-02T15:42:53.278Z</time></trkpt><trkpt lat="42.247095" lon="13.2597733"><ele>1278.0</ele><time>2026-05-02T15:42:55.278Z</time></trkpt><trkpt lat="42.2471217" lon="13.2599217"><ele>1278.0</ele><time>2026-05-02T15:42:57.278Z</time></trkpt><trkpt lat="42.2471" lon="13.2600883"><ele>1278.0</ele><time>2026-05-02T15:42:59.278Z</time></trkpt><trkpt lat="42.2470767" lon="13.26018"><ele>1278.0</ele><time>2026-05-02T15:43:00.278Z</time></trkpt><trkpt lat="42.2470817" lon="13.2603083"><ele>1278.0</ele><time>2026-05-02T15:43:02.278Z</time></trkpt><trkpt lat="42.2471383" lon="13.260355"><ele>1278.0</ele><time>2026-05-02T15:43:04.278Z</time></trkpt><trkpt lat="42.2472117" lon="13.2603467"><ele>1278.0</ele><time>2026-05-02T15:43:06.278Z</time></trkpt><trkpt lat="42.2472733" lon="13.2602617"><ele>1278.0</ele><time>2026-05-02T15:43:08.278Z</time></trkpt><trkpt lat="42.24731" lon="13.2601667"><ele>1278.0</ele><time>2026-05-02T15:43:09.278Z</time></trkpt><trkpt lat="42.247345" lon="13.260035"><ele>1279.6</ele><time>2026-05-02T15:43:10.278Z</time></trkpt><trkpt lat="42.2473733" lon="13.2598933"><ele>1281.1999999999998</ele><time>2026-05-02T15:43:11.278Z</time></trkpt><trkpt lat="42.2474017" lon="13.2597567"><ele>1282.8</ele><time>2026-05-02T15:43:12.278Z</time></trkpt><trkpt lat="42.2474367" lon="13.2596417"><ele>1284.3999999999999</ele><time>2026-05-02T15:43:13.278Z</time></trkpt><trkpt lat="42.24748" lon="13.2595567"><ele>1286.0</ele><time>2026-05-02T15:43:14.278Z</time></trkpt><trkpt lat="42.247535" lon="13.2594833"><ele>1286.0</ele><time>2026-05-02T15:43:15.278Z</time></trkpt><trkpt lat="42.24759" lon="13.259425"><ele>1286.0</ele><time>2026-05-02T15:43:16.278Z</time></trkpt><trkpt lat="42.2476483" lon="13.259375"><ele>1286.0</ele><time>2026-05-02T15:43:17.278Z</time></trkpt><trkpt lat="42.2476983" lon="13.2593117"><ele>1286.0</ele><time>2026-05-02T15:43:18.278Z</time></trkpt><trkpt lat="42.2477633" lon="13.259165"><ele>1286.0</ele><time>2026-05-02T15:43:20.278Z</time></trkpt><trkpt lat="42.2478367" lon="13.2590383"><ele>1284.0</ele><time>2026-05-02T15:43:22.278Z</time></trkpt><trkpt lat="42.247955" lon="13.25893"><ele>1282.0</ele><time>2026-05-02T15:43:24.278Z</time></trkpt><trkpt lat="42.248015" lon="13.258855"><ele>1280.0</ele><time>2026-05-02T15:43:25.279Z</time></trkpt><trkpt lat="42.2480667" lon="13.2587683"><ele>1278.0</ele><time>2026-05-02T15:43:26.278Z</time></trkpt><trkpt lat="42.248105" lon="13.258685"><ele>1276.0</ele><time>2026-05-02T15:43:27.278Z</time></trkpt><trkpt lat="42.2481367" lon="13.2586033"><ele>1274.0</ele><time>2026-05-02T15:43:28.278Z</time></trkpt><trkpt lat="42.2481667" lon="13.2585217"><ele>1275.6666666666667</ele><time>2026-05-02T15:43:29.278Z</time></trkpt><trkpt lat="42.24819" lon="13.2584367"><ele>1277.3333333333335</ele><time>2026-05-02T15:43:30.278Z</time></trkpt><trkpt lat="42.2482167" lon="13.2583567"><ele>1279.0</ele><time>2026-05-02T15:43:31.278Z</time></trkpt><trkpt lat="42.2482483" lon="13.25827"><ele>1280.6666666666667</ele><time>2026-05-02T15:43:32.278Z</time></trkpt><trkpt lat="42.2482883" lon="13.2581767"><ele>1282.3333333333333</ele><time>2026-05-02T15:43:33.278Z</time></trkpt><trkpt lat="42.2483383" lon="13.25808"><ele>1284.0</ele><time>2026-05-02T15:43:34.278Z</time></trkpt><trkpt lat="42.2483933" lon="13.2579933"><ele>1284.0</ele><time>2026-05-02T15:43:35.278Z</time></trkpt><trkpt lat="42.2484417" lon="13.257905"><ele>1284.0</ele><time>2026-05-02T15:43:36.278Z</time></trkpt><trkpt lat="42.24848" lon="13.2578233"><ele>1284.0</ele><time>2026-05-02T15:43:37.278Z</time></trkpt><trkpt lat="42.2485033" lon="13.2577383"><ele>1284.0</ele><time>2026-05-02T15:43:38.278Z</time></trkpt><trkpt lat="42.2485283" lon="13.2576333"><ele>1284.0</ele><time>2026-05-02T15:43:39.278Z</time></trkpt><trkpt lat="42.2485633" lon="13.25752"><ele>1284.0</ele><time>2026-05-02T15:43:40.278Z</time></trkpt><trkpt lat="42.2486133" lon="13.257405"><ele>1284.0</ele><time>2026-05-02T15:43:41.279Z</time></trkpt><trkpt lat="42.2486717" lon="13.257295"><ele>1284.0</ele><time>2026-05-02T15:43:42.278Z</time></trkpt><trkpt lat="42.2487367" lon="13.2572017"><ele>1284.0</ele><time>2026-05-02T15:43:43.278Z</time></trkpt><trkpt lat="42.2488033" lon="13.25713"><ele>1284.0</ele><time>2026-05-02T15:43:44.278Z</time></trkpt><trkpt lat="42.2488717" lon="13.2570783"><ele>1284.0</ele><time>2026-05-02T15:43:45.278Z</time></trkpt><trkpt lat="42.2489433" lon="13.2570383"><ele>1284.0</ele><time>2026-05-02T15:43:46.278Z</time></trkpt><trkpt lat="42.2490133" lon="13.2569917"><ele>1285.1666666666667</ele><time>2026-05-02T15:43:47.278Z</time></trkpt><trkpt lat="42.2490933" lon="13.25695"><ele>1286.3333333333333</ele><time>2026-05-02T15:43:48.278Z</time></trkpt><trkpt lat="42.2491733" lon="13.256915"><ele>1287.5</ele><time>2026-05-02T15:43:49.278Z</time></trkpt><trkpt lat="42.2492533" lon="13.256885"><ele>1288.6666666666665</ele><time>2026-05-02T15:43:50.278Z</time></trkpt><trkpt lat="42.24933" lon="13.25686"><ele>1289.8333333333333</ele><time>2026-05-02T15:43:51.278Z</time></trkpt><trkpt lat="42.2494133" lon="13.2568433"><ele>1291.0</ele><time>2026-05-02T15:43:52.278Z</time></trkpt><trkpt lat="42.2495017" lon="13.2568383"><ele>1291.0</ele><time>2026-05-02T15:43:53.278Z</time></trkpt><trkpt lat="42.249585" lon="13.25684"><ele>1291.0</ele><time>2026-05-02T15:43:54.279Z</time></trkpt><trkpt lat="42.24965" lon="13.256845"><ele>1291.0</ele><time>2026-05-02T15:43:55.279Z</time></trkpt><trkpt lat="42.2497133" lon="13.2568433"><ele>1291.0</ele><time>2026-05-02T15:43:56.278Z</time></trkpt><trkpt lat="42.2498317" lon="13.25683"><ele>1291.0</ele><time>2026-05-02T15:43:58.278Z</time></trkpt><trkpt lat="42.24996" lon="13.2567867"><ele>1291.6</ele><time>2026-05-02T15:44:00.278Z</time></trkpt><trkpt lat="42.2500483" lon="13.2567383"><ele>1292.1999999999998</ele><time>2026-05-02T15:44:01.278Z</time></trkpt><trkpt lat="42.2501267" lon="13.2566933"><ele>1292.8000000000002</ele><time>2026-05-02T15:44:02.278Z</time></trkpt><trkpt lat="42.2502067" lon="13.25664"><ele>1293.4</ele><time>2026-05-02T15:44:03.278Z</time></trkpt><trkpt lat="42.2502867" lon="13.2565783"><ele>1294.0</ele><time>2026-05-02T15:44:04.278Z</time></trkpt><trkpt lat="42.2503633" lon="13.25652"><ele>1294.0</ele><time>2026-05-02T15:44:05.278Z</time></trkpt><trkpt lat="42.2504283" lon="13.2564767"><ele>1294.0</ele><time>2026-05-02T15:44:06.278Z</time></trkpt><trkpt lat="42.2505367" lon="13.2564217"><ele>1294.0</ele><time>2026-05-02T15:44:08.278Z</time></trkpt><trkpt lat="42.2506833" lon="13.2564233"><ele>1294.0</ele><time>2026-05-02T15:44:10.278Z</time></trkpt><trkpt lat="42.2507883" lon="13.25641"><ele>1294.0</ele><time>2026-05-02T15:44:11.278Z</time></trkpt><trkpt lat="42.250885" lon="13.2563967"><ele>1294.2</ele><time>2026-05-02T15:44:12.278Z</time></trkpt><trkpt lat="42.25097" lon="13.2563933"><ele>1294.4</ele><time>2026-05-02T15:44:13.278Z</time></trkpt><trkpt lat="42.25106" lon="13.2563983"><ele>1294.6</ele><time>2026-05-02T15:44:14.278Z</time></trkpt><trkpt lat="42.2511517" lon="13.2564183"><ele>1294.8</ele><time>2026-05-02T15:44:15.278Z</time></trkpt><trkpt lat="42.2512383" lon="13.2564567"><ele>1295.0</ele><time>2026-05-02T15:44:16.278Z</time></trkpt><trkpt lat="42.2513333" lon="13.2564983"><ele>1295.0</ele><time>2026-05-02T15:44:17.279Z</time></trkpt><trkpt lat="42.25143" lon="13.2565483"><ele>1295.0</ele><time>2026-05-02T15:44:18.278Z</time></trkpt><trkpt lat="42.2515317" lon="13.2565983"><ele>1295.0</ele><time>2026-05-02T15:44:19.278Z</time></trkpt><trkpt lat="42.2516167" lon="13.2566483"><ele>1295.0</ele><time>2026-05-02T15:44:20.278Z</time></trkpt><trkpt lat="42.251685" lon="13.2566833"><ele>1295.0</ele><time>2026-05-02T15:44:21.278Z</time></trkpt><trkpt lat="42.25178" lon="13.2567183"><ele>1295.6</ele><time>2026-05-02T15:44:23.278Z</time></trkpt><trkpt lat="42.2518667" lon="13.25666"><ele>1296.2</ele><time>2026-05-02T15:44:25.278Z</time></trkpt><trkpt lat="42.251915" lon="13.2565917"><ele>1296.8000000000002</ele><time>2026-05-02T15:44:26.278Z</time></trkpt><trkpt lat="42.251975" lon="13.2564933"><ele>1297.4</ele><time>2026-05-02T15:44:27.278Z</time></trkpt><trkpt lat="42.2520383" lon="13.256395"><ele>1298.0</ele><time>2026-05-02T15:44:28.278Z</time></trkpt><trkpt lat="42.2520933" lon="13.2562917"><ele>1298.6000000000001</ele><time>2026-05-02T15:44:29.278Z</time></trkpt><trkpt lat="42.2521383" lon="13.2561817"><ele>1299.2</ele><time>2026-05-02T15:44:30.279Z</time></trkpt><trkpt lat="42.252195" lon="13.2560767"><ele>1299.8</ele><time>2026-05-02T15:44:31.278Z</time></trkpt><trkpt lat="42.252255" lon="13.25595"><ele>1300.4</ele><time>2026-05-02T15:44:32.278Z</time></trkpt><trkpt lat="42.2523267" lon="13.2558183"><ele>1301.0</ele><time>2026-05-02T15:44:33.279Z</time></trkpt><trkpt lat="42.2523967" lon="13.2556917"><ele>1298.4</ele><time>2026-05-02T15:44:34.278Z</time></trkpt><trkpt lat="42.2524533" lon="13.2555933"><ele>1295.8</ele><time>2026-05-02T15:44:35.278Z</time></trkpt><trkpt lat="42.2525117" lon="13.2555067"><ele>1293.2</ele><time>2026-05-02T15:44:36.278Z</time></trkpt><trkpt lat="42.252585" lon="13.2554167"><ele>1290.6000000000001</ele><time>2026-05-02T15:44:37.278Z</time></trkpt><trkpt lat="42.2526717" lon="13.255335"><ele>1288.0</ele><time>2026-05-02T15:44:38.278Z</time></trkpt><trkpt lat="42.252755" lon="13.2552567"><ele>1288.0</ele><time>2026-05-02T15:44:39.278Z</time></trkpt><trkpt lat="42.25284" lon="13.25519"><ele>1288.0</ele><time>2026-05-02T15:44:40.278Z</time></trkpt><trkpt lat="42.2529183" lon="13.2551383"><ele>1288.0</ele><time>2026-05-02T15:44:41.278Z</time></trkpt><trkpt lat="42.2529967" lon="13.2551033"><ele>1288.0</ele><time>2026-05-02T15:44:42.278Z</time></trkpt><trkpt lat="42.2530883" lon="13.25508"><ele>1288.0</ele><time>2026-05-02T15:44:43.278Z</time></trkpt><trkpt lat="42.2531817" lon="13.2550583"><ele>1289.0</ele><time>2026-05-02T15:44:44.278Z</time></trkpt><trkpt lat="42.2532617" lon="13.2550333"><ele>1290.0</ele><time>2026-05-02T15:44:45.278Z</time></trkpt><trkpt lat="42.253335" lon="13.2550067"><ele>1291.0</ele><time>2026-05-02T15:44:46.278Z</time></trkpt><trkpt lat="42.2534" lon="13.2549783"><ele>1292.0</ele><time>2026-05-02T15:44:47.278Z</time></trkpt><trkpt lat="42.253465" lon="13.2549467"><ele>1293.0</ele><time>2026-05-02T15:44:48.278Z</time></trkpt><trkpt lat="42.253535" lon="13.2549033"><ele>1294.0</ele><time>2026-05-02T15:44:49.278Z</time></trkpt><trkpt lat="42.2536183" lon="13.2548517"><ele>1294.0</ele><time>2026-05-02T15:44:50.279Z</time></trkpt><trkpt lat="42.2537017" lon="13.2547883"><ele>1294.0</ele><time>2026-05-02T15:44:51.278Z</time></trkpt><trkpt lat="42.2537833" lon="13.2547283"><ele>1294.0</ele><time>2026-05-02T15:44:52.278Z</time></trkpt><trkpt lat="42.253865" lon="13.2546867"><ele>1294.0</ele><time>2026-05-02T15:44:53.278Z</time></trkpt><trkpt lat="42.2539533" lon="13.2546433"><ele>1294.0</ele><time>2026-05-02T15:44:54.278Z</time></trkpt><trkpt lat="42.2540467" lon="13.25459"><ele>1292.0</ele><time>2026-05-02T15:44:55.278Z</time></trkpt><trkpt lat="42.2541383" lon="13.2545467"><ele>1290.0</ele><time>2026-05-02T15:44:56.278Z</time></trkpt><trkpt lat="42.254235" lon="13.2545017"><ele>1288.0</ele><time>2026-05-02T15:44:57.278Z</time></trkpt><trkpt lat="42.2543417" lon="13.2544367"><ele>1286.0</ele><time>2026-05-02T15:44:58.278Z</time></trkpt><trkpt lat="42.2544533" lon="13.254355"><ele>1284.0</ele><time>2026-05-02T15:44:59.278Z</time></trkpt><trkpt lat="42.2545633" lon="13.2542817"><ele>1284.0</ele><time>2026-05-02T15:45:00.278Z</time></trkpt><trkpt lat="42.2546567" lon="13.254215"><ele>1284.0</ele><time>2026-05-02T15:45:01.278Z</time></trkpt><trkpt lat="42.2547483" lon="13.2541617"><ele>1284.0</ele><time>2026-05-02T15:45:02.279Z</time></trkpt><trkpt lat="42.2548283" lon="13.254105"><ele>1284.0</ele><time>2026-05-02T15:45:03.278Z</time></trkpt><trkpt lat="42.2549133" lon="13.2540767"><ele>1284.0</ele><time>2026-05-02T15:45:04.278Z</time></trkpt><trkpt lat="42.25501" lon="13.2540333"><ele>1282.2</ele><time>2026-05-02T15:45:05.278Z</time></trkpt><trkpt lat="42.2551067" lon="13.2539833"><ele>1280.4</ele><time>2026-05-02T15:45:06.278Z</time></trkpt><trkpt lat="42.2552083" lon="13.2539367"><ele>1278.6</ele><time>2026-05-02T15:45:07.278Z</time></trkpt><trkpt lat="42.2553033" lon="13.2538967"><ele>1276.8</ele><time>2026-05-02T15:45:08.278Z</time></trkpt><trkpt lat="42.2554067" lon="13.2538333"><ele>1275.0</ele><time>2026-05-02T15:45:09.278Z</time></trkpt><trkpt lat="42.255505" lon="13.25376"><ele>1275.0</ele><time>2026-05-02T15:45:10.278Z</time></trkpt><trkpt lat="42.2555867" lon="13.2536867"><ele>1275.0</ele><time>2026-05-02T15:45:11.278Z</time></trkpt><trkpt lat="42.2556567" lon="13.253615"><ele>1275.0</ele><time>2026-05-02T15:45:12.278Z</time></trkpt><trkpt lat="42.25572" lon="13.253545"><ele>1275.0</ele><time>2026-05-02T15:45:13.278Z</time></trkpt><trkpt lat="42.2557683" lon="13.2534667"><ele>1275.0</ele><time>2026-05-02T15:45:14.278Z</time></trkpt><trkpt lat="42.2558033" lon="13.2533667"><ele>1275.0</ele><time>2026-05-02T15:45:15.278Z</time></trkpt><trkpt lat="42.2558183" lon="13.25325"><ele>1277.4</ele><time>2026-05-02T15:45:16.278Z</time></trkpt><trkpt lat="42.25582" lon="13.253115"><ele>1279.8</ele><time>2026-05-02T15:45:17.279Z</time></trkpt><trkpt lat="42.2558283" lon="13.2529883"><ele>1282.1999999999998</ele><time>2026-05-02T15:45:18.278Z</time></trkpt><trkpt lat="42.2558383" lon="13.252865"><ele>1284.6</ele><time>2026-05-02T15:45:19.278Z</time></trkpt><trkpt lat="42.255855" lon="13.2527483"><ele>1287.0</ele><time>2026-05-02T15:45:20.278Z</time></trkpt><trkpt lat="42.2558783" lon="13.252645"><ele>1287.0</ele><time>2026-05-02T15:45:21.278Z</time></trkpt><trkpt lat="42.2559067" lon="13.2525267"><ele>1287.0</ele><time>2026-05-02T15:45:22.278Z</time></trkpt><trkpt lat="42.2559433" lon="13.2524183"><ele>1287.0</ele><time>2026-05-02T15:45:23.278Z</time></trkpt><trkpt lat="42.2559833" lon="13.2523167"><ele>1287.0</ele><time>2026-05-02T15:45:24.278Z</time></trkpt><trkpt lat="42.2560233" lon="13.2522333"><ele>1287.0</ele><time>2026-05-02T15:45:25.278Z</time></trkpt><trkpt lat="42.2560767" lon="13.25216"><ele>1287.0</ele><time>2026-05-02T15:45:26.278Z</time></trkpt><trkpt lat="42.25614" lon="13.2521017"><ele>1286.3333333333333</ele><time>2026-05-02T15:45:27.278Z</time></trkpt><trkpt lat="42.2562067" lon="13.2520433"><ele>1285.6666666666667</ele><time>2026-05-02T15:45:28.278Z</time></trkpt><trkpt lat="42.25628" lon="13.25198"><ele>1285.0</ele><time>2026-05-02T15:45:29.278Z</time></trkpt><trkpt lat="42.25635" lon="13.2519117"><ele>1284.3333333333335</ele><time>2026-05-02T15:45:30.278Z</time></trkpt><trkpt lat="42.2564117" lon="13.2518433"><ele>1283.6666666666667</ele><time>2026-05-02T15:45:31.278Z</time></trkpt><trkpt lat="42.2564683" lon="13.251765"><ele>1283.0</ele><time>2026-05-02T15:45:32.278Z</time></trkpt><trkpt lat="42.2565417" lon="13.2517067"><ele>1290.0</ele><time>2026-05-02T15:45:33.278Z</time></trkpt><trkpt lat="42.25663" lon="13.25167"><ele>1297.0</ele><time>2026-05-02T15:45:34.278Z</time></trkpt><trkpt lat="42.257135" lon="13.2517867"><ele>1297.0</ele><time>2026-05-02T15:45:44.278Z</time></trkpt><trkpt lat="42.2571733" lon="13.2519417"><ele>1297.0</ele><time>2026-05-02T15:45:46.278Z</time></trkpt><trkpt lat="42.2571817" lon="13.252035"><ele>1297.0</ele><time>2026-05-02T15:45:47.278Z</time></trkpt><trkpt lat="42.25718" lon="13.2521267"><ele>1297.0</ele><time>2026-05-02T15:45:48.278Z</time></trkpt><trkpt lat="42.257175" lon="13.2522883"><ele>1297.0</ele><time>2026-05-02T15:45:50.278Z</time></trkpt><trkpt lat="42.25718" lon="13.2524417"><ele>1298.0</ele><time>2026-05-02T15:45:52.278Z</time></trkpt><trkpt lat="42.2571933" lon="13.2525633"><ele>1299.0</ele><time>2026-05-02T15:45:54.278Z</time></trkpt><trkpt lat="42.257245" lon="13.252635"><ele>1300.0</ele><time>2026-05-02T15:45:56.278Z</time></trkpt><trkpt lat="42.25735" lon="13.2526483"><ele>1301.0</ele><time>2026-05-02T15:45:58.278Z</time></trkpt><trkpt lat="42.2574667" lon="13.2525917"><ele>1302.0</ele><time>2026-05-02T15:46:00.278Z</time></trkpt><trkpt lat="42.2575317" lon="13.2525667"><ele>1300.0</ele><time>2026-05-02T15:46:01.278Z</time></trkpt><trkpt lat="42.2576017" lon="13.2525583"><ele>1298.0</ele><time>2026-05-02T15:46:02.278Z</time></trkpt><trkpt lat="42.25767" lon="13.2525633"><ele>1296.0</ele><time>2026-05-02T15:46:03.278Z</time></trkpt><trkpt lat="42.257745" lon="13.25257"><ele>1294.0</ele><time>2026-05-02T15:46:04.278Z</time></trkpt><trkpt lat="42.25783" lon="13.2525783"><ele>1292.0</ele><time>2026-05-02T15:46:05.278Z</time></trkpt><trkpt lat="42.257925" lon="13.2525717"><ele>1290.0</ele><time>2026-05-02T15:46:06.278Z</time></trkpt><trkpt lat="42.2580167" lon="13.25256"><ele>1290.0</ele><time>2026-05-02T15:46:07.278Z</time></trkpt><trkpt lat="42.2581017" lon="13.252545"><ele>1290.0</ele><time>2026-05-02T15:46:08.278Z</time></trkpt><trkpt lat="42.2581967" lon="13.2525233"><ele>1290.0</ele><time>2026-05-02T15:46:09.278Z</time></trkpt><trkpt lat="42.25829" lon="13.2524633"><ele>1290.0</ele><time>2026-05-02T15:46:10.278Z</time></trkpt><trkpt lat="42.25838" lon="13.252395"><ele>1290.0</ele><time>2026-05-02T15:46:11.278Z</time></trkpt><trkpt lat="42.25846" lon="13.25233"><ele>1287.8333333333333</ele><time>2026-05-02T15:46:12.278Z</time></trkpt><trkpt lat="42.2585233" lon="13.25225"><ele>1285.6666666666667</ele><time>2026-05-02T15:46:13.278Z</time></trkpt><trkpt lat="42.258575" lon="13.252175"><ele>1283.5</ele><time>2026-05-02T15:46:14.279Z</time></trkpt><trkpt lat="42.2586183" lon="13.2520917"><ele>1281.3333333333335</ele><time>2026-05-02T15:46:15.278Z</time></trkpt><trkpt lat="42.2586567" lon="13.2519883"><ele>1279.1666666666667</ele><time>2026-05-02T15:46:16.278Z</time></trkpt><trkpt lat="42.2587067" lon="13.2518683"><ele>1277.0</ele><time>2026-05-02T15:46:17.278Z</time></trkpt><trkpt lat="42.2587783" lon="13.2517683"><ele>1277.0</ele><time>2026-05-02T15:46:18.278Z</time></trkpt><trkpt lat="42.2588533" lon="13.2516517"><ele>1277.0</ele><time>2026-05-02T15:46:19.278Z</time></trkpt><trkpt lat="42.2589283" lon="13.2515567"><ele>1277.0</ele><time>2026-05-02T15:46:20.278Z</time></trkpt><trkpt lat="42.2589933" lon="13.2514667"><ele>1277.0</ele><time>2026-05-02T15:46:21.279Z</time></trkpt><trkpt lat="42.25906" lon="13.251405"><ele>1277.0</ele><time>2026-05-02T15:46:22.278Z</time></trkpt><trkpt lat="42.25913" lon="13.2513483"><ele>1275.5</ele><time>2026-05-02T15:46:23.278Z</time></trkpt><trkpt lat="42.2592067" lon="13.25131"><ele>1274.0</ele><time>2026-05-02T15:46:24.278Z</time></trkpt><trkpt lat="42.2592867" lon="13.2512817"><ele>1272.5</ele><time>2026-05-02T15:46:25.278Z</time></trkpt><trkpt lat="42.25936" lon="13.2512567"><ele>1271.0</ele><time>2026-05-02T15:46:26.278Z</time></trkpt><trkpt lat="42.2594233" lon="13.2512283"><ele>1269.5</ele><time>2026-05-02T15:46:27.278Z</time></trkpt><trkpt lat="42.2594933" lon="13.2511917"><ele>1268.0</ele><time>2026-05-02T15:46:28.278Z</time></trkpt><trkpt lat="42.2595567" lon="13.2511533"><ele>1268.0</ele><time>2026-05-02T15:46:29.278Z</time></trkpt><trkpt lat="42.2596183" lon="13.2511"><ele>1268.0</ele><time>2026-05-02T15:46:30.279Z</time></trkpt><trkpt lat="42.2596667" lon="13.2510267"><ele>1268.0</ele><time>2026-05-02T15:46:31.278Z</time></trkpt><trkpt lat="42.2597067" lon="13.25093"><ele>1268.0</ele><time>2026-05-02T15:46:32.279Z</time></trkpt><trkpt lat="42.25976" lon="13.2508267"><ele>1268.0</ele><time>2026-05-02T15:46:33.279Z</time></trkpt><trkpt lat="42.259805" lon="13.2507067"><ele>1268.0</ele><time>2026-05-02T15:46:34.278Z</time></trkpt><trkpt lat="42.259845" lon="13.2505817"><ele>1268.6666666666667</ele><time>2026-05-02T15:46:35.278Z</time></trkpt><trkpt lat="42.2598717" lon="13.2504583"><ele>1269.3333333333335</ele><time>2026-05-02T15:46:36.278Z</time></trkpt><trkpt lat="42.25989" lon="13.250335"><ele>1270.0</ele><time>2026-05-02T15:46:37.279Z</time></trkpt><trkpt lat="42.2598933" lon="13.250225"><ele>1270.6666666666667</ele><time>2026-05-02T15:46:38.278Z</time></trkpt><trkpt lat="42.2599017" lon="13.2501183"><ele>1271.3333333333333</ele><time>2026-05-02T15:46:39.278Z</time></trkpt><trkpt lat="42.2599083" lon="13.2500183"><ele>1272.0</ele><time>2026-05-02T15:46:40.278Z</time></trkpt><trkpt lat="42.2599183" lon="13.2499033"><ele>1270.6666666666667</ele><time>2026-05-02T15:46:41.278Z</time></trkpt><trkpt lat="42.259935" lon="13.2497867"><ele>1269.3333333333333</ele><time>2026-05-02T15:46:42.278Z</time></trkpt><trkpt lat="42.2599533" lon="13.2496783"><ele>1268.0</ele><time>2026-05-02T15:46:43.278Z</time></trkpt><trkpt lat="42.259985" lon="13.2495717"><ele>1266.6666666666665</ele><time>2026-05-02T15:46:44.278Z</time></trkpt><trkpt lat="42.2600267" lon="13.249465"><ele>1265.3333333333333</ele><time>2026-05-02T15:46:45.278Z</time></trkpt><trkpt lat="42.26006" lon="13.2493383"><ele>1264.0</ele><time>2026-05-02T15:46:46.278Z</time></trkpt><trkpt lat="42.2600817" lon="13.249215"><ele>1264.0</ele><time>2026-05-02T15:46:47.278Z</time></trkpt><trkpt lat="42.2601083" lon="13.2491"><ele>1264.0</ele><time>2026-05-02T15:46:48.278Z</time></trkpt><trkpt lat="42.2601317" lon="13.24897"><ele>1264.0</ele><time>2026-05-02T15:46:49.279Z</time></trkpt><trkpt lat="42.2601567" lon="13.2488267"><ele>1264.0</ele><time>2026-05-02T15:46:50.278Z</time></trkpt><trkpt lat="42.2601817" lon="13.248695"><ele>1264.0</ele><time>2026-05-02T15:46:51.278Z</time></trkpt><trkpt lat="42.2601983" lon="13.2485717"><ele>1263.0</ele><time>2026-05-02T15:46:52.278Z</time></trkpt><trkpt lat="42.260215" lon="13.24845"><ele>1262.0</ele><time>2026-05-02T15:46:53.278Z</time></trkpt><trkpt lat="42.26023" lon="13.2483333"><ele>1261.0</ele><time>2026-05-02T15:46:54.278Z</time></trkpt><trkpt lat="42.2602483" lon="13.248205"><ele>1260.0</ele><time>2026-05-02T15:46:55.278Z</time></trkpt><trkpt lat="42.2602717" lon="13.248075"><ele>1259.0</ele><time>2026-05-02T15:46:56.279Z</time></trkpt><trkpt lat="42.26029" lon="13.2479433"><ele>1258.0</ele><time>2026-05-02T15:46:57.278Z</time></trkpt><trkpt lat="42.260305" lon="13.2478267"><ele>1257.0</ele><time>2026-05-02T15:46:58.279Z</time></trkpt><trkpt lat="42.2603217" lon="13.2477167"><ele>1256.0</ele><time>2026-05-02T15:46:59.278Z</time></trkpt><trkpt lat="42.2603367" lon="13.247605"><ele>1255.0</ele><time>2026-05-02T15:47:00.278Z</time></trkpt><trkpt lat="42.26036" lon="13.2475117"><ele>1254.0</ele><time>2026-05-02T15:47:01.278Z</time></trkpt><trkpt lat="42.2603833" lon="13.2474217"><ele>1253.0</ele><time>2026-05-02T15:47:02.278Z</time></trkpt><trkpt lat="42.2604133" lon="13.2473433"><ele>1253.0</ele><time>2026-05-02T15:47:03.278Z</time></trkpt><trkpt lat="42.2604917" lon="13.247205"><ele>1253.0</ele><time>2026-05-02T15:47:05.278Z</time></trkpt><trkpt lat="42.260555" lon="13.2471217"><ele>1253.0</ele><time>2026-05-02T15:47:06.279Z</time></trkpt><trkpt lat="42.260625" lon="13.2470283"><ele>1253.0</ele><time>2026-05-02T15:47:07.278Z</time></trkpt><trkpt lat="42.2606917" lon="13.2469217"><ele>1253.0</ele><time>2026-05-02T15:47:08.278Z</time></trkpt><trkpt lat="42.2607533" lon="13.246815"><ele>1252.6</ele><time>2026-05-02T15:47:09.278Z</time></trkpt><trkpt lat="42.2608067" lon="13.24671"><ele>1252.1999999999998</ele><time>2026-05-02T15:47:10.279Z</time></trkpt><trkpt lat="42.2608667" lon="13.2466017"><ele>1251.8</ele><time>2026-05-02T15:47:11.278Z</time></trkpt><trkpt lat="42.2609267" lon="13.2464917"><ele>1251.3999999999999</ele><time>2026-05-02T15:47:12.278Z</time></trkpt><trkpt lat="42.2609883" lon="13.2463683"><ele>1251.0</ele><time>2026-05-02T15:47:13.278Z</time></trkpt><trkpt lat="42.26106" lon="13.2462283"><ele>1251.0</ele><time>2026-05-02T15:47:14.278Z</time></trkpt><trkpt lat="42.2611333" lon="13.24609"><ele>1251.0</ele><time>2026-05-02T15:47:15.278Z</time></trkpt><trkpt lat="42.261215" lon="13.24594"><ele>1251.0</ele><time>2026-05-02T15:47:16.278Z</time></trkpt><trkpt lat="42.2612967" lon="13.245775"><ele>1251.0</ele><time>2026-05-02T15:47:17.278Z</time></trkpt><trkpt lat="42.2613817" lon="13.24561"><ele>1252.0</ele><time>2026-05-02T15:47:18.278Z</time></trkpt><trkpt lat="42.26146" lon="13.2454633"><ele>1253.0</ele><time>2026-05-02T15:47:19.278Z</time></trkpt><trkpt lat="42.2615217" lon="13.24533"><ele>1254.0</ele><time>2026-05-02T15:47:20.278Z</time></trkpt><trkpt lat="42.2615783" lon="13.24521"><ele>1255.0</ele><time>2026-05-02T15:47:21.278Z</time></trkpt><trkpt lat="42.26163" lon="13.245095"><ele>1255.0</ele><time>2026-05-02T15:47:22.278Z</time></trkpt><trkpt lat="42.261675" lon="13.2449767"><ele>1255.0</ele><time>2026-05-02T15:47:23.278Z</time></trkpt><trkpt lat="42.2617167" lon="13.2448633"><ele>1255.0</ele><time>2026-05-02T15:47:24.278Z</time></trkpt><trkpt lat="42.2617433" lon="13.2447367"><ele>1255.0</ele><time>2026-05-02T15:47:25.279Z</time></trkpt><trkpt lat="42.2617633" lon="13.2446083"><ele>1255.0</ele><time>2026-05-02T15:47:26.278Z</time></trkpt><trkpt lat="42.2617683" lon="13.2444683"><ele>1254.6</ele><time>2026-05-02T15:47:27.278Z</time></trkpt><trkpt lat="42.2617617" lon="13.2443283"><ele>1254.2</ele><time>2026-05-02T15:47:28.279Z</time></trkpt><trkpt lat="42.2617383" lon="13.244175"><ele>1253.8</ele><time>2026-05-02T15:47:29.278Z</time></trkpt><trkpt lat="42.2617033" lon="13.244045"><ele>1253.4</ele><time>2026-05-02T15:47:30.279Z</time></trkpt><trkpt lat="42.2616483" lon="13.2439267"><ele>1253.0</ele><time>2026-05-02T15:47:31.278Z</time></trkpt><trkpt lat="42.2615717" lon="13.243815"><ele>1253.0</ele><time>2026-05-02T15:47:32.278Z</time></trkpt><trkpt lat="42.2614783" lon="13.2437067"><ele>1253.0</ele><time>2026-05-02T15:47:33.278Z</time></trkpt><trkpt lat="42.26137" lon="13.2436017"><ele>1253.0</ele><time>2026-05-02T15:47:34.278Z</time></trkpt><trkpt lat="42.2612483" lon="13.2434883"><ele>1253.0</ele><time>2026-05-02T15:47:35.279Z</time></trkpt><trkpt lat="42.26112" lon="13.2433733"><ele>1253.0</ele><time>2026-05-02T15:47:36.278Z</time></trkpt><trkpt lat="42.2610133" lon="13.2432733"><ele>1253.0</ele><time>2026-05-02T15:47:37.278Z</time></trkpt><trkpt lat="42.2609317" lon="13.2431917"><ele>1253.0</ele><time>2026-05-02T15:47:38.278Z</time></trkpt><trkpt lat="42.2608717" lon="13.2431133"><ele>1253.0</ele><time>2026-05-02T15:47:39.278Z</time></trkpt><trkpt lat="42.26082" lon="13.243025"><ele>1253.0</ele><time>2026-05-02T15:47:40.279Z</time></trkpt><trkpt lat="42.2607917" lon="13.242915"><ele>1253.0</ele><time>2026-05-02T15:47:41.278Z</time></trkpt><trkpt lat="42.2607717" lon="13.242795"><ele>1253.0</ele><time>2026-05-02T15:47:42.278Z</time></trkpt><trkpt lat="42.26077" lon="13.2426367"><ele>1253.0</ele><time>2026-05-02T15:47:43.278Z</time></trkpt><trkpt lat="42.2607583" lon="13.2424683"><ele>1253.0</ele><time>2026-05-02T15:47:44.278Z</time></trkpt><trkpt lat="42.2607267" lon="13.2422883"><ele>1252.5</ele><time>2026-05-02T15:47:45.278Z</time></trkpt><trkpt lat="42.2606733" lon="13.2421333"><ele>1252.0</ele><time>2026-05-02T15:47:46.279Z</time></trkpt><trkpt lat="42.2606283" lon="13.24198"><ele>1251.5</ele><time>2026-05-02T15:47:47.279Z</time></trkpt><trkpt lat="42.2605933" lon="13.2418233"><ele>1251.0</ele><time>2026-05-02T15:47:48.278Z</time></trkpt><trkpt lat="42.2605733" lon="13.2416767"><ele>1249.3999999999999</ele><time>2026-05-02T15:47:49.278Z</time></trkpt><trkpt lat="42.2605717" lon="13.24152"><ele>1247.8</ele><time>2026-05-02T15:47:50.278Z</time></trkpt><trkpt lat="42.26058" lon="13.24136"><ele>1246.1999999999998</ele><time>2026-05-02T15:47:51.278Z</time></trkpt><trkpt lat="42.2605917" lon="13.24123"><ele>1244.6</ele><time>2026-05-02T15:47:52.278Z</time></trkpt><trkpt lat="42.2606117" lon="13.2411183"><ele>1243.0</ele><time>2026-05-02T15:47:53.278Z</time></trkpt><trkpt lat="42.2606467" lon="13.2410217"><ele>1243.0</ele><time>2026-05-02T15:47:54.278Z</time></trkpt><trkpt lat="42.2606933" lon="13.24095"><ele>1243.0</ele><time>2026-05-02T15:47:55.278Z</time></trkpt><trkpt lat="42.260765" lon="13.24088"><ele>1243.0</ele><time>2026-05-02T15:47:56.278Z</time></trkpt><trkpt lat="42.2608533" lon="13.2408067"><ele>1243.0</ele><time>2026-05-02T15:47:57.278Z</time></trkpt><trkpt lat="42.2609567" lon="13.2407433"><ele>1243.0</ele><time>2026-05-02T15:47:58.278Z</time></trkpt><trkpt lat="42.26106" lon="13.2406883"><ele>1241.6</ele><time>2026-05-02T15:47:59.278Z</time></trkpt><trkpt lat="42.2611533" lon="13.2406283"><ele>1240.1999999999998</ele><time>2026-05-02T15:48:00.278Z</time></trkpt><trkpt lat="42.2612467" lon="13.24057"><ele>1238.8</ele><time>2026-05-02T15:48:01.278Z</time></trkpt><trkpt lat="42.2613267" lon="13.240515"><ele>1237.3999999999999</ele><time>2026-05-02T15:48:02.278Z</time></trkpt><trkpt lat="42.2614033" lon="13.2404767"><ele>1236.0</ele><time>2026-05-02T15:48:03.278Z</time></trkpt><trkpt lat="42.2614717" lon="13.24043"><ele>1236.0</ele><time>2026-05-02T15:48:04.278Z</time></trkpt><trkpt lat="42.2615383" lon="13.2403783"><ele>1236.0</ele><time>2026-05-02T15:48:05.278Z</time></trkpt><trkpt lat="42.2616083" lon="13.2403183"><ele>1236.0</ele><time>2026-05-02T15:48:06.278Z</time></trkpt><trkpt lat="42.2616733" lon="13.2402517"><ele>1236.0</ele><time>2026-05-02T15:48:07.279Z</time></trkpt><trkpt lat="42.2617417" lon="13.240195"><ele>1236.0</ele><time>2026-05-02T15:48:08.278Z</time></trkpt><trkpt lat="42.2618083" lon="13.2401317"><ele>1236.0</ele><time>2026-05-02T15:48:09.278Z</time></trkpt><trkpt lat="42.26188" lon="13.24008"><ele>1236.0</ele><time>2026-05-02T15:48:10.278Z</time></trkpt><trkpt lat="42.2619517" lon="13.2400217"><ele>1236.0</ele><time>2026-05-02T15:48:11.278Z</time></trkpt><trkpt lat="42.2620267" lon="13.2399917"><ele>1236.0</ele><time>2026-05-02T15:48:12.279Z</time></trkpt><trkpt lat="42.2621017" lon="13.2399433"><ele>1236.0</ele><time>2026-05-02T15:48:13.278Z</time></trkpt><trkpt lat="42.2621767" lon="13.2399017"><ele>1236.0</ele><time>2026-05-02T15:48:14.278Z</time></trkpt><trkpt lat="42.2622533" lon="13.2398717"><ele>1236.0</ele><time>2026-05-02T15:48:15.278Z</time></trkpt><trkpt lat="42.2623333" lon="13.2398383"><ele>1237.0</ele><time>2026-05-02T15:48:16.278Z</time></trkpt><trkpt lat="42.262415" lon="13.239805"><ele>1238.0</ele><time>2026-05-02T15:48:17.278Z</time></trkpt><trkpt lat="42.2624983" lon="13.2397883"><ele>1239.0</ele><time>2026-05-02T15:48:18.279Z</time></trkpt><trkpt lat="42.2625783" lon="13.2397717"><ele>1240.0</ele><time>2026-05-02T15:48:19.278Z</time></trkpt><trkpt lat="42.2626633" lon="13.2397633"><ele>1241.0</ele><time>2026-05-02T15:48:20.278Z</time></trkpt><trkpt lat="42.2627567" lon="13.2397583"><ele>1242.0</ele><time>2026-05-02T15:48:21.278Z</time></trkpt><trkpt lat="42.26285" lon="13.2397467"><ele>1239.3333333333333</ele><time>2026-05-02T15:48:22.278Z</time></trkpt><trkpt lat="42.262935" lon="13.2397317"><ele>1236.6666666666667</ele><time>2026-05-02T15:48:23.278Z</time></trkpt><trkpt lat="42.26302" lon="13.2397067"><ele>1234.0</ele><time>2026-05-02T15:48:24.278Z</time></trkpt><trkpt lat="42.26309" lon="13.23966"><ele>1231.3333333333335</ele><time>2026-05-02T15:48:25.279Z</time></trkpt><trkpt lat="42.2631583" lon="13.239605"><ele>1228.6666666666667</ele><time>2026-05-02T15:48:26.278Z</time></trkpt><trkpt lat="42.2632067" lon="13.2395333"><ele>1226.0</ele><time>2026-05-02T15:48:27.278Z</time></trkpt><trkpt lat="42.2632383" lon="13.2394333"><ele>1226.0</ele><time>2026-05-02T15:48:28.278Z</time></trkpt><trkpt lat="42.2632583" lon="13.2392967"><ele>1226.0</ele><time>2026-05-02T15:48:29.278Z</time></trkpt><trkpt lat="42.2632717" lon="13.2391417"><ele>1226.0</ele><time>2026-05-02T15:48:30.278Z</time></trkpt><trkpt lat="42.2632767" lon="13.2389867"><ele>1226.0</ele><time>2026-05-02T15:48:31.278Z</time></trkpt><trkpt lat="42.2632767" lon="13.238845"><ele>1226.0</ele><time>2026-05-02T15:48:32.278Z</time></trkpt><trkpt lat="42.26328" lon="13.2387383"><ele>1224.4285714285716</ele><time>2026-05-02T15:48:33.278Z</time></trkpt><trkpt lat="42.26329" lon="13.23864"><ele>1222.857142857143</ele><time>2026-05-02T15:48:34.279Z</time></trkpt><trkpt lat="42.2633067" lon="13.2385517"><ele>1221.2857142857142</ele><time>2026-05-02T15:48:35.278Z</time></trkpt><trkpt lat="42.2633317" lon="13.2384617"><ele>1219.7142857142858</ele><time>2026-05-02T15:48:36.278Z</time></trkpt><trkpt lat="42.26337" lon="13.2383783"><ele>1218.142857142857</ele><time>2026-05-02T15:48:37.279Z</time></trkpt><trkpt lat="42.2634133" lon="13.2383033"><ele>1216.5714285714287</ele><time>2026-05-02T15:48:38.278Z</time></trkpt><trkpt lat="42.26346" lon="13.23824"><ele>1215.0</ele><time>2026-05-02T15:48:39.278Z</time></trkpt><trkpt lat="42.263515" lon="13.2381617"><ele>1213.8333333333333</ele><time>2026-05-02T15:48:40.279Z</time></trkpt><trkpt lat="42.2635667" lon="13.238075"><ele>1212.6666666666667</ele><time>2026-05-02T15:48:41.278Z</time></trkpt><trkpt lat="42.2636217" lon="13.2379883"><ele>1211.5</ele><time>2026-05-02T15:48:42.278Z</time></trkpt><trkpt lat="42.26367" lon="13.237905"><ele>1210.3333333333335</ele><time>2026-05-02T15:48:43.278Z</time></trkpt><trkpt lat="42.2637217" lon="13.2378417"><ele>1209.1666666666667</ele><time>2026-05-02T15:48:44.278Z</time></trkpt><trkpt lat="42.2637617" lon="13.237765"><ele>1208.0</ele><time>2026-05-02T15:48:45.279Z</time></trkpt><trkpt lat="42.2638133" lon="13.2377083"><ele>1208.0</ele><time>2026-05-02T15:48:46.278Z</time></trkpt><trkpt lat="42.26393" lon="13.2376333"><ele>1208.0</ele><time>2026-05-02T15:48:48.278Z</time></trkpt><trkpt lat="42.2640067" lon="13.2376"><ele>1208.0</ele><time>2026-05-02T15:48:49.278Z</time></trkpt><trkpt lat="42.2640983" lon="13.2375483"><ele>1208.0</ele><time>2026-05-02T15:48:50.278Z</time></trkpt><trkpt lat="42.2641933" lon="13.2374933"><ele>1208.0</ele><time>2026-05-02T15:48:51.278Z</time></trkpt><trkpt lat="42.2642933" lon="13.23744"><ele>1208.6666666666667</ele><time>2026-05-02T15:48:52.278Z</time></trkpt><trkpt lat="42.26439" lon="13.2374"><ele>1209.3333333333335</ele><time>2026-05-02T15:48:53.278Z</time></trkpt><trkpt lat="42.2644833" lon="13.23737"><ele>1210.0</ele><time>2026-05-02T15:48:54.278Z</time></trkpt><trkpt lat="42.2645767" lon="13.2373783"><ele>1210.6666666666667</ele><time>2026-05-02T15:48:55.278Z</time></trkpt><trkpt lat="42.2646517" lon="13.237405"><ele>1211.3333333333333</ele><time>2026-05-02T15:48:56.278Z</time></trkpt><trkpt lat="42.2647133" lon="13.2374517"><ele>1212.0</ele><time>2026-05-02T15:48:57.278Z</time></trkpt><trkpt lat="42.26477" lon="13.237515"><ele>1212.5</ele><time>2026-05-02T15:48:58.278Z</time></trkpt><trkpt lat="42.2648233" lon="13.23759"><ele>1213.0</ele><time>2026-05-02T15:48:59.278Z</time></trkpt><trkpt lat="42.264885" lon="13.2376683"><ele>1213.5</ele><time>2026-05-02T15:49:00.278Z</time></trkpt><trkpt lat="42.264955" lon="13.2377517"><ele>1214.0</ele><time>2026-05-02T15:49:01.278Z</time></trkpt><trkpt lat="42.26502" lon="13.2378233"><ele>1214.5</ele><time>2026-05-02T15:49:02.278Z</time></trkpt><trkpt lat="42.2650833" lon="13.237885"><ele>1215.0</ele><time>2026-05-02T15:49:03.278Z</time></trkpt><trkpt lat="42.2651433" lon="13.2379383"><ele>1215.0</ele><time>2026-05-02T15:49:04.278Z</time></trkpt><trkpt lat="42.2652" lon="13.23801"><ele>1215.0</ele><time>2026-05-02T15:49:05.278Z</time></trkpt><trkpt lat="42.2652533" lon="13.2380967"><ele>1215.0</ele><time>2026-05-02T15:49:06.278Z</time></trkpt><trkpt lat="42.2653067" lon="13.2382"><ele>1215.0</ele><time>2026-05-02T15:49:07.278Z</time></trkpt><trkpt lat="42.2653583" lon="13.238325"><ele>1215.0</ele><time>2026-05-02T15:49:08.278Z</time></trkpt><trkpt lat="42.2654167" lon="13.2384583"><ele>1215.0</ele><time>2026-05-02T15:49:09.278Z</time></trkpt><trkpt lat="42.26548" lon="13.2385917"><ele>1215.0</ele><time>2026-05-02T15:49:10.278Z</time></trkpt><trkpt lat="42.2655417" lon="13.2387167"><ele>1215.0</ele><time>2026-05-02T15:49:11.278Z</time></trkpt><trkpt lat="42.265605" lon="13.2388383"><ele>1215.0</ele><time>2026-05-02T15:49:12.278Z</time></trkpt><trkpt lat="42.2656617" lon="13.2389467"><ele>1215.0</ele><time>2026-05-02T15:49:13.279Z</time></trkpt><trkpt lat="42.2657033" lon="13.2390583"><ele>1212.6</ele><time>2026-05-02T15:49:14.278Z</time></trkpt><trkpt lat="42.2657417" lon="13.2391733"><ele>1210.2</ele><time>2026-05-02T15:49:15.278Z</time></trkpt><trkpt lat="42.26577" lon="13.23929"><ele>1207.8</ele><time>2026-05-02T15:49:16.278Z</time></trkpt><trkpt lat="42.265805" lon="13.23942"><ele>1205.4</ele><time>2026-05-02T15:49:17.278Z</time></trkpt><trkpt lat="42.2658583" lon="13.23954"><ele>1203.0</ele><time>2026-05-02T15:49:18.278Z</time></trkpt><trkpt lat="42.2659217" lon="13.239665"><ele>1203.0</ele><time>2026-05-02T15:49:19.278Z</time></trkpt><trkpt lat="42.2660017" lon="13.239795"><ele>1203.0</ele><time>2026-05-02T15:49:20.279Z</time></trkpt><trkpt lat="42.2660883" lon="13.239935"><ele>1203.0</ele><time>2026-05-02T15:49:21.278Z</time></trkpt><trkpt lat="42.2661783" lon="13.2400717"><ele>1203.0</ele><time>2026-05-02T15:49:22.278Z</time></trkpt><trkpt lat="42.2662683" lon="13.2402033"><ele>1201.5</ele><time>2026-05-02T15:49:23.278Z</time></trkpt><trkpt lat="42.2663583" lon="13.2403117"><ele>1200.0</ele><time>2026-05-02T15:49:24.278Z</time></trkpt><trkpt lat="42.266455" lon="13.2404083"><ele>1198.5</ele><time>2026-05-02T15:49:25.278Z</time></trkpt><trkpt lat="42.2665583" lon="13.2404983"><ele>1197.0</ele><time>2026-05-02T15:49:26.278Z</time></trkpt><trkpt lat="42.2666717" lon="13.2405833"><ele>1194.0</ele><time>2026-05-02T15:49:27.278Z</time></trkpt><trkpt lat="42.2667983" lon="13.2406483"><ele>1191.0</ele><time>2026-05-02T15:49:28.278Z</time></trkpt><trkpt lat="42.266915" lon="13.2407133"><ele>1188.0</ele><time>2026-05-02T15:49:29.278Z</time></trkpt><trkpt lat="42.267035" lon="13.2407717"><ele>1185.0</ele><time>2026-05-02T15:49:30.278Z</time></trkpt><trkpt lat="42.267155" lon="13.2408067"><ele>1185.0</ele><time>2026-05-02T15:49:31.278Z</time></trkpt><trkpt lat="42.2672683" lon="13.2408417"><ele>1185.0</ele><time>2026-05-02T15:49:32.278Z</time></trkpt><trkpt lat="42.26738" lon="13.2408717"><ele>1185.0</ele><time>2026-05-02T15:49:33.278Z</time></trkpt><trkpt lat="42.2674833" lon="13.2409083"><ele>1185.0</ele><time>2026-05-02T15:49:34.278Z</time></trkpt><trkpt lat="42.267585" lon="13.2409483"><ele>1185.0</ele><time>2026-05-02T15:49:35.278Z</time></trkpt><trkpt lat="42.2676767" lon="13.241005"><ele>1184.8333333333333</ele><time>2026-05-02T15:49:36.278Z</time></trkpt><trkpt lat="42.2677633" lon="13.241065"><ele>1184.6666666666667</ele><time>2026-05-02T15:49:37.278Z</time></trkpt><trkpt lat="42.2678383" lon="13.24113"><ele>1184.5</ele><time>2026-05-02T15:49:38.278Z</time></trkpt><trkpt lat="42.267895" lon="13.241205"><ele>1184.3333333333335</ele><time>2026-05-02T15:49:39.278Z</time></trkpt><trkpt lat="42.2679367" lon="13.241305"><ele>1184.1666666666667</ele><time>2026-05-02T15:49:40.278Z</time></trkpt><trkpt lat="42.267955" lon="13.2414217"><ele>1184.0</ele><time>2026-05-02T15:49:41.278Z</time></trkpt><trkpt lat="42.2679533" lon="13.2415583"><ele>1183.0</ele><time>2026-05-02T15:49:42.278Z</time></trkpt><trkpt lat="42.2679483" lon="13.2417183"><ele>1182.0</ele><time>2026-05-02T15:49:43.278Z</time></trkpt><trkpt lat="42.267955" lon="13.2418917"><ele>1181.0</ele><time>2026-05-02T15:49:44.278Z</time></trkpt><trkpt lat="42.2679717" lon="13.24207"><ele>1180.0</ele><time>2026-05-02T15:49:45.278Z</time></trkpt><trkpt lat="42.2680017" lon="13.24225"><ele>1179.75</ele><time>2026-05-02T15:49:46.278Z</time></trkpt><trkpt lat="42.2680417" lon="13.2424267"><ele>1179.5</ele><time>2026-05-02T15:49:47.278Z</time></trkpt><trkpt lat="42.2680817" lon="13.24257"><ele>1179.25</ele><time>2026-05-02T15:49:48.279Z</time></trkpt><trkpt lat="42.2681217" lon="13.2426983"><ele>1179.0</ele><time>2026-05-02T15:49:49.278Z</time></trkpt><trkpt lat="42.26817" lon="13.2428167"><ele>1179.0</ele><time>2026-05-02T15:49:50.278Z</time></trkpt><trkpt lat="42.2682283" lon="13.2429067"><ele>1179.0</ele><time>2026-05-02T15:49:51.278Z</time></trkpt><trkpt lat="42.268295" lon="13.24297"><ele>1179.0</ele><time>2026-05-02T15:49:52.278Z</time></trkpt><trkpt lat="42.2683767" lon="13.2429983"><ele>1179.0</ele><time>2026-05-02T15:49:53.278Z</time></trkpt><trkpt lat="42.2684683" lon="13.2430067"><ele>1179.0</ele><time>2026-05-02T15:49:54.278Z</time></trkpt><trkpt lat="42.268575" lon="13.2430017"><ele>1179.0</ele><time>2026-05-02T15:49:55.278Z</time></trkpt><trkpt lat="42.2686917" lon="13.2429933"><ele>1179.0</ele><time>2026-05-02T15:49:56.278Z</time></trkpt><trkpt lat="42.2688133" lon="13.2430067"><ele>1179.0</ele><time>2026-05-02T15:49:57.278Z</time></trkpt><trkpt lat="42.268935" lon="13.2430483"><ele>1179.0</ele><time>2026-05-02T15:49:58.278Z</time></trkpt><trkpt lat="42.26905" lon="13.2431033"><ele>1180.6000000000001</ele><time>2026-05-02T15:49:59.278Z</time></trkpt><trkpt lat="42.2691617" lon="13.243165"><ele>1182.2</ele><time>2026-05-02T15:50:00.278Z</time></trkpt><trkpt lat="42.26926" lon="13.243225"><ele>1183.8000000000002</ele><time>2026-05-02T15:50:01.278Z</time></trkpt><trkpt lat="42.2693533" lon="13.24327"><ele>1185.4</ele><time>2026-05-02T15:50:02.279Z</time></trkpt><trkpt lat="42.2694467" lon="13.24331"><ele>1187.0</ele><time>2026-05-02T15:50:03.279Z</time></trkpt><trkpt lat="42.2695267" lon="13.2433433"><ele>1187.0</ele><time>2026-05-02T15:50:04.278Z</time></trkpt><trkpt lat="42.2696117" lon="13.2433633"><ele>1187.0</ele><time>2026-05-02T15:50:05.278Z</time></trkpt><trkpt lat="42.2697" lon="13.2433733"><ele>1187.0</ele><time>2026-05-02T15:50:06.278Z</time></trkpt><trkpt lat="42.2698017" lon="13.2433817"><ele>1187.0</ele><time>2026-05-02T15:50:07.278Z</time></trkpt><trkpt lat="42.2698967" lon="13.2433667"><ele>1187.0</ele><time>2026-05-02T15:50:08.278Z</time></trkpt><trkpt lat="42.2699817" lon="13.2433333"><ele>1188.2</ele><time>2026-05-02T15:50:09.278Z</time></trkpt><trkpt lat="42.2700567" lon="13.24329"><ele>1189.4</ele><time>2026-05-02T15:50:10.278Z</time></trkpt><trkpt lat="42.2701367" lon="13.2432267"><ele>1190.6</ele><time>2026-05-02T15:50:11.278Z</time></trkpt><trkpt lat="42.2702133" lon="13.24315"><ele>1191.8</ele><time>2026-05-02T15:50:12.278Z</time></trkpt><trkpt lat="42.2702867" lon="13.2430533"><ele>1193.0</ele><time>2026-05-02T15:50:13.278Z</time></trkpt><trkpt lat="42.27035" lon="13.24296"><ele>1193.3333333333335</ele><time>2026-05-02T15:50:14.278Z</time></trkpt><trkpt lat="42.27042" lon="13.2428883"><ele>1193.6666666666667</ele><time>2026-05-02T15:50:15.278Z</time></trkpt><trkpt lat="42.2704933" lon="13.2428333"><ele>1194.0</ele><time>2026-05-02T15:50:16.278Z</time></trkpt><trkpt lat="42.2705617" lon="13.2427883"><ele>1194.3333333333333</ele><time>2026-05-02T15:50:17.278Z</time></trkpt><trkpt lat="42.27062" lon="13.2427517"><ele>1194.6666666666665</ele><time>2026-05-02T15:50:18.278Z</time></trkpt><trkpt lat="42.270735" lon="13.24269"><ele>1195.0</ele><time>2026-05-02T15:50:20.278Z</time></trkpt><trkpt lat="42.27082" lon="13.2426433"><ele>1194.0</ele><time>2026-05-02T15:50:22.278Z</time></trkpt><trkpt lat="42.2709017" lon="13.2425783"><ele>1193.0</ele><time>2026-05-02T15:50:24.278Z</time></trkpt><trkpt lat="42.2710017" lon="13.2425217"><ele>1192.0</ele><time>2026-05-02T15:50:26.278Z</time></trkpt><trkpt lat="42.27111" lon="13.24244"><ele>1191.0</ele><time>2026-05-02T15:50:28.278Z</time></trkpt><trkpt lat="42.271165" lon="13.2423983"><ele>1190.0</ele><time>2026-05-02T15:50:29.278Z</time></trkpt><trkpt lat="42.27128" lon="13.2423233"><ele>1189.5</ele><time>2026-05-02T15:50:31.279Z</time></trkpt><trkpt lat="42.2713483" lon="13.2422833"><ele>1189.0</ele><time>2026-05-02T15:50:32.278Z</time></trkpt><trkpt lat="42.2714167" lon="13.2422217"><ele>1188.5</ele><time>2026-05-02T15:50:33.278Z</time></trkpt><trkpt lat="42.271485" lon="13.2421633"><ele>1188.0</ele><time>2026-05-02T15:50:34.278Z</time></trkpt><trkpt lat="42.2715533" lon="13.2421033"><ele>1187.5</ele><time>2026-05-02T15:50:35.278Z</time></trkpt><trkpt lat="42.271615" lon="13.2420433"><ele>1187.0</ele><time>2026-05-02T15:50:36.278Z</time></trkpt><trkpt lat="42.2716767" lon="13.241985"><ele>1187.0</ele><time>2026-05-02T15:50:37.278Z</time></trkpt><trkpt lat="42.2717267" lon="13.2419317"><ele>1187.0</ele><time>2026-05-02T15:50:38.278Z</time></trkpt><trkpt lat="42.2717833" lon="13.2418667"><ele>1187.0</ele><time>2026-05-02T15:50:39.279Z</time></trkpt><trkpt lat="42.271855" lon="13.2417867"><ele>1187.0</ele><time>2026-05-02T15:50:40.278Z</time></trkpt><trkpt lat="42.271935" lon="13.2417167"><ele>1187.0</ele><time>2026-05-02T15:50:41.278Z</time></trkpt><trkpt lat="42.2720067" lon="13.2416483"><ele>1187.0</ele><time>2026-05-02T15:50:42.278Z</time></trkpt><trkpt lat="42.2720717" lon="13.241595"><ele>1187.0</ele><time>2026-05-02T15:50:43.278Z</time></trkpt><trkpt lat="42.2721383" lon="13.241555"><ele>1187.0</ele><time>2026-05-02T15:50:44.278Z</time></trkpt><trkpt lat="42.2722083" lon="13.2415217"><ele>1187.0</ele><time>2026-05-02T15:50:45.278Z</time></trkpt><trkpt lat="42.2722917" lon="13.241505"><ele>1187.0</ele><time>2026-05-02T15:50:46.278Z</time></trkpt><trkpt lat="42.272375" lon="13.2415067"><ele>1187.0</ele><time>2026-05-02T15:50:47.278Z</time></trkpt><trkpt lat="42.2724583" lon="13.2415217"><ele>1187.0</ele><time>2026-05-02T15:50:48.279Z</time></trkpt><trkpt lat="42.27254" lon="13.2415383"><ele>1186.0</ele><time>2026-05-02T15:50:49.278Z</time></trkpt><trkpt lat="42.2726217" lon="13.2415617"><ele>1185.0</ele><time>2026-05-02T15:50:50.278Z</time></trkpt><trkpt lat="42.2727117" lon="13.2415867"><ele>1184.0</ele><time>2026-05-02T15:50:51.279Z</time></trkpt><trkpt lat="42.272825" lon="13.2416117"><ele>1183.0</ele><time>2026-05-02T15:50:52.278Z</time></trkpt><trkpt lat="42.272935" lon="13.241635"><ele>1182.0</ele><time>2026-05-02T15:50:53.279Z</time></trkpt><trkpt lat="42.2730433" lon="13.2416483"><ele>1181.5</ele><time>2026-05-02T15:50:54.278Z</time></trkpt><trkpt lat="42.273155" lon="13.2416633"><ele>1181.0</ele><time>2026-05-02T15:50:55.278Z</time></trkpt><trkpt lat="42.2732533" lon="13.2416717"><ele>1180.5</ele><time>2026-05-02T15:50:56.278Z</time></trkpt><trkpt lat="42.2733417" lon="13.2416717"><ele>1180.0</ele><time>2026-05-02T15:50:57.278Z</time></trkpt><trkpt lat="42.2734117" lon="13.2416817"><ele>1179.5</ele><time>2026-05-02T15:50:58.278Z</time></trkpt><trkpt lat="42.2734783" lon="13.2416967"><ele>1179.0</ele><time>2026-05-02T15:50:59.278Z</time></trkpt><trkpt lat="42.273545" lon="13.2417383"><ele>1179.0</ele><time>2026-05-02T15:51:00.278Z</time></trkpt><trkpt lat="42.27361" lon="13.241795"><ele>1179.0</ele><time>2026-05-02T15:51:01.278Z</time></trkpt><trkpt lat="42.27368" lon="13.24187"><ele>1179.0</ele><time>2026-05-02T15:51:02.279Z</time></trkpt><trkpt lat="42.2737533" lon="13.2419433"><ele>1179.0</ele><time>2026-05-02T15:51:03.278Z</time></trkpt><trkpt lat="42.2738267" lon="13.2420167"><ele>1179.0</ele><time>2026-05-02T15:51:04.278Z</time></trkpt><trkpt lat="42.2739" lon="13.2420933"><ele>1179.0</ele><time>2026-05-02T15:51:05.278Z</time></trkpt><trkpt lat="42.273965" lon="13.2421633"><ele>1179.6000000000001</ele><time>2026-05-02T15:51:06.278Z</time></trkpt><trkpt lat="42.27403" lon="13.2422133"><ele>1180.2</ele><time>2026-05-02T15:51:07.278Z</time></trkpt><trkpt lat="42.2740883" lon="13.2422533"><ele>1180.8000000000002</ele><time>2026-05-02T15:51:08.279Z</time></trkpt><trkpt lat="42.2741717" lon="13.2423583"><ele>1181.4</ele><time>2026-05-02T15:51:10.279Z</time></trkpt><trkpt lat="42.2742317" lon="13.242495"><ele>1182.0</ele><time>2026-05-02T15:51:12.279Z</time></trkpt><trkpt lat="42.274235" lon="13.2426483"><ele>1183.0</ele><time>2026-05-02T15:51:14.278Z</time></trkpt><trkpt lat="42.27424" lon="13.2427933"><ele>1184.0</ele><time>2026-05-02T15:51:16.279Z</time></trkpt><trkpt lat="42.2742667" lon="13.242965"><ele>1185.0</ele><time>2026-05-02T15:51:18.278Z</time></trkpt><trkpt lat="42.2742867" lon="13.2430533"><ele>1186.0</ele><time>2026-05-02T15:51:19.278Z</time></trkpt><trkpt lat="42.2743167" lon="13.243135"><ele>1187.0</ele><time>2026-05-02T15:51:20.278Z</time></trkpt><trkpt lat="42.274355" lon="13.243205"><ele>1188.0</ele><time>2026-05-02T15:51:21.278Z</time></trkpt><trkpt lat="42.274405" lon="13.2432717"><ele>1188.0</ele><time>2026-05-02T15:51:22.278Z</time></trkpt><trkpt lat="42.27447" lon="13.2433333"><ele>1188.0</ele><time>2026-05-02T15:51:23.278Z</time></trkpt><trkpt lat="42.27455" lon="13.2434017"><ele>1188.0</ele><time>2026-05-02T15:51:24.279Z</time></trkpt><trkpt lat="42.274635" lon="13.243465"><ele>1188.0</ele><time>2026-05-02T15:51:25.278Z</time></trkpt><trkpt lat="42.2747267" lon="13.2435283"><ele>1188.0</ele><time>2026-05-02T15:51:26.278Z</time></trkpt><trkpt lat="42.2748217" lon="13.2436"><ele>1191.75</ele><time>2026-05-02T15:51:27.278Z</time></trkpt><trkpt lat="42.2749217" lon="13.2436817"><ele>1195.5</ele><time>2026-05-02T15:51:28.278Z</time></trkpt><trkpt lat="42.2750167" lon="13.2437617"><ele>1199.25</ele><time>2026-05-02T15:51:29.278Z</time></trkpt><trkpt lat="42.2751167" lon="13.243845"><ele>1203.0</ele><time>2026-05-02T15:51:30.278Z</time></trkpt><trkpt lat="42.275225" lon="13.243925"><ele>1202.4</ele><time>2026-05-02T15:51:31.278Z</time></trkpt><trkpt lat="42.2753217" lon="13.2440067"><ele>1201.8</ele><time>2026-05-02T15:51:32.278Z</time></trkpt><trkpt lat="42.2754067" lon="13.2440817"><ele>1201.2</ele><time>2026-05-02T15:51:33.278Z</time></trkpt><trkpt lat="42.275485" lon="13.244135"><ele>1200.6</ele><time>2026-05-02T15:51:34.278Z</time></trkpt><trkpt lat="42.2755683" lon="13.244205"><ele>1200.0</ele><time>2026-05-02T15:51:35.279Z</time></trkpt><trkpt lat="42.2756467" lon="13.244275"><ele>1201.5</ele><time>2026-05-02T15:51:36.278Z</time></trkpt><trkpt lat="42.27572" lon="13.2443383"><ele>1203.0</ele><time>2026-05-02T15:51:37.278Z</time></trkpt><trkpt lat="42.2757967" lon="13.2443883"><ele>1204.5</ele><time>2026-05-02T15:51:38.278Z</time></trkpt><trkpt lat="42.2758833" lon="13.2444367"><ele>1206.0</ele><time>2026-05-02T15:51:39.278Z</time></trkpt><trkpt lat="42.27597" lon="13.244465"><ele>1207.5</ele><time>2026-05-02T15:51:40.278Z</time></trkpt><trkpt lat="42.2760567" lon="13.2444917"><ele>1209.0</ele><time>2026-05-02T15:51:41.279Z</time></trkpt><trkpt lat="42.2761317" lon="13.2445217"><ele>1209.0</ele><time>2026-05-02T15:51:42.278Z</time></trkpt><trkpt lat="42.276195" lon="13.2445567"><ele>1209.0</ele><time>2026-05-02T15:51:43.278Z</time></trkpt><trkpt lat="42.2762583" lon="13.2445767"><ele>1209.0</ele><time>2026-05-02T15:51:44.279Z</time></trkpt><trkpt lat="42.2763217" lon="13.2446283"><ele>1209.0</ele><time>2026-05-02T15:51:45.278Z</time></trkpt><trkpt lat="42.2763867" lon="13.2446917"><ele>1209.0</ele><time>2026-05-02T15:51:46.278Z</time></trkpt><trkpt lat="42.2764533" lon="13.2447667"><ele>1209.0</ele><time>2026-05-02T15:51:47.278Z</time></trkpt><trkpt lat="42.2765233" lon="13.24484"><ele>1209.8</ele><time>2026-05-02T15:51:48.278Z</time></trkpt><trkpt lat="42.2765933" lon="13.24491"><ele>1210.6000000000001</ele><time>2026-05-02T15:51:49.278Z</time></trkpt><trkpt lat="42.27665" lon="13.2449633"><ele>1211.4</ele><time>2026-05-02T15:51:50.278Z</time></trkpt><trkpt lat="42.27674" lon="13.2450483"><ele>1212.2</ele><time>2026-05-02T15:51:52.278Z</time></trkpt><trkpt lat="42.27686" lon="13.2451333"><ele>1213.0</ele><time>2026-05-02T15:51:54.278Z</time></trkpt><trkpt lat="42.2769283" lon="13.24516"><ele>1213.0</ele><time>2026-05-02T15:51:55.278Z</time></trkpt><trkpt lat="42.2769967" lon="13.24519"><ele>1213.0</ele><time>2026-05-02T15:51:56.278Z</time></trkpt><trkpt lat="42.2770633" lon="13.2452233"><ele>1213.0</ele><time>2026-05-02T15:51:57.278Z</time></trkpt><trkpt lat="42.2771233" lon="13.2452517"><ele>1213.0</ele><time>2026-05-02T15:51:58.278Z</time></trkpt><trkpt lat="42.2772083" lon="13.2452833"><ele>1213.0</ele><time>2026-05-02T15:52:00.279Z</time></trkpt><trkpt lat="42.2773033" lon="13.2453667"><ele>1213.0</ele><time>2026-05-02T15:58:27.278Z</time></trkpt><trkpt lat="42.2773478" lon="13.2454357"><ele>1211.4</ele><time>2026-05-02T15:58:31.343Z</time></trkpt><trkpt lat="42.2773916" lon="13.2455381"><ele>1209.8</ele><time>2026-05-02T15:58:34.292Z</time></trkpt><trkpt lat="42.2774196" lon="13.2456165"><ele>1208.2</ele><time>2026-05-02T15:58:35.279Z</time></trkpt><trkpt lat="42.2774772" lon="13.2457384"><ele>1206.6</ele><time>2026-05-02T15:58:40.382Z</time></trkpt><trkpt lat="42.2776243" lon="13.2458116"><ele>1205.0</ele><time>2026-05-02T15:58:51.278Z</time></trkpt><trkpt lat="42.2777258" lon="13.2458379"><ele>1205.0</ele><time>2026-05-02T15:58:52.278Z</time></trkpt><trkpt lat="42.2778225" lon="13.2458525"><ele>1205.0</ele><time>2026-05-02T15:58:53.278Z</time></trkpt><trkpt lat="42.2779276" lon="13.2458667"><ele>1205.0</ele><time>2026-05-02T15:58:54.278Z</time></trkpt><trkpt lat="42.278033" lon="13.2458719"><ele>1205.0</ele><time>2026-05-02T15:58:55.278Z</time></trkpt><trkpt lat="42.2781395" lon="13.2458806"><ele>1205.0</ele><time>2026-05-02T15:58:56.278Z</time></trkpt><trkpt lat="42.2782378" lon="13.245894"><ele>1202.6</ele><time>2026-05-02T15:58:57.278Z</time></trkpt><trkpt lat="42.2783294" lon="13.2459025"><ele>1200.2</ele><time>2026-05-02T15:58:58.278Z</time></trkpt><trkpt lat="42.2784078" lon="13.2459021"><ele>1197.8</ele><time>2026-05-02T15:58:59.278Z</time></trkpt><trkpt lat="42.2784988" lon="13.2458803"><ele>1195.4</ele><time>2026-05-02T15:59:00.278Z</time></trkpt><trkpt lat="42.2786" lon="13.2458383"><ele>1193.0</ele><time>2026-05-02T15:59:01.278Z</time></trkpt><trkpt lat="42.2787" lon="13.24579"><ele>1193.0</ele><time>2026-05-02T15:59:02.278Z</time></trkpt><trkpt lat="42.27882" lon="13.2457383"><ele>1193.0</ele><time>2026-05-02T15:59:03.279Z</time></trkpt><trkpt lat="42.2789167" lon="13.2456983"><ele>1193.0</ele><time>2026-05-02T15:59:04.279Z</time></trkpt><trkpt lat="42.2790117" lon="13.2456583"><ele>1193.0</ele><time>2026-05-02T15:59:05.279Z</time></trkpt><trkpt lat="42.2791333" lon="13.2456283"><ele>1194.25</ele><time>2026-05-02T15:59:06.278Z</time></trkpt><trkpt lat="42.2792533" lon="13.2455983"><ele>1195.5</ele><time>2026-05-02T15:59:07.278Z</time></trkpt><trkpt lat="42.279375" lon="13.2455517"><ele>1196.75</ele><time>2026-05-02T15:59:08.278Z</time></trkpt><trkpt lat="42.2795067" lon="13.2454983"><ele>1198.0</ele><time>2026-05-02T15:59:09.278Z</time></trkpt><trkpt lat="42.2796217" lon="13.2454483"><ele>1198.0</ele><time>2026-05-02T15:59:10.278Z</time></trkpt><trkpt lat="42.2797367" lon="13.2453983"><ele>1198.0</ele><time>2026-05-02T15:59:11.278Z</time></trkpt><trkpt lat="42.279855" lon="13.2453433"><ele>1198.0</ele><time>2026-05-02T15:59:12.278Z</time></trkpt><trkpt lat="42.2799683" lon="13.2452933"><ele>1198.0</ele><time>2026-05-02T15:59:13.278Z</time></trkpt><trkpt lat="42.2800833" lon="13.245225"><ele>1196.5</ele><time>2026-05-02T15:59:14.278Z</time></trkpt><trkpt lat="42.2802033" lon="13.2451317"><ele>1195.0</ele><time>2026-05-02T15:59:15.278Z</time></trkpt><trkpt lat="42.28031" lon="13.245025"><ele>1193.5</ele><time>2026-05-02T15:59:16.278Z</time></trkpt><trkpt lat="42.2804117" lon="13.244915"><ele>1192.0</ele><time>2026-05-02T15:59:17.279Z</time></trkpt><trkpt lat="42.280515" lon="13.2448317"><ele>1192.75</ele><time>2026-05-02T15:59:18.279Z</time></trkpt><trkpt lat="42.28062" lon="13.2447617"><ele>1193.5</ele><time>2026-05-02T15:59:19.278Z</time></trkpt><trkpt lat="42.2807283" lon="13.24471"><ele>1194.25</ele><time>2026-05-02T15:59:20.278Z</time></trkpt><trkpt lat="42.2808417" lon="13.2446683"><ele>1195.0</ele><time>2026-05-02T15:59:21.278Z</time></trkpt><trkpt lat="42.2809483" lon="13.244615"><ele>1195.0</ele><time>2026-05-02T15:59:22.278Z</time></trkpt><trkpt lat="42.2810533" lon="13.2445667"><ele>1195.0</ele><time>2026-05-02T15:59:23.278Z</time></trkpt><trkpt lat="42.2811417" lon="13.2445283"><ele>1195.0</ele><time>2026-05-02T15:59:24.279Z</time></trkpt><trkpt lat="42.28123" lon="13.244505"><ele>1195.0</ele><time>2026-05-02T15:59:25.278Z</time></trkpt><trkpt lat="42.2813233" lon="13.2444967"><ele>1195.0</ele><time>2026-05-02T15:59:26.278Z</time></trkpt><trkpt lat="42.2814033" lon="13.2444933"><ele>1193.4</ele><time>2026-05-02T15:59:27.278Z</time></trkpt><trkpt lat="42.2814883" lon="13.244505"><ele>1191.8</ele><time>2026-05-02T15:59:28.278Z</time></trkpt><trkpt lat="42.2815817" lon="13.2445317"><ele>1190.2</ele><time>2026-05-02T15:59:29.278Z</time></trkpt><trkpt lat="42.2816867" lon="13.2445667"><ele>1188.6</ele><time>2026-05-02T15:59:30.278Z</time></trkpt><trkpt lat="42.2818033" lon="13.2446017"><ele>1187.0</ele><time>2026-05-02T15:59:31.278Z</time></trkpt><trkpt lat="42.2819067" lon="13.2446317"><ele>1187.0</ele><time>2026-05-02T15:59:32.278Z</time></trkpt><trkpt lat="42.2820117" lon="13.2446617"><ele>1187.0</ele><time>2026-05-02T15:59:33.278Z</time></trkpt><trkpt lat="42.2821017" lon="13.2446667"><ele>1187.0</ele><time>2026-05-02T15:59:34.278Z</time></trkpt><trkpt lat="42.2821784" lon="13.2446667"><ele>1187.0</ele><time>2026-05-02T15:59:35.278Z</time></trkpt><trkpt lat="42.282245" lon="13.2446553"><ele>1187.0</ele><time>2026-05-02T15:59:36.278Z</time></trkpt><trkpt lat="42.282323" lon="13.2445906"><ele>1187.0</ele><time>2026-05-02T15:59:38.278Z</time></trkpt><trkpt lat="42.2823483" lon="13.2444255"><ele>1187.0</ele><time>2026-05-02T15:59:40.278Z</time></trkpt><trkpt lat="42.2823738" lon="13.2443038"><ele>1187.0</ele><time>2026-05-02T15:59:41.278Z</time></trkpt><trkpt lat="42.2824149" lon="13.2441737"><ele>1187.0</ele><time>2026-05-02T15:59:42.278Z</time></trkpt><trkpt lat="42.2824814" lon="13.244045"><ele>1187.0</ele><time>2026-05-02T15:59:43.278Z</time></trkpt><trkpt lat="42.2825633" lon="13.2439228"><ele>1187.0</ele><time>2026-05-02T15:59:44.278Z</time></trkpt><trkpt lat="42.2826591" lon="13.2438068"><ele>1187.0</ele><time>2026-05-02T15:59:45.278Z</time></trkpt><trkpt lat="42.2827508" lon="13.243696"><ele>1187.0</ele><time>2026-05-02T15:59:46.278Z</time></trkpt><trkpt lat="42.2828325" lon="13.2435996"><ele>1187.0</ele><time>2026-05-02T15:59:47.278Z</time></trkpt><trkpt lat="42.2828977" lon="13.243517"><ele>1187.0</ele><time>2026-05-02T15:59:48.278Z</time></trkpt><trkpt lat="42.2829442" lon="13.2434337"><ele>1187.0</ele><time>2026-05-02T15:59:49.279Z</time></trkpt><trkpt lat="42.2829797" lon="13.2433437"><ele>1187.0</ele><time>2026-05-02T15:59:50.278Z</time></trkpt><trkpt lat="42.2830047" lon="13.2432376"><ele>1187.0</ele><time>2026-05-02T15:59:51.278Z</time></trkpt><trkpt lat="42.2830158" lon="13.2431128"><ele>1187.0</ele><time>2026-05-02T15:59:52.279Z</time></trkpt><trkpt lat="42.2830118" lon="13.24298"><ele>1187.0</ele><time>2026-05-02T15:59:53.278Z</time></trkpt><trkpt lat="42.2829931" lon="13.2428485"><ele>1187.0</ele><time>2026-05-02T15:59:54.278Z</time></trkpt><trkpt lat="42.2829613" lon="13.2427166"><ele>1186.0</ele><time>2026-05-02T15:59:55.278Z</time></trkpt><trkpt lat="42.2829299" lon="13.2425876"><ele>1185.0</ele><time>2026-05-02T15:59:56.278Z</time></trkpt><trkpt lat="42.2828962" lon="13.2424625"><ele>1184.0</ele><time>2026-05-02T15:59:57.278Z</time></trkpt><trkpt lat="42.2828634" lon="13.2423443"><ele>1183.0</ele><time>2026-05-02T15:59:58.278Z</time></trkpt><trkpt lat="42.2828413" lon="13.2422347"><ele>1182.0</ele><time>2026-05-02T15:59:59.278Z</time></trkpt><trkpt lat="42.2828349" lon="13.2421245"><ele>1182.5</ele><time>2026-05-02T16:00:00.279Z</time></trkpt><trkpt lat="42.2828404" lon="13.2420221"><ele>1183.0</ele><time>2026-05-02T16:00:01.278Z</time></trkpt><trkpt lat="42.2828469" lon="13.2419336"><ele>1183.5</ele><time>2026-05-02T16:00:02.278Z</time></trkpt><trkpt lat="42.282902" lon="13.2418247"><ele>1184.0</ele><time>2026-05-02T16:00:04.278Z</time></trkpt><trkpt lat="42.2829885" lon="13.2417749"><ele>1184.5</ele><time>2026-05-02T16:00:06.278Z</time></trkpt><trkpt lat="42.2830523" lon="13.2417787"><ele>1185.0</ele><time>2026-05-02T16:00:07.278Z</time></trkpt><trkpt lat="42.2831216" lon="13.2417942"><ele>1185.0</ele><time>2026-05-02T16:00:08.278Z</time></trkpt><trkpt lat="42.2832005" lon="13.2418155"><ele>1185.0</ele><time>2026-05-02T16:00:09.278Z</time></trkpt><trkpt lat="42.2832875" lon="13.2418333"><ele>1185.0</ele><time>2026-05-02T16:00:10.278Z</time></trkpt><trkpt lat="42.2833853" lon="13.241854"><ele>1185.0</ele><time>2026-05-02T16:00:11.278Z</time></trkpt><trkpt lat="42.2834831" lon="13.241873"><ele>1185.0</ele><time>2026-05-02T16:00:12.278Z</time></trkpt><trkpt lat="42.2835745" lon="13.2418832"><ele>1185.0</ele><time>2026-05-02T16:00:13.278Z</time></trkpt><trkpt lat="42.2836615" lon="13.2418841"><ele>1185.0</ele><time>2026-05-02T16:00:14.278Z</time></trkpt><trkpt lat="42.2837449" lon="13.2418761"><ele>1185.0</ele><time>2026-05-02T16:00:15.278Z</time></trkpt><trkpt lat="42.2838174" lon="13.2418517"><ele>1185.0</ele><time>2026-05-02T16:00:16.278Z</time></trkpt><trkpt lat="42.28389" lon="13.2418193"><ele>1185.0</ele><time>2026-05-02T16:00:17.278Z</time></trkpt><trkpt lat="42.2839611" lon="13.2417725"><ele>1185.0</ele><time>2026-05-02T16:00:18.278Z</time></trkpt><trkpt lat="42.2840293" lon="13.24171"><ele>1186.0</ele><time>2026-05-02T16:00:19.278Z</time></trkpt><trkpt lat="42.2841147" lon="13.2416346"><ele>1187.0</ele><time>2026-05-02T16:00:20.278Z</time></trkpt><trkpt lat="42.2842247" lon="13.2415383"><ele>1188.0</ele><time>2026-05-02T16:00:21.278Z</time></trkpt><trkpt lat="42.2843635" lon="13.2414223"><ele>1189.0</ele><time>2026-05-02T16:00:22.278Z</time></trkpt><trkpt lat="42.2845143" lon="13.2413015"><ele>1189.6666666666665</ele><time>2026-05-02T16:00:23.278Z</time></trkpt><trkpt lat="42.2846656" lon="13.2411569"><ele>1190.3333333333333</ele><time>2026-05-02T16:00:24.278Z</time></trkpt><trkpt lat="42.2848043" lon="13.2409951"><ele>1191.0</ele><time>2026-05-02T16:00:25.278Z</time></trkpt><trkpt lat="42.2849402" lon="13.2408059"><ele>1199.3333333333333</ele><time>2026-05-02T16:00:26.278Z</time></trkpt><trkpt lat="42.2850711" lon="13.2406216"><ele>1207.6666666666665</ele><time>2026-05-02T16:00:27.278Z</time></trkpt><trkpt lat="42.2852061" lon="13.240469"><ele>1216.0</ele><time>2026-05-02T16:00:28.278Z</time></trkpt><trkpt lat="42.2853633" lon="13.2403536"><ele>1216.0</ele><time>2026-05-02T16:00:29.279Z</time></trkpt><trkpt lat="42.2855182" lon="13.2402522"><ele>1216.0</ele><time>2026-05-02T16:00:30.278Z</time></trkpt><trkpt lat="42.2856785" lon="13.240158"><ele>1216.0</ele><time>2026-05-02T16:00:31.278Z</time></trkpt><trkpt lat="42.2858325" lon="13.2400646"><ele>1213.3333333333333</ele><time>2026-05-02T16:00:32.278Z</time></trkpt><trkpt lat="42.2859805" lon="13.239975"><ele>1210.6666666666667</ele><time>2026-05-02T16:00:33.278Z</time></trkpt><trkpt lat="42.2861287" lon="13.2398986"><ele>1208.0</ele><time>2026-05-02T16:00:34.278Z</time></trkpt><trkpt lat="42.2862822" lon="13.2398192"><ele>1213.25</ele><time>2026-05-02T16:00:35.279Z</time></trkpt><trkpt lat="42.2864339" lon="13.2397404"><ele>1218.5</ele><time>2026-05-02T16:00:36.278Z</time></trkpt><trkpt lat="42.2865721" lon="13.2396592"><ele>1223.75</ele><time>2026-05-02T16:00:37.278Z</time></trkpt><trkpt lat="42.2866873" lon="13.2396138"><ele>1229.0</ele><time>2026-05-02T16:00:38.278Z</time></trkpt><trkpt lat="42.2868051" lon="13.2395997"><ele>1229.0</ele><time>2026-05-02T16:00:39.278Z</time></trkpt><trkpt lat="42.2869303" lon="13.2395977"><ele>1229.0</ele><time>2026-05-02T16:00:40.278Z</time></trkpt><trkpt lat="42.2870609" lon="13.2396179"><ele>1229.0</ele><time>2026-05-02T16:00:41.278Z</time></trkpt><trkpt lat="42.2872005" lon="13.2396103"><ele>1229.0</ele><time>2026-05-02T16:00:42.278Z</time></trkpt><trkpt lat="42.2873353" lon="13.2395971"><ele>1227.75</ele><time>2026-05-02T16:00:43.278Z</time></trkpt><trkpt lat="42.2874601" lon="13.2396128"><ele>1226.5</ele><time>2026-05-02T16:00:44.278Z</time></trkpt><trkpt lat="42.2875685" lon="13.2396606"><ele>1225.25</ele><time>2026-05-02T16:00:45.278Z</time></trkpt><trkpt lat="42.2876685" lon="13.2397274"><ele>1224.0</ele><time>2026-05-02T16:00:46.278Z</time></trkpt><trkpt lat="42.2877563" lon="13.239821"><ele>1225.5</ele><time>2026-05-02T16:00:47.279Z</time></trkpt><trkpt lat="42.2878572" lon="13.2398699"><ele>1227.0</ele><time>2026-05-02T16:00:48.278Z</time></trkpt><trkpt lat="42.2879645" lon="13.239872"><ele>1228.5</ele><time>2026-05-02T16:00:49.278Z</time></trkpt><trkpt lat="42.2880764" lon="13.2398419"><ele>1230.0</ele><time>2026-05-02T16:00:50.278Z</time></trkpt><trkpt lat="42.2882061" lon="13.2397631"><ele>1230.0</ele><time>2026-05-02T16:00:51.278Z</time></trkpt><trkpt lat="42.2883583" lon="13.2396609"><ele>1230.0</ele><time>2026-05-02T16:00:52.278Z</time></trkpt><trkpt lat="42.2885316" lon="13.2395563"><ele>1230.0</ele><time>2026-05-02T16:00:53.278Z</time></trkpt><trkpt lat="42.2887231" lon="13.2394564"><ele>1230.0</ele><time>2026-05-02T16:00:54.278Z</time></trkpt><trkpt lat="42.2889098" lon="13.2393648"><ele>1230.0</ele><time>2026-05-02T16:00:55.279Z</time></trkpt><trkpt lat="42.2891057" lon="13.239309"><ele>1230.0</ele><time>2026-05-02T16:00:56.278Z</time></trkpt><trkpt lat="42.2892775" lon="13.2392769"><ele>1229.5</ele><time>2026-05-02T16:00:57.278Z</time></trkpt><trkpt lat="42.2894413" lon="13.2392631"><ele>1229.0</ele><time>2026-05-02T16:00:58.278Z</time></trkpt><trkpt lat="42.2895896" lon="13.2392713"><ele>1228.5</ele><time>2026-05-02T16:00:59.279Z</time></trkpt><trkpt lat="42.2897251" lon="13.2392767"><ele>1228.0</ele><time>2026-05-02T16:01:00.278Z</time></trkpt><trkpt lat="42.289867" lon="13.2392374"><ele>1229.0</ele><time>2026-05-02T16:01:01.278Z</time></trkpt><trkpt lat="42.290009" lon="13.2391792"><ele>1230.0</ele><time>2026-05-02T16:01:02.278Z</time></trkpt><trkpt lat="42.2901533" lon="13.2391335"><ele>1231.0</ele><time>2026-05-02T16:01:03.278Z</time></trkpt><trkpt lat="42.2902939" lon="13.2391427"><ele>1232.0</ele><time>2026-05-02T16:01:04.278Z</time></trkpt><trkpt lat="42.2904262" lon="13.2391683"><ele>1232.0</ele><time>2026-05-02T16:01:05.278Z</time></trkpt><trkpt lat="42.290535" lon="13.2392364"><ele>1232.0</ele><time>2026-05-02T16:01:06.278Z</time></trkpt><trkpt lat="42.2906558" lon="13.2392647"><ele>1232.0</ele><time>2026-05-02T16:01:07.278Z</time></trkpt><trkpt lat="42.2907892" lon="13.2392454"><ele>1232.0</ele><time>2026-05-02T16:01:08.278Z</time></trkpt><trkpt lat="42.2909317" lon="13.23916"><ele>1232.3333333333335</ele><time>2026-05-02T16:01:09.278Z</time></trkpt><trkpt lat="42.2910867" lon="13.2390567"><ele>1232.6666666666667</ele><time>2026-05-02T16:01:10.278Z</time></trkpt><trkpt lat="42.29126" lon="13.23898"><ele>1233.0</ele><time>2026-05-02T16:01:11.278Z</time></trkpt><trkpt lat="42.2914483" lon="13.23892"><ele>1243.3333333333333</ele><time>2026-05-02T16:01:12.279Z</time></trkpt><trkpt lat="42.2916533" lon="13.2388833"><ele>1253.6666666666665</ele><time>2026-05-02T16:01:13.278Z</time></trkpt><trkpt lat="42.291865" lon="13.238835"><ele>1264.0</ele><time>2026-05-02T16:01:14.278Z</time></trkpt><trkpt lat="42.2920617" lon="13.23876"><ele>1262.3333333333333</ele><time>2026-05-02T16:01:15.278Z</time></trkpt><trkpt lat="42.2922633" lon="13.2387017"><ele>1260.6666666666667</ele><time>2026-05-02T16:01:16.278Z</time></trkpt><trkpt lat="42.29245" lon="13.2386717"><ele>1259.0</ele><time>2026-05-02T16:01:17.278Z</time></trkpt><trkpt lat="42.2926217" lon="13.2386417"><ele>1259.0</ele><time>2026-05-02T16:01:18.278Z</time></trkpt><trkpt lat="42.2927917" lon="13.2386067"><ele>1259.0</ele><time>2026-05-02T16:01:19.279Z</time></trkpt><trkpt lat="42.29295" lon="13.2385433"><ele>1259.0</ele><time>2026-05-02T16:01:20.278Z</time></trkpt><trkpt lat="42.2931183" lon="13.23843"><ele>1255.3333333333335</ele><time>2026-05-02T16:01:21.278Z</time></trkpt><trkpt lat="42.29328" lon="13.238315"><ele>1251.6666666666667</ele><time>2026-05-02T16:01:22.278Z</time></trkpt><trkpt lat="42.2934433" lon="13.238205"><ele>1248.0</ele><time>2026-05-02T16:01:23.278Z</time></trkpt><trkpt lat="42.2936167" lon="13.23811"><ele>1254.6666666666667</ele><time>2026-05-02T16:01:24.278Z</time></trkpt><trkpt lat="42.293785" lon="13.2380233"><ele>1261.3333333333335</ele><time>2026-05-02T16:01:25.278Z</time></trkpt><trkpt lat="42.2939567" lon="13.2379333"><ele>1268.0</ele><time>2026-05-02T16:01:26.278Z</time></trkpt><trkpt lat="42.29413" lon="13.23782"><ele>1268.0</ele><time>2026-05-02T16:01:27.278Z</time></trkpt><trkpt lat="42.2942983" lon="13.2377133"><ele>1268.0</ele><time>2026-05-02T16:01:28.278Z</time></trkpt><trkpt lat="42.2944433" lon="13.2376083"><ele>1268.0</ele><time>2026-05-02T16:01:29.278Z</time></trkpt><trkpt lat="42.2945833" lon="13.2375067"><ele>1268.0</ele><time>2026-05-02T16:01:30.278Z</time></trkpt><trkpt lat="42.2947467" lon="13.2374333"><ele>1268.0</ele><time>2026-05-02T16:01:31.278Z</time></trkpt><trkpt lat="42.294935" lon="13.2373883"><ele>1268.0</ele><time>2026-05-02T16:01:32.278Z</time></trkpt><trkpt lat="42.2951417" lon="13.2373517"><ele>1265.0</ele><time>2026-05-02T16:01:33.278Z</time></trkpt><trkpt lat="42.2953533" lon="13.23731"><ele>1262.0</ele><time>2026-05-02T16:01:34.278Z</time></trkpt><trkpt lat="42.295545" lon="13.2372767"><ele>1259.0</ele><time>2026-05-02T16:01:35.278Z</time></trkpt><trkpt lat="42.29572" lon="13.23724"><ele>1271.0</ele><time>2026-05-02T16:01:36.278Z</time></trkpt><trkpt lat="42.2959" lon="13.2372033"><ele>1283.0</ele><time>2026-05-02T16:01:37.278Z</time></trkpt><trkpt lat="42.2960867" lon="13.2371533"><ele>1295.0</ele><time>2026-05-02T16:01:38.278Z</time></trkpt><trkpt lat="42.2962733" lon="13.2371217"><ele>1292.3333333333335</ele><time>2026-05-02T16:01:39.278Z</time></trkpt><trkpt lat="42.2964483" lon="13.2370967"><ele>1289.6666666666667</ele><time>2026-05-02T16:01:40.278Z</time></trkpt><trkpt lat="42.296625" lon="13.237085"><ele>1287.0</ele><time>2026-05-02T16:01:41.278Z</time></trkpt><trkpt lat="42.2967983" lon="13.2370967"><ele>1287.0</ele><time>2026-05-02T16:01:42.279Z</time></trkpt><trkpt lat="42.296975" lon="13.2371267"><ele>1287.0</ele><time>2026-05-02T16:01:43.278Z</time></trkpt><trkpt lat="42.2971617" lon="13.2371617"><ele>1287.0</ele><time>2026-05-02T16:01:44.278Z</time></trkpt><trkpt lat="42.2973517" lon="13.2372033"><ele>1289.3333333333333</ele><time>2026-05-02T16:01:45.278Z</time></trkpt><trkpt lat="42.2975467" lon="13.237255"><ele>1291.6666666666665</ele><time>2026-05-02T16:01:46.278Z</time></trkpt><trkpt lat="42.297745" lon="13.2373017"><ele>1294.0</ele><time>2026-05-02T16:01:47.278Z</time></trkpt><trkpt lat="42.29792" lon="13.2373533"><ele>1289.75</ele><time>2026-05-02T16:01:48.278Z</time></trkpt><trkpt lat="42.2980633" lon="13.2374217"><ele>1285.5</ele><time>2026-05-02T16:01:49.278Z</time></trkpt><trkpt lat="42.2981983" lon="13.237515"><ele>1281.25</ele><time>2026-05-02T16:01:50.278Z</time></trkpt><trkpt lat="42.298315" lon="13.2376233"><ele>1277.0</ele><time>2026-05-02T16:01:51.279Z</time></trkpt><trkpt lat="42.29842" lon="13.2377383"><ele>1277.0</ele><time>2026-05-02T16:01:52.278Z</time></trkpt><trkpt lat="42.2985267" lon="13.2378383"><ele>1277.0</ele><time>2026-05-02T16:01:53.278Z</time></trkpt><trkpt lat="42.2986367" lon="13.2379283"><ele>1277.0</ele><time>2026-05-02T16:01:54.278Z</time></trkpt><trkpt lat="42.29876" lon="13.237975"><ele>1277.0</ele><time>2026-05-02T16:01:55.278Z</time></trkpt><trkpt lat="42.298885" lon="13.2379817"><ele>1277.75</ele><time>2026-05-02T16:01:56.278Z</time></trkpt><trkpt lat="42.2990117" lon="13.2379483"><ele>1278.5</ele><time>2026-05-02T16:01:57.278Z</time></trkpt><trkpt lat="42.2991267" lon="13.237905"><ele>1279.25</ele><time>2026-05-02T16:01:58.278Z</time></trkpt><trkpt lat="42.2992483" lon="13.2378433"><ele>1280.0</ele><time>2026-05-02T16:01:59.278Z</time></trkpt><trkpt lat="42.299395" lon="13.237805"><ele>1280.0</ele><time>2026-05-02T16:02:00.278Z</time></trkpt><trkpt lat="42.2995583" lon="13.2378017"><ele>1280.0</ele><time>2026-05-02T16:02:01.278Z</time></trkpt><trkpt lat="42.299705" lon="13.237825"><ele>1280.0</ele><time>2026-05-02T16:02:02.278Z</time></trkpt><trkpt lat="42.2998367" lon="13.237885"><ele>1278.6666666666667</ele><time>2026-05-02T16:02:03.278Z</time></trkpt><trkpt lat="42.299995" lon="13.2379467"><ele>1277.3333333333333</ele><time>2026-05-02T16:02:04.278Z</time></trkpt><trkpt lat="42.3001483" lon="13.237975"><ele>1276.0</ele><time>2026-05-02T16:02:05.278Z</time></trkpt><trkpt lat="42.30033" lon="13.2379617"><ele>1276.0</ele><time>2026-05-02T16:02:06.278Z</time></trkpt><trkpt lat="42.3004967" lon="13.2379017"><ele>1276.0</ele><time>2026-05-02T16:02:07.278Z</time></trkpt><trkpt lat="42.30067" lon="13.2378183"><ele>1276.0</ele><time>2026-05-02T16:02:08.278Z</time></trkpt><trkpt lat="42.30083" lon="13.2377367"><ele>1276.3333333333333</ele><time>2026-05-02T16:02:09.278Z</time></trkpt><trkpt lat="42.3009867" lon="13.237695"><ele>1276.6666666666667</ele><time>2026-05-02T16:02:10.279Z</time></trkpt><trkpt lat="42.30115" lon="13.2376967"><ele>1277.0</ele><time>2026-05-02T16:02:11.278Z</time></trkpt><trkpt lat="42.30133" lon="13.23771"><ele>1275.3333333333335</ele><time>2026-05-02T16:02:12.278Z</time></trkpt><trkpt lat="42.3015183" lon="13.23772"><ele>1273.6666666666667</ele><time>2026-05-02T16:02:13.279Z</time></trkpt><trkpt lat="42.3017267" lon="13.23773"><ele>1272.0</ele><time>2026-05-02T16:02:14.278Z</time></trkpt><trkpt lat="42.3019217" lon="13.237735"><ele>1272.0</ele><time>2026-05-02T16:02:15.278Z</time></trkpt><trkpt lat="42.3020967" lon="13.237725"><ele>1272.0</ele><time>2026-05-02T16:02:16.278Z</time></trkpt><trkpt lat="42.3022268" lon="13.2377186"><ele>1272.0</ele><time>2026-05-02T16:02:17.278Z</time></trkpt><trkpt lat="42.3023216" lon="13.237703"><ele>1272.0</ele><time>2026-05-02T16:02:18.278Z</time></trkpt><trkpt lat="42.3024283" lon="13.2376818"><ele>1272.0</ele><time>2026-05-02T16:02:20.278Z</time></trkpt><trkpt lat="42.3025083" lon="13.2376533"><ele>1272.0</ele><time>2026-05-02T16:02:23.279Z</time></trkpt><trkpt lat="42.302445" lon="13.2376267"><ele>1272.0</ele><time>2026-05-02T16:02:33.278Z</time></trkpt><trkpt lat="42.30238" lon="13.2376433"><ele>1272.0</ele><time>2026-05-02T16:02:34.278Z</time></trkpt><trkpt lat="42.3022733" lon="13.2376733"><ele>1272.0</ele><time>2026-05-02T16:02:36.278Z</time></trkpt><trkpt lat="42.30223" lon="13.237765"><ele>1272.0</ele><time>2026-05-02T16:02:39.278Z</time></trkpt><trkpt lat="42.3022917" lon="13.2378267"><ele>1272.2</ele><time>2026-05-02T16:02:42.278Z</time></trkpt><trkpt lat="42.3023967" lon="13.2379167"><ele>1272.4</ele><time>2026-05-02T16:02:44.278Z</time></trkpt><trkpt lat="42.302465" lon="13.238005"><ele>1272.6</ele><time>2026-05-02T16:02:46.279Z</time></trkpt><trkpt lat="42.3024883" lon="13.238115"><ele>1272.8</ele><time>2026-05-02T16:02:48.278Z</time></trkpt><trkpt lat="42.3025315" lon="13.2382708"><ele>1273.0</ele><time>2026-05-02T16:02:50.278Z</time></trkpt><trkpt lat="42.3025963" lon="13.2384119"><ele>1271.8</ele><time>2026-05-02T16:02:52.278Z</time></trkpt><trkpt lat="42.3026979" lon="13.238511"><ele>1270.6</ele><time>2026-05-02T16:02:54.278Z</time></trkpt><trkpt lat="42.3027559" lon="13.238558"><ele>1269.4</ele><time>2026-05-02T16:02:55.278Z</time></trkpt><trkpt lat="42.3028271" lon="13.2386071"><ele>1268.2</ele><time>2026-05-02T16:02:56.278Z</time></trkpt><trkpt lat="42.3029114" lon="13.2386649"><ele>1267.0</ele><time>2026-05-02T16:02:57.278Z</time></trkpt><trkpt lat="42.3029982" lon="13.238716"><ele>1267.0</ele><time>2026-05-02T16:02:58.278Z</time></trkpt><trkpt lat="42.3030742" lon="13.2387557"><ele>1267.0</ele><time>2026-05-02T16:02:59.278Z</time></trkpt><trkpt lat="42.3031473" lon="13.2387851"><ele>1267.0</ele><time>2026-05-02T16:03:00.278Z</time></trkpt><trkpt lat="42.3032154" lon="13.2388203"><ele>1267.0</ele><time>2026-05-02T16:03:01.278Z</time></trkpt><trkpt lat="42.3032792" lon="13.2388742"><ele>1267.0</ele><time>2026-05-02T16:03:02.278Z</time></trkpt><trkpt lat="42.303344" lon="13.2389451"><ele>1267.0</ele><time>2026-05-02T16:03:03.278Z</time></trkpt><trkpt lat="42.3034091" lon="13.2390192"><ele>1268.6666666666665</ele><time>2026-05-02T16:03:04.278Z</time></trkpt><trkpt lat="42.3034727" lon="13.2390971"><ele>1270.3333333333333</ele><time>2026-05-02T16:03:05.279Z</time></trkpt><trkpt lat="42.3035363" lon="13.239174"><ele>1272.0</ele><time>2026-05-02T16:03:06.278Z</time></trkpt><trkpt lat="42.3035975" lon="13.2392464"><ele>1273.6666666666667</ele><time>2026-05-02T16:03:07.278Z</time></trkpt><trkpt lat="42.3036581" lon="13.239317"><ele>1275.3333333333335</ele><time>2026-05-02T16:03:08.278Z</time></trkpt><trkpt lat="42.3037291" lon="13.2393832"><ele>1277.0</ele><time>2026-05-02T16:03:09.278Z</time></trkpt><trkpt lat="42.3037964" lon="13.2394519"><ele>1277.0</ele><time>2026-05-02T16:03:10.278Z</time></trkpt><trkpt lat="42.3038495" lon="13.2395181"><ele>1277.0</ele><time>2026-05-02T16:03:11.278Z</time></trkpt><trkpt lat="42.3039105" lon="13.2396819"><ele>1277.0</ele><time>2026-05-02T16:03:13.278Z</time></trkpt><trkpt lat="42.3039326" lon="13.2397982"><ele>1277.0</ele><time>2026-05-02T16:03:14.278Z</time></trkpt><trkpt lat="42.3039481" lon="13.2399315"><ele>1277.0</ele><time>2026-05-02T16:03:15.278Z</time></trkpt><trkpt lat="42.3039589" lon="13.2400656"><ele>1277.2</ele><time>2026-05-02T16:03:16.279Z</time></trkpt><trkpt lat="42.3039714" lon="13.2401979"><ele>1277.4</ele><time>2026-05-02T16:03:17.278Z</time></trkpt><trkpt lat="42.3039884" lon="13.2403184"><ele>1277.6</ele><time>2026-05-02T16:03:18.278Z</time></trkpt><trkpt lat="42.3040124" lon="13.2404342"><ele>1277.8</ele><time>2026-05-02T16:03:19.279Z</time></trkpt><trkpt lat="42.3040391" lon="13.2405527"><ele>1278.0</ele><time>2026-05-02T16:03:20.278Z</time></trkpt><trkpt lat="42.3040667" lon="13.24067"><ele>1278.0</ele><time>2026-05-02T16:03:21.278Z</time></trkpt><trkpt lat="42.304085" lon="13.24079"><ele>1278.0</ele><time>2026-05-02T16:03:22.278Z</time></trkpt><trkpt lat="42.3040983" lon="13.24091"><ele>1278.0</ele><time>2026-05-02T16:03:23.278Z</time></trkpt><trkpt lat="42.3041083" lon="13.24103"><ele>1278.0</ele><time>2026-05-02T16:03:24.279Z</time></trkpt><trkpt lat="42.304115" lon="13.2411317"><ele>1278.0</ele><time>2026-05-02T16:03:25.278Z</time></trkpt><trkpt lat="42.3041067" lon="13.2412433"><ele>1278.0</ele><time>2026-05-02T16:03:26.278Z</time></trkpt><trkpt lat="42.3040833" lon="13.241335"><ele>1278.0</ele><time>2026-05-02T16:03:27.278Z</time></trkpt><trkpt lat="42.304055" lon="13.241425"><ele>1278.0</ele><time>2026-05-02T16:03:28.278Z</time></trkpt><trkpt lat="42.3040267" lon="13.2415067"><ele>1278.0</ele><time>2026-05-02T16:03:29.278Z</time></trkpt><trkpt lat="42.3040083" lon="13.2415933"><ele>1278.0</ele><time>2026-05-02T16:03:30.278Z</time></trkpt><trkpt lat="42.3039817" lon="13.2416817"><ele>1278.0</ele><time>2026-05-02T16:03:31.278Z</time></trkpt><trkpt lat="42.3039533" lon="13.2417733"><ele>1278.0</ele><time>2026-05-02T16:03:32.278Z</time></trkpt><trkpt lat="42.3038867" lon="13.24192"><ele>1281.3333333333333</ele><time>2026-05-02T16:03:34.279Z</time></trkpt><trkpt lat="42.30385" lon="13.242"><ele>1284.6666666666667</ele><time>2026-05-02T16:03:35.278Z</time></trkpt><trkpt lat="42.303805" lon="13.2420783"><ele>1288.0</ele><time>2026-05-02T16:03:36.278Z</time></trkpt><trkpt lat="42.3037633" lon="13.2421717"><ele>1291.3333333333335</ele><time>2026-05-02T16:03:37.278Z</time></trkpt><trkpt lat="42.3037217" lon="13.2422683"><ele>1294.6666666666667</ele><time>2026-05-02T16:03:38.278Z</time></trkpt><trkpt lat="42.303685" lon="13.2423783"><ele>1298.0</ele><time>2026-05-02T16:03:39.278Z</time></trkpt><trkpt lat="42.3036617" lon="13.2424867"><ele>1298.0</ele><time>2026-05-02T16:03:40.278Z</time></trkpt><trkpt lat="42.30364" lon="13.2425933"><ele>1298.0</ele><time>2026-05-02T16:03:41.279Z</time></trkpt><trkpt lat="42.3036217" lon="13.2427017"><ele>1298.0</ele><time>2026-05-02T16:03:42.278Z</time></trkpt><trkpt lat="42.3036033" lon="13.2428"><ele>1298.0</ele><time>2026-05-02T16:03:43.278Z</time></trkpt><trkpt lat="42.3035933" lon="13.2429067"><ele>1298.0</ele><time>2026-05-02T16:03:44.278Z</time></trkpt><trkpt lat="42.3035883" lon="13.2430133"><ele>1298.0</ele><time>2026-05-02T16:03:45.278Z</time></trkpt><trkpt lat="42.3035867" lon="13.243125"><ele>1298.0</ele><time>2026-05-02T16:03:46.278Z</time></trkpt><trkpt lat="42.3035783" lon="13.2432333"><ele>1298.0</ele><time>2026-05-02T16:03:47.279Z</time></trkpt><trkpt lat="42.303575" lon="13.2433433"><ele>1298.0</ele><time>2026-05-02T16:03:48.278Z</time></trkpt><trkpt lat="42.30357" lon="13.2434583"><ele>1298.0</ele><time>2026-05-02T16:03:49.278Z</time></trkpt><trkpt lat="42.3035717" lon="13.2435617"><ele>1298.0</ele><time>2026-05-02T16:03:50.278Z</time></trkpt><trkpt lat="42.30358" lon="13.24365"><ele>1298.0</ele><time>2026-05-02T16:03:51.278Z</time></trkpt><trkpt lat="42.30359" lon="13.2437417"><ele>1297.9999999999998</ele><time>2026-05-02T16:03:52.278Z</time></trkpt><trkpt lat="42.3035983" lon="13.2438433"><ele>1298.0</ele><time>2026-05-02T16:03:53.278Z</time></trkpt><trkpt lat="42.3036083" lon="13.243945"><ele>1298.0</ele><time>2026-05-02T16:03:54.278Z</time></trkpt><trkpt lat="42.3036133" lon="13.2440417"><ele>1298.0</ele><time>2026-05-02T16:03:55.278Z</time></trkpt><trkpt lat="42.30361" lon="13.2441333"><ele>1298.0</ele><time>2026-05-02T16:03:56.278Z</time></trkpt><trkpt lat="42.3036033" lon="13.2442383"><ele>1297.9999999999998</ele><time>2026-05-02T16:03:57.278Z</time></trkpt><trkpt lat="42.3035817" lon="13.2443417"><ele>1298.0</ele><time>2026-05-02T16:03:58.278Z</time></trkpt><trkpt lat="42.3035583" lon="13.2444433"><ele>1299.0</ele><time>2026-05-02T16:03:59.279Z</time></trkpt><trkpt lat="42.3035267" lon="13.24454"><ele>1300.0</ele><time>2026-05-02T16:04:00.278Z</time></trkpt><trkpt lat="42.303515" lon="13.2446683"><ele>1301.0</ele><time>2026-05-02T16:04:01.278Z</time></trkpt><trkpt lat="42.303475" lon="13.2447767"><ele>1302.0</ele><time>2026-05-02T16:04:02.278Z</time></trkpt><trkpt lat="42.3034167" lon="13.2448517"><ele>1303.0</ele><time>2026-05-02T16:04:03.279Z</time></trkpt><trkpt lat="42.30335" lon="13.2449483"><ele>1304.0</ele><time>2026-05-02T16:04:04.278Z</time></trkpt><trkpt lat="42.3032983" lon="13.245055"><ele>1304.8333333333335</ele><time>2026-05-02T16:04:05.278Z</time></trkpt><trkpt lat="42.303255" lon="13.2451617"><ele>1305.6666666666667</ele><time>2026-05-02T16:04:06.278Z</time></trkpt><trkpt lat="42.3032183" lon="13.2452617"><ele>1306.5</ele><time>2026-05-02T16:04:07.278Z</time></trkpt><trkpt lat="42.3031983" lon="13.2453567"><ele>1307.3333333333333</ele><time>2026-05-02T16:04:08.278Z</time></trkpt><trkpt lat="42.3031817" lon="13.24545"><ele>1308.1666666666665</ele><time>2026-05-02T16:04:09.278Z</time></trkpt><trkpt lat="42.3031783" lon="13.2455567"><ele>1309.0</ele><time>2026-05-02T16:04:10.278Z</time></trkpt><trkpt lat="42.3031783" lon="13.2456617"><ele>1310.0</ele><time>2026-05-02T16:04:11.279Z</time></trkpt><trkpt lat="42.3031567" lon="13.245755"><ele>1311.0</ele><time>2026-05-02T16:04:12.279Z</time></trkpt><trkpt lat="42.3031233" lon="13.2458317"><ele>1312.0</ele><time>2026-05-02T16:04:13.278Z</time></trkpt><trkpt lat="42.3030783" lon="13.2459133"><ele>1313.0</ele><time>2026-05-02T16:04:14.278Z</time></trkpt><trkpt lat="42.303045" lon="13.2460033"><ele>1314.0</ele><time>2026-05-02T16:04:15.278Z</time></trkpt><trkpt lat="42.303025" lon="13.2460917"><ele>1315.0</ele><time>2026-05-02T16:04:16.278Z</time></trkpt><trkpt lat="42.3030017" lon="13.2461767"><ele>1316.0</ele><time>2026-05-02T16:04:17.278Z</time></trkpt><trkpt lat="42.3029567" lon="13.2463117"><ele>1316.0</ele><time>2026-05-02T16:04:19.279Z</time></trkpt><trkpt lat="42.3028883" lon="13.24643"><ele>1316.0</ele><time>2026-05-02T16:04:21.278Z</time></trkpt><trkpt lat="42.30282" lon="13.2465867"><ele>1316.0</ele><time>2026-05-02T16:04:23.278Z</time></trkpt><trkpt lat="42.302785" lon="13.24668"><ele>1316.0</ele><time>2026-05-02T16:04:24.278Z</time></trkpt><trkpt lat="42.30275" lon="13.246785"><ele>1316.0</ele><time>2026-05-02T16:04:25.278Z</time></trkpt><trkpt lat="42.302715" lon="13.2468883"><ele>1317.5</ele><time>2026-05-02T16:04:26.279Z</time></trkpt><trkpt lat="42.3026717" lon="13.2469767"><ele>1319.0</ele><time>2026-05-02T16:04:27.278Z</time></trkpt><trkpt lat="42.30262" lon="13.24705"><ele>1320.5</ele><time>2026-05-02T16:04:28.278Z</time></trkpt><trkpt lat="42.3025683" lon="13.2471233"><ele>1322.0</ele><time>2026-05-02T16:04:29.278Z</time></trkpt><trkpt lat="42.3025217" lon="13.2472017"><ele>1323.5</ele><time>2026-05-02T16:04:30.278Z</time></trkpt><trkpt lat="42.3024583" lon="13.24734"><ele>1325.0</ele><time>2026-05-02T16:04:32.279Z</time></trkpt><trkpt lat="42.3024167" lon="13.2474083"><ele>1327.2857142857144</ele><time>2026-05-02T16:04:33.278Z</time></trkpt><trkpt lat="42.3023767" lon="13.2474783"><ele>1329.5714285714284</ele><time>2026-05-02T16:04:34.278Z</time></trkpt><trkpt lat="42.3023333" lon="13.2475567"><ele>1331.857142857143</ele><time>2026-05-02T16:04:35.278Z</time></trkpt><trkpt lat="42.3022783" lon="13.2476217"><ele>1334.1428571428573</ele><time>2026-05-02T16:04:36.278Z</time></trkpt><trkpt lat="42.3022217" lon="13.2476883"><ele>1336.4285714285716</ele><time>2026-05-02T16:04:37.278Z</time></trkpt><trkpt lat="42.3021617" lon="13.2477583"><ele>1338.7142857142858</ele><time>2026-05-02T16:04:38.278Z</time></trkpt><trkpt lat="42.3021167" lon="13.2478467"><ele>1341.0</ele><time>2026-05-02T16:04:39.278Z</time></trkpt><trkpt lat="42.30207" lon="13.2479267"><ele>1342.1999999999998</ele><time>2026-05-02T16:04:40.279Z</time></trkpt><trkpt lat="42.30203" lon="13.248005"><ele>1343.3999999999999</ele><time>2026-05-02T16:04:41.278Z</time></trkpt><trkpt lat="42.3020167" lon="13.2480933"><ele>1344.6</ele><time>2026-05-02T16:04:42.278Z</time></trkpt><trkpt lat="42.3019283" lon="13.2482233"><ele>1345.8</ele><time>2026-05-02T16:04:44.278Z</time></trkpt><trkpt lat="42.3018233" lon="13.248335"><ele>1347.0</ele><time>2026-05-02T16:04:46.278Z</time></trkpt><trkpt lat="42.301765" lon="13.248395"><ele>1347.8</ele><time>2026-05-02T16:04:47.278Z</time></trkpt><trkpt lat="42.3017117" lon="13.24846"><ele>1348.6</ele><time>2026-05-02T16:04:48.278Z</time></trkpt><trkpt lat="42.30167" lon="13.248535"><ele>1349.3999999999999</ele><time>2026-05-02T16:04:49.278Z</time></trkpt><trkpt lat="42.3016333" lon="13.2486917"><ele>1350.1999999999998</ele><time>2026-05-02T16:04:51.278Z</time></trkpt><trkpt lat="42.301595" lon="13.2488067"><ele>1351.0</ele><time>2026-05-02T16:04:52.278Z</time></trkpt><trkpt lat="42.3015533" lon="13.2489533"><ele>1353.3333333333333</ele><time>2026-05-02T16:04:53.278Z</time></trkpt><trkpt lat="42.3015133" lon="13.2491417"><ele>1355.6666666666667</ele><time>2026-05-02T16:04:54.278Z</time></trkpt><trkpt lat="42.3014767" lon="13.24934"><ele>1358.0</ele><time>2026-05-02T16:04:55.278Z</time></trkpt><trkpt lat="42.3014533" lon="13.249545"><ele>1358.0</ele><time>2026-05-02T16:04:56.278Z</time></trkpt><trkpt lat="42.3014417" lon="13.24974"><ele>1358.0</ele><time>2026-05-02T16:04:57.278Z</time></trkpt><trkpt lat="42.3014383" lon="13.2499217"><ele>1358.0</ele><time>2026-05-02T16:04:58.278Z</time></trkpt><trkpt lat="42.30144" lon="13.2500867"><ele>1358.0</ele><time>2026-05-02T16:04:59.278Z</time></trkpt><trkpt lat="42.3014617" lon="13.250255"><ele>1358.0</ele><time>2026-05-02T16:05:00.278Z</time></trkpt><trkpt lat="42.30151" lon="13.2504383"><ele>1358.0</ele><time>2026-05-02T16:05:01.278Z</time></trkpt><trkpt lat="42.3015767" lon="13.2506317"><ele>1358.0</ele><time>2026-05-02T16:05:02.278Z</time></trkpt><trkpt lat="42.3016433" lon="13.2508033"><ele>1358.0</ele><time>2026-05-02T16:05:03.278Z</time></trkpt><trkpt lat="42.3017067" lon="13.25096"><ele>1354.25</ele><time>2026-05-02T16:05:04.278Z</time></trkpt><trkpt lat="42.3017717" lon="13.2511067"><ele>1350.5</ele><time>2026-05-02T16:05:05.278Z</time></trkpt><trkpt lat="42.3018317" lon="13.2512567"><ele>1346.75</ele><time>2026-05-02T16:05:06.278Z</time></trkpt><trkpt lat="42.30192" lon="13.2514133"><ele>1343.0</ele><time>2026-05-02T16:05:07.278Z</time></trkpt><trkpt lat="42.3020317" lon="13.251545"><ele>1343.25</ele><time>2026-05-02T16:05:08.279Z</time></trkpt><trkpt lat="42.3021467" lon="13.2516533"><ele>1343.5</ele><time>2026-05-02T16:05:09.279Z</time></trkpt><trkpt lat="42.3022683" lon="13.2517517"><ele>1343.75</ele><time>2026-05-02T16:05:10.278Z</time></trkpt><trkpt lat="42.3023983" lon="13.2518283"><ele>1344.0</ele><time>2026-05-02T16:05:11.278Z</time></trkpt><trkpt lat="42.3025583" lon="13.2518667"><ele>1344.0</ele><time>2026-05-02T16:05:12.278Z</time></trkpt><trkpt lat="42.3026983" lon="13.2518667"><ele>1344.0</ele><time>2026-05-02T16:05:13.278Z</time></trkpt><trkpt lat="42.302825" lon="13.2518583"><ele>1344.0</ele><time>2026-05-02T16:05:14.278Z</time></trkpt><trkpt lat="42.30295" lon="13.2518333"><ele>1344.0</ele><time>2026-05-02T16:05:15.278Z</time></trkpt><trkpt lat="42.30308" lon="13.25182"><ele>1345.5</ele><time>2026-05-02T16:05:16.278Z</time></trkpt><trkpt lat="42.3032167" lon="13.251825"><ele>1347.0</ele><time>2026-05-02T16:05:17.278Z</time></trkpt><trkpt lat="42.3033483" lon="13.25182"><ele>1348.5</ele><time>2026-05-02T16:05:18.278Z</time></trkpt><trkpt lat="42.3034783" lon="13.2518283"><ele>1350.0</ele><time>2026-05-02T16:05:19.278Z</time></trkpt><trkpt lat="42.3036017" lon="13.251855"><ele>1350.0</ele><time>2026-05-02T16:05:20.278Z</time></trkpt><trkpt lat="42.303715" lon="13.2519017"><ele>1350.0</ele><time>2026-05-02T16:05:21.278Z</time></trkpt><trkpt lat="42.3038333" lon="13.2519767"><ele>1350.0</ele><time>2026-05-02T16:05:22.278Z</time></trkpt><trkpt lat="42.3039283" lon="13.252065"><ele>1350.0</ele><time>2026-05-02T16:05:23.278Z</time></trkpt><trkpt lat="42.304015" lon="13.2521833"><ele>1347.25</ele><time>2026-05-02T16:05:24.278Z</time></trkpt><trkpt lat="42.3040783" lon="13.2523283"><ele>1344.5</ele><time>2026-05-02T16:05:25.278Z</time></trkpt><trkpt lat="42.3041283" lon="13.2525117"><ele>1341.75</ele><time>2026-05-02T16:05:26.278Z</time></trkpt><trkpt lat="42.3041783" lon="13.2527117"><ele>1339.0</ele><time>2026-05-02T16:05:27.278Z</time></trkpt><trkpt lat="42.304245" lon="13.252935"><ele>1331.0</ele><time>2026-05-02T16:05:28.278Z</time></trkpt><trkpt lat="42.304315" lon="13.2531667"><ele>1323.0</ele><time>2026-05-02T16:05:29.278Z</time></trkpt><trkpt lat="42.3043967" lon="13.2534067"><ele>1315.0</ele><time>2026-05-02T16:05:30.278Z</time></trkpt><trkpt lat="42.3044783" lon="13.2536217"><ele>1315.0</ele><time>2026-05-02T16:05:31.278Z</time></trkpt><trkpt lat="42.30455" lon="13.2538183"><ele>1315.0</ele><time>2026-05-02T16:05:32.278Z</time></trkpt><trkpt lat="42.3046133" lon="13.2539967"><ele>1315.0</ele><time>2026-05-02T16:05:33.278Z</time></trkpt><trkpt lat="42.3046717" lon="13.2541667"><ele>1315.0</ele><time>2026-05-02T16:05:34.278Z</time></trkpt><trkpt lat="42.3047233" lon="13.254295"><ele>1317.6666666666665</ele><time>2026-05-02T16:05:35.278Z</time></trkpt><trkpt lat="42.304765" lon="13.2543967"><ele>1320.3333333333333</ele><time>2026-05-02T16:05:36.278Z</time></trkpt><trkpt lat="42.30481" lon="13.2544833"><ele>1323.0</ele><time>2026-05-02T16:05:37.278Z</time></trkpt><trkpt lat="42.3048667" lon="13.25454"><ele>1325.6666666666667</ele><time>2026-05-02T16:05:38.278Z</time></trkpt><trkpt lat="42.30496" lon="13.2545967"><ele>1328.3333333333335</ele><time>2026-05-02T16:05:39.278Z</time></trkpt><trkpt lat="42.3050517" lon="13.254605"><ele>1331.0</ele><time>2026-05-02T16:05:40.278Z</time></trkpt><trkpt lat="42.3051717" lon="13.2545617"><ele>1331.0</ele><time>2026-05-02T16:05:41.279Z</time></trkpt><trkpt lat="42.3052967" lon="13.2544933"><ele>1331.0</ele><time>2026-05-02T16:05:42.278Z</time></trkpt><trkpt lat="42.3054367" lon="13.254415"><ele>1331.0</ele><time>2026-05-02T16:05:43.278Z</time></trkpt><trkpt lat="42.3055783" lon="13.2543283"><ele>1331.0</ele><time>2026-05-02T16:05:44.278Z</time></trkpt><trkpt lat="42.3057017" lon="13.2542333"><ele>1329.0</ele><time>2026-05-02T16:05:45.279Z</time></trkpt><trkpt lat="42.30583" lon="13.2541567"><ele>1327.0</ele><time>2026-05-02T16:05:46.278Z</time></trkpt><trkpt lat="42.3059617" lon="13.2541033"><ele>1325.0</ele><time>2026-05-02T16:05:47.278Z</time></trkpt><trkpt lat="42.3061267" lon="13.2540633"><ele>1323.0</ele><time>2026-05-02T16:05:48.278Z</time></trkpt><trkpt lat="42.3063" lon="13.25404"><ele>1318.0</ele><time>2026-05-02T16:05:49.278Z</time></trkpt><trkpt lat="42.30647" lon="13.2539917"><ele>1313.0</ele><time>2026-05-02T16:05:50.278Z</time></trkpt><trkpt lat="42.3066417" lon="13.2539567"><ele>1308.0</ele><time>2026-05-02T16:05:51.278Z</time></trkpt><trkpt lat="42.3068283" lon="13.2539183"><ele>1317.3333333333333</ele><time>2026-05-02T16:05:52.278Z</time></trkpt><trkpt lat="42.3070083" lon="13.2538583"><ele>1326.6666666666665</ele><time>2026-05-02T16:05:53.278Z</time></trkpt><trkpt lat="42.3071767" lon="13.2538233"><ele>1336.0</ele><time>2026-05-02T16:05:54.278Z</time></trkpt><trkpt lat="42.3073417" lon="13.2537633"><ele>1336.0</ele><time>2026-05-02T16:05:55.278Z</time></trkpt><trkpt lat="42.3074967" lon="13.2537233"><ele>1336.0</ele><time>2026-05-02T16:05:56.278Z</time></trkpt><trkpt lat="42.307665" lon="13.2536967"><ele>1336.0</ele><time>2026-05-02T16:05:57.278Z</time></trkpt><trkpt lat="42.3078567" lon="13.2536967"><ele>1336.0</ele><time>2026-05-02T16:05:58.278Z</time></trkpt><trkpt lat="42.3080483" lon="13.25371"><ele>1336.0</ele><time>2026-05-02T16:05:59.278Z</time></trkpt><trkpt lat="42.308235" lon="13.2537333"><ele>1336.0</ele><time>2026-05-02T16:06:00.278Z</time></trkpt><trkpt lat="42.3084117" lon="13.2537683"><ele>1332.6666666666665</ele><time>2026-05-02T16:06:01.278Z</time></trkpt><trkpt lat="42.3085783" lon="13.253815"><ele>1329.3333333333333</ele><time>2026-05-02T16:06:02.278Z</time></trkpt><trkpt lat="42.3087333" lon="13.2538817"><ele>1326.0</ele><time>2026-05-02T16:06:03.278Z</time></trkpt><trkpt lat="42.3088867" lon="13.2539483"><ele>1319.0</ele><time>2026-05-02T16:06:04.278Z</time></trkpt><trkpt lat="42.3090183" lon="13.2539933"><ele>1312.0</ele><time>2026-05-02T16:06:05.278Z</time></trkpt><trkpt lat="42.3091383" lon="13.2540183"><ele>1305.0</ele><time>2026-05-02T16:06:06.278Z</time></trkpt><trkpt lat="42.3092483" lon="13.2540333"><ele>1298.0</ele><time>2026-05-02T16:06:07.278Z</time></trkpt><trkpt lat="42.3093517" lon="13.2539917"><ele>1301.0</ele><time>2026-05-02T16:06:08.278Z</time></trkpt><trkpt lat="42.30948" lon="13.25391"><ele>1304.0</ele><time>2026-05-02T16:06:09.278Z</time></trkpt><trkpt lat="42.30961" lon="13.25381"><ele>1307.0</ele><time>2026-05-02T16:06:10.278Z</time></trkpt><trkpt lat="42.30975" lon="13.2536983"><ele>1307.0</ele><time>2026-05-02T16:06:11.278Z</time></trkpt><trkpt lat="42.3099017" lon="13.2535883"><ele>1307.0</ele><time>2026-05-02T16:06:12.278Z</time></trkpt><trkpt lat="42.3100417" lon="13.2534767"><ele>1307.0</ele><time>2026-05-02T16:06:13.279Z</time></trkpt><trkpt lat="42.3101767" lon="13.2533683"><ele>1307.0</ele><time>2026-05-02T16:06:14.278Z</time></trkpt><trkpt lat="42.3103083" lon="13.25327"><ele>1307.0</ele><time>2026-05-02T16:06:15.278Z</time></trkpt><trkpt lat="42.3104333" lon="13.2531783"><ele>1307.0</ele><time>2026-05-02T16:06:16.278Z</time></trkpt><trkpt lat="42.3105567" lon="13.2530883"><ele>1307.0</ele><time>2026-05-02T16:06:17.278Z</time></trkpt><trkpt lat="42.3106817" lon="13.25301"><ele>1309.0</ele><time>2026-05-02T16:06:18.278Z</time></trkpt><trkpt lat="42.3108033" lon="13.252945"><ele>1311.0</ele><time>2026-05-02T16:06:19.279Z</time></trkpt><trkpt lat="42.3109317" lon="13.2529133"><ele>1313.0</ele><time>2026-05-02T16:06:20.278Z</time></trkpt><trkpt lat="42.31106" lon="13.2529083"><ele>1315.0</ele><time>2026-05-02T16:06:21.278Z</time></trkpt><trkpt lat="42.3112033" lon="13.2528933"><ele>1315.0</ele><time>2026-05-02T16:06:22.278Z</time></trkpt><trkpt lat="42.3113367" lon="13.2528667"><ele>1315.0</ele><time>2026-05-02T16:06:23.278Z</time></trkpt><trkpt lat="42.3114633" lon="13.2528367"><ele>1315.0</ele><time>2026-05-02T16:06:24.278Z</time></trkpt><trkpt lat="42.3115883" lon="13.2528033"><ele>1315.0</ele><time>2026-05-02T16:06:25.279Z</time></trkpt><trkpt lat="42.31172" lon="13.2527883"><ele>1312.5</ele><time>2026-05-02T16:06:26.278Z</time></trkpt><trkpt lat="42.3118533" lon="13.2528"><ele>1310.0</ele><time>2026-05-02T16:06:27.278Z</time></trkpt><trkpt lat="42.3119783" lon="13.2528383"><ele>1307.5</ele><time>2026-05-02T16:06:28.278Z</time></trkpt><trkpt lat="42.3120833" lon="13.2528733"><ele>1305.0</ele><time>2026-05-02T16:06:29.279Z</time></trkpt><trkpt lat="42.3121733" lon="13.2529033"><ele>1302.0</ele><time>2026-05-02T16:06:30.278Z</time></trkpt><trkpt lat="42.31227" lon="13.2528933"><ele>1299.0</ele><time>2026-05-02T16:06:31.278Z</time></trkpt><trkpt lat="42.3123617" lon="13.252845"><ele>1296.0</ele><time>2026-05-02T16:06:32.278Z</time></trkpt><trkpt lat="42.31246" lon="13.2527533"><ele>1293.0</ele><time>2026-05-02T16:06:33.278Z</time></trkpt><trkpt lat="42.31257" lon="13.2526533"><ele>1290.0</ele><time>2026-05-02T16:06:34.278Z</time></trkpt><trkpt lat="42.31268" lon="13.2525717"><ele>1290.0</ele><time>2026-05-02T16:06:35.279Z</time></trkpt><trkpt lat="42.3127683" lon="13.2524917"><ele>1290.0</ele><time>2026-05-02T16:06:36.278Z</time></trkpt><trkpt lat="42.3128367" lon="13.252385"><ele>1290.0</ele><time>2026-05-02T16:06:37.278Z</time></trkpt><trkpt lat="42.3128933" lon="13.2522533"><ele>1290.0</ele><time>2026-05-02T16:06:38.278Z</time></trkpt><trkpt lat="42.31295" lon="13.2521233"><ele>1290.0</ele><time>2026-05-02T16:06:39.278Z</time></trkpt><trkpt lat="42.31301" lon="13.2520133"><ele>1288.8</ele><time>2026-05-02T16:06:40.278Z</time></trkpt><trkpt lat="42.31308" lon="13.2519167"><ele>1287.6</ele><time>2026-05-02T16:06:41.279Z</time></trkpt><trkpt lat="42.3131717" lon="13.2518467"><ele>1286.4</ele><time>2026-05-02T16:06:42.278Z</time></trkpt><trkpt lat="42.3132767" lon="13.2518"><ele>1285.2</ele><time>2026-05-02T16:06:43.278Z</time></trkpt><trkpt lat="42.313385" lon="13.2517383"><ele>1284.0</ele><time>2026-05-02T16:06:44.278Z</time></trkpt><trkpt lat="42.3134783" lon="13.25165"><ele>1284.0</ele><time>2026-05-02T16:06:45.278Z</time></trkpt><trkpt lat="42.3135517" lon="13.2515467"><ele>1284.0</ele><time>2026-05-02T16:06:46.278Z</time></trkpt><trkpt lat="42.3136283" lon="13.2514383"><ele>1284.0</ele><time>2026-05-02T16:06:47.278Z</time></trkpt><trkpt lat="42.3137067" lon="13.2513617"><ele>1284.0</ele><time>2026-05-02T16:06:48.278Z</time></trkpt><trkpt lat="42.313795" lon="13.2513083"><ele>1284.0</ele><time>2026-05-02T16:06:49.278Z</time></trkpt><trkpt lat="42.3139083" lon="13.251275"><ele>1287.0</ele><time>2026-05-02T16:06:50.278Z</time></trkpt><trkpt lat="42.3140333" lon="13.2512233"><ele>1290.0</ele><time>2026-05-02T16:06:51.278Z</time></trkpt><trkpt lat="42.3141617" lon="13.2511667"><ele>1293.0</ele><time>2026-05-02T16:06:52.278Z</time></trkpt><trkpt lat="42.3142833" lon="13.2511133"><ele>1296.0</ele><time>2026-05-02T16:06:53.278Z</time></trkpt><trkpt lat="42.31438" lon="13.251075"><ele>1296.0</ele><time>2026-05-02T16:06:54.278Z</time></trkpt><trkpt lat="42.3144833" lon="13.25108"><ele>1296.0</ele><time>2026-05-02T16:06:55.278Z</time></trkpt><trkpt lat="42.31458" lon="13.2511383"><ele>1296.0</ele><time>2026-05-02T16:06:56.278Z</time></trkpt><trkpt lat="42.3146717" lon="13.2512183"><ele>1296.0</ele><time>2026-05-02T16:06:57.278Z</time></trkpt><trkpt lat="42.3147667" lon="13.2513233"><ele>1296.0</ele><time>2026-05-02T16:06:58.278Z</time></trkpt><trkpt lat="42.3148717" lon="13.2514317"><ele>1290.25</ele><time>2026-05-02T16:06:59.278Z</time></trkpt><trkpt lat="42.3149883" lon="13.2515467"><ele>1284.5</ele><time>2026-05-02T16:07:00.278Z</time></trkpt><trkpt lat="42.315085" lon="13.25166"><ele>1278.75</ele><time>2026-05-02T16:07:01.278Z</time></trkpt><trkpt lat="42.3151767" lon="13.2517733"><ele>1273.0</ele><time>2026-05-02T16:07:02.278Z</time></trkpt><trkpt lat="42.3152467" lon="13.2518933"><ele>1273.0</ele><time>2026-05-02T16:07:03.278Z</time></trkpt><trkpt lat="42.3153183" lon="13.2519967"><ele>1273.0</ele><time>2026-05-02T16:07:04.278Z</time></trkpt><trkpt lat="42.3153933" lon="13.2520767"><ele>1273.0</ele><time>2026-05-02T16:07:05.279Z</time></trkpt><trkpt lat="42.3154817" lon="13.25213"><ele>1273.0</ele><time>2026-05-02T16:07:06.279Z</time></trkpt><trkpt lat="42.315585" lon="13.2521617"><ele>1273.0</ele><time>2026-05-02T16:07:07.278Z</time></trkpt><trkpt lat="42.315705" lon="13.2521683"><ele>1277.4</ele><time>2026-05-02T16:07:08.278Z</time></trkpt><trkpt lat="42.3158183" lon="13.2521533"><ele>1281.8</ele><time>2026-05-02T16:07:09.278Z</time></trkpt><trkpt lat="42.3159367" lon="13.2521367"><ele>1286.2</ele><time>2026-05-02T16:07:10.278Z</time></trkpt><trkpt lat="42.3160433" lon="13.252105"><ele>1290.6</ele><time>2026-05-02T16:07:11.278Z</time></trkpt><trkpt lat="42.31614" lon="13.2520683"><ele>1295.0</ele><time>2026-05-02T16:07:12.278Z</time></trkpt><trkpt lat="42.3162367" lon="13.252035"><ele>1295.0</ele><time>2026-05-02T16:07:13.278Z</time></trkpt><trkpt lat="42.3163283" lon="13.2520033"><ele>1295.0</ele><time>2026-05-02T16:07:14.278Z</time></trkpt><trkpt lat="42.31641" lon="13.251985"><ele>1295.0</ele><time>2026-05-02T16:07:15.278Z</time></trkpt><trkpt lat="42.31649" lon="13.2519967"><ele>1295.0</ele><time>2026-05-02T16:07:16.278Z</time></trkpt><trkpt lat="42.3165567" lon="13.252045"><ele>1295.0</ele><time>2026-05-02T16:07:17.278Z</time></trkpt><trkpt lat="42.31661" lon="13.252115"><ele>1295.0</ele><time>2026-05-02T16:07:18.278Z</time></trkpt><trkpt lat="42.31664" lon="13.2522233"><ele>1290.8</ele><time>2026-05-02T16:07:19.278Z</time></trkpt><trkpt lat="42.3166383" lon="13.2523517"><ele>1286.6</ele><time>2026-05-02T16:07:20.279Z</time></trkpt><trkpt lat="42.31661" lon="13.2525"><ele>1282.4</ele><time>2026-05-02T16:07:21.278Z</time></trkpt><trkpt lat="42.316535" lon="13.2526067"><ele>1278.2</ele><time>2026-05-02T16:07:22.278Z</time></trkpt><trkpt lat="42.3164683" lon="13.2526967"><ele>1274.0</ele><time>2026-05-02T16:07:23.278Z</time></trkpt><trkpt lat="42.3164233" lon="13.2527967"><ele>1274.0</ele><time>2026-05-02T16:07:24.279Z</time></trkpt><trkpt lat="42.3164083" lon="13.2528933"><ele>1274.0</ele><time>2026-05-02T16:07:25.278Z</time></trkpt><trkpt lat="42.3164533" lon="13.2530417"><ele>1274.0</ele><time>2026-05-02T16:07:27.278Z</time></trkpt><trkpt lat="42.3165217" lon="13.25308"><ele>1274.0</ele><time>2026-05-02T16:07:28.278Z</time></trkpt><trkpt lat="42.316605" lon="13.253075"><ele>1274.0</ele><time>2026-05-02T16:07:29.278Z</time></trkpt><trkpt lat="42.316715" lon="13.2530533"><ele>1274.0</ele><time>2026-05-02T16:07:30.278Z</time></trkpt><trkpt lat="42.316835" lon="13.253"><ele>1274.0</ele><time>2026-05-02T16:07:31.279Z</time></trkpt><trkpt lat="42.3169667" lon="13.2529467"><ele>1274.0</ele><time>2026-05-02T16:07:32.278Z</time></trkpt><trkpt lat="42.3170933" lon="13.2528983"><ele>1274.0</ele><time>2026-05-02T16:07:33.278Z</time></trkpt><trkpt lat="42.31722" lon="13.2528483"><ele>1274.6666666666667</ele><time>2026-05-02T16:07:34.278Z</time></trkpt><trkpt lat="42.31736" lon="13.2528017"><ele>1275.3333333333333</ele><time>2026-05-02T16:07:35.279Z</time></trkpt><trkpt lat="42.3175117" lon="13.2527417"><ele>1276.0</ele><time>2026-05-02T16:07:36.278Z</time></trkpt><trkpt lat="42.3176617" lon="13.2526867"><ele>1276.0</ele><time>2026-05-02T16:07:37.278Z</time></trkpt><trkpt lat="42.3178067" lon="13.2526333"><ele>1276.0</ele><time>2026-05-02T16:07:38.278Z</time></trkpt><trkpt lat="42.3179583" lon="13.2525933"><ele>1276.0</ele><time>2026-05-02T16:07:39.278Z</time></trkpt><trkpt lat="42.318135" lon="13.2525683"><ele>1274.0</ele><time>2026-05-02T16:07:40.278Z</time></trkpt><trkpt lat="42.3183217" lon="13.2525567"><ele>1272.0</ele><time>2026-05-02T16:07:41.278Z</time></trkpt><trkpt lat="42.3184967" lon="13.2525467"><ele>1270.0</ele><time>2026-05-02T16:07:42.278Z</time></trkpt><trkpt lat="42.318655" lon="13.2525283"><ele>1270.0</ele><time>2026-05-02T16:07:43.278Z</time></trkpt><trkpt lat="42.3188" lon="13.2524967"><ele>1270.0</ele><time>2026-05-02T16:07:44.278Z</time></trkpt><trkpt lat="42.3189483" lon="13.2524617"><ele>1270.0</ele><time>2026-05-02T16:07:45.278Z</time></trkpt><trkpt lat="42.319095" lon="13.2524267"><ele>1270.0</ele><time>2026-05-02T16:07:46.278Z</time></trkpt><trkpt lat="42.3192333" lon="13.2523983"><ele>1268.75</ele><time>2026-05-02T16:07:47.278Z</time></trkpt><trkpt lat="42.319365" lon="13.2523817"><ele>1267.5</ele><time>2026-05-02T16:07:48.279Z</time></trkpt><trkpt lat="42.319485" lon="13.25236"><ele>1266.25</ele><time>2026-05-02T16:07:49.278Z</time></trkpt><trkpt lat="42.3195933" lon="13.252345"><ele>1265.0</ele><time>2026-05-02T16:07:50.278Z</time></trkpt><trkpt lat="42.3196883" lon="13.2523083"><ele>1269.0</ele><time>2026-05-02T16:07:51.278Z</time></trkpt><trkpt lat="42.3197833" lon="13.2522317"><ele>1273.0</ele><time>2026-05-02T16:07:52.279Z</time></trkpt><trkpt lat="42.31986" lon="13.2521317"><ele>1277.0</ele><time>2026-05-02T16:07:53.278Z</time></trkpt><trkpt lat="42.31995" lon="13.2520067"><ele>1281.0</ele><time>2026-05-02T16:07:54.278Z</time></trkpt><trkpt lat="42.320035" lon="13.2518733"><ele>1281.0</ele><time>2026-05-02T16:07:55.278Z</time></trkpt><trkpt lat="42.3201117" lon="13.2517267"><ele>1281.0</ele><time>2026-05-02T16:07:56.278Z</time></trkpt><trkpt lat="42.32019" lon="13.2516"><ele>1281.0</ele><time>2026-05-02T16:07:57.278Z</time></trkpt><trkpt lat="42.320265" lon="13.2514567"><ele>1281.0</ele><time>2026-05-02T16:07:58.278Z</time></trkpt><trkpt lat="42.3203267" lon="13.25132"><ele>1283.4</ele><time>2026-05-02T16:07:59.278Z</time></trkpt><trkpt lat="42.3203833" lon="13.251185"><ele>1285.8</ele><time>2026-05-02T16:08:00.278Z</time></trkpt><trkpt lat="42.3204267" lon="13.2510533"><ele>1288.2</ele><time>2026-05-02T16:08:01.279Z</time></trkpt><trkpt lat="42.3204533" lon="13.2509167"><ele>1290.6000000000001</ele><time>2026-05-02T16:08:02.278Z</time></trkpt><trkpt lat="42.3204767" lon="13.2507833"><ele>1293.0</ele><time>2026-05-02T16:08:03.278Z</time></trkpt><trkpt lat="42.320505" lon="13.25066"><ele>1294.0</ele><time>2026-05-02T16:08:04.278Z</time></trkpt><trkpt lat="42.320545" lon="13.250545"><ele>1295.0</ele><time>2026-05-02T16:08:05.278Z</time></trkpt><trkpt lat="42.32061" lon="13.25044"><ele>1296.0</ele><time>2026-05-02T16:08:06.278Z</time></trkpt><trkpt lat="42.3206967" lon="13.2503717"><ele>1297.0</ele><time>2026-05-02T16:08:07.278Z</time></trkpt><trkpt lat="42.3208083" lon="13.250335"><ele>1298.0</ele><time>2026-05-02T16:08:08.278Z</time></trkpt><trkpt lat="42.3209167" lon="13.2503333"><ele>1292.0</ele><time>2026-05-02T16:08:09.278Z</time></trkpt><trkpt lat="42.3210233" lon="13.25038"><ele>1286.0</ele><time>2026-05-02T16:08:10.278Z</time></trkpt><trkpt lat="42.32115" lon="13.2504433"><ele>1280.0</ele><time>2026-05-02T16:08:11.278Z</time></trkpt><trkpt lat="42.3212783" lon="13.25052"><ele>1274.0</ele><time>2026-05-02T16:08:12.279Z</time></trkpt><trkpt lat="42.3214117" lon="13.25059"><ele>1267.75</ele><time>2026-05-02T16:08:13.278Z</time></trkpt><trkpt lat="42.321545" lon="13.2506567"><ele>1261.5</ele><time>2026-05-02T16:08:14.278Z</time></trkpt><trkpt lat="42.321685" lon="13.25074"><ele>1255.25</ele><time>2026-05-02T16:08:15.278Z</time></trkpt><trkpt lat="42.3218033" lon="13.2508267"><ele>1249.0</ele><time>2026-05-02T16:08:16.278Z</time></trkpt><trkpt lat="42.321915" lon="13.2509117"><ele>1249.0</ele><time>2026-05-02T16:08:17.278Z</time></trkpt><trkpt lat="42.322005" lon="13.2509817"><ele>1249.0</ele><time>2026-05-02T16:08:18.278Z</time></trkpt><trkpt lat="42.3220583" lon="13.2510483"><ele>1249.0</ele><time>2026-05-02T16:08:19.278Z</time></trkpt><trkpt lat="42.32208" lon="13.2511283"><ele>1249.0</ele><time>2026-05-02T16:08:20.279Z</time></trkpt><trkpt lat="42.3220717" lon="13.2512233"><ele>1249.0</ele><time>2026-05-02T16:08:21.278Z</time></trkpt><trkpt lat="42.32201" lon="13.251285"><ele>1249.0</ele><time>2026-05-02T16:08:22.278Z</time></trkpt><trkpt lat="42.3219433" lon="13.2513117"><ele>1249.0</ele><time>2026-05-02T16:08:23.278Z</time></trkpt><trkpt lat="42.32185" lon="13.251305"><ele>1249.0</ele><time>2026-05-02T16:08:24.278Z</time></trkpt><trkpt lat="42.32174" lon="13.2512833"><ele>1249.0</ele><time>2026-05-02T16:08:25.278Z</time></trkpt><trkpt lat="42.3216333" lon="13.25124"><ele>1249.0</ele><time>2026-05-02T16:08:26.278Z</time></trkpt><trkpt lat="42.3215383" lon="13.251195"><ele>1249.0</ele><time>2026-05-02T16:08:27.278Z</time></trkpt><trkpt lat="42.3214517" lon="13.2510883"><ele>1249.5</ele><time>2026-05-02T16:08:28.278Z</time></trkpt><trkpt lat="42.321385" lon="13.2509633"><ele>1250.0</ele><time>2026-05-02T16:08:29.278Z</time></trkpt><trkpt lat="42.3213083" lon="13.25085"><ele>1250.5</ele><time>2026-05-02T16:08:30.278Z</time></trkpt><trkpt lat="42.32122" lon="13.25076"><ele>1251.0</ele><time>2026-05-02T16:08:31.278Z</time></trkpt><trkpt lat="42.3211183" lon="13.250685"><ele>1251.0</ele><time>2026-05-02T16:08:32.278Z</time></trkpt><trkpt lat="42.3210283" lon="13.2506283"><ele>1251.0</ele><time>2026-05-02T16:08:33.278Z</time></trkpt><trkpt lat="42.320945" lon="13.2505917"><ele>1251.0</ele><time>2026-05-02T16:08:34.278Z</time></trkpt><trkpt lat="42.3208717" lon="13.250585"><ele>1251.0</ele><time>2026-05-02T16:08:35.278Z</time></trkpt><trkpt lat="42.3207733" lon="13.2506667"><ele>1251.0</ele><time>2026-05-02T16:08:37.278Z</time></trkpt><trkpt lat="42.3207383" lon="13.25075"><ele>1251.0</ele><time>2026-05-02T16:08:38.278Z</time></trkpt><trkpt lat="42.3206983" lon="13.25087"><ele>1251.0</ele><time>2026-05-02T16:08:39.279Z</time></trkpt><trkpt lat="42.320665" lon="13.251005"><ele>1251.0</ele><time>2026-05-02T16:08:40.278Z</time></trkpt><trkpt lat="42.3206167" lon="13.251145"><ele>1251.0</ele><time>2026-05-02T16:08:41.278Z</time></trkpt><trkpt lat="42.3205567" lon="13.251305"><ele>1251.0</ele><time>2026-05-02T16:08:42.278Z</time></trkpt><trkpt lat="42.3205" lon="13.2514783"><ele>1258.5</ele><time>2026-05-02T16:08:43.279Z</time></trkpt><trkpt lat="42.3204433" lon="13.25165"><ele>1266.0</ele><time>2026-05-02T16:08:44.278Z</time></trkpt><trkpt lat="42.3203867" lon="13.2518083"><ele>1273.5</ele><time>2026-05-02T16:08:45.278Z</time></trkpt><trkpt lat="42.3203217" lon="13.2519583"><ele>1281.0</ele><time>2026-05-02T16:08:46.278Z</time></trkpt><trkpt lat="42.3202467" lon="13.2521017"><ele>1281.0</ele><time>2026-05-02T16:08:47.278Z</time></trkpt><trkpt lat="42.3201767" lon="13.2522417"><ele>1281.0</ele><time>2026-05-02T16:08:48.278Z</time></trkpt><trkpt lat="42.320125" lon="13.2523733"><ele>1281.0</ele><time>2026-05-02T16:08:49.278Z</time></trkpt><trkpt lat="42.3200817" lon="13.252505"><ele>1281.0</ele><time>2026-05-02T16:08:50.278Z</time></trkpt><trkpt lat="42.3200167" lon="13.2526233"><ele>1277.0</ele><time>2026-05-02T16:08:51.278Z</time></trkpt><trkpt lat="42.31993" lon="13.2527267"><ele>1273.0</ele><time>2026-05-02T16:08:52.278Z</time></trkpt><trkpt lat="42.3198283" lon="13.2528183"><ele>1269.0</ele><time>2026-05-02T16:08:53.278Z</time></trkpt><trkpt lat="42.319695" lon="13.25288"><ele>1265.0</ele><time>2026-05-02T16:08:54.278Z</time></trkpt><trkpt lat="42.319555" lon="13.2529417"><ele>1265.0</ele><time>2026-05-02T16:08:55.279Z</time></trkpt><trkpt lat="42.3194067" lon="13.25299"><ele>1265.0</ele><time>2026-05-02T16:08:56.278Z</time></trkpt><trkpt lat="42.3192533" lon="13.2530433"><ele>1265.0</ele><time>2026-05-02T16:08:57.278Z</time></trkpt><trkpt lat="42.3191033" lon="13.253095"><ele>1257.25</ele><time>2026-05-02T16:08:58.278Z</time></trkpt><trkpt lat="42.3189583" lon="13.2531567"><ele>1249.5</ele><time>2026-05-02T16:08:59.278Z</time></trkpt><trkpt lat="42.3188167" lon="13.2531933"><ele>1241.75</ele><time>2026-05-02T16:09:00.278Z</time></trkpt><trkpt lat="42.3186667" lon="13.25322"><ele>1234.0</ele><time>2026-05-02T16:09:01.278Z</time></trkpt><trkpt lat="42.3185067" lon="13.2532433"><ele>1234.0</ele><time>2026-05-02T16:09:02.278Z</time></trkpt><trkpt lat="42.3183567" lon="13.2532767"><ele>1234.0</ele><time>2026-05-02T16:09:03.278Z</time></trkpt><trkpt lat="42.3182033" lon="13.2533217"><ele>1234.0</ele><time>2026-05-02T16:09:04.278Z</time></trkpt><trkpt lat="42.31807" lon="13.253375"><ele>1234.0</ele><time>2026-05-02T16:09:05.278Z</time></trkpt><trkpt lat="42.3179483" lon="13.25343"><ele>1235.3333333333333</ele><time>2026-05-02T16:09:06.278Z</time></trkpt><trkpt lat="42.3178517" lon="13.2534783"><ele>1236.6666666666665</ele><time>2026-05-02T16:09:07.278Z</time></trkpt><trkpt lat="42.3177767" lon="13.253515"><ele>1238.0</ele><time>2026-05-02T16:09:08.278Z</time></trkpt><trkpt lat="42.3177183" lon="13.25355"><ele>1239.3333333333333</ele><time>2026-05-02T16:09:09.278Z</time></trkpt><trkpt lat="42.3176333" lon="13.2535983"><ele>1240.6666666666667</ele><time>2026-05-02T16:09:11.278Z</time></trkpt><trkpt lat="42.3175667" lon="13.2536233"><ele>1242.0</ele><time>2026-05-02T16:09:15.278Z</time></trkpt><trkpt lat="42.3175667" lon="13.2534967"><ele>1242.0</ele><time>2026-05-02T16:12:04.279Z</time></trkpt><trkpt lat="42.31749" lon="13.253555"><ele>1242.0</ele><time>2026-05-02T16:12:21.279Z</time></trkpt><trkpt lat="42.3174133" lon="13.2536117"><ele>1242.0</ele><time>2026-05-02T16:12:22.279Z</time></trkpt><trkpt lat="42.3173267" lon="13.2536567"><ele>1242.0</ele><time>2026-05-02T16:12:23.279Z</time></trkpt><trkpt lat="42.317235" lon="13.253715"><ele>1242.0</ele><time>2026-05-02T16:12:24.279Z</time></trkpt><trkpt lat="42.3171317" lon="13.2537717"><ele>1244.5</ele><time>2026-05-02T16:12:25.279Z</time></trkpt><trkpt lat="42.3170233" lon="13.2538333"><ele>1247.0</ele><time>2026-05-02T16:12:26.279Z</time></trkpt><trkpt lat="42.3169183" lon="13.2538883"><ele>1249.5</ele><time>2026-05-02T16:12:27.279Z</time></trkpt><trkpt lat="42.3168083" lon="13.253945"><ele>1252.0</ele><time>2026-05-02T16:12:28.279Z</time></trkpt><trkpt lat="42.3166983" lon="13.254005"><ele>1243.6</ele><time>2026-05-02T16:12:29.279Z</time></trkpt><trkpt lat="42.3165933" lon="13.2540617"><ele>1235.2</ele><time>2026-05-02T16:12:30.279Z</time></trkpt><trkpt lat="42.3165033" lon="13.2541083"><ele>1226.8</ele><time>2026-05-02T16:12:31.279Z</time></trkpt><trkpt lat="42.31641" lon="13.254145"><ele>1218.4</ele><time>2026-05-02T16:12:32.279Z</time></trkpt><trkpt lat="42.3163133" lon="13.254165"><ele>1210.0</ele><time>2026-05-02T16:12:33.279Z</time></trkpt><trkpt lat="42.3162167" lon="13.2541717"><ele>1209.0</ele><time>2026-05-02T16:12:34.279Z</time></trkpt><trkpt lat="42.3161233" lon="13.2541567"><ele>1208.0</ele><time>2026-05-02T16:12:35.279Z</time></trkpt><trkpt lat="42.3160267" lon="13.25409"><ele>1207.0</ele><time>2026-05-02T16:12:36.279Z</time></trkpt><trkpt lat="42.31593" lon="13.25402"><ele>1206.0</ele><time>2026-05-02T16:12:37.28Z</time></trkpt><trkpt lat="42.3158267" lon="13.25396"><ele>1205.0</ele><time>2026-05-02T16:12:38.28Z</time></trkpt><trkpt lat="42.31572" lon="13.2539017"><ele>1205.6</ele><time>2026-05-02T16:12:39.279Z</time></trkpt><trkpt lat="42.31562" lon="13.25386"><ele>1206.2</ele><time>2026-05-02T16:12:40.28Z</time></trkpt><trkpt lat="42.3155333" lon="13.2538517"><ele>1206.8</ele><time>2026-05-02T16:12:41.279Z</time></trkpt><trkpt lat="42.315455" lon="13.2538033"><ele>1207.4</ele><time>2026-05-02T16:12:42.279Z</time></trkpt><trkpt lat="42.3153833" lon="13.2537233"><ele>1208.0</ele><time>2026-05-02T16:12:43.279Z</time></trkpt><trkpt lat="42.31533" lon="13.25361"><ele>1208.0</ele><time>2026-05-02T16:12:44.279Z</time></trkpt><trkpt lat="42.315285" lon="13.2534883"><ele>1208.0</ele><time>2026-05-02T16:12:45.279Z</time></trkpt><trkpt lat="42.3152217" lon="13.2533883"><ele>1208.0</ele><time>2026-05-02T16:12:46.279Z</time></trkpt><trkpt lat="42.3151433" lon="13.2533233"><ele>1208.0</ele><time>2026-05-02T16:12:47.28Z</time></trkpt><trkpt lat="42.3150517" lon="13.25327"><ele>1208.0</ele><time>2026-05-02T16:12:48.279Z</time></trkpt><trkpt lat="42.31495" lon="13.2532183"><ele>1208.0</ele><time>2026-05-02T16:12:49.279Z</time></trkpt><trkpt lat="42.3148517" lon="13.2531533"><ele>1208.0</ele><time>2026-05-02T16:12:50.279Z</time></trkpt><trkpt lat="42.31476" lon="13.2530783"><ele>1208.0</ele><time>2026-05-02T16:12:51.279Z</time></trkpt><trkpt lat="42.3146833" lon="13.2529883"><ele>1208.0</ele><time>2026-05-02T16:12:52.28Z</time></trkpt><trkpt lat="42.314605" lon="13.252935"><ele>1208.0</ele><time>2026-05-02T16:12:53.279Z</time></trkpt><trkpt lat="42.3145267" lon="13.25291"><ele>1207.0</ele><time>2026-05-02T16:12:54.279Z</time></trkpt><trkpt lat="42.3144283" lon="13.25293"><ele>1206.0</ele><time>2026-05-02T16:12:55.279Z</time></trkpt><trkpt lat="42.31432" lon="13.2529833"><ele>1205.0</ele><time>2026-05-02T16:12:56.28Z</time></trkpt><trkpt lat="42.3142067" lon="13.2530533"><ele>1204.0</ele><time>2026-05-02T16:12:57.279Z</time></trkpt><trkpt lat="42.3141017" lon="13.2531333"><ele>1204.0</ele><time>2026-05-02T16:12:58.279Z</time></trkpt><trkpt lat="42.3140183" lon="13.2532283"><ele>1204.0</ele><time>2026-05-02T16:12:59.279Z</time></trkpt><trkpt lat="42.3139467" lon="13.25336"><ele>1204.0</ele><time>2026-05-02T16:13:00.279Z</time></trkpt><trkpt lat="42.3138817" lon="13.2535067"><ele>1204.0</ele><time>2026-05-02T16:13:01.279Z</time></trkpt><trkpt lat="42.3138083" lon="13.2536617"><ele>1209.75</ele><time>2026-05-02T16:13:02.279Z</time></trkpt><trkpt lat="42.3137283" lon="13.25381"><ele>1215.5</ele><time>2026-05-02T16:13:03.279Z</time></trkpt><trkpt lat="42.31366" lon="13.2539583"><ele>1221.25</ele><time>2026-05-02T16:13:04.279Z</time></trkpt><trkpt lat="42.3136117" lon="13.2541417"><ele>1227.0</ele><time>2026-05-02T16:13:05.279Z</time></trkpt><trkpt lat="42.3135783" lon="13.254345"><ele>1227.0</ele><time>2026-05-02T16:13:06.279Z</time></trkpt><trkpt lat="42.3135567" lon="13.2545517"><ele>1227.0</ele><time>2026-05-02T16:13:07.279Z</time></trkpt><trkpt lat="42.31354" lon="13.2547367"><ele>1227.0</ele><time>2026-05-02T16:13:08.279Z</time></trkpt><trkpt lat="42.3134983" lon="13.2549067"><ele>1227.0</ele><time>2026-05-02T16:13:09.279Z</time></trkpt><trkpt lat="42.3134567" lon="13.25505"><ele>1226.2</ele><time>2026-05-02T16:13:10.279Z</time></trkpt><trkpt lat="42.3133967" lon="13.2551733"><ele>1225.4</ele><time>2026-05-02T16:13:11.279Z</time></trkpt><trkpt lat="42.3133233" lon="13.2552617"><ele>1224.6</ele><time>2026-05-02T16:13:12.279Z</time></trkpt><trkpt lat="42.3132483" lon="13.2553017"><ele>1223.8</ele><time>2026-05-02T16:13:13.279Z</time></trkpt><trkpt lat="42.3131617" lon="13.2553233"><ele>1223.0</ele><time>2026-05-02T16:13:14.279Z</time></trkpt><trkpt lat="42.31305" lon="13.2552917"><ele>1223.0</ele><time>2026-05-02T16:13:15.279Z</time></trkpt><trkpt lat="42.31293" lon="13.2552267"><ele>1223.0</ele><time>2026-05-02T16:13:16.279Z</time></trkpt><trkpt lat="42.3128083" lon="13.2551667"><ele>1223.0</ele><time>2026-05-02T16:13:17.279Z</time></trkpt><trkpt lat="42.31269" lon="13.255125"><ele>1223.0</ele><time>2026-05-02T16:13:18.279Z</time></trkpt><trkpt lat="42.3125833" lon="13.2551117"><ele>1223.0</ele><time>2026-05-02T16:13:19.28Z</time></trkpt><trkpt lat="42.312485" lon="13.2551283"><ele>1223.0</ele><time>2026-05-02T16:13:20.279Z</time></trkpt><trkpt lat="42.312405" lon="13.2551833"><ele>1223.0</ele><time>2026-05-02T16:13:21.279Z</time></trkpt><trkpt lat="42.3123317" lon="13.255265"><ele>1223.0</ele><time>2026-05-02T16:13:22.279Z</time></trkpt><trkpt lat="42.3122817" lon="13.25538"><ele>1223.0</ele><time>2026-05-02T16:13:23.279Z</time></trkpt><trkpt lat="42.31226" lon="13.2555217"><ele>1216.5</ele><time>2026-05-02T16:13:24.28Z</time></trkpt><trkpt lat="42.3122567" lon="13.2556917"><ele>1210.0</ele><time>2026-05-02T16:13:25.279Z</time></trkpt><trkpt lat="42.3122733" lon="13.2558667"><ele>1203.5</ele><time>2026-05-02T16:13:26.279Z</time></trkpt><trkpt lat="42.3122933" lon="13.2560133"><ele>1197.0</ele><time>2026-05-02T16:13:27.279Z</time></trkpt><trkpt lat="42.312305" lon="13.256155"><ele>1197.0</ele><time>2026-05-02T16:13:28.279Z</time></trkpt><trkpt lat="42.3122917" lon="13.256285"><ele>1197.0</ele><time>2026-05-02T16:13:29.279Z</time></trkpt><trkpt lat="42.3122567" lon="13.256405"><ele>1197.0</ele><time>2026-05-02T16:13:30.279Z</time></trkpt><trkpt lat="42.3121783" lon="13.256515"><ele>1197.0</ele><time>2026-05-02T16:13:31.28Z</time></trkpt><trkpt lat="42.3120883" lon="13.2566083"><ele>1197.0</ele><time>2026-05-02T16:13:32.279Z</time></trkpt><trkpt lat="42.3119933" lon="13.25666"><ele>1196.0</ele><time>2026-05-02T16:13:33.279Z</time></trkpt><trkpt lat="42.3118883" lon="13.256685"><ele>1195.0</ele><time>2026-05-02T16:13:34.279Z</time></trkpt><trkpt lat="42.311775" lon="13.2566667"><ele>1194.0</ele><time>2026-05-02T16:13:35.279Z</time></trkpt><trkpt lat="42.3116583" lon="13.2566083"><ele>1193.0</ele><time>2026-05-02T16:13:36.279Z</time></trkpt><trkpt lat="42.3115533" lon="13.2565433"><ele>1193.0</ele><time>2026-05-02T16:13:37.279Z</time></trkpt><trkpt lat="42.31145" lon="13.2564967"><ele>1193.0</ele><time>2026-05-02T16:13:38.279Z</time></trkpt><trkpt lat="42.3113483" lon="13.2564883"><ele>1193.0</ele><time>2026-05-02T16:13:39.279Z</time></trkpt><trkpt lat="42.311245" lon="13.2565317"><ele>1193.0</ele><time>2026-05-02T16:13:40.279Z</time></trkpt><trkpt lat="42.3111467" lon="13.2566133"><ele>1193.0</ele><time>2026-05-02T16:13:41.279Z</time></trkpt><trkpt lat="42.31107" lon="13.2567533"><ele>1190.6666666666667</ele><time>2026-05-02T16:13:42.279Z</time></trkpt><trkpt lat="42.31099" lon="13.2569433"><ele>1188.3333333333333</ele><time>2026-05-02T16:13:43.279Z</time></trkpt><trkpt lat="42.3109233" lon="13.2571467"><ele>1186.0</ele><time>2026-05-02T16:13:44.279Z</time></trkpt><trkpt lat="42.310855" lon="13.2573383"><ele>1186.0</ele><time>2026-05-02T16:13:45.279Z</time></trkpt><trkpt lat="42.3107933" lon="13.2575183"><ele>1186.0</ele><time>2026-05-02T16:13:46.279Z</time></trkpt><trkpt lat="42.310725" lon="13.2576633"><ele>1186.0</ele><time>2026-05-02T16:13:47.279Z</time></trkpt><trkpt lat="42.310625" lon="13.2577583"><ele>1186.0</ele><time>2026-05-02T16:13:48.279Z</time></trkpt><trkpt lat="42.31053" lon="13.2578533"><ele>1191.25</ele><time>2026-05-02T16:13:49.279Z</time></trkpt><trkpt lat="42.3104383" lon="13.25792"><ele>1196.5</ele><time>2026-05-02T16:13:50.28Z</time></trkpt><trkpt lat="42.310325" lon="13.2579533"><ele>1201.75</ele><time>2026-05-02T16:13:51.279Z</time></trkpt><trkpt lat="42.3102067" lon="13.2579583"><ele>1207.0</ele><time>2026-05-02T16:13:52.279Z</time></trkpt><trkpt lat="42.310095" lon="13.257965"><ele>1207.0</ele><time>2026-05-02T16:13:53.279Z</time></trkpt><trkpt lat="42.3099967" lon="13.2579933"><ele>1207.0</ele><time>2026-05-02T16:13:54.279Z</time></trkpt><trkpt lat="42.3099017" lon="13.2580767"><ele>1207.0</ele><time>2026-05-02T16:13:55.279Z</time></trkpt><trkpt lat="42.309805" lon="13.2581883"><ele>1207.0</ele><time>2026-05-02T16:13:56.279Z</time></trkpt><trkpt lat="42.3097183" lon="13.2583417"><ele>1204.5</ele><time>2026-05-02T16:13:57.28Z</time></trkpt><trkpt lat="42.3096467" lon="13.2584933"><ele>1202.0</ele><time>2026-05-02T16:13:58.279Z</time></trkpt><trkpt lat="42.3095683" lon="13.258635"><ele>1199.5</ele><time>2026-05-02T16:13:59.279Z</time></trkpt><trkpt lat="42.3094667" lon="13.258775"><ele>1197.0</ele><time>2026-05-02T16:14:00.279Z</time></trkpt><trkpt lat="42.3093617" lon="13.2589033"><ele>1192.25</ele><time>2026-05-02T16:14:01.279Z</time></trkpt><trkpt lat="42.309255" lon="13.25899"><ele>1187.5</ele><time>2026-05-02T16:14:02.279Z</time></trkpt><trkpt lat="42.3091317" lon="13.2590417"><ele>1182.75</ele><time>2026-05-02T16:14:03.279Z</time></trkpt><trkpt lat="42.30899" lon="13.2590767"><ele>1178.0</ele><time>2026-05-02T16:14:04.279Z</time></trkpt><trkpt lat="42.3088367" lon="13.2591483"><ele>1178.0</ele><time>2026-05-02T16:14:05.279Z</time></trkpt><trkpt lat="42.3086717" lon="13.2592383"><ele>1178.0</ele><time>2026-05-02T16:14:06.279Z</time></trkpt><trkpt lat="42.3085117" lon="13.25936"><ele>1178.0</ele><time>2026-05-02T16:14:07.279Z</time></trkpt><trkpt lat="42.308365" lon="13.259475"><ele>1178.0</ele><time>2026-05-02T16:14:08.279Z</time></trkpt><trkpt lat="42.3082283" lon="13.259575"><ele>1178.0</ele><time>2026-05-02T16:14:09.279Z</time></trkpt><trkpt lat="42.3080983" lon="13.2596717"><ele>1178.0</ele><time>2026-05-02T16:14:10.279Z</time></trkpt><trkpt lat="42.3079767" lon="13.25976"><ele>1178.0</ele><time>2026-05-02T16:14:11.279Z</time></trkpt><trkpt lat="42.3078617" lon="13.2598333"><ele>1173.6</ele><time>2026-05-02T16:14:12.279Z</time></trkpt><trkpt lat="42.3077483" lon="13.2598933"><ele>1169.1999999999998</ele><time>2026-05-02T16:14:13.279Z</time></trkpt><trkpt lat="42.3076417" lon="13.2599667"><ele>1164.8</ele><time>2026-05-02T16:14:14.279Z</time></trkpt><trkpt lat="42.3075283" lon="13.25998"><ele>1160.3999999999999</ele><time>2026-05-02T16:14:15.279Z</time></trkpt><trkpt lat="42.3074367" lon="13.2599583"><ele>1156.0</ele><time>2026-05-02T16:14:16.279Z</time></trkpt><trkpt lat="42.3073433" lon="13.2599017"><ele>1156.0</ele><time>2026-05-02T16:14:17.279Z</time></trkpt><trkpt lat="42.30726" lon="13.2597967"><ele>1156.0</ele><time>2026-05-02T16:14:18.279Z</time></trkpt><trkpt lat="42.3071683" lon="13.2596683"><ele>1156.0</ele><time>2026-05-02T16:14:19.279Z</time></trkpt><trkpt lat="42.307075" lon="13.259515"><ele>1156.0</ele><time>2026-05-02T16:14:20.279Z</time></trkpt><trkpt lat="42.306985" lon="13.2593683"><ele>1155.75</ele><time>2026-05-02T16:14:21.279Z</time></trkpt><trkpt lat="42.3069083" lon="13.2592117"><ele>1155.5</ele><time>2026-05-02T16:14:22.279Z</time></trkpt><trkpt lat="42.30684" lon="13.2590417"><ele>1155.25</ele><time>2026-05-02T16:14:23.279Z</time></trkpt><trkpt lat="42.3067883" lon="13.258865"><ele>1155.0</ele><time>2026-05-02T16:14:24.279Z</time></trkpt><trkpt lat="42.3067333" lon="13.25868"><ele>1155.0</ele><time>2026-05-02T16:14:25.279Z</time></trkpt><trkpt lat="42.30668" lon="13.2585083"><ele>1155.0</ele><time>2026-05-02T16:14:26.279Z</time></trkpt><trkpt lat="42.3066117" lon="13.2583417"><ele>1155.0</ele><time>2026-05-02T16:14:27.279Z</time></trkpt><trkpt lat="42.30653" lon="13.2581917"><ele>1155.0</ele><time>2026-05-02T16:14:28.279Z</time></trkpt><trkpt lat="42.3064433" lon="13.2580617"><ele>1157.0</ele><time>2026-05-02T16:14:29.279Z</time></trkpt><trkpt lat="42.3063567" lon="13.2579567"><ele>1159.0</ele><time>2026-05-02T16:14:30.279Z</time></trkpt><trkpt lat="42.3062367" lon="13.2578583"><ele>1161.0</ele><time>2026-05-02T16:14:31.279Z</time></trkpt><trkpt lat="42.306115" lon="13.2578033"><ele>1163.0</ele><time>2026-05-02T16:14:32.279Z</time></trkpt><trkpt lat="42.3059783" lon="13.25777"><ele>1163.0</ele><time>2026-05-02T16:14:33.279Z</time></trkpt><trkpt lat="42.30584" lon="13.25776"><ele>1163.0</ele><time>2026-05-02T16:14:34.279Z</time></trkpt><trkpt lat="42.3057033" lon="13.2577683"><ele>1163.0</ele><time>2026-05-02T16:14:35.28Z</time></trkpt><trkpt lat="42.3055683" lon="13.2577933"><ele>1163.0</ele><time>2026-05-02T16:14:36.279Z</time></trkpt><trkpt lat="42.30544" lon="13.2578333"><ele>1161.75</ele><time>2026-05-02T16:14:37.279Z</time></trkpt><trkpt lat="42.3053183" lon="13.2578633"><ele>1160.5</ele><time>2026-05-02T16:14:38.279Z</time></trkpt><trkpt lat="42.30519" lon="13.2578783"><ele>1159.25</ele><time>2026-05-02T16:14:39.279Z</time></trkpt><trkpt lat="42.3050583" lon="13.25787"><ele>1158.0</ele><time>2026-05-02T16:14:40.279Z</time></trkpt><trkpt lat="42.304925" lon="13.2578417"><ele>1158.0</ele><time>2026-05-02T16:14:41.279Z</time></trkpt><trkpt lat="42.304795" lon="13.2578233"><ele>1158.0</ele><time>2026-05-02T16:14:42.279Z</time></trkpt><trkpt lat="42.3046733" lon="13.2578233"><ele>1158.0</ele><time>2026-05-02T16:14:43.279Z</time></trkpt><trkpt lat="42.304535" lon="13.2578433"><ele>1158.0</ele><time>2026-05-02T16:14:44.279Z</time></trkpt><trkpt lat="42.3044033" lon="13.2578783"><ele>1160.0</ele><time>2026-05-02T16:14:45.279Z</time></trkpt><trkpt lat="42.3042633" lon="13.25793"><ele>1162.0</ele><time>2026-05-02T16:14:46.28Z</time></trkpt><trkpt lat="42.30412" lon="13.257985"><ele>1164.0</ele><time>2026-05-02T16:14:47.279Z</time></trkpt><trkpt lat="42.3039717" lon="13.2580483"><ele>1164.0</ele><time>2026-05-02T16:14:48.28Z</time></trkpt><trkpt lat="42.30383" lon="13.2581117"><ele>1164.0</ele><time>2026-05-02T16:14:49.279Z</time></trkpt><trkpt lat="42.3036967" lon="13.2581667"><ele>1164.0</ele><time>2026-05-02T16:14:50.279Z</time></trkpt><trkpt lat="42.303585" lon="13.2582083"><ele>1164.0</ele><time>2026-05-02T16:14:51.279Z</time></trkpt><trkpt lat="42.30348" lon="13.2582533"><ele>1157.0</ele><time>2026-05-02T16:14:52.28Z</time></trkpt><trkpt lat="42.3033783" lon="13.2582867"><ele>1150.0</ele><time>2026-05-02T16:14:53.279Z</time></trkpt><trkpt lat="42.3032867" lon="13.2583133"><ele>1143.0</ele><time>2026-05-02T16:14:54.279Z</time></trkpt><trkpt lat="42.3032083" lon="13.2583217"><ele>1136.0</ele><time>2026-05-02T16:14:55.279Z</time></trkpt><trkpt lat="42.3031217" lon="13.2582817"><ele>1129.0</ele><time>2026-05-02T16:14:56.279Z</time></trkpt><trkpt lat="42.30304" lon="13.2582083"><ele>1130.0</ele><time>2026-05-02T16:14:57.279Z</time></trkpt><trkpt lat="42.3029517" lon="13.2581067"><ele>1131.0</ele><time>2026-05-02T16:14:58.279Z</time></trkpt><trkpt lat="42.3028567" lon="13.25798"><ele>1132.0</ele><time>2026-05-02T16:14:59.279Z</time></trkpt><trkpt lat="42.302755" lon="13.2578533"><ele>1133.0</ele><time>2026-05-02T16:15:00.279Z</time></trkpt><trkpt lat="42.30265" lon="13.2577217"><ele>1133.0</ele><time>2026-05-02T16:15:01.279Z</time></trkpt><trkpt lat="42.3025483" lon="13.2575967"><ele>1133.0</ele><time>2026-05-02T16:15:02.279Z</time></trkpt><trkpt lat="42.3024467" lon="13.2574783"><ele>1133.0</ele><time>2026-05-02T16:15:03.279Z</time></trkpt><trkpt lat="42.30234" lon="13.2573633"><ele>1133.0</ele><time>2026-05-02T16:15:04.279Z</time></trkpt><trkpt lat="42.302235" lon="13.2572533"><ele>1132.25</ele><time>2026-05-02T16:15:05.28Z</time></trkpt><trkpt lat="42.3021167" lon="13.2571533"><ele>1131.5</ele><time>2026-05-02T16:15:06.279Z</time></trkpt><trkpt lat="42.3019983" lon="13.2570583"><ele>1130.75</ele><time>2026-05-02T16:15:07.279Z</time></trkpt><trkpt lat="42.3018833" lon="13.2569733"><ele>1130.0</ele><time>2026-05-02T16:15:08.279Z</time></trkpt><trkpt lat="42.30178" lon="13.256905"><ele>1130.0</ele><time>2026-05-02T16:15:09.279Z</time></trkpt><trkpt lat="42.3016833" lon="13.2568467"><ele>1130.0</ele><time>2026-05-02T16:15:10.279Z</time></trkpt><trkpt lat="42.301595" lon="13.256805"><ele>1130.0</ele><time>2026-05-02T16:15:11.279Z</time></trkpt><trkpt lat="42.301505" lon="13.25678"><ele>1130.0</ele><time>2026-05-02T16:15:12.279Z</time></trkpt><trkpt lat="42.3014283" lon="13.256785"><ele>1130.0</ele><time>2026-05-02T16:15:13.279Z</time></trkpt><trkpt lat="42.3013483" lon="13.2568367"><ele>1135.25</ele><time>2026-05-02T16:15:14.279Z</time></trkpt><trkpt lat="42.3012867" lon="13.2569417"><ele>1140.5</ele><time>2026-05-02T16:15:15.28Z</time></trkpt><trkpt lat="42.30123" lon="13.257065"><ele>1145.75</ele><time>2026-05-02T16:15:16.279Z</time></trkpt><trkpt lat="42.3011933" lon="13.25722"><ele>1151.0</ele><time>2026-05-02T16:15:17.28Z</time></trkpt><trkpt lat="42.30116" lon="13.2573867"><ele>1151.0</ele><time>2026-05-02T16:15:18.279Z</time></trkpt><trkpt lat="42.301135" lon="13.25757"><ele>1151.0</ele><time>2026-05-02T16:15:19.279Z</time></trkpt><trkpt lat="42.3011" lon="13.2577617"><ele>1151.0</ele><time>2026-05-02T16:15:20.279Z</time></trkpt><trkpt lat="42.3010717" lon="13.2579667"><ele>1151.0</ele><time>2026-05-02T16:15:21.279Z</time></trkpt><trkpt lat="42.3010467" lon="13.258165"><ele>1148.0</ele><time>2026-05-02T16:15:22.279Z</time></trkpt><trkpt lat="42.3010283" lon="13.258355"><ele>1145.0</ele><time>2026-05-02T16:15:23.279Z</time></trkpt><trkpt lat="42.3010117" lon="13.2585367"><ele>1142.0</ele><time>2026-05-02T16:15:24.279Z</time></trkpt><trkpt lat="42.300985" lon="13.2586967"><ele>1139.0</ele><time>2026-05-02T16:15:25.279Z</time></trkpt><trkpt lat="42.3009533" lon="13.2588467"><ele>1138.0</ele><time>2026-05-02T16:15:26.279Z</time></trkpt><trkpt lat="42.3009533" lon="13.2590267"><ele>1137.0</ele><time>2026-05-02T16:15:27.279Z</time></trkpt><trkpt lat="42.3009533" lon="13.25922"><ele>1136.0</ele><time>2026-05-02T16:15:28.279Z</time></trkpt><trkpt lat="42.3009733" lon="13.25942"><ele>1135.0</ele><time>2026-05-02T16:15:29.279Z</time></trkpt><trkpt lat="42.30099" lon="13.259625"><ele>1134.0</ele><time>2026-05-02T16:15:30.279Z</time></trkpt><trkpt lat="42.3010117" lon="13.2598267"><ele>1133.0</ele><time>2026-05-02T16:15:31.279Z</time></trkpt><trkpt lat="42.3010367" lon="13.2600367"><ele>1132.0</ele><time>2026-05-02T16:15:32.279Z</time></trkpt><trkpt lat="42.3010867" lon="13.2602367"><ele>1132.0</ele><time>2026-05-02T16:15:33.279Z</time></trkpt><trkpt lat="42.301125" lon="13.2604267"><ele>1132.0</ele><time>2026-05-02T16:15:34.279Z</time></trkpt><trkpt lat="42.3011417" lon="13.2605917"><ele>1132.0</ele><time>2026-05-02T16:15:35.279Z</time></trkpt><trkpt lat="42.3011567" lon="13.2607367"><ele>1132.0</ele><time>2026-05-02T16:15:36.279Z</time></trkpt><trkpt lat="42.3011633" lon="13.26087"><ele>1129.4</ele><time>2026-05-02T16:15:37.279Z</time></trkpt><trkpt lat="42.3011283" lon="13.2609767"><ele>1126.8000000000002</ele><time>2026-05-02T16:15:38.279Z</time></trkpt><trkpt lat="42.301075" lon="13.261075"><ele>1124.2</ele><time>2026-05-02T16:15:39.279Z</time></trkpt><trkpt lat="42.301" lon="13.2611617"><ele>1121.6000000000001</ele><time>2026-05-02T16:15:40.279Z</time></trkpt><trkpt lat="42.3009083" lon="13.2612483"><ele>1119.0</ele><time>2026-05-02T16:15:41.279Z</time></trkpt><trkpt lat="42.3007917" lon="13.2613283"><ele>1119.0</ele><time>2026-05-02T16:15:42.279Z</time></trkpt><trkpt lat="42.30067" lon="13.2613883"><ele>1119.0</ele><time>2026-05-02T16:15:43.279Z</time></trkpt><trkpt lat="42.30056" lon="13.2614367"><ele>1119.0</ele><time>2026-05-02T16:15:44.279Z</time></trkpt><trkpt lat="42.30047" lon="13.261495"><ele>1119.0</ele><time>2026-05-02T16:15:45.279Z</time></trkpt><trkpt lat="42.3003867" lon="13.2615783"><ele>1119.0</ele><time>2026-05-02T16:15:46.28Z</time></trkpt><trkpt lat="42.3003183" lon="13.261695"><ele>1117.6000000000001</ele><time>2026-05-02T16:15:47.279Z</time></trkpt><trkpt lat="42.3002617" lon="13.2618333"><ele>1116.2</ele><time>2026-05-02T16:15:48.279Z</time></trkpt><trkpt lat="42.3002117" lon="13.261965"><ele>1114.8000000000002</ele><time>2026-05-02T16:15:49.279Z</time></trkpt><trkpt lat="42.3001583" lon="13.2620817"><ele>1113.4</ele><time>2026-05-02T16:15:50.279Z</time></trkpt><trkpt lat="42.30009" lon="13.26218"><ele>1112.0</ele><time>2026-05-02T16:15:51.279Z</time></trkpt><trkpt lat="42.3000017" lon="13.26225"><ele>1108.0</ele><time>2026-05-02T16:15:52.279Z</time></trkpt><trkpt lat="42.299915" lon="13.2623017"><ele>1104.0</ele><time>2026-05-02T16:15:53.279Z</time></trkpt><trkpt lat="42.299825" lon="13.2623567"><ele>1100.0</ele><time>2026-05-02T16:15:54.279Z</time></trkpt><trkpt lat="42.299755" lon="13.2624367"><ele>1096.0</ele><time>2026-05-02T16:15:55.279Z</time></trkpt><trkpt lat="42.2996717" lon="13.2625083"><ele>1092.0</ele><time>2026-05-02T16:15:56.279Z</time></trkpt><trkpt lat="42.2995983" lon="13.26257"><ele>1090.3333333333333</ele><time>2026-05-02T16:15:57.279Z</time></trkpt><trkpt lat="42.2995333" lon="13.2626383"><ele>1088.6666666666667</ele><time>2026-05-02T16:15:58.279Z</time></trkpt><trkpt lat="42.2994517" lon="13.26267"><ele>1087.0</ele><time>2026-05-02T16:15:59.28Z</time></trkpt><trkpt lat="42.2993667" lon="13.2626633"><ele>1085.3333333333335</ele><time>2026-05-02T16:16:00.279Z</time></trkpt><trkpt lat="42.299295" lon="13.26259"><ele>1083.6666666666667</ele><time>2026-05-02T16:16:01.279Z</time></trkpt><trkpt lat="42.2992383" lon="13.2624867"><ele>1082.0</ele><time>2026-05-02T16:16:02.279Z</time></trkpt><trkpt lat="42.2991817" lon="13.2623383"><ele>1086.0</ele><time>2026-05-02T16:16:03.279Z</time></trkpt><trkpt lat="42.2991417" lon="13.262185"><ele>1090.0</ele><time>2026-05-02T16:16:04.28Z</time></trkpt><trkpt lat="42.299105" lon="13.2620233"><ele>1094.0</ele><time>2026-05-02T16:16:05.279Z</time></trkpt><trkpt lat="42.299075" lon="13.26188"><ele>1098.0</ele><time>2026-05-02T16:16:06.279Z</time></trkpt><trkpt lat="42.2990367" lon="13.261755"><ele>1098.0</ele><time>2026-05-02T16:16:07.279Z</time></trkpt><trkpt lat="42.298995" lon="13.2616467"><ele>1098.0</ele><time>2026-05-02T16:16:08.279Z</time></trkpt><trkpt lat="42.2989483" lon="13.2615533"><ele>1098.0</ele><time>2026-05-02T16:16:09.279Z</time></trkpt><trkpt lat="42.2988883" lon="13.261485"><ele>1098.0</ele><time>2026-05-02T16:16:10.279Z</time></trkpt><trkpt lat="42.29881" lon="13.2614533"><ele>1098.0</ele><time>2026-05-02T16:16:11.279Z</time></trkpt><trkpt lat="42.29874" lon="13.2614783"><ele>1098.0</ele><time>2026-05-02T16:16:12.279Z</time></trkpt><trkpt lat="42.2986617" lon="13.26154"><ele>1097.75</ele><time>2026-05-02T16:16:13.279Z</time></trkpt><trkpt lat="42.2985833" lon="13.2616383"><ele>1097.5</ele><time>2026-05-02T16:16:14.279Z</time></trkpt><trkpt lat="42.2984983" lon="13.2617517"><ele>1097.25</ele><time>2026-05-02T16:16:15.279Z</time></trkpt><trkpt lat="42.2984033" lon="13.2618517"><ele>1097.0</ele><time>2026-05-02T16:16:16.279Z</time></trkpt><trkpt lat="42.2983017" lon="13.2619017"><ele>1097.0</ele><time>2026-05-02T16:16:17.279Z</time></trkpt><trkpt lat="42.2981933" lon="13.2619383"><ele>1097.0</ele><time>2026-05-02T16:16:18.279Z</time></trkpt><trkpt lat="42.2980867" lon="13.2619817"><ele>1097.0</ele><time>2026-05-02T16:16:19.279Z</time></trkpt><trkpt lat="42.2980017" lon="13.2620467"><ele>1097.0</ele><time>2026-05-02T16:16:20.279Z</time></trkpt><trkpt lat="42.29793" lon="13.26213"><ele>1097.0</ele><time>2026-05-02T16:16:21.279Z</time></trkpt><trkpt lat="42.2978817" lon="13.262245"><ele>1096.6</ele><time>2026-05-02T16:16:22.28Z</time></trkpt><trkpt lat="42.2978617" lon="13.2623717"><ele>1096.2</ele><time>2026-05-02T16:16:23.279Z</time></trkpt><trkpt lat="42.2978567" lon="13.2625333"><ele>1095.8</ele><time>2026-05-02T16:16:24.279Z</time></trkpt><trkpt lat="42.2978383" lon="13.2626917"><ele>1095.4</ele><time>2026-05-02T16:16:25.279Z</time></trkpt><trkpt lat="42.2978167" lon="13.2628367"><ele>1095.0</ele><time>2026-05-02T16:16:26.279Z</time></trkpt><trkpt lat="42.2977933" lon="13.2629567"><ele>1095.0</ele><time>2026-05-02T16:16:27.279Z</time></trkpt><trkpt lat="42.297755" lon="13.2630517"><ele>1095.0</ele><time>2026-05-02T16:16:28.279Z</time></trkpt><trkpt lat="42.297695" lon="13.2631383"><ele>1095.0</ele><time>2026-05-02T16:16:29.279Z</time></trkpt><trkpt lat="42.2976083" lon="13.2631933"><ele>1095.0</ele><time>2026-05-02T16:16:30.279Z</time></trkpt><trkpt lat="42.2975067" lon="13.2632283"><ele>1095.0</ele><time>2026-05-02T16:16:31.279Z</time></trkpt><trkpt lat="42.2973867" lon="13.2632217"><ele>1093.4</ele><time>2026-05-02T16:16:32.28Z</time></trkpt><trkpt lat="42.2972667" lon="13.2631933"><ele>1091.8</ele><time>2026-05-02T16:16:33.279Z</time></trkpt><trkpt lat="42.297155" lon="13.2631567"><ele>1090.2</ele><time>2026-05-02T16:16:34.279Z</time></trkpt><trkpt lat="42.2970667" lon="13.2631433"><ele>1088.6</ele><time>2026-05-02T16:16:35.279Z</time></trkpt><trkpt lat="42.2969833" lon="13.26317"><ele>1087.0</ele><time>2026-05-02T16:16:36.279Z</time></trkpt><trkpt lat="42.2968967" lon="13.2632417"><ele>1087.0</ele><time>2026-05-02T16:16:37.279Z</time></trkpt><trkpt lat="42.2968183" lon="13.263345"><ele>1087.0</ele><time>2026-05-02T16:16:38.279Z</time></trkpt><trkpt lat="42.2967617" lon="13.2634633"><ele>1087.0</ele><time>2026-05-02T16:16:39.279Z</time></trkpt><trkpt lat="42.296735" lon="13.2635833"><ele>1087.0</ele><time>2026-05-02T16:16:40.279Z</time></trkpt><trkpt lat="42.2967367" lon="13.26373"><ele>1087.0</ele><time>2026-05-02T16:16:41.28Z</time></trkpt><trkpt lat="42.296755" lon="13.2638767"><ele>1083.8</ele><time>2026-05-02T16:16:42.279Z</time></trkpt><trkpt lat="42.29676" lon="13.2640167"><ele>1080.6</ele><time>2026-05-02T16:16:43.279Z</time></trkpt><trkpt lat="42.2967433" lon="13.2641367"><ele>1077.3999999999999</ele><time>2026-05-02T16:16:44.279Z</time></trkpt><trkpt lat="42.296695" lon="13.2642533"><ele>1074.2</ele><time>2026-05-02T16:16:45.28Z</time></trkpt><trkpt lat="42.2966183" lon="13.2643517"><ele>1071.0</ele><time>2026-05-02T16:16:46.279Z</time></trkpt><trkpt lat="42.2965433" lon="13.264455"><ele>1071.0</ele><time>2026-05-02T16:16:47.279Z</time></trkpt><trkpt lat="42.2964933" lon="13.264565"><ele>1071.0</ele><time>2026-05-02T16:16:48.279Z</time></trkpt><trkpt lat="42.2964667" lon="13.264685"><ele>1071.0</ele><time>2026-05-02T16:16:49.279Z</time></trkpt><trkpt lat="42.296465" lon="13.2648067"><ele>1071.0</ele><time>2026-05-02T16:16:50.279Z</time></trkpt><trkpt lat="42.2964667" lon="13.26493"><ele>1071.0</ele><time>2026-05-02T16:16:51.279Z</time></trkpt><trkpt lat="42.296465" lon="13.2650467"><ele>1071.8333333333333</ele><time>2026-05-02T16:16:52.279Z</time></trkpt><trkpt lat="42.29646" lon="13.2651433"><ele>1072.6666666666667</ele><time>2026-05-02T16:16:53.279Z</time></trkpt><trkpt lat="42.296455" lon="13.2652383"><ele>1073.5</ele><time>2026-05-02T16:16:54.279Z</time></trkpt><trkpt lat="42.29646" lon="13.2653367"><ele>1074.3333333333335</ele><time>2026-05-02T16:16:55.279Z</time></trkpt><trkpt lat="42.2964483" lon="13.2654517"><ele>1075.1666666666667</ele><time>2026-05-02T16:16:56.279Z</time></trkpt><trkpt lat="42.2964283" lon="13.2655633"><ele>1076.0</ele><time>2026-05-02T16:16:57.279Z</time></trkpt><trkpt lat="42.2964017" lon="13.2656867"><ele>1076.0</ele><time>2026-05-02T16:16:58.279Z</time></trkpt><trkpt lat="42.29637" lon="13.2657933"><ele>1076.0</ele><time>2026-05-02T16:16:59.279Z</time></trkpt><trkpt lat="42.2963333" lon="13.2658917"><ele>1076.0</ele><time>2026-05-02T16:17:00.279Z</time></trkpt><trkpt lat="42.2963067" lon="13.26598"><ele>1076.0</ele><time>2026-05-02T16:17:01.279Z</time></trkpt><trkpt lat="42.2963167" lon="13.266095"><ele>1076.0</ele><time>2026-05-02T16:17:03.28Z</time></trkpt><trkpt lat="42.2964" lon="13.2661167"><ele>1076.0</ele><time>2026-05-02T16:17:05.279Z</time></trkpt><trkpt lat="42.29646" lon="13.266085"><ele>1071.0</ele><time>2026-05-02T16:17:06.279Z</time></trkpt><trkpt lat="42.2965317" lon="13.2660417"><ele>1066.0</ele><time>2026-05-02T16:17:07.279Z</time></trkpt><trkpt lat="42.29662" lon="13.2659883"><ele>1061.0</ele><time>2026-05-02T16:17:08.279Z</time></trkpt><trkpt lat="42.2967017" lon="13.26595"><ele>1056.0</ele><time>2026-05-02T16:17:09.279Z</time></trkpt><trkpt lat="42.2967817" lon="13.2659283"><ele>1051.0</ele><time>2026-05-02T16:17:10.279Z</time></trkpt><trkpt lat="42.2968583" lon="13.2659217"><ele>1046.0</ele><time>2026-05-02T16:17:11.279Z</time></trkpt><trkpt lat="42.2969317" lon="13.2659233"><ele>1046.0</ele><time>2026-05-02T16:17:12.279Z</time></trkpt><trkpt lat="42.2969983" lon="13.265935"><ele>1046.0</ele><time>2026-05-02T16:17:13.279Z</time></trkpt><trkpt lat="42.2970633" lon="13.26597"><ele>1046.0</ele><time>2026-05-02T16:17:14.279Z</time></trkpt><trkpt lat="42.2971233" lon="13.2660317"><ele>1046.0</ele><time>2026-05-02T16:17:15.279Z</time></trkpt><trkpt lat="42.29717" lon="13.26612"><ele>1046.0</ele><time>2026-05-02T16:17:16.279Z</time></trkpt><trkpt lat="42.2971933" lon="13.2662167"><ele>1046.0</ele><time>2026-05-02T16:17:17.279Z</time></trkpt><trkpt lat="42.2971317" lon="13.2663517"><ele>1046.0</ele><time>2026-05-02T16:17:19.28Z</time></trkpt><trkpt lat="42.2970533" lon="13.2663717"><ele>1046.0</ele><time>2026-05-02T16:17:20.279Z</time></trkpt><trkpt lat="42.29697" lon="13.2664017"><ele>1046.0</ele><time>2026-05-02T16:17:21.279Z</time></trkpt><trkpt lat="42.2968933" lon="13.2664517"><ele>1046.0</ele><time>2026-05-02T16:17:22.279Z</time></trkpt><trkpt lat="42.2968183" lon="13.26655"><ele>1046.0</ele><time>2026-05-02T16:17:23.279Z</time></trkpt><trkpt lat="42.2967467" lon="13.2666817"><ele>1042.25</ele><time>2026-05-02T16:17:24.28Z</time></trkpt><trkpt lat="42.2966817" lon="13.2668333"><ele>1038.5</ele><time>2026-05-02T16:17:25.279Z</time></trkpt><trkpt lat="42.2966183" lon="13.2670033"><ele>1034.75</ele><time>2026-05-02T16:17:26.279Z</time></trkpt><trkpt lat="42.296545" lon="13.267175"><ele>1031.0</ele><time>2026-05-02T16:17:27.279Z</time></trkpt><trkpt lat="42.2964817" lon="13.2673483"><ele>1034.6666666666667</ele><time>2026-05-02T16:17:28.279Z</time></trkpt><trkpt lat="42.296425" lon="13.2675367"><ele>1038.3333333333333</ele><time>2026-05-02T16:17:29.28Z</time></trkpt><trkpt lat="42.2963817" lon="13.267745"><ele>1042.0</ele><time>2026-05-02T16:17:30.279Z</time></trkpt><trkpt lat="42.2963467" lon="13.2679733"><ele>1034.3333333333333</ele><time>2026-05-02T16:17:31.279Z</time></trkpt><trkpt lat="42.296325" lon="13.2682133"><ele>1026.6666666666667</ele><time>2026-05-02T16:17:32.279Z</time></trkpt><trkpt lat="42.2962933" lon="13.26844"><ele>1019.0</ele><time>2026-05-02T16:17:33.279Z</time></trkpt><trkpt lat="42.29624" lon="13.2686583"><ele>1019.0</ele><time>2026-05-02T16:17:34.279Z</time></trkpt><trkpt lat="42.296175" lon="13.268855"><ele>1019.0</ele><time>2026-05-02T16:17:35.279Z</time></trkpt><trkpt lat="42.296115" lon="13.269015"><ele>1019.0</ele><time>2026-05-02T16:17:36.279Z</time></trkpt><trkpt lat="42.296055" lon="13.2691567"><ele>1019.0</ele><time>2026-05-02T16:17:37.279Z</time></trkpt><trkpt lat="42.2960017" lon="13.2692617"><ele>1015.6</ele><time>2026-05-02T16:17:38.279Z</time></trkpt><trkpt lat="42.295955" lon="13.2693483"><ele>1012.2</ele><time>2026-05-02T16:17:39.279Z</time></trkpt><trkpt lat="42.2959383" lon="13.2694833"><ele>1008.8000000000001</ele><time>2026-05-02T16:17:41.279Z</time></trkpt><trkpt lat="42.2960317" lon="13.2695417"><ele>1005.4000000000001</ele><time>2026-05-02T16:17:43.279Z</time></trkpt><trkpt lat="42.2961033" lon="13.2695233"><ele>1002.0</ele><time>2026-05-02T16:17:44.279Z</time></trkpt><trkpt lat="42.2961833" lon="13.2694583"><ele>1002.0</ele><time>2026-05-02T16:17:45.279Z</time></trkpt><trkpt lat="42.2962917" lon="13.269365"><ele>1002.0</ele><time>2026-05-02T16:17:46.279Z</time></trkpt><trkpt lat="42.2964133" lon="13.2692833"><ele>1002.0</ele><time>2026-05-02T16:17:47.279Z</time></trkpt><trkpt lat="42.2965283" lon="13.2692167"><ele>1002.0</ele><time>2026-05-02T16:17:48.279Z</time></trkpt><trkpt lat="42.29663" lon="13.2691767"><ele>998.3333333333334</ele><time>2026-05-02T16:17:49.279Z</time></trkpt><trkpt lat="42.296715" lon="13.2691517"><ele>994.6666666666667</ele><time>2026-05-02T16:17:50.279Z</time></trkpt><trkpt lat="42.2967817" lon="13.2691617"><ele>991.0</ele><time>2026-05-02T16:17:51.279Z</time></trkpt><trkpt lat="42.2968333" lon="13.2692117"><ele>987.3333333333334</ele><time>2026-05-02T16:17:52.279Z</time></trkpt><trkpt lat="42.2968733" lon="13.269325"><ele>983.6666666666667</ele><time>2026-05-02T16:17:53.279Z</time></trkpt><trkpt lat="42.2969133" lon="13.2694767"><ele>980.0</ele><time>2026-05-02T16:17:54.279Z</time></trkpt><trkpt lat="42.29694" lon="13.269645"><ele>978.75</ele><time>2026-05-02T16:17:55.279Z</time></trkpt><trkpt lat="42.2969683" lon="13.2698217"><ele>977.5</ele><time>2026-05-02T16:17:56.28Z</time></trkpt><trkpt lat="42.2969917" lon="13.2700017"><ele>976.25</ele><time>2026-05-02T16:17:57.279Z</time></trkpt><trkpt lat="42.2970083" lon="13.2701817"><ele>975.0</ele><time>2026-05-02T16:17:58.279Z</time></trkpt><trkpt lat="42.2970317" lon="13.2703633"><ele>975.0</ele><time>2026-05-02T16:17:59.279Z</time></trkpt><trkpt lat="42.2970633" lon="13.2705467"><ele>975.0</ele><time>2026-05-02T16:18:00.279Z</time></trkpt><trkpt lat="42.2971067" lon="13.2707367"><ele>975.0</ele><time>2026-05-02T16:18:01.279Z</time></trkpt><trkpt lat="42.2971567" lon="13.2709083"><ele>975.0</ele><time>2026-05-02T16:18:02.279Z</time></trkpt><trkpt lat="42.2972167" lon="13.2710633"><ele>968.5</ele><time>2026-05-02T16:18:03.279Z</time></trkpt><trkpt lat="42.2972883" lon="13.2712183"><ele>962.0</ele><time>2026-05-02T16:18:04.279Z</time></trkpt><trkpt lat="42.2973517" lon="13.2713667"><ele>955.5</ele><time>2026-05-02T16:18:05.279Z</time></trkpt><trkpt lat="42.2974383" lon="13.2714983"><ele>949.0</ele><time>2026-05-02T16:18:06.279Z</time></trkpt><trkpt lat="42.2975267" lon="13.2716217"><ele>948.8333333333333</ele><time>2026-05-02T16:18:07.279Z</time></trkpt><trkpt lat="42.297615" lon="13.27173"><ele>948.6666666666666</ele><time>2026-05-02T16:18:08.279Z</time></trkpt><trkpt lat="42.2976967" lon="13.2718167"><ele>948.5</ele><time>2026-05-02T16:18:09.279Z</time></trkpt><trkpt lat="42.2977683" lon="13.2718733"><ele>948.3333333333333</ele><time>2026-05-02T16:18:10.279Z</time></trkpt><trkpt lat="42.29783" lon="13.2719"><ele>948.1666666666666</ele><time>2026-05-02T16:18:11.279Z</time></trkpt><trkpt lat="42.2979083" lon="13.2718933"><ele>948.0</ele><time>2026-05-02T16:18:12.28Z</time></trkpt><trkpt lat="42.2979633" lon="13.2718333"><ele>948.0</ele><time>2026-05-02T16:18:13.279Z</time></trkpt><trkpt lat="42.29803" lon="13.2717417"><ele>948.0</ele><time>2026-05-02T16:18:14.279Z</time></trkpt><trkpt lat="42.2980967" lon="13.2716217"><ele>948.0</ele><time>2026-05-02T16:18:15.279Z</time></trkpt><trkpt lat="42.2981433" lon="13.2714933"><ele>948.0</ele><time>2026-05-02T16:18:16.279Z</time></trkpt><trkpt lat="42.2981817" lon="13.2713867"><ele>948.0</ele><time>2026-05-02T16:18:17.279Z</time></trkpt><trkpt lat="42.2982167" lon="13.2713067"><ele>943.5</ele><time>2026-05-02T16:18:18.279Z</time></trkpt><trkpt lat="42.2983383" lon="13.2713"><ele>939.0</ele><time>2026-05-02T16:18:20.279Z</time></trkpt><trkpt lat="42.298415" lon="13.2713733"><ele>934.5</ele><time>2026-05-02T16:18:21.279Z</time></trkpt><trkpt lat="42.2984933" lon="13.2714883"><ele>930.0</ele><time>2026-05-02T16:18:22.279Z</time></trkpt><trkpt lat="42.2985733" lon="13.2716283"><ele>930.0</ele><time>2026-05-02T16:18:23.279Z</time></trkpt><trkpt lat="42.2986483" lon="13.27177"><ele>930.0</ele><time>2026-05-02T16:18:24.279Z</time></trkpt><trkpt lat="42.2987217" lon="13.2718983"><ele>930.0</ele><time>2026-05-02T16:18:25.279Z</time></trkpt><trkpt lat="42.298785" lon="13.2720167"><ele>930.0</ele><time>2026-05-02T16:18:26.279Z</time></trkpt><trkpt lat="42.29884" lon="13.2721167"><ele>930.0</ele><time>2026-05-02T16:18:27.279Z</time></trkpt><trkpt lat="42.2989167" lon="13.2721883"><ele>926.6</ele><time>2026-05-02T16:18:28.279Z</time></trkpt><trkpt lat="42.2989933" lon="13.2722317"><ele>923.2</ele><time>2026-05-02T16:18:29.279Z</time></trkpt><trkpt lat="42.2990967" lon="13.2722667"><ele>919.8</ele><time>2026-05-02T16:18:30.279Z</time></trkpt><trkpt lat="42.2992033" lon="13.2722833"><ele>916.4</ele><time>2026-05-02T16:18:31.279Z</time></trkpt><trkpt lat="42.29933" lon="13.272305"><ele>913.0</ele><time>2026-05-02T16:18:32.279Z</time></trkpt><trkpt lat="42.2994533" lon="13.272335"><ele>913.0</ele><time>2026-05-02T16:18:33.279Z</time></trkpt><trkpt lat="42.299575" lon="13.2723717"><ele>913.0</ele><time>2026-05-02T16:18:34.279Z</time></trkpt><trkpt lat="42.2997017" lon="13.27242"><ele>913.0</ele><time>2026-05-02T16:18:35.279Z</time></trkpt><trkpt lat="42.2998117" lon="13.2724667"><ele>913.0</ele><time>2026-05-02T16:18:36.28Z</time></trkpt><trkpt lat="42.2999233" lon="13.272515"><ele>910.0</ele><time>2026-05-02T16:18:37.279Z</time></trkpt><trkpt lat="42.3000267" lon="13.2725617"><ele>907.0</ele><time>2026-05-02T16:18:38.28Z</time></trkpt><trkpt lat="42.3001317" lon="13.272605"><ele>904.0</ele><time>2026-05-02T16:18:39.279Z</time></trkpt><trkpt lat="42.3002183" lon="13.2726517"><ele>901.0</ele><time>2026-05-02T16:18:40.279Z</time></trkpt><trkpt lat="42.3002767" lon="13.27271"><ele>898.0</ele><time>2026-05-02T16:18:41.279Z</time></trkpt><trkpt lat="42.300335" lon="13.2728633"><ele>897.9999999999999</ele><time>2026-05-02T16:18:43.279Z</time></trkpt><trkpt lat="42.3003217" lon="13.2729533"><ele>898.0</ele><time>2026-05-02T16:18:44.279Z</time></trkpt><trkpt lat="42.3002883" lon="13.2730383"><ele>898.0</ele><time>2026-05-02T16:18:45.279Z</time></trkpt><trkpt lat="42.3002733" lon="13.2731333"><ele>898.0</ele><time>2026-05-02T16:18:46.279Z</time></trkpt><trkpt lat="42.3002767" lon="13.273225"><ele>897.9999999999999</ele><time>2026-05-02T16:18:47.28Z</time></trkpt><trkpt lat="42.300295" lon="13.2733283"><ele>898.0</ele><time>2026-05-02T16:18:48.279Z</time></trkpt><trkpt lat="42.30034" lon="13.2734467"><ele>896.5</ele><time>2026-05-02T16:18:49.279Z</time></trkpt><trkpt lat="42.3004017" lon="13.2735783"><ele>895.0</ele><time>2026-05-02T16:18:50.279Z</time></trkpt><trkpt lat="42.3004633" lon="13.273735"><ele>893.5</ele><time>2026-05-02T16:18:51.279Z</time></trkpt><trkpt lat="42.3005217" lon="13.2738833"><ele>892.0</ele><time>2026-05-02T16:18:52.279Z</time></trkpt><trkpt lat="42.300575" lon="13.274025"><ele>889.75</ele><time>2026-05-02T16:18:53.279Z</time></trkpt><trkpt lat="42.30063" lon="13.2741633"><ele>887.5</ele><time>2026-05-02T16:18:54.279Z</time></trkpt><trkpt lat="42.3006833" lon="13.27431"><ele>885.25</ele><time>2026-05-02T16:18:55.279Z</time></trkpt><trkpt lat="42.3007417" lon="13.274445"><ele>883.0</ele><time>2026-05-02T16:18:56.279Z</time></trkpt><trkpt lat="42.3007967" lon="13.2745833"><ele>882.9999999999999</ele><time>2026-05-02T16:18:57.279Z</time></trkpt><trkpt lat="42.3008483" lon="13.2746967"><ele>883.0</ele><time>2026-05-02T16:18:58.28Z</time></trkpt><trkpt lat="42.3009033" lon="13.2748"><ele>883.0</ele><time>2026-05-02T16:18:59.279Z</time></trkpt><trkpt lat="42.300955" lon="13.2748967"><ele>883.0</ele><time>2026-05-02T16:19:00.279Z</time></trkpt><trkpt lat="42.301005" lon="13.2749733"><ele>882.9999999999999</ele><time>2026-05-02T16:19:01.279Z</time></trkpt><trkpt lat="42.30106" lon="13.275065"><ele>883.0</ele><time>2026-05-02T16:19:02.279Z</time></trkpt><trkpt lat="42.301115" lon="13.275145"><ele>880.4999999999999</ele><time>2026-05-02T16:19:03.279Z</time></trkpt><trkpt lat="42.3011667" lon="13.2752417"><ele>878.0</ele><time>2026-05-02T16:19:04.279Z</time></trkpt><trkpt lat="42.3012083" lon="13.2753333"><ele>875.5</ele><time>2026-05-02T16:19:05.279Z</time></trkpt><trkpt lat="42.3012483" lon="13.2754067"><ele>873.0</ele><time>2026-05-02T16:19:06.279Z</time></trkpt><trkpt lat="42.3012867" lon="13.2754817"><ele>870.4999999999999</ele><time>2026-05-02T16:19:07.279Z</time></trkpt><trkpt lat="42.3013267" lon="13.2755583"><ele>868.0</ele><time>2026-05-02T16:19:08.279Z</time></trkpt><trkpt lat="42.3014" lon="13.2756683"><ele>865.25</ele><time>2026-05-02T16:19:10.279Z</time></trkpt><trkpt lat="42.301445" lon="13.27577"><ele>862.5</ele><time>2026-05-02T16:19:12.279Z</time></trkpt><trkpt lat="42.3015075" lon="13.2758437"><ele>859.75</ele><time>2026-05-02T16:19:15.233Z</time></trkpt><trkpt lat="42.3016368" lon="13.2756522"><ele>857.0</ele><time>2026-05-02T16:19:18.279Z</time></trkpt><trkpt lat="42.3016835" lon="13.275545"><ele>857.0000000000001</ele><time>2026-05-02T16:19:19.28Z</time></trkpt><trkpt lat="42.3017224" lon="13.2754499"><ele>857.0</ele><time>2026-05-02T16:19:20.279Z</time></trkpt><trkpt lat="42.301757" lon="13.2753668"><ele>857.0</ele><time>2026-05-02T16:19:21.28Z</time></trkpt><trkpt lat="42.3018185" lon="13.2752464"><ele>857.0</ele><time>2026-05-02T16:19:23.279Z</time></trkpt><trkpt lat="42.3018817" lon="13.275215"><ele>857.0000000000001</ele><time>2026-05-02T16:19:25.279Z</time></trkpt><trkpt lat="42.301945" lon="13.2753067"><ele>857.0</ele><time>2026-05-02T16:19:27.279Z</time></trkpt><trkpt lat="42.3019833" lon="13.2753983"><ele>857.0000000000001</ele><time>2026-05-02T16:19:28.279Z</time></trkpt><trkpt lat="42.3020117" lon="13.2755"><ele>857.0</ele><time>2026-05-02T16:19:29.279Z</time></trkpt><trkpt lat="42.3020383" lon="13.2755983"><ele>857.0</ele><time>2026-05-02T16:19:30.279Z</time></trkpt><trkpt lat="42.3020667" lon="13.275705"><ele>857.0</ele><time>2026-05-02T16:19:31.279Z</time></trkpt><trkpt lat="42.3020783" lon="13.2758"><ele>857.0000000000001</ele><time>2026-05-02T16:19:32.28Z</time></trkpt><trkpt lat="42.3021017" lon="13.2758817"><ele>857.0</ele><time>2026-05-02T16:19:33.279Z</time></trkpt><trkpt lat="42.3021367" lon="13.27602"><ele>856.0000000000001</ele><time>2026-05-02T16:19:35.279Z</time></trkpt><trkpt lat="42.3021733" lon="13.2761683"><ele>855.0</ele><time>2026-05-02T16:19:37.279Z</time></trkpt><trkpt lat="42.3022133" lon="13.27629"><ele>854.0</ele><time>2026-05-02T16:19:39.279Z</time></trkpt><trkpt lat="42.30225" lon="13.2763717"><ele>853.0</ele><time>2026-05-02T16:19:41.279Z</time></trkpt><trkpt lat="42.3022567" lon="13.2764867"><ele>852.0000000000001</ele><time>2026-05-02T16:19:43.279Z</time></trkpt><trkpt lat="42.3022467" lon="13.2765717"><ele>851.0</ele><time>2026-05-02T16:19:45.28Z</time></trkpt><trkpt lat="42.30224" lon="13.2766583"><ele>850.3333333333334</ele><time>2026-05-02T16:19:48.279Z</time></trkpt><trkpt lat="42.3022482" lon="13.2767901"><ele>849.6666666666667</ele><time>2026-05-02T16:19:52.336Z</time></trkpt><trkpt lat="42.302205" lon="13.2769132"><ele>849.0</ele><time>2026-05-02T16:19:54.355Z</time></trkpt><trkpt lat="42.3021677" lon="13.276986"><ele>848.3333333333333</ele><time>2026-05-02T16:19:56.031Z</time></trkpt><trkpt lat="42.3021186" lon="13.2770591"><ele>847.6666666666666</ele><time>2026-05-02T16:19:58.325Z</time></trkpt><trkpt lat="42.3020632" lon="13.2771205"><ele>847.0</ele><time>2026-05-02T16:20:02.325Z</time></trkpt><trkpt lat="42.3020408" lon="13.2772209"><ele>845.0</ele><time>2026-05-02T16:20:05.279Z</time></trkpt><trkpt lat="42.3020403" lon="13.2773199"><ele>843.0</ele><time>2026-05-02T16:20:07.279Z</time></trkpt><trkpt lat="42.3020565" lon="13.2774394"><ele>841.0</ele><time>2026-05-02T16:20:09.279Z</time></trkpt><trkpt lat="42.3020835" lon="13.2775575"><ele>839.0</ele><time>2026-05-02T16:20:11.28Z</time></trkpt><trkpt lat="42.3021385" lon="13.2776718"><ele>837.0</ele><time>2026-05-02T16:20:13.279Z</time></trkpt><trkpt lat="42.3022116" lon="13.2777678"><ele>836.8333333333334</ele><time>2026-05-02T16:20:15.279Z</time></trkpt><trkpt lat="42.3022791" lon="13.2778433"><ele>836.6666666666667</ele><time>2026-05-02T16:20:17.279Z</time></trkpt><trkpt lat="42.3023417" lon="13.2779117"><ele>836.5</ele><time>2026-05-02T16:20:20.279Z</time></trkpt><trkpt lat="42.302325" lon="13.2780083"><ele>836.3333333333334</ele><time>2026-05-02T16:20:22.279Z</time></trkpt><trkpt lat="42.3022533" lon="13.278145"><ele>836.1666666666667</ele><time>2026-05-02T16:20:24.279Z</time></trkpt><trkpt lat="42.302205" lon="13.278205"><ele>836.0</ele><time>2026-05-02T16:20:25.279Z</time></trkpt><trkpt lat="42.302105" lon="13.2783017"><ele>834.6666666666667</ele><time>2026-05-02T16:20:27.28Z</time></trkpt><trkpt lat="42.3020283" lon="13.2783283"><ele>833.3333333333334</ele><time>2026-05-02T16:20:28.279Z</time></trkpt><trkpt lat="42.3019467" lon="13.2783433"><ele>832.0</ele><time>2026-05-02T16:20:29.279Z</time></trkpt><trkpt lat="42.3018583" lon="13.2783417"><ele>830.6666666666667</ele><time>2026-05-02T16:20:30.28Z</time></trkpt><trkpt lat="42.30177" lon="13.2783283"><ele>829.3333333333334</ele><time>2026-05-02T16:20:31.279Z</time></trkpt><trkpt lat="42.3016983" lon="13.2783"><ele>828.0</ele><time>2026-05-02T16:20:32.279Z</time></trkpt><trkpt lat="42.3016383" lon="13.2782267"><ele>828.0</ele><time>2026-05-02T16:20:33.279Z</time></trkpt><trkpt lat="42.301585" lon="13.2781433"><ele>828.0</ele><time>2026-05-02T16:20:34.279Z</time></trkpt><trkpt lat="42.3015283" lon="13.2780467"><ele>828.0</ele><time>2026-05-02T16:20:35.279Z</time></trkpt><trkpt lat="42.301465" lon="13.2779267"><ele>828.0</ele><time>2026-05-02T16:20:36.279Z</time></trkpt><trkpt lat="42.3014033" lon="13.277835"><ele>828.0</ele><time>2026-05-02T16:20:37.279Z</time></trkpt><trkpt lat="42.3013217" lon="13.277735"><ele>827.4</ele><time>2026-05-02T16:20:38.28Z</time></trkpt><trkpt lat="42.3012317" lon="13.2776783"><ele>826.8</ele><time>2026-05-02T16:20:39.279Z</time></trkpt><trkpt lat="42.3011283" lon="13.2776233"><ele>826.2</ele><time>2026-05-02T16:20:40.279Z</time></trkpt><trkpt lat="42.3010383" lon="13.27756"><ele>825.6</ele><time>2026-05-02T16:20:41.279Z</time></trkpt><trkpt lat="42.3009517" lon="13.27753"><ele>825.0</ele><time>2026-05-02T16:20:42.279Z</time></trkpt><trkpt lat="42.300855" lon="13.277495"><ele>825.0</ele><time>2026-05-02T16:20:43.279Z</time></trkpt><trkpt lat="42.300755" lon="13.277485"><ele>825.0</ele><time>2026-05-02T16:20:44.279Z</time></trkpt><trkpt lat="42.3006333" lon="13.2774767"><ele>825.0</ele><time>2026-05-02T16:20:45.28Z</time></trkpt><trkpt lat="42.300525" lon="13.277495"><ele>825.0</ele><time>2026-05-02T16:20:46.279Z</time></trkpt><trkpt lat="42.3004167" lon="13.2775267"><ele>825.0</ele><time>2026-05-02T16:20:47.279Z</time></trkpt><trkpt lat="42.3003133" lon="13.2775767"><ele>826.0</ele><time>2026-05-02T16:20:48.279Z</time></trkpt><trkpt lat="42.3002067" lon="13.2776083"><ele>827.0</ele><time>2026-05-02T16:20:49.279Z</time></trkpt><trkpt lat="42.3000933" lon="13.2776217"><ele>828.0</ele><time>2026-05-02T16:20:50.279Z</time></trkpt><trkpt lat="42.299975" lon="13.2776267"><ele>829.0</ele><time>2026-05-02T16:20:51.279Z</time></trkpt><trkpt lat="42.29985" lon="13.2776217"><ele>828.6</ele><time>2026-05-02T16:20:52.279Z</time></trkpt><trkpt lat="42.299735" lon="13.2776067"><ele>828.2</ele><time>2026-05-02T16:20:53.279Z</time></trkpt><trkpt lat="42.29962" lon="13.2776033"><ele>827.8000000000001</ele><time>2026-05-02T16:20:54.279Z</time></trkpt><trkpt lat="42.2995083" lon="13.2776"><ele>827.4000000000001</ele><time>2026-05-02T16:20:55.279Z</time></trkpt><trkpt lat="42.2994067" lon="13.2776"><ele>827.0</ele><time>2026-05-02T16:20:56.279Z</time></trkpt><trkpt lat="42.2993033" lon="13.2776033"><ele>827.0</ele><time>2026-05-02T16:20:57.28Z</time></trkpt><trkpt lat="42.2992067" lon="13.277615"><ele>827.0</ele><time>2026-05-02T16:20:58.279Z</time></trkpt><trkpt lat="42.2991233" lon="13.2776567"><ele>827.0</ele><time>2026-05-02T16:20:59.279Z</time></trkpt><trkpt lat="42.2990417" lon="13.2777217"><ele>827.0</ele><time>2026-05-02T16:21:00.28Z</time></trkpt><trkpt lat="42.2989783" lon="13.2778133"><ele>827.0</ele><time>2026-05-02T16:21:01.279Z</time></trkpt><trkpt lat="42.298935" lon="13.27792"><ele>828.2</ele><time>2026-05-02T16:21:02.279Z</time></trkpt><trkpt lat="42.2988917" lon="13.278035"><ele>829.4000000000001</ele><time>2026-05-02T16:21:03.28Z</time></trkpt><trkpt lat="42.298845" lon="13.2781817"><ele>830.5999999999999</ele><time>2026-05-02T16:21:04.279Z</time></trkpt><trkpt lat="42.2987933" lon="13.2783117"><ele>831.8</ele><time>2026-05-02T16:21:05.279Z</time></trkpt><trkpt lat="42.29873" lon="13.278415"><ele>833.0</ele><time>2026-05-02T16:21:06.279Z</time></trkpt><trkpt lat="42.2986417" lon="13.2785033"><ele>833.0</ele><time>2026-05-02T16:21:07.279Z</time></trkpt><trkpt lat="42.29854" lon="13.278565"><ele>833.0</ele><time>2026-05-02T16:21:08.279Z</time></trkpt><trkpt lat="42.2984333" lon="13.2786133"><ele>833.0</ele><time>2026-05-02T16:21:09.279Z</time></trkpt><trkpt lat="42.2983267" lon="13.2786767"><ele>833.0</ele><time>2026-05-02T16:21:10.279Z</time></trkpt><trkpt lat="42.29822" lon="13.278755"><ele>833.0</ele><time>2026-05-02T16:21:11.279Z</time></trkpt><trkpt lat="42.2980967" lon="13.27887"><ele>833.0</ele><time>2026-05-02T16:21:12.279Z</time></trkpt><trkpt lat="42.29798" lon="13.2789883"><ele>833.0</ele><time>2026-05-02T16:21:13.28Z</time></trkpt><trkpt lat="42.297885" lon="13.2791333"><ele>833.0</ele><time>2026-05-02T16:21:14.279Z</time></trkpt><trkpt lat="42.2977983" lon="13.2792783"><ele>833.5</ele><time>2026-05-02T16:21:15.279Z</time></trkpt><trkpt lat="42.2977233" lon="13.2794117"><ele>834.0</ele><time>2026-05-02T16:21:16.279Z</time></trkpt><trkpt lat="42.2976683" lon="13.2795467"><ele>834.5</ele><time>2026-05-02T16:21:17.279Z</time></trkpt><trkpt lat="42.2976333" lon="13.2796983"><ele>835.0</ele><time>2026-05-02T16:21:18.279Z</time></trkpt><trkpt lat="42.2976233" lon="13.2798617"><ele>835.0</ele><time>2026-05-02T16:21:19.279Z</time></trkpt><trkpt lat="42.2976483" lon="13.2800133"><ele>835.0</ele><time>2026-05-02T16:21:20.279Z</time></trkpt><trkpt lat="42.2976983" lon="13.2801383"><ele>835.0</ele><time>2026-05-02T16:21:21.279Z</time></trkpt><trkpt lat="42.29776" lon="13.28027"><ele>835.0</ele><time>2026-05-02T16:21:22.279Z</time></trkpt><trkpt lat="42.29784" lon="13.2803833"><ele>835.0</ele><time>2026-05-02T16:21:23.279Z</time></trkpt><trkpt lat="42.2979417" lon="13.2804683"><ele>835.0</ele><time>2026-05-02T16:21:24.279Z</time></trkpt><trkpt lat="42.2980517" lon="13.28052"><ele>835.0</ele><time>2026-05-02T16:21:25.279Z</time></trkpt><trkpt lat="42.2981767" lon="13.2805167"><ele>835.0</ele><time>2026-05-02T16:21:26.279Z</time></trkpt><trkpt lat="42.2983233" lon="13.280495"><ele>832.25</ele><time>2026-05-02T16:21:27.279Z</time></trkpt><trkpt lat="42.2984467" lon="13.2804483"><ele>829.5</ele><time>2026-05-02T16:21:28.279Z</time></trkpt><trkpt lat="42.2985783" lon="13.2804217"><ele>826.75</ele><time>2026-05-02T16:21:29.279Z</time></trkpt><trkpt lat="42.298695" lon="13.2804367"><ele>824.0</ele><time>2026-05-02T16:21:30.279Z</time></trkpt><trkpt lat="42.2988083" lon="13.28048"><ele>826.75</ele><time>2026-05-02T16:21:31.279Z</time></trkpt><trkpt lat="42.29892" lon="13.2805483"><ele>829.5</ele><time>2026-05-02T16:21:32.279Z</time></trkpt><trkpt lat="42.2990517" lon="13.28065"><ele>832.25</ele><time>2026-05-02T16:21:33.28Z</time></trkpt><trkpt lat="42.29918" lon="13.2807517"><ele>835.0</ele><time>2026-05-02T16:21:34.279Z</time></trkpt><trkpt lat="42.299315" lon="13.2808667"><ele>835.0</ele><time>2026-05-02T16:21:35.279Z</time></trkpt><trkpt lat="42.2994633" lon="13.2809883"><ele>835.0</ele><time>2026-05-02T16:21:36.279Z</time></trkpt><trkpt lat="42.29961" lon="13.2811"><ele>835.0</ele><time>2026-05-02T16:21:37.279Z</time></trkpt><trkpt lat="42.2997467" lon="13.2812217"><ele>835.75</ele><time>2026-05-02T16:21:38.279Z</time></trkpt><trkpt lat="42.2998783" lon="13.281335"><ele>836.5</ele><time>2026-05-02T16:21:39.279Z</time></trkpt><trkpt lat="42.3000067" lon="13.2814283"><ele>837.25</ele><time>2026-05-02T16:21:40.279Z</time></trkpt><trkpt lat="42.30012" lon="13.2815183"><ele>838.0</ele><time>2026-05-02T16:21:41.279Z</time></trkpt><trkpt lat="42.30023" lon="13.2816083"><ele>838.0</ele><time>2026-05-02T16:21:42.28Z</time></trkpt><trkpt lat="42.3003317" lon="13.2817067"><ele>838.0</ele><time>2026-05-02T16:21:43.279Z</time></trkpt><trkpt lat="42.3004117" lon="13.28178"><ele>838.0</ele><time>2026-05-02T16:21:44.279Z</time></trkpt><trkpt lat="42.30049" lon="13.2818833"><ele>838.0</ele><time>2026-05-02T16:21:45.279Z</time></trkpt><trkpt lat="42.300535" lon="13.2820083"><ele>838.0</ele><time>2026-05-02T16:21:46.279Z</time></trkpt><trkpt lat="42.3005617" lon="13.2821317"><ele>838.5999999999999</ele><time>2026-05-02T16:21:47.279Z</time></trkpt><trkpt lat="42.300575" lon="13.2822733"><ele>839.1999999999999</ele><time>2026-05-02T16:21:48.279Z</time></trkpt><trkpt lat="42.3005783" lon="13.2824133"><ele>839.8</ele><time>2026-05-02T16:21:49.279Z</time></trkpt><trkpt lat="42.3005567" lon="13.282555"><ele>840.4</ele><time>2026-05-02T16:21:50.279Z</time></trkpt><trkpt lat="42.30054" lon="13.2827067"><ele>841.0</ele><time>2026-05-02T16:21:51.279Z</time></trkpt><trkpt lat="42.300535" lon="13.2828633"><ele>841.0</ele><time>2026-05-02T16:21:52.279Z</time></trkpt><trkpt lat="42.3005267" lon="13.283005"><ele>841.0</ele><time>2026-05-02T16:21:53.279Z</time></trkpt><trkpt lat="42.300525" lon="13.2831317"><ele>841.0</ele><time>2026-05-02T16:21:54.279Z</time></trkpt><trkpt lat="42.3005167" lon="13.28324"><ele>841.0</ele><time>2026-05-02T16:21:55.28Z</time></trkpt><trkpt lat="42.3004833" lon="13.2833717"><ele>841.0</ele><time>2026-05-02T16:21:57.279Z</time></trkpt><trkpt lat="42.300405" lon="13.2834333"><ele>839.0</ele><time>2026-05-02T16:22:00.279Z</time></trkpt><trkpt lat="42.300335" lon="13.2834583"><ele>837.0</ele><time>2026-05-02T16:22:02.279Z</time></trkpt><trkpt lat="42.30027" lon="13.2834517"><ele>835.0</ele><time>2026-05-02T16:22:03.28Z</time></trkpt><trkpt lat="42.30018" lon="13.2834383"><ele>833.0</ele><time>2026-05-02T16:22:04.279Z</time></trkpt><trkpt lat="42.300065" lon="13.28343"><ele>831.0</ele><time>2026-05-02T16:22:05.279Z</time></trkpt><trkpt lat="42.29995" lon="13.2834567"><ele>831.0</ele><time>2026-05-02T16:22:06.279Z</time></trkpt><trkpt lat="42.299845" lon="13.28353"><ele>831.0</ele><time>2026-05-02T16:22:07.279Z</time></trkpt><trkpt lat="42.29975" lon="13.2836017"><ele>831.0</ele><time>2026-05-02T16:22:08.279Z</time></trkpt><trkpt lat="42.2996117" lon="13.2836717"><ele>831.0</ele><time>2026-05-02T16:22:09.279Z</time></trkpt><trkpt lat="42.2994967" lon="13.2837633"><ele>831.5</ele><time>2026-05-02T16:22:10.279Z</time></trkpt><trkpt lat="42.2993783" lon="13.2838533"><ele>832.0</ele><time>2026-05-02T16:22:11.279Z</time></trkpt><trkpt lat="42.2992733" lon="13.2839267"><ele>832.5</ele><time>2026-05-02T16:22:12.279Z</time></trkpt><trkpt lat="42.2991717" lon="13.2839867"><ele>833.0</ele><time>2026-05-02T16:22:13.279Z</time></trkpt><trkpt lat="42.2990683" lon="13.28404"><ele>832.5</ele><time>2026-05-02T16:22:14.28Z</time></trkpt><trkpt lat="42.2989667" lon="13.2840433"><ele>832.0</ele><time>2026-05-02T16:22:15.279Z</time></trkpt><trkpt lat="42.2988517" lon="13.283995"><ele>831.5</ele><time>2026-05-02T16:22:16.28Z</time></trkpt><trkpt lat="42.2987367" lon="13.2839333"><ele>831.0</ele><time>2026-05-02T16:22:17.281Z</time></trkpt><trkpt lat="42.298625" lon="13.2838717"><ele>831.0</ele><time>2026-05-02T16:22:18.28Z</time></trkpt><trkpt lat="42.29852" lon="13.2838"><ele>831.0</ele><time>2026-05-02T16:22:19.28Z</time></trkpt><trkpt lat="42.29843" lon="13.2837583"><ele>831.0</ele><time>2026-05-02T16:22:20.28Z</time></trkpt><trkpt lat="42.2983433" lon="13.28374"><ele>831.0</ele><time>2026-05-02T16:22:21.28Z</time></trkpt><trkpt lat="42.2982583" lon="13.2837483"><ele>831.0</ele><time>2026-05-02T16:22:22.28Z</time></trkpt><trkpt lat="42.2981817" lon="13.2837833"><ele>831.0</ele><time>2026-05-02T16:22:23.28Z</time></trkpt><trkpt lat="42.298105" lon="13.2838383"><ele>831.0</ele><time>2026-05-02T16:22:24.281Z</time></trkpt><trkpt lat="42.2980233" lon="13.28388"><ele>831.0</ele><time>2026-05-02T16:22:25.28Z</time></trkpt><trkpt lat="42.29796" lon="13.2839217"><ele>831.0</ele><time>2026-05-02T16:22:26.281Z</time></trkpt><trkpt lat="42.2979" lon="13.28403"><ele>831.0</ele><time>2026-05-02T16:22:28.281Z</time></trkpt><trkpt lat="42.2979333" lon="13.2841417"><ele>831.0</ele><time>2026-05-02T16:22:30.28Z</time></trkpt><trkpt lat="42.2979933" lon="13.2841767"><ele>827.5</ele><time>2026-05-02T16:22:31.28Z</time></trkpt><trkpt lat="42.2981133" lon="13.2842017"><ele>824.0</ele><time>2026-05-02T16:22:32.28Z</time></trkpt><trkpt lat="42.2982367" lon="13.2842167"><ele>820.5</ele><time>2026-05-02T16:22:33.28Z</time></trkpt><trkpt lat="42.2983467" lon="13.284235"><ele>817.0</ele><time>2026-05-02T16:22:34.28Z</time></trkpt><trkpt lat="42.2984583" lon="13.2842433"><ele>817.0</ele><time>2026-05-02T16:22:35.28Z</time></trkpt><trkpt lat="42.298575" lon="13.284295"><ele>817.0</ele><time>2026-05-02T16:22:36.28Z</time></trkpt><trkpt lat="42.2986683" lon="13.28435"><ele>817.0</ele><time>2026-05-02T16:22:37.28Z</time></trkpt><trkpt lat="42.298775" lon="13.28445"><ele>817.0</ele><time>2026-05-02T16:22:38.281Z</time></trkpt><trkpt lat="42.2988583" lon="13.284545"><ele>817.75</ele><time>2026-05-02T16:22:39.28Z</time></trkpt><trkpt lat="42.2989433" lon="13.2846683"><ele>818.5</ele><time>2026-05-02T16:22:40.28Z</time></trkpt><trkpt lat="42.2990333" lon="13.2848133"><ele>819.25</ele><time>2026-05-02T16:22:41.28Z</time></trkpt><trkpt lat="42.29912" lon="13.2849633"><ele>820.0</ele><time>2026-05-02T16:22:42.281Z</time></trkpt><trkpt lat="42.2991917" lon="13.2851083"><ele>817.75</ele><time>2026-05-02T16:22:43.28Z</time></trkpt><trkpt lat="42.2992483" lon="13.285255"><ele>815.5</ele><time>2026-05-02T16:22:44.28Z</time></trkpt><trkpt lat="42.2992967" lon="13.2854083"><ele>813.25</ele><time>2026-05-02T16:22:45.28Z</time></trkpt><trkpt lat="42.2993417" lon="13.285585"><ele>811.0</ele><time>2026-05-02T16:22:46.28Z</time></trkpt><trkpt lat="42.2993817" lon="13.2857833"><ele>809.3333333333333</ele><time>2026-05-02T16:22:47.28Z</time></trkpt><trkpt lat="42.29941" lon="13.2859767"><ele>807.6666666666667</ele><time>2026-05-02T16:22:48.281Z</time></trkpt><trkpt lat="42.29944" lon="13.286205"><ele>806.0</ele><time>2026-05-02T16:22:49.28Z</time></trkpt><trkpt lat="42.2994483" lon="13.286415"><ele>804.5</ele><time>2026-05-02T16:22:50.28Z</time></trkpt><trkpt lat="42.2994567" lon="13.2866233"><ele>803.0</ele><time>2026-05-02T16:22:51.28Z</time></trkpt><trkpt lat="42.2994633" lon="13.2868117"><ele>801.5</ele><time>2026-05-02T16:22:52.28Z</time></trkpt><trkpt lat="42.299475" lon="13.2869917"><ele>800.0</ele><time>2026-05-02T16:22:53.28Z</time></trkpt><trkpt lat="42.2994933" lon="13.2871583"><ele>800.5</ele><time>2026-05-02T16:22:54.28Z</time></trkpt><trkpt lat="42.2995283" lon="13.2873117"><ele>801.0</ele><time>2026-05-02T16:22:55.28Z</time></trkpt><trkpt lat="42.29959" lon="13.287465"><ele>801.5</ele><time>2026-05-02T16:22:56.28Z</time></trkpt><trkpt lat="42.2996717" lon="13.2875883"><ele>802.0</ele><time>2026-05-02T16:22:57.28Z</time></trkpt><trkpt lat="42.2997733" lon="13.2876683"><ele>802.0</ele><time>2026-05-02T16:22:58.28Z</time></trkpt><trkpt lat="42.2998817" lon="13.287715"><ele>802.0</ele><time>2026-05-02T16:22:59.28Z</time></trkpt><trkpt lat="42.299995" lon="13.2877117"><ele>802.0</ele><time>2026-05-02T16:23:00.28Z</time></trkpt><trkpt lat="42.3001367" lon="13.2876783"><ele>802.0</ele><time>2026-05-02T16:23:01.28Z</time></trkpt><trkpt lat="42.3002883" lon="13.2876517"><ele>802.0</ele><time>2026-05-02T16:23:02.28Z</time></trkpt><trkpt lat="42.30043" lon="13.28764"><ele>802.0</ele><time>2026-05-02T16:23:03.28Z</time></trkpt><trkpt lat="42.3005683" lon="13.287635"><ele>802.0</ele><time>2026-05-02T16:23:04.28Z</time></trkpt><trkpt lat="42.3007183" lon="13.2876383"><ele>802.0</ele><time>2026-05-02T16:23:05.28Z</time></trkpt><trkpt lat="42.3008683" lon="13.2876433"><ele>800.3333333333333</ele><time>2026-05-02T16:23:06.28Z</time></trkpt><trkpt lat="42.301025" lon="13.2876383"><ele>798.6666666666667</ele><time>2026-05-02T16:23:07.281Z</time></trkpt><trkpt lat="42.3011717" lon="13.2876233"><ele>797.0</ele><time>2026-05-02T16:23:08.28Z</time></trkpt><trkpt lat="42.301315" lon="13.2875683"><ele>793.0</ele><time>2026-05-02T16:23:09.281Z</time></trkpt><trkpt lat="42.3014483" lon="13.2874767"><ele>789.0</ele><time>2026-05-02T16:23:10.28Z</time></trkpt><trkpt lat="42.301565" lon="13.2873883"><ele>785.0</ele><time>2026-05-02T16:23:11.28Z</time></trkpt><trkpt lat="42.3016833" lon="13.2873167"><ele>781.0</ele><time>2026-05-02T16:23:12.28Z</time></trkpt><trkpt lat="42.3018083" lon="13.2872867"><ele>781.0</ele><time>2026-05-02T16:23:13.28Z</time></trkpt><trkpt lat="42.3019333" lon="13.2872833"><ele>781.0</ele><time>2026-05-02T16:23:14.28Z</time></trkpt><trkpt lat="42.3020617" lon="13.287295"><ele>781.0</ele><time>2026-05-02T16:23:15.28Z</time></trkpt><trkpt lat="42.30218" lon="13.2873217"><ele>781.0</ele><time>2026-05-02T16:23:16.28Z</time></trkpt><trkpt lat="42.3022767" lon="13.2873517"><ele>780.5999999999999</ele><time>2026-05-02T16:23:17.28Z</time></trkpt><trkpt lat="42.3023483" lon="13.287365"><ele>780.2</ele><time>2026-05-02T16:23:18.28Z</time></trkpt><trkpt lat="42.3024583" lon="13.2874033"><ele>779.8</ele><time>2026-05-02T16:23:20.28Z</time></trkpt><trkpt lat="42.3025583" lon="13.28744"><ele>779.4000000000001</ele><time>2026-05-02T16:23:22.281Z</time></trkpt><trkpt lat="42.3026267" lon="13.287455"><ele>779.0</ele><time>2026-05-02T16:23:24.28Z</time></trkpt><trkpt lat="42.302515" lon="13.2873633"><ele>779.0000000000001</ele><time>2026-05-02T16:23:30.28Z</time></trkpt><trkpt lat="42.302445" lon="13.2873433"><ele>779.0</ele><time>2026-05-02T16:23:31.28Z</time></trkpt><trkpt lat="42.3023733" lon="13.2873233"><ele>779.0</ele><time>2026-05-02T16:23:32.28Z</time></trkpt><trkpt lat="42.3023033" lon="13.28731"><ele>779.0</ele><time>2026-05-02T16:23:33.28Z</time></trkpt><trkpt lat="42.3021933" lon="13.287305"><ele>779.0000000000001</ele><time>2026-05-02T16:23:35.28Z</time></trkpt><trkpt lat="42.30213" lon="13.2873683"><ele>779.0</ele><time>2026-05-02T16:23:37.28Z</time></trkpt><trkpt lat="42.3021033" lon="13.287465"><ele>779.4000000000001</ele><time>2026-05-02T16:23:39.28Z</time></trkpt><trkpt lat="42.30209" lon="13.2875633"><ele>779.8</ele><time>2026-05-02T16:23:41.28Z</time></trkpt><trkpt lat="42.3020817" lon="13.28769"><ele>780.2</ele><time>2026-05-02T16:23:43.28Z</time></trkpt><trkpt lat="42.3020783" lon="13.2878683"><ele>780.5999999999999</ele><time>2026-05-02T16:23:45.28Z</time></trkpt><trkpt lat="42.30208" lon="13.28797"><ele>781.0</ele><time>2026-05-02T16:23:46.28Z</time></trkpt><trkpt lat="42.3020783" lon="13.288075"><ele>779.6666666666666</ele><time>2026-05-02T16:23:47.28Z</time></trkpt><trkpt lat="42.30208" lon="13.2881817"><ele>778.3333333333333</ele><time>2026-05-02T16:23:48.28Z</time></trkpt><trkpt lat="42.30208" lon="13.2883"><ele>777.0</ele><time>2026-05-02T16:23:49.28Z</time></trkpt><trkpt lat="42.30208" lon="13.288415"><ele>775.6666666666667</ele><time>2026-05-02T16:23:50.28Z</time></trkpt><trkpt lat="42.3020767" lon="13.28852"><ele>774.3333333333334</ele><time>2026-05-02T16:23:51.281Z</time></trkpt><trkpt lat="42.3020767" lon="13.2886067"><ele>773.0</ele><time>2026-05-02T16:23:52.28Z</time></trkpt><trkpt lat="42.3020817" lon="13.288745"><ele>773.0</ele><time>2026-05-02T16:23:54.28Z</time></trkpt><trkpt lat="42.3021317" lon="13.288845"><ele>773.0</ele><time>2026-05-02T16:23:56.28Z</time></trkpt><trkpt lat="42.3022217" lon="13.28891"><ele>773.0</ele><time>2026-05-02T16:23:58.28Z</time></trkpt><trkpt lat="42.3023283" lon="13.288945"><ele>773.0</ele><time>2026-05-02T16:24:00.28Z</time></trkpt><trkpt lat="42.3024467" lon="13.2889833"><ele>773.0</ele><time>2026-05-02T16:24:02.28Z</time></trkpt><trkpt lat="42.302515" lon="13.2889967"><ele>774.2</ele><time>2026-05-02T16:24:03.28Z</time></trkpt><trkpt lat="42.302605" lon="13.289"><ele>775.4</ele><time>2026-05-02T16:24:04.28Z</time></trkpt><trkpt lat="42.3027133" lon="13.2889983"><ele>776.6</ele><time>2026-05-02T16:24:05.28Z</time></trkpt><trkpt lat="42.3028233" lon="13.2889967"><ele>777.8000000000001</ele><time>2026-05-02T16:24:06.28Z</time></trkpt><trkpt lat="42.3029433" lon="13.2889833"><ele>779.0</ele><time>2026-05-02T16:24:07.28Z</time></trkpt><trkpt lat="42.3030533" lon="13.2889583"><ele>780.2</ele><time>2026-05-02T16:24:08.28Z</time></trkpt><trkpt lat="42.3031633" lon="13.2889367"><ele>781.4000000000001</ele><time>2026-05-02T16:24:09.28Z</time></trkpt><trkpt lat="42.3032617" lon="13.2889033"><ele>782.6</ele><time>2026-05-02T16:24:10.28Z</time></trkpt><trkpt lat="42.3033533" lon="13.2888617"><ele>783.8</ele><time>2026-05-02T16:24:11.28Z</time></trkpt><trkpt lat="42.3034483" lon="13.288825"><ele>785.0</ele><time>2026-05-02T16:24:12.28Z</time></trkpt><trkpt lat="42.303535" lon="13.2887933"><ele>782.3333333333334</ele><time>2026-05-02T16:24:13.28Z</time></trkpt><trkpt lat="42.3036233" lon="13.28877"><ele>779.6666666666667</ele><time>2026-05-02T16:24:14.28Z</time></trkpt><trkpt lat="42.3037117" lon="13.2887583"><ele>777.0</ele><time>2026-05-02T16:24:15.28Z</time></trkpt><trkpt lat="42.3037967" lon="13.28875"><ele>774.3333333333333</ele><time>2026-05-02T16:24:16.28Z</time></trkpt><trkpt lat="42.3038817" lon="13.2887367"><ele>771.6666666666666</ele><time>2026-05-02T16:24:17.28Z</time></trkpt><trkpt lat="42.3039717" lon="13.28872"><ele>769.0</ele><time>2026-05-02T16:24:18.28Z</time></trkpt><trkpt lat="42.304065" lon="13.2886967"><ele>769.0</ele><time>2026-05-02T16:24:19.28Z</time></trkpt><trkpt lat="42.30416" lon="13.28867"><ele>769.0</ele><time>2026-05-02T16:24:20.28Z</time></trkpt><trkpt lat="42.3042583" lon="13.28864"><ele>769.0</ele><time>2026-05-02T16:24:21.28Z</time></trkpt><trkpt lat="42.3043533" lon="13.2886083"><ele>769.0</ele><time>2026-05-02T16:24:22.281Z</time></trkpt><trkpt lat="42.3044483" lon="13.288575"><ele>769.0</ele><time>2026-05-02T16:24:23.28Z</time></trkpt><trkpt lat="42.304535" lon="13.2885417"><ele>769.0</ele><time>2026-05-02T16:24:24.28Z</time></trkpt><trkpt lat="42.304635" lon="13.2884967"><ele>769.0</ele><time>2026-05-02T16:24:25.281Z</time></trkpt><trkpt lat="42.3047267" lon="13.2884617"><ele>769.0</ele><time>2026-05-02T16:24:26.28Z</time></trkpt><trkpt lat="42.3048183" lon="13.288425"><ele>769.0</ele><time>2026-05-02T16:24:27.28Z</time></trkpt><trkpt lat="42.3049017" lon="13.2883983"><ele>769.0</ele><time>2026-05-02T16:24:28.28Z</time></trkpt><trkpt lat="42.3049783" lon="13.2883733"><ele>768.8000000000001</ele><time>2026-05-02T16:24:29.28Z</time></trkpt><trkpt lat="42.305055" lon="13.28834"><ele>768.6</ele><time>2026-05-02T16:24:30.28Z</time></trkpt><trkpt lat="42.3051283" lon="13.2883133"><ele>768.4</ele><time>2026-05-02T16:24:31.28Z</time></trkpt><trkpt lat="42.3052" lon="13.2882967"><ele>768.2</ele><time>2026-05-02T16:24:32.281Z</time></trkpt><trkpt lat="42.3052767" lon="13.2882833"><ele>768.0</ele><time>2026-05-02T16:24:33.28Z</time></trkpt><trkpt lat="42.3054533" lon="13.2882967"><ele>768.0</ele><time>2026-05-02T16:24:35.28Z</time></trkpt><trkpt lat="42.30556" lon="13.2883067"><ele>768.0</ele><time>2026-05-02T16:24:36.28Z</time></trkpt><trkpt lat="42.3056533" lon="13.2883133"><ele>768.0</ele><time>2026-05-02T16:24:37.28Z</time></trkpt><trkpt lat="42.30574" lon="13.28831"><ele>768.0</ele><time>2026-05-02T16:24:38.28Z</time></trkpt><trkpt lat="42.3058117" lon="13.2882983"><ele>768.0</ele><time>2026-05-02T16:24:39.28Z</time></trkpt><trkpt lat="42.305895" lon="13.288275"><ele>768.0</ele><time>2026-05-02T16:24:40.28Z</time></trkpt><trkpt lat="42.3059717" lon="13.2882433"><ele>767.8</ele><time>2026-05-02T16:24:41.28Z</time></trkpt><trkpt lat="42.30605" lon="13.288215"><ele>767.5999999999999</ele><time>2026-05-02T16:24:42.28Z</time></trkpt><trkpt lat="42.3061317" lon="13.2881733"><ele>767.4000000000001</ele><time>2026-05-02T16:24:43.28Z</time></trkpt><trkpt lat="42.3062267" lon="13.2881283"><ele>767.2</ele><time>2026-05-02T16:24:44.281Z</time></trkpt><trkpt lat="42.3063167" lon="13.28806"><ele>767.0</ele><time>2026-05-02T16:24:45.28Z</time></trkpt><trkpt lat="42.3064067" lon="13.28801"><ele>766.6</ele><time>2026-05-02T16:24:46.28Z</time></trkpt><trkpt lat="42.3065067" lon="13.2879617"><ele>766.2</ele><time>2026-05-02T16:24:47.28Z</time></trkpt><trkpt lat="42.3066067" lon="13.2879233"><ele>765.8</ele><time>2026-05-02T16:24:48.28Z</time></trkpt><trkpt lat="42.3067017" lon="13.2878817"><ele>765.4</ele><time>2026-05-02T16:24:49.281Z</time></trkpt><trkpt lat="42.3067783" lon="13.2878467"><ele>765.0</ele><time>2026-05-02T16:24:50.28Z</time></trkpt><trkpt lat="42.3068717" lon="13.28781"><ele>765.0</ele><time>2026-05-02T16:24:52.28Z</time></trkpt><trkpt lat="42.3070217" lon="13.2877717"><ele>765.0</ele><time>2026-05-02T16:25:05.28Z</time></trkpt><trkpt lat="42.30707" lon="13.28771"><ele>765.0</ele><time>2026-05-02T16:25:06.28Z</time></trkpt><trkpt lat="42.30712" lon="13.2876317"><ele>765.0</ele><time>2026-05-02T16:25:07.28Z</time></trkpt><trkpt lat="42.3071817" lon="13.2875233"><ele>765.0</ele><time>2026-05-02T16:25:08.28Z</time></trkpt><trkpt lat="42.3072667" lon="13.287405"><ele>764.5</ele><time>2026-05-02T16:25:09.281Z</time></trkpt><trkpt lat="42.3073633" lon="13.287275"><ele>764.0</ele><time>2026-05-02T16:25:10.28Z</time></trkpt><trkpt lat="42.3074717" lon="13.28715"><ele>763.5</ele><time>2026-05-02T16:25:11.28Z</time></trkpt><trkpt lat="42.3075667" lon="13.287035"><ele>763.0</ele><time>2026-05-02T16:25:12.28Z</time></trkpt><trkpt lat="42.30767" lon="13.28691"><ele>763.0</ele><time>2026-05-02T16:25:13.28Z</time></trkpt><trkpt lat="42.3077783" lon="13.2867967"><ele>763.0</ele><time>2026-05-02T16:25:14.28Z</time></trkpt><trkpt lat="42.3078933" lon="13.2866933"><ele>763.0</ele><time>2026-05-02T16:25:15.28Z</time></trkpt><trkpt lat="42.30802" lon="13.2866067"><ele>763.0</ele><time>2026-05-02T16:25:16.28Z</time></trkpt><trkpt lat="42.308125" lon="13.2865233"><ele>764.3333333333334</ele><time>2026-05-02T16:25:17.28Z</time></trkpt><trkpt lat="42.3082767" lon="13.28643"><ele>765.6666666666666</ele><time>2026-05-02T16:25:18.28Z</time></trkpt><trkpt lat="42.3084133" lon="13.2863433"><ele>767.0</ele><time>2026-05-02T16:25:19.28Z</time></trkpt><trkpt lat="42.3085317" lon="13.2862567"><ele>764.5</ele><time>2026-05-02T16:25:20.28Z</time></trkpt><trkpt lat="42.3086583" lon="13.2861767"><ele>762.0</ele><time>2026-05-02T16:25:21.28Z</time></trkpt><trkpt lat="42.3087683" lon="13.2861067"><ele>759.5</ele><time>2026-05-02T16:25:22.28Z</time></trkpt><trkpt lat="42.3088833" lon="13.2860417"><ele>757.0</ele><time>2026-05-02T16:25:23.28Z</time></trkpt><trkpt lat="42.30899" lon="13.2859817"><ele>757.0</ele><time>2026-05-02T16:25:24.28Z</time></trkpt><trkpt lat="42.3091067" lon="13.2859517"><ele>757.0</ele><time>2026-05-02T16:25:25.28Z</time></trkpt><trkpt lat="42.3092233" lon="13.2859283"><ele>757.0</ele><time>2026-05-02T16:25:26.28Z</time></trkpt><trkpt lat="42.309325" lon="13.28592"><ele>757.0</ele><time>2026-05-02T16:25:27.28Z</time></trkpt><trkpt lat="42.3094283" lon="13.285895"><ele>757.0</ele><time>2026-05-02T16:25:28.28Z</time></trkpt><trkpt lat="42.3095217" lon="13.2858733"><ele>757.0</ele><time>2026-05-02T16:25:29.28Z</time></trkpt><trkpt lat="42.3096" lon="13.285855"><ele>757.0</ele><time>2026-05-02T16:25:30.28Z</time></trkpt><trkpt lat="42.309695" lon="13.2858417"><ele>757.0</ele><time>2026-05-02T16:25:32.281Z</time></trkpt><trkpt lat="42.3096917" lon="13.28595"><ele>757.0</ele><time>2026-05-02T16:25:38.28Z</time></trkpt><trkpt lat="42.309625" lon="13.2859767"><ele>757.0</ele><time>2026-05-02T16:25:40.28Z</time></trkpt><trkpt lat="42.30956" lon="13.2859733"><ele>757.0</ele><time>2026-05-02T16:25:41.28Z</time></trkpt><trkpt lat="42.3094667" lon="13.2859567"><ele>757.0</ele><time>2026-05-02T16:25:42.28Z</time></trkpt><trkpt lat="42.3093733" lon="13.28596"><ele>757.0</ele><time>2026-05-02T16:25:43.28Z</time></trkpt><trkpt lat="42.3092767" lon="13.2859667"><ele>757.0</ele><time>2026-05-02T16:25:44.281Z</time></trkpt><trkpt lat="42.30918" lon="13.2860033"><ele>757.0</ele><time>2026-05-02T16:25:45.28Z</time></trkpt><trkpt lat="42.3090783" lon="13.28606"><ele>757.0</ele><time>2026-05-02T16:25:46.28Z</time></trkpt><trkpt lat="42.308955" lon="13.2861183"><ele>757.0</ele><time>2026-05-02T16:25:47.281Z</time></trkpt><trkpt lat="42.3088433" lon="13.2861733"><ele>757.0</ele><time>2026-05-02T16:25:48.28Z</time></trkpt><trkpt lat="42.30875" lon="13.2862417"><ele>757.0</ele><time>2026-05-02T16:25:49.28Z</time></trkpt><trkpt lat="42.3086583" lon="13.2862933"><ele>757.0</ele><time>2026-05-02T16:25:50.28Z</time></trkpt><trkpt lat="42.308575" lon="13.2863483"><ele>757.0</ele><time>2026-05-02T16:25:51.28Z</time></trkpt><trkpt lat="42.3085" lon="13.2864033"><ele>758.6666666666667</ele><time>2026-05-02T16:25:52.28Z</time></trkpt><trkpt lat="42.308445" lon="13.286465"><ele>760.3333333333334</ele><time>2026-05-02T16:25:53.28Z</time></trkpt><trkpt lat="42.3084517" lon="13.2866017"><ele>762.0</ele><time>2026-05-02T16:25:55.28Z</time></trkpt><trkpt lat="42.308515" lon="13.2866417"><ele>763.6666666666666</ele><time>2026-05-02T16:25:56.28Z</time></trkpt><trkpt lat="42.3085883" lon="13.286655"><ele>765.3333333333333</ele><time>2026-05-02T16:25:57.28Z</time></trkpt><trkpt lat="42.3086917" lon="13.28664"><ele>767.0</ele><time>2026-05-02T16:25:58.28Z</time></trkpt><trkpt lat="42.308825" lon="13.28661"><ele>769.0</ele><time>2026-05-02T16:25:59.281Z</time></trkpt><trkpt lat="42.3089933" lon="13.28658"><ele>771.0</ele><time>2026-05-02T16:26:00.28Z</time></trkpt><trkpt lat="42.3091733" lon="13.2865483"><ele>773.0</ele><time>2026-05-02T16:26:01.28Z</time></trkpt><trkpt lat="42.3093533" lon="13.286525"><ele>773.0</ele><time>2026-05-02T16:26:02.28Z</time></trkpt><trkpt lat="42.3095533" lon="13.28651"><ele>773.0</ele><time>2026-05-02T16:26:03.28Z</time></trkpt><trkpt lat="42.309755" lon="13.2864867"><ele>773.0</ele><time>2026-05-02T16:26:04.28Z</time></trkpt><trkpt lat="42.3099517" lon="13.28646"><ele>769.6666666666667</ele><time>2026-05-02T16:26:05.28Z</time></trkpt><trkpt lat="42.3101433" lon="13.2864333"><ele>766.3333333333334</ele><time>2026-05-02T16:26:06.28Z</time></trkpt><trkpt lat="42.310335" lon="13.2864067"><ele>763.0</ele><time>2026-05-02T16:26:07.281Z</time></trkpt><trkpt lat="42.3105217" lon="13.28637"><ele>766.3333333333334</ele><time>2026-05-02T16:26:08.28Z</time></trkpt><trkpt lat="42.310705" lon="13.2863417"><ele>769.6666666666667</ele><time>2026-05-02T16:26:09.28Z</time></trkpt><trkpt lat="42.3108683" lon="13.286345"><ele>773.0</ele><time>2026-05-02T16:26:10.28Z</time></trkpt><trkpt lat="42.3110267" lon="13.2863517"><ele>773.0</ele><time>2026-05-02T16:26:11.28Z</time></trkpt><trkpt lat="42.3111567" lon="13.2863467"><ele>773.0</ele><time>2026-05-02T16:26:12.28Z</time></trkpt><trkpt lat="42.3112633" lon="13.2863067"><ele>773.0</ele><time>2026-05-02T16:26:13.28Z</time></trkpt><trkpt lat="42.31135" lon="13.286245"><ele>773.0</ele><time>2026-05-02T16:26:14.28Z</time></trkpt><trkpt lat="42.311435" lon="13.2861667"><ele>773.0</ele><time>2026-05-02T16:26:15.28Z</time></trkpt><trkpt lat="42.3115217" lon="13.2860817"><ele>775.0000000000001</ele><time>2026-05-02T16:26:16.28Z</time></trkpt><trkpt lat="42.3115933" lon="13.2860383"><ele>777.0</ele><time>2026-05-02T16:26:17.28Z</time></trkpt><trkpt lat="42.3116567" lon="13.2860467"><ele>779.0</ele><time>2026-05-02T16:26:18.28Z</time></trkpt><trkpt lat="42.3116617" lon="13.2861767"><ele>781.0</ele><time>2026-05-02T16:26:20.28Z</time></trkpt><trkpt lat="42.3116267" lon="13.2862733"><ele>783.0000000000001</ele><time>2026-05-02T16:26:21.28Z</time></trkpt><trkpt lat="42.3115683" lon="13.2864117"><ele>785.0</ele><time>2026-05-02T16:26:22.28Z</time></trkpt><trkpt lat="42.3114917" lon="13.2865817"><ele>787.0</ele><time>2026-05-02T16:26:23.28Z</time></trkpt><trkpt lat="42.3114133" lon="13.2867617"><ele>789.0</ele><time>2026-05-02T16:26:24.28Z</time></trkpt><trkpt lat="42.3113283" lon="13.2869567"><ele>791.0</ele><time>2026-05-02T16:26:25.28Z</time></trkpt><trkpt lat="42.3112283" lon="13.28714"><ele>793.0</ele><time>2026-05-02T16:26:26.28Z</time></trkpt><trkpt lat="42.311125" lon="13.287305"><ele>795.0</ele><time>2026-05-02T16:26:27.28Z</time></trkpt><trkpt lat="42.31101" lon="13.2874483"><ele>797.0</ele><time>2026-05-02T16:26:28.28Z</time></trkpt><trkpt lat="42.3108683" lon="13.287605"><ele>797.0</ele><time>2026-05-02T16:26:29.28Z</time></trkpt><trkpt lat="42.31071" lon="13.287755"><ele>797.0</ele><time>2026-05-02T16:26:30.28Z</time></trkpt><trkpt lat="42.310555" lon="13.287915"><ele>797.0</ele><time>2026-05-02T16:26:31.28Z</time></trkpt><trkpt lat="42.310405" lon="13.288075"><ele>797.3333333333334</ele><time>2026-05-02T16:26:32.28Z</time></trkpt><trkpt lat="42.310245" lon="13.2882433"><ele>797.6666666666667</ele><time>2026-05-02T16:26:33.28Z</time></trkpt><trkpt lat="42.3100967" lon="13.2883983"><ele>798.0</ele><time>2026-05-02T16:26:34.28Z</time></trkpt><trkpt lat="42.3099633" lon="13.28856"><ele>798.0</ele><time>2026-05-02T16:26:35.28Z</time></trkpt><trkpt lat="42.3098267" lon="13.288715"><ele>798.0</ele><time>2026-05-02T16:26:36.281Z</time></trkpt><trkpt lat="42.3096967" lon="13.2888483"><ele>798.0</ele><time>2026-05-02T16:26:37.28Z</time></trkpt><trkpt lat="42.309575" lon="13.289"><ele>798.0</ele><time>2026-05-02T16:26:38.28Z</time></trkpt><trkpt lat="42.309465" lon="13.2891217"><ele>798.0</ele><time>2026-05-02T16:26:39.28Z</time></trkpt><trkpt lat="42.3093733" lon="13.28924"><ele>798.0</ele><time>2026-05-02T16:26:40.28Z</time></trkpt><trkpt lat="42.30926" lon="13.2893517"><ele>798.0</ele><time>2026-05-02T16:26:41.28Z</time></trkpt><trkpt lat="42.3091667" lon="13.2894567"><ele>798.0</ele><time>2026-05-02T16:26:42.28Z</time></trkpt><trkpt lat="42.3090633" lon="13.2895467"><ele>798.0</ele><time>2026-05-02T16:26:43.281Z</time></trkpt><trkpt lat="42.30898" lon="13.2896317"><ele>798.0</ele><time>2026-05-02T16:26:44.28Z</time></trkpt><trkpt lat="42.3089033" lon="13.2897183"><ele>798.0</ele><time>2026-05-02T16:26:45.28Z</time></trkpt><trkpt lat="42.3088383" lon="13.2897817"><ele>798.0</ele><time>2026-05-02T16:26:46.28Z</time></trkpt><trkpt lat="42.3087933" lon="13.2898517"><ele>798.8</ele><time>2026-05-02T16:26:47.28Z</time></trkpt><trkpt lat="42.3087733" lon="13.2899883"><ele>799.5999999999999</ele><time>2026-05-02T16:26:49.28Z</time></trkpt><trkpt lat="42.3088133" lon="13.29012"><ele>800.4000000000001</ele><time>2026-05-02T16:26:51.28Z</time></trkpt><trkpt lat="42.3088617" lon="13.2902"><ele>801.2</ele><time>2026-05-02T16:26:52.281Z</time></trkpt><trkpt lat="42.3089117" lon="13.2902867"><ele>802.0</ele><time>2026-05-02T16:26:53.28Z</time></trkpt><trkpt lat="42.3089683" lon="13.2903783"><ele>802.0</ele><time>2026-05-02T16:26:54.28Z</time></trkpt><trkpt lat="42.309025" lon="13.2904617"><ele>802.0</ele><time>2026-05-02T16:26:55.28Z</time></trkpt><trkpt lat="42.30907" lon="13.2905517"><ele>802.0</ele><time>2026-05-02T16:26:56.28Z</time></trkpt><trkpt lat="42.309135" lon="13.2906617"><ele>802.0</ele><time>2026-05-02T16:26:58.28Z</time></trkpt><trkpt lat="42.3091483" lon="13.2907633"><ele>802.0</ele><time>2026-05-02T16:27:00.281Z</time></trkpt><trkpt lat="42.3091567" lon="13.2909417"><ele>801.9999999999999</ele><time>2026-05-02T16:27:02.28Z</time></trkpt><trkpt lat="42.3091733" lon="13.291035"><ele>802.0</ele><time>2026-05-02T16:27:03.28Z</time></trkpt><trkpt lat="42.3092" lon="13.2911333"><ele>802.0</ele><time>2026-05-02T16:27:04.28Z</time></trkpt><trkpt lat="42.30923" lon="13.2912367"><ele>802.0</ele><time>2026-05-02T16:27:05.28Z</time></trkpt><trkpt lat="42.3092533" lon="13.291345"><ele>801.9999999999999</ele><time>2026-05-02T16:27:06.28Z</time></trkpt><trkpt lat="42.30928" lon="13.29145"><ele>802.0</ele><time>2026-05-02T16:27:07.28Z</time></trkpt><trkpt lat="42.30931" lon="13.2915467"><ele>801.6</ele><time>2026-05-02T16:27:08.28Z</time></trkpt><trkpt lat="42.3093267" lon="13.2916367"><ele>801.2</ele><time>2026-05-02T16:27:09.28Z</time></trkpt><trkpt lat="42.3093367" lon="13.2917317"><ele>800.8</ele><time>2026-05-02T16:27:10.28Z</time></trkpt><trkpt lat="42.3093567" lon="13.29189"><ele>800.4</ele><time>2026-05-02T16:27:12.28Z</time></trkpt><trkpt lat="42.3093833" lon="13.2920567"><ele>800.0</ele><time>2026-05-02T16:27:14.28Z</time></trkpt><trkpt lat="42.3094117" lon="13.2921967"><ele>799.6</ele><time>2026-05-02T16:27:16.28Z</time></trkpt><trkpt lat="42.3094283" lon="13.2923567"><ele>799.2</ele><time>2026-05-02T16:27:18.28Z</time></trkpt><trkpt lat="42.3094533" lon="13.292435"><ele>798.8</ele><time>2026-05-02T16:27:19.28Z</time></trkpt><trkpt lat="42.3095017" lon="13.2925967"><ele>798.4</ele><time>2026-05-02T16:27:21.28Z</time></trkpt><trkpt lat="42.3095217" lon="13.2927"><ele>798.0</ele><time>2026-05-02T16:27:22.28Z</time></trkpt><trkpt lat="42.3095333" lon="13.2928317"><ele>798.0</ele><time>2026-05-02T16:27:23.28Z</time></trkpt><trkpt lat="42.3095417" lon="13.2929567"><ele>798.0</ele><time>2026-05-02T16:27:24.28Z</time></trkpt><trkpt lat="42.3095433" lon="13.293075"><ele>798.0</ele><time>2026-05-02T16:27:25.28Z</time></trkpt><trkpt lat="42.309545" lon="13.2931883"><ele>798.0</ele><time>2026-05-02T16:27:26.28Z</time></trkpt><trkpt lat="42.3095467" lon="13.2932983"><ele>798.0</ele><time>2026-05-02T16:27:27.28Z</time></trkpt><trkpt lat="42.3095517" lon="13.2933967"><ele>798.0</ele><time>2026-05-02T16:27:28.28Z</time></trkpt><trkpt lat="42.3095633" lon="13.2934867"><ele>797.1666666666666</ele><time>2026-05-02T16:27:29.28Z</time></trkpt><trkpt lat="42.3095883" lon="13.2936017"><ele>796.3333333333333</ele><time>2026-05-02T16:27:31.28Z</time></trkpt><trkpt lat="42.3096533" lon="13.2936417"><ele>795.5</ele><time>2026-05-02T16:27:33.28Z</time></trkpt><trkpt lat="42.30975" lon="13.2936367"><ele>794.6666666666666</ele><time>2026-05-02T16:27:35.28Z</time></trkpt><trkpt lat="42.3098583" lon="13.2935817"><ele>793.8333333333333</ele><time>2026-05-02T16:27:37.28Z</time></trkpt><trkpt lat="42.3099233" lon="13.2935517"><ele>793.0</ele><time>2026-05-02T16:27:38.28Z</time></trkpt><trkpt lat="42.3100283" lon="13.293575"><ele>790.25</ele><time>2026-05-02T16:27:40.28Z</time></trkpt><trkpt lat="42.3100917" lon="13.2937017"><ele>787.5</ele><time>2026-05-02T16:27:42.28Z</time></trkpt><trkpt lat="42.3100817" lon="13.29387"><ele>784.75</ele><time>2026-05-02T16:27:44.28Z</time></trkpt><trkpt lat="42.3100417" lon="13.29399"><ele>782.0</ele><time>2026-05-02T16:27:46.28Z</time></trkpt><trkpt lat="42.309935" lon="13.2940633"><ele>782.1428571428571</ele><time>2026-05-02T16:27:48.28Z</time></trkpt><trkpt lat="42.3098633" lon="13.2940917"><ele>782.2857142857142</ele><time>2026-05-02T16:27:49.28Z</time></trkpt><trkpt lat="42.3097833" lon="13.2941033"><ele>782.4285714285713</ele><time>2026-05-02T16:27:50.28Z</time></trkpt><trkpt lat="42.3097" lon="13.2941133"><ele>782.5714285714286</ele><time>2026-05-02T16:27:51.281Z</time></trkpt><trkpt lat="42.3096317" lon="13.2941417"><ele>782.7142857142858</ele><time>2026-05-02T16:27:52.28Z</time></trkpt><trkpt lat="42.309565" lon="13.2941683"><ele>782.8571428571428</ele><time>2026-05-02T16:27:53.281Z</time></trkpt><trkpt lat="42.3095133" lon="13.2942217"><ele>783.0</ele><time>2026-05-02T16:27:54.28Z</time></trkpt><trkpt lat="42.3094667" lon="13.2942833"><ele>783.0</ele><time>2026-05-02T16:27:55.28Z</time></trkpt><trkpt lat="42.309435" lon="13.2944517"><ele>783.0</ele><time>2026-05-02T16:27:57.28Z</time></trkpt><trkpt lat="42.3094633" lon="13.294585"><ele>783.0</ele><time>2026-05-02T16:27:59.28Z</time></trkpt><trkpt lat="42.3094983" lon="13.294725"><ele>783.0</ele><time>2026-05-02T16:28:01.28Z</time></trkpt><trkpt lat="42.3094867" lon="13.2948783"><ele>782.0</ele><time>2026-05-02T16:28:03.28Z</time></trkpt><trkpt lat="42.3094583" lon="13.2949783"><ele>781.0</ele><time>2026-05-02T16:28:04.28Z</time></trkpt><trkpt lat="42.30942" lon="13.2951017"><ele>780.0</ele><time>2026-05-02T16:28:05.28Z</time></trkpt><trkpt lat="42.3093617" lon="13.29524"><ele>779.0</ele><time>2026-05-02T16:28:06.28Z</time></trkpt><trkpt lat="42.30931" lon="13.2953817"><ele>778.0</ele><time>2026-05-02T16:28:07.28Z</time></trkpt><trkpt lat="42.30926" lon="13.2955217"><ele>776.5999999999999</ele><time>2026-05-02T16:28:08.28Z</time></trkpt><trkpt lat="42.3092" lon="13.295665"><ele>775.1999999999999</ele><time>2026-05-02T16:28:09.281Z</time></trkpt><trkpt lat="42.30916" lon="13.2957833"><ele>773.8</ele><time>2026-05-02T16:28:10.28Z</time></trkpt><trkpt lat="42.309115" lon="13.2958933"><ele>772.4</ele><time>2026-05-02T16:28:11.28Z</time></trkpt><trkpt lat="42.3090683" lon="13.2959983"><ele>771.0</ele><time>2026-05-02T16:28:12.28Z</time></trkpt><trkpt lat="42.3090083" lon="13.296115"><ele>771.0</ele><time>2026-05-02T16:28:13.28Z</time></trkpt><trkpt lat="42.3089517" lon="13.2962217"><ele>771.0</ele><time>2026-05-02T16:28:14.28Z</time></trkpt><trkpt lat="42.3089" lon="13.2963283"><ele>771.0</ele><time>2026-05-02T16:28:15.28Z</time></trkpt><trkpt lat="42.3088383" lon="13.29644"><ele>771.0</ele><time>2026-05-02T16:28:16.28Z</time></trkpt><trkpt lat="42.3087933" lon="13.2965533"><ele>771.0</ele><time>2026-05-02T16:28:17.281Z</time></trkpt><trkpt lat="42.3087483" lon="13.2966617"><ele>771.0</ele><time>2026-05-02T16:28:18.28Z</time></trkpt><trkpt lat="42.3087083" lon="13.2967783"><ele>771.0</ele><time>2026-05-02T16:28:19.28Z</time></trkpt><trkpt lat="42.3086683" lon="13.2968767"><ele>771.0</ele><time>2026-05-02T16:28:20.28Z</time></trkpt><trkpt lat="42.3086333" lon="13.2969767"><ele>771.0</ele><time>2026-05-02T16:28:21.281Z</time></trkpt><trkpt lat="42.30859" lon="13.2970833"><ele>771.0</ele><time>2026-05-02T16:28:22.28Z</time></trkpt><trkpt lat="42.3085367" lon="13.2971883"><ele>771.0</ele><time>2026-05-02T16:28:23.28Z</time></trkpt><trkpt lat="42.3084867" lon="13.2972767"><ele>771.0</ele><time>2026-05-02T16:28:24.281Z</time></trkpt><trkpt lat="42.30843" lon="13.2973633"><ele>771.0</ele><time>2026-05-02T16:28:25.28Z</time></trkpt><trkpt lat="42.3083733" lon="13.29744"><ele>771.0</ele><time>2026-05-02T16:28:26.28Z</time></trkpt><trkpt lat="42.3083317" lon="13.2976033"><ele>771.0</ele><time>2026-05-02T16:28:28.28Z</time></trkpt><trkpt lat="42.3083417" lon="13.297705"><ele>771.0</ele><time>2026-05-02T16:28:29.28Z</time></trkpt><trkpt lat="42.3083333" lon="13.2978583"><ele>771.0</ele><time>2026-05-02T16:28:30.28Z</time></trkpt><trkpt lat="42.308345" lon="13.2979667"><ele>771.0</ele><time>2026-05-02T16:28:31.28Z</time></trkpt><trkpt lat="42.308355" lon="13.2980617"><ele>771.0</ele><time>2026-05-02T16:28:32.28Z</time></trkpt><trkpt lat="42.3083717" lon="13.2982217"><ele>771.0</ele><time>2026-05-02T16:28:34.28Z</time></trkpt><trkpt lat="42.3083367" lon="13.29834"><ele>771.0</ele><time>2026-05-02T16:28:36.28Z</time></trkpt><trkpt lat="42.3082867" lon="13.2983967"><ele>771.0</ele><time>2026-05-02T16:28:37.28Z</time></trkpt><trkpt lat="42.3082233" lon="13.2984567"><ele>770.5</ele><time>2026-05-02T16:28:38.28Z</time></trkpt><trkpt lat="42.3081533" lon="13.298515"><ele>770.0</ele><time>2026-05-02T16:28:39.28Z</time></trkpt><trkpt lat="42.3080867" lon="13.2985617"><ele>769.5</ele><time>2026-05-02T16:28:40.28Z</time></trkpt><trkpt lat="42.308015" lon="13.2985717"><ele>769.0</ele><time>2026-05-02T16:28:41.281Z</time></trkpt><trkpt lat="42.3079333" lon="13.2985733"><ele>768.5</ele><time>2026-05-02T16:28:42.28Z</time></trkpt><trkpt lat="42.30784" lon="13.2985733"><ele>768.0</ele><time>2026-05-02T16:28:43.28Z</time></trkpt><trkpt lat="42.3077617" lon="13.2985817"><ele>769.4</ele><time>2026-05-02T16:28:44.28Z</time></trkpt><trkpt lat="42.3076917" lon="13.2986083"><ele>770.8</ele><time>2026-05-02T16:28:45.28Z</time></trkpt><trkpt lat="42.30759" lon="13.2987033"><ele>772.2</ele><time>2026-05-02T16:28:47.28Z</time></trkpt><trkpt lat="42.3075183" lon="13.298835"><ele>773.6</ele><time>2026-05-02T16:28:49.28Z</time></trkpt><trkpt lat="42.3074883" lon="13.29891"><ele>775.0</ele><time>2026-05-02T16:28:50.28Z</time></trkpt><trkpt lat="42.3074783" lon="13.29901"><ele>775.2</ele><time>2026-05-02T16:28:51.281Z</time></trkpt><trkpt lat="42.3074633" lon="13.2991"><ele>775.4</ele><time>2026-05-02T16:28:52.28Z</time></trkpt><trkpt lat="42.3074183" lon="13.2991733"><ele>775.5999999999999</ele><time>2026-05-02T16:28:53.28Z</time></trkpt><trkpt lat="42.3073333" lon="13.29924"><ele>775.8</ele><time>2026-05-02T16:28:55.28Z</time></trkpt><trkpt lat="42.3072167" lon="13.29926"><ele>776.0</ele><time>2026-05-02T16:28:57.28Z</time></trkpt><trkpt lat="42.3070883" lon="13.2992417"><ele>776.0</ele><time>2026-05-02T16:28:59.281Z</time></trkpt><trkpt lat="42.3070233" lon="13.2992317"><ele>776.0</ele><time>2026-05-02T16:29:00.28Z</time></trkpt><trkpt lat="42.3069283" lon="13.2992583"><ele>776.0</ele><time>2026-05-02T16:29:02.281Z</time></trkpt><trkpt lat="42.3068667" lon="13.2993817"><ele>776.0</ele><time>2026-05-02T16:29:04.28Z</time></trkpt><trkpt lat="42.3067817" lon="13.2994283"><ele>776.0</ele><time>2026-05-02T16:29:06.28Z</time></trkpt><trkpt lat="42.3066817" lon="13.299415"><ele>776.0000000000001</ele><time>2026-05-02T16:29:08.28Z</time></trkpt><trkpt lat="42.3066183" lon="13.2994567"><ele>776.0</ele><time>2026-05-02T16:29:10.28Z</time></trkpt><trkpt lat="42.3065722" lon="13.2995815"><ele>776.0</ele><time>2026-05-02T16:29:12.28Z</time></trkpt><trkpt lat="42.3065379" lon="13.2996826"><ele>776.0</ele><time>2026-05-02T16:29:13.28Z</time></trkpt><trkpt lat="42.3065018" lon="13.2997623"><ele>776.0000000000001</ele><time>2026-05-02T16:29:14.281Z</time></trkpt><trkpt lat="42.3064092" lon="13.2998218"><ele>776.0</ele><time>2026-05-02T16:29:16.28Z</time></trkpt><trkpt lat="42.3063465" lon="13.2998357"><ele>776.25</ele><time>2026-05-02T16:29:17.28Z</time></trkpt><trkpt lat="42.3062491" lon="13.2999248"><ele>776.5</ele><time>2026-05-02T16:29:19.28Z</time></trkpt><trkpt lat="42.3061516" lon="13.2999987"><ele>776.75</ele><time>2026-05-02T16:29:21.28Z</time></trkpt><trkpt lat="42.3060418" lon="13.2999903"><ele>777.0</ele><time>2026-05-02T16:29:23.28Z</time></trkpt><trkpt lat="42.3059313" lon="13.2999694"><ele>777.0</ele><time>2026-05-02T16:29:25.28Z</time></trkpt><trkpt lat="42.3058408" lon="13.3000058"><ele>777.0</ele><time>2026-05-02T16:29:27.28Z</time></trkpt><trkpt lat="42.3057231" lon="13.3001168"><ele>777.0</ele><time>2026-05-02T16:29:29.281Z</time></trkpt><trkpt lat="42.305643" lon="13.300174"><ele>777.0</ele><time>2026-05-02T16:29:30.28Z</time></trkpt><trkpt lat="42.3055672" lon="13.3002381"><ele>777.0</ele><time>2026-05-02T16:29:31.28Z</time></trkpt><trkpt lat="42.3055018" lon="13.3003017"><ele>777.4000000000001</ele><time>2026-05-02T16:29:32.28Z</time></trkpt><trkpt lat="42.3054476" lon="13.3003714"><ele>777.8000000000001</ele><time>2026-05-02T16:29:33.28Z</time></trkpt><trkpt lat="42.3053961" lon="13.3004244"><ele>778.2</ele><time>2026-05-02T16:29:34.28Z</time></trkpt><trkpt lat="42.3052837" lon="13.3004462"><ele>778.6</ele><time>2026-05-02T16:29:36.28Z</time></trkpt><trkpt lat="42.3051745" lon="13.3004955"><ele>779.0</ele><time>2026-05-02T16:29:38.28Z</time></trkpt><trkpt lat="42.3050644" lon="13.3006"><ele>779.0000000000001</ele><time>2026-05-02T16:29:40.28Z</time></trkpt><trkpt lat="42.3050023" lon="13.3006544"><ele>779.0</ele><time>2026-05-02T16:29:41.28Z</time></trkpt><trkpt lat="42.3049305" lon="13.3007113"><ele>779.0</ele><time>2026-05-02T16:29:42.28Z</time></trkpt><trkpt lat="42.3048492" lon="13.3007725"><ele>779.0</ele><time>2026-05-02T16:29:43.28Z</time></trkpt><trkpt lat="42.3047701" lon="13.3008305"><ele>779.0000000000001</ele><time>2026-05-02T16:29:44.28Z</time></trkpt><trkpt lat="42.3046977" lon="13.3008766"><ele>779.0</ele><time>2026-05-02T16:29:45.28Z</time></trkpt><trkpt lat="42.3046297" lon="13.3009076"><ele>779.2</ele><time>2026-05-02T16:29:46.28Z</time></trkpt><trkpt lat="42.3045638" lon="13.3009229"><ele>779.4000000000001</ele><time>2026-05-02T16:29:47.28Z</time></trkpt><trkpt lat="42.3044393" lon="13.3009048"><ele>779.6</ele><time>2026-05-02T16:29:49.281Z</time></trkpt><trkpt lat="42.304319" lon="13.3008732"><ele>779.8</ele><time>2026-05-02T16:29:51.28Z</time></trkpt><trkpt lat="42.3042141" lon="13.3009063"><ele>780.0</ele><time>2026-05-02T16:29:53.28Z</time></trkpt><trkpt lat="42.3041645" lon="13.300961"><ele>780.0</ele><time>2026-05-02T16:29:54.281Z</time></trkpt><trkpt lat="42.3041177" lon="13.3010438"><ele>780.0</ele><time>2026-05-02T16:29:55.28Z</time></trkpt><trkpt lat="42.3040704" lon="13.3011385"><ele>780.0</ele><time>2026-05-02T16:29:56.28Z</time></trkpt><trkpt lat="42.3040199" lon="13.3012316"><ele>780.0</ele><time>2026-05-02T16:29:57.28Z</time></trkpt><trkpt lat="42.3039631" lon="13.3013138"><ele>780.0</ele><time>2026-05-02T16:29:58.28Z</time></trkpt><trkpt lat="42.3039055" lon="13.3013853"><ele>780.0</ele><time>2026-05-02T16:29:59.28Z</time></trkpt><trkpt lat="42.3038448" lon="13.301436"><ele>781.0</ele><time>2026-05-02T16:30:00.28Z</time></trkpt><trkpt lat="42.3037805" lon="13.3014381"><ele>782.0</ele><time>2026-05-02T16:30:01.28Z</time></trkpt><trkpt lat="42.3036663" lon="13.3013948"><ele>783.0</ele><time>2026-05-02T16:30:03.28Z</time></trkpt><trkpt lat="42.3035599" lon="13.3013557"><ele>784.0</ele><time>2026-05-02T16:30:05.28Z</time></trkpt><trkpt lat="42.3034582" lon="13.30142"><ele>785.0</ele><time>2026-05-02T16:30:07.28Z</time></trkpt><trkpt lat="42.3033927" lon="13.3014911"><ele>785.0</ele><time>2026-05-02T16:30:08.28Z</time></trkpt><trkpt lat="42.3033327" lon="13.301521"><ele>785.0</ele><time>2026-05-02T16:30:09.28Z</time></trkpt><trkpt lat="42.303212" lon="13.3015159"><ele>785.0</ele><time>2026-05-02T16:30:11.28Z</time></trkpt><trkpt lat="42.3030847" lon="13.3015116"><ele>785.0</ele><time>2026-05-02T16:30:13.28Z</time></trkpt><trkpt lat="42.3030069" lon="13.3015234"><ele>785.0</ele><time>2026-05-02T16:30:14.28Z</time></trkpt><trkpt lat="42.3029165" lon="13.3015487"><ele>785.2857142857143</ele><time>2026-05-02T16:30:15.28Z</time></trkpt><trkpt lat="42.3028372" lon="13.3015886"><ele>785.5714285714286</ele><time>2026-05-02T16:30:16.28Z</time></trkpt><trkpt lat="42.302765" lon="13.3016367"><ele>785.8571428571429</ele><time>2026-05-02T16:30:17.28Z</time></trkpt><trkpt lat="42.3027017" lon="13.3016533"><ele>786.1428571428571</ele><time>2026-05-02T16:30:18.28Z</time></trkpt><trkpt lat="42.3026383" lon="13.3016617"><ele>786.4285714285713</ele><time>2026-05-02T16:30:19.28Z</time></trkpt><trkpt lat="42.3025683" lon="13.301645"><ele>786.7142857142857</ele><time>2026-05-02T16:30:20.281Z</time></trkpt><trkpt lat="42.3025033" lon="13.3016333"><ele>787.0</ele><time>2026-05-02T16:30:21.28Z</time></trkpt><trkpt lat="42.3023917" lon="13.3016483"><ele>786.9999999999999</ele><time>2026-05-02T16:30:23.28Z</time></trkpt><trkpt lat="42.302295" lon="13.3017267"><ele>787.0</ele><time>2026-05-02T16:30:25.28Z</time></trkpt><trkpt lat="42.30223" lon="13.301775"><ele>787.0</ele><time>2026-05-02T16:30:26.281Z</time></trkpt><trkpt lat="42.302165" lon="13.3017983"><ele>787.0</ele><time>2026-05-02T16:30:27.28Z</time></trkpt><trkpt lat="42.30208" lon="13.3018183"><ele>786.9999999999999</ele><time>2026-05-02T16:30:29.28Z</time></trkpt><trkpt lat="42.302005" lon="13.3018783"><ele>787.0</ele><time>2026-05-02T16:30:31.28Z</time></trkpt><trkpt lat="42.3019417" lon="13.3019817"><ele>787.0</ele><time>2026-05-02T16:30:33.28Z</time></trkpt><trkpt lat="42.301865" lon="13.30212"><ele>787.0</ele><time>2026-05-02T16:30:35.28Z</time></trkpt><trkpt lat="42.301835" lon="13.3022"><ele>787.0</ele><time>2026-05-02T16:30:36.28Z</time></trkpt><trkpt lat="42.3017733" lon="13.30232"><ele>787.0</ele><time>2026-05-02T16:30:38.28Z</time></trkpt><trkpt lat="42.30205" lon="13.3025"><ele>788.2</ele><time>2026-05-02T16:30:46.28Z</time></trkpt><trkpt lat="42.302105" lon="13.30256"><ele>789.4000000000001</ele><time>2026-05-02T16:30:47.28Z</time></trkpt><trkpt lat="42.3021883" lon="13.3026283"><ele>790.5999999999999</ele><time>2026-05-02T16:30:49.28Z</time></trkpt><trkpt lat="42.3023067" lon="13.3026917"><ele>791.8</ele><time>2026-05-02T16:30:51.28Z</time></trkpt><trkpt lat="42.3024017" lon="13.3027183"><ele>793.0</ele><time>2026-05-02T16:30:52.28Z</time></trkpt><trkpt lat="42.3025" lon="13.3027683"><ele>793.0</ele><time>2026-05-02T16:30:53.28Z</time></trkpt><trkpt lat="42.30261" lon="13.3028217"><ele>793.0</ele><time>2026-05-02T16:30:54.28Z</time></trkpt><trkpt lat="42.3027283" lon="13.302865"><ele>793.0</ele><time>2026-05-02T16:30:55.28Z</time></trkpt><trkpt lat="42.30283" lon="13.3028917"><ele>793.0</ele><time>2026-05-02T16:30:56.28Z</time></trkpt><trkpt lat="42.3029617" lon="13.3028767"><ele>793.0</ele><time>2026-05-02T16:30:57.281Z</time></trkpt><trkpt lat="42.3031167" lon="13.302835"><ele>793.0</ele><time>2026-05-02T16:30:58.28Z</time></trkpt><trkpt lat="42.3032667" lon="13.30279"><ele>793.0</ele><time>2026-05-02T16:30:59.28Z</time></trkpt><trkpt lat="42.30341" lon="13.30275"><ele>793.0</ele><time>2026-05-02T16:31:00.281Z</time></trkpt><trkpt lat="42.3035483" lon="13.3027183"><ele>793.0</ele><time>2026-05-02T16:31:01.28Z</time></trkpt><trkpt lat="42.3037117" lon="13.3026883"><ele>793.0</ele><time>2026-05-02T16:31:02.281Z</time></trkpt><trkpt lat="42.3038733" lon="13.3026883"><ele>794.3333333333333</ele><time>2026-05-02T16:31:03.28Z</time></trkpt><trkpt lat="42.3040333" lon="13.3027083"><ele>795.6666666666667</ele><time>2026-05-02T16:31:04.28Z</time></trkpt><trkpt lat="42.3042067" lon="13.3027417"><ele>797.0</ele><time>2026-05-02T16:31:05.28Z</time></trkpt><trkpt lat="42.30435" lon="13.3027733"><ele>797.0</ele><time>2026-05-02T16:31:06.28Z</time></trkpt><trkpt lat="42.30449" lon="13.3027867"><ele>797.0</ele><time>2026-05-02T16:31:07.28Z</time></trkpt><trkpt lat="42.3046267" lon="13.302765"><ele>797.0</ele><time>2026-05-02T16:31:08.28Z</time></trkpt><trkpt lat="42.3047767" lon="13.30271"><ele>797.0</ele><time>2026-05-02T16:31:09.28Z</time></trkpt><trkpt lat="42.304945" lon="13.3026367"><ele>799.3333333333334</ele><time>2026-05-02T16:31:10.28Z</time></trkpt><trkpt lat="42.3050983" lon="13.302575"><ele>801.6666666666667</ele><time>2026-05-02T16:31:11.28Z</time></trkpt><trkpt lat="42.3052967" lon="13.3025083"><ele>804.0</ele><time>2026-05-02T16:31:12.28Z</time></trkpt><trkpt lat="42.3055067" lon="13.302445"><ele>804.6666666666667</ele><time>2026-05-02T16:31:13.28Z</time></trkpt><trkpt lat="42.3057017" lon="13.3023967"><ele>805.3333333333334</ele><time>2026-05-02T16:31:14.28Z</time></trkpt><trkpt lat="42.3059117" lon="13.302345"><ele>806.0</ele><time>2026-05-02T16:31:15.28Z</time></trkpt><trkpt lat="42.3061267" lon="13.3022717"><ele>803.0</ele><time>2026-05-02T16:31:16.28Z</time></trkpt><trkpt lat="42.3063067" lon="13.302195"><ele>800.0</ele><time>2026-05-02T16:31:17.28Z</time></trkpt><trkpt lat="42.306515" lon="13.30211"><ele>797.0</ele><time>2026-05-02T16:31:18.28Z</time></trkpt><trkpt lat="42.306715" lon="13.3020183"><ele>797.0</ele><time>2026-05-02T16:31:19.28Z</time></trkpt><trkpt lat="42.306905" lon="13.301945"><ele>797.0</ele><time>2026-05-02T16:31:20.28Z</time></trkpt><trkpt lat="42.3070933" lon="13.3018683"><ele>797.0</ele><time>2026-05-02T16:31:21.28Z</time></trkpt><trkpt lat="42.3072767" lon="13.3018183"><ele>798.0</ele><time>2026-05-02T16:31:22.28Z</time></trkpt><trkpt lat="42.30744" lon="13.3017767"><ele>799.0</ele><time>2026-05-02T16:31:23.28Z</time></trkpt><trkpt lat="42.3075933" lon="13.3017367"><ele>800.0</ele><time>2026-05-02T16:31:24.28Z</time></trkpt><trkpt lat="42.3077533" lon="13.3016817"><ele>800.0</ele><time>2026-05-02T16:31:25.28Z</time></trkpt><trkpt lat="42.3079017" lon="13.3016217"><ele>800.0</ele><time>2026-05-02T16:31:26.28Z</time></trkpt><trkpt lat="42.308005" lon="13.3015533"><ele>800.0</ele><time>2026-05-02T16:31:27.28Z</time></trkpt><trkpt lat="42.3081133" lon="13.3014467"><ele>800.0</ele><time>2026-05-02T16:31:28.28Z</time></trkpt><trkpt lat="42.308225" lon="13.3013217"><ele>799.0</ele><time>2026-05-02T16:31:29.28Z</time></trkpt><trkpt lat="42.3083567" lon="13.301185"><ele>798.0</ele><time>2026-05-02T16:31:30.28Z</time></trkpt><trkpt lat="42.308465" lon="13.3010367"><ele>797.0</ele><time>2026-05-02T16:31:31.28Z</time></trkpt><trkpt lat="42.30858" lon="13.3009117"><ele>797.0</ele><time>2026-05-02T16:31:32.28Z</time></trkpt><trkpt lat="42.3087" lon="13.3007883"><ele>797.0</ele><time>2026-05-02T16:31:33.28Z</time></trkpt><trkpt lat="42.3088217" lon="13.30067"><ele>797.0</ele><time>2026-05-02T16:31:34.28Z</time></trkpt><trkpt lat="42.3089567" lon="13.3005717"><ele>796.3333333333334</ele><time>2026-05-02T16:31:35.28Z</time></trkpt><trkpt lat="42.3090917" lon="13.300475"><ele>795.6666666666667</ele><time>2026-05-02T16:31:36.28Z</time></trkpt><trkpt lat="42.3092367" lon="13.3004"><ele>795.0</ele><time>2026-05-02T16:31:37.28Z</time></trkpt><trkpt lat="42.3093783" lon="13.300345"><ele>795.0</ele><time>2026-05-02T16:31:38.28Z</time></trkpt><trkpt lat="42.309515" lon="13.3002867"><ele>795.0</ele><time>2026-05-02T16:31:39.28Z</time></trkpt><trkpt lat="42.3096383" lon="13.3002583"><ele>795.0</ele><time>2026-05-02T16:31:40.28Z</time></trkpt><trkpt lat="42.3097667" lon="13.300225"><ele>795.0</ele><time>2026-05-02T16:31:41.28Z</time></trkpt><trkpt lat="42.3098733" lon="13.3002017"><ele>798.25</ele><time>2026-05-02T16:31:42.28Z</time></trkpt><trkpt lat="42.3099717" lon="13.3001367"><ele>801.5</ele><time>2026-05-02T16:31:43.28Z</time></trkpt><trkpt lat="42.3100617" lon="13.300055"><ele>804.75</ele><time>2026-05-02T16:31:44.28Z</time></trkpt><trkpt lat="42.31016" lon="13.299935"><ele>808.0</ele><time>2026-05-02T16:31:45.281Z</time></trkpt><trkpt lat="42.3102333" lon="13.299805"><ele>807.0</ele><time>2026-05-02T16:31:46.28Z</time></trkpt><trkpt lat="42.3102867" lon="13.2996767"><ele>806.0</ele><time>2026-05-02T16:31:47.28Z</time></trkpt><trkpt lat="42.3103483" lon="13.299545"><ele>805.0</ele><time>2026-05-02T16:31:48.28Z</time></trkpt><trkpt lat="42.3104267" lon="13.29943"><ele>804.0</ele><time>2026-05-02T16:31:49.28Z</time></trkpt><trkpt lat="42.310515" lon="13.29932"><ele>805.5</ele><time>2026-05-02T16:31:50.28Z</time></trkpt><trkpt lat="42.3106117" lon="13.2992183"><ele>807.0</ele><time>2026-05-02T16:31:51.28Z</time></trkpt><trkpt lat="42.3107383" lon="13.29912"><ele>808.5</ele><time>2026-05-02T16:31:52.28Z</time></trkpt><trkpt lat="42.3108617" lon="13.2990233"><ele>810.0</ele><time>2026-05-02T16:31:53.28Z</time></trkpt><trkpt lat="42.31099" lon="13.298925"><ele>810.0</ele><time>2026-05-02T16:31:54.28Z</time></trkpt><trkpt lat="42.3111083" lon="13.2988183"><ele>810.0</ele><time>2026-05-02T16:31:55.28Z</time></trkpt><trkpt lat="42.3112267" lon="13.2987233"><ele>810.0</ele><time>2026-05-02T16:31:56.28Z</time></trkpt><trkpt lat="42.3113517" lon="13.2986217"><ele>810.0</ele><time>2026-05-02T16:31:57.28Z</time></trkpt><trkpt lat="42.3114767" lon="13.2985217"><ele>810.5</ele><time>2026-05-02T16:31:58.281Z</time></trkpt><trkpt lat="42.31159" lon="13.298455"><ele>811.0</ele><time>2026-05-02T16:31:59.28Z</time></trkpt><trkpt lat="42.3117133" lon="13.2984117"><ele>811.5</ele><time>2026-05-02T16:32:00.28Z</time></trkpt><trkpt lat="42.3118367" lon="13.2983433"><ele>812.0</ele><time>2026-05-02T16:32:01.28Z</time></trkpt><trkpt lat="42.31195" lon="13.2982933"><ele>812.0</ele><time>2026-05-02T16:32:02.28Z</time></trkpt><trkpt lat="42.3120783" lon="13.2982533"><ele>812.0</ele><time>2026-05-02T16:32:03.28Z</time></trkpt><trkpt lat="42.3121933" lon="13.2982117"><ele>812.0</ele><time>2026-05-02T16:32:04.28Z</time></trkpt><trkpt lat="42.31232" lon="13.2981833"><ele>812.0</ele><time>2026-05-02T16:32:05.28Z</time></trkpt><trkpt lat="42.3124417" lon="13.298165"><ele>811.8333333333334</ele><time>2026-05-02T16:32:06.281Z</time></trkpt><trkpt lat="42.3125483" lon="13.2981483"><ele>811.6666666666667</ele><time>2026-05-02T16:32:07.28Z</time></trkpt><trkpt lat="42.312645" lon="13.298135"><ele>811.5</ele><time>2026-05-02T16:32:08.28Z</time></trkpt><trkpt lat="42.3127283" lon="13.2981217"><ele>811.3333333333333</ele><time>2026-05-02T16:32:09.28Z</time></trkpt><trkpt lat="42.312815" lon="13.2981083"><ele>811.1666666666666</ele><time>2026-05-02T16:32:10.28Z</time></trkpt><trkpt lat="42.312885" lon="13.298105"><ele>811.0</ele><time>2026-05-02T16:32:11.28Z</time></trkpt><trkpt lat="42.3129783" lon="13.2980933"><ele>810.8571428571428</ele><time>2026-05-02T16:32:13.28Z</time></trkpt><trkpt lat="42.313045" lon="13.2980733"><ele>810.7142857142858</ele><time>2026-05-02T16:32:14.28Z</time></trkpt><trkpt lat="42.31313" lon="13.29805"><ele>810.5714285714286</ele><time>2026-05-02T16:32:15.28Z</time></trkpt><trkpt lat="42.3131933" lon="13.2980333"><ele>810.4285714285713</ele><time>2026-05-02T16:32:16.28Z</time></trkpt><trkpt lat="42.3132567" lon="13.2980067"><ele>810.2857142857142</ele><time>2026-05-02T16:32:17.28Z</time></trkpt><trkpt lat="42.3133367" lon="13.2979833"><ele>810.1428571428571</ele><time>2026-05-02T16:32:18.28Z</time></trkpt><trkpt lat="42.3134067" lon="13.2979433"><ele>810.0</ele><time>2026-05-02T16:32:19.28Z</time></trkpt><trkpt lat="42.3134783" lon="13.2979083"><ele>809.6</ele><time>2026-05-02T16:32:20.28Z</time></trkpt><trkpt lat="42.3136083" lon="13.2978"><ele>809.2</ele><time>2026-05-02T16:32:22.281Z</time></trkpt><trkpt lat="42.31367" lon="13.2977517"><ele>808.8</ele><time>2026-05-02T16:32:23.28Z</time></trkpt><trkpt lat="42.31377" lon="13.297685"><ele>808.4</ele><time>2026-05-02T16:32:25.28Z</time></trkpt><trkpt lat="42.3138517" lon="13.29765"><ele>808.0</ele><time>2026-05-02T16:32:26.28Z</time></trkpt><trkpt lat="42.3139233" lon="13.2976367"><ele>807.4</ele><time>2026-05-02T16:32:27.28Z</time></trkpt><trkpt lat="42.3140033" lon="13.29761"><ele>806.8</ele><time>2026-05-02T16:32:28.28Z</time></trkpt><trkpt lat="42.3140767" lon="13.297615"><ele>806.2</ele><time>2026-05-02T16:32:29.281Z</time></trkpt><trkpt lat="42.3141517" lon="13.2976483"><ele>805.6</ele><time>2026-05-02T16:32:30.28Z</time></trkpt><trkpt lat="42.3142533" lon="13.2976933"><ele>805.0</ele><time>2026-05-02T16:32:32.28Z</time></trkpt><trkpt lat="42.3143717" lon="13.297735"><ele>805.0</ele><time>2026-05-02T16:32:34.28Z</time></trkpt><trkpt lat="42.3144767" lon="13.2977567"><ele>805.0</ele><time>2026-05-02T16:32:36.28Z</time></trkpt><trkpt lat="42.3143767" lon="13.297695"><ele>805.0</ele><time>2026-05-02T16:32:45.28Z</time></trkpt><trkpt lat="42.3142917" lon="13.29768"><ele>805.0</ele><time>2026-05-02T16:32:46.28Z</time></trkpt><trkpt lat="42.31422" lon="13.2976517"><ele>805.0</ele><time>2026-05-02T16:32:47.28Z</time></trkpt><trkpt lat="42.314125" lon="13.29766"><ele>805.0</ele><time>2026-05-02T16:32:49.28Z</time></trkpt><trkpt lat="42.3141133" lon="13.2977733"><ele>805.0</ele><time>2026-05-02T16:32:51.281Z</time></trkpt><trkpt lat="42.3141217" lon="13.2978617"><ele>805.0</ele><time>2026-05-02T16:32:52.28Z</time></trkpt><trkpt lat="42.314145" lon="13.29798"><ele>805.0</ele><time>2026-05-02T16:32:53.28Z</time></trkpt><trkpt lat="42.3141633" lon="13.2981583"><ele>805.0</ele><time>2026-05-02T16:32:54.28Z</time></trkpt><trkpt lat="42.314195" lon="13.298335"><ele>805.0</ele><time>2026-05-02T16:32:55.28Z</time></trkpt><trkpt lat="42.3142283" lon="13.2985083"><ele>805.0</ele><time>2026-05-02T16:32:56.28Z</time></trkpt><trkpt lat="42.31426" lon="13.29866"><ele>805.0</ele><time>2026-05-02T16:32:57.28Z</time></trkpt><trkpt lat="42.3142817" lon="13.2988183"><ele>805.0</ele><time>2026-05-02T16:32:58.28Z</time></trkpt><trkpt lat="42.3143" lon="13.2989567"><ele>804.1666666666666</ele><time>2026-05-02T16:32:59.28Z</time></trkpt><trkpt lat="42.31432" lon="13.2990833"><ele>803.3333333333333</ele><time>2026-05-02T16:33:00.28Z</time></trkpt><trkpt lat="42.314365" lon="13.2991767"><ele>802.5</ele><time>2026-05-02T16:33:01.281Z</time></trkpt><trkpt lat="42.314415" lon="13.2992533"><ele>801.6666666666667</ele><time>2026-05-02T16:33:02.28Z</time></trkpt><trkpt lat="42.314485" lon="13.299325"><ele>800.8333333333334</ele><time>2026-05-02T16:33:03.28Z</time></trkpt><trkpt lat="42.3145733" lon="13.2993733"><ele>800.0</ele><time>2026-05-02T16:33:04.28Z</time></trkpt><trkpt lat="42.31468" lon="13.299395"><ele>798.0</ele><time>2026-05-02T16:33:05.28Z</time></trkpt><trkpt lat="42.314805" lon="13.29941"><ele>796.0</ele><time>2026-05-02T16:33:06.28Z</time></trkpt><trkpt lat="42.3149317" lon="13.299425"><ele>794.0</ele><time>2026-05-02T16:33:07.28Z</time></trkpt><trkpt lat="42.3150633" lon="13.29943"><ele>792.0</ele><time>2026-05-02T16:33:08.281Z</time></trkpt><trkpt lat="42.31519" lon="13.2994333"><ele>792.0</ele><time>2026-05-02T16:33:09.28Z</time></trkpt><trkpt lat="42.3153067" lon="13.2994367"><ele>792.0</ele><time>2026-05-02T16:33:10.28Z</time></trkpt><trkpt lat="42.3154233" lon="13.299445"><ele>792.0</ele><time>2026-05-02T16:33:11.28Z</time></trkpt><trkpt lat="42.3155333" lon="13.299475"><ele>792.0</ele><time>2026-05-02T16:33:12.28Z</time></trkpt><trkpt lat="42.3156467" lon="13.299525"><ele>791.0</ele><time>2026-05-02T16:33:13.28Z</time></trkpt><trkpt lat="42.3157483" lon="13.299605"><ele>790.0</ele><time>2026-05-02T16:33:14.28Z</time></trkpt><trkpt lat="42.3158517" lon="13.2997067"><ele>789.0</ele><time>2026-05-02T16:33:15.28Z</time></trkpt><trkpt lat="42.315965" lon="13.299805"><ele>788.0</ele><time>2026-05-02T16:33:16.28Z</time></trkpt><trkpt lat="42.3161117" lon="13.2998967"><ele>788.0</ele><time>2026-05-02T16:33:17.28Z</time></trkpt><trkpt lat="42.316275" lon="13.2999533"><ele>788.0</ele><time>2026-05-02T16:33:18.28Z</time></trkpt><trkpt lat="42.3164333" lon="13.2999717"><ele>788.0</ele><time>2026-05-02T16:33:19.28Z</time></trkpt><trkpt lat="42.316635" lon="13.2999517"><ele>789.0</ele><time>2026-05-02T16:33:20.28Z</time></trkpt><trkpt lat="42.3168467" lon="13.299945"><ele>790.0</ele><time>2026-05-02T16:33:21.28Z</time></trkpt><trkpt lat="42.3170467" lon="13.29994"><ele>791.0</ele><time>2026-05-02T16:33:22.28Z</time></trkpt><trkpt lat="42.3172383" lon="13.2999533"><ele>791.6666666666667</ele><time>2026-05-02T16:33:23.28Z</time></trkpt><trkpt lat="42.3174183" lon="13.29997"><ele>792.3333333333333</ele><time>2026-05-02T16:33:24.28Z</time></trkpt><trkpt lat="42.3175733" lon="13.2999867"><ele>793.0</ele><time>2026-05-02T16:33:25.28Z</time></trkpt><trkpt lat="42.3176917" lon="13.3000067"><ele>793.0</ele><time>2026-05-02T16:33:26.28Z</time></trkpt><trkpt lat="42.3177983" lon="13.30004"><ele>793.0</ele><time>2026-05-02T16:33:27.28Z</time></trkpt><trkpt lat="42.3178733" lon="13.3001033"><ele>793.0</ele><time>2026-05-02T16:33:28.28Z</time></trkpt><trkpt lat="42.3179367" lon="13.3002033"><ele>793.0</ele><time>2026-05-02T16:33:29.28Z</time></trkpt><trkpt lat="42.3180117" lon="13.3003217"><ele>793.0</ele><time>2026-05-02T16:33:30.28Z</time></trkpt><trkpt lat="42.31809" lon="13.3004783"><ele>797.0</ele><time>2026-05-02T16:33:31.28Z</time></trkpt><trkpt lat="42.3182" lon="13.30064"><ele>801.0</ele><time>2026-05-02T16:33:32.28Z</time></trkpt><trkpt lat="42.3183217" lon="13.30078"><ele>805.0</ele><time>2026-05-02T16:33:33.28Z</time></trkpt><trkpt lat="42.3184483" lon="13.3008983"><ele>805.0</ele><time>2026-05-02T16:33:34.281Z</time></trkpt><trkpt lat="42.318575" lon="13.3009883"><ele>805.0</ele><time>2026-05-02T16:33:35.28Z</time></trkpt><trkpt lat="42.318685" lon="13.3010517"><ele>805.0</ele><time>2026-05-02T16:33:36.28Z</time></trkpt><trkpt lat="42.318775" lon="13.3011"><ele>805.0</ele><time>2026-05-02T16:33:37.28Z</time></trkpt><trkpt lat="42.3188383" lon="13.3011283"><ele>805.0</ele><time>2026-05-02T16:33:38.28Z</time></trkpt><trkpt lat="42.3188883" lon="13.3011983"><ele>804.9999999999999</ele><time>2026-05-02T16:33:40.28Z</time></trkpt><trkpt lat="42.318895" lon="13.3013383"><ele>805.0</ele><time>2026-05-02T16:33:42.28Z</time></trkpt><trkpt lat="42.3188767" lon="13.3014217"><ele>805.0</ele><time>2026-05-02T16:33:43.28Z</time></trkpt><trkpt lat="42.3188483" lon="13.3015067"><ele>805.0</ele><time>2026-05-02T16:33:44.28Z</time></trkpt><trkpt lat="42.31881" lon="13.3015917"><ele>804.9999999999999</ele><time>2026-05-02T16:33:45.28Z</time></trkpt><trkpt lat="42.31876" lon="13.3016767"><ele>805.0</ele><time>2026-05-02T16:33:46.28Z</time></trkpt><trkpt lat="42.318705" lon="13.3017733"><ele>805.4</ele><time>2026-05-02T16:33:47.28Z</time></trkpt><trkpt lat="42.318655" lon="13.3018783"><ele>805.8</ele><time>2026-05-02T16:33:48.28Z</time></trkpt><trkpt lat="42.3186033" lon="13.30199"><ele>806.2</ele><time>2026-05-02T16:33:49.28Z</time></trkpt><trkpt lat="42.3185533" lon="13.3021183"><ele>806.6</ele><time>2026-05-02T16:33:50.28Z</time></trkpt><trkpt lat="42.3184983" lon="13.3022467"><ele>807.0</ele><time>2026-05-02T16:33:51.28Z</time></trkpt><trkpt lat="42.3184367" lon="13.3023667"><ele>807.0</ele><time>2026-05-02T16:33:52.28Z</time></trkpt><trkpt lat="42.3183833" lon="13.3024833"><ele>807.0</ele><time>2026-05-02T16:33:53.28Z</time></trkpt><trkpt lat="42.3183317" lon="13.3025933"><ele>807.0</ele><time>2026-05-02T16:33:54.28Z</time></trkpt><trkpt lat="42.318275" lon="13.30273"><ele>807.0</ele><time>2026-05-02T16:33:55.28Z</time></trkpt><trkpt lat="42.3182283" lon="13.3028633"><ele>807.0</ele><time>2026-05-02T16:33:56.28Z</time></trkpt><trkpt lat="42.318185" lon="13.303015"><ele>806.5</ele><time>2026-05-02T16:33:57.28Z</time></trkpt><trkpt lat="42.318145" lon="13.3031817"><ele>806.0</ele><time>2026-05-02T16:33:58.28Z</time></trkpt><trkpt lat="42.3181017" lon="13.3033467"><ele>805.5</ele><time>2026-05-02T16:33:59.28Z</time></trkpt><trkpt lat="42.31806" lon="13.3035033"><ele>805.0</ele><time>2026-05-02T16:34:00.28Z</time></trkpt><trkpt lat="42.3180133" lon="13.3036233"><ele>807.8</ele><time>2026-05-02T16:34:01.28Z</time></trkpt><trkpt lat="42.3179783" lon="13.3037467"><ele>810.6</ele><time>2026-05-02T16:34:02.28Z</time></trkpt><trkpt lat="42.3179383" lon="13.3038783"><ele>813.4000000000001</ele><time>2026-05-02T16:34:03.281Z</time></trkpt><trkpt lat="42.3179" lon="13.304025"><ele>816.2</ele><time>2026-05-02T16:34:04.28Z</time></trkpt><trkpt lat="42.31785" lon="13.3041867"><ele>819.0</ele><time>2026-05-02T16:34:05.28Z</time></trkpt><trkpt lat="42.3177867" lon="13.3043517"><ele>819.0</ele><time>2026-05-02T16:34:06.281Z</time></trkpt><trkpt lat="42.3177283" lon="13.304505"><ele>819.0</ele><time>2026-05-02T16:34:07.28Z</time></trkpt><trkpt lat="42.3176633" lon="13.3046483"><ele>819.0</ele><time>2026-05-02T16:34:08.281Z</time></trkpt><trkpt lat="42.317605" lon="13.3047733"><ele>819.0</ele><time>2026-05-02T16:34:09.28Z</time></trkpt><trkpt lat="42.317555" lon="13.3048883"><ele>818.2</ele><time>2026-05-02T16:34:10.28Z</time></trkpt><trkpt lat="42.3175033" lon="13.30499"><ele>817.4000000000001</ele><time>2026-05-02T16:34:11.28Z</time></trkpt><trkpt lat="42.3174433" lon="13.3050983"><ele>816.6</ele><time>2026-05-02T16:34:12.28Z</time></trkpt><trkpt lat="42.3173867" lon="13.305205"><ele>815.8</ele><time>2026-05-02T16:34:13.28Z</time></trkpt><trkpt lat="42.3173367" lon="13.30532"><ele>815.0</ele><time>2026-05-02T16:34:14.28Z</time></trkpt><trkpt lat="42.317285" lon="13.3054233"><ele>815.0</ele><time>2026-05-02T16:34:15.28Z</time></trkpt><trkpt lat="42.3172467" lon="13.3055283"><ele>815.0</ele><time>2026-05-02T16:34:16.28Z</time></trkpt><trkpt lat="42.3172083" lon="13.3056383"><ele>815.0</ele><time>2026-05-02T16:34:17.28Z</time></trkpt><trkpt lat="42.3171867" lon="13.3057617"><ele>815.0</ele><time>2026-05-02T16:34:18.28Z</time></trkpt><trkpt lat="42.3171717" lon="13.3059"><ele>815.0</ele><time>2026-05-02T16:34:19.28Z</time></trkpt><trkpt lat="42.3171567" lon="13.306045"><ele>816.25</ele><time>2026-05-02T16:34:20.28Z</time></trkpt><trkpt lat="42.31714" lon="13.30619"><ele>817.5</ele><time>2026-05-02T16:34:21.28Z</time></trkpt><trkpt lat="42.317125" lon="13.306355"><ele>818.75</ele><time>2026-05-02T16:34:22.281Z</time></trkpt><trkpt lat="42.317115" lon="13.30654"><ele>820.0</ele><time>2026-05-02T16:34:23.281Z</time></trkpt><trkpt lat="42.3170917" lon="13.3067367"><ele>820.0</ele><time>2026-05-02T16:34:24.28Z</time></trkpt><trkpt lat="42.31708" lon="13.3069017"><ele>820.0</ele><time>2026-05-02T16:34:25.28Z</time></trkpt><trkpt lat="42.317055" lon="13.3070717"><ele>820.0</ele><time>2026-05-02T16:34:26.28Z</time></trkpt><trkpt lat="42.3170367" lon="13.3072267"><ele>820.0</ele><time>2026-05-02T16:34:27.28Z</time></trkpt><trkpt lat="42.3170083" lon="13.3073917"><ele>820.6</ele><time>2026-05-02T16:34:28.28Z</time></trkpt><trkpt lat="42.3169833" lon="13.3075367"><ele>821.2</ele><time>2026-05-02T16:34:29.28Z</time></trkpt><trkpt lat="42.31695" lon="13.30768"><ele>821.8</ele><time>2026-05-02T16:34:30.28Z</time></trkpt><trkpt lat="42.316925" lon="13.3078117"><ele>822.4</ele><time>2026-05-02T16:34:31.28Z</time></trkpt><trkpt lat="42.3168867" lon="13.3079233"><ele>823.0</ele><time>2026-05-02T16:34:32.28Z</time></trkpt><trkpt lat="42.3168383" lon="13.3080383"><ele>822.5999999999999</ele><time>2026-05-02T16:34:33.28Z</time></trkpt><trkpt lat="42.31678" lon="13.308155"><ele>822.1999999999999</ele><time>2026-05-02T16:34:34.28Z</time></trkpt><trkpt lat="42.3167217" lon="13.3082767"><ele>821.8</ele><time>2026-05-02T16:34:35.28Z</time></trkpt><trkpt lat="42.3166583" lon="13.308385"><ele>821.4</ele><time>2026-05-02T16:34:36.28Z</time></trkpt><trkpt lat="42.3165967" lon="13.3084733"><ele>821.0</ele><time>2026-05-02T16:34:37.28Z</time></trkpt><trkpt lat="42.3165467" lon="13.308565"><ele>821.0</ele><time>2026-05-02T16:34:38.28Z</time></trkpt><trkpt lat="42.3164983" lon="13.308665"><ele>821.0</ele><time>2026-05-02T16:34:39.28Z</time></trkpt><trkpt lat="42.316455" lon="13.3087783"><ele>821.0</ele><time>2026-05-02T16:34:40.28Z</time></trkpt><trkpt lat="42.3164183" lon="13.308895"><ele>821.0</ele><time>2026-05-02T16:34:41.28Z</time></trkpt><trkpt lat="42.3163783" lon="13.3090117"><ele>821.0</ele><time>2026-05-02T16:34:42.28Z</time></trkpt><trkpt lat="42.3163067" lon="13.3091217"><ele>821.4</ele><time>2026-05-02T16:34:43.28Z</time></trkpt><trkpt lat="42.3162433" lon="13.3092317"><ele>821.8</ele><time>2026-05-02T16:34:44.28Z</time></trkpt><trkpt lat="42.316185" lon="13.3093383"><ele>822.1999999999999</ele><time>2026-05-02T16:34:45.28Z</time></trkpt><trkpt lat="42.31612" lon="13.309435"><ele>822.5999999999999</ele><time>2026-05-02T16:34:46.28Z</time></trkpt><trkpt lat="42.3160533" lon="13.30953"><ele>823.0</ele><time>2026-05-02T16:34:47.28Z</time></trkpt><trkpt lat="42.31598" lon="13.30965"><ele>824.25</ele><time>2026-05-02T16:34:48.28Z</time></trkpt><trkpt lat="42.3159" lon="13.3097817"><ele>825.5</ele><time>2026-05-02T16:34:49.28Z</time></trkpt><trkpt lat="42.3158233" lon="13.3099233"><ele>826.75</ele><time>2026-05-02T16:34:50.28Z</time></trkpt><trkpt lat="42.315755" lon="13.31006"><ele>828.0</ele><time>2026-05-02T16:34:51.28Z</time></trkpt><trkpt lat="42.315695" lon="13.31019"><ele>828.0</ele><time>2026-05-02T16:34:52.281Z</time></trkpt><trkpt lat="42.3156333" lon="13.3102933"><ele>828.0</ele><time>2026-05-02T16:34:53.28Z</time></trkpt><trkpt lat="42.3155683" lon="13.31038"><ele>828.0</ele><time>2026-05-02T16:34:54.28Z</time></trkpt><trkpt lat="42.3155017" lon="13.3104933"><ele>828.0</ele><time>2026-05-02T16:34:55.28Z</time></trkpt><trkpt lat="42.3154467" lon="13.31057"><ele>828.0</ele><time>2026-05-02T16:34:56.28Z</time></trkpt><trkpt lat="42.3153967" lon="13.3106383"><ele>828.0</ele><time>2026-05-02T16:34:57.28Z</time></trkpt><trkpt lat="42.3153483" lon="13.3107183"><ele>829.1666666666666</ele><time>2026-05-02T16:34:58.28Z</time></trkpt><trkpt lat="42.3153017" lon="13.3107867"><ele>830.3333333333333</ele><time>2026-05-02T16:34:59.28Z</time></trkpt><trkpt lat="42.3152533" lon="13.3108617"><ele>831.5</ele><time>2026-05-02T16:35:00.28Z</time></trkpt><trkpt lat="42.3151933" lon="13.3109283"><ele>832.6666666666666</ele><time>2026-05-02T16:35:01.28Z</time></trkpt><trkpt lat="42.315125" lon="13.3109933"><ele>833.8333333333333</ele><time>2026-05-02T16:35:02.28Z</time></trkpt><trkpt lat="42.3150583" lon="13.3110683"><ele>835.0</ele><time>2026-05-02T16:35:03.28Z</time></trkpt><trkpt lat="42.31499" lon="13.31112"><ele>834.9999999999999</ele><time>2026-05-02T16:35:04.28Z</time></trkpt><trkpt lat="42.3148867" lon="13.3111767"><ele>835.0</ele><time>2026-05-02T16:35:06.28Z</time></trkpt><trkpt lat="42.314825" lon="13.3112333"><ele>835.0</ele><time>2026-05-02T16:35:09.28Z</time></trkpt><trkpt lat="42.3148033" lon="13.3113633"><ele>835.0</ele><time>2026-05-02T16:35:11.28Z</time></trkpt><trkpt lat="42.3148283" lon="13.3114683"><ele>834.9999999999999</ele><time>2026-05-02T16:35:13.28Z</time></trkpt><trkpt lat="42.3148683" lon="13.311535"><ele>835.0</ele><time>2026-05-02T16:35:15.28Z</time></trkpt><trkpt lat="42.3149533" lon="13.3115933"><ele>833.8333333333333</ele><time>2026-05-02T16:35:17.28Z</time></trkpt><trkpt lat="42.315005" lon="13.31165"><ele>832.6666666666666</ele><time>2026-05-02T16:35:18.28Z</time></trkpt><trkpt lat="42.3150567" lon="13.31171"><ele>831.5</ele><time>2026-05-02T16:35:19.28Z</time></trkpt><trkpt lat="42.3151083" lon="13.311785"><ele>830.3333333333333</ele><time>2026-05-02T16:35:20.28Z</time></trkpt><trkpt lat="42.315145" lon="13.3118583"><ele>829.1666666666666</ele><time>2026-05-02T16:35:21.28Z</time></trkpt><trkpt lat="42.315235" lon="13.3119767"><ele>828.0</ele><time>2026-05-02T16:35:23.28Z</time></trkpt><trkpt lat="42.3153183" lon="13.31212"><ele>828.0</ele><time>2026-05-02T16:35:25.28Z</time></trkpt><trkpt lat="42.31538" lon="13.312205"><ele>828.0</ele><time>2026-05-02T16:35:26.28Z</time></trkpt><trkpt lat="42.3154383" lon="13.3123067"><ele>828.0</ele><time>2026-05-02T16:35:27.28Z</time></trkpt><trkpt lat="42.3154883" lon="13.3123833"><ele>828.0</ele><time>2026-05-02T16:35:28.28Z</time></trkpt><trkpt lat="42.315535" lon="13.3124533"><ele>828.0</ele><time>2026-05-02T16:35:29.281Z</time></trkpt><trkpt lat="42.3156133" lon="13.3125167"><ele>828.0</ele><time>2026-05-02T16:35:31.281Z</time></trkpt><trkpt lat="42.31572" lon="13.3125283"><ele>828.8</ele><time>2026-05-02T16:35:33.28Z</time></trkpt><trkpt lat="42.3157967" lon="13.3125167"><ele>829.5999999999999</ele><time>2026-05-02T16:35:34.28Z</time></trkpt><trkpt lat="42.315875" lon="13.3125183"><ele>830.4000000000001</ele><time>2026-05-02T16:35:35.28Z</time></trkpt><trkpt lat="42.3159783" lon="13.3125483"><ele>831.2</ele><time>2026-05-02T16:35:37.28Z</time></trkpt><trkpt lat="42.316085" lon="13.3126217"><ele>832.0</ele><time>2026-05-02T16:35:39.28Z</time></trkpt><trkpt lat="42.3161833" lon="13.3126967"><ele>831.9999999999999</ele><time>2026-05-02T16:35:41.28Z</time></trkpt><trkpt lat="42.3162517" lon="13.31274"><ele>832.0</ele><time>2026-05-02T16:35:42.28Z</time></trkpt><trkpt lat="42.3163267" lon="13.3127883"><ele>832.0</ele><time>2026-05-02T16:35:43.28Z</time></trkpt><trkpt lat="42.3164" lon="13.3128433"><ele>832.0</ele><time>2026-05-02T16:35:44.28Z</time></trkpt><trkpt lat="42.3164767" lon="13.3128867"><ele>831.9999999999999</ele><time>2026-05-02T16:35:45.28Z</time></trkpt><trkpt lat="42.3165467" lon="13.3129283"><ele>832.0</ele><time>2026-05-02T16:35:46.28Z</time></trkpt><trkpt lat="42.3166317" lon="13.3129717"><ele>834.0</ele><time>2026-05-02T16:35:47.28Z</time></trkpt><trkpt lat="42.31671" lon="13.3130167"><ele>836.0</ele><time>2026-05-02T16:35:48.28Z</time></trkpt><trkpt lat="42.3167833" lon="13.3130767"><ele>838.0</ele><time>2026-05-02T16:35:49.28Z</time></trkpt><trkpt lat="42.316875" lon="13.31312"><ele>840.0</ele><time>2026-05-02T16:35:50.28Z</time></trkpt><trkpt lat="42.3169533" lon="13.3131567"><ele>842.0</ele><time>2026-05-02T16:35:51.28Z</time></trkpt><trkpt lat="42.3170967" lon="13.313165"><ele>843.0000000000001</ele><time>2026-05-02T16:35:53.28Z</time></trkpt><trkpt lat="42.3171783" lon="13.3131417"><ele>844.0</ele><time>2026-05-02T16:35:54.28Z</time></trkpt><trkpt lat="42.3172817" lon="13.3131683"><ele>845.0</ele><time>2026-05-02T16:35:56.28Z</time></trkpt><trkpt lat="42.31737" lon="13.3132617"><ele>846.0</ele><time>2026-05-02T16:35:58.281Z</time></trkpt><trkpt lat="42.31742" lon="13.3133283"><ele>847.0000000000001</ele><time>2026-05-02T16:35:59.28Z</time></trkpt><trkpt lat="42.31747" lon="13.3133933"><ele>848.0</ele><time>2026-05-02T16:36:00.28Z</time></trkpt><trkpt lat="42.3175183" lon="13.313455"><ele>848.8333333333334</ele><time>2026-05-02T16:36:01.28Z</time></trkpt><trkpt lat="42.3175717" lon="13.3135267"><ele>849.6666666666667</ele><time>2026-05-02T16:36:02.281Z</time></trkpt><trkpt lat="42.3176367" lon="13.313605"><ele>850.5</ele><time>2026-05-02T16:36:03.28Z</time></trkpt><trkpt lat="42.3177067" lon="13.3136817"><ele>851.3333333333333</ele><time>2026-05-02T16:36:04.28Z</time></trkpt><trkpt lat="42.3177817" lon="13.3137617"><ele>852.1666666666666</ele><time>2026-05-02T16:36:05.28Z</time></trkpt><trkpt lat="42.317855" lon="13.3138267"><ele>853.0</ele><time>2026-05-02T16:36:06.28Z</time></trkpt><trkpt lat="42.3179167" lon="13.313895"><ele>853.5999999999999</ele><time>2026-05-02T16:36:07.28Z</time></trkpt><trkpt lat="42.3179833" lon="13.3139617"><ele>854.1999999999999</ele><time>2026-05-02T16:36:08.281Z</time></trkpt><trkpt lat="42.31806" lon="13.314"><ele>854.8</ele><time>2026-05-02T16:36:09.28Z</time></trkpt><trkpt lat="42.3181667" lon="13.3140483"><ele>855.4</ele><time>2026-05-02T16:36:11.28Z</time></trkpt><trkpt lat="42.3182367" lon="13.3140833"><ele>856.0</ele><time>2026-05-02T16:36:13.28Z</time></trkpt><trkpt lat="42.31834" lon="13.3140633"><ele>855.9999999999999</ele><time>2026-05-02T16:36:17.28Z</time></trkpt><trkpt lat="42.3184067" lon="13.31402"><ele>856.0</ele><time>2026-05-02T16:36:18.28Z</time></trkpt><trkpt lat="42.31848" lon="13.31395"><ele>856.0</ele><time>2026-05-02T16:36:19.28Z</time></trkpt><trkpt lat="42.3185383" lon="13.3138683"><ele>856.0</ele><time>2026-05-02T16:36:20.28Z</time></trkpt><trkpt lat="42.318595" lon="13.3137983"><ele>855.9999999999999</ele><time>2026-05-02T16:36:21.28Z</time></trkpt><trkpt lat="42.3186467" lon="13.3137433"><ele>856.0</ele><time>2026-05-02T16:36:22.28Z</time></trkpt><trkpt lat="42.3187083" lon="13.313715"><ele>855.1999999999999</ele><time>2026-05-02T16:36:23.28Z</time></trkpt><trkpt lat="42.31883" lon="13.3137583"><ele>854.3999999999999</ele><time>2026-05-02T16:36:25.28Z</time></trkpt><trkpt lat="42.3189" lon="13.3138133"><ele>853.6</ele><time>2026-05-02T16:36:26.28Z</time></trkpt><trkpt lat="42.318985" lon="13.3138817"><ele>852.8</ele><time>2026-05-02T16:36:27.28Z</time></trkpt><trkpt lat="42.3190667" lon="13.3139517"><ele>852.0</ele><time>2026-05-02T16:36:28.28Z</time></trkpt><trkpt lat="42.3191533" lon="13.3140233"><ele>851.1666666666666</ele><time>2026-05-02T16:36:29.28Z</time></trkpt><trkpt lat="42.319225" lon="13.3140867"><ele>850.3333333333333</ele><time>2026-05-02T16:36:30.28Z</time></trkpt><trkpt lat="42.3192983" lon="13.3141483"><ele>849.5</ele><time>2026-05-02T16:36:31.281Z</time></trkpt><trkpt lat="42.3193633" lon="13.314215"><ele>848.6666666666666</ele><time>2026-05-02T16:36:32.28Z</time></trkpt><trkpt lat="42.31944" lon="13.314275"><ele>847.8333333333333</ele><time>2026-05-02T16:36:33.28Z</time></trkpt><trkpt lat="42.31951" lon="13.314325"><ele>847.0</ele><time>2026-05-02T16:36:34.28Z</time></trkpt><trkpt lat="42.3195867" lon="13.3143883"><ele>847.0</ele><time>2026-05-02T16:36:35.28Z</time></trkpt><trkpt lat="42.3196817" lon="13.31446"><ele>847.0</ele><time>2026-05-02T16:36:36.28Z</time></trkpt><trkpt lat="42.319795" lon="13.314555"><ele>847.0</ele><time>2026-05-02T16:36:37.28Z</time></trkpt><trkpt lat="42.3199183" lon="13.3146567"><ele>847.0</ele><time>2026-05-02T16:36:38.28Z</time></trkpt><trkpt lat="42.3200367" lon="13.31475"><ele>845.4999999999999</ele><time>2026-05-02T16:36:39.28Z</time></trkpt><trkpt lat="42.3201333" lon="13.3148317"><ele>844.0</ele><time>2026-05-02T16:36:40.28Z</time></trkpt><trkpt lat="42.3202183" lon="13.31491"><ele>842.5</ele><time>2026-05-02T16:36:41.28Z</time></trkpt><trkpt lat="42.3202833" lon="13.3149617"><ele>841.0</ele><time>2026-05-02T16:36:42.281Z</time></trkpt><trkpt lat="42.3203467" lon="13.3150167"><ele>839.4999999999999</ele><time>2026-05-02T16:36:43.28Z</time></trkpt><trkpt lat="42.32039" lon="13.315085"><ele>838.0</ele><time>2026-05-02T16:36:44.28Z</time></trkpt><trkpt lat="42.3204217" lon="13.3151617"><ele>838.0</ele><time>2026-05-02T16:36:45.28Z</time></trkpt><trkpt lat="42.320435" lon="13.315255"><ele>838.0</ele><time>2026-05-02T16:36:46.28Z</time></trkpt><trkpt lat="42.32043" lon="13.31534"><ele>838.0</ele><time>2026-05-02T16:36:47.28Z</time></trkpt><trkpt lat="42.320415" lon="13.3154717"><ele>838.0</ele><time>2026-05-02T16:36:49.281Z</time></trkpt><trkpt lat="42.3204617" lon="13.315585"><ele>838.0</ele><time>2026-05-02T16:36:51.28Z</time></trkpt><trkpt lat="42.320565" lon="13.3156733"><ele>836.2</ele><time>2026-05-02T16:36:53.28Z</time></trkpt><trkpt lat="42.320625" lon="13.31571"><ele>834.4</ele><time>2026-05-02T16:36:54.28Z</time></trkpt><trkpt lat="42.3207017" lon="13.3157883"><ele>832.6</ele><time>2026-05-02T16:36:56.28Z</time></trkpt><trkpt lat="42.3207467" lon="13.3159183"><ele>830.8000000000001</ele><time>2026-05-02T16:36:58.28Z</time></trkpt><trkpt lat="42.3208283" lon="13.3160317"><ele>829.0</ele><time>2026-05-02T16:37:00.28Z</time></trkpt><trkpt lat="42.3209267" lon="13.31607"><ele>828.9999999999999</ele><time>2026-05-02T16:37:02.28Z</time></trkpt><trkpt lat="42.3209967" lon="13.3160717"><ele>829.0</ele><time>2026-05-02T16:37:03.28Z</time></trkpt><trkpt lat="42.32107" lon="13.3160733"><ele>829.0</ele><time>2026-05-02T16:37:04.28Z</time></trkpt><trkpt lat="42.32116" lon="13.3160667"><ele>829.0</ele><time>2026-05-02T16:37:05.28Z</time></trkpt><trkpt lat="42.32124" lon="13.3160633"><ele>828.9999999999999</ele><time>2026-05-02T16:37:06.28Z</time></trkpt><trkpt lat="42.3213067" lon="13.316065"><ele>829.0</ele><time>2026-05-02T16:37:07.28Z</time></trkpt><trkpt lat="42.3214117" lon="13.3160933"><ele>828.0</ele><time>2026-05-02T16:37:09.281Z</time></trkpt><trkpt lat="42.3215117" lon="13.3161483"><ele>827.0</ele><time>2026-05-02T16:37:11.28Z</time></trkpt><trkpt lat="42.321605" lon="13.3161867"><ele>826.0</ele><time>2026-05-02T16:37:13.28Z</time></trkpt><trkpt lat="42.321715" lon="13.316185"><ele>825.0</ele><time>2026-05-02T16:37:15.28Z</time></trkpt><trkpt lat="42.3217917" lon="13.3161883"><ele>824.0</ele><time>2026-05-02T16:37:16.281Z</time></trkpt><trkpt lat="42.32187" lon="13.3162133"><ele>824.0</ele><time>2026-05-02T16:37:17.28Z</time></trkpt><trkpt lat="42.32196" lon="13.316235"><ele>824.0</ele><time>2026-05-02T16:37:18.28Z</time></trkpt><trkpt lat="42.3220467" lon="13.3162717"><ele>824.0</ele><time>2026-05-02T16:37:19.28Z</time></trkpt><trkpt lat="42.32214" lon="13.3162983"><ele>824.0</ele><time>2026-05-02T16:37:20.28Z</time></trkpt><trkpt lat="42.3222317" lon="13.316335"><ele>824.0</ele><time>2026-05-02T16:37:21.28Z</time></trkpt><trkpt lat="42.322325" lon="13.3163767"><ele>823.1666666666667</ele><time>2026-05-02T16:37:22.281Z</time></trkpt><trkpt lat="42.3224" lon="13.31641"><ele>822.3333333333334</ele><time>2026-05-02T16:37:23.28Z</time></trkpt><trkpt lat="42.3224683" lon="13.316445"><ele>821.5</ele><time>2026-05-02T16:37:24.28Z</time></trkpt><trkpt lat="42.3225833" lon="13.3165083"><ele>820.6666666666667</ele><time>2026-05-02T16:37:26.28Z</time></trkpt><trkpt lat="42.32267" lon="13.3165617"><ele>819.8333333333334</ele><time>2026-05-02T16:37:28.28Z</time></trkpt><trkpt lat="42.3227383" lon="13.3165633"><ele>819.0</ele><time>2026-05-02T16:37:30.28Z</time></trkpt><trkpt lat="42.3227867" lon="13.3164833"><ele>818.0</ele><time>2026-05-02T16:37:32.28Z</time></trkpt><trkpt lat="42.322825" lon="13.316355"><ele>817.0</ele><time>2026-05-02T16:37:34.281Z</time></trkpt><trkpt lat="42.3228383" lon="13.3162667"><ele>816.0</ele><time>2026-05-02T16:37:35.28Z</time></trkpt><trkpt lat="42.322885" lon="13.31611"><ele>815.0</ele><time>2026-05-02T16:37:37.28Z</time></trkpt><trkpt lat="42.3229533" lon="13.3160133"><ele>814.0</ele><time>2026-05-02T16:37:39.28Z</time></trkpt><trkpt lat="42.3230483" lon="13.315995"><ele>812.6666666666666</ele><time>2026-05-02T16:37:41.28Z</time></trkpt><trkpt lat="42.3231233" lon="13.3160067"><ele>811.3333333333333</ele><time>2026-05-02T16:37:42.28Z</time></trkpt><trkpt lat="42.3231883" lon="13.3160383"><ele>810.0</ele><time>2026-05-02T16:37:43.28Z</time></trkpt><trkpt lat="42.3232717" lon="13.3160617"><ele>808.6666666666667</ele><time>2026-05-02T16:37:44.28Z</time></trkpt><trkpt lat="42.3233433" lon="13.316085"><ele>807.3333333333334</ele><time>2026-05-02T16:37:45.28Z</time></trkpt><trkpt lat="42.3234283" lon="13.3161133"><ele>806.0</ele><time>2026-05-02T16:37:46.28Z</time></trkpt><trkpt lat="42.323525" lon="13.316135"><ele>806.0</ele><time>2026-05-02T16:37:47.28Z</time></trkpt><trkpt lat="42.323615" lon="13.3161667"><ele>806.0</ele><time>2026-05-02T16:37:48.28Z</time></trkpt><trkpt lat="42.3237033" lon="13.3161917"><ele>806.0</ele><time>2026-05-02T16:37:49.28Z</time></trkpt><trkpt lat="42.3237967" lon="13.316225"><ele>806.0</ele><time>2026-05-02T16:37:50.28Z</time></trkpt><trkpt lat="42.32389" lon="13.3162517"><ele>806.0</ele><time>2026-05-02T16:37:51.28Z</time></trkpt><trkpt lat="42.323975" lon="13.3162867"><ele>806.6666666666667</ele><time>2026-05-02T16:37:52.28Z</time></trkpt><trkpt lat="42.3240583" lon="13.31632"><ele>807.3333333333334</ele><time>2026-05-02T16:37:53.28Z</time></trkpt><trkpt lat="42.324135" lon="13.3163567"><ele>808.0</ele><time>2026-05-02T16:37:54.28Z</time></trkpt><trkpt lat="42.3242217" lon="13.31639"><ele>808.6666666666667</ele><time>2026-05-02T16:37:55.28Z</time></trkpt><trkpt lat="42.3243067" lon="13.3164233"><ele>809.3333333333334</ele><time>2026-05-02T16:37:56.28Z</time></trkpt><trkpt lat="42.3243883" lon="13.3164617"><ele>810.0</ele><time>2026-05-02T16:37:57.28Z</time></trkpt><trkpt lat="42.3244467" lon="13.3165"><ele>810.0</ele><time>2026-05-02T16:37:58.28Z</time></trkpt><trkpt lat="42.324515" lon="13.3165167"><ele>810.0</ele><time>2026-05-02T16:37:59.28Z</time></trkpt><trkpt lat="42.3245967" lon="13.3165233"><ele>810.0</ele><time>2026-05-02T16:38:00.281Z</time></trkpt><trkpt lat="42.32467" lon="13.316535"><ele>810.0</ele><time>2026-05-02T16:38:01.281Z</time></trkpt><trkpt lat="42.3247483" lon="13.3165467"><ele>810.0</ele><time>2026-05-02T16:38:02.28Z</time></trkpt><trkpt lat="42.324835" lon="13.31656"><ele>810.0</ele><time>2026-05-02T16:38:03.28Z</time></trkpt><trkpt lat="42.3249217" lon="13.316565"><ele>809.4</ele><time>2026-05-02T16:38:04.28Z</time></trkpt><trkpt lat="42.32501" lon="13.31657"><ele>808.8</ele><time>2026-05-02T16:38:05.281Z</time></trkpt><trkpt lat="42.3251017" lon="13.3165667"><ele>808.2</ele><time>2026-05-02T16:38:06.28Z</time></trkpt><trkpt lat="42.32519" lon="13.31656"><ele>807.6</ele><time>2026-05-02T16:38:07.28Z</time></trkpt><trkpt lat="42.3252667" lon="13.316555"><ele>807.0</ele><time>2026-05-02T16:38:08.28Z</time></trkpt><trkpt lat="42.3253767" lon="13.3165183"><ele>807.0</ele><time>2026-05-02T16:38:10.28Z</time></trkpt><trkpt lat="42.3254367" lon="13.3164733"><ele>807.0</ele><time>2026-05-02T16:38:11.281Z</time></trkpt><trkpt lat="42.3255017" lon="13.316425"><ele>807.0</ele><time>2026-05-02T16:38:12.28Z</time></trkpt><trkpt lat="42.3255683" lon="13.3163733"><ele>807.0</ele><time>2026-05-02T16:38:13.28Z</time></trkpt><trkpt lat="42.3256383" lon="13.31631"><ele>807.0</ele><time>2026-05-02T16:38:14.28Z</time></trkpt><trkpt lat="42.3257133" lon="13.3162567"><ele>807.0</ele><time>2026-05-02T16:38:15.28Z</time></trkpt><trkpt lat="42.32579" lon="13.3162083"><ele>805.0</ele><time>2026-05-02T16:38:16.28Z</time></trkpt><trkpt lat="42.325865" lon="13.31616"><ele>803.0</ele><time>2026-05-02T16:38:17.275Z</time></trkpt><trkpt lat="42.325935" lon="13.316125"><ele>801.0</ele><time>2026-05-02T16:38:18.28Z</time></trkpt><trkpt lat="42.3260133" lon="13.3160883"><ele>799.0</ele><time>2026-05-02T16:38:19.28Z</time></trkpt><trkpt lat="42.3261033" lon="13.3160633"><ele>797.0</ele><time>2026-05-02T16:38:20.28Z</time></trkpt><trkpt lat="42.326185" lon="13.3160533"><ele>795.0</ele><time>2026-05-02T16:38:21.28Z</time></trkpt><trkpt lat="42.3262583" lon="13.31605"><ele>795.0</ele><time>2026-05-02T16:38:22.28Z</time></trkpt><trkpt lat="42.3263217" lon="13.3160467"><ele>795.0</ele><time>2026-05-02T16:38:23.28Z</time></trkpt><trkpt lat="42.3264333" lon="13.3160233"><ele>795.0</ele><time>2026-05-02T16:38:25.28Z</time></trkpt><trkpt lat="42.3265567" lon="13.3159567"><ele>795.0</ele><time>2026-05-02T16:38:27.28Z</time></trkpt><trkpt lat="42.3266183" lon="13.315925"><ele>795.0</ele><time>2026-05-02T16:38:28.28Z</time></trkpt><trkpt lat="42.3266917" lon="13.3159033"><ele>795.0</ele><time>2026-05-02T16:38:29.28Z</time></trkpt><trkpt lat="42.3267717" lon="13.3158967"><ele>795.0</ele><time>2026-05-02T16:38:30.28Z</time></trkpt><trkpt lat="42.326865" lon="13.315905"><ele>795.0</ele><time>2026-05-02T16:38:31.28Z</time></trkpt><trkpt lat="42.3269717" lon="13.31592"><ele>795.0</ele><time>2026-05-02T16:38:32.28Z</time></trkpt><trkpt lat="42.327075" lon="13.315925"><ele>795.0</ele><time>2026-05-02T16:38:33.28Z</time></trkpt><trkpt lat="42.32718" lon="13.3159317"><ele>794.2</ele><time>2026-05-02T16:38:34.281Z</time></trkpt><trkpt lat="42.3272667" lon="13.315945"><ele>793.4</ele><time>2026-05-02T16:38:35.28Z</time></trkpt><trkpt lat="42.3273617" lon="13.3159533"><ele>792.5999999999999</ele><time>2026-05-02T16:38:36.28Z</time></trkpt><trkpt lat="42.3274533" lon="13.31597"><ele>791.8</ele><time>2026-05-02T16:38:37.28Z</time></trkpt><trkpt lat="42.3275417" lon="13.3159817"><ele>791.0</ele><time>2026-05-02T16:38:38.28Z</time></trkpt><trkpt lat="42.32763" lon="13.3159817"><ele>791.0</ele><time>2026-05-02T16:38:39.28Z</time></trkpt><trkpt lat="42.3277133" lon="13.3159717"><ele>791.0</ele><time>2026-05-02T16:38:40.28Z</time></trkpt><trkpt lat="42.327795" lon="13.3159833"><ele>791.0</ele><time>2026-05-02T16:38:41.28Z</time></trkpt><trkpt lat="42.3278883" lon="13.3159983"><ele>791.0</ele><time>2026-05-02T16:38:42.28Z</time></trkpt><trkpt lat="42.3279817" lon="13.3160267"><ele>791.0</ele><time>2026-05-02T16:38:43.28Z</time></trkpt><trkpt lat="42.3280783" lon="13.3160683"><ele>789.4</ele><time>2026-05-02T16:38:44.28Z</time></trkpt><trkpt lat="42.328175" lon="13.31611"><ele>787.8</ele><time>2026-05-02T16:38:45.28Z</time></trkpt><trkpt lat="42.3282633" lon="13.3161583"><ele>786.1999999999999</ele><time>2026-05-02T16:38:46.28Z</time></trkpt><trkpt lat="42.3283467" lon="13.3162033"><ele>784.5999999999999</ele><time>2026-05-02T16:38:47.28Z</time></trkpt><trkpt lat="42.3284167" lon="13.3162567"><ele>783.0</ele><time>2026-05-02T16:38:48.28Z</time></trkpt><trkpt lat="42.3284967" lon="13.3163067"><ele>783.0</ele><time>2026-05-02T16:38:49.28Z</time></trkpt><trkpt lat="42.32857" lon="13.3163467"><ele>783.0</ele><time>2026-05-02T16:38:50.28Z</time></trkpt><trkpt lat="42.3286333" lon="13.3163833"><ele>783.0</ele><time>2026-05-02T16:38:51.28Z</time></trkpt><trkpt lat="42.3286933" lon="13.3164283"><ele>783.0</ele><time>2026-05-02T16:38:52.28Z</time></trkpt><trkpt lat="42.328755" lon="13.3164633"><ele>783.0</ele><time>2026-05-02T16:38:53.28Z</time></trkpt><trkpt lat="42.32883" lon="13.3164833"><ele>783.0</ele><time>2026-05-02T16:38:54.28Z</time></trkpt><trkpt lat="42.32892" lon="13.316495"><ele>784.3333333333334</ele><time>2026-05-02T16:38:55.28Z</time></trkpt><trkpt lat="42.3290083" lon="13.316505"><ele>785.6666666666667</ele><time>2026-05-02T16:38:56.28Z</time></trkpt><trkpt lat="42.3290833" lon="13.3165083"><ele>787.0</ele><time>2026-05-02T16:38:57.28Z</time></trkpt><trkpt lat="42.3291667" lon="13.3165117"><ele>788.3333333333334</ele><time>2026-05-02T16:38:58.28Z</time></trkpt><trkpt lat="42.3292533" lon="13.31651"><ele>789.6666666666667</ele><time>2026-05-02T16:38:59.28Z</time></trkpt><trkpt lat="42.32936" lon="13.31651"><ele>791.0</ele><time>2026-05-02T16:39:00.28Z</time></trkpt><trkpt lat="42.329465" lon="13.3165067"><ele>791.0</ele><time>2026-05-02T16:39:01.28Z</time></trkpt><trkpt lat="42.3295633" lon="13.3165083"><ele>791.0</ele><time>2026-05-02T16:39:02.28Z</time></trkpt><trkpt lat="42.3296533" lon="13.316515"><ele>791.0</ele><time>2026-05-02T16:39:03.281Z</time></trkpt><trkpt lat="42.32973" lon="13.316505"><ele>791.0</ele><time>2026-05-02T16:39:04.28Z</time></trkpt><trkpt lat="42.3298033" lon="13.3165017"><ele>791.0</ele><time>2026-05-02T16:39:05.28Z</time></trkpt><trkpt lat="42.3299217" lon="13.3164983"><ele>790.3333333333334</ele><time>2026-05-02T16:39:07.28Z</time></trkpt><trkpt lat="42.3300217" lon="13.3165033"><ele>789.6666666666667</ele><time>2026-05-02T16:39:09.28Z</time></trkpt><trkpt lat="42.3301283" lon="13.3165033"><ele>789.0</ele><time>2026-05-02T16:39:11.28Z</time></trkpt><trkpt lat="42.3301917" lon="13.3164967"><ele>788.3333333333333</ele><time>2026-05-02T16:39:12.28Z</time></trkpt><trkpt lat="42.3302683" lon="13.3164933"><ele>787.6666666666666</ele><time>2026-05-02T16:39:13.28Z</time></trkpt><trkpt lat="42.3303383" lon="13.31649"><ele>787.0</ele><time>2026-05-02T16:39:14.28Z</time></trkpt><trkpt lat="42.3304083" lon="13.31648"><ele>786.9999999999999</ele><time>2026-05-02T16:39:15.281Z</time></trkpt><trkpt lat="42.330515" lon="13.316475"><ele>787.0</ele><time>2026-05-02T16:39:17.28Z</time></trkpt><trkpt lat="42.33062" lon="13.31647"><ele>787.0</ele><time>2026-05-02T16:39:19.28Z</time></trkpt><trkpt lat="42.3307167" lon="13.316455"><ele>787.0</ele><time>2026-05-02T16:39:21.28Z</time></trkpt><trkpt lat="42.3307817" lon="13.3164483"><ele>786.9999999999999</ele><time>2026-05-02T16:39:22.28Z</time></trkpt><trkpt lat="42.330855" lon="13.3164483"><ele>787.0</ele><time>2026-05-02T16:39:23.281Z</time></trkpt><trkpt lat="42.3309217" lon="13.316445"><ele>786.8333333333333</ele><time>2026-05-02T16:39:24.28Z</time></trkpt><trkpt lat="42.3309867" lon="13.3164433"><ele>786.6666666666666</ele><time>2026-05-02T16:39:25.28Z</time></trkpt><trkpt lat="42.3310983" lon="13.3164233"><ele>786.5</ele><time>2026-05-02T16:39:27.28Z</time></trkpt><trkpt lat="42.3312133" lon="13.3163717"><ele>786.3333333333333</ele><time>2026-05-02T16:39:29.28Z</time></trkpt><trkpt lat="42.33127" lon="13.3163333"><ele>786.1666666666666</ele><time>2026-05-02T16:39:30.28Z</time></trkpt><trkpt lat="42.3313383" lon="13.3162883"><ele>786.0</ele><time>2026-05-02T16:39:31.281Z</time></trkpt><trkpt lat="42.3314233" lon="13.3162417"><ele>784.6666666666666</ele><time>2026-05-02T16:39:32.28Z</time></trkpt><trkpt lat="42.3314967" lon="13.3161967"><ele>783.3333333333333</ele><time>2026-05-02T16:39:33.28Z</time></trkpt><trkpt lat="42.3315617" lon="13.3161683"><ele>782.0</ele><time>2026-05-02T16:39:34.28Z</time></trkpt><trkpt lat="42.331625" lon="13.3161317"><ele>780.6666666666666</ele><time>2026-05-02T16:39:35.281Z</time></trkpt><trkpt lat="42.331735" lon="13.3160733"><ele>779.3333333333333</ele><time>2026-05-02T16:39:37.28Z</time></trkpt><trkpt lat="42.3318033" lon="13.3160533"><ele>778.0</ele><time>2026-05-02T16:39:38.281Z</time></trkpt><trkpt lat="42.3318717" lon="13.3160517"><ele>777.9999999999999</ele><time>2026-05-02T16:39:39.28Z</time></trkpt><trkpt lat="42.33194" lon="13.3160667"><ele>778.0</ele><time>2026-05-02T16:39:40.28Z</time></trkpt><trkpt lat="42.332005" lon="13.3160933"><ele>778.0</ele><time>2026-05-02T16:39:41.28Z</time></trkpt><trkpt lat="42.3320767" lon="13.3161317"><ele>778.0</ele><time>2026-05-02T16:39:42.28Z</time></trkpt><trkpt lat="42.332155" lon="13.3161733"><ele>777.9999999999999</ele><time>2026-05-02T16:39:43.28Z</time></trkpt><trkpt lat="42.3322367" lon="13.3162083"><ele>778.0</ele><time>2026-05-02T16:39:44.28Z</time></trkpt><trkpt lat="42.332305" lon="13.3162317"><ele>777.3333333333333</ele><time>2026-05-02T16:39:45.28Z</time></trkpt><trkpt lat="42.3323783" lon="13.3162483"><ele>776.6666666666666</ele><time>2026-05-02T16:39:46.28Z</time></trkpt><trkpt lat="42.3324617" lon="13.31625"><ele>776.0</ele><time>2026-05-02T16:39:47.28Z</time></trkpt><trkpt lat="42.332545" lon="13.3162533"><ele>775.3333333333333</ele><time>2026-05-02T16:39:48.28Z</time></trkpt><trkpt lat="42.3326183" lon="13.3162467"><ele>774.6666666666666</ele><time>2026-05-02T16:39:49.28Z</time></trkpt><trkpt lat="42.3326967" lon="13.3162333"><ele>774.0</ele><time>2026-05-02T16:39:50.28Z</time></trkpt><trkpt lat="42.3327733" lon="13.3162183"><ele>774.0</ele><time>2026-05-02T16:39:51.28Z</time></trkpt><trkpt lat="42.3328417" lon="13.3162067"><ele>774.0</ele><time>2026-05-02T16:39:52.28Z</time></trkpt><trkpt lat="42.3329083" lon="13.31621"><ele>774.0</ele><time>2026-05-02T16:39:53.28Z</time></trkpt><trkpt lat="42.3329717" lon="13.316215"><ele>774.0</ele><time>2026-05-02T16:39:54.28Z</time></trkpt><trkpt lat="42.3330367" lon="13.3162217"><ele>774.0</ele><time>2026-05-02T16:39:55.281Z</time></trkpt><trkpt lat="42.3331067" lon="13.3162383"><ele>774.0</ele><time>2026-05-02T16:39:56.28Z</time></trkpt><trkpt lat="42.333175" lon="13.3162633"><ele>774.0</ele><time>2026-05-02T16:39:57.28Z</time></trkpt><trkpt lat="42.33326" lon="13.3162867"><ele>773.0</ele><time>2026-05-02T16:39:58.281Z</time></trkpt><trkpt lat="42.3333517" lon="13.3162983"><ele>772.0</ele><time>2026-05-02T16:39:59.28Z</time></trkpt><trkpt lat="42.33346" lon="13.3163083"><ele>771.0</ele><time>2026-05-02T16:40:00.281Z</time></trkpt><trkpt lat="42.3335783" lon="13.316315"><ele>770.0</ele><time>2026-05-02T16:40:01.28Z</time></trkpt><trkpt lat="42.3336767" lon="13.316315"><ele>769.0</ele><time>2026-05-02T16:40:02.281Z</time></trkpt><trkpt lat="42.3337617" lon="13.3163233"><ele>769.0</ele><time>2026-05-02T16:40:03.281Z</time></trkpt><trkpt lat="42.3338683" lon="13.3163217"><ele>769.0</ele><time>2026-05-02T16:40:04.28Z</time></trkpt><trkpt lat="42.3339833" lon="13.3163117"><ele>769.0</ele><time>2026-05-02T16:40:05.28Z</time></trkpt><trkpt lat="42.33409" lon="13.3163067"><ele>769.0</ele><time>2026-05-02T16:40:06.28Z</time></trkpt><trkpt lat="42.334185" lon="13.3162983"><ele>769.0</ele><time>2026-05-02T16:40:07.28Z</time></trkpt><trkpt lat="42.3342717" lon="13.31629"><ele>766.9999999999999</ele><time>2026-05-02T16:40:08.28Z</time></trkpt><trkpt lat="42.3343483" lon="13.31628"><ele>765.0</ele><time>2026-05-02T16:40:09.28Z</time></trkpt><trkpt lat="42.33443" lon="13.316255"><ele>763.0</ele><time>2026-05-02T16:40:10.28Z</time></trkpt><trkpt lat="42.334525" lon="13.3162233"><ele>761.0</ele><time>2026-05-02T16:40:11.28Z</time></trkpt><trkpt lat="42.3346033" lon="13.316195"><ele>759.0</ele><time>2026-05-02T16:40:12.28Z</time></trkpt><trkpt lat="42.3346867" lon="13.31617"><ele>757.0</ele><time>2026-05-02T16:40:13.28Z</time></trkpt><trkpt lat="42.3347533" lon="13.3161533"><ele>757.0</ele><time>2026-05-02T16:40:14.28Z</time></trkpt><trkpt lat="42.3348233" lon="13.3161333"><ele>757.0</ele><time>2026-05-02T16:40:15.28Z</time></trkpt><trkpt lat="42.3348933" lon="13.316115"><ele>757.0</ele><time>2026-05-02T16:40:16.281Z</time></trkpt><trkpt lat="42.3350233" lon="13.3160883"><ele>757.0</ele><time>2026-05-02T16:40:18.28Z</time></trkpt><trkpt lat="42.335095" lon="13.3160733"><ele>757.0</ele><time>2026-05-02T16:40:19.28Z</time></trkpt><trkpt lat="42.3351633" lon="13.3160633"><ele>757.0</ele><time>2026-05-02T16:40:20.28Z</time></trkpt><trkpt lat="42.3352317" lon="13.3160583"><ele>757.0</ele><time>2026-05-02T16:40:21.28Z</time></trkpt><trkpt lat="42.3352967" lon="13.3160517"><ele>757.0</ele><time>2026-05-02T16:40:22.28Z</time></trkpt><trkpt lat="42.3353667" lon="13.316045"><ele>757.0</ele><time>2026-05-02T16:40:23.28Z</time></trkpt><trkpt lat="42.335435" lon="13.3160417"><ele>757.0</ele><time>2026-05-02T16:40:24.28Z</time></trkpt><trkpt lat="42.3355717" lon="13.316045"><ele>757.0</ele><time>2026-05-02T16:40:26.28Z</time></trkpt><trkpt lat="42.3356383" lon="13.31605"><ele>757.0</ele><time>2026-05-02T16:40:27.28Z</time></trkpt><trkpt lat="42.335755" lon="13.316045"><ele>757.1666666666667</ele><time>2026-05-02T16:40:29.28Z</time></trkpt><trkpt lat="42.335875" lon="13.3160417"><ele>757.3333333333334</ele><time>2026-05-02T16:40:31.28Z</time></trkpt><trkpt lat="42.3359517" lon="13.3160367"><ele>757.5</ele><time>2026-05-02T16:40:32.28Z</time></trkpt><trkpt lat="42.3360317" lon="13.3160217"><ele>757.6666666666666</ele><time>2026-05-02T16:40:33.28Z</time></trkpt><trkpt lat="42.3361167" lon="13.316005"><ele>757.8333333333333</ele><time>2026-05-02T16:40:34.28Z</time></trkpt><trkpt lat="42.3361833" lon="13.31599"><ele>758.0</ele><time>2026-05-02T16:40:35.28Z</time></trkpt><trkpt lat="42.3362483" lon="13.3159833"><ele>758.0000000000001</ele><time>2026-05-02T16:40:36.28Z</time></trkpt><trkpt lat="42.3363167" lon="13.3159817"><ele>758.0</ele><time>2026-05-02T16:40:37.28Z</time></trkpt><trkpt lat="42.3363933" lon="13.3159917"><ele>758.0</ele><time>2026-05-02T16:40:38.28Z</time></trkpt><trkpt lat="42.3364717" lon="13.3159883"><ele>758.0</ele><time>2026-05-02T16:40:39.28Z</time></trkpt><trkpt lat="42.3365483" lon="13.3159917"><ele>758.0</ele><time>2026-05-02T16:40:40.28Z</time></trkpt><trkpt lat="42.3366183" lon="13.3160033"><ele>758.0000000000001</ele><time>2026-05-02T16:40:41.281Z</time></trkpt><trkpt lat="42.3366883" lon="13.316015"><ele>758.0</ele><time>2026-05-02T16:40:42.28Z</time></trkpt><trkpt lat="42.336755" lon="13.3160317"><ele>757.8333333333333</ele><time>2026-05-02T16:40:43.281Z</time></trkpt><trkpt lat="42.3368317" lon="13.3160267"><ele>757.6666666666666</ele><time>2026-05-02T16:40:44.28Z</time></trkpt><trkpt lat="42.33691" lon="13.3160283"><ele>757.5</ele><time>2026-05-02T16:40:45.28Z</time></trkpt><trkpt lat="42.336985" lon="13.31603"><ele>757.3333333333334</ele><time>2026-05-02T16:40:46.28Z</time></trkpt><trkpt lat="42.33706" lon="13.3160217"><ele>757.1666666666667</ele><time>2026-05-02T16:40:47.28Z</time></trkpt><trkpt lat="42.33715" lon="13.316015"><ele>757.0</ele><time>2026-05-02T16:40:48.281Z</time></trkpt><trkpt lat="42.3372383" lon="13.3160083"><ele>757.5</ele><time>2026-05-02T16:40:49.28Z</time></trkpt><trkpt lat="42.337345" lon="13.3159983"><ele>758.0</ele><time>2026-05-02T16:40:50.28Z</time></trkpt><trkpt lat="42.3374317" lon="13.3159933"><ele>758.5</ele><time>2026-05-02T16:40:51.28Z</time></trkpt><trkpt lat="42.3375117" lon="13.3159867"><ele>759.0</ele><time>2026-05-02T16:40:52.28Z</time></trkpt><trkpt lat="42.3375967" lon="13.315975"><ele>759.5</ele><time>2026-05-02T16:40:53.28Z</time></trkpt><trkpt lat="42.33768" lon="13.3159567"><ele>760.0</ele><time>2026-05-02T16:40:54.28Z</time></trkpt><trkpt lat="42.3377667" lon="13.3159333"><ele>760.0</ele><time>2026-05-02T16:40:55.28Z</time></trkpt><trkpt lat="42.3378467" lon="13.3159117"><ele>760.0</ele><time>2026-05-02T16:40:56.28Z</time></trkpt><trkpt lat="42.337925" lon="13.3158783"><ele>760.0</ele><time>2026-05-02T16:40:57.28Z</time></trkpt><trkpt lat="42.3380183" lon="13.3158567"><ele>760.0</ele><time>2026-05-02T16:40:58.28Z</time></trkpt><trkpt lat="42.3381233" lon="13.3158283"><ele>760.0</ele><time>2026-05-02T16:40:59.28Z</time></trkpt><trkpt lat="42.3382083" lon="13.3158067"><ele>760.4</ele><time>2026-05-02T16:41:00.28Z</time></trkpt><trkpt lat="42.3382883" lon="13.3157883"><ele>760.8</ele><time>2026-05-02T16:41:01.28Z</time></trkpt><trkpt lat="42.3383767" lon="13.31577"><ele>761.2</ele><time>2026-05-02T16:41:02.28Z</time></trkpt><trkpt lat="42.3384717" lon="13.3157483"><ele>761.6</ele><time>2026-05-02T16:41:03.28Z</time></trkpt><trkpt lat="42.3385633" lon="13.3157317"><ele>762.0</ele><time>2026-05-02T16:41:04.28Z</time></trkpt><trkpt lat="42.338665" lon="13.3157267"><ele>762.0</ele><time>2026-05-02T16:41:05.28Z</time></trkpt><trkpt lat="42.3387567" lon="13.3157117"><ele>762.0</ele><time>2026-05-02T16:41:06.28Z</time></trkpt><trkpt lat="42.3388633" lon="13.3157117"><ele>762.0</ele><time>2026-05-02T16:41:07.28Z</time></trkpt><trkpt lat="42.3389533" lon="13.315725"><ele>762.0</ele><time>2026-05-02T16:41:08.28Z</time></trkpt><trkpt lat="42.339035" lon="13.3157283"><ele>762.0</ele><time>2026-05-02T16:41:09.28Z</time></trkpt><trkpt lat="42.3391317" lon="13.31573"><ele>761.5</ele><time>2026-05-02T16:41:10.28Z</time></trkpt><trkpt lat="42.3392233" lon="13.3157367"><ele>761.0</ele><time>2026-05-02T16:41:11.28Z</time></trkpt><trkpt lat="42.339305" lon="13.3157517"><ele>760.5</ele><time>2026-05-02T16:41:12.28Z</time></trkpt><trkpt lat="42.339385" lon="13.315775"><ele>760.0</ele><time>2026-05-02T16:41:13.28Z</time></trkpt><trkpt lat="42.339475" lon="13.31578"><ele>759.5</ele><time>2026-05-02T16:41:14.28Z</time></trkpt><trkpt lat="42.3395633" lon="13.3157933"><ele>759.0</ele><time>2026-05-02T16:41:15.28Z</time></trkpt><trkpt lat="42.3396517" lon="13.3157983"><ele>758.2857142857142</ele><time>2026-05-02T16:41:16.28Z</time></trkpt><trkpt lat="42.3397333" lon="13.3158"><ele>757.5714285714286</ele><time>2026-05-02T16:41:17.28Z</time></trkpt><trkpt lat="42.3398083" lon="13.31579"><ele>756.8571428571429</ele><time>2026-05-02T16:41:18.28Z</time></trkpt><trkpt lat="42.3398917" lon="13.3157833"><ele>756.1428571428571</ele><time>2026-05-02T16:41:19.28Z</time></trkpt><trkpt lat="42.3399667" lon="13.3157817"><ele>755.4285714285714</ele><time>2026-05-02T16:41:20.28Z</time></trkpt><trkpt lat="42.3400367" lon="13.3157833"><ele>754.7142857142857</ele><time>2026-05-02T16:41:21.28Z</time></trkpt><trkpt lat="42.3401" lon="13.3157817"><ele>754.0</ele><time>2026-05-02T16:41:22.28Z</time></trkpt><trkpt lat="42.340165" lon="13.31579"><ele>754.0</ele><time>2026-05-02T16:41:23.28Z</time></trkpt><trkpt lat="42.340285" lon="13.3158"><ele>754.0</ele><time>2026-05-02T16:41:25.28Z</time></trkpt><trkpt lat="42.34035" lon="13.3158067"><ele>754.0</ele><time>2026-05-02T16:41:26.281Z</time></trkpt><trkpt lat="42.3404267" lon="13.3158183"><ele>754.0</ele><time>2026-05-02T16:41:27.28Z</time></trkpt><trkpt lat="42.3405417" lon="13.31585"><ele>754.0</ele><time>2026-05-02T16:41:29.28Z</time></trkpt><trkpt lat="42.34066" lon="13.315875"><ele>753.4000000000001</ele><time>2026-05-02T16:41:31.28Z</time></trkpt><trkpt lat="42.340775" lon="13.3159083"><ele>752.8</ele><time>2026-05-02T16:41:33.28Z</time></trkpt><trkpt lat="42.340885" lon="13.3159383"><ele>752.2</ele><time>2026-05-02T16:41:35.28Z</time></trkpt><trkpt lat="42.3409667" lon="13.3159433"><ele>751.5999999999999</ele><time>2026-05-02T16:41:36.281Z</time></trkpt><trkpt lat="42.34105" lon="13.315945"><ele>751.0</ele><time>2026-05-02T16:41:37.281Z</time></trkpt><trkpt lat="42.34113" lon="13.3159483"><ele>751.0</ele><time>2026-05-02T16:41:38.28Z</time></trkpt><trkpt lat="42.3412033" lon="13.3159517"><ele>751.0</ele><time>2026-05-02T16:41:39.28Z</time></trkpt><trkpt lat="42.3412883" lon="13.315945"><ele>751.0</ele><time>2026-05-02T16:41:40.28Z</time></trkpt><trkpt lat="42.3413567" lon="13.3159467"><ele>751.0</ele><time>2026-05-02T16:41:41.281Z</time></trkpt><trkpt lat="42.34142" lon="13.3159533"><ele>751.0</ele><time>2026-05-02T16:41:42.28Z</time></trkpt><trkpt lat="42.3415033" lon="13.3159633"><ele>751.0</ele><time>2026-05-02T16:41:43.28Z</time></trkpt><trkpt lat="42.34158" lon="13.315965"><ele>749.1666666666667</ele><time>2026-05-02T16:41:44.28Z</time></trkpt><trkpt lat="42.341665" lon="13.3159733"><ele>747.3333333333334</ele><time>2026-05-02T16:41:45.28Z</time></trkpt><trkpt lat="42.341765" lon="13.3159633"><ele>745.5</ele><time>2026-05-02T16:41:46.28Z</time></trkpt><trkpt lat="42.3418533" lon="13.3159567"><ele>743.6666666666666</ele><time>2026-05-02T16:41:47.28Z</time></trkpt><trkpt lat="42.3419383" lon="13.3159567"><ele>741.8333333333333</ele><time>2026-05-02T16:41:48.28Z</time></trkpt><trkpt lat="42.3420217" lon="13.3159667"><ele>740.0</ele><time>2026-05-02T16:41:49.28Z</time></trkpt><trkpt lat="42.3420967" lon="13.3159733"><ele>740.0</ele><time>2026-05-02T16:41:50.281Z</time></trkpt><trkpt lat="42.342175" lon="13.3159867"><ele>740.0</ele><time>2026-05-02T16:41:51.28Z</time></trkpt><trkpt lat="42.3422483" lon="13.316005"><ele>740.0</ele><time>2026-05-02T16:41:52.28Z</time></trkpt><trkpt lat="42.3423617" lon="13.31602"><ele>740.0</ele><time>2026-05-02T16:41:54.28Z</time></trkpt><trkpt lat="42.3424783" lon="13.3159483"><ele>740.0</ele><time>2026-05-02T16:41:56.28Z</time></trkpt><trkpt lat="42.34254" lon="13.3158883"><ele>739.5</ele><time>2026-05-02T16:41:57.28Z</time></trkpt><trkpt lat="42.3425933" lon="13.3158317"><ele>739.0</ele><time>2026-05-02T16:41:58.28Z</time></trkpt><trkpt lat="42.34265" lon="13.3157717"><ele>738.5</ele><time>2026-05-02T16:41:59.281Z</time></trkpt><trkpt lat="42.342705" lon="13.3157283"><ele>738.0</ele><time>2026-05-02T16:42:00.28Z</time></trkpt><trkpt lat="42.342765" lon="13.3156817"><ele>737.5</ele><time>2026-05-02T16:42:01.28Z</time></trkpt><trkpt lat="42.3428683" lon="13.315595"><ele>737.0</ele><time>2026-05-02T16:42:03.28Z</time></trkpt><trkpt lat="42.34293" lon="13.3155467"><ele>735.8571428571429</ele><time>2026-05-02T16:42:04.28Z</time></trkpt><trkpt lat="42.342995" lon="13.3154933"><ele>734.7142857142858</ele><time>2026-05-02T16:42:05.28Z</time></trkpt><trkpt lat="42.3430617" lon="13.3154583"><ele>733.5714285714287</ele><time>2026-05-02T16:42:06.28Z</time></trkpt><trkpt lat="42.34315" lon="13.3154283"><ele>732.4285714285714</ele><time>2026-05-02T16:42:07.28Z</time></trkpt><trkpt lat="42.34322" lon="13.3154083"><ele>731.2857142857142</ele><time>2026-05-02T16:42:08.28Z</time></trkpt><trkpt lat="42.3432917" lon="13.3153883"><ele>730.1428571428572</ele><time>2026-05-02T16:42:09.28Z</time></trkpt><trkpt lat="42.343355" lon="13.3153783"><ele>729.0</ele><time>2026-05-02T16:42:10.28Z</time></trkpt><trkpt lat="42.3434683" lon="13.31542"><ele>729.0</ele><time>2026-05-02T16:42:12.28Z</time></trkpt><trkpt lat="42.3435283" lon="13.3154483"><ele>729.0</ele><time>2026-05-02T16:42:13.28Z</time></trkpt><trkpt lat="42.343595" lon="13.3154633"><ele>729.0</ele><time>2026-05-02T16:42:14.28Z</time></trkpt><trkpt lat="42.3436667" lon="13.3154867"><ele>729.0</ele><time>2026-05-02T16:42:15.28Z</time></trkpt><trkpt lat="42.3437933" lon="13.315515"><ele>729.0</ele><time>2026-05-02T16:42:17.28Z</time></trkpt><trkpt lat="42.3438583" lon="13.3155267"><ele>729.0</ele><time>2026-05-02T16:42:18.28Z</time></trkpt><trkpt lat="42.3439233" lon="13.3155267"><ele>727.8333333333334</ele><time>2026-05-02T16:42:19.28Z</time></trkpt><trkpt lat="42.3439883" lon="13.31552"><ele>726.6666666666666</ele><time>2026-05-02T16:42:20.28Z</time></trkpt><trkpt lat="42.3440567" lon="13.31552"><ele>725.5</ele><time>2026-05-02T16:42:21.28Z</time></trkpt><trkpt lat="42.344135" lon="13.3155233"><ele>724.3333333333333</ele><time>2026-05-02T16:42:22.28Z</time></trkpt><trkpt lat="42.3442283" lon="13.3155217"><ele>723.1666666666666</ele><time>2026-05-02T16:42:23.28Z</time></trkpt><trkpt lat="42.3443233" lon="13.31552"><ele>722.0</ele><time>2026-05-02T16:42:24.281Z</time></trkpt><trkpt lat="42.3444133" lon="13.3155183"><ele>722.0</ele><time>2026-05-02T16:42:25.28Z</time></trkpt><trkpt lat="42.3445" lon="13.3155167"><ele>722.0</ele><time>2026-05-02T16:42:26.28Z</time></trkpt><trkpt lat="42.3445917" lon="13.3155133"><ele>722.0</ele><time>2026-05-02T16:42:27.28Z</time></trkpt><trkpt lat="42.344675" lon="13.3155117"><ele>722.0</ele><time>2026-05-02T16:42:28.28Z</time></trkpt><trkpt lat="42.34474" lon="13.3155033"><ele>722.0</ele><time>2026-05-02T16:42:29.28Z</time></trkpt><trkpt lat="42.3448133" lon="13.3155017"><ele>722.0</ele><time>2026-05-02T16:42:30.28Z</time></trkpt><trkpt lat="42.3448917" lon="13.3154883"><ele>721.0</ele><time>2026-05-02T16:42:31.28Z</time></trkpt><trkpt lat="42.3449683" lon="13.3154767"><ele>720.0</ele><time>2026-05-02T16:42:32.28Z</time></trkpt><trkpt lat="42.34505" lon="13.3154533"><ele>719.0</ele><time>2026-05-02T16:42:33.28Z</time></trkpt><trkpt lat="42.3451317" lon="13.3154283"><ele>718.0</ele><time>2026-05-02T16:42:34.28Z</time></trkpt><trkpt lat="42.3452183" lon="13.3154133"><ele>717.0</ele><time>2026-05-02T16:42:35.28Z</time></trkpt><trkpt lat="42.34529" lon="13.3153967"><ele>716.0</ele><time>2026-05-02T16:42:36.28Z</time></trkpt><trkpt lat="42.3453567" lon="13.3153817"><ele>716.0</ele><time>2026-05-02T16:42:37.28Z</time></trkpt><trkpt lat="42.3454367" lon="13.315375"><ele>716.0</ele><time>2026-05-02T16:42:38.28Z</time></trkpt><trkpt lat="42.3455017" lon="13.31539"><ele>716.0</ele><time>2026-05-02T16:42:39.28Z</time></trkpt><trkpt lat="42.3455717" lon="13.315425"><ele>716.0</ele><time>2026-05-02T16:42:40.28Z</time></trkpt><trkpt lat="42.3456383" lon="13.31547"><ele>716.0</ele><time>2026-05-02T16:42:41.28Z</time></trkpt><trkpt lat="42.34572" lon="13.3154983"><ele>716.0</ele><time>2026-05-02T16:42:42.28Z</time></trkpt><trkpt lat="42.3458067" lon="13.3155233"><ele>715.6666666666666</ele><time>2026-05-02T16:42:43.28Z</time></trkpt><trkpt lat="42.3458833" lon="13.31555"><ele>715.3333333333333</ele><time>2026-05-02T16:42:44.28Z</time></trkpt><trkpt lat="42.3459683" lon="13.3155683"><ele>715.0</ele><time>2026-05-02T16:42:45.28Z</time></trkpt><trkpt lat="42.3460517" lon="13.3155933"><ele>714.6666666666666</ele><time>2026-05-02T16:42:46.28Z</time></trkpt><trkpt lat="42.346135" lon="13.3156"><ele>714.3333333333334</ele><time>2026-05-02T16:42:47.28Z</time></trkpt><trkpt lat="42.3462267" lon="13.3156117"><ele>714.0</ele><time>2026-05-02T16:42:48.28Z</time></trkpt><trkpt lat="42.34632" lon="13.3156283"><ele>715.3333333333334</ele><time>2026-05-02T16:42:49.281Z</time></trkpt><trkpt lat="42.3464133" lon="13.3156517"><ele>716.6666666666666</ele><time>2026-05-02T16:42:50.281Z</time></trkpt><trkpt lat="42.3465017" lon="13.3156817"><ele>718.0</ele><time>2026-05-02T16:42:51.28Z</time></trkpt><trkpt lat="42.3465817" lon="13.3157067"><ele>719.3333333333333</ele><time>2026-05-02T16:42:52.28Z</time></trkpt><trkpt lat="42.3466783" lon="13.3157333"><ele>720.6666666666666</ele><time>2026-05-02T16:42:53.28Z</time></trkpt><trkpt lat="42.3467583" lon="13.31576"><ele>722.0</ele><time>2026-05-02T16:42:54.281Z</time></trkpt><trkpt lat="42.3468217" lon="13.3158"><ele>722.0</ele><time>2026-05-02T16:42:55.28Z</time></trkpt><trkpt lat="42.3468983" lon="13.3158583"><ele>722.0</ele><time>2026-05-02T16:42:56.28Z</time></trkpt><trkpt lat="42.346985" lon="13.3159333"><ele>722.0</ele><time>2026-05-02T16:42:57.28Z</time></trkpt><trkpt lat="42.3470567" lon="13.316015"><ele>722.0</ele><time>2026-05-02T16:42:58.28Z</time></trkpt><trkpt lat="42.3471183" lon="13.3161117"><ele>722.0</ele><time>2026-05-02T16:42:59.281Z</time></trkpt><trkpt lat="42.347185" lon="13.316195"><ele>721.5</ele><time>2026-05-02T16:43:00.28Z</time></trkpt><trkpt lat="42.3472433" lon="13.3162667"><ele>721.0</ele><time>2026-05-02T16:43:01.28Z</time></trkpt><trkpt lat="42.3473133" lon="13.3163217"><ele>720.5</ele><time>2026-05-02T16:43:02.28Z</time></trkpt><trkpt lat="42.34738" lon="13.31638"><ele>720.0</ele><time>2026-05-02T16:43:03.28Z</time></trkpt><trkpt lat="42.347455" lon="13.3164283"><ele>719.5</ele><time>2026-05-02T16:43:04.28Z</time></trkpt><trkpt lat="42.34753" lon="13.3164667"><ele>719.0</ele><time>2026-05-02T16:43:05.281Z</time></trkpt><trkpt lat="42.347615" lon="13.316485"><ele>719.0</ele><time>2026-05-02T16:43:06.28Z</time></trkpt><trkpt lat="42.3476933" lon="13.3165083"><ele>719.0</ele><time>2026-05-02T16:43:07.28Z</time></trkpt><trkpt lat="42.3477817" lon="13.3165267"><ele>719.0</ele><time>2026-05-02T16:43:08.28Z</time></trkpt><trkpt lat="42.3478583" lon="13.31657"><ele>719.0</ele><time>2026-05-02T16:43:09.28Z</time></trkpt><trkpt lat="42.3479333" lon="13.3166233"><ele>719.0</ele><time>2026-05-02T16:43:10.28Z</time></trkpt><trkpt lat="42.3480133" lon="13.3166817"><ele>719.0</ele><time>2026-05-02T16:43:11.28Z</time></trkpt><trkpt lat="42.3480833" lon="13.31674"><ele>718.6666666666666</ele><time>2026-05-02T16:43:12.28Z</time></trkpt><trkpt lat="42.34816" lon="13.3167833"><ele>718.3333333333333</ele><time>2026-05-02T16:43:13.28Z</time></trkpt><trkpt lat="42.348225" lon="13.3168267"><ele>718.0</ele><time>2026-05-02T16:43:14.28Z</time></trkpt><trkpt lat="42.3482917" lon="13.3168633"><ele>717.6666666666666</ele><time>2026-05-02T16:43:15.28Z</time></trkpt><trkpt lat="42.3483583" lon="13.3168883"><ele>717.3333333333334</ele><time>2026-05-02T16:43:16.281Z</time></trkpt><trkpt lat="42.3484383" lon="13.3169083"><ele>717.0</ele><time>2026-05-02T16:43:17.28Z</time></trkpt><trkpt lat="42.3485083" lon="13.3169283"><ele>717.0</ele><time>2026-05-02T16:43:18.28Z</time></trkpt><trkpt lat="42.3485783" lon="13.31693"><ele>717.0</ele><time>2026-05-02T16:43:19.28Z</time></trkpt><trkpt lat="42.3486417" lon="13.31694"><ele>717.0</ele><time>2026-05-02T16:43:20.28Z</time></trkpt><trkpt lat="42.348705" lon="13.31693"><ele>717.0</ele><time>2026-05-02T16:43:21.28Z</time></trkpt><trkpt lat="42.3488183" lon="13.3169317"><ele>717.0</ele><time>2026-05-02T16:43:23.28Z</time></trkpt><trkpt lat="42.3489" lon="13.3169333"><ele>717.0</ele><time>2026-05-02T16:43:25.28Z</time></trkpt><trkpt lat="42.34896" lon="13.3168767"><ele>715.0</ele><time>2026-05-02T16:43:29.281Z</time></trkpt><trkpt lat="42.3489737" lon="13.3167743"><ele>713.0</ele><time>2026-05-02T16:43:34.319Z</time></trkpt><trkpt lat="42.3489988" lon="13.3166547"><ele>711.0</ele><time>2026-05-02T16:43:35.382Z</time></trkpt><trkpt lat="42.3490741" lon="13.3167029"><ele>709.0</ele><time>2026-05-02T16:43:37.28Z</time></trkpt><trkpt lat="42.349128" lon="13.3167778"><ele>707.0</ele><time>2026-05-02T16:43:38.28Z</time></trkpt><trkpt lat="42.3492086" lon="13.3168685"><ele>705.0</ele><time>2026-05-02T16:43:39.28Z</time></trkpt><trkpt lat="42.349302" lon="13.3169525"><ele>705.0</ele><time>2026-05-02T16:43:40.28Z</time></trkpt><trkpt lat="42.3494021" lon="13.3170255"><ele>705.0</ele><time>2026-05-02T16:43:41.281Z</time></trkpt><trkpt lat="42.3495055" lon="13.3170961"><ele>705.0</ele><time>2026-05-02T16:43:42.28Z</time></trkpt><trkpt lat="42.3496119" lon="13.3171677"><ele>705.0</ele><time>2026-05-02T16:43:43.28Z</time></trkpt><trkpt lat="42.3497217" lon="13.3172515"><ele>702.75</ele><time>2026-05-02T16:43:44.28Z</time></trkpt><trkpt lat="42.3498276" lon="13.3173484"><ele>700.5</ele><time>2026-05-02T16:43:45.28Z</time></trkpt><trkpt lat="42.3499273" lon="13.3174634"><ele>698.25</ele><time>2026-05-02T16:43:46.28Z</time></trkpt><trkpt lat="42.3500204" lon="13.3175835"><ele>696.0</ele><time>2026-05-02T16:43:47.28Z</time></trkpt><trkpt lat="42.350106" lon="13.3177112"><ele>696.0</ele><time>2026-05-02T16:43:48.28Z</time></trkpt><trkpt lat="42.3501735" lon="13.3178498"><ele>696.0</ele><time>2026-05-02T16:43:49.28Z</time></trkpt><trkpt lat="42.3502572" lon="13.3179677"><ele>696.0</ele><time>2026-05-02T16:43:50.28Z</time></trkpt><trkpt lat="42.3503386" lon="13.3180792"><ele>696.0</ele><time>2026-05-02T16:43:51.28Z</time></trkpt><trkpt lat="42.3504172" lon="13.3181908"><ele>696.1999999999999</ele><time>2026-05-02T16:43:52.28Z</time></trkpt><trkpt lat="42.3504923" lon="13.3182968"><ele>696.4</ele><time>2026-05-02T16:43:53.28Z</time></trkpt><trkpt lat="42.3505671" lon="13.3183963"><ele>696.6</ele><time>2026-05-02T16:43:54.28Z</time></trkpt><trkpt lat="42.3506345" lon="13.3184909"><ele>696.8</ele><time>2026-05-02T16:43:55.28Z</time></trkpt><trkpt lat="42.3506996" lon="13.3185849"><ele>697.0</ele><time>2026-05-02T16:43:56.28Z</time></trkpt><trkpt lat="42.3507644" lon="13.3186758"><ele>694.8</ele><time>2026-05-02T16:43:57.28Z</time></trkpt><trkpt lat="42.3508373" lon="13.3187695"><ele>692.6</ele><time>2026-05-02T16:43:58.28Z</time></trkpt><trkpt lat="42.3509136" lon="13.3188672"><ele>690.4</ele><time>2026-05-02T16:43:59.28Z</time></trkpt><trkpt lat="42.3509941" lon="13.3189752"><ele>688.1999999999999</ele><time>2026-05-02T16:44:00.28Z</time></trkpt><trkpt lat="42.3510769" lon="13.3190954"><ele>686.0</ele><time>2026-05-02T16:44:01.28Z</time></trkpt><trkpt lat="42.3511614" lon="13.3192175"><ele>685.25</ele><time>2026-05-02T16:44:02.28Z</time></trkpt><trkpt lat="42.3512494" lon="13.3193381"><ele>684.5</ele><time>2026-05-02T16:44:03.28Z</time></trkpt><trkpt lat="42.3513503" lon="13.3194581"><ele>683.75</ele><time>2026-05-02T16:44:04.28Z</time></trkpt><trkpt lat="42.3514602" lon="13.3195733"><ele>683.0</ele><time>2026-05-02T16:44:05.28Z</time></trkpt><trkpt lat="42.3515684" lon="13.3196721"><ele>683.0</ele><time>2026-05-02T16:44:06.28Z</time></trkpt><trkpt lat="42.3516761" lon="13.3197652"><ele>683.0</ele><time>2026-05-02T16:44:07.28Z</time></trkpt><trkpt lat="42.3517813" lon="13.3198557"><ele>683.0</ele><time>2026-05-02T16:44:08.28Z</time></trkpt><trkpt lat="42.3518806" lon="13.3199414"><ele>683.0</ele><time>2026-05-02T16:44:09.28Z</time></trkpt><trkpt lat="42.3519786" lon="13.3200318"><ele>683.0</ele><time>2026-05-02T16:44:10.28Z</time></trkpt><trkpt lat="42.3520793" lon="13.3201208"><ele>683.0</ele><time>2026-05-02T16:44:11.281Z</time></trkpt><trkpt lat="42.3521852" lon="13.3202081"><ele>683.0</ele><time>2026-05-02T16:44:12.28Z</time></trkpt><trkpt lat="42.3522849" lon="13.3202946"><ele>683.0</ele><time>2026-05-02T16:44:13.28Z</time></trkpt><trkpt lat="42.3523808" lon="13.3203791"><ele>681.8333333333333</ele><time>2026-05-02T16:44:14.28Z</time></trkpt><trkpt lat="42.3524724" lon="13.3204564"><ele>680.6666666666666</ele><time>2026-05-02T16:44:15.28Z</time></trkpt><trkpt lat="42.3525614" lon="13.3205296"><ele>679.5</ele><time>2026-05-02T16:44:16.28Z</time></trkpt><trkpt lat="42.352641" lon="13.3206014"><ele>678.3333333333334</ele><time>2026-05-02T16:44:17.28Z</time></trkpt><trkpt lat="42.3526982" lon="13.3206583"><ele>677.1666666666667</ele><time>2026-05-02T16:44:18.28Z</time></trkpt><trkpt lat="42.3527513" lon="13.3207139"><ele>676.0</ele><time>2026-05-02T16:44:19.28Z</time></trkpt><trkpt lat="42.3528312" lon="13.3208417"><ele>676.0</ele><time>2026-05-02T16:44:21.28Z</time></trkpt><trkpt lat="42.3528539" lon="13.3209261"><ele>676.0</ele><time>2026-05-02T16:44:22.28Z</time></trkpt><trkpt lat="42.3528749" lon="13.3210161"><ele>676.0</ele><time>2026-05-02T16:44:23.28Z</time></trkpt><trkpt lat="42.3528758" lon="13.3211548"><ele>676.0</ele><time>2026-05-02T16:44:24.28Z</time></trkpt><trkpt lat="42.3528729" lon="13.32134"><ele>676.0</ele><time>2026-05-02T16:44:25.28Z</time></trkpt><trkpt lat="42.3528801" lon="13.3215257"><ele>674.5</ele><time>2026-05-02T16:44:26.28Z</time></trkpt><trkpt lat="42.3529015" lon="13.3217007"><ele>673.0</ele><time>2026-05-02T16:44:27.28Z</time></trkpt><trkpt lat="42.3529303" lon="13.3218622"><ele>671.5</ele><time>2026-05-02T16:44:28.28Z</time></trkpt><trkpt lat="42.3529697" lon="13.3220131"><ele>670.0</ele><time>2026-05-02T16:44:29.28Z</time></trkpt><trkpt lat="42.3530137" lon="13.3221524"><ele>669.0</ele><time>2026-05-02T16:44:30.28Z</time></trkpt><trkpt lat="42.3530639" lon="13.3222806"><ele>668.0</ele><time>2026-05-02T16:44:31.28Z</time></trkpt><trkpt lat="42.3531123" lon="13.3223954"><ele>667.0</ele><time>2026-05-02T16:44:32.28Z</time></trkpt><trkpt lat="42.3531552" lon="13.3225042"><ele>666.0</ele><time>2026-05-02T16:44:33.28Z</time></trkpt><trkpt lat="42.353184" lon="13.3226196"><ele>665.0</ele><time>2026-05-02T16:44:34.28Z</time></trkpt><trkpt lat="42.3532039" lon="13.3227391"><ele>665.0</ele><time>2026-05-02T16:44:35.28Z</time></trkpt><trkpt lat="42.3532189" lon="13.3228525"><ele>665.0</ele><time>2026-05-02T16:44:36.281Z</time></trkpt><trkpt lat="42.3532428" lon="13.3229714"><ele>665.0</ele><time>2026-05-02T16:44:37.28Z</time></trkpt><trkpt lat="42.3532956" lon="13.3230813"><ele>665.0</ele><time>2026-05-02T16:44:38.28Z</time></trkpt><trkpt lat="42.3533725" lon="13.3231997"><ele>665.0</ele><time>2026-05-02T16:44:39.28Z</time></trkpt><trkpt lat="42.3534551" lon="13.3233301"><ele>664.25</ele><time>2026-05-02T16:44:40.28Z</time></trkpt><trkpt lat="42.3535334" lon="13.3234752"><ele>663.5</ele><time>2026-05-02T16:44:41.28Z</time></trkpt><trkpt lat="42.3536068" lon="13.3236351"><ele>662.75</ele><time>2026-05-02T16:44:42.28Z</time></trkpt><trkpt lat="42.3536832" lon="13.3238024"><ele>662.0</ele><time>2026-05-02T16:44:43.28Z</time></trkpt><trkpt lat="42.3537649" lon="13.3239738"><ele>661.6666666666666</ele><time>2026-05-02T16:44:44.28Z</time></trkpt><trkpt lat="42.3538469" lon="13.3241514"><ele>661.3333333333334</ele><time>2026-05-02T16:44:45.28Z</time></trkpt><trkpt lat="42.3539288" lon="13.3243276"><ele>661.0</ele><time>2026-05-02T16:44:46.28Z</time></trkpt><trkpt lat="42.354006" lon="13.3244968"><ele>661.0</ele><time>2026-05-02T16:44:47.28Z</time></trkpt><trkpt lat="42.3540802" lon="13.3246552"><ele>661.0</ele><time>2026-05-02T16:44:48.281Z</time></trkpt><trkpt lat="42.3541508" lon="13.3248021"><ele>661.0</ele><time>2026-05-02T16:44:49.28Z</time></trkpt><trkpt lat="42.3542143" lon="13.3249476"><ele>661.0</ele><time>2026-05-02T16:44:50.28Z</time></trkpt><trkpt lat="42.3542762" lon="13.3250858"><ele>660.0</ele><time>2026-05-02T16:44:51.281Z</time></trkpt><trkpt lat="42.3543396" lon="13.3252228"><ele>659.0</ele><time>2026-05-02T16:44:52.281Z</time></trkpt><trkpt lat="42.354407" lon="13.3253643"><ele>658.0</ele><time>2026-05-02T16:44:53.28Z</time></trkpt><trkpt lat="42.3544826" lon="13.3255104"><ele>657.0</ele><time>2026-05-02T16:44:54.28Z</time></trkpt><trkpt lat="42.3545648" lon="13.325652"><ele>656.5</ele><time>2026-05-02T16:44:55.28Z</time></trkpt><trkpt lat="42.354651" lon="13.325797"><ele>656.0</ele><time>2026-05-02T16:44:56.28Z</time></trkpt><trkpt lat="42.3547382" lon="13.3259461"><ele>655.5</ele><time>2026-05-02T16:44:57.28Z</time></trkpt><trkpt lat="42.3548168" lon="13.3261034"><ele>655.0</ele><time>2026-05-02T16:44:58.28Z</time></trkpt><trkpt lat="42.3548884" lon="13.3262571"><ele>655.0</ele><time>2026-05-02T16:44:59.28Z</time></trkpt><trkpt lat="42.3549554" lon="13.3264063"><ele>655.0</ele><time>2026-05-02T16:45:00.28Z</time></trkpt><trkpt lat="42.3550281" lon="13.3265487"><ele>655.0</ele><time>2026-05-02T16:45:01.28Z</time></trkpt><trkpt lat="42.3551062" lon="13.3266887"><ele>655.0</ele><time>2026-05-02T16:45:02.281Z</time></trkpt><trkpt lat="42.3551902" lon="13.3268307"><ele>655.0</ele><time>2026-05-02T16:45:03.281Z</time></trkpt><trkpt lat="42.3552778" lon="13.3269658"><ele>655.0</ele><time>2026-05-02T16:45:04.28Z</time></trkpt><trkpt lat="42.355368" lon="13.3270937"><ele>655.0</ele><time>2026-05-02T16:45:05.28Z</time></trkpt><trkpt lat="42.3554538" lon="13.3272235"><ele>655.0</ele><time>2026-05-02T16:45:06.28Z</time></trkpt><trkpt lat="42.3555454" lon="13.3273718"><ele>654.3333333333334</ele><time>2026-05-02T16:45:07.28Z</time></trkpt><trkpt lat="42.3556384" lon="13.3275347"><ele>653.6666666666666</ele><time>2026-05-02T16:45:08.28Z</time></trkpt><trkpt lat="42.3557281" lon="13.3277041"><ele>653.0</ele><time>2026-05-02T16:45:09.28Z</time></trkpt><trkpt lat="42.3558106" lon="13.3278735"><ele>653.0</ele><time>2026-05-02T16:45:10.28Z</time></trkpt><trkpt lat="42.3558948" lon="13.3280335"><ele>653.0</ele><time>2026-05-02T16:45:11.28Z</time></trkpt><trkpt lat="42.3559757" lon="13.3281839"><ele>653.0</ele><time>2026-05-02T16:45:12.28Z</time></trkpt><trkpt lat="42.3560509" lon="13.3283315"><ele>653.0</ele><time>2026-05-02T16:45:13.28Z</time></trkpt><trkpt lat="42.356119" lon="13.3284739"><ele>652.75</ele><time>2026-05-02T16:45:14.28Z</time></trkpt><trkpt lat="42.3561822" lon="13.3286108"><ele>652.5</ele><time>2026-05-02T16:45:15.28Z</time></trkpt><trkpt lat="42.3562285" lon="13.328737"><ele>652.25</ele><time>2026-05-02T16:45:16.28Z</time></trkpt><trkpt lat="42.3562575" lon="13.3288854"><ele>652.0</ele><time>2026-05-02T16:45:17.28Z</time></trkpt><trkpt lat="42.3562673" lon="13.3290415"><ele>652.0</ele><time>2026-05-02T16:45:18.28Z</time></trkpt><trkpt lat="42.3562479" lon="13.3292076"><ele>652.0</ele><time>2026-05-02T16:45:19.281Z</time></trkpt><trkpt lat="42.3562122" lon="13.3293862"><ele>652.0</ele><time>2026-05-02T16:45:20.28Z</time></trkpt><trkpt lat="42.3561659" lon="13.3295776"><ele>652.0</ele><time>2026-05-02T16:45:21.28Z</time></trkpt><trkpt lat="42.3561149" lon="13.3297848"><ele>652.0</ele><time>2026-05-02T16:45:22.28Z</time></trkpt><trkpt lat="42.356071" lon="13.3299869"><ele>652.0</ele><time>2026-05-02T16:45:23.28Z</time></trkpt><trkpt lat="42.3560233" lon="13.3301883"><ele>652.0</ele><time>2026-05-02T16:45:24.281Z</time></trkpt><trkpt lat="42.3559833" lon="13.3303967"><ele>652.3333333333334</ele><time>2026-05-02T16:45:25.28Z</time></trkpt><trkpt lat="42.3559467" lon="13.3306033"><ele>652.6666666666666</ele><time>2026-05-02T16:45:26.28Z</time></trkpt><trkpt lat="42.35591" lon="13.3308183"><ele>653.0</ele><time>2026-05-02T16:45:27.28Z</time></trkpt><trkpt lat="42.3558883" lon="13.331015"><ele>653.0</ele><time>2026-05-02T16:45:28.28Z</time></trkpt><trkpt lat="42.355865" lon="13.331225"><ele>653.0</ele><time>2026-05-02T16:45:29.28Z</time></trkpt><trkpt lat="42.3558467" lon="13.3314267"><ele>653.0</ele><time>2026-05-02T16:45:30.28Z</time></trkpt><trkpt lat="42.3558417" lon="13.33162"><ele>652.75</ele><time>2026-05-02T16:45:31.281Z</time></trkpt><trkpt lat="42.35583" lon="13.3318"><ele>652.5</ele><time>2026-05-02T16:45:32.28Z</time></trkpt><trkpt lat="42.3558117" lon="13.331975"><ele>652.25</ele><time>2026-05-02T16:45:33.28Z</time></trkpt><trkpt lat="42.3557867" lon="13.33214"><ele>652.0</ele><time>2026-05-02T16:45:34.28Z</time></trkpt><trkpt lat="42.3557767" lon="13.33231"><ele>651.2</ele><time>2026-05-02T16:45:35.28Z</time></trkpt><trkpt lat="42.3557717" lon="13.3324633"><ele>650.4000000000001</ele><time>2026-05-02T16:45:36.281Z</time></trkpt><trkpt lat="42.355765" lon="13.332615"><ele>649.5999999999999</ele><time>2026-05-02T16:45:37.28Z</time></trkpt><trkpt lat="42.3557533" lon="13.332765"><ele>648.8</ele><time>2026-05-02T16:45:38.28Z</time></trkpt><trkpt lat="42.35575" lon="13.332905"><ele>648.0</ele><time>2026-05-02T16:45:39.28Z</time></trkpt><trkpt lat="42.3557467" lon="13.333045"><ele>647.75</ele><time>2026-05-02T16:45:40.28Z</time></trkpt><trkpt lat="42.3557417" lon="13.3331883"><ele>647.5</ele><time>2026-05-02T16:45:41.28Z</time></trkpt><trkpt lat="42.3557317" lon="13.3333383"><ele>647.25</ele><time>2026-05-02T16:45:42.28Z</time></trkpt><trkpt lat="42.355725" lon="13.3334983"><ele>647.0</ele><time>2026-05-02T16:45:43.28Z</time></trkpt><trkpt lat="42.35571" lon="13.3336667"><ele>647.0</ele><time>2026-05-02T16:45:44.28Z</time></trkpt><trkpt lat="42.35569" lon="13.3338533"><ele>647.0</ele><time>2026-05-02T16:45:45.28Z</time></trkpt><trkpt lat="42.355675" lon="13.33403"><ele>647.0</ele><time>2026-05-02T16:45:46.28Z</time></trkpt><trkpt lat="42.3556617" lon="13.3341917"><ele>647.0</ele><time>2026-05-02T16:45:47.28Z</time></trkpt><trkpt lat="42.3556517" lon="13.3343467"><ele>646.8</ele><time>2026-05-02T16:45:48.28Z</time></trkpt><trkpt lat="42.35565" lon="13.3344917"><ele>646.6</ele><time>2026-05-02T16:45:49.28Z</time></trkpt><trkpt lat="42.3556683" lon="13.334635"><ele>646.4</ele><time>2026-05-02T16:45:50.28Z</time></trkpt><trkpt lat="42.3556933" lon="13.33477"><ele>646.1999999999999</ele><time>2026-05-02T16:45:51.28Z</time></trkpt><trkpt lat="42.355715" lon="13.3348917"><ele>646.0</ele><time>2026-05-02T16:45:52.28Z</time></trkpt><trkpt lat="42.355745" lon="13.3349867"><ele>645.3333333333334</ele><time>2026-05-02T16:45:53.28Z</time></trkpt><trkpt lat="42.3557683" lon="13.3350917"><ele>644.6666666666667</ele><time>2026-05-02T16:45:54.28Z</time></trkpt><trkpt lat="42.3557983" lon="13.335195"><ele>644.0</ele><time>2026-05-02T16:45:55.28Z</time></trkpt><trkpt lat="42.3558433" lon="13.3352917"><ele>643.3333333333334</ele><time>2026-05-02T16:45:56.28Z</time></trkpt><trkpt lat="42.35591" lon="13.3353717"><ele>642.6666666666666</ele><time>2026-05-02T16:45:57.28Z</time></trkpt><trkpt lat="42.3559817" lon="13.3354267"><ele>642.0</ele><time>2026-05-02T16:45:58.28Z</time></trkpt><trkpt lat="42.35606" lon="13.3354817"><ele>642.0</ele><time>2026-05-02T16:45:59.28Z</time></trkpt><trkpt lat="42.3561383" lon="13.3355467"><ele>642.0</ele><time>2026-05-02T16:46:00.28Z</time></trkpt><trkpt lat="42.3562167" lon="13.3356217"><ele>642.0</ele><time>2026-05-02T16:46:01.28Z</time></trkpt><trkpt lat="42.35631" lon="13.335695"><ele>642.0</ele><time>2026-05-02T16:46:02.28Z</time></trkpt><trkpt lat="42.356395" lon="13.3357683"><ele>642.0</ele><time>2026-05-02T16:46:03.28Z</time></trkpt><trkpt lat="42.3564667" lon="13.3358383"><ele>641.3333333333334</ele><time>2026-05-02T16:46:04.28Z</time></trkpt><trkpt lat="42.3565267" lon="13.335905"><ele>640.6666666666666</ele><time>2026-05-02T16:46:05.28Z</time></trkpt><trkpt lat="42.356585" lon="13.3359617"><ele>640.0</ele><time>2026-05-02T16:46:06.28Z</time></trkpt><trkpt lat="42.3566367" lon="13.3360183"><ele>639.3333333333333</ele><time>2026-05-02T16:46:07.28Z</time></trkpt><trkpt lat="42.3566917" lon="13.336065"><ele>638.6666666666666</ele><time>2026-05-02T16:46:08.28Z</time></trkpt><trkpt lat="42.3567483" lon="13.33611"><ele>638.0</ele><time>2026-05-02T16:46:09.28Z</time></trkpt><trkpt lat="42.356845" lon="13.3362"><ele>638.0</ele><time>2026-05-02T16:46:11.28Z</time></trkpt><trkpt lat="42.3569083" lon="13.33627"><ele>638.0</ele><time>2026-05-02T16:46:13.28Z</time></trkpt><trkpt lat="42.3569767" lon="13.3363217"><ele>638.0</ele><time>2026-05-02T16:46:16.281Z</time></trkpt><trkpt lat="42.357035" lon="13.3363983"><ele>638.0</ele><time>2026-05-02T16:46:18.28Z</time></trkpt><trkpt lat="42.35706" lon="13.3364783"><ele>638.0</ele><time>2026-05-02T16:46:19.28Z</time></trkpt><trkpt lat="42.3570683" lon="13.336585"><ele>638.0</ele><time>2026-05-02T16:46:20.28Z</time></trkpt><trkpt lat="42.3570517" lon="13.3366967"><ele>638.75</ele><time>2026-05-02T16:46:21.28Z</time></trkpt><trkpt lat="42.3570233" lon="13.33683"><ele>639.5</ele><time>2026-05-02T16:46:22.28Z</time></trkpt><trkpt lat="42.3569883" lon="13.3369933"><ele>640.25</ele><time>2026-05-02T16:46:23.28Z</time></trkpt><trkpt lat="42.356955" lon="13.3371567"><ele>641.0</ele><time>2026-05-02T16:46:24.28Z</time></trkpt><trkpt lat="42.3569217" lon="13.33731"><ele>641.25</ele><time>2026-05-02T16:46:25.28Z</time></trkpt><trkpt lat="42.3568967" lon="13.3374717"><ele>641.5</ele><time>2026-05-02T16:46:26.28Z</time></trkpt><trkpt lat="42.3568633" lon="13.3376367"><ele>641.75</ele><time>2026-05-02T16:46:27.28Z</time></trkpt><trkpt lat="42.3568267" lon="13.3378067"><ele>642.0</ele><time>2026-05-02T16:46:28.28Z</time></trkpt><trkpt lat="42.3567917" lon="13.3379633"><ele>642.5</ele><time>2026-05-02T16:46:29.28Z</time></trkpt><trkpt lat="42.356765" lon="13.33812"><ele>643.0</ele><time>2026-05-02T16:46:30.28Z</time></trkpt><trkpt lat="42.356735" lon="13.3382783"><ele>643.5</ele><time>2026-05-02T16:46:31.28Z</time></trkpt><trkpt lat="42.356705" lon="13.338445"><ele>644.0</ele><time>2026-05-02T16:46:32.28Z</time></trkpt><trkpt lat="42.3566683" lon="13.3386283"><ele>644.0</ele><time>2026-05-02T16:46:33.28Z</time></trkpt><trkpt lat="42.3566317" lon="13.3388017"><ele>644.0</ele><time>2026-05-02T16:46:34.28Z</time></trkpt><trkpt lat="42.3565983" lon="13.3389783"><ele>644.0</ele><time>2026-05-02T16:46:35.28Z</time></trkpt><trkpt lat="42.35656" lon="13.3391633"><ele>644.0</ele><time>2026-05-02T16:46:36.28Z</time></trkpt><trkpt lat="42.3565233" lon="13.339345"><ele>644.0</ele><time>2026-05-02T16:46:37.281Z</time></trkpt><trkpt lat="42.35649" lon="13.33952"><ele>644.0</ele><time>2026-05-02T16:46:38.28Z</time></trkpt><trkpt lat="42.3564483" lon="13.3396817"><ele>644.0</ele><time>2026-05-02T16:46:39.28Z</time></trkpt><trkpt lat="42.3564083" lon="13.33986"><ele>644.0</ele><time>2026-05-02T16:46:40.28Z</time></trkpt><trkpt lat="42.3563767" lon="13.3400433"><ele>642.75</ele><time>2026-05-02T16:46:41.28Z</time></trkpt><trkpt lat="42.3563433" lon="13.3402167"><ele>641.5</ele><time>2026-05-02T16:46:42.28Z</time></trkpt><trkpt lat="42.3563083" lon="13.3403983"><ele>640.25</ele><time>2026-05-02T16:46:43.28Z</time></trkpt><trkpt lat="42.35627" lon="13.3405833"><ele>639.0</ele><time>2026-05-02T16:46:44.28Z</time></trkpt><trkpt lat="42.3562417" lon="13.3407733"><ele>639.0</ele><time>2026-05-02T16:46:45.28Z</time></trkpt><trkpt lat="42.35621" lon="13.3409367"><ele>639.0</ele><time>2026-05-02T16:46:46.28Z</time></trkpt><trkpt lat="42.3561767" lon="13.3410933"><ele>639.0</ele><time>2026-05-02T16:46:47.28Z</time></trkpt><trkpt lat="42.3561483" lon="13.3412383"><ele>639.0</ele><time>2026-05-02T16:46:48.28Z</time></trkpt><trkpt lat="42.3561217" lon="13.3413683"><ele>639.0</ele><time>2026-05-02T16:46:49.28Z</time></trkpt><trkpt lat="42.3560983" lon="13.3415083"><ele>639.0</ele><time>2026-05-02T16:46:50.28Z</time></trkpt><trkpt lat="42.3560767" lon="13.3416467"><ele>639.0</ele><time>2026-05-02T16:46:51.28Z</time></trkpt><trkpt lat="42.3560483" lon="13.3418033"><ele>639.0</ele><time>2026-05-02T16:46:52.28Z</time></trkpt><trkpt lat="42.3560117" lon="13.3419767"><ele>639.0</ele><time>2026-05-02T16:46:53.281Z</time></trkpt><trkpt lat="42.35597" lon="13.3421583"><ele>639.0</ele><time>2026-05-02T16:46:54.28Z</time></trkpt><trkpt lat="42.3559333" lon="13.3423567"><ele>639.0</ele><time>2026-05-02T16:46:55.28Z</time></trkpt><trkpt lat="42.355895" lon="13.34256"><ele>639.0</ele><time>2026-05-02T16:46:56.28Z</time></trkpt><trkpt lat="42.3558567" lon="13.3427633"><ele>638.6666666666666</ele><time>2026-05-02T16:46:57.28Z</time></trkpt><trkpt lat="42.3558167" lon="13.3429717"><ele>638.3333333333333</ele><time>2026-05-02T16:46:58.28Z</time></trkpt><trkpt lat="42.35579" lon="13.3431617"><ele>638.0</ele><time>2026-05-02T16:46:59.28Z</time></trkpt><trkpt lat="42.3557683" lon="13.343365"><ele>638.0</ele><time>2026-05-02T16:47:00.28Z</time></trkpt><trkpt lat="42.355755" lon="13.343565"><ele>638.0</ele><time>2026-05-02T16:47:01.28Z</time></trkpt><trkpt lat="42.3557517" lon="13.343765"><ele>638.0</ele><time>2026-05-02T16:47:02.28Z</time></trkpt><trkpt lat="42.3557617" lon="13.343955"><ele>638.0</ele><time>2026-05-02T16:47:03.28Z</time></trkpt><trkpt lat="42.355785" lon="13.3441433"><ele>637.25</ele><time>2026-05-02T16:47:04.28Z</time></trkpt><trkpt lat="42.3558217" lon="13.3443367"><ele>636.5</ele><time>2026-05-02T16:47:05.28Z</time></trkpt><trkpt lat="42.3558617" lon="13.3445283"><ele>635.75</ele><time>2026-05-02T16:47:06.28Z</time></trkpt><trkpt lat="42.35591" lon="13.344715"><ele>635.0</ele><time>2026-05-02T16:47:07.28Z</time></trkpt><trkpt lat="42.3559483" lon="13.3448967"><ele>634.25</ele><time>2026-05-02T16:47:08.28Z</time></trkpt><trkpt lat="42.35599" lon="13.3450733"><ele>633.5</ele><time>2026-05-02T16:47:09.28Z</time></trkpt><trkpt lat="42.35603" lon="13.34524"><ele>632.75</ele><time>2026-05-02T16:47:10.28Z</time></trkpt><trkpt lat="42.3560733" lon="13.3454083"><ele>632.0</ele><time>2026-05-02T16:47:11.28Z</time></trkpt><trkpt lat="42.3561133" lon="13.345585"><ele>632.0</ele><time>2026-05-02T16:47:12.28Z</time></trkpt><trkpt lat="42.3561533" lon="13.345755"><ele>632.0</ele><time>2026-05-02T16:47:13.28Z</time></trkpt><trkpt lat="42.3561967" lon="13.34594"><ele>632.0</ele><time>2026-05-02T16:47:14.28Z</time></trkpt><trkpt lat="42.3562333" lon="13.3461167"><ele>632.0</ele><time>2026-05-02T16:47:15.28Z</time></trkpt><trkpt lat="42.35628" lon="13.346305"><ele>632.0</ele><time>2026-05-02T16:47:16.281Z</time></trkpt><trkpt lat="42.3563183" lon="13.3464883"><ele>632.0</ele><time>2026-05-02T16:47:17.28Z</time></trkpt><trkpt lat="42.3563617" lon="13.3466783"><ele>632.0</ele><time>2026-05-02T16:47:18.28Z</time></trkpt><trkpt lat="42.356405" lon="13.34686"><ele>632.0</ele><time>2026-05-02T16:47:19.28Z</time></trkpt><trkpt lat="42.3564517" lon="13.3470433"><ele>633.25</ele><time>2026-05-02T16:47:20.28Z</time></trkpt><trkpt lat="42.356495" lon="13.3472217"><ele>634.5</ele><time>2026-05-02T16:47:21.28Z</time></trkpt><trkpt lat="42.3565333" lon="13.3473967"><ele>635.75</ele><time>2026-05-02T16:47:22.28Z</time></trkpt><trkpt lat="42.3565727" lon="13.3475704"><ele>637.0</ele><time>2026-05-02T16:47:23.28Z</time></trkpt><trkpt lat="42.3566166" lon="13.3477424"><ele>637.0</ele><time>2026-05-02T16:47:24.28Z</time></trkpt><trkpt lat="42.3566611" lon="13.347915"><ele>637.0</ele><time>2026-05-02T16:47:25.28Z</time></trkpt><trkpt lat="42.3567073" lon="13.3480835"><ele>637.0</ele><time>2026-05-02T16:47:26.28Z</time></trkpt><trkpt lat="42.3567481" lon="13.3482446"><ele>637.0</ele><time>2026-05-02T16:47:27.28Z</time></trkpt><trkpt lat="42.3567866" lon="13.3483889"><ele>636.4</ele><time>2026-05-02T16:47:28.28Z</time></trkpt><trkpt lat="42.3568197" lon="13.3485243"><ele>635.8000000000001</ele><time>2026-05-02T16:47:29.28Z</time></trkpt><trkpt lat="42.3568555" lon="13.3486501"><ele>635.2</ele><time>2026-05-02T16:47:30.28Z</time></trkpt><trkpt lat="42.3568869" lon="13.3487692"><ele>634.6</ele><time>2026-05-02T16:47:31.281Z</time></trkpt><trkpt lat="42.3569133" lon="13.3488899"><ele>634.0</ele><time>2026-05-02T16:47:32.28Z</time></trkpt><trkpt lat="42.3569369" lon="13.3490101"><ele>633.8333333333334</ele><time>2026-05-02T16:47:33.28Z</time></trkpt><trkpt lat="42.3569608" lon="13.3491246"><ele>633.6666666666667</ele><time>2026-05-02T16:47:34.28Z</time></trkpt><trkpt lat="42.3569786" lon="13.3492345"><ele>633.5</ele><time>2026-05-02T16:47:35.28Z</time></trkpt><trkpt lat="42.3569857" lon="13.3493473"><ele>633.3333333333334</ele><time>2026-05-02T16:47:36.28Z</time></trkpt><trkpt lat="42.35698" lon="13.34947"><ele>633.1666666666666</ele><time>2026-05-02T16:47:37.28Z</time></trkpt><trkpt lat="42.3569585" lon="13.3495918"><ele>633.0</ele><time>2026-05-02T16:47:38.28Z</time></trkpt><trkpt lat="42.3569185" lon="13.3497138"><ele>632.6666666666666</ele><time>2026-05-02T16:47:39.28Z</time></trkpt><trkpt lat="42.3569068" lon="13.3498342"><ele>632.3333333333334</ele><time>2026-05-02T16:47:40.28Z</time></trkpt><trkpt lat="42.3569121" lon="13.3499548"><ele>632.0</ele><time>2026-05-02T16:47:41.28Z</time></trkpt><trkpt lat="42.3569464" lon="13.3500647"><ele>631.6666666666667</ele><time>2026-05-02T16:47:42.28Z</time></trkpt><trkpt lat="42.3569983" lon="13.3501566"><ele>631.3333333333334</ele><time>2026-05-02T16:47:43.28Z</time></trkpt><trkpt lat="42.3570656" lon="13.3502263"><ele>631.0</ele><time>2026-05-02T16:47:44.28Z</time></trkpt><trkpt lat="42.357142" lon="13.350275"><ele>631.6</ele><time>2026-05-02T16:47:45.28Z</time></trkpt><trkpt lat="42.3572328" lon="13.3502907"><ele>632.2</ele><time>2026-05-02T16:47:46.28Z</time></trkpt><trkpt lat="42.3573356" lon="13.3502873"><ele>632.8</ele><time>2026-05-02T16:47:47.28Z</time></trkpt><trkpt lat="42.3574419" lon="13.3502889"><ele>633.4</ele><time>2026-05-02T16:47:48.28Z</time></trkpt><trkpt lat="42.3575477" lon="13.3503232"><ele>634.0</ele><time>2026-05-02T16:47:49.28Z</time></trkpt><trkpt lat="42.3576395" lon="13.3503776"><ele>634.0</ele><time>2026-05-02T16:47:50.28Z</time></trkpt><trkpt lat="42.3577238" lon="13.3504477"><ele>634.0</ele><time>2026-05-02T16:47:51.28Z</time></trkpt><trkpt lat="42.3577993" lon="13.3505279"><ele>634.0</ele><time>2026-05-02T16:47:52.28Z</time></trkpt><trkpt lat="42.3578725" lon="13.3506195"><ele>634.0</ele><time>2026-05-02T16:47:53.28Z</time></trkpt><trkpt lat="42.3579414" lon="13.3507152"><ele>634.0</ele><time>2026-05-02T16:47:54.28Z</time></trkpt><trkpt lat="42.3579983" lon="13.3508167"><ele>633.1666666666667</ele><time>2026-05-02T16:47:55.28Z</time></trkpt><trkpt lat="42.3580583" lon="13.3509017"><ele>632.3333333333334</ele><time>2026-05-02T16:47:56.28Z</time></trkpt><trkpt lat="42.3581133" lon="13.3509867"><ele>631.5</ele><time>2026-05-02T16:47:57.281Z</time></trkpt><trkpt lat="42.3581633" lon="13.351065"><ele>630.6666666666666</ele><time>2026-05-02T16:47:58.28Z</time></trkpt><trkpt lat="42.3582033" lon="13.35115"><ele>629.8333333333333</ele><time>2026-05-02T16:47:59.28Z</time></trkpt><trkpt lat="42.35825" lon="13.3512183"><ele>629.0</ele><time>2026-05-02T16:48:00.28Z</time></trkpt><trkpt lat="42.358295" lon="13.351295"><ele>629.0</ele><time>2026-05-02T16:48:01.28Z</time></trkpt><trkpt lat="42.358335" lon="13.3513667"><ele>629.0</ele><time>2026-05-02T16:48:02.28Z</time></trkpt><trkpt lat="42.3583783" lon="13.3514483"><ele>629.0</ele><time>2026-05-02T16:48:03.28Z</time></trkpt><trkpt lat="42.3584333" lon="13.3515333"><ele>629.0</ele><time>2026-05-02T16:48:04.28Z</time></trkpt><trkpt lat="42.3584783" lon="13.35163"><ele>629.0</ele><time>2026-05-02T16:48:05.28Z</time></trkpt><trkpt lat="42.3585217" lon="13.351705"><ele>629.0</ele><time>2026-05-02T16:48:06.28Z</time></trkpt><trkpt lat="42.3585567" lon="13.3517767"><ele>629.0</ele><time>2026-05-02T16:48:07.28Z</time></trkpt><trkpt lat="42.358615" lon="13.3519033"><ele>628.8333333333333</ele><time>2026-05-02T16:48:09.28Z</time></trkpt><trkpt lat="42.3586567" lon="13.352045"><ele>628.6666666666666</ele><time>2026-05-02T16:48:11.28Z</time></trkpt><trkpt lat="42.358675" lon="13.352135"><ele>628.5</ele><time>2026-05-02T16:48:12.28Z</time></trkpt><trkpt lat="42.3586883" lon="13.3522433"><ele>628.3333333333334</ele><time>2026-05-02T16:48:13.28Z</time></trkpt><trkpt lat="42.3587" lon="13.3523683"><ele>628.1666666666667</ele><time>2026-05-02T16:48:14.28Z</time></trkpt><trkpt lat="42.3587167" lon="13.3524733"><ele>628.0</ele><time>2026-05-02T16:48:15.28Z</time></trkpt><trkpt lat="42.358755" lon="13.35257"><ele>628.0</ele><time>2026-05-02T16:48:16.28Z</time></trkpt><trkpt lat="42.3588083" lon="13.3526833"><ele>628.0</ele><time>2026-05-02T16:48:17.28Z</time></trkpt><trkpt lat="42.3588717" lon="13.3528083"><ele>628.0</ele><time>2026-05-02T16:48:18.281Z</time></trkpt><trkpt lat="42.3589217" lon="13.352945"><ele>628.0</ele><time>2026-05-02T16:48:19.28Z</time></trkpt><trkpt lat="42.3589617" lon="13.3530717"><ele>628.0</ele><time>2026-05-02T16:48:20.28Z</time></trkpt><trkpt lat="42.3589983" lon="13.3531983"><ele>628.0</ele><time>2026-05-02T16:48:21.281Z</time></trkpt><trkpt lat="42.3590333" lon="13.3533267"><ele>628.0</ele><time>2026-05-02T16:48:22.28Z</time></trkpt><trkpt lat="42.35907" lon="13.3534567"><ele>628.0</ele><time>2026-05-02T16:48:23.28Z</time></trkpt><trkpt lat="42.359105" lon="13.353595"><ele>628.0</ele><time>2026-05-02T16:48:24.28Z</time></trkpt><trkpt lat="42.3591433" lon="13.35373"><ele>628.0</ele><time>2026-05-02T16:48:25.28Z</time></trkpt><trkpt lat="42.3591817" lon="13.353875"><ele>628.0</ele><time>2026-05-02T16:48:26.28Z</time></trkpt><trkpt lat="42.359215" lon="13.3540117"><ele>628.0</ele><time>2026-05-02T16:48:27.28Z</time></trkpt><trkpt lat="42.35925" lon="13.3541383"><ele>628.0</ele><time>2026-05-02T16:48:28.28Z</time></trkpt><trkpt lat="42.359285" lon="13.3542583"><ele>628.0</ele><time>2026-05-02T16:48:29.28Z</time></trkpt><trkpt lat="42.35932" lon="13.3543883"><ele>628.0</ele><time>2026-05-02T16:48:30.281Z</time></trkpt><trkpt lat="42.3593517" lon="13.3545183"><ele>628.0</ele><time>2026-05-02T16:48:31.28Z</time></trkpt><trkpt lat="42.35939" lon="13.35465"><ele>628.0</ele><time>2026-05-02T16:48:32.28Z</time></trkpt><trkpt lat="42.35943" lon="13.3547867"><ele>628.0</ele><time>2026-05-02T16:48:33.28Z</time></trkpt><trkpt lat="42.3594683" lon="13.35493"><ele>628.0</ele><time>2026-05-02T16:48:34.28Z</time></trkpt><trkpt lat="42.3595033" lon="13.3550717"><ele>628.0</ele><time>2026-05-02T16:48:35.28Z</time></trkpt><trkpt lat="42.3595433" lon="13.3552067"><ele>628.0</ele><time>2026-05-02T16:48:36.28Z</time></trkpt><trkpt lat="42.3595817" lon="13.355335"><ele>628.0</ele><time>2026-05-02T16:48:37.28Z</time></trkpt><trkpt lat="42.3596167" lon="13.355465"><ele>628.0</ele><time>2026-05-02T16:48:38.28Z</time></trkpt><trkpt lat="42.359645" lon="13.3555933"><ele>628.0</ele><time>2026-05-02T16:48:39.28Z</time></trkpt><trkpt lat="42.35968" lon="13.3557133"><ele>628.0</ele><time>2026-05-02T16:48:40.28Z</time></trkpt><trkpt lat="42.35972" lon="13.3558517"><ele>627.5</ele><time>2026-05-02T16:48:41.28Z</time></trkpt><trkpt lat="42.3597583" lon="13.3560017"><ele>627.0</ele><time>2026-05-02T16:48:42.28Z</time></trkpt><trkpt lat="42.3598033" lon="13.35615"><ele>626.5</ele><time>2026-05-02T16:48:43.28Z</time></trkpt><trkpt lat="42.3598367" lon="13.3563133"><ele>626.0</ele><time>2026-05-02T16:48:44.28Z</time></trkpt><trkpt lat="42.359875" lon="13.3564717"><ele>626.0</ele><time>2026-05-02T16:48:45.281Z</time></trkpt><trkpt lat="42.359915" lon="13.35662"><ele>626.0</ele><time>2026-05-02T16:48:46.28Z</time></trkpt><trkpt lat="42.35995" lon="13.356765"><ele>626.0</ele><time>2026-05-02T16:48:47.28Z</time></trkpt><trkpt lat="42.35998" lon="13.35692"><ele>626.0</ele><time>2026-05-02T16:48:48.28Z</time></trkpt><trkpt lat="42.360005" lon="13.3570817"><ele>626.25</ele><time>2026-05-02T16:48:49.28Z</time></trkpt><trkpt lat="42.3600283" lon="13.3572417"><ele>626.5</ele><time>2026-05-02T16:48:50.28Z</time></trkpt><trkpt lat="42.3600333" lon="13.3574033"><ele>626.75</ele><time>2026-05-02T16:48:51.28Z</time></trkpt><trkpt lat="42.36003" lon="13.35755"><ele>627.0</ele><time>2026-05-02T16:48:52.28Z</time></trkpt><trkpt lat="42.3600283" lon="13.3577"><ele>627.0</ele><time>2026-05-02T16:48:53.28Z</time></trkpt><trkpt lat="42.36002" lon="13.35785"><ele>627.0</ele><time>2026-05-02T16:48:54.281Z</time></trkpt><trkpt lat="42.3600067" lon="13.358005"><ele>627.0</ele><time>2026-05-02T16:48:55.281Z</time></trkpt><trkpt lat="42.3599933" lon="13.358155"><ele>627.0</ele><time>2026-05-02T16:48:56.28Z</time></trkpt><trkpt lat="42.3599767" lon="13.3583167"><ele>626.75</ele><time>2026-05-02T16:48:57.28Z</time></trkpt><trkpt lat="42.3599483" lon="13.35847"><ele>626.5</ele><time>2026-05-02T16:48:58.28Z</time></trkpt><trkpt lat="42.3599167" lon="13.3586133"><ele>626.25</ele><time>2026-05-02T16:48:59.28Z</time></trkpt><trkpt lat="42.35988" lon="13.3587767"><ele>626.0</ele><time>2026-05-02T16:49:00.28Z</time></trkpt><trkpt lat="42.3598367" lon="13.3589383"><ele>625.5</ele><time>2026-05-02T16:49:01.281Z</time></trkpt><trkpt lat="42.35979" lon="13.3591067"><ele>625.0</ele><time>2026-05-02T16:49:02.28Z</time></trkpt><trkpt lat="42.359735" lon="13.3592883"><ele>624.5</ele><time>2026-05-02T16:49:03.28Z</time></trkpt><trkpt lat="42.3596783" lon="13.3594833"><ele>624.0</ele><time>2026-05-02T16:49:04.281Z</time></trkpt><trkpt lat="42.35962" lon="13.3596967"><ele>625.0</ele><time>2026-05-02T16:49:05.28Z</time></trkpt><trkpt lat="42.3595633" lon="13.3599083"><ele>626.0</ele><time>2026-05-02T16:49:06.28Z</time></trkpt><trkpt lat="42.35951" lon="13.3601117"><ele>627.0</ele><time>2026-05-02T16:49:07.28Z</time></trkpt><trkpt lat="42.3594583" lon="13.3603033"><ele>627.0</ele><time>2026-05-02T16:49:08.28Z</time></trkpt><trkpt lat="42.3594083" lon="13.3604817"><ele>627.0</ele><time>2026-05-02T16:49:09.281Z</time></trkpt><trkpt lat="42.3593567" lon="13.3606417"><ele>627.0</ele><time>2026-05-02T16:49:10.28Z</time></trkpt><trkpt lat="42.3593117" lon="13.3607933"><ele>627.0</ele><time>2026-05-02T16:49:11.28Z</time></trkpt><trkpt lat="42.3592683" lon="13.3609417"><ele>627.2</ele><time>2026-05-02T16:49:12.28Z</time></trkpt><trkpt lat="42.3592283" lon="13.3610767"><ele>627.4000000000001</ele><time>2026-05-02T16:49:13.28Z</time></trkpt><trkpt lat="42.3591917" lon="13.361195"><ele>627.5999999999999</ele><time>2026-05-02T16:49:14.28Z</time></trkpt><trkpt lat="42.3591567" lon="13.361315"><ele>627.8</ele><time>2026-05-02T16:49:15.28Z</time></trkpt><trkpt lat="42.3591233" lon="13.3614383"><ele>628.0</ele><time>2026-05-02T16:49:16.28Z</time></trkpt><trkpt lat="42.3590833" lon="13.3615733"><ele>629.1999999999999</ele><time>2026-05-02T16:49:17.28Z</time></trkpt><trkpt lat="42.3590417" lon="13.361705"><ele>630.4</ele><time>2026-05-02T16:49:18.28Z</time></trkpt><trkpt lat="42.3589983" lon="13.3618233"><ele>631.5999999999999</ele><time>2026-05-02T16:49:19.28Z</time></trkpt><trkpt lat="42.3589583" lon="13.3619283"><ele>632.8</ele><time>2026-05-02T16:49:20.28Z</time></trkpt><trkpt lat="42.35893" lon="13.362045"><ele>634.0</ele><time>2026-05-02T16:49:21.28Z</time></trkpt><trkpt lat="42.3588983" lon="13.36215"><ele>632.6666666666667</ele><time>2026-05-02T16:49:22.28Z</time></trkpt><trkpt lat="42.358865" lon="13.3622667"><ele>631.3333333333334</ele><time>2026-05-02T16:49:23.28Z</time></trkpt><trkpt lat="42.3588317" lon="13.362375"><ele>630.0</ele><time>2026-05-02T16:49:24.28Z</time></trkpt><trkpt lat="42.35881" lon="13.3624817"><ele>628.6666666666666</ele><time>2026-05-02T16:49:25.28Z</time></trkpt><trkpt lat="42.35878" lon="13.3625883"><ele>627.3333333333333</ele><time>2026-05-02T16:49:26.28Z</time></trkpt><trkpt lat="42.358745" lon="13.3626967"><ele>626.0</ele><time>2026-05-02T16:49:27.28Z</time></trkpt><trkpt lat="42.3587133" lon="13.3627983"><ele>626.0</ele><time>2026-05-02T16:49:28.28Z</time></trkpt><trkpt lat="42.35868" lon="13.3629"><ele>626.0</ele><time>2026-05-02T16:49:29.28Z</time></trkpt><trkpt lat="42.3586467" lon="13.3630117"><ele>626.0</ele><time>2026-05-02T16:49:30.28Z</time></trkpt><trkpt lat="42.35861" lon="13.3631283"><ele>626.0</ele><time>2026-05-02T16:49:31.28Z</time></trkpt><trkpt lat="42.3585683" lon="13.3632617"><ele>626.0</ele><time>2026-05-02T16:49:32.28Z</time></trkpt><trkpt lat="42.35853" lon="13.36339"><ele>626.5</ele><time>2026-05-02T16:49:33.28Z</time></trkpt><trkpt lat="42.3584867" lon="13.36353"><ele>627.0</ele><time>2026-05-02T16:49:34.28Z</time></trkpt><trkpt lat="42.3584433" lon="13.3636833"><ele>627.5</ele><time>2026-05-02T16:49:35.28Z</time></trkpt><trkpt lat="42.3583983" lon="13.3638433"><ele>628.0</ele><time>2026-05-02T16:49:36.281Z</time></trkpt><trkpt lat="42.35836" lon="13.3639917"><ele>628.4</ele><time>2026-05-02T16:49:37.28Z</time></trkpt><trkpt lat="42.358323" lon="13.3641367"><ele>628.8</ele><time>2026-05-02T16:49:38.28Z</time></trkpt><trkpt lat="42.3582939" lon="13.3642732"><ele>629.2</ele><time>2026-05-02T16:49:39.28Z</time></trkpt><trkpt lat="42.3582656" lon="13.3644029"><ele>629.6</ele><time>2026-05-02T16:49:40.28Z</time></trkpt><trkpt lat="42.3582457" lon="13.3645247"><ele>630.0</ele><time>2026-05-02T16:49:41.281Z</time></trkpt><trkpt lat="42.3582301" lon="13.3646546"><ele>629.75</ele><time>2026-05-02T16:49:42.28Z</time></trkpt><trkpt lat="42.3582195" lon="13.3648014"><ele>629.5</ele><time>2026-05-02T16:49:43.28Z</time></trkpt><trkpt lat="42.35821" lon="13.3649537"><ele>629.25</ele><time>2026-05-02T16:49:44.28Z</time></trkpt><trkpt lat="42.3582035" lon="13.3651142"><ele>629.0</ele><time>2026-05-02T16:49:45.28Z</time></trkpt><trkpt lat="42.3581985" lon="13.3652853"><ele>629.0</ele><time>2026-05-02T16:49:46.28Z</time></trkpt><trkpt lat="42.3582" lon="13.3654688"><ele>629.0</ele><time>2026-05-02T16:49:47.28Z</time></trkpt><trkpt lat="42.3582145" lon="13.3656573"><ele>629.0</ele><time>2026-05-02T16:49:48.28Z</time></trkpt><trkpt lat="42.3582399" lon="13.3658349"><ele>629.0</ele><time>2026-05-02T16:49:49.28Z</time></trkpt><trkpt lat="42.3582763" lon="13.3660065"><ele>628.75</ele><time>2026-05-02T16:49:50.28Z</time></trkpt><trkpt lat="42.358326" lon="13.3661771"><ele>628.5</ele><time>2026-05-02T16:49:51.28Z</time></trkpt><trkpt lat="42.3583814" lon="13.3663469"><ele>628.25</ele><time>2026-05-02T16:49:52.28Z</time></trkpt><trkpt lat="42.3584397" lon="13.3665038"><ele>628.0</ele><time>2026-05-02T16:49:53.28Z</time></trkpt><trkpt lat="42.3584999" lon="13.3666412"><ele>628.0</ele><time>2026-05-02T16:49:54.28Z</time></trkpt><trkpt lat="42.3585609" lon="13.3667644"><ele>628.0</ele><time>2026-05-02T16:49:55.28Z</time></trkpt><trkpt lat="42.3586225" lon="13.3668865"><ele>628.0</ele><time>2026-05-02T16:49:56.28Z</time></trkpt><trkpt lat="42.358678" lon="13.3670066"><ele>628.0</ele><time>2026-05-02T16:49:57.28Z</time></trkpt><trkpt lat="42.3587312" lon="13.3671309"><ele>628.0</ele><time>2026-05-02T16:49:58.28Z</time></trkpt><trkpt lat="42.3587847" lon="13.3672534"><ele>628.1666666666667</ele><time>2026-05-02T16:49:59.28Z</time></trkpt><trkpt lat="42.3588337" lon="13.3673707"><ele>628.3333333333334</ele><time>2026-05-02T16:50:00.28Z</time></trkpt><trkpt lat="42.3588777" lon="13.3674814"><ele>628.5</ele><time>2026-05-02T16:50:01.28Z</time></trkpt><trkpt lat="42.3589125" lon="13.3675885"><ele>628.6666666666666</ele><time>2026-05-02T16:50:02.28Z</time></trkpt><trkpt lat="42.3589396" lon="13.3676895"><ele>628.8333333333333</ele><time>2026-05-02T16:50:03.28Z</time></trkpt><trkpt lat="42.358965" lon="13.3677918"><ele>629.0</ele><time>2026-05-02T16:50:04.28Z</time></trkpt><trkpt lat="42.3589883" lon="13.3679038"><ele>629.0</ele><time>2026-05-02T16:50:05.28Z</time></trkpt><trkpt lat="42.3590135" lon="13.3680255"><ele>629.0</ele><time>2026-05-02T16:50:06.28Z</time></trkpt><trkpt lat="42.3590472" lon="13.3681491"><ele>629.0</ele><time>2026-05-02T16:50:07.28Z</time></trkpt><trkpt lat="42.3590813" lon="13.3682685"><ele>629.0</ele><time>2026-05-02T16:50:08.281Z</time></trkpt><trkpt lat="42.359104" lon="13.3683748"><ele>629.0</ele><time>2026-05-02T16:50:09.28Z</time></trkpt><trkpt lat="42.3591227" lon="13.3684752"><ele>629.0</ele><time>2026-05-02T16:50:10.28Z</time></trkpt><trkpt lat="42.3591267" lon="13.368585"><ele>629.0</ele><time>2026-05-02T16:50:11.28Z</time></trkpt><trkpt lat="42.359145" lon="13.3686967"><ele>629.0</ele><time>2026-05-02T16:50:12.28Z</time></trkpt><trkpt lat="42.3591583" lon="13.3688117"><ele>629.0</ele><time>2026-05-02T16:50:13.28Z</time></trkpt><trkpt lat="42.35918" lon="13.3689"><ele>629.0</ele><time>2026-05-02T16:50:14.28Z</time></trkpt><trkpt lat="42.359205" lon="13.36905"><ele>629.0</ele><time>2026-05-02T16:50:16.28Z</time></trkpt><trkpt lat="42.3592283" lon="13.36921"><ele>629.2</ele><time>2026-05-02T16:50:18.28Z</time></trkpt><trkpt lat="42.3592583" lon="13.369365"><ele>629.4</ele><time>2026-05-02T16:50:20.28Z</time></trkpt><trkpt lat="42.359275" lon="13.3694867"><ele>629.6</ele><time>2026-05-02T16:50:22.28Z</time></trkpt><trkpt lat="42.35929" lon="13.369595"><ele>629.8</ele><time>2026-05-02T16:50:24.28Z</time></trkpt><trkpt lat="42.35931" lon="13.36971"><ele>630.0</ele><time>2026-05-02T16:50:26.28Z</time></trkpt><trkpt lat="42.3593283" lon="13.3698617"><ele>630.4</ele><time>2026-05-02T16:50:28.28Z</time></trkpt><trkpt lat="42.359335" lon="13.3699583"><ele>630.8</ele><time>2026-05-02T16:50:29.28Z</time></trkpt><trkpt lat="42.3593517" lon="13.3700567"><ele>631.2</ele><time>2026-05-02T16:50:30.28Z</time></trkpt><trkpt lat="42.3593683" lon="13.37019"><ele>631.6</ele><time>2026-05-02T16:50:31.28Z</time></trkpt><trkpt lat="42.3593967" lon="13.3703367"><ele>632.0</ele><time>2026-05-02T16:50:32.28Z</time></trkpt><trkpt lat="42.3594167" lon="13.3704833"><ele>632.8333333333333</ele><time>2026-05-02T16:50:33.28Z</time></trkpt><trkpt lat="42.3594433" lon="13.3706033"><ele>633.6666666666666</ele><time>2026-05-02T16:50:34.28Z</time></trkpt><trkpt lat="42.35946" lon="13.370725"><ele>634.5</ele><time>2026-05-02T16:50:35.28Z</time></trkpt><trkpt lat="42.3594683" lon="13.3708417"><ele>635.3333333333334</ele><time>2026-05-02T16:50:36.28Z</time></trkpt><trkpt lat="42.359485" lon="13.37094"><ele>636.1666666666667</ele><time>2026-05-02T16:50:37.281Z</time></trkpt><trkpt lat="42.3595033" lon="13.3710267"><ele>637.0</ele><time>2026-05-02T16:50:38.28Z</time></trkpt><trkpt lat="42.3595383" lon="13.3711833"><ele>637.0</ele><time>2026-05-02T16:50:40.28Z</time></trkpt><trkpt lat="42.3595533" lon="13.37127"><ele>637.0</ele><time>2026-05-02T16:50:41.28Z</time></trkpt><trkpt lat="42.3595633" lon="13.3713817"><ele>637.0</ele><time>2026-05-02T16:50:42.281Z</time></trkpt><trkpt lat="42.3595767" lon="13.3715183"><ele>637.0</ele><time>2026-05-02T16:50:43.28Z</time></trkpt><trkpt lat="42.3595983" lon="13.3716633"><ele>637.0</ele><time>2026-05-02T16:50:44.28Z</time></trkpt><trkpt lat="42.359625" lon="13.3718233"><ele>637.25</ele><time>2026-05-02T16:50:45.28Z</time></trkpt><trkpt lat="42.359655" lon="13.3719767"><ele>637.5</ele><time>2026-05-02T16:50:46.28Z</time></trkpt><trkpt lat="42.3596783" lon="13.3721467"><ele>637.75</ele><time>2026-05-02T16:50:47.28Z</time></trkpt><trkpt lat="42.3597" lon="13.37231"><ele>638.0</ele><time>2026-05-02T16:50:48.28Z</time></trkpt><trkpt lat="42.3597233" lon="13.37246"><ele>638.5999999999999</ele><time>2026-05-02T16:50:49.28Z</time></trkpt><trkpt lat="42.3597417" lon="13.3726133"><ele>639.1999999999999</ele><time>2026-05-02T16:50:50.28Z</time></trkpt><trkpt lat="42.3597633" lon="13.372755"><ele>639.8</ele><time>2026-05-02T16:50:51.28Z</time></trkpt><trkpt lat="42.3597867" lon="13.3728733"><ele>640.4</ele><time>2026-05-02T16:50:52.28Z</time></trkpt><trkpt lat="42.3598033" lon="13.372985"><ele>641.0</ele><time>2026-05-02T16:50:53.28Z</time></trkpt><trkpt lat="42.35982" lon="13.373105"><ele>641.5999999999999</ele><time>2026-05-02T16:50:54.28Z</time></trkpt><trkpt lat="42.359845" lon="13.3732317"><ele>642.2</ele><time>2026-05-02T16:50:55.28Z</time></trkpt><trkpt lat="42.3598683" lon="13.3733633"><ele>642.8</ele><time>2026-05-02T16:50:56.28Z</time></trkpt><trkpt lat="42.3598933" lon="13.37348"><ele>643.4000000000001</ele><time>2026-05-02T16:50:57.28Z</time></trkpt><trkpt lat="42.3599083" lon="13.3735983"><ele>644.0</ele><time>2026-05-02T16:50:58.28Z</time></trkpt><trkpt lat="42.3599233" lon="13.3737017"><ele>644.0</ele><time>2026-05-02T16:50:59.28Z</time></trkpt><trkpt lat="42.3599433" lon="13.3738"><ele>644.0</ele><time>2026-05-02T16:51:00.28Z</time></trkpt><trkpt lat="42.35996" lon="13.373895"><ele>644.0</ele><time>2026-05-02T16:51:01.28Z</time></trkpt><trkpt lat="42.35999" lon="13.3740033"><ele>644.0</ele><time>2026-05-02T16:51:02.28Z</time></trkpt><trkpt lat="42.3600117" lon="13.374145"><ele>644.0</ele><time>2026-05-02T16:51:03.28Z</time></trkpt><trkpt lat="42.3600233" lon="13.3743083"><ele>644.2</ele><time>2026-05-02T16:51:04.28Z</time></trkpt><trkpt lat="42.3600417" lon="13.3744583"><ele>644.4000000000001</ele><time>2026-05-02T16:51:05.28Z</time></trkpt><trkpt lat="42.3600567" lon="13.3745983"><ele>644.6</ele><time>2026-05-02T16:51:06.28Z</time></trkpt><trkpt lat="42.360075" lon="13.374745"><ele>644.8</ele><time>2026-05-02T16:51:07.281Z</time></trkpt><trkpt lat="42.360095" lon="13.3748917"><ele>645.0</ele><time>2026-05-02T16:51:08.28Z</time></trkpt><trkpt lat="42.36011" lon="13.3750467"><ele>645.25</ele><time>2026-05-02T16:51:09.28Z</time></trkpt><trkpt lat="42.3601283" lon="13.3752067"><ele>645.5</ele><time>2026-05-02T16:51:10.28Z</time></trkpt><trkpt lat="42.36015" lon="13.37537"><ele>645.75</ele><time>2026-05-02T16:51:11.28Z</time></trkpt><trkpt lat="42.3601783" lon="13.37552"><ele>646.0</ele><time>2026-05-02T16:51:12.28Z</time></trkpt><trkpt lat="42.3601917" lon="13.375655"><ele>646.4</ele><time>2026-05-02T16:51:13.28Z</time></trkpt><trkpt lat="42.3602083" lon="13.3757517"><ele>646.8</ele><time>2026-05-02T16:51:14.28Z</time></trkpt><trkpt lat="42.3602333" lon="13.3758367"><ele>647.1999999999999</ele><time>2026-05-02T16:51:16.28Z</time></trkpt><trkpt lat="42.3602633" lon="13.37596"><ele>647.5999999999999</ele><time>2026-05-02T16:51:26.281Z</time></trkpt><trkpt lat="42.360285" lon="13.37612"><ele>648.0</ele><time>2026-05-02T16:51:28.28Z</time></trkpt><trkpt lat="42.3603083" lon="13.3762433"><ele>648.4</ele><time>2026-05-02T16:51:29.281Z</time></trkpt><trkpt lat="42.3603267" lon="13.3763833"><ele>648.8</ele><time>2026-05-02T16:51:30.28Z</time></trkpt><trkpt lat="42.3603417" lon="13.3765283"><ele>649.2</ele><time>2026-05-02T16:51:31.28Z</time></trkpt><trkpt lat="42.360355" lon="13.3766783"><ele>649.6</ele><time>2026-05-02T16:51:32.28Z</time></trkpt><trkpt lat="42.3603717" lon="13.376835"><ele>650.0</ele><time>2026-05-02T16:51:33.28Z</time></trkpt><trkpt lat="42.3603767" lon="13.37698"><ele>650.0</ele><time>2026-05-02T16:51:34.28Z</time></trkpt><trkpt lat="42.3603783" lon="13.3771217"><ele>650.0</ele><time>2026-05-02T16:51:35.28Z</time></trkpt><trkpt lat="42.3603867" lon="13.3772333"><ele>650.0</ele><time>2026-05-02T16:51:36.28Z</time></trkpt><trkpt lat="42.3603967" lon="13.37734"><ele>650.0</ele><time>2026-05-02T16:51:37.28Z</time></trkpt><trkpt lat="42.360395" lon="13.377455"><ele>650.0</ele><time>2026-05-02T16:51:38.281Z</time></trkpt><trkpt lat="42.3603933" lon="13.37759"><ele>650.0</ele><time>2026-05-02T16:51:39.28Z</time></trkpt><trkpt lat="42.3603833" lon="13.37776"><ele>650.0</ele><time>2026-05-02T16:51:40.28Z</time></trkpt><trkpt lat="42.3603767" lon="13.3779183"><ele>650.0</ele><time>2026-05-02T16:51:41.28Z</time></trkpt><trkpt lat="42.3603667" lon="13.3780583"><ele>650.0</ele><time>2026-05-02T16:51:42.28Z</time></trkpt><trkpt lat="42.360355" lon="13.3781917"><ele>650.0</ele><time>2026-05-02T16:51:43.28Z</time></trkpt><trkpt lat="42.36034" lon="13.3783333"><ele>650.2</ele><time>2026-05-02T16:51:44.281Z</time></trkpt><trkpt lat="42.36031" lon="13.37849"><ele>650.4</ele><time>2026-05-02T16:51:45.28Z</time></trkpt><trkpt lat="42.36028" lon="13.3786367"><ele>650.5999999999999</ele><time>2026-05-02T16:51:46.281Z</time></trkpt><trkpt lat="42.3602433" lon="13.378775"><ele>650.8</ele><time>2026-05-02T16:51:47.28Z</time></trkpt><trkpt lat="42.3602083" lon="13.3789033"><ele>651.0</ele><time>2026-05-02T16:51:48.28Z</time></trkpt><trkpt lat="42.36017" lon="13.37902"><ele>651.1666666666666</ele><time>2026-05-02T16:51:49.28Z</time></trkpt><trkpt lat="42.3601417" lon="13.3791233"><ele>651.3333333333334</ele><time>2026-05-02T16:51:50.28Z</time></trkpt><trkpt lat="42.3601117" lon="13.3792167"><ele>651.5</ele><time>2026-05-02T16:51:51.28Z</time></trkpt><trkpt lat="42.3600783" lon="13.3792983"><ele>651.6666666666667</ele><time>2026-05-02T16:51:52.28Z</time></trkpt><trkpt lat="42.3600267" lon="13.3794267"><ele>651.8333333333334</ele><time>2026-05-02T16:51:54.28Z</time></trkpt><trkpt lat="42.3599817" lon="13.379505"><ele>652.0</ele><time>2026-05-02T16:51:56.28Z</time></trkpt><trkpt lat="42.359935" lon="13.3795683"><ele>651.8333333333334</ele><time>2026-05-02T16:51:57.28Z</time></trkpt><trkpt lat="42.3598733" lon="13.3797033"><ele>651.6666666666667</ele><time>2026-05-02T16:51:59.28Z</time></trkpt><trkpt lat="42.3598633" lon="13.3798017"><ele>651.5</ele><time>2026-05-02T16:52:00.28Z</time></trkpt><trkpt lat="42.3598533" lon="13.379905"><ele>651.3333333333334</ele><time>2026-05-02T16:52:01.28Z</time></trkpt><trkpt lat="42.3598433" lon="13.38"><ele>651.1666666666666</ele><time>2026-05-02T16:52:02.28Z</time></trkpt><trkpt lat="42.35983" lon="13.3800933"><ele>651.0</ele><time>2026-05-02T16:52:03.281Z</time></trkpt><trkpt lat="42.3598017" lon="13.3802083"><ele>651.0</ele><time>2026-05-02T16:52:04.28Z</time></trkpt><trkpt lat="42.3597483" lon="13.3803417"><ele>651.0</ele><time>2026-05-02T16:52:05.281Z</time></trkpt><trkpt lat="42.359685" lon="13.3805017"><ele>651.0</ele><time>2026-05-02T16:52:06.28Z</time></trkpt><trkpt lat="42.359625" lon="13.3806367"><ele>651.0</ele><time>2026-05-02T16:52:07.28Z</time></trkpt><trkpt lat="42.3595733" lon="13.3807533"><ele>650.8333333333334</ele><time>2026-05-02T16:52:08.28Z</time></trkpt><trkpt lat="42.3595267" lon="13.3808583"><ele>650.6666666666666</ele><time>2026-05-02T16:52:09.28Z</time></trkpt><trkpt lat="42.35948" lon="13.380955"><ele>650.5</ele><time>2026-05-02T16:52:10.28Z</time></trkpt><trkpt lat="42.3594417" lon="13.381035"><ele>650.3333333333333</ele><time>2026-05-02T16:52:11.28Z</time></trkpt><trkpt lat="42.35941" lon="13.38111"><ele>650.1666666666666</ele><time>2026-05-02T16:52:12.28Z</time></trkpt><trkpt lat="42.35934" lon="13.3812517"><ele>650.0</ele><time>2026-05-02T16:52:14.28Z</time></trkpt><trkpt lat="42.35931" lon="13.3813333"><ele>649.8</ele><time>2026-05-02T16:52:15.28Z</time></trkpt><trkpt lat="42.3592667" lon="13.3814283"><ele>649.6</ele><time>2026-05-02T16:52:16.28Z</time></trkpt><trkpt lat="42.35922" lon="13.381535"><ele>649.4000000000001</ele><time>2026-05-02T16:52:17.28Z</time></trkpt><trkpt lat="42.3591617" lon="13.381665"><ele>649.2</ele><time>2026-05-02T16:52:18.28Z</time></trkpt><trkpt lat="42.359105" lon="13.3817967"><ele>649.0</ele><time>2026-05-02T16:52:19.28Z</time></trkpt><trkpt lat="42.3590533" lon="13.381915"><ele>649.0</ele><time>2026-05-02T16:52:20.28Z</time></trkpt><trkpt lat="42.3590017" lon="13.38202"><ele>649.0</ele><time>2026-05-02T16:52:21.28Z</time></trkpt><trkpt lat="42.35896" lon="13.3821183"><ele>649.0</ele><time>2026-05-02T16:52:22.28Z</time></trkpt><trkpt lat="42.35891" lon="13.38222"><ele>649.0</ele><time>2026-05-02T16:52:23.28Z</time></trkpt><trkpt lat="42.35886" lon="13.3823217"><ele>649.0</ele><time>2026-05-02T16:52:24.28Z</time></trkpt><trkpt lat="42.3588167" lon="13.3824317"><ele>649.0</ele><time>2026-05-02T16:52:25.28Z</time></trkpt><trkpt lat="42.358775" lon="13.38253"><ele>649.0</ele><time>2026-05-02T16:52:26.28Z</time></trkpt><trkpt lat="42.3587317" lon="13.3826267"><ele>649.0</ele><time>2026-05-02T16:52:27.281Z</time></trkpt><trkpt lat="42.3586883" lon="13.38272"><ele>649.0</ele><time>2026-05-02T16:52:28.28Z</time></trkpt><trkpt lat="42.3586383" lon="13.382825"><ele>649.0</ele><time>2026-05-02T16:52:29.28Z</time></trkpt><trkpt lat="42.35859" lon="13.382925"><ele>649.0</ele><time>2026-05-02T16:52:30.28Z</time></trkpt><trkpt lat="42.3585383" lon="13.3830367"><ele>649.0</ele><time>2026-05-02T16:52:31.28Z</time></trkpt><trkpt lat="42.3584833" lon="13.3831517"><ele>649.0</ele><time>2026-05-02T16:52:32.28Z</time></trkpt><trkpt lat="42.3584283" lon="13.3832717"><ele>649.0</ele><time>2026-05-02T16:52:33.28Z</time></trkpt><trkpt lat="42.3583733" lon="13.3834017"><ele>649.0</ele><time>2026-05-02T16:52:34.28Z</time></trkpt><trkpt lat="42.35832" lon="13.3835267"><ele>649.0</ele><time>2026-05-02T16:52:35.28Z</time></trkpt><trkpt lat="42.358265" lon="13.3836517"><ele>649.0</ele><time>2026-05-02T16:52:36.28Z</time></trkpt><trkpt lat="42.3582133" lon="13.383775"><ele>649.0</ele><time>2026-05-02T16:52:37.281Z</time></trkpt><trkpt lat="42.3581633" lon="13.3838867"><ele>649.0</ele><time>2026-05-02T16:52:38.28Z</time></trkpt><trkpt lat="42.3581133" lon="13.3839867"><ele>649.0</ele><time>2026-05-02T16:52:39.28Z</time></trkpt><trkpt lat="42.3580717" lon="13.3840833"><ele>649.0</ele><time>2026-05-02T16:52:40.28Z</time></trkpt><trkpt lat="42.3580383" lon="13.38418"><ele>649.0</ele><time>2026-05-02T16:52:41.28Z</time></trkpt><trkpt lat="42.3579983" lon="13.384285"><ele>649.0</ele><time>2026-05-02T16:52:42.28Z</time></trkpt><trkpt lat="42.3579583" lon="13.3844017"><ele>649.0</ele><time>2026-05-02T16:52:43.281Z</time></trkpt><trkpt lat="42.35792" lon="13.3845"><ele>649.0</ele><time>2026-05-02T16:52:44.28Z</time></trkpt><trkpt lat="42.3578883" lon="13.3845983"><ele>649.0</ele><time>2026-05-02T16:52:45.28Z</time></trkpt><trkpt lat="42.3578567" lon="13.384705"><ele>649.0</ele><time>2026-05-02T16:52:46.28Z</time></trkpt><trkpt lat="42.3578267" lon="13.3848017"><ele>649.0</ele><time>2026-05-02T16:52:47.28Z</time></trkpt><trkpt lat="42.3577983" lon="13.38489"><ele>649.0</ele><time>2026-05-02T16:52:48.28Z</time></trkpt><trkpt lat="42.357775" lon="13.38497"><ele>649.0</ele><time>2026-05-02T16:52:49.28Z</time></trkpt><trkpt lat="42.357715" lon="13.3851"><ele>649.0</ele><time>2026-05-02T16:52:51.28Z</time></trkpt><trkpt lat="42.35764" lon="13.3852233"><ele>649.0</ele><time>2026-05-02T16:52:53.28Z</time></trkpt><trkpt lat="42.3575483" lon="13.38535"><ele>649.0</ele><time>2026-05-02T16:52:55.28Z</time></trkpt><trkpt lat="42.3575" lon="13.3854267"><ele>649.0</ele><time>2026-05-02T16:52:56.28Z</time></trkpt><trkpt lat="42.3574517" lon="13.385525"><ele>649.0</ele><time>2026-05-02T16:52:57.28Z</time></trkpt><trkpt lat="42.3573933" lon="13.38563"><ele>649.0</ele><time>2026-05-02T16:52:58.28Z</time></trkpt><trkpt lat="42.35732" lon="13.3857367"><ele>649.0</ele><time>2026-05-02T16:52:59.28Z</time></trkpt><trkpt lat="42.357255" lon="13.38584"><ele>648.8000000000001</ele><time>2026-05-02T16:53:00.28Z</time></trkpt><trkpt lat="42.3571817" lon="13.38594"><ele>648.6</ele><time>2026-05-02T16:53:01.28Z</time></trkpt><trkpt lat="42.3571067" lon="13.38604"><ele>648.4</ele><time>2026-05-02T16:53:02.28Z</time></trkpt><trkpt lat="42.3570383" lon="13.3861383"><ele>648.2</ele><time>2026-05-02T16:53:03.28Z</time></trkpt><trkpt lat="42.3569633" lon="13.386245"><ele>648.0</ele><time>2026-05-02T16:53:04.28Z</time></trkpt><trkpt lat="42.3568917" lon="13.3863467"><ele>648.0</ele><time>2026-05-02T16:53:05.279Z</time></trkpt><trkpt lat="42.3568233" lon="13.3864467"><ele>648.0</ele><time>2026-05-02T16:53:06.279Z</time></trkpt><trkpt lat="42.3567717" lon="13.3865433"><ele>648.0</ele><time>2026-05-02T16:53:07.279Z</time></trkpt><trkpt lat="42.3567117" lon="13.38663"><ele>648.0</ele><time>2026-05-02T16:53:08.279Z</time></trkpt><trkpt lat="42.3566567" lon="13.3867167"><ele>648.0</ele><time>2026-05-02T16:53:09.28Z</time></trkpt><trkpt lat="42.3565917" lon="13.3868283"><ele>648.0</ele><time>2026-05-02T16:53:10.279Z</time></trkpt><trkpt lat="42.3565117" lon="13.386955"><ele>648.0</ele><time>2026-05-02T16:53:11.279Z</time></trkpt><trkpt lat="42.3564367" lon="13.38709"><ele>648.0</ele><time>2026-05-02T16:53:12.28Z</time></trkpt><trkpt lat="42.3563617" lon="13.3872167"><ele>648.0</ele><time>2026-05-02T16:53:13.279Z</time></trkpt><trkpt lat="42.3562933" lon="13.3873467"><ele>647.5999999999999</ele><time>2026-05-02T16:53:14.279Z</time></trkpt><trkpt lat="42.3562317" lon="13.3874717"><ele>647.1999999999999</ele><time>2026-05-02T16:53:15.279Z</time></trkpt><trkpt lat="42.3561783" lon="13.387585"><ele>646.8</ele><time>2026-05-02T16:53:16.279Z</time></trkpt><trkpt lat="42.3561267" lon="13.387695"><ele>646.4</ele><time>2026-05-02T16:53:17.279Z</time></trkpt><trkpt lat="42.356065" lon="13.3877917"><ele>646.0</ele><time>2026-05-02T16:53:18.279Z</time></trkpt><trkpt lat="42.356015" lon="13.3878983"><ele>646.0</ele><time>2026-05-02T16:53:19.279Z</time></trkpt><trkpt lat="42.3559633" lon="13.38798"><ele>646.0</ele><time>2026-05-02T16:53:20.279Z</time></trkpt><trkpt lat="42.3559183" lon="13.38805"><ele>646.0</ele><time>2026-05-02T16:53:21.279Z</time></trkpt><trkpt lat="42.3558233" lon="13.3881483"><ele>646.0</ele><time>2026-05-02T16:53:23.279Z</time></trkpt><trkpt lat="42.355765" lon="13.38819"><ele>646.0</ele><time>2026-05-02T16:53:24.279Z</time></trkpt><trkpt lat="42.3557033" lon="13.3882133"><ele>646.0</ele><time>2026-05-02T16:53:25.279Z</time></trkpt><trkpt lat="42.3556367" lon="13.3882317"><ele>647.0</ele><time>2026-05-02T16:53:26.279Z</time></trkpt><trkpt lat="42.3555383" lon="13.3883017"><ele>648.0</ele><time>2026-05-02T16:53:28.279Z</time></trkpt><trkpt lat="42.3554967" lon="13.3884383"><ele>649.0</ele><time>2026-05-02T16:53:30.279Z</time></trkpt><trkpt lat="42.3555283" lon="13.3885867"><ele>650.0</ele><time>2026-05-02T16:53:32.279Z</time></trkpt><trkpt lat="42.3555833" lon="13.3886533"><ele>651.0</ele><time>2026-05-02T16:53:33.279Z</time></trkpt><trkpt lat="42.3556417" lon="13.38872"><ele>651.1999999999999</ele><time>2026-05-02T16:53:34.279Z</time></trkpt><trkpt lat="42.3557117" lon="13.3887933"><ele>651.4</ele><time>2026-05-02T16:53:35.279Z</time></trkpt><trkpt lat="42.35578" lon="13.38887"><ele>651.6</ele><time>2026-05-02T16:53:36.279Z</time></trkpt><trkpt lat="42.35584" lon="13.388965"><ele>651.8</ele><time>2026-05-02T16:53:37.279Z</time></trkpt><trkpt lat="42.3559083" lon="13.3890783"><ele>652.0</ele><time>2026-05-02T16:53:38.279Z</time></trkpt><trkpt lat="42.3559883" lon="13.38919"><ele>653.0</ele><time>2026-05-02T16:53:39.279Z</time></trkpt><trkpt lat="42.3560567" lon="13.3892983"><ele>654.0</ele><time>2026-05-02T16:53:40.279Z</time></trkpt><trkpt lat="42.3561017" lon="13.389415"><ele>655.0</ele><time>2026-05-02T16:53:41.279Z</time></trkpt><trkpt lat="42.3561517" lon="13.38953"><ele>656.0</ele><time>2026-05-02T16:53:42.279Z</time></trkpt><trkpt lat="42.3562067" lon="13.3896583"><ele>657.0</ele><time>2026-05-02T16:53:43.279Z</time></trkpt><trkpt lat="42.3562633" lon="13.3897683"><ele>657.5</ele><time>2026-05-02T16:53:44.279Z</time></trkpt><trkpt lat="42.3563117" lon="13.38987"><ele>658.0</ele><time>2026-05-02T16:53:45.279Z</time></trkpt><trkpt lat="42.356355" lon="13.389955"><ele>658.5</ele><time>2026-05-02T16:53:46.279Z</time></trkpt><trkpt lat="42.3564083" lon="13.39003"><ele>659.0</ele><time>2026-05-02T16:53:47.279Z</time></trkpt><trkpt lat="42.3564567" lon="13.3901"><ele>659.5</ele><time>2026-05-02T16:53:48.279Z</time></trkpt><trkpt lat="42.3565133" lon="13.3901683"><ele>660.0</ele><time>2026-05-02T16:53:49.279Z</time></trkpt><trkpt lat="42.3565683" lon="13.3902467"><ele>659.0</ele><time>2026-05-02T16:53:50.279Z</time></trkpt><trkpt lat="42.3566267" lon="13.3903283"><ele>658.0</ele><time>2026-05-02T16:53:51.279Z</time></trkpt><trkpt lat="42.3566833" lon="13.390415"><ele>657.0</ele><time>2026-05-02T16:53:52.28Z</time></trkpt><trkpt lat="42.356735" lon="13.3905133"><ele>656.0</ele><time>2026-05-02T16:53:53.279Z</time></trkpt><trkpt lat="42.3567733" lon="13.3906033"><ele>655.0</ele><time>2026-05-02T16:53:54.279Z</time></trkpt><trkpt lat="42.3567933" lon="13.3907083"><ele>654.0</ele><time>2026-05-02T16:53:55.279Z</time></trkpt><trkpt lat="42.3567917" lon="13.3908267"><ele>654.0</ele><time>2026-05-02T16:53:56.279Z</time></trkpt><trkpt lat="42.3567683" lon="13.3909483"><ele>654.0</ele><time>2026-05-02T16:53:57.279Z</time></trkpt><trkpt lat="42.3567517" lon="13.3910783"><ele>654.0</ele><time>2026-05-02T16:53:58.279Z</time></trkpt><trkpt lat="42.3567233" lon="13.3912067"><ele>654.0</ele><time>2026-05-02T16:53:59.28Z</time></trkpt><trkpt lat="42.356705" lon="13.3913383"><ele>654.0</ele><time>2026-05-02T16:54:00.279Z</time></trkpt><trkpt lat="42.3566883" lon="13.3914583"><ele>654.8333333333334</ele><time>2026-05-02T16:54:01.279Z</time></trkpt><trkpt lat="42.3566767" lon="13.3915683"><ele>655.6666666666666</ele><time>2026-05-02T16:54:02.279Z</time></trkpt><trkpt lat="42.35667" lon="13.3916767"><ele>656.5</ele><time>2026-05-02T16:54:03.279Z</time></trkpt><trkpt lat="42.356655" lon="13.3917783"><ele>657.3333333333333</ele><time>2026-05-02T16:54:04.28Z</time></trkpt><trkpt lat="42.356655" lon="13.3918833"><ele>658.1666666666666</ele><time>2026-05-02T16:54:05.279Z</time></trkpt><trkpt lat="42.356655" lon="13.3919767"><ele>659.0</ele><time>2026-05-02T16:54:06.28Z</time></trkpt><trkpt lat="42.356655" lon="13.3921483"><ele>660.2</ele><time>2026-05-02T16:54:08.279Z</time></trkpt><trkpt lat="42.35665" lon="13.3922433"><ele>661.4000000000001</ele><time>2026-05-02T16:54:09.279Z</time></trkpt><trkpt lat="42.3566483" lon="13.3923917"><ele>662.6</ele><time>2026-05-02T16:54:11.279Z</time></trkpt><trkpt lat="42.35664" lon="13.3925383"><ele>663.8</ele><time>2026-05-02T16:54:13.28Z</time></trkpt><trkpt lat="42.3566383" lon="13.3927133"><ele>665.0</ele><time>2026-05-02T16:54:15.279Z</time></trkpt><trkpt lat="42.3566417" lon="13.3928267"><ele>665.0</ele><time>2026-05-02T16:54:16.279Z</time></trkpt><trkpt lat="42.356635" lon="13.392955"><ele>665.0</ele><time>2026-05-02T16:54:17.279Z</time></trkpt><trkpt lat="42.35663" lon="13.3930783"><ele>665.0</ele><time>2026-05-02T16:54:18.28Z</time></trkpt><trkpt lat="42.3566217" lon="13.393195"><ele>665.0</ele><time>2026-05-02T16:54:19.279Z</time></trkpt><trkpt lat="42.3566233" lon="13.3932917"><ele>665.0</ele><time>2026-05-02T16:54:20.279Z</time></trkpt><trkpt lat="42.356615" lon="13.393455"><ele>665.6666666666666</ele><time>2026-05-02T16:54:22.279Z</time></trkpt><trkpt lat="42.356615" lon="13.39362"><ele>666.3333333333333</ele><time>2026-05-02T16:54:24.279Z</time></trkpt><trkpt lat="42.3566133" lon="13.3937133"><ele>667.0</ele><time>2026-05-02T16:54:25.279Z</time></trkpt><trkpt lat="42.35661" lon="13.3938067"><ele>667.6666666666666</ele><time>2026-05-02T16:54:26.279Z</time></trkpt><trkpt lat="42.35661" lon="13.3939067"><ele>668.3333333333334</ele><time>2026-05-02T16:54:27.279Z</time></trkpt><trkpt lat="42.3566117" lon="13.3940267"><ele>669.0</ele><time>2026-05-02T16:54:28.279Z</time></trkpt><trkpt lat="42.3566067" lon="13.3941517"><ele>670.2</ele><time>2026-05-02T16:54:29.279Z</time></trkpt><trkpt lat="42.3566033" lon="13.39428"><ele>671.4000000000001</ele><time>2026-05-02T16:54:30.279Z</time></trkpt><trkpt lat="42.3566033" lon="13.3944017"><ele>672.6</ele><time>2026-05-02T16:54:31.28Z</time></trkpt><trkpt lat="42.3565933" lon="13.3945367"><ele>673.8</ele><time>2026-05-02T16:54:32.279Z</time></trkpt><trkpt lat="42.3565933" lon="13.3946733"><ele>675.0</ele><time>2026-05-02T16:54:33.279Z</time></trkpt><trkpt lat="42.3565883" lon="13.3948133"><ele>675.2</ele><time>2026-05-02T16:54:34.279Z</time></trkpt><trkpt lat="42.3565817" lon="13.3949417"><ele>675.4</ele><time>2026-05-02T16:54:35.279Z</time></trkpt><trkpt lat="42.356585" lon="13.3950683"><ele>675.5999999999999</ele><time>2026-05-02T16:54:36.279Z</time></trkpt><trkpt lat="42.356585" lon="13.3951967"><ele>675.8</ele><time>2026-05-02T16:54:37.279Z</time></trkpt><trkpt lat="42.356585" lon="13.39532"><ele>676.0</ele><time>2026-05-02T16:54:38.28Z</time></trkpt><trkpt lat="42.35658" lon="13.3954367"><ele>675.6666666666667</ele><time>2026-05-02T16:54:39.279Z</time></trkpt><trkpt lat="42.356575" lon="13.3955433"><ele>675.3333333333334</ele><time>2026-05-02T16:54:40.279Z</time></trkpt><trkpt lat="42.3565783" lon="13.3956333"><ele>675.0</ele><time>2026-05-02T16:54:41.279Z</time></trkpt><trkpt lat="42.35658" lon="13.395725"><ele>674.6666666666666</ele><time>2026-05-02T16:54:42.279Z</time></trkpt><trkpt lat="42.3565783" lon="13.3958167"><ele>674.3333333333333</ele><time>2026-05-02T16:54:43.279Z</time></trkpt><trkpt lat="42.35657" lon="13.3959033"><ele>674.0</ele><time>2026-05-02T16:54:44.279Z</time></trkpt><trkpt lat="42.3565683" lon="13.3960767"><ele>674.0</ele><time>2026-05-02T16:54:46.28Z</time></trkpt><trkpt lat="42.3565683" lon="13.39626"><ele>674.0</ele><time>2026-05-02T16:54:48.279Z</time></trkpt><trkpt lat="42.3565667" lon="13.3963683"><ele>674.0</ele><time>2026-05-02T16:54:49.279Z</time></trkpt><trkpt lat="42.3565567" lon="13.3964967"><ele>674.0</ele><time>2026-05-02T16:54:50.279Z</time></trkpt><trkpt lat="42.356545" lon="13.3966433"><ele>674.0</ele><time>2026-05-02T16:54:51.279Z</time></trkpt><trkpt lat="42.356535" lon="13.3967933"><ele>675.0</ele><time>2026-05-02T16:54:52.279Z</time></trkpt><trkpt lat="42.3565267" lon="13.3969517"><ele>676.0</ele><time>2026-05-02T16:54:53.279Z</time></trkpt><trkpt lat="42.3565217" lon="13.3970983"><ele>677.0</ele><time>2026-05-02T16:54:54.279Z</time></trkpt><trkpt lat="42.3565167" lon="13.3972467"><ele>678.0</ele><time>2026-05-02T16:54:55.279Z</time></trkpt><trkpt lat="42.3565217" lon="13.3973967"><ele>679.0</ele><time>2026-05-02T16:54:56.28Z</time></trkpt><trkpt lat="42.35653" lon="13.39755"><ele>681.25</ele><time>2026-05-02T16:54:57.28Z</time></trkpt><trkpt lat="42.3565333" lon="13.3976983"><ele>683.5</ele><time>2026-05-02T16:54:58.279Z</time></trkpt><trkpt lat="42.3565517" lon="13.39784"><ele>685.75</ele><time>2026-05-02T16:54:59.279Z</time></trkpt><trkpt lat="42.3566033" lon="13.397975"><ele>688.0</ele><time>2026-05-02T16:55:00.279Z</time></trkpt><trkpt lat="42.3566683" lon="13.398115"><ele>688.25</ele><time>2026-05-02T16:55:01.279Z</time></trkpt><trkpt lat="42.356735" lon="13.398245"><ele>688.5</ele><time>2026-05-02T16:55:02.279Z</time></trkpt><trkpt lat="42.3567867" lon="13.3983917"><ele>688.75</ele><time>2026-05-02T16:55:03.279Z</time></trkpt><trkpt lat="42.3568567" lon="13.3985183"><ele>689.0</ele><time>2026-05-02T16:55:04.279Z</time></trkpt><trkpt lat="42.3569" lon="13.3986583"><ele>689.0</ele><time>2026-05-02T16:55:05.279Z</time></trkpt><trkpt lat="42.3569467" lon="13.3988"><ele>689.0</ele><time>2026-05-02T16:55:06.28Z</time></trkpt><trkpt lat="42.3569717" lon="13.3989433"><ele>689.0</ele><time>2026-05-02T16:55:07.279Z</time></trkpt><trkpt lat="42.3569933" lon="13.399095"><ele>689.0</ele><time>2026-05-02T16:55:08.28Z</time></trkpt><trkpt lat="42.3570083" lon="13.3992433"><ele>689.0</ele><time>2026-05-02T16:55:09.279Z</time></trkpt><trkpt lat="42.35702" lon="13.3993733"><ele>690.0</ele><time>2026-05-02T16:55:10.279Z</time></trkpt><trkpt lat="42.3570283" lon="13.3995033"><ele>691.0</ele><time>2026-05-02T16:55:11.279Z</time></trkpt><trkpt lat="42.3570333" lon="13.399615"><ele>692.0</ele><time>2026-05-02T16:55:12.279Z</time></trkpt><trkpt lat="42.3570333" lon="13.39973"><ele>693.0</ele><time>2026-05-02T16:55:13.279Z</time></trkpt><trkpt lat="42.3570367" lon="13.3998567"><ele>694.0</ele><time>2026-05-02T16:55:14.279Z</time></trkpt><trkpt lat="42.3570317" lon="13.3999867"><ele>695.0</ele><time>2026-05-02T16:55:15.279Z</time></trkpt><trkpt lat="42.3570267" lon="13.4001183"><ele>696.0</ele><time>2026-05-02T16:55:16.279Z</time></trkpt><trkpt lat="42.3570267" lon="13.400235"><ele>697.0</ele><time>2026-05-02T16:55:17.279Z</time></trkpt><trkpt lat="42.3570267" lon="13.4003367"><ele>698.0</ele><time>2026-05-02T16:55:18.279Z</time></trkpt><trkpt lat="42.35703" lon="13.4004283"><ele>699.0</ele><time>2026-05-02T16:55:19.279Z</time></trkpt><trkpt lat="42.3570317" lon="13.400525"><ele>700.0</ele><time>2026-05-02T16:55:20.279Z</time></trkpt><trkpt lat="42.3570283" lon="13.4006267"><ele>700.8</ele><time>2026-05-02T16:55:21.28Z</time></trkpt><trkpt lat="42.3570367" lon="13.4007283"><ele>701.6</ele><time>2026-05-02T16:55:22.279Z</time></trkpt><trkpt lat="42.3570367" lon="13.400845"><ele>702.4000000000001</ele><time>2026-05-02T16:55:23.279Z</time></trkpt><trkpt lat="42.3570433" lon="13.4009717"><ele>703.2</ele><time>2026-05-02T16:55:24.279Z</time></trkpt><trkpt lat="42.3570433" lon="13.4010983"><ele>704.0</ele><time>2026-05-02T16:55:25.279Z</time></trkpt><trkpt lat="42.3570467" lon="13.4012367"><ele>703.8000000000001</ele><time>2026-05-02T16:55:26.279Z</time></trkpt><trkpt lat="42.3570517" lon="13.4013767"><ele>703.6</ele><time>2026-05-02T16:55:27.279Z</time></trkpt><trkpt lat="42.3570483" lon="13.4015133"><ele>703.4</ele><time>2026-05-02T16:55:28.28Z</time></trkpt><trkpt lat="42.3570467" lon="13.4016683"><ele>703.2</ele><time>2026-05-02T16:55:29.279Z</time></trkpt><trkpt lat="42.3570517" lon="13.4018217"><ele>703.0</ele><time>2026-05-02T16:55:30.279Z</time></trkpt><trkpt lat="42.3570533" lon="13.40196"><ele>703.0</ele><time>2026-05-02T16:55:31.279Z</time></trkpt><trkpt lat="42.3570383" lon="13.4021117"><ele>703.0</ele><time>2026-05-02T16:55:32.279Z</time></trkpt><trkpt lat="42.3570383" lon="13.4022433"><ele>703.0</ele><time>2026-05-02T16:55:33.279Z</time></trkpt><trkpt lat="42.3570367" lon="13.40238"><ele>703.0</ele><time>2026-05-02T16:55:34.279Z</time></trkpt><trkpt lat="42.357045" lon="13.4025083"><ele>703.0</ele><time>2026-05-02T16:55:35.279Z</time></trkpt><trkpt lat="42.3570617" lon="13.4026317"><ele>703.0</ele><time>2026-05-02T16:55:36.279Z</time></trkpt><trkpt lat="42.3570767" lon="13.402755"><ele>703.0</ele><time>2026-05-02T16:55:37.279Z</time></trkpt><trkpt lat="42.3570983" lon="13.4028933"><ele>703.0</ele><time>2026-05-02T16:55:38.279Z</time></trkpt><trkpt lat="42.3571467" lon="13.4030283"><ele>703.0</ele><time>2026-05-02T16:55:39.28Z</time></trkpt><trkpt lat="42.3571967" lon="13.4031667"><ele>703.0</ele><time>2026-05-02T16:55:40.279Z</time></trkpt><trkpt lat="42.35724" lon="13.40331"><ele>703.0</ele><time>2026-05-02T16:55:41.279Z</time></trkpt><trkpt lat="42.3572883" lon="13.403445"><ele>703.0</ele><time>2026-05-02T16:55:42.279Z</time></trkpt><trkpt lat="42.35736" lon="13.40357"><ele>703.0</ele><time>2026-05-02T16:55:43.28Z</time></trkpt><trkpt lat="42.3574017" lon="13.4037067"><ele>703.0</ele><time>2026-05-02T16:55:44.279Z</time></trkpt><trkpt lat="42.3574567" lon="13.403825"><ele>703.0</ele><time>2026-05-02T16:55:45.279Z</time></trkpt><trkpt lat="42.3575" lon="13.40395"><ele>702.8333333333334</ele><time>2026-05-02T16:55:46.279Z</time></trkpt><trkpt lat="42.3575417" lon="13.40407"><ele>702.6666666666667</ele><time>2026-05-02T16:55:47.279Z</time></trkpt><trkpt lat="42.35758" lon="13.4041867"><ele>702.5</ele><time>2026-05-02T16:55:48.279Z</time></trkpt><trkpt lat="42.357615" lon="13.40429"><ele>702.3333333333334</ele><time>2026-05-02T16:55:49.279Z</time></trkpt><trkpt lat="42.3576333" lon="13.4044083"><ele>702.1666666666666</ele><time>2026-05-02T16:55:50.279Z</time></trkpt><trkpt lat="42.3576267" lon="13.404505"><ele>702.0</ele><time>2026-05-02T16:55:51.279Z</time></trkpt><trkpt lat="42.3576167" lon="13.404615"><ele>703.0</ele><time>2026-05-02T16:55:52.279Z</time></trkpt><trkpt lat="42.357585" lon="13.4046983"><ele>704.0</ele><time>2026-05-02T16:55:53.279Z</time></trkpt><trkpt lat="42.35754" lon="13.40477"><ele>705.0</ele><time>2026-05-02T16:55:54.279Z</time></trkpt><trkpt lat="42.35748" lon="13.4048433"><ele>706.0</ele><time>2026-05-02T16:55:55.279Z</time></trkpt><trkpt lat="42.3573983" lon="13.4049017"><ele>707.0</ele><time>2026-05-02T16:55:56.28Z</time></trkpt><trkpt lat="42.3572967" lon="13.4049333"><ele>708.0</ele><time>2026-05-02T16:55:57.279Z</time></trkpt><trkpt lat="42.3572017" lon="13.404955"><ele>708.0</ele><time>2026-05-02T16:55:58.28Z</time></trkpt><trkpt lat="42.3570883" lon="13.4049717"><ele>708.0</ele><time>2026-05-02T16:55:59.279Z</time></trkpt><trkpt lat="42.356975" lon="13.4049783"><ele>708.0</ele><time>2026-05-02T16:56:00.279Z</time></trkpt><trkpt lat="42.3568567" lon="13.4050017"><ele>708.0</ele><time>2026-05-02T16:56:01.279Z</time></trkpt><trkpt lat="42.3567567" lon="13.4050333"><ele>708.0</ele><time>2026-05-02T16:56:02.279Z</time></trkpt><trkpt lat="42.3566717" lon="13.4050867"><ele>708.0</ele><time>2026-05-02T16:56:03.279Z</time></trkpt><trkpt lat="42.3566167" lon="13.4051417"><ele>708.0</ele><time>2026-05-02T16:56:04.279Z</time></trkpt><trkpt lat="42.3565283" lon="13.405225"><ele>708.0</ele><time>2026-05-02T16:56:06.279Z</time></trkpt><trkpt lat="42.3564367" lon="13.4052917"><ele>708.0</ele><time>2026-05-02T16:56:08.279Z</time></trkpt><trkpt lat="42.3563833" lon="13.4053417"><ele>708.0</ele><time>2026-05-02T16:56:09.279Z</time></trkpt><trkpt lat="42.3563267" lon="13.4053883"><ele>708.5999999999999</ele><time>2026-05-02T16:56:10.28Z</time></trkpt><trkpt lat="42.3562367" lon="13.4054733"><ele>709.1999999999999</ele><time>2026-05-02T16:56:12.279Z</time></trkpt><trkpt lat="42.3561483" lon="13.405545"><ele>709.8</ele><time>2026-05-02T16:56:14.279Z</time></trkpt><trkpt lat="42.3560767" lon="13.4055983"><ele>710.4</ele><time>2026-05-02T16:56:16.279Z</time></trkpt><trkpt lat="42.3559833" lon="13.405635"><ele>711.0</ele><time>2026-05-02T16:56:18.279Z</time></trkpt><trkpt lat="42.355865" lon="13.40559"><ele>711.0</ele><time>2026-05-02T16:56:20.279Z</time></trkpt><trkpt lat="42.3558117" lon="13.40553"><ele>711.0</ele><time>2026-05-02T16:56:21.28Z</time></trkpt><trkpt lat="42.3557733" lon="13.4054467"><ele>711.0</ele><time>2026-05-02T16:56:22.279Z</time></trkpt><trkpt lat="42.35575" lon="13.4053517"><ele>711.0</ele><time>2026-05-02T16:56:23.279Z</time></trkpt><trkpt lat="42.3557267" lon="13.4052483"><ele>711.0</ele><time>2026-05-02T16:56:24.279Z</time></trkpt><trkpt lat="42.355695" lon="13.405135"><ele>711.0</ele><time>2026-05-02T16:56:25.279Z</time></trkpt><trkpt lat="42.35566" lon="13.4049983"><ele>711.0</ele><time>2026-05-02T16:56:26.279Z</time></trkpt><trkpt lat="42.355635" lon="13.4048617"><ele>711.0</ele><time>2026-05-02T16:56:27.279Z</time></trkpt><trkpt lat="42.3556" lon="13.40472"><ele>711.0</ele><time>2026-05-02T16:56:28.279Z</time></trkpt><trkpt lat="42.355565" lon="13.4045667"><ele>711.0</ele><time>2026-05-02T16:56:29.279Z</time></trkpt><trkpt lat="42.3555183" lon="13.40441"><ele>713.4</ele><time>2026-05-02T16:56:30.28Z</time></trkpt><trkpt lat="42.355485" lon="13.40426"><ele>715.8</ele><time>2026-05-02T16:56:31.279Z</time></trkpt><trkpt lat="42.3554583" lon="13.4041117"><ele>718.1999999999999</ele><time>2026-05-02T16:56:32.279Z</time></trkpt><trkpt lat="42.3554283" lon="13.403975"><ele>720.5999999999999</ele><time>2026-05-02T16:56:33.279Z</time></trkpt><trkpt lat="42.3553867" lon="13.4038517"><ele>723.0</ele><time>2026-05-02T16:56:34.279Z</time></trkpt><trkpt lat="42.35536" lon="13.4037183"><ele>723.0</ele><time>2026-05-02T16:56:35.279Z</time></trkpt><trkpt lat="42.3553433" lon="13.4036017"><ele>723.0</ele><time>2026-05-02T16:56:36.279Z</time></trkpt><trkpt lat="42.35532" lon="13.4034833"><ele>723.0</ele><time>2026-05-02T16:56:37.279Z</time></trkpt><trkpt lat="42.3552867" lon="13.403365"><ele>723.0</ele><time>2026-05-02T16:56:38.28Z</time></trkpt><trkpt lat="42.35524" lon="13.403235"><ele>723.0</ele><time>2026-05-02T16:56:39.279Z</time></trkpt><trkpt lat="42.3551867" lon="13.40312"><ele>723.0</ele><time>2026-05-02T16:56:40.279Z</time></trkpt><trkpt lat="42.3551233" lon="13.4029983"><ele>723.0</ele><time>2026-05-02T16:56:41.279Z</time></trkpt><trkpt lat="42.3550467" lon="13.4028883"><ele>723.0</ele><time>2026-05-02T16:56:42.279Z</time></trkpt><trkpt lat="42.354965" lon="13.4027717"><ele>723.0</ele><time>2026-05-02T16:56:43.279Z</time></trkpt><trkpt lat="42.3548833" lon="13.4026617"><ele>721.5999999999999</ele><time>2026-05-02T16:56:44.279Z</time></trkpt><trkpt lat="42.354805" lon="13.40256"><ele>720.1999999999999</ele><time>2026-05-02T16:56:45.279Z</time></trkpt><trkpt lat="42.3547233" lon="13.4024733"><ele>718.8</ele><time>2026-05-02T16:56:46.279Z</time></trkpt><trkpt lat="42.354645" lon="13.4023833"><ele>717.4</ele><time>2026-05-02T16:56:47.28Z</time></trkpt><trkpt lat="42.35457" lon="13.40229"><ele>716.0</ele><time>2026-05-02T16:56:48.279Z</time></trkpt><trkpt lat="42.354505" lon="13.4022083"><ele>718.0</ele><time>2026-05-02T16:56:49.28Z</time></trkpt><trkpt lat="42.354445" lon="13.4021183"><ele>720.0</ele><time>2026-05-02T16:56:50.279Z</time></trkpt><trkpt lat="42.35439" lon="13.4020583"><ele>722.0</ele><time>2026-05-02T16:56:51.279Z</time></trkpt><trkpt lat="42.354345" lon="13.4019867"><ele>724.0</ele><time>2026-05-02T16:56:52.279Z</time></trkpt><trkpt lat="42.354315" lon="13.40191"><ele>726.0</ele><time>2026-05-02T16:56:53.28Z</time></trkpt><trkpt lat="42.354285" lon="13.401775"><ele>728.0</ele><time>2026-05-02T16:56:55.279Z</time></trkpt><trkpt lat="42.3543033" lon="13.401625"><ele>728.0</ele><time>2026-05-02T16:56:57.279Z</time></trkpt><trkpt lat="42.35433" lon="13.4014783"><ele>728.0</ele><time>2026-05-02T16:56:59.279Z</time></trkpt><trkpt lat="42.3542767" lon="13.4013933"><ele>728.0</ele><time>2026-05-02T16:57:01.279Z</time></trkpt><trkpt lat="42.35419" lon="13.4013683"><ele>728.0</ele><time>2026-05-02T16:57:03.279Z</time></trkpt><trkpt lat="42.3541033" lon="13.40136"><ele>728.0</ele><time>2026-05-02T16:57:05.279Z</time></trkpt><trkpt lat="42.3540367" lon="13.40133"><ele>728.0</ele><time>2026-05-02T16:57:07.279Z</time></trkpt><trkpt lat="42.35397" lon="13.4012833"><ele>728.5</ele><time>2026-05-02T16:57:09.279Z</time></trkpt><trkpt lat="42.35389" lon="13.4012567"><ele>729.0</ele><time>2026-05-02T16:57:11.279Z</time></trkpt><trkpt lat="42.353825" lon="13.4012333"><ele>729.5</ele><time>2026-05-02T16:57:13.279Z</time></trkpt><trkpt lat="42.35374" lon="13.4012683"><ele>730.0</ele><time>2026-05-02T16:57:16.28Z</time></trkpt><trkpt lat="42.3537117" lon="13.4013633"><ele>730.5</ele><time>2026-05-02T16:57:18.279Z</time></trkpt><trkpt lat="42.3536633" lon="13.40144"><ele>731.0</ele><time>2026-05-02T16:57:21.28Z</time></trkpt><trkpt lat="42.35362" lon="13.401535"><ele>731.4285714285714</ele><time>2026-05-02T16:57:23.279Z</time></trkpt><trkpt lat="42.3536333" lon="13.4016283"><ele>731.8571428571429</ele><time>2026-05-02T16:57:25.279Z</time></trkpt><trkpt lat="42.35367" lon="13.4016983"><ele>732.2857142857142</ele><time>2026-05-02T16:57:28.279Z</time></trkpt><trkpt lat="42.3537017" lon="13.4017733"><ele>732.7142857142858</ele><time>2026-05-02T16:57:32.279Z</time></trkpt><trkpt lat="42.353715" lon="13.4018717"><ele>733.1428571428572</ele><time>2026-05-02T16:57:34.279Z</time></trkpt><trkpt lat="42.3537167" lon="13.40196"><ele>733.5714285714286</ele><time>2026-05-02T16:57:36.279Z</time></trkpt><trkpt lat="42.3537283" lon="13.40209"><ele>734.0</ele><time>2026-05-02T16:57:39.279Z</time></trkpt><trkpt lat="42.3537433" lon="13.4021733"><ele>735.0</ele><time>2026-05-02T16:57:41.279Z</time></trkpt><trkpt lat="42.3537767" lon="13.4022483"><ele>735.0</ele><time>2026-05-02T16:57:45.28Z</time></trkpt></trkseg></trk></gpx>